<?xml version="1.0" encoding="UTF-8" standalone="no" ?>
<gpx xmlns="http://www.topografix.com/GPX/1/1" xmlns:xsi="http://www.w3.org/2001/XMLSchema-instance" xsi:schemaLocation="http://www.topografix.com/GPX/1/1 http://www.topografix.com/GPX/1/1/gpx.xsd" version="1.1" creator="VisuGPX - https://www.visugpx.com">
  <metadata>
    <name>Au phare des baleines</name>
  </metadata>
  <trk>
    <name><![CDATA[31 mai 2023 05 31 au phare des baleines]]></name>
    <trkseg>
      <trkpt lat="46.18863" lon="-1.38945">
        <ele>6.52416</ele>
        <time>2023-05-31T08:02:35.000Z</time>
      </trkpt>
      <trkpt lat="46.18865" lon="-1.38945">
        <ele>6.71727</ele>
        <time>2023-05-31T08:02:37.000Z</time>
      </trkpt>
      <trkpt lat="46.18869" lon="-1.38946">
        <ele>7.64252</ele>
        <time>2023-05-31T08:02:39.000Z</time>
      </trkpt>
      <trkpt lat="46.18872" lon="-1.38947">
        <ele>8.0288</ele>
        <time>2023-05-31T08:02:40.000Z</time>
      </trkpt>
      <trkpt lat="46.18874" lon="-1.38948">
        <ele>8.33132</ele>
        <time>2023-05-31T08:02:41.000Z</time>
      </trkpt>
      <trkpt lat="46.18876" lon="-1.38951">
        <ele>8.5223</ele>
        <time>2023-05-31T08:02:42.000Z</time>
      </trkpt>
      <trkpt lat="46.18877" lon="-1.38954">
        <ele>8.58046</ele>
        <time>2023-05-31T08:02:43.000Z</time>
      </trkpt>
      <trkpt lat="46.18878" lon="-1.38957">
        <ele>8.57407</ele>
        <time>2023-05-31T08:02:44.000Z</time>
      </trkpt>
      <trkpt lat="46.18878" lon="-1.3896">
        <ele>8.57197</ele>
        <time>2023-05-31T08:02:45.000Z</time>
      </trkpt>
      <trkpt lat="46.18878" lon="-1.38964">
        <ele>8.43476</ele>
        <time>2023-05-31T08:02:46.000Z</time>
      </trkpt>
      <trkpt lat="46.18879" lon="-1.38968">
        <ele>8.30297</ele>
        <time>2023-05-31T08:02:47.000Z</time>
      </trkpt>
      <trkpt lat="46.18879" lon="-1.38972">
        <ele>8.19945</ele>
        <time>2023-05-31T08:02:48.000Z</time>
      </trkpt>
      <trkpt lat="46.1888" lon="-1.38976">
        <ele>8.1479</ele>
        <time>2023-05-31T08:02:49.000Z</time>
      </trkpt>
      <trkpt lat="46.1888" lon="-1.3898">
        <ele>8.0515</ele>
        <time>2023-05-31T08:02:50.000Z</time>
      </trkpt>
      <trkpt lat="46.1888" lon="-1.38984">
        <ele>8.1163</ele>
        <time>2023-05-31T08:02:51.000Z</time>
      </trkpt>
      <trkpt lat="46.1888" lon="-1.38988">
        <ele>8.16453</ele>
        <time>2023-05-31T08:02:52.000Z</time>
      </trkpt>
      <trkpt lat="46.1888" lon="-1.38993">
        <ele>8.21084</ele>
        <time>2023-05-31T08:02:53.000Z</time>
      </trkpt>
      <trkpt lat="46.1888" lon="-1.38997">
        <ele>8.23388</ele>
        <time>2023-05-31T08:02:54.000Z</time>
      </trkpt>
      <trkpt lat="46.1888" lon="-1.39001">
        <ele>8.25774</ele>
        <time>2023-05-31T08:02:55.000Z</time>
      </trkpt>
      <trkpt lat="46.1888" lon="-1.39006">
        <ele>8.2762</ele>
        <time>2023-05-31T08:02:56.000Z</time>
      </trkpt>
      <trkpt lat="46.1888" lon="-1.3901">
        <ele>8.39331</ele>
        <time>2023-05-31T08:02:57.000Z</time>
      </trkpt>
      <trkpt lat="46.1888" lon="-1.39014">
        <ele>8.47997</ele>
        <time>2023-05-31T08:02:58.000Z</time>
      </trkpt>
      <trkpt lat="46.1888" lon="-1.39017">
        <ele>8.43291</ele>
        <time>2023-05-31T08:02:59.000Z</time>
      </trkpt>
      <trkpt lat="46.18879" lon="-1.39021">
        <ele>8.39284</ele>
        <time>2023-05-31T08:03:00.000Z</time>
      </trkpt>
      <trkpt lat="46.18879" lon="-1.39025">
        <ele>8.34518</ele>
        <time>2023-05-31T08:03:01.000Z</time>
      </trkpt>
      <trkpt lat="46.18879" lon="-1.39028">
        <ele>8.31805</ele>
        <time>2023-05-31T08:03:02.000Z</time>
      </trkpt>
      <trkpt lat="46.18879" lon="-1.39032">
        <ele>8.31727</ele>
        <time>2023-05-31T08:03:03.000Z</time>
      </trkpt>
      <trkpt lat="46.18879" lon="-1.39035">
        <ele>8.30686</ele>
        <time>2023-05-31T08:03:04.000Z</time>
      </trkpt>
      <trkpt lat="46.18879" lon="-1.39039">
        <ele>8.29833</ele>
        <time>2023-05-31T08:03:05.000Z</time>
      </trkpt>
      <trkpt lat="46.18879" lon="-1.39042">
        <ele>8.3472</ele>
        <time>2023-05-31T08:03:06.000Z</time>
      </trkpt>
      <trkpt lat="46.18879" lon="-1.39046">
        <ele>8.41471</ele>
        <time>2023-05-31T08:03:07.000Z</time>
      </trkpt>
      <trkpt lat="46.1888" lon="-1.39049">
        <ele>8.48344</ele>
        <time>2023-05-31T08:03:08.000Z</time>
      </trkpt>
      <trkpt lat="46.1888" lon="-1.39052">
        <ele>8.51263</ele>
        <time>2023-05-31T08:03:09.000Z</time>
      </trkpt>
      <trkpt lat="46.18881" lon="-1.39057">
        <ele>8.5765</ele>
        <time>2023-05-31T08:03:11.000Z</time>
      </trkpt>
      <trkpt lat="46.18882" lon="-1.3906">
        <ele>8.52099</ele>
        <time>2023-05-31T08:03:12.000Z</time>
      </trkpt>
      <trkpt lat="46.18883" lon="-1.39062">
        <ele>8.47774</ele>
        <time>2023-05-31T08:03:13.000Z</time>
      </trkpt>
      <trkpt lat="46.18884" lon="-1.39067">
        <ele>8.44051</ele>
        <time>2023-05-31T08:03:15.000Z</time>
      </trkpt>
      <trkpt lat="46.18884" lon="-1.3907">
        <ele>8.41383</ele>
        <time>2023-05-31T08:03:16.000Z</time>
      </trkpt>
      <trkpt lat="46.18884" lon="-1.39074">
        <ele>8.38629</ele>
        <time>2023-05-31T08:03:17.000Z</time>
      </trkpt>
      <trkpt lat="46.18884" lon="-1.39079">
        <ele>8.36013</ele>
        <time>2023-05-31T08:03:18.000Z</time>
      </trkpt>
      <trkpt lat="46.18884" lon="-1.39083">
        <ele>8.3204</ele>
        <time>2023-05-31T08:03:19.000Z</time>
      </trkpt>
      <trkpt lat="46.18885" lon="-1.39088">
        <ele>8.29209</ele>
        <time>2023-05-31T08:03:20.000Z</time>
      </trkpt>
      <trkpt lat="46.18885" lon="-1.39092">
        <ele>8.25125</ele>
        <time>2023-05-31T08:03:21.000Z</time>
      </trkpt>
      <trkpt lat="46.18885" lon="-1.39097">
        <ele>8.19821</ele>
        <time>2023-05-31T08:03:22.000Z</time>
      </trkpt>
      <trkpt lat="46.18885" lon="-1.39101">
        <ele>8.14397</ele>
        <time>2023-05-31T08:03:23.000Z</time>
      </trkpt>
      <trkpt lat="46.18885" lon="-1.39105">
        <ele>8.0813</ele>
        <time>2023-05-31T08:03:24.000Z</time>
      </trkpt>
      <trkpt lat="46.18886" lon="-1.39108">
        <ele>8.01547</ele>
        <time>2023-05-31T08:03:25.000Z</time>
      </trkpt>
      <trkpt lat="46.18886" lon="-1.39111">
        <ele>7.97236</ele>
        <time>2023-05-31T08:03:26.000Z</time>
      </trkpt>
      <trkpt lat="46.18885" lon="-1.39116">
        <ele>7.93683</ele>
        <time>2023-05-31T08:03:27.000Z</time>
      </trkpt>
      <trkpt lat="46.18885" lon="-1.3912">
        <ele>7.8921</ele>
        <time>2023-05-31T08:03:28.000Z</time>
      </trkpt>
      <trkpt lat="46.18885" lon="-1.39125">
        <ele>7.85713</ele>
        <time>2023-05-31T08:03:29.000Z</time>
      </trkpt>
      <trkpt lat="46.18885" lon="-1.3913">
        <ele>7.82047</ele>
        <time>2023-05-31T08:03:30.000Z</time>
      </trkpt>
      <trkpt lat="46.18885" lon="-1.39135">
        <ele>7.79675</ele>
        <time>2023-05-31T08:03:31.000Z</time>
      </trkpt>
      <trkpt lat="46.18885" lon="-1.3914">
        <ele>7.78124</ele>
        <time>2023-05-31T08:03:32.000Z</time>
      </trkpt>
      <trkpt lat="46.18885" lon="-1.39145">
        <ele>7.76956</ele>
        <time>2023-05-31T08:03:33.000Z</time>
      </trkpt>
      <trkpt lat="46.18886" lon="-1.39149">
        <ele>7.73541</ele>
        <time>2023-05-31T08:03:34.000Z</time>
      </trkpt>
      <trkpt lat="46.18886" lon="-1.39154">
        <ele>7.69075</ele>
        <time>2023-05-31T08:03:35.000Z</time>
      </trkpt>
      <trkpt lat="46.18886" lon="-1.39159">
        <ele>7.63696</ele>
        <time>2023-05-31T08:03:36.000Z</time>
      </trkpt>
      <trkpt lat="46.18887" lon="-1.39163">
        <ele>7.57345</ele>
        <time>2023-05-31T08:03:37.000Z</time>
      </trkpt>
      <trkpt lat="46.18887" lon="-1.39168">
        <ele>7.48593</ele>
        <time>2023-05-31T08:03:38.000Z</time>
      </trkpt>
      <trkpt lat="46.18887" lon="-1.39172">
        <ele>7.3868</ele>
        <time>2023-05-31T08:03:39.000Z</time>
      </trkpt>
      <trkpt lat="46.18887" lon="-1.39177">
        <ele>7.29499</ele>
        <time>2023-05-31T08:03:40.000Z</time>
      </trkpt>
      <trkpt lat="46.18887" lon="-1.39181">
        <ele>7.22279</ele>
        <time>2023-05-31T08:03:41.000Z</time>
      </trkpt>
      <trkpt lat="46.18888" lon="-1.39186">
        <ele>7.17613</ele>
        <time>2023-05-31T08:03:42.000Z</time>
      </trkpt>
      <trkpt lat="46.18888" lon="-1.39191">
        <ele>7.11057</ele>
        <time>2023-05-31T08:03:43.000Z</time>
      </trkpt>
      <trkpt lat="46.18888" lon="-1.39196">
        <ele>7.02832</ele>
        <time>2023-05-31T08:03:44.000Z</time>
      </trkpt>
      <trkpt lat="46.18888" lon="-1.39201">
        <ele>6.95094</ele>
        <time>2023-05-31T08:03:45.000Z</time>
      </trkpt>
      <trkpt lat="46.18888" lon="-1.39206">
        <ele>6.84482</ele>
        <time>2023-05-31T08:03:46.000Z</time>
      </trkpt>
      <trkpt lat="46.18889" lon="-1.3921">
        <ele>6.83002</ele>
        <time>2023-05-31T08:03:47.000Z</time>
      </trkpt>
      <trkpt lat="46.18889" lon="-1.39215">
        <ele>6.82556</ele>
        <time>2023-05-31T08:03:48.000Z</time>
      </trkpt>
      <trkpt lat="46.18889" lon="-1.3922">
        <ele>6.80008</ele>
        <time>2023-05-31T08:03:49.000Z</time>
      </trkpt>
      <trkpt lat="46.18889" lon="-1.39225">
        <ele>6.77774</ele>
        <time>2023-05-31T08:03:50.000Z</time>
      </trkpt>
      <trkpt lat="46.1889" lon="-1.3923">
        <ele>6.75827</ele>
        <time>2023-05-31T08:03:51.000Z</time>
      </trkpt>
      <trkpt lat="46.1889" lon="-1.39234">
        <ele>6.7329</ele>
        <time>2023-05-31T08:03:52.000Z</time>
      </trkpt>
      <trkpt lat="46.18891" lon="-1.39239">
        <ele>6.70376</ele>
        <time>2023-05-31T08:03:53.000Z</time>
      </trkpt>
      <trkpt lat="46.18891" lon="-1.39243">
        <ele>6.67935</ele>
        <time>2023-05-31T08:03:54.000Z</time>
      </trkpt>
      <trkpt lat="46.18892" lon="-1.39248">
        <ele>6.64463</ele>
        <time>2023-05-31T08:03:55.000Z</time>
      </trkpt>
      <trkpt lat="46.18893" lon="-1.39252">
        <ele>6.62023</ele>
        <time>2023-05-31T08:03:56.000Z</time>
      </trkpt>
      <trkpt lat="46.18894" lon="-1.39257">
        <ele>6.58701</ele>
        <time>2023-05-31T08:03:57.000Z</time>
      </trkpt>
      <trkpt lat="46.18895" lon="-1.39261">
        <ele>6.59293</ele>
        <time>2023-05-31T08:03:58.000Z</time>
      </trkpt>
      <trkpt lat="46.18895" lon="-1.39265">
        <ele>6.60058</ele>
        <time>2023-05-31T08:03:59.000Z</time>
      </trkpt>
      <trkpt lat="46.18896" lon="-1.3927">
        <ele>6.59899</ele>
        <time>2023-05-31T08:04:00.000Z</time>
      </trkpt>
      <trkpt lat="46.18897" lon="-1.39275">
        <ele>6.59299</ele>
        <time>2023-05-31T08:04:01.000Z</time>
      </trkpt>
      <trkpt lat="46.18898" lon="-1.39279">
        <ele>6.58813</ele>
        <time>2023-05-31T08:04:02.000Z</time>
      </trkpt>
      <trkpt lat="46.18899" lon="-1.39283">
        <ele>6.5996</ele>
        <time>2023-05-31T08:04:03.000Z</time>
      </trkpt>
      <trkpt lat="46.189" lon="-1.39287">
        <ele>6.64162</ele>
        <time>2023-05-31T08:04:04.000Z</time>
      </trkpt>
      <trkpt lat="46.18901" lon="-1.39291">
        <ele>6.68231</ele>
        <time>2023-05-31T08:04:05.000Z</time>
      </trkpt>
      <trkpt lat="46.18902" lon="-1.39296">
        <ele>6.77278</ele>
        <time>2023-05-31T08:04:06.000Z</time>
      </trkpt>
      <trkpt lat="46.18903" lon="-1.39301">
        <ele>6.75793</ele>
        <time>2023-05-31T08:04:07.000Z</time>
      </trkpt>
      <trkpt lat="46.18905" lon="-1.39305">
        <ele>6.74855</ele>
        <time>2023-05-31T08:04:08.000Z</time>
      </trkpt>
      <trkpt lat="46.18906" lon="-1.39309">
        <ele>6.74059</ele>
        <time>2023-05-31T08:04:09.000Z</time>
      </trkpt>
      <trkpt lat="46.18907" lon="-1.39314">
        <ele>6.74853</ele>
        <time>2023-05-31T08:04:10.000Z</time>
      </trkpt>
      <trkpt lat="46.18908" lon="-1.39319">
        <ele>6.75104</ele>
        <time>2023-05-31T08:04:11.000Z</time>
      </trkpt>
      <trkpt lat="46.1891" lon="-1.39323">
        <ele>6.74332</ele>
        <time>2023-05-31T08:04:12.000Z</time>
      </trkpt>
      <trkpt lat="46.18911" lon="-1.39328">
        <ele>6.75322</ele>
        <time>2023-05-31T08:04:13.000Z</time>
      </trkpt>
      <trkpt lat="46.18913" lon="-1.39333">
        <ele>6.7779</ele>
        <time>2023-05-31T08:04:14.000Z</time>
      </trkpt>
      <trkpt lat="46.18914" lon="-1.39337">
        <ele>6.79749</ele>
        <time>2023-05-31T08:04:15.000Z</time>
      </trkpt>
      <trkpt lat="46.18916" lon="-1.39341">
        <ele>6.8338</ele>
        <time>2023-05-31T08:04:16.000Z</time>
      </trkpt>
      <trkpt lat="46.18917" lon="-1.39346">
        <ele>6.88135</ele>
        <time>2023-05-31T08:04:17.000Z</time>
      </trkpt>
      <trkpt lat="46.18919" lon="-1.3935">
        <ele>6.93536</ele>
        <time>2023-05-31T08:04:18.000Z</time>
      </trkpt>
      <trkpt lat="46.18921" lon="-1.39355">
        <ele>6.98306</ele>
        <time>2023-05-31T08:04:19.000Z</time>
      </trkpt>
      <trkpt lat="46.18922" lon="-1.39359">
        <ele>7.04174</ele>
        <time>2023-05-31T08:04:20.000Z</time>
      </trkpt>
      <trkpt lat="46.18924" lon="-1.39364">
        <ele>7.10543</ele>
        <time>2023-05-31T08:04:21.000Z</time>
      </trkpt>
      <trkpt lat="46.18925" lon="-1.39368">
        <ele>7.14265</ele>
        <time>2023-05-31T08:04:22.000Z</time>
      </trkpt>
      <trkpt lat="46.18927" lon="-1.39373">
        <ele>7.18085</ele>
        <time>2023-05-31T08:04:23.000Z</time>
      </trkpt>
      <trkpt lat="46.18929" lon="-1.39377">
        <ele>7.17679</ele>
        <time>2023-05-31T08:04:24.000Z</time>
      </trkpt>
      <trkpt lat="46.1893" lon="-1.39382">
        <ele>7.18196</ele>
        <time>2023-05-31T08:04:25.000Z</time>
      </trkpt>
      <trkpt lat="46.18932" lon="-1.39386">
        <ele>7.20149</ele>
        <time>2023-05-31T08:04:26.000Z</time>
      </trkpt>
      <trkpt lat="46.18933" lon="-1.39391">
        <ele>7.21927</ele>
        <time>2023-05-31T08:04:27.000Z</time>
      </trkpt>
      <trkpt lat="46.18935" lon="-1.39396">
        <ele>7.20055</ele>
        <time>2023-05-31T08:04:28.000Z</time>
      </trkpt>
      <trkpt lat="46.18937" lon="-1.39401">
        <ele>7.18378</ele>
        <time>2023-05-31T08:04:29.000Z</time>
      </trkpt>
      <trkpt lat="46.18939" lon="-1.39406">
        <ele>7.13524</ele>
        <time>2023-05-31T08:04:30.000Z</time>
      </trkpt>
      <trkpt lat="46.18941" lon="-1.39411">
        <ele>7.08728</ele>
        <time>2023-05-31T08:04:31.000Z</time>
      </trkpt>
      <trkpt lat="46.18942" lon="-1.39416">
        <ele>7.04926</ele>
        <time>2023-05-31T08:04:32.000Z</time>
      </trkpt>
      <trkpt lat="46.18944" lon="-1.39421">
        <ele>6.96895</ele>
        <time>2023-05-31T08:04:33.000Z</time>
      </trkpt>
      <trkpt lat="46.18946" lon="-1.39425">
        <ele>6.89181</ele>
        <time>2023-05-31T08:04:34.000Z</time>
      </trkpt>
      <trkpt lat="46.18948" lon="-1.3943">
        <ele>6.83125</ele>
        <time>2023-05-31T08:04:35.000Z</time>
      </trkpt>
      <trkpt lat="46.18949" lon="-1.39435">
        <ele>6.85949</ele>
        <time>2023-05-31T08:04:36.000Z</time>
      </trkpt>
      <trkpt lat="46.18951" lon="-1.39441">
        <ele>6.84306</ele>
        <time>2023-05-31T08:04:37.000Z</time>
      </trkpt>
      <trkpt lat="46.18953" lon="-1.39446">
        <ele>6.81511</ele>
        <time>2023-05-31T08:04:38.000Z</time>
      </trkpt>
      <trkpt lat="46.18955" lon="-1.39451">
        <ele>6.80267</ele>
        <time>2023-05-31T08:04:39.000Z</time>
      </trkpt>
      <trkpt lat="46.18957" lon="-1.39456">
        <ele>6.76478</ele>
        <time>2023-05-31T08:04:40.000Z</time>
      </trkpt>
      <trkpt lat="46.18959" lon="-1.39461">
        <ele>6.70966</ele>
        <time>2023-05-31T08:04:41.000Z</time>
      </trkpt>
      <trkpt lat="46.18961" lon="-1.39465">
        <ele>6.685</ele>
        <time>2023-05-31T08:04:42.000Z</time>
      </trkpt>
      <trkpt lat="46.18963" lon="-1.3947">
        <ele>6.64409</ele>
        <time>2023-05-31T08:04:43.000Z</time>
      </trkpt>
      <trkpt lat="46.18966" lon="-1.39475">
        <ele>6.60383</ele>
        <time>2023-05-31T08:04:44.000Z</time>
      </trkpt>
      <trkpt lat="46.18968" lon="-1.39479">
        <ele>6.58521</ele>
        <time>2023-05-31T08:04:45.000Z</time>
      </trkpt>
      <trkpt lat="46.18971" lon="-1.39483">
        <ele>6.54769</ele>
        <time>2023-05-31T08:04:46.000Z</time>
      </trkpt>
      <trkpt lat="46.18973" lon="-1.39487">
        <ele>6.51423</ele>
        <time>2023-05-31T08:04:47.000Z</time>
      </trkpt>
      <trkpt lat="46.18976" lon="-1.39491">
        <ele>6.49227</ele>
        <time>2023-05-31T08:04:48.000Z</time>
      </trkpt>
      <trkpt lat="46.18977" lon="-1.39496">
        <ele>6.49433</ele>
        <time>2023-05-31T08:04:49.000Z</time>
      </trkpt>
      <trkpt lat="46.18979" lon="-1.39501">
        <ele>6.49575</ele>
        <time>2023-05-31T08:04:50.000Z</time>
      </trkpt>
      <trkpt lat="46.1898" lon="-1.39505">
        <ele>6.47261</ele>
        <time>2023-05-31T08:04:51.000Z</time>
      </trkpt>
      <trkpt lat="46.18981" lon="-1.3951">
        <ele>6.45254</ele>
        <time>2023-05-31T08:04:52.000Z</time>
      </trkpt>
      <trkpt lat="46.18983" lon="-1.39514">
        <ele>6.45491</ele>
        <time>2023-05-31T08:04:53.000Z</time>
      </trkpt>
      <trkpt lat="46.18984" lon="-1.39519">
        <ele>6.46918</ele>
        <time>2023-05-31T08:04:54.000Z</time>
      </trkpt>
      <trkpt lat="46.18986" lon="-1.39523">
        <ele>6.48065</ele>
        <time>2023-05-31T08:04:55.000Z</time>
      </trkpt>
      <trkpt lat="46.18988" lon="-1.39528">
        <ele>6.4015</ele>
        <time>2023-05-31T08:04:56.000Z</time>
      </trkpt>
      <trkpt lat="46.1899" lon="-1.39532">
        <ele>6.37517</ele>
        <time>2023-05-31T08:04:57.000Z</time>
      </trkpt>
      <trkpt lat="46.18992" lon="-1.39537">
        <ele>6.35344</ele>
        <time>2023-05-31T08:04:58.000Z</time>
      </trkpt>
      <trkpt lat="46.18994" lon="-1.39542">
        <ele>6.33907</ele>
        <time>2023-05-31T08:04:59.000Z</time>
      </trkpt>
      <trkpt lat="46.18996" lon="-1.39547">
        <ele>6.34524</ele>
        <time>2023-05-31T08:05:00.000Z</time>
      </trkpt>
      <trkpt lat="46.18998" lon="-1.39552">
        <ele>6.37293</ele>
        <time>2023-05-31T08:05:01.000Z</time>
      </trkpt>
      <trkpt lat="46.19" lon="-1.39558">
        <ele>6.39748</ele>
        <time>2023-05-31T08:05:02.000Z</time>
      </trkpt>
      <trkpt lat="46.19002" lon="-1.39563">
        <ele>6.44105</ele>
        <time>2023-05-31T08:05:03.000Z</time>
      </trkpt>
      <trkpt lat="46.19004" lon="-1.39568">
        <ele>6.50852</ele>
        <time>2023-05-31T08:05:04.000Z</time>
      </trkpt>
      <trkpt lat="46.19006" lon="-1.39572">
        <ele>6.53018</ele>
        <time>2023-05-31T08:05:05.000Z</time>
      </trkpt>
      <trkpt lat="46.19008" lon="-1.39577">
        <ele>6.55444</ele>
        <time>2023-05-31T08:05:06.000Z</time>
      </trkpt>
      <trkpt lat="46.1901" lon="-1.39582">
        <ele>6.58208</ele>
        <time>2023-05-31T08:05:07.000Z</time>
      </trkpt>
      <trkpt lat="46.19012" lon="-1.39587">
        <ele>6.63859</ele>
        <time>2023-05-31T08:05:08.000Z</time>
      </trkpt>
      <trkpt lat="46.19015" lon="-1.39593">
        <ele>6.67023</ele>
        <time>2023-05-31T08:05:09.000Z</time>
      </trkpt>
      <trkpt lat="46.19017" lon="-1.39597">
        <ele>6.71546</ele>
        <time>2023-05-31T08:05:10.000Z</time>
      </trkpt>
      <trkpt lat="46.19019" lon="-1.39602">
        <ele>6.78306</ele>
        <time>2023-05-31T08:05:11.000Z</time>
      </trkpt>
      <trkpt lat="46.19022" lon="-1.39607">
        <ele>6.84627</ele>
        <time>2023-05-31T08:05:12.000Z</time>
      </trkpt>
      <trkpt lat="46.19024" lon="-1.39612">
        <ele>6.91697</ele>
        <time>2023-05-31T08:05:13.000Z</time>
      </trkpt>
      <trkpt lat="46.19026" lon="-1.39617">
        <ele>6.96802</ele>
        <time>2023-05-31T08:05:14.000Z</time>
      </trkpt>
      <trkpt lat="46.19027" lon="-1.39623">
        <ele>6.97061</ele>
        <time>2023-05-31T08:05:15.000Z</time>
      </trkpt>
      <trkpt lat="46.19028" lon="-1.39629">
        <ele>7.04445</ele>
        <time>2023-05-31T08:05:16.000Z</time>
      </trkpt>
      <trkpt lat="46.1903" lon="-1.39635">
        <ele>7.10278</ele>
        <time>2023-05-31T08:05:17.000Z</time>
      </trkpt>
      <trkpt lat="46.19032" lon="-1.39641">
        <ele>7.16319</ele>
        <time>2023-05-31T08:05:18.000Z</time>
      </trkpt>
      <trkpt lat="46.19034" lon="-1.39646">
        <ele>7.24078</ele>
        <time>2023-05-31T08:05:19.000Z</time>
      </trkpt>
      <trkpt lat="46.19036" lon="-1.39652">
        <ele>7.25318</ele>
        <time>2023-05-31T08:05:20.000Z</time>
      </trkpt>
      <trkpt lat="46.19037" lon="-1.39657">
        <ele>7.25254</ele>
        <time>2023-05-31T08:05:21.000Z</time>
      </trkpt>
      <trkpt lat="46.19039" lon="-1.39662">
        <ele>7.22571</ele>
        <time>2023-05-31T08:05:22.000Z</time>
      </trkpt>
      <trkpt lat="46.19041" lon="-1.39668">
        <ele>7.17697</ele>
        <time>2023-05-31T08:05:23.000Z</time>
      </trkpt>
      <trkpt lat="46.19043" lon="-1.39674">
        <ele>7.13464</ele>
        <time>2023-05-31T08:05:24.000Z</time>
      </trkpt>
      <trkpt lat="46.19045" lon="-1.3968">
        <ele>7.09961</ele>
        <time>2023-05-31T08:05:25.000Z</time>
      </trkpt>
      <trkpt lat="46.19047" lon="-1.39685">
        <ele>7.04074</ele>
        <time>2023-05-31T08:05:26.000Z</time>
      </trkpt>
      <trkpt lat="46.19049" lon="-1.3969">
        <ele>7.09219</ele>
        <time>2023-05-31T08:05:27.000Z</time>
      </trkpt>
      <trkpt lat="46.19051" lon="-1.39696">
        <ele>7.14752</ele>
        <time>2023-05-31T08:05:28.000Z</time>
      </trkpt>
      <trkpt lat="46.19052" lon="-1.39702">
        <ele>7.19102</ele>
        <time>2023-05-31T08:05:29.000Z</time>
      </trkpt>
      <trkpt lat="46.19054" lon="-1.39707">
        <ele>7.21221</ele>
        <time>2023-05-31T08:05:30.000Z</time>
      </trkpt>
      <trkpt lat="46.19056" lon="-1.39713">
        <ele>7.23927</ele>
        <time>2023-05-31T08:05:31.000Z</time>
      </trkpt>
      <trkpt lat="46.19057" lon="-1.39719">
        <ele>7.24701</ele>
        <time>2023-05-31T08:05:32.000Z</time>
      </trkpt>
      <trkpt lat="46.19059" lon="-1.39725">
        <ele>7.26559</ele>
        <time>2023-05-31T08:05:33.000Z</time>
      </trkpt>
      <trkpt lat="46.19062" lon="-1.39731">
        <ele>7.29524</ele>
        <time>2023-05-31T08:05:34.000Z</time>
      </trkpt>
      <trkpt lat="46.19064" lon="-1.39736">
        <ele>7.37491</ele>
        <time>2023-05-31T08:05:35.000Z</time>
      </trkpt>
      <trkpt lat="46.19066" lon="-1.39742">
        <ele>7.37131</ele>
        <time>2023-05-31T08:05:36.000Z</time>
      </trkpt>
      <trkpt lat="46.19068" lon="-1.39749">
        <ele>7.34015</ele>
        <time>2023-05-31T08:05:37.000Z</time>
      </trkpt>
      <trkpt lat="46.1907" lon="-1.39754">
        <ele>7.28083</ele>
        <time>2023-05-31T08:05:38.000Z</time>
      </trkpt>
      <trkpt lat="46.19072" lon="-1.39761">
        <ele>7.20293</ele>
        <time>2023-05-31T08:05:39.000Z</time>
      </trkpt>
      <trkpt lat="46.19075" lon="-1.39767">
        <ele>7.18669</ele>
        <time>2023-05-31T08:05:40.000Z</time>
      </trkpt>
      <trkpt lat="46.19077" lon="-1.39773">
        <ele>7.17114</ele>
        <time>2023-05-31T08:05:41.000Z</time>
      </trkpt>
      <trkpt lat="46.19079" lon="-1.3978">
        <ele>7.18047</ele>
        <time>2023-05-31T08:05:42.000Z</time>
      </trkpt>
      <trkpt lat="46.19082" lon="-1.39786">
        <ele>7.19861</ele>
        <time>2023-05-31T08:05:43.000Z</time>
      </trkpt>
      <trkpt lat="46.19083" lon="-1.39793">
        <ele>7.24332</ele>
        <time>2023-05-31T08:05:44.000Z</time>
      </trkpt>
      <trkpt lat="46.19085" lon="-1.39799">
        <ele>7.22655</ele>
        <time>2023-05-31T08:05:45.000Z</time>
      </trkpt>
      <trkpt lat="46.19087" lon="-1.39805">
        <ele>7.21077</ele>
        <time>2023-05-31T08:05:46.000Z</time>
      </trkpt>
      <trkpt lat="46.19089" lon="-1.39812">
        <ele>7.0617</ele>
        <time>2023-05-31T08:05:47.000Z</time>
      </trkpt>
      <trkpt lat="46.19092" lon="-1.39817">
        <ele>6.92601</ele>
        <time>2023-05-31T08:05:48.000Z</time>
      </trkpt>
      <trkpt lat="46.19094" lon="-1.39823">
        <ele>6.8103</ele>
        <time>2023-05-31T08:05:49.000Z</time>
      </trkpt>
      <trkpt lat="46.19096" lon="-1.39828">
        <ele>6.6876</ele>
        <time>2023-05-31T08:05:50.000Z</time>
      </trkpt>
      <trkpt lat="46.19098" lon="-1.39835">
        <ele>6.62776</ele>
        <time>2023-05-31T08:05:51.000Z</time>
      </trkpt>
      <trkpt lat="46.19099" lon="-1.39842">
        <ele>6.59201</ele>
        <time>2023-05-31T08:05:52.000Z</time>
      </trkpt>
      <trkpt lat="46.191" lon="-1.39848">
        <ele>6.54989</ele>
        <time>2023-05-31T08:05:53.000Z</time>
      </trkpt>
      <trkpt lat="46.19102" lon="-1.39853">
        <ele>6.49039</ele>
        <time>2023-05-31T08:05:54.000Z</time>
      </trkpt>
      <trkpt lat="46.19104" lon="-1.39859">
        <ele>6.43147</ele>
        <time>2023-05-31T08:05:55.000Z</time>
      </trkpt>
      <trkpt lat="46.19106" lon="-1.39865">
        <ele>6.3549</ele>
        <time>2023-05-31T08:05:56.000Z</time>
      </trkpt>
      <trkpt lat="46.19108" lon="-1.3987">
        <ele>6.27303</ele>
        <time>2023-05-31T08:05:57.000Z</time>
      </trkpt>
      <trkpt lat="46.19111" lon="-1.39877">
        <ele>6.17095</ele>
        <time>2023-05-31T08:05:58.000Z</time>
      </trkpt>
      <trkpt lat="46.19113" lon="-1.39882">
        <ele>6.08038</ele>
        <time>2023-05-31T08:05:59.000Z</time>
      </trkpt>
      <trkpt lat="46.19115" lon="-1.39889">
        <ele>5.99408</ele>
        <time>2023-05-31T08:06:00.000Z</time>
      </trkpt>
      <trkpt lat="46.19117" lon="-1.39895">
        <ele>5.90948</ele>
        <time>2023-05-31T08:06:01.000Z</time>
      </trkpt>
      <trkpt lat="46.19119" lon="-1.39901">
        <ele>5.83918</ele>
        <time>2023-05-31T08:06:02.000Z</time>
      </trkpt>
      <trkpt lat="46.19121" lon="-1.39908">
        <ele>5.75948</ele>
        <time>2023-05-31T08:06:03.000Z</time>
      </trkpt>
      <trkpt lat="46.19124" lon="-1.39915">
        <ele>5.64946</ele>
        <time>2023-05-31T08:06:04.000Z</time>
      </trkpt>
      <trkpt lat="46.19125" lon="-1.39921">
        <ele>5.60076</ele>
        <time>2023-05-31T08:06:05.000Z</time>
      </trkpt>
      <trkpt lat="46.19128" lon="-1.39928">
        <ele>5.57309</ele>
        <time>2023-05-31T08:06:06.000Z</time>
      </trkpt>
      <trkpt lat="46.1913" lon="-1.39934">
        <ele>5.55117</ele>
        <time>2023-05-31T08:06:07.000Z</time>
      </trkpt>
      <trkpt lat="46.19133" lon="-1.39941">
        <ele>5.52687</ele>
        <time>2023-05-31T08:06:08.000Z</time>
      </trkpt>
      <trkpt lat="46.19136" lon="-1.39947">
        <ele>5.4844</ele>
        <time>2023-05-31T08:06:09.000Z</time>
      </trkpt>
      <trkpt lat="46.19137" lon="-1.39953">
        <ele>5.43225</ele>
        <time>2023-05-31T08:06:10.000Z</time>
      </trkpt>
      <trkpt lat="46.19139" lon="-1.39961">
        <ele>5.33037</ele>
        <time>2023-05-31T08:06:11.000Z</time>
      </trkpt>
      <trkpt lat="46.19141" lon="-1.39969">
        <ele>5.25037</ele>
        <time>2023-05-31T08:06:12.000Z</time>
      </trkpt>
      <trkpt lat="46.19144" lon="-1.39976">
        <ele>5.16589</ele>
        <time>2023-05-31T08:06:13.000Z</time>
      </trkpt>
      <trkpt lat="46.19146" lon="-1.39984">
        <ele>5.10932</ele>
        <time>2023-05-31T08:06:14.000Z</time>
      </trkpt>
      <trkpt lat="46.19148" lon="-1.39991">
        <ele>5.05277</ele>
        <time>2023-05-31T08:06:15.000Z</time>
      </trkpt>
      <trkpt lat="46.19151" lon="-1.39997">
        <ele>4.99808</ele>
        <time>2023-05-31T08:06:16.000Z</time>
      </trkpt>
      <trkpt lat="46.19153" lon="-1.40004">
        <ele>5.03441</ele>
        <time>2023-05-31T08:06:17.000Z</time>
      </trkpt>
      <trkpt lat="46.19153" lon="-1.40012">
        <ele>5.05423</ele>
        <time>2023-05-31T08:06:18.000Z</time>
      </trkpt>
      <trkpt lat="46.19156" lon="-1.40017">
        <ele>5.01676</ele>
        <time>2023-05-31T08:06:19.000Z</time>
      </trkpt>
      <trkpt lat="46.19157" lon="-1.40023">
        <ele>5.04015</ele>
        <time>2023-05-31T08:06:20.000Z</time>
      </trkpt>
      <trkpt lat="46.1916" lon="-1.40028">
        <ele>5.07192</ele>
        <time>2023-05-31T08:06:21.000Z</time>
      </trkpt>
      <trkpt lat="46.19161" lon="-1.40034">
        <ele>5.02706</ele>
        <time>2023-05-31T08:06:22.000Z</time>
      </trkpt>
      <trkpt lat="46.19164" lon="-1.4004">
        <ele>4.98506</ele>
        <time>2023-05-31T08:06:23.000Z</time>
      </trkpt>
      <trkpt lat="46.19166" lon="-1.40047">
        <ele>4.91425</ele>
        <time>2023-05-31T08:06:24.000Z</time>
      </trkpt>
      <trkpt lat="46.19167" lon="-1.40053">
        <ele>4.93363</ele>
        <time>2023-05-31T08:06:25.000Z</time>
      </trkpt>
      <trkpt lat="46.19169" lon="-1.4006">
        <ele>4.93162</ele>
        <time>2023-05-31T08:06:26.000Z</time>
      </trkpt>
      <trkpt lat="46.19169" lon="-1.40068">
        <ele>4.94743</ele>
        <time>2023-05-31T08:06:27.000Z</time>
      </trkpt>
      <trkpt lat="46.19171" lon="-1.40074">
        <ele>4.93943</ele>
        <time>2023-05-31T08:06:28.000Z</time>
      </trkpt>
      <trkpt lat="46.19174" lon="-1.4008">
        <ele>4.95471</ele>
        <time>2023-05-31T08:06:29.000Z</time>
      </trkpt>
      <trkpt lat="46.19175" lon="-1.40087">
        <ele>5.02306</ele>
        <time>2023-05-31T08:06:30.000Z</time>
      </trkpt>
      <trkpt lat="46.19177" lon="-1.40094">
        <ele>5.08605</ele>
        <time>2023-05-31T08:06:31.000Z</time>
      </trkpt>
      <trkpt lat="46.19179" lon="-1.40101">
        <ele>5.09718</ele>
        <time>2023-05-31T08:06:32.000Z</time>
      </trkpt>
      <trkpt lat="46.1918" lon="-1.40108">
        <ele>5.11891</ele>
        <time>2023-05-31T08:06:33.000Z</time>
      </trkpt>
      <trkpt lat="46.19182" lon="-1.40114">
        <ele>5.12024</ele>
        <time>2023-05-31T08:06:34.000Z</time>
      </trkpt>
      <trkpt lat="46.19184" lon="-1.4012">
        <ele>5.09925</ele>
        <time>2023-05-31T08:06:35.000Z</time>
      </trkpt>
      <trkpt lat="46.19186" lon="-1.40127">
        <ele>5.08999</ele>
        <time>2023-05-31T08:06:36.000Z</time>
      </trkpt>
      <trkpt lat="46.19187" lon="-1.40134">
        <ele>5.03228</ele>
        <time>2023-05-31T08:06:37.000Z</time>
      </trkpt>
      <trkpt lat="46.19189" lon="-1.4014">
        <ele>5.02404</ele>
        <time>2023-05-31T08:06:38.000Z</time>
      </trkpt>
      <trkpt lat="46.1919" lon="-1.40147">
        <ele>5.06789</ele>
        <time>2023-05-31T08:06:39.000Z</time>
      </trkpt>
      <trkpt lat="46.19192" lon="-1.40154">
        <ele>5.06779</ele>
        <time>2023-05-31T08:06:40.000Z</time>
      </trkpt>
      <trkpt lat="46.19194" lon="-1.4016">
        <ele>5.06412</ele>
        <time>2023-05-31T08:06:41.000Z</time>
      </trkpt>
      <trkpt lat="46.19195" lon="-1.40167">
        <ele>5.1313</ele>
        <time>2023-05-31T08:06:42.000Z</time>
      </trkpt>
      <trkpt lat="46.19197" lon="-1.40174">
        <ele>5.20359</ele>
        <time>2023-05-31T08:06:43.000Z</time>
      </trkpt>
      <trkpt lat="46.19199" lon="-1.4018">
        <ele>5.30818</ele>
        <time>2023-05-31T08:06:44.000Z</time>
      </trkpt>
      <trkpt lat="46.19201" lon="-1.40186">
        <ele>5.32358</ele>
        <time>2023-05-31T08:06:45.000Z</time>
      </trkpt>
      <trkpt lat="46.19202" lon="-1.40193">
        <ele>5.33152</ele>
        <time>2023-05-31T08:06:46.000Z</time>
      </trkpt>
      <trkpt lat="46.19204" lon="-1.40199">
        <ele>5.35134</ele>
        <time>2023-05-31T08:06:47.000Z</time>
      </trkpt>
      <trkpt lat="46.19206" lon="-1.40206">
        <ele>5.36512</ele>
        <time>2023-05-31T08:06:48.000Z</time>
      </trkpt>
      <trkpt lat="46.19207" lon="-1.40213">
        <ele>5.38381</ele>
        <time>2023-05-31T08:06:49.000Z</time>
      </trkpt>
      <trkpt lat="46.19209" lon="-1.4022">
        <ele>5.35074</ele>
        <time>2023-05-31T08:06:50.000Z</time>
      </trkpt>
      <trkpt lat="46.19211" lon="-1.40227">
        <ele>5.31952</ele>
        <time>2023-05-31T08:06:51.000Z</time>
      </trkpt>
      <trkpt lat="46.19212" lon="-1.40234">
        <ele>5.31371</ele>
        <time>2023-05-31T08:06:52.000Z</time>
      </trkpt>
      <trkpt lat="46.19214" lon="-1.4024">
        <ele>5.28393</ele>
        <time>2023-05-31T08:06:53.000Z</time>
      </trkpt>
      <trkpt lat="46.19216" lon="-1.40247">
        <ele>5.23287</ele>
        <time>2023-05-31T08:06:54.000Z</time>
      </trkpt>
      <trkpt lat="46.19218" lon="-1.40254">
        <ele>5.25608</ele>
        <time>2023-05-31T08:06:55.000Z</time>
      </trkpt>
      <trkpt lat="46.1922" lon="-1.40261">
        <ele>5.31516</ele>
        <time>2023-05-31T08:06:56.000Z</time>
      </trkpt>
      <trkpt lat="46.19221" lon="-1.40267">
        <ele>5.37132</ele>
        <time>2023-05-31T08:06:57.000Z</time>
      </trkpt>
      <trkpt lat="46.19223" lon="-1.40274">
        <ele>5.43204</ele>
        <time>2023-05-31T08:06:58.000Z</time>
      </trkpt>
      <trkpt lat="46.19224" lon="-1.40281">
        <ele>5.44175</ele>
        <time>2023-05-31T08:06:59.000Z</time>
      </trkpt>
      <trkpt lat="46.19226" lon="-1.40288">
        <ele>5.40881</ele>
        <time>2023-05-31T08:07:00.000Z</time>
      </trkpt>
      <trkpt lat="46.19228" lon="-1.40295">
        <ele>5.3829</ele>
        <time>2023-05-31T08:07:01.000Z</time>
      </trkpt>
      <trkpt lat="46.19231" lon="-1.40303">
        <ele>5.33544</ele>
        <time>2023-05-31T08:07:02.000Z</time>
      </trkpt>
      <trkpt lat="46.19232" lon="-1.4031">
        <ele>5.31088</ele>
        <time>2023-05-31T08:07:03.000Z</time>
      </trkpt>
      <trkpt lat="46.19234" lon="-1.40317">
        <ele>5.30267</ele>
        <time>2023-05-31T08:07:04.000Z</time>
      </trkpt>
      <trkpt lat="46.19236" lon="-1.40323">
        <ele>5.24003</ele>
        <time>2023-05-31T08:07:05.000Z</time>
      </trkpt>
      <trkpt lat="46.19238" lon="-1.4033">
        <ele>5.21239</ele>
        <time>2023-05-31T08:07:06.000Z</time>
      </trkpt>
      <trkpt lat="46.19241" lon="-1.40336">
        <ele>5.15033</ele>
        <time>2023-05-31T08:07:07.000Z</time>
      </trkpt>
      <trkpt lat="46.19243" lon="-1.40344">
        <ele>5.0888</ele>
        <time>2023-05-31T08:07:08.000Z</time>
      </trkpt>
      <trkpt lat="46.19245" lon="-1.4035">
        <ele>5.07915</ele>
        <time>2023-05-31T08:07:09.000Z</time>
      </trkpt>
      <trkpt lat="46.19247" lon="-1.40358">
        <ele>5.09527</ele>
        <time>2023-05-31T08:07:10.000Z</time>
      </trkpt>
      <trkpt lat="46.19248" lon="-1.40365">
        <ele>5.1037</ele>
        <time>2023-05-31T08:07:11.000Z</time>
      </trkpt>
      <trkpt lat="46.1925" lon="-1.40373">
        <ele>5.1049</ele>
        <time>2023-05-31T08:07:12.000Z</time>
      </trkpt>
      <trkpt lat="46.19252" lon="-1.4038">
        <ele>5.11746</ele>
        <time>2023-05-31T08:07:13.000Z</time>
      </trkpt>
      <trkpt lat="46.19253" lon="-1.40388">
        <ele>5.16836</ele>
        <time>2023-05-31T08:07:14.000Z</time>
      </trkpt>
      <trkpt lat="46.19256" lon="-1.40397">
        <ele>5.1684</ele>
        <time>2023-05-31T08:07:15.000Z</time>
      </trkpt>
      <trkpt lat="46.19257" lon="-1.40404">
        <ele>5.13367</ele>
        <time>2023-05-31T08:07:16.000Z</time>
      </trkpt>
      <trkpt lat="46.19259" lon="-1.40411">
        <ele>5.1087</ele>
        <time>2023-05-31T08:07:17.000Z</time>
      </trkpt>
      <trkpt lat="46.19261" lon="-1.40418">
        <ele>5.08324</ele>
        <time>2023-05-31T08:07:18.000Z</time>
      </trkpt>
      <trkpt lat="46.19263" lon="-1.40425">
        <ele>5.06817</ele>
        <time>2023-05-31T08:07:19.000Z</time>
      </trkpt>
      <trkpt lat="46.19265" lon="-1.40432">
        <ele>5.06668</ele>
        <time>2023-05-31T08:07:20.000Z</time>
      </trkpt>
      <trkpt lat="46.19267" lon="-1.40438">
        <ele>5.05653</ele>
        <time>2023-05-31T08:07:21.000Z</time>
      </trkpt>
      <trkpt lat="46.19268" lon="-1.40445">
        <ele>5.05282</ele>
        <time>2023-05-31T08:07:22.000Z</time>
      </trkpt>
      <trkpt lat="46.1927" lon="-1.4045">
        <ele>5.0156</ele>
        <time>2023-05-31T08:07:23.000Z</time>
      </trkpt>
      <trkpt lat="46.19272" lon="-1.40456">
        <ele>4.97336</ele>
        <time>2023-05-31T08:07:24.000Z</time>
      </trkpt>
      <trkpt lat="46.19273" lon="-1.40462">
        <ele>4.99018</ele>
        <time>2023-05-31T08:07:25.000Z</time>
      </trkpt>
      <trkpt lat="46.19274" lon="-1.40469">
        <ele>4.98821</ele>
        <time>2023-05-31T08:07:26.000Z</time>
      </trkpt>
      <trkpt lat="46.19276" lon="-1.40475">
        <ele>4.98353</ele>
        <time>2023-05-31T08:07:27.000Z</time>
      </trkpt>
      <trkpt lat="46.19278" lon="-1.40481">
        <ele>5.00354</ele>
        <time>2023-05-31T08:07:28.000Z</time>
      </trkpt>
      <trkpt lat="46.19279" lon="-1.40488">
        <ele>4.93698</ele>
        <time>2023-05-31T08:07:29.000Z</time>
      </trkpt>
      <trkpt lat="46.19281" lon="-1.40495">
        <ele>4.87044</ele>
        <time>2023-05-31T08:07:30.000Z</time>
      </trkpt>
      <trkpt lat="46.19282" lon="-1.40501">
        <ele>4.79395</ele>
        <time>2023-05-31T08:07:31.000Z</time>
      </trkpt>
      <trkpt lat="46.19284" lon="-1.40508">
        <ele>4.72634</ele>
        <time>2023-05-31T08:07:32.000Z</time>
      </trkpt>
      <trkpt lat="46.19286" lon="-1.40514">
        <ele>4.65987</ele>
        <time>2023-05-31T08:07:33.000Z</time>
      </trkpt>
      <trkpt lat="46.19288" lon="-1.4052">
        <ele>4.55058</ele>
        <time>2023-05-31T08:07:34.000Z</time>
      </trkpt>
      <trkpt lat="46.1929" lon="-1.40527">
        <ele>4.50171</ele>
        <time>2023-05-31T08:07:35.000Z</time>
      </trkpt>
      <trkpt lat="46.19291" lon="-1.40534">
        <ele>4.45731</ele>
        <time>2023-05-31T08:07:36.000Z</time>
      </trkpt>
      <trkpt lat="46.19293" lon="-1.40541">
        <ele>4.40439</ele>
        <time>2023-05-31T08:07:37.000Z</time>
      </trkpt>
      <trkpt lat="46.19294" lon="-1.40548">
        <ele>4.34715</ele>
        <time>2023-05-31T08:07:38.000Z</time>
      </trkpt>
      <trkpt lat="46.19296" lon="-1.40555">
        <ele>4.3201</ele>
        <time>2023-05-31T08:07:39.000Z</time>
      </trkpt>
      <trkpt lat="46.19298" lon="-1.40562">
        <ele>4.29619</ele>
        <time>2023-05-31T08:07:40.000Z</time>
      </trkpt>
      <trkpt lat="46.19299" lon="-1.4057">
        <ele>4.28328</ele>
        <time>2023-05-31T08:07:41.000Z</time>
      </trkpt>
      <trkpt lat="46.19301" lon="-1.40576">
        <ele>4.26598</ele>
        <time>2023-05-31T08:07:42.000Z</time>
      </trkpt>
      <trkpt lat="46.19303" lon="-1.40583">
        <ele>4.2883</ele>
        <time>2023-05-31T08:07:43.000Z</time>
      </trkpt>
      <trkpt lat="46.19304" lon="-1.4059">
        <ele>4.29408</ele>
        <time>2023-05-31T08:07:44.000Z</time>
      </trkpt>
      <trkpt lat="46.19306" lon="-1.40598">
        <ele>4.28689</ele>
        <time>2023-05-31T08:07:45.000Z</time>
      </trkpt>
      <trkpt lat="46.19308" lon="-1.40605">
        <ele>4.24901</ele>
        <time>2023-05-31T08:07:46.000Z</time>
      </trkpt>
      <trkpt lat="46.1931" lon="-1.40612">
        <ele>4.20288</ele>
        <time>2023-05-31T08:07:47.000Z</time>
      </trkpt>
      <trkpt lat="46.19311" lon="-1.40619">
        <ele>4.15339</ele>
        <time>2023-05-31T08:07:48.000Z</time>
      </trkpt>
      <trkpt lat="46.19312" lon="-1.40626">
        <ele>4.10881</ele>
        <time>2023-05-31T08:07:49.000Z</time>
      </trkpt>
      <trkpt lat="46.19313" lon="-1.40634">
        <ele>4.07783</ele>
        <time>2023-05-31T08:07:50.000Z</time>
      </trkpt>
      <trkpt lat="46.19313" lon="-1.4064">
        <ele>4.10026</ele>
        <time>2023-05-31T08:07:51.000Z</time>
      </trkpt>
      <trkpt lat="46.19315" lon="-1.40646">
        <ele>4.11325</ele>
        <time>2023-05-31T08:07:52.000Z</time>
      </trkpt>
      <trkpt lat="46.19316" lon="-1.40653">
        <ele>4.13257</ele>
        <time>2023-05-31T08:07:53.000Z</time>
      </trkpt>
      <trkpt lat="46.19317" lon="-1.40659">
        <ele>4.1737</ele>
        <time>2023-05-31T08:07:54.000Z</time>
      </trkpt>
      <trkpt lat="46.19319" lon="-1.40665">
        <ele>4.12014</ele>
        <time>2023-05-31T08:07:55.000Z</time>
      </trkpt>
      <trkpt lat="46.1932" lon="-1.40671">
        <ele>4.05877</ele>
        <time>2023-05-31T08:07:56.000Z</time>
      </trkpt>
      <trkpt lat="46.19322" lon="-1.40677">
        <ele>4.0028</ele>
        <time>2023-05-31T08:07:57.000Z</time>
      </trkpt>
      <trkpt lat="46.19323" lon="-1.40683">
        <ele>3.95673</ele>
        <time>2023-05-31T08:07:58.000Z</time>
      </trkpt>
      <trkpt lat="46.19325" lon="-1.4069">
        <ele>3.91431</ele>
        <time>2023-05-31T08:07:59.000Z</time>
      </trkpt>
      <trkpt lat="46.19327" lon="-1.40696">
        <ele>3.88116</ele>
        <time>2023-05-31T08:08:00.000Z</time>
      </trkpt>
      <trkpt lat="46.19328" lon="-1.40703">
        <ele>3.83721</ele>
        <time>2023-05-31T08:08:01.000Z</time>
      </trkpt>
      <trkpt lat="46.1933" lon="-1.40709">
        <ele>3.81778</ele>
        <time>2023-05-31T08:08:02.000Z</time>
      </trkpt>
      <trkpt lat="46.19332" lon="-1.40716">
        <ele>3.76619</ele>
        <time>2023-05-31T08:08:03.000Z</time>
      </trkpt>
      <trkpt lat="46.19334" lon="-1.40723">
        <ele>3.66074</ele>
        <time>2023-05-31T08:08:04.000Z</time>
      </trkpt>
      <trkpt lat="46.19335" lon="-1.40729">
        <ele>3.56052</ele>
        <time>2023-05-31T08:08:05.000Z</time>
      </trkpt>
      <trkpt lat="46.19337" lon="-1.40735">
        <ele>3.52706</ele>
        <time>2023-05-31T08:08:06.000Z</time>
      </trkpt>
      <trkpt lat="46.19339" lon="-1.40741">
        <ele>3.50806</ele>
        <time>2023-05-31T08:08:07.000Z</time>
      </trkpt>
      <trkpt lat="46.19341" lon="-1.40748">
        <ele>3.46972</ele>
        <time>2023-05-31T08:08:08.000Z</time>
      </trkpt>
      <trkpt lat="46.19342" lon="-1.40755">
        <ele>3.44837</ele>
        <time>2023-05-31T08:08:09.000Z</time>
      </trkpt>
      <trkpt lat="46.19343" lon="-1.40762">
        <ele>3.36283</ele>
        <time>2023-05-31T08:08:10.000Z</time>
      </trkpt>
      <trkpt lat="46.19346" lon="-1.40768">
        <ele>3.23759</ele>
        <time>2023-05-31T08:08:11.000Z</time>
      </trkpt>
      <trkpt lat="46.19347" lon="-1.40774">
        <ele>3.13613</ele>
        <time>2023-05-31T08:08:12.000Z</time>
      </trkpt>
      <trkpt lat="46.19349" lon="-1.4078">
        <ele>3.06387</ele>
        <time>2023-05-31T08:08:13.000Z</time>
      </trkpt>
      <trkpt lat="46.1935" lon="-1.40787">
        <ele>3.00925</ele>
        <time>2023-05-31T08:08:14.000Z</time>
      </trkpt>
      <trkpt lat="46.19352" lon="-1.40793">
        <ele>3.0042</ele>
        <time>2023-05-31T08:08:15.000Z</time>
      </trkpt>
      <trkpt lat="46.19353" lon="-1.408">
        <ele>3.01307</ele>
        <time>2023-05-31T08:08:16.000Z</time>
      </trkpt>
      <trkpt lat="46.19356" lon="-1.40806">
        <ele>2.99922</ele>
        <time>2023-05-31T08:08:17.000Z</time>
      </trkpt>
      <trkpt lat="46.19356" lon="-1.40812">
        <ele>2.98328</ele>
        <time>2023-05-31T08:08:18.000Z</time>
      </trkpt>
      <trkpt lat="46.19357" lon="-1.40818">
        <ele>2.9863</ele>
        <time>2023-05-31T08:08:19.000Z</time>
      </trkpt>
      <trkpt lat="46.19359" lon="-1.40825">
        <ele>2.96006</ele>
        <time>2023-05-31T08:08:20.000Z</time>
      </trkpt>
      <trkpt lat="46.1936" lon="-1.40831">
        <ele>2.92947</ele>
        <time>2023-05-31T08:08:21.000Z</time>
      </trkpt>
      <trkpt lat="46.19362" lon="-1.40837">
        <ele>2.86673</ele>
        <time>2023-05-31T08:08:22.000Z</time>
      </trkpt>
      <trkpt lat="46.19363" lon="-1.40842">
        <ele>2.81831</ele>
        <time>2023-05-31T08:08:23.000Z</time>
      </trkpt>
      <trkpt lat="46.19365" lon="-1.40849">
        <ele>2.83013</ele>
        <time>2023-05-31T08:08:24.000Z</time>
      </trkpt>
      <trkpt lat="46.19367" lon="-1.40855">
        <ele>2.85786</ele>
        <time>2023-05-31T08:08:25.000Z</time>
      </trkpt>
      <trkpt lat="46.19368" lon="-1.40861">
        <ele>2.82804</ele>
        <time>2023-05-31T08:08:26.000Z</time>
      </trkpt>
      <trkpt lat="46.1937" lon="-1.40868">
        <ele>2.81321</ele>
        <time>2023-05-31T08:08:27.000Z</time>
      </trkpt>
      <trkpt lat="46.19371" lon="-1.40874">
        <ele>2.88511</ele>
        <time>2023-05-31T08:08:28.000Z</time>
      </trkpt>
      <trkpt lat="46.19373" lon="-1.40881">
        <ele>2.97227</ele>
        <time>2023-05-31T08:08:29.000Z</time>
      </trkpt>
      <trkpt lat="46.19375" lon="-1.40886">
        <ele>3.12535</ele>
        <time>2023-05-31T08:08:30.000Z</time>
      </trkpt>
      <trkpt lat="46.19376" lon="-1.40893">
        <ele>3.29418</ele>
        <time>2023-05-31T08:08:31.000Z</time>
      </trkpt>
      <trkpt lat="46.19378" lon="-1.40899">
        <ele>3.44622</ele>
        <time>2023-05-31T08:08:32.000Z</time>
      </trkpt>
      <trkpt lat="46.19379" lon="-1.40906">
        <ele>3.5873</ele>
        <time>2023-05-31T08:08:33.000Z</time>
      </trkpt>
      <trkpt lat="46.19381" lon="-1.40912">
        <ele>3.6881</ele>
        <time>2023-05-31T08:08:34.000Z</time>
      </trkpt>
      <trkpt lat="46.19383" lon="-1.40919">
        <ele>3.77928</ele>
        <time>2023-05-31T08:08:35.000Z</time>
      </trkpt>
      <trkpt lat="46.19385" lon="-1.40925">
        <ele>3.86005</ele>
        <time>2023-05-31T08:08:36.000Z</time>
      </trkpt>
      <trkpt lat="46.19386" lon="-1.40932">
        <ele>3.95796</ele>
        <time>2023-05-31T08:08:37.000Z</time>
      </trkpt>
      <trkpt lat="46.19388" lon="-1.40938">
        <ele>4.04665</ele>
        <time>2023-05-31T08:08:38.000Z</time>
      </trkpt>
      <trkpt lat="46.19389" lon="-1.40945">
        <ele>4.11793</ele>
        <time>2023-05-31T08:08:39.000Z</time>
      </trkpt>
      <trkpt lat="46.1939" lon="-1.40951">
        <ele>4.20594</ele>
        <time>2023-05-31T08:08:40.000Z</time>
      </trkpt>
      <trkpt lat="46.19391" lon="-1.40957">
        <ele>4.30375</ele>
        <time>2023-05-31T08:08:41.000Z</time>
      </trkpt>
      <trkpt lat="46.19392" lon="-1.40963">
        <ele>4.40459</ele>
        <time>2023-05-31T08:08:42.000Z</time>
      </trkpt>
      <trkpt lat="46.19393" lon="-1.40968">
        <ele>4.50118</ele>
        <time>2023-05-31T08:08:43.000Z</time>
      </trkpt>
      <trkpt lat="46.19395" lon="-1.40974">
        <ele>4.58651</ele>
        <time>2023-05-31T08:08:44.000Z</time>
      </trkpt>
      <trkpt lat="46.19397" lon="-1.4098">
        <ele>4.67465</ele>
        <time>2023-05-31T08:08:45.000Z</time>
      </trkpt>
      <trkpt lat="46.19398" lon="-1.40985">
        <ele>4.7888</ele>
        <time>2023-05-31T08:08:46.000Z</time>
      </trkpt>
      <trkpt lat="46.19399" lon="-1.40991">
        <ele>4.91001</ele>
        <time>2023-05-31T08:08:47.000Z</time>
      </trkpt>
      <trkpt lat="46.19401" lon="-1.40997">
        <ele>4.95099</ele>
        <time>2023-05-31T08:08:48.000Z</time>
      </trkpt>
      <trkpt lat="46.19402" lon="-1.41003">
        <ele>4.98556</ele>
        <time>2023-05-31T08:08:49.000Z</time>
      </trkpt>
      <trkpt lat="46.19404" lon="-1.41008">
        <ele>4.99185</ele>
        <time>2023-05-31T08:08:50.000Z</time>
      </trkpt>
      <trkpt lat="46.19405" lon="-1.41014">
        <ele>4.98615</ele>
        <time>2023-05-31T08:08:51.000Z</time>
      </trkpt>
      <trkpt lat="46.19406" lon="-1.4102">
        <ele>4.97824</ele>
        <time>2023-05-31T08:08:52.000Z</time>
      </trkpt>
      <trkpt lat="46.19407" lon="-1.41026">
        <ele>4.95391</ele>
        <time>2023-05-31T08:08:53.000Z</time>
      </trkpt>
      <trkpt lat="46.19409" lon="-1.41032">
        <ele>4.95733</ele>
        <time>2023-05-31T08:08:54.000Z</time>
      </trkpt>
      <trkpt lat="46.1941" lon="-1.41037">
        <ele>4.95495</ele>
        <time>2023-05-31T08:08:55.000Z</time>
      </trkpt>
      <trkpt lat="46.19411" lon="-1.41043">
        <ele>4.95151</ele>
        <time>2023-05-31T08:08:56.000Z</time>
      </trkpt>
      <trkpt lat="46.19412" lon="-1.41049">
        <ele>4.94779</ele>
        <time>2023-05-31T08:08:57.000Z</time>
      </trkpt>
      <trkpt lat="46.19413" lon="-1.41054">
        <ele>4.92445</ele>
        <time>2023-05-31T08:08:58.000Z</time>
      </trkpt>
      <trkpt lat="46.19414" lon="-1.4106">
        <ele>4.90633</ele>
        <time>2023-05-31T08:08:59.000Z</time>
      </trkpt>
      <trkpt lat="46.19415" lon="-1.41066">
        <ele>4.89932</ele>
        <time>2023-05-31T08:09:00.000Z</time>
      </trkpt>
      <trkpt lat="46.19414" lon="-1.41072">
        <ele>4.89058</ele>
        <time>2023-05-31T08:09:01.000Z</time>
      </trkpt>
      <trkpt lat="46.19414" lon="-1.41078">
        <ele>4.90201</ele>
        <time>2023-05-31T08:09:02.000Z</time>
      </trkpt>
      <trkpt lat="46.19412" lon="-1.41084">
        <ele>4.89898</ele>
        <time>2023-05-31T08:09:03.000Z</time>
      </trkpt>
      <trkpt lat="46.1941" lon="-1.4109">
        <ele>4.8971</ele>
        <time>2023-05-31T08:09:04.000Z</time>
      </trkpt>
      <trkpt lat="46.19408" lon="-1.41095">
        <ele>4.89428</ele>
        <time>2023-05-31T08:09:05.000Z</time>
      </trkpt>
      <trkpt lat="46.19406" lon="-1.41101">
        <ele>4.8934</ele>
        <time>2023-05-31T08:09:06.000Z</time>
      </trkpt>
      <trkpt lat="46.19405" lon="-1.41107">
        <ele>4.86802</ele>
        <time>2023-05-31T08:09:07.000Z</time>
      </trkpt>
      <trkpt lat="46.19403" lon="-1.41113">
        <ele>4.83782</ele>
        <time>2023-05-31T08:09:08.000Z</time>
      </trkpt>
      <trkpt lat="46.19401" lon="-1.41119">
        <ele>4.77671</ele>
        <time>2023-05-31T08:09:09.000Z</time>
      </trkpt>
      <trkpt lat="46.194" lon="-1.41124">
        <ele>4.72736</ele>
        <time>2023-05-31T08:09:10.000Z</time>
      </trkpt>
      <trkpt lat="46.19398" lon="-1.41129">
        <ele>4.70388</ele>
        <time>2023-05-31T08:09:11.000Z</time>
      </trkpt>
      <trkpt lat="46.19396" lon="-1.41135">
        <ele>4.7244</ele>
        <time>2023-05-31T08:09:12.000Z</time>
      </trkpt>
      <trkpt lat="46.19394" lon="-1.41141">
        <ele>4.76089</ele>
        <time>2023-05-31T08:09:13.000Z</time>
      </trkpt>
      <trkpt lat="46.19392" lon="-1.41147">
        <ele>4.81194</ele>
        <time>2023-05-31T08:09:14.000Z</time>
      </trkpt>
      <trkpt lat="46.19391" lon="-1.41152">
        <ele>4.81893</ele>
        <time>2023-05-31T08:09:15.000Z</time>
      </trkpt>
      <trkpt lat="46.19389" lon="-1.41158">
        <ele>4.8404</ele>
        <time>2023-05-31T08:09:16.000Z</time>
      </trkpt>
      <trkpt lat="46.19387" lon="-1.41164">
        <ele>4.8742</ele>
        <time>2023-05-31T08:09:17.000Z</time>
      </trkpt>
      <trkpt lat="46.19386" lon="-1.4117">
        <ele>4.93269</ele>
        <time>2023-05-31T08:09:18.000Z</time>
      </trkpt>
      <trkpt lat="46.19385" lon="-1.41176">
        <ele>4.97104</ele>
        <time>2023-05-31T08:09:19.000Z</time>
      </trkpt>
      <trkpt lat="46.19384" lon="-1.41182">
        <ele>5.01315</ele>
        <time>2023-05-31T08:09:20.000Z</time>
      </trkpt>
      <trkpt lat="46.19384" lon="-1.41188">
        <ele>5.06137</ele>
        <time>2023-05-31T08:09:21.000Z</time>
      </trkpt>
      <trkpt lat="46.19383" lon="-1.41194">
        <ele>5.07505</ele>
        <time>2023-05-31T08:09:22.000Z</time>
      </trkpt>
      <trkpt lat="46.19383" lon="-1.41201">
        <ele>5.11024</ele>
        <time>2023-05-31T08:09:23.000Z</time>
      </trkpt>
      <trkpt lat="46.19382" lon="-1.41207">
        <ele>5.15738</ele>
        <time>2023-05-31T08:09:24.000Z</time>
      </trkpt>
      <trkpt lat="46.19382" lon="-1.41213">
        <ele>5.18694</ele>
        <time>2023-05-31T08:09:25.000Z</time>
      </trkpt>
      <trkpt lat="46.19381" lon="-1.41219">
        <ele>5.19969</ele>
        <time>2023-05-31T08:09:26.000Z</time>
      </trkpt>
      <trkpt lat="46.19381" lon="-1.41225">
        <ele>5.25212</ele>
        <time>2023-05-31T08:09:27.000Z</time>
      </trkpt>
      <trkpt lat="46.1938" lon="-1.4123">
        <ele>5.29882</ele>
        <time>2023-05-31T08:09:28.000Z</time>
      </trkpt>
      <trkpt lat="46.1938" lon="-1.41236">
        <ele>5.3884</ele>
        <time>2023-05-31T08:09:29.000Z</time>
      </trkpt>
      <trkpt lat="46.19379" lon="-1.41241">
        <ele>5.47758</ele>
        <time>2023-05-31T08:09:30.000Z</time>
      </trkpt>
      <trkpt lat="46.19379" lon="-1.41246">
        <ele>5.53107</ele>
        <time>2023-05-31T08:09:31.000Z</time>
      </trkpt>
      <trkpt lat="46.19378" lon="-1.41252">
        <ele>5.55134</ele>
        <time>2023-05-31T08:09:32.000Z</time>
      </trkpt>
      <trkpt lat="46.19377" lon="-1.41258">
        <ele>5.55298</ele>
        <time>2023-05-31T08:09:33.000Z</time>
      </trkpt>
      <trkpt lat="46.19376" lon="-1.41264">
        <ele>5.53779</ele>
        <time>2023-05-31T08:09:34.000Z</time>
      </trkpt>
      <trkpt lat="46.19376" lon="-1.4127">
        <ele>5.58536</ele>
        <time>2023-05-31T08:09:35.000Z</time>
      </trkpt>
      <trkpt lat="46.19374" lon="-1.41276">
        <ele>5.59903</ele>
        <time>2023-05-31T08:09:36.000Z</time>
      </trkpt>
      <trkpt lat="46.19373" lon="-1.41281">
        <ele>5.5974</ele>
        <time>2023-05-31T08:09:37.000Z</time>
      </trkpt>
      <trkpt lat="46.19371" lon="-1.41287">
        <ele>5.59105</ele>
        <time>2023-05-31T08:09:38.000Z</time>
      </trkpt>
      <trkpt lat="46.19369" lon="-1.41292">
        <ele>5.65705</ele>
        <time>2023-05-31T08:09:39.000Z</time>
      </trkpt>
      <trkpt lat="46.19367" lon="-1.41298">
        <ele>5.68696</ele>
        <time>2023-05-31T08:09:40.000Z</time>
      </trkpt>
      <trkpt lat="46.19364" lon="-1.41303">
        <ele>5.71347</ele>
        <time>2023-05-31T08:09:41.000Z</time>
      </trkpt>
      <trkpt lat="46.19362" lon="-1.41308">
        <ele>5.77161</ele>
        <time>2023-05-31T08:09:42.000Z</time>
      </trkpt>
      <trkpt lat="46.19359" lon="-1.41312">
        <ele>5.81045</ele>
        <time>2023-05-31T08:09:43.000Z</time>
      </trkpt>
      <trkpt lat="46.19356" lon="-1.41316">
        <ele>5.83148</ele>
        <time>2023-05-31T08:09:44.000Z</time>
      </trkpt>
      <trkpt lat="46.19353" lon="-1.41321">
        <ele>5.83841</ele>
        <time>2023-05-31T08:09:45.000Z</time>
      </trkpt>
      <trkpt lat="46.1935" lon="-1.41325">
        <ele>5.84706</ele>
        <time>2023-05-31T08:09:46.000Z</time>
      </trkpt>
      <trkpt lat="46.19348" lon="-1.41331">
        <ele>5.84665</ele>
        <time>2023-05-31T08:09:47.000Z</time>
      </trkpt>
      <trkpt lat="46.19346" lon="-1.41336">
        <ele>5.85765</ele>
        <time>2023-05-31T08:09:48.000Z</time>
      </trkpt>
      <trkpt lat="46.19344" lon="-1.41342">
        <ele>5.85176</ele>
        <time>2023-05-31T08:09:49.000Z</time>
      </trkpt>
      <trkpt lat="46.19342" lon="-1.41347">
        <ele>5.84429</ele>
        <time>2023-05-31T08:09:50.000Z</time>
      </trkpt>
      <trkpt lat="46.1934" lon="-1.41354">
        <ele>5.84023</ele>
        <time>2023-05-31T08:09:51.000Z</time>
      </trkpt>
      <trkpt lat="46.19339" lon="-1.41359">
        <ele>5.81651</ele>
        <time>2023-05-31T08:09:52.000Z</time>
      </trkpt>
      <trkpt lat="46.19338" lon="-1.41366">
        <ele>5.78283</ele>
        <time>2023-05-31T08:09:53.000Z</time>
      </trkpt>
      <trkpt lat="46.19338" lon="-1.41372">
        <ele>5.75924</ele>
        <time>2023-05-31T08:09:54.000Z</time>
      </trkpt>
      <trkpt lat="46.19337" lon="-1.41378">
        <ele>5.70941</ele>
        <time>2023-05-31T08:09:55.000Z</time>
      </trkpt>
      <trkpt lat="46.19337" lon="-1.41384">
        <ele>5.6866</ele>
        <time>2023-05-31T08:09:56.000Z</time>
      </trkpt>
      <trkpt lat="46.19337" lon="-1.4139">
        <ele>5.66217</ele>
        <time>2023-05-31T08:09:57.000Z</time>
      </trkpt>
      <trkpt lat="46.19338" lon="-1.41396">
        <ele>5.6329</ele>
        <time>2023-05-31T08:09:58.000Z</time>
      </trkpt>
      <trkpt lat="46.19338" lon="-1.41402">
        <ele>5.54579</ele>
        <time>2023-05-31T08:09:59.000Z</time>
      </trkpt>
      <trkpt lat="46.19339" lon="-1.41408">
        <ele>5.49449</ele>
        <time>2023-05-31T08:10:00.000Z</time>
      </trkpt>
      <trkpt lat="46.1934" lon="-1.41414">
        <ele>5.45115</ele>
        <time>2023-05-31T08:10:01.000Z</time>
      </trkpt>
      <trkpt lat="46.19341" lon="-1.4142">
        <ele>5.39484</ele>
        <time>2023-05-31T08:10:02.000Z</time>
      </trkpt>
      <trkpt lat="46.19342" lon="-1.41426">
        <ele>5.3746</ele>
        <time>2023-05-31T08:10:03.000Z</time>
      </trkpt>
      <trkpt lat="46.19343" lon="-1.41432">
        <ele>5.35115</ele>
        <time>2023-05-31T08:10:04.000Z</time>
      </trkpt>
      <trkpt lat="46.19345" lon="-1.41437">
        <ele>5.36148</ele>
        <time>2023-05-31T08:10:05.000Z</time>
      </trkpt>
      <trkpt lat="46.19346" lon="-1.41443">
        <ele>5.37665</ele>
        <time>2023-05-31T08:10:06.000Z</time>
      </trkpt>
      <trkpt lat="46.19348" lon="-1.41448">
        <ele>5.38811</ele>
        <time>2023-05-31T08:10:07.000Z</time>
      </trkpt>
      <trkpt lat="46.19349" lon="-1.41453">
        <ele>5.39337</ele>
        <time>2023-05-31T08:10:08.000Z</time>
      </trkpt>
      <trkpt lat="46.1935" lon="-1.41459">
        <ele>5.38177</ele>
        <time>2023-05-31T08:10:09.000Z</time>
      </trkpt>
      <trkpt lat="46.19352" lon="-1.41465">
        <ele>5.39405</ele>
        <time>2023-05-31T08:10:10.000Z</time>
      </trkpt>
      <trkpt lat="46.19353" lon="-1.4147">
        <ele>5.39938</ele>
        <time>2023-05-31T08:10:11.000Z</time>
      </trkpt>
      <trkpt lat="46.19354" lon="-1.41476">
        <ele>5.44934</ele>
        <time>2023-05-31T08:10:12.000Z</time>
      </trkpt>
      <trkpt lat="46.19356" lon="-1.41481">
        <ele>5.4984</ele>
        <time>2023-05-31T08:10:13.000Z</time>
      </trkpt>
      <trkpt lat="46.19357" lon="-1.41487">
        <ele>5.53689</ele>
        <time>2023-05-31T08:10:14.000Z</time>
      </trkpt>
      <trkpt lat="46.19359" lon="-1.41492">
        <ele>5.58567</ele>
        <time>2023-05-31T08:10:15.000Z</time>
      </trkpt>
      <trkpt lat="46.1936" lon="-1.41498">
        <ele>5.59952</ele>
        <time>2023-05-31T08:10:16.000Z</time>
      </trkpt>
      <trkpt lat="46.19361" lon="-1.41503">
        <ele>5.6545</ele>
        <time>2023-05-31T08:10:17.000Z</time>
      </trkpt>
      <trkpt lat="46.19362" lon="-1.41508">
        <ele>5.70295</ele>
        <time>2023-05-31T08:10:18.000Z</time>
      </trkpt>
      <trkpt lat="46.19363" lon="-1.41514">
        <ele>5.7257</ele>
        <time>2023-05-31T08:10:19.000Z</time>
      </trkpt>
      <trkpt lat="46.19364" lon="-1.4152">
        <ele>5.72742</ele>
        <time>2023-05-31T08:10:20.000Z</time>
      </trkpt>
      <trkpt lat="46.19365" lon="-1.41526">
        <ele>5.72995</ele>
        <time>2023-05-31T08:10:21.000Z</time>
      </trkpt>
      <trkpt lat="46.19366" lon="-1.41531">
        <ele>5.71755</ele>
        <time>2023-05-31T08:10:22.000Z</time>
      </trkpt>
      <trkpt lat="46.19366" lon="-1.41537">
        <ele>5.65756</ele>
        <time>2023-05-31T08:10:23.000Z</time>
      </trkpt>
      <trkpt lat="46.19367" lon="-1.41543">
        <ele>5.61011</ele>
        <time>2023-05-31T08:10:24.000Z</time>
      </trkpt>
      <trkpt lat="46.19367" lon="-1.41549">
        <ele>5.57379</ele>
        <time>2023-05-31T08:10:25.000Z</time>
      </trkpt>
      <trkpt lat="46.19367" lon="-1.41555">
        <ele>5.55301</ele>
        <time>2023-05-31T08:10:26.000Z</time>
      </trkpt>
      <trkpt lat="46.19367" lon="-1.41561">
        <ele>5.52674</ele>
        <time>2023-05-31T08:10:27.000Z</time>
      </trkpt>
      <trkpt lat="46.19368" lon="-1.41567">
        <ele>5.51074</ele>
        <time>2023-05-31T08:10:28.000Z</time>
      </trkpt>
      <trkpt lat="46.19368" lon="-1.41573">
        <ele>5.5014</ele>
        <time>2023-05-31T08:10:29.000Z</time>
      </trkpt>
      <trkpt lat="46.19368" lon="-1.41579">
        <ele>5.46353</ele>
        <time>2023-05-31T08:10:30.000Z</time>
      </trkpt>
      <trkpt lat="46.1937" lon="-1.41586">
        <ele>5.43542</ele>
        <time>2023-05-31T08:10:31.000Z</time>
      </trkpt>
      <trkpt lat="46.1937" lon="-1.41592">
        <ele>5.37054</ele>
        <time>2023-05-31T08:10:32.000Z</time>
      </trkpt>
      <trkpt lat="46.19371" lon="-1.41598">
        <ele>5.30198</ele>
        <time>2023-05-31T08:10:33.000Z</time>
      </trkpt>
      <trkpt lat="46.19372" lon="-1.41604">
        <ele>5.23081</ele>
        <time>2023-05-31T08:10:34.000Z</time>
      </trkpt>
      <trkpt lat="46.19372" lon="-1.41611">
        <ele>5.17113</ele>
        <time>2023-05-31T08:10:35.000Z</time>
      </trkpt>
      <trkpt lat="46.19373" lon="-1.41617">
        <ele>5.1513</ele>
        <time>2023-05-31T08:10:36.000Z</time>
      </trkpt>
      <trkpt lat="46.19374" lon="-1.41623">
        <ele>5.10859</ele>
        <time>2023-05-31T08:10:37.000Z</time>
      </trkpt>
      <trkpt lat="46.19375" lon="-1.41629">
        <ele>5.0652</ele>
        <time>2023-05-31T08:10:38.000Z</time>
      </trkpt>
      <trkpt lat="46.19376" lon="-1.41635">
        <ele>5.04578</ele>
        <time>2023-05-31T08:10:39.000Z</time>
      </trkpt>
      <trkpt lat="46.19377" lon="-1.41641">
        <ele>5.03613</ele>
        <time>2023-05-31T08:10:40.000Z</time>
      </trkpt>
      <trkpt lat="46.19378" lon="-1.41646">
        <ele>5.01643</ele>
        <time>2023-05-31T08:10:41.000Z</time>
      </trkpt>
      <trkpt lat="46.1938" lon="-1.41652">
        <ele>5.03461</ele>
        <time>2023-05-31T08:10:42.000Z</time>
      </trkpt>
      <trkpt lat="46.19381" lon="-1.41657">
        <ele>5.06249</ele>
        <time>2023-05-31T08:10:43.000Z</time>
      </trkpt>
      <trkpt lat="46.19383" lon="-1.41661">
        <ele>5.09191</ele>
        <time>2023-05-31T08:10:44.000Z</time>
      </trkpt>
      <trkpt lat="46.19385" lon="-1.41667">
        <ele>5.10234</ele>
        <time>2023-05-31T08:10:45.000Z</time>
      </trkpt>
      <trkpt lat="46.19387" lon="-1.41672">
        <ele>5.08175</ele>
        <time>2023-05-31T08:10:46.000Z</time>
      </trkpt>
      <trkpt lat="46.1939" lon="-1.41677">
        <ele>5.075</ele>
        <time>2023-05-31T08:10:47.000Z</time>
      </trkpt>
      <trkpt lat="46.19391" lon="-1.41682">
        <ele>5.06337</ele>
        <time>2023-05-31T08:10:48.000Z</time>
      </trkpt>
      <trkpt lat="46.19393" lon="-1.41688">
        <ele>5.05543</ele>
        <time>2023-05-31T08:10:49.000Z</time>
      </trkpt>
      <trkpt lat="46.19395" lon="-1.41693">
        <ele>5.04831</ele>
        <time>2023-05-31T08:10:50.000Z</time>
      </trkpt>
      <trkpt lat="46.19397" lon="-1.41697">
        <ele>5.03117</ele>
        <time>2023-05-31T08:10:51.000Z</time>
      </trkpt>
      <trkpt lat="46.19399" lon="-1.41702">
        <ele>5.00268</ele>
        <time>2023-05-31T08:10:52.000Z</time>
      </trkpt>
      <trkpt lat="46.19401" lon="-1.41707">
        <ele>4.97874</ele>
        <time>2023-05-31T08:10:53.000Z</time>
      </trkpt>
      <trkpt lat="46.19403" lon="-1.41712">
        <ele>4.97489</ele>
        <time>2023-05-31T08:10:54.000Z</time>
      </trkpt>
      <trkpt lat="46.19405" lon="-1.41717">
        <ele>4.95654</ele>
        <time>2023-05-31T08:10:55.000Z</time>
      </trkpt>
      <trkpt lat="46.19406" lon="-1.41722">
        <ele>4.94031</ele>
        <time>2023-05-31T08:10:56.000Z</time>
      </trkpt>
      <trkpt lat="46.19408" lon="-1.41727">
        <ele>4.91467</ele>
        <time>2023-05-31T08:10:57.000Z</time>
      </trkpt>
      <trkpt lat="46.19409" lon="-1.41732">
        <ele>4.89774</ele>
        <time>2023-05-31T08:10:58.000Z</time>
      </trkpt>
      <trkpt lat="46.1941" lon="-1.41738">
        <ele>4.855</ele>
        <time>2023-05-31T08:10:59.000Z</time>
      </trkpt>
      <trkpt lat="46.19411" lon="-1.41743">
        <ele>4.83151</ele>
        <time>2023-05-31T08:11:00.000Z</time>
      </trkpt>
      <trkpt lat="46.19412" lon="-1.41749">
        <ele>4.79787</ele>
        <time>2023-05-31T08:11:01.000Z</time>
      </trkpt>
      <trkpt lat="46.19413" lon="-1.41754">
        <ele>4.76156</ele>
        <time>2023-05-31T08:11:02.000Z</time>
      </trkpt>
      <trkpt lat="46.19414" lon="-1.41759">
        <ele>4.74542</ele>
        <time>2023-05-31T08:11:03.000Z</time>
      </trkpt>
      <trkpt lat="46.19415" lon="-1.41765">
        <ele>4.72955</ele>
        <time>2023-05-31T08:11:04.000Z</time>
      </trkpt>
      <trkpt lat="46.19415" lon="-1.4177">
        <ele>4.70884</ele>
        <time>2023-05-31T08:11:05.000Z</time>
      </trkpt>
      <trkpt lat="46.19416" lon="-1.41776">
        <ele>4.72838</ele>
        <time>2023-05-31T08:11:06.000Z</time>
      </trkpt>
      <trkpt lat="46.19417" lon="-1.41782">
        <ele>4.74299</ele>
        <time>2023-05-31T08:11:07.000Z</time>
      </trkpt>
      <trkpt lat="46.19417" lon="-1.41787">
        <ele>4.77966</ele>
        <time>2023-05-31T08:11:08.000Z</time>
      </trkpt>
      <trkpt lat="46.19418" lon="-1.41793">
        <ele>4.81326</ele>
        <time>2023-05-31T08:11:09.000Z</time>
      </trkpt>
      <trkpt lat="46.19418" lon="-1.41799">
        <ele>4.85091</ele>
        <time>2023-05-31T08:11:10.000Z</time>
      </trkpt>
      <trkpt lat="46.19418" lon="-1.41805">
        <ele>4.9058</ele>
        <time>2023-05-31T08:11:11.000Z</time>
      </trkpt>
      <trkpt lat="46.19419" lon="-1.41811">
        <ele>4.98068</ele>
        <time>2023-05-31T08:11:12.000Z</time>
      </trkpt>
      <trkpt lat="46.19419" lon="-1.41817">
        <ele>5.05816</ele>
        <time>2023-05-31T08:11:13.000Z</time>
      </trkpt>
      <trkpt lat="46.19418" lon="-1.41823">
        <ele>5.11224</ele>
        <time>2023-05-31T08:11:14.000Z</time>
      </trkpt>
      <trkpt lat="46.19418" lon="-1.41829">
        <ele>5.17402</ele>
        <time>2023-05-31T08:11:15.000Z</time>
      </trkpt>
      <trkpt lat="46.19417" lon="-1.41835">
        <ele>5.25723</ele>
        <time>2023-05-31T08:11:16.000Z</time>
      </trkpt>
      <trkpt lat="46.19416" lon="-1.41841">
        <ele>5.32872</ele>
        <time>2023-05-31T08:11:17.000Z</time>
      </trkpt>
      <trkpt lat="46.19414" lon="-1.41847">
        <ele>5.39646</ele>
        <time>2023-05-31T08:11:18.000Z</time>
      </trkpt>
      <trkpt lat="46.19413" lon="-1.41852">
        <ele>5.46429</ele>
        <time>2023-05-31T08:11:19.000Z</time>
      </trkpt>
      <trkpt lat="46.19411" lon="-1.41858">
        <ele>5.49902</ele>
        <time>2023-05-31T08:11:20.000Z</time>
      </trkpt>
      <trkpt lat="46.19409" lon="-1.41863">
        <ele>5.54155</ele>
        <time>2023-05-31T08:11:21.000Z</time>
      </trkpt>
      <trkpt lat="46.19407" lon="-1.41869">
        <ele>5.5665</ele>
        <time>2023-05-31T08:11:22.000Z</time>
      </trkpt>
      <trkpt lat="46.19405" lon="-1.41874">
        <ele>5.57555</ele>
        <time>2023-05-31T08:11:23.000Z</time>
      </trkpt>
      <trkpt lat="46.19403" lon="-1.41879">
        <ele>5.56321</ele>
        <time>2023-05-31T08:11:24.000Z</time>
      </trkpt>
      <trkpt lat="46.19401" lon="-1.41884">
        <ele>5.54413</ele>
        <time>2023-05-31T08:11:25.000Z</time>
      </trkpt>
      <trkpt lat="46.19398" lon="-1.41888">
        <ele>5.51684</ele>
        <time>2023-05-31T08:11:26.000Z</time>
      </trkpt>
      <trkpt lat="46.19396" lon="-1.41893">
        <ele>5.47512</ele>
        <time>2023-05-31T08:11:27.000Z</time>
      </trkpt>
      <trkpt lat="46.19395" lon="-1.41897">
        <ele>5.41916</ele>
        <time>2023-05-31T08:11:28.000Z</time>
      </trkpt>
      <trkpt lat="46.19395" lon="-1.41902">
        <ele>5.37837</ele>
        <time>2023-05-31T08:11:29.000Z</time>
      </trkpt>
      <trkpt lat="46.19397" lon="-1.41907">
        <ele>5.35286</ele>
        <time>2023-05-31T08:11:30.000Z</time>
      </trkpt>
      <trkpt lat="46.194" lon="-1.4191">
        <ele>5.31895</ele>
        <time>2023-05-31T08:11:31.000Z</time>
      </trkpt>
      <trkpt lat="46.19404" lon="-1.41912">
        <ele>5.2743</ele>
        <time>2023-05-31T08:11:32.000Z</time>
      </trkpt>
      <trkpt lat="46.19407" lon="-1.41913">
        <ele>5.2386</ele>
        <time>2023-05-31T08:11:33.000Z</time>
      </trkpt>
      <trkpt lat="46.19411" lon="-1.41914">
        <ele>5.23352</ele>
        <time>2023-05-31T08:11:34.000Z</time>
      </trkpt>
      <trkpt lat="46.19415" lon="-1.41915">
        <ele>5.23071</ele>
        <time>2023-05-31T08:11:35.000Z</time>
      </trkpt>
      <trkpt lat="46.19419" lon="-1.41916">
        <ele>5.18513</ele>
        <time>2023-05-31T08:11:36.000Z</time>
      </trkpt>
      <trkpt lat="46.19422" lon="-1.41917">
        <ele>5.15445</ele>
        <time>2023-05-31T08:11:37.000Z</time>
      </trkpt>
      <trkpt lat="46.19426" lon="-1.41917">
        <ele>5.1151</ele>
        <time>2023-05-31T08:11:38.000Z</time>
      </trkpt>
      <trkpt lat="46.19429" lon="-1.41918">
        <ele>5.12222</ele>
        <time>2023-05-31T08:11:39.000Z</time>
      </trkpt>
      <trkpt lat="46.19433" lon="-1.41919">
        <ele>5.13525</ele>
        <time>2023-05-31T08:11:40.000Z</time>
      </trkpt>
      <trkpt lat="46.19436" lon="-1.4192">
        <ele>5.14673</ele>
        <time>2023-05-31T08:11:41.000Z</time>
      </trkpt>
      <trkpt lat="46.1944" lon="-1.4192">
        <ele>5.14994</ele>
        <time>2023-05-31T08:11:42.000Z</time>
      </trkpt>
      <trkpt lat="46.19443" lon="-1.41921">
        <ele>5.15038</ele>
        <time>2023-05-31T08:11:43.000Z</time>
      </trkpt>
      <trkpt lat="46.19447" lon="-1.41921">
        <ele>5.176</ele>
        <time>2023-05-31T08:11:44.000Z</time>
      </trkpt>
      <trkpt lat="46.1945" lon="-1.41921">
        <ele>5.18063</ele>
        <time>2023-05-31T08:11:45.000Z</time>
      </trkpt>
      <trkpt lat="46.19454" lon="-1.41921">
        <ele>5.17172</ele>
        <time>2023-05-31T08:11:46.000Z</time>
      </trkpt>
      <trkpt lat="46.19457" lon="-1.41921">
        <ele>5.16881</ele>
        <time>2023-05-31T08:11:47.000Z</time>
      </trkpt>
      <trkpt lat="46.19461" lon="-1.41922">
        <ele>5.16627</ele>
        <time>2023-05-31T08:11:48.000Z</time>
      </trkpt>
      <trkpt lat="46.19464" lon="-1.41922">
        <ele>5.16453</ele>
        <time>2023-05-31T08:11:49.000Z</time>
      </trkpt>
      <trkpt lat="46.19468" lon="-1.41923">
        <ele>5.1485</ele>
        <time>2023-05-31T08:11:50.000Z</time>
      </trkpt>
      <trkpt lat="46.19471" lon="-1.41924">
        <ele>5.11763</ele>
        <time>2023-05-31T08:11:51.000Z</time>
      </trkpt>
      <trkpt lat="46.19475" lon="-1.41925">
        <ele>5.10414</ele>
        <time>2023-05-31T08:11:52.000Z</time>
      </trkpt>
      <trkpt lat="46.19478" lon="-1.41925">
        <ele>5.09614</ele>
        <time>2023-05-31T08:11:53.000Z</time>
      </trkpt>
      <trkpt lat="46.19482" lon="-1.41925">
        <ele>5.10496</ele>
        <time>2023-05-31T08:11:54.000Z</time>
      </trkpt>
      <trkpt lat="46.19485" lon="-1.41926">
        <ele>5.08288</ele>
        <time>2023-05-31T08:11:55.000Z</time>
      </trkpt>
      <trkpt lat="46.19489" lon="-1.41926">
        <ele>5.07676</ele>
        <time>2023-05-31T08:11:56.000Z</time>
      </trkpt>
      <trkpt lat="46.19492" lon="-1.41926">
        <ele>5.06735</ele>
        <time>2023-05-31T08:11:57.000Z</time>
      </trkpt>
      <trkpt lat="46.19495" lon="-1.41926">
        <ele>5.06975</ele>
        <time>2023-05-31T08:11:58.000Z</time>
      </trkpt>
      <trkpt lat="46.19498" lon="-1.41927">
        <ele>5.05453</ele>
        <time>2023-05-31T08:11:59.000Z</time>
      </trkpt>
      <trkpt lat="46.19501" lon="-1.41927">
        <ele>5.05488</ele>
        <time>2023-05-31T08:12:00.000Z</time>
      </trkpt>
      <trkpt lat="46.19504" lon="-1.41928">
        <ele>5.0746</ele>
        <time>2023-05-31T08:12:01.000Z</time>
      </trkpt>
      <trkpt lat="46.19507" lon="-1.41928">
        <ele>5.11206</ele>
        <time>2023-05-31T08:12:02.000Z</time>
      </trkpt>
      <trkpt lat="46.1951" lon="-1.41928">
        <ele>5.1589</ele>
        <time>2023-05-31T08:12:03.000Z</time>
      </trkpt>
      <trkpt lat="46.19513" lon="-1.41929">
        <ele>5.18258</ele>
        <time>2023-05-31T08:12:04.000Z</time>
      </trkpt>
      <trkpt lat="46.19517" lon="-1.41929">
        <ele>5.23268</ele>
        <time>2023-05-31T08:12:05.000Z</time>
      </trkpt>
      <trkpt lat="46.1952" lon="-1.41929">
        <ele>5.29535</ele>
        <time>2023-05-31T08:12:06.000Z</time>
      </trkpt>
      <trkpt lat="46.19523" lon="-1.4193">
        <ele>5.35398</ele>
        <time>2023-05-31T08:12:07.000Z</time>
      </trkpt>
      <trkpt lat="46.19526" lon="-1.4193">
        <ele>5.42098</ele>
        <time>2023-05-31T08:12:08.000Z</time>
      </trkpt>
      <trkpt lat="46.19529" lon="-1.41932">
        <ele>5.47123</ele>
        <time>2023-05-31T08:12:09.000Z</time>
      </trkpt>
      <trkpt lat="46.19531" lon="-1.41935">
        <ele>5.50592</ele>
        <time>2023-05-31T08:12:10.000Z</time>
      </trkpt>
      <trkpt lat="46.19533" lon="-1.41938">
        <ele>5.54776</ele>
        <time>2023-05-31T08:12:11.000Z</time>
      </trkpt>
      <trkpt lat="46.19535" lon="-1.41943">
        <ele>5.59664</ele>
        <time>2023-05-31T08:12:12.000Z</time>
      </trkpt>
      <trkpt lat="46.19535" lon="-1.41948">
        <ele>5.62857</ele>
        <time>2023-05-31T08:12:13.000Z</time>
      </trkpt>
      <trkpt lat="46.19535" lon="-1.41953">
        <ele>5.63268</ele>
        <time>2023-05-31T08:12:14.000Z</time>
      </trkpt>
      <trkpt lat="46.19534" lon="-1.41958">
        <ele>5.65155</ele>
        <time>2023-05-31T08:12:15.000Z</time>
      </trkpt>
      <trkpt lat="46.19533" lon="-1.41963">
        <ele>5.67074</ele>
        <time>2023-05-31T08:12:16.000Z</time>
      </trkpt>
      <trkpt lat="46.19533" lon="-1.41968">
        <ele>5.71343</ele>
        <time>2023-05-31T08:12:17.000Z</time>
      </trkpt>
      <trkpt lat="46.19532" lon="-1.41973">
        <ele>5.76572</ele>
        <time>2023-05-31T08:12:18.000Z</time>
      </trkpt>
      <trkpt lat="46.19532" lon="-1.41978">
        <ele>5.79888</ele>
        <time>2023-05-31T08:12:19.000Z</time>
      </trkpt>
      <trkpt lat="46.19532" lon="-1.41983">
        <ele>5.82371</ele>
        <time>2023-05-31T08:12:20.000Z</time>
      </trkpt>
      <trkpt lat="46.19532" lon="-1.41988">
        <ele>5.83297</ele>
        <time>2023-05-31T08:12:21.000Z</time>
      </trkpt>
      <trkpt lat="46.19532" lon="-1.41992">
        <ele>5.81811</ele>
        <time>2023-05-31T08:12:22.000Z</time>
      </trkpt>
      <trkpt lat="46.19533" lon="-1.41997">
        <ele>5.82855</ele>
        <time>2023-05-31T08:12:23.000Z</time>
      </trkpt>
      <trkpt lat="46.19533" lon="-1.42002">
        <ele>5.86261</ele>
        <time>2023-05-31T08:12:24.000Z</time>
      </trkpt>
      <trkpt lat="46.19533" lon="-1.42007">
        <ele>5.9033</ele>
        <time>2023-05-31T08:12:25.000Z</time>
      </trkpt>
      <trkpt lat="46.19534" lon="-1.42012">
        <ele>5.93504</ele>
        <time>2023-05-31T08:12:26.000Z</time>
      </trkpt>
      <trkpt lat="46.19534" lon="-1.42017">
        <ele>5.95921</ele>
        <time>2023-05-31T08:12:27.000Z</time>
      </trkpt>
      <trkpt lat="46.19535" lon="-1.42022">
        <ele>5.97316</ele>
        <time>2023-05-31T08:12:28.000Z</time>
      </trkpt>
      <trkpt lat="46.19536" lon="-1.42026">
        <ele>6.00033</ele>
        <time>2023-05-31T08:12:29.000Z</time>
      </trkpt>
      <trkpt lat="46.19536" lon="-1.42031">
        <ele>6.06469</ele>
        <time>2023-05-31T08:12:30.000Z</time>
      </trkpt>
      <trkpt lat="46.19537" lon="-1.42035">
        <ele>6.10243</ele>
        <time>2023-05-31T08:12:31.000Z</time>
      </trkpt>
      <trkpt lat="46.19538" lon="-1.42038">
        <ele>6.1294</ele>
        <time>2023-05-31T08:12:32.000Z</time>
      </trkpt>
      <trkpt lat="46.19539" lon="-1.42042">
        <ele>6.13236</ele>
        <time>2023-05-31T08:12:33.000Z</time>
      </trkpt>
      <trkpt lat="46.1954" lon="-1.42045">
        <ele>6.1215</ele>
        <time>2023-05-31T08:12:34.000Z</time>
      </trkpt>
      <trkpt lat="46.19542" lon="-1.42047">
        <ele>6.12904</ele>
        <time>2023-05-31T08:12:35.000Z</time>
      </trkpt>
      <trkpt lat="46.19543" lon="-1.4205">
        <ele>6.09415</ele>
        <time>2023-05-31T08:12:36.000Z</time>
      </trkpt>
      <trkpt lat="46.19545" lon="-1.42053">
        <ele>6.04288</ele>
        <time>2023-05-31T08:12:37.000Z</time>
      </trkpt>
      <trkpt lat="46.19545" lon="-1.42056">
        <ele>5.97727</ele>
        <time>2023-05-31T08:12:38.000Z</time>
      </trkpt>
      <trkpt lat="46.19546" lon="-1.4206">
        <ele>5.9176</ele>
        <time>2023-05-31T08:12:39.000Z</time>
      </trkpt>
      <trkpt lat="46.19545" lon="-1.42064">
        <ele>5.86557</ele>
        <time>2023-05-31T08:12:40.000Z</time>
      </trkpt>
      <trkpt lat="46.19544" lon="-1.42068">
        <ele>5.82235</ele>
        <time>2023-05-31T08:12:41.000Z</time>
      </trkpt>
      <trkpt lat="46.19543" lon="-1.42072">
        <ele>5.78494</ele>
        <time>2023-05-31T08:12:42.000Z</time>
      </trkpt>
      <trkpt lat="46.19541" lon="-1.42075">
        <ele>5.70479</ele>
        <time>2023-05-31T08:12:43.000Z</time>
      </trkpt>
      <trkpt lat="46.19539" lon="-1.42079">
        <ele>5.63796</ele>
        <time>2023-05-31T08:12:44.000Z</time>
      </trkpt>
      <trkpt lat="46.19536" lon="-1.42082">
        <ele>5.54888</ele>
        <time>2023-05-31T08:12:45.000Z</time>
      </trkpt>
      <trkpt lat="46.19534" lon="-1.42085">
        <ele>5.46817</ele>
        <time>2023-05-31T08:12:46.000Z</time>
      </trkpt>
      <trkpt lat="46.19532" lon="-1.42089">
        <ele>5.41218</ele>
        <time>2023-05-31T08:12:47.000Z</time>
      </trkpt>
      <trkpt lat="46.1953" lon="-1.42093">
        <ele>5.36704</ele>
        <time>2023-05-31T08:12:48.000Z</time>
      </trkpt>
      <trkpt lat="46.19529" lon="-1.42097">
        <ele>5.31609</ele>
        <time>2023-05-31T08:12:49.000Z</time>
      </trkpt>
      <trkpt lat="46.19528" lon="-1.42101">
        <ele>5.25705</ele>
        <time>2023-05-31T08:12:50.000Z</time>
      </trkpt>
      <trkpt lat="46.19527" lon="-1.42105">
        <ele>5.23197</ele>
        <time>2023-05-31T08:12:51.000Z</time>
      </trkpt>
      <trkpt lat="46.19525" lon="-1.42109">
        <ele>5.20184</ele>
        <time>2023-05-31T08:12:52.000Z</time>
      </trkpt>
      <trkpt lat="46.19523" lon="-1.42113">
        <ele>5.20926</ele>
        <time>2023-05-31T08:12:53.000Z</time>
      </trkpt>
      <trkpt lat="46.19522" lon="-1.42117">
        <ele>5.2454</ele>
        <time>2023-05-31T08:12:54.000Z</time>
      </trkpt>
      <trkpt lat="46.19521" lon="-1.42121">
        <ele>5.28277</ele>
        <time>2023-05-31T08:12:55.000Z</time>
      </trkpt>
      <trkpt lat="46.19519" lon="-1.42125">
        <ele>5.36505</ele>
        <time>2023-05-31T08:12:56.000Z</time>
      </trkpt>
      <trkpt lat="46.19518" lon="-1.4213">
        <ele>5.43513</ele>
        <time>2023-05-31T08:12:57.000Z</time>
      </trkpt>
      <trkpt lat="46.19516" lon="-1.42133">
        <ele>5.51384</ele>
        <time>2023-05-31T08:12:58.000Z</time>
      </trkpt>
      <trkpt lat="46.19514" lon="-1.42138">
        <ele>5.59743</ele>
        <time>2023-05-31T08:12:59.000Z</time>
      </trkpt>
      <trkpt lat="46.19512" lon="-1.42142">
        <ele>5.67654</ele>
        <time>2023-05-31T08:13:00.000Z</time>
      </trkpt>
      <trkpt lat="46.19511" lon="-1.42146">
        <ele>5.7459</ele>
        <time>2023-05-31T08:13:01.000Z</time>
      </trkpt>
      <trkpt lat="46.19509" lon="-1.42151">
        <ele>5.83777</ele>
        <time>2023-05-31T08:13:02.000Z</time>
      </trkpt>
      <trkpt lat="46.19508" lon="-1.42155">
        <ele>5.92655</ele>
        <time>2023-05-31T08:13:03.000Z</time>
      </trkpt>
      <trkpt lat="46.19506" lon="-1.42159">
        <ele>5.98559</ele>
        <time>2023-05-31T08:13:04.000Z</time>
      </trkpt>
      <trkpt lat="46.19505" lon="-1.42162">
        <ele>6.08787</ele>
        <time>2023-05-31T08:13:05.000Z</time>
      </trkpt>
      <trkpt lat="46.19504" lon="-1.42166">
        <ele>6.20007</ele>
        <time>2023-05-31T08:13:06.000Z</time>
      </trkpt>
      <trkpt lat="46.19505" lon="-1.42169">
        <ele>6.25564</ele>
        <time>2023-05-31T08:13:07.000Z</time>
      </trkpt>
      <trkpt lat="46.19506" lon="-1.42172">
        <ele>6.31538</ele>
        <time>2023-05-31T08:13:08.000Z</time>
      </trkpt>
      <trkpt lat="46.19508" lon="-1.42175">
        <ele>6.38048</ele>
        <time>2023-05-31T08:13:09.000Z</time>
      </trkpt>
      <trkpt lat="46.1951" lon="-1.42177">
        <ele>6.44935</ele>
        <time>2023-05-31T08:13:10.000Z</time>
      </trkpt>
      <trkpt lat="46.19512" lon="-1.4218">
        <ele>6.51279</ele>
        <time>2023-05-31T08:13:11.000Z</time>
      </trkpt>
      <trkpt lat="46.19514" lon="-1.42183">
        <ele>6.57525</ele>
        <time>2023-05-31T08:13:12.000Z</time>
      </trkpt>
      <trkpt lat="46.19516" lon="-1.42186">
        <ele>6.62672</ele>
        <time>2023-05-31T08:13:13.000Z</time>
      </trkpt>
      <trkpt lat="46.19518" lon="-1.42189">
        <ele>6.66879</ele>
        <time>2023-05-31T08:13:14.000Z</time>
      </trkpt>
      <trkpt lat="46.1952" lon="-1.42193">
        <ele>6.70209</ele>
        <time>2023-05-31T08:13:15.000Z</time>
      </trkpt>
      <trkpt lat="46.19523" lon="-1.42196">
        <ele>6.73556</ele>
        <time>2023-05-31T08:13:16.000Z</time>
      </trkpt>
      <trkpt lat="46.19525" lon="-1.42199">
        <ele>6.78858</ele>
        <time>2023-05-31T08:13:17.000Z</time>
      </trkpt>
      <trkpt lat="46.19527" lon="-1.42202">
        <ele>6.83046</ele>
        <time>2023-05-31T08:13:18.000Z</time>
      </trkpt>
      <trkpt lat="46.19529" lon="-1.42205">
        <ele>6.87046</ele>
        <time>2023-05-31T08:13:19.000Z</time>
      </trkpt>
      <trkpt lat="46.19532" lon="-1.42208">
        <ele>6.90815</ele>
        <time>2023-05-31T08:13:20.000Z</time>
      </trkpt>
      <trkpt lat="46.19534" lon="-1.42212">
        <ele>6.93942</ele>
        <time>2023-05-31T08:13:21.000Z</time>
      </trkpt>
      <trkpt lat="46.19537" lon="-1.42215">
        <ele>6.93499</ele>
        <time>2023-05-31T08:13:22.000Z</time>
      </trkpt>
      <trkpt lat="46.19539" lon="-1.42218">
        <ele>6.96231</ele>
        <time>2023-05-31T08:13:23.000Z</time>
      </trkpt>
      <trkpt lat="46.19542" lon="-1.42221">
        <ele>6.99606</ele>
        <time>2023-05-31T08:13:24.000Z</time>
      </trkpt>
      <trkpt lat="46.19544" lon="-1.42225">
        <ele>6.99638</ele>
        <time>2023-05-31T08:13:25.000Z</time>
      </trkpt>
      <trkpt lat="46.19547" lon="-1.42228">
        <ele>6.97309</ele>
        <time>2023-05-31T08:13:26.000Z</time>
      </trkpt>
      <trkpt lat="46.1955" lon="-1.42232">
        <ele>7.00553</ele>
        <time>2023-05-31T08:13:27.000Z</time>
      </trkpt>
      <trkpt lat="46.19552" lon="-1.42236">
        <ele>7.00535</ele>
        <time>2023-05-31T08:13:28.000Z</time>
      </trkpt>
      <trkpt lat="46.19555" lon="-1.42239">
        <ele>6.96693</ele>
        <time>2023-05-31T08:13:29.000Z</time>
      </trkpt>
      <trkpt lat="46.19558" lon="-1.42243">
        <ele>6.93241</ele>
        <time>2023-05-31T08:13:30.000Z</time>
      </trkpt>
      <trkpt lat="46.1956" lon="-1.42247">
        <ele>6.89795</ele>
        <time>2023-05-31T08:13:31.000Z</time>
      </trkpt>
      <trkpt lat="46.19563" lon="-1.42251">
        <ele>6.84945</ele>
        <time>2023-05-31T08:13:32.000Z</time>
      </trkpt>
      <trkpt lat="46.19565" lon="-1.42255">
        <ele>6.8057</ele>
        <time>2023-05-31T08:13:33.000Z</time>
      </trkpt>
      <trkpt lat="46.19568" lon="-1.42259">
        <ele>6.74989</ele>
        <time>2023-05-31T08:13:34.000Z</time>
      </trkpt>
      <trkpt lat="46.1957" lon="-1.42262">
        <ele>6.69036</ele>
        <time>2023-05-31T08:13:35.000Z</time>
      </trkpt>
      <trkpt lat="46.19573" lon="-1.42265">
        <ele>6.61082</ele>
        <time>2023-05-31T08:13:36.000Z</time>
      </trkpt>
      <trkpt lat="46.19576" lon="-1.42269">
        <ele>6.51046</ele>
        <time>2023-05-31T08:13:37.000Z</time>
      </trkpt>
      <trkpt lat="46.19579" lon="-1.42272">
        <ele>6.4243</ele>
        <time>2023-05-31T08:13:38.000Z</time>
      </trkpt>
      <trkpt lat="46.19581" lon="-1.42276">
        <ele>6.36144</ele>
        <time>2023-05-31T08:13:39.000Z</time>
      </trkpt>
      <trkpt lat="46.19584" lon="-1.4228">
        <ele>6.27434</ele>
        <time>2023-05-31T08:13:40.000Z</time>
      </trkpt>
      <trkpt lat="46.19587" lon="-1.42284">
        <ele>6.15149</ele>
        <time>2023-05-31T08:13:41.000Z</time>
      </trkpt>
      <trkpt lat="46.19589" lon="-1.42288">
        <ele>5.99793</ele>
        <time>2023-05-31T08:13:42.000Z</time>
      </trkpt>
      <trkpt lat="46.19592" lon="-1.42291">
        <ele>5.8325</ele>
        <time>2023-05-31T08:13:43.000Z</time>
      </trkpt>
      <trkpt lat="46.19594" lon="-1.42295">
        <ele>5.66484</ele>
        <time>2023-05-31T08:13:44.000Z</time>
      </trkpt>
      <trkpt lat="46.19596" lon="-1.42298">
        <ele>5.5074</ele>
        <time>2023-05-31T08:13:45.000Z</time>
      </trkpt>
      <trkpt lat="46.19598" lon="-1.42301">
        <ele>5.36805</ele>
        <time>2023-05-31T08:13:46.000Z</time>
      </trkpt>
      <trkpt lat="46.196" lon="-1.42304">
        <ele>5.22529</ele>
        <time>2023-05-31T08:13:47.000Z</time>
      </trkpt>
      <trkpt lat="46.19602" lon="-1.42308">
        <ele>5.10363</ele>
        <time>2023-05-31T08:13:48.000Z</time>
      </trkpt>
      <trkpt lat="46.19604" lon="-1.42311">
        <ele>5.00658</ele>
        <time>2023-05-31T08:13:49.000Z</time>
      </trkpt>
      <trkpt lat="46.19606" lon="-1.42315">
        <ele>4.90509</ele>
        <time>2023-05-31T08:13:50.000Z</time>
      </trkpt>
      <trkpt lat="46.19609" lon="-1.42318">
        <ele>4.81075</ele>
        <time>2023-05-31T08:13:51.000Z</time>
      </trkpt>
      <trkpt lat="46.19611" lon="-1.42322">
        <ele>4.73299</ele>
        <time>2023-05-31T08:13:52.000Z</time>
      </trkpt>
      <trkpt lat="46.19613" lon="-1.42325">
        <ele>4.66333</ele>
        <time>2023-05-31T08:13:53.000Z</time>
      </trkpt>
      <trkpt lat="46.19616" lon="-1.42329">
        <ele>4.6025</ele>
        <time>2023-05-31T08:13:54.000Z</time>
      </trkpt>
      <trkpt lat="46.19618" lon="-1.42332">
        <ele>4.49944</ele>
        <time>2023-05-31T08:13:55.000Z</time>
      </trkpt>
      <trkpt lat="46.19621" lon="-1.42336">
        <ele>4.38114</ele>
        <time>2023-05-31T08:13:56.000Z</time>
      </trkpt>
      <trkpt lat="46.19623" lon="-1.42339">
        <ele>4.3611</ele>
        <time>2023-05-31T08:13:57.000Z</time>
      </trkpt>
      <trkpt lat="46.19626" lon="-1.42343">
        <ele>4.31665</ele>
        <time>2023-05-31T08:13:58.000Z</time>
      </trkpt>
      <trkpt lat="46.19628" lon="-1.42346">
        <ele>4.2343</ele>
        <time>2023-05-31T08:13:59.000Z</time>
      </trkpt>
      <trkpt lat="46.19631" lon="-1.4235">
        <ele>4.18529</ele>
        <time>2023-05-31T08:14:00.000Z</time>
      </trkpt>
      <trkpt lat="46.19634" lon="-1.42354">
        <ele>4.15912</ele>
        <time>2023-05-31T08:14:01.000Z</time>
      </trkpt>
      <trkpt lat="46.19636" lon="-1.42358">
        <ele>4.17864</ele>
        <time>2023-05-31T08:14:02.000Z</time>
      </trkpt>
      <trkpt lat="46.19639" lon="-1.42362">
        <ele>4.19548</ele>
        <time>2023-05-31T08:14:03.000Z</time>
      </trkpt>
      <trkpt lat="46.19642" lon="-1.42366">
        <ele>4.21573</ele>
        <time>2023-05-31T08:14:04.000Z</time>
      </trkpt>
      <trkpt lat="46.19645" lon="-1.42369">
        <ele>4.23888</ele>
        <time>2023-05-31T08:14:05.000Z</time>
      </trkpt>
      <trkpt lat="46.19648" lon="-1.42373">
        <ele>4.24043</ele>
        <time>2023-05-31T08:14:06.000Z</time>
      </trkpt>
      <trkpt lat="46.1965" lon="-1.42377">
        <ele>4.22714</ele>
        <time>2023-05-31T08:14:07.000Z</time>
      </trkpt>
      <trkpt lat="46.19653" lon="-1.42381">
        <ele>4.19933</ele>
        <time>2023-05-31T08:14:08.000Z</time>
      </trkpt>
      <trkpt lat="46.19656" lon="-1.42384">
        <ele>4.1647</ele>
        <time>2023-05-31T08:14:09.000Z</time>
      </trkpt>
      <trkpt lat="46.19658" lon="-1.42388">
        <ele>4.11422</ele>
        <time>2023-05-31T08:14:10.000Z</time>
      </trkpt>
      <trkpt lat="46.19661" lon="-1.42391">
        <ele>4.06658</ele>
        <time>2023-05-31T08:14:11.000Z</time>
      </trkpt>
      <trkpt lat="46.19664" lon="-1.42395">
        <ele>4.00291</ele>
        <time>2023-05-31T08:14:12.000Z</time>
      </trkpt>
      <trkpt lat="46.19667" lon="-1.42398">
        <ele>3.9502</ele>
        <time>2023-05-31T08:14:13.000Z</time>
      </trkpt>
      <trkpt lat="46.1967" lon="-1.42402">
        <ele>3.879</ele>
        <time>2023-05-31T08:14:14.000Z</time>
      </trkpt>
      <trkpt lat="46.19673" lon="-1.42405">
        <ele>3.85152</ele>
        <time>2023-05-31T08:14:15.000Z</time>
      </trkpt>
      <trkpt lat="46.19676" lon="-1.42408">
        <ele>3.85941</ele>
        <time>2023-05-31T08:14:16.000Z</time>
      </trkpt>
      <trkpt lat="46.19679" lon="-1.42411">
        <ele>3.78711</ele>
        <time>2023-05-31T08:14:17.000Z</time>
      </trkpt>
      <trkpt lat="46.19682" lon="-1.42415">
        <ele>3.69671</ele>
        <time>2023-05-31T08:14:18.000Z</time>
      </trkpt>
      <trkpt lat="46.19685" lon="-1.42418">
        <ele>3.62994</ele>
        <time>2023-05-31T08:14:19.000Z</time>
      </trkpt>
      <trkpt lat="46.19688" lon="-1.42422">
        <ele>3.56087</ele>
        <time>2023-05-31T08:14:20.000Z</time>
      </trkpt>
      <trkpt lat="46.19691" lon="-1.42425">
        <ele>3.52813</ele>
        <time>2023-05-31T08:14:21.000Z</time>
      </trkpt>
      <trkpt lat="46.19694" lon="-1.42428">
        <ele>3.50997</ele>
        <time>2023-05-31T08:14:22.000Z</time>
      </trkpt>
      <trkpt lat="46.19697" lon="-1.42431">
        <ele>3.50487</ele>
        <time>2023-05-31T08:14:23.000Z</time>
      </trkpt>
      <trkpt lat="46.197" lon="-1.42434">
        <ele>3.5042</ele>
        <time>2023-05-31T08:14:24.000Z</time>
      </trkpt>
      <trkpt lat="46.19703" lon="-1.42437">
        <ele>3.48065</ele>
        <time>2023-05-31T08:14:25.000Z</time>
      </trkpt>
      <trkpt lat="46.19706" lon="-1.42441">
        <ele>3.45754</ele>
        <time>2023-05-31T08:14:26.000Z</time>
      </trkpt>
      <trkpt lat="46.19709" lon="-1.42444">
        <ele>3.43304</ele>
        <time>2023-05-31T08:14:27.000Z</time>
      </trkpt>
      <trkpt lat="46.19712" lon="-1.42448">
        <ele>3.40997</ele>
        <time>2023-05-31T08:14:28.000Z</time>
      </trkpt>
      <trkpt lat="46.19715" lon="-1.42451">
        <ele>3.40308</ele>
        <time>2023-05-31T08:14:29.000Z</time>
      </trkpt>
      <trkpt lat="46.19719" lon="-1.42455">
        <ele>3.40478</ele>
        <time>2023-05-31T08:14:30.000Z</time>
      </trkpt>
      <trkpt lat="46.19722" lon="-1.42459">
        <ele>3.38514</ele>
        <time>2023-05-31T08:14:31.000Z</time>
      </trkpt>
      <trkpt lat="46.19725" lon="-1.42463">
        <ele>3.38035</ele>
        <time>2023-05-31T08:14:32.000Z</time>
      </trkpt>
      <trkpt lat="46.19728" lon="-1.42466">
        <ele>3.3523</ele>
        <time>2023-05-31T08:14:33.000Z</time>
      </trkpt>
      <trkpt lat="46.19731" lon="-1.4247">
        <ele>3.32704</ele>
        <time>2023-05-31T08:14:34.000Z</time>
      </trkpt>
      <trkpt lat="46.19734" lon="-1.42473">
        <ele>3.27147</ele>
        <time>2023-05-31T08:14:35.000Z</time>
      </trkpt>
      <trkpt lat="46.19737" lon="-1.42475">
        <ele>3.18683</ele>
        <time>2023-05-31T08:14:36.000Z</time>
      </trkpt>
      <trkpt lat="46.1974" lon="-1.42478">
        <ele>3.09823</ele>
        <time>2023-05-31T08:14:37.000Z</time>
      </trkpt>
      <trkpt lat="46.19742" lon="-1.42481">
        <ele>3.01196</ele>
        <time>2023-05-31T08:14:38.000Z</time>
      </trkpt>
      <trkpt lat="46.19744" lon="-1.42484">
        <ele>2.98238</ele>
        <time>2023-05-31T08:14:39.000Z</time>
      </trkpt>
      <trkpt lat="46.19746" lon="-1.42487">
        <ele>2.92505</ele>
        <time>2023-05-31T08:14:40.000Z</time>
      </trkpt>
      <trkpt lat="46.19749" lon="-1.4249">
        <ele>2.86328</ele>
        <time>2023-05-31T08:14:41.000Z</time>
      </trkpt>
      <trkpt lat="46.19751" lon="-1.42493">
        <ele>2.78897</ele>
        <time>2023-05-31T08:14:42.000Z</time>
      </trkpt>
      <trkpt lat="46.19754" lon="-1.42497">
        <ele>2.71081</ele>
        <time>2023-05-31T08:14:43.000Z</time>
      </trkpt>
      <trkpt lat="46.19756" lon="-1.425">
        <ele>2.63921</ele>
        <time>2023-05-31T08:14:44.000Z</time>
      </trkpt>
      <trkpt lat="46.19758" lon="-1.42503">
        <ele>2.5765</ele>
        <time>2023-05-31T08:14:45.000Z</time>
      </trkpt>
      <trkpt lat="46.19761" lon="-1.42506">
        <ele>2.5228</ele>
        <time>2023-05-31T08:14:46.000Z</time>
      </trkpt>
      <trkpt lat="46.19763" lon="-1.42509">
        <ele>2.48605</ele>
        <time>2023-05-31T08:14:47.000Z</time>
      </trkpt>
      <trkpt lat="46.19766" lon="-1.42512">
        <ele>2.47217</ele>
        <time>2023-05-31T08:14:48.000Z</time>
      </trkpt>
      <trkpt lat="46.19768" lon="-1.42516">
        <ele>2.42769</ele>
        <time>2023-05-31T08:14:49.000Z</time>
      </trkpt>
      <trkpt lat="46.19771" lon="-1.42519">
        <ele>2.35448</ele>
        <time>2023-05-31T08:14:50.000Z</time>
      </trkpt>
      <trkpt lat="46.19773" lon="-1.42523">
        <ele>2.28028</ele>
        <time>2023-05-31T08:14:51.000Z</time>
      </trkpt>
      <trkpt lat="46.19776" lon="-1.42527">
        <ele>2.19858</ele>
        <time>2023-05-31T08:14:52.000Z</time>
      </trkpt>
      <trkpt lat="46.19778" lon="-1.4253">
        <ele>2.13602</ele>
        <time>2023-05-31T08:14:53.000Z</time>
      </trkpt>
      <trkpt lat="46.1978" lon="-1.42534">
        <ele>2.0577</ele>
        <time>2023-05-31T08:14:54.000Z</time>
      </trkpt>
      <trkpt lat="46.19783" lon="-1.42537">
        <ele>2.01809</ele>
        <time>2023-05-31T08:14:55.000Z</time>
      </trkpt>
      <trkpt lat="46.19786" lon="-1.4254">
        <ele>2.00215</ele>
        <time>2023-05-31T08:14:56.000Z</time>
      </trkpt>
      <trkpt lat="46.19788" lon="-1.42544">
        <ele>1.9826</ele>
        <time>2023-05-31T08:14:57.000Z</time>
      </trkpt>
      <trkpt lat="46.19791" lon="-1.42548">
        <ele>2.00448</ele>
        <time>2023-05-31T08:14:58.000Z</time>
      </trkpt>
      <trkpt lat="46.19794" lon="-1.42551">
        <ele>1.98027</ele>
        <time>2023-05-31T08:14:59.000Z</time>
      </trkpt>
      <trkpt lat="46.19797" lon="-1.42555">
        <ele>1.97743</ele>
        <time>2023-05-31T08:15:00.000Z</time>
      </trkpt>
      <trkpt lat="46.19799" lon="-1.42559">
        <ele>1.96358</ele>
        <time>2023-05-31T08:15:01.000Z</time>
      </trkpt>
      <trkpt lat="46.19802" lon="-1.42562">
        <ele>1.95598</ele>
        <time>2023-05-31T08:15:02.000Z</time>
      </trkpt>
      <trkpt lat="46.19805" lon="-1.42566">
        <ele>1.9229</ele>
        <time>2023-05-31T08:15:03.000Z</time>
      </trkpt>
      <trkpt lat="46.19808" lon="-1.42569">
        <ele>1.86316</ele>
        <time>2023-05-31T08:15:04.000Z</time>
      </trkpt>
      <trkpt lat="46.1981" lon="-1.42573">
        <ele>1.81481</ele>
        <time>2023-05-31T08:15:05.000Z</time>
      </trkpt>
      <trkpt lat="46.19813" lon="-1.42576">
        <ele>1.76695</ele>
        <time>2023-05-31T08:15:06.000Z</time>
      </trkpt>
      <trkpt lat="46.19815" lon="-1.42579">
        <ele>1.72265</ele>
        <time>2023-05-31T08:15:07.000Z</time>
      </trkpt>
      <trkpt lat="46.19817" lon="-1.42582">
        <ele>1.67569</ele>
        <time>2023-05-31T08:15:08.000Z</time>
      </trkpt>
      <trkpt lat="46.1982" lon="-1.42585">
        <ele>1.65063</ele>
        <time>2023-05-31T08:15:09.000Z</time>
      </trkpt>
      <trkpt lat="46.19822" lon="-1.42588">
        <ele>1.67312</ele>
        <time>2023-05-31T08:15:10.000Z</time>
      </trkpt>
      <trkpt lat="46.19824" lon="-1.4259">
        <ele>1.70051</ele>
        <time>2023-05-31T08:15:11.000Z</time>
      </trkpt>
      <trkpt lat="46.19826" lon="-1.42593">
        <ele>1.73233</ele>
        <time>2023-05-31T08:15:12.000Z</time>
      </trkpt>
      <trkpt lat="46.19827" lon="-1.42595">
        <ele>1.75766</ele>
        <time>2023-05-31T08:15:13.000Z</time>
      </trkpt>
      <trkpt lat="46.19829" lon="-1.42597">
        <ele>1.7802</ele>
        <time>2023-05-31T08:15:14.000Z</time>
      </trkpt>
      <trkpt lat="46.1983" lon="-1.426">
        <ele>1.87228</ele>
        <time>2023-05-31T08:15:15.000Z</time>
      </trkpt>
      <trkpt lat="46.19831" lon="-1.42602">
        <ele>1.93618</ele>
        <time>2023-05-31T08:15:16.000Z</time>
      </trkpt>
      <trkpt lat="46.19832" lon="-1.42605">
        <ele>2.02178</ele>
        <time>2023-05-31T08:15:17.000Z</time>
      </trkpt>
      <trkpt lat="46.19833" lon="-1.42608">
        <ele>2.10944</ele>
        <time>2023-05-31T08:15:18.000Z</time>
      </trkpt>
      <trkpt lat="46.19833" lon="-1.42611">
        <ele>2.17196</ele>
        <time>2023-05-31T08:15:19.000Z</time>
      </trkpt>
      <trkpt lat="46.19831" lon="-1.42613">
        <ele>2.25463</ele>
        <time>2023-05-31T08:15:20.000Z</time>
      </trkpt>
      <trkpt lat="46.1983" lon="-1.42615">
        <ele>2.3394</ele>
        <time>2023-05-31T08:15:21.000Z</time>
      </trkpt>
      <trkpt lat="46.19828" lon="-1.42618">
        <ele>2.44263</ele>
        <time>2023-05-31T08:15:22.000Z</time>
      </trkpt>
      <trkpt lat="46.19827" lon="-1.4262">
        <ele>2.57189</ele>
        <time>2023-05-31T08:15:23.000Z</time>
      </trkpt>
      <trkpt lat="46.19827" lon="-1.42623">
        <ele>2.71477</ele>
        <time>2023-05-31T08:15:24.000Z</time>
      </trkpt>
      <trkpt lat="46.19827" lon="-1.42626">
        <ele>2.9006</ele>
        <time>2023-05-31T08:15:25.000Z</time>
      </trkpt>
      <trkpt lat="46.19829" lon="-1.42629">
        <ele>3.08065</ele>
        <time>2023-05-31T08:15:26.000Z</time>
      </trkpt>
      <trkpt lat="46.19831" lon="-1.42631">
        <ele>3.24693</ele>
        <time>2023-05-31T08:15:27.000Z</time>
      </trkpt>
      <trkpt lat="46.19833" lon="-1.42631">
        <ele>3.33372</ele>
        <time>2023-05-31T08:15:28.000Z</time>
      </trkpt>
      <trkpt lat="46.19836" lon="-1.42628">
        <ele>3.36134</ele>
        <time>2023-05-31T08:15:29.000Z</time>
      </trkpt>
      <trkpt lat="46.19839" lon="-1.42624">
        <ele>3.36177</ele>
        <time>2023-05-31T08:15:30.000Z</time>
      </trkpt>
      <trkpt lat="46.19843" lon="-1.42623">
        <ele>3.35639</ele>
        <time>2023-05-31T08:15:31.000Z</time>
      </trkpt>
      <trkpt lat="46.19846" lon="-1.42624">
        <ele>3.4344</ele>
        <time>2023-05-31T08:15:32.000Z</time>
      </trkpt>
      <trkpt lat="46.19849" lon="-1.42627">
        <ele>3.4853</ele>
        <time>2023-05-31T08:15:33.000Z</time>
      </trkpt>
      <trkpt lat="46.19852" lon="-1.42631">
        <ele>3.56279</ele>
        <time>2023-05-31T08:15:34.000Z</time>
      </trkpt>
      <trkpt lat="46.19855" lon="-1.42634">
        <ele>3.5502</ele>
        <time>2023-05-31T08:15:35.000Z</time>
      </trkpt>
      <trkpt lat="46.19858" lon="-1.42637">
        <ele>3.56866</ele>
        <time>2023-05-31T08:15:36.000Z</time>
      </trkpt>
      <trkpt lat="46.19861" lon="-1.42641">
        <ele>3.52647</ele>
        <time>2023-05-31T08:15:37.000Z</time>
      </trkpt>
      <trkpt lat="46.19863" lon="-1.42645">
        <ele>3.43682</ele>
        <time>2023-05-31T08:15:38.000Z</time>
      </trkpt>
      <trkpt lat="46.19865" lon="-1.4265">
        <ele>3.42894</ele>
        <time>2023-05-31T08:15:39.000Z</time>
      </trkpt>
      <trkpt lat="46.19866" lon="-1.42654">
        <ele>3.35349</ele>
        <time>2023-05-31T08:15:40.000Z</time>
      </trkpt>
      <trkpt lat="46.19868" lon="-1.42659">
        <ele>3.27134</ele>
        <time>2023-05-31T08:15:41.000Z</time>
      </trkpt>
      <trkpt lat="46.19869" lon="-1.42663">
        <ele>3.18211</ele>
        <time>2023-05-31T08:15:42.000Z</time>
      </trkpt>
      <trkpt lat="46.1987" lon="-1.42666">
        <ele>3.10158</ele>
        <time>2023-05-31T08:15:43.000Z</time>
      </trkpt>
      <trkpt lat="46.1987" lon="-1.4267">
        <ele>3.00719</ele>
        <time>2023-05-31T08:15:44.000Z</time>
      </trkpt>
      <trkpt lat="46.19871" lon="-1.42673">
        <ele>2.84554</ele>
        <time>2023-05-31T08:15:45.000Z</time>
      </trkpt>
      <trkpt lat="46.19871" lon="-1.42677">
        <ele>2.69856</ele>
        <time>2023-05-31T08:15:46.000Z</time>
      </trkpt>
      <trkpt lat="46.19872" lon="-1.42681">
        <ele>2.52094</ele>
        <time>2023-05-31T08:15:47.000Z</time>
      </trkpt>
      <trkpt lat="46.19873" lon="-1.42685">
        <ele>2.38959</ele>
        <time>2023-05-31T08:15:48.000Z</time>
      </trkpt>
      <trkpt lat="46.19873" lon="-1.42689">
        <ele>2.31076</ele>
        <time>2023-05-31T08:15:49.000Z</time>
      </trkpt>
      <trkpt lat="46.19874" lon="-1.42693">
        <ele>2.24456</ele>
        <time>2023-05-31T08:15:50.000Z</time>
      </trkpt>
      <trkpt lat="46.19874" lon="-1.42698">
        <ele>2.23905</ele>
        <time>2023-05-31T08:15:51.000Z</time>
      </trkpt>
      <trkpt lat="46.19874" lon="-1.42702">
        <ele>2.14132</ele>
        <time>2023-05-31T08:15:52.000Z</time>
      </trkpt>
      <trkpt lat="46.19875" lon="-1.42706">
        <ele>2.06485</ele>
        <time>2023-05-31T08:15:53.000Z</time>
      </trkpt>
      <trkpt lat="46.19875" lon="-1.4271">
        <ele>1.98201</ele>
        <time>2023-05-31T08:15:54.000Z</time>
      </trkpt>
      <trkpt lat="46.19876" lon="-1.42715">
        <ele>1.931</ele>
        <time>2023-05-31T08:15:55.000Z</time>
      </trkpt>
      <trkpt lat="46.19877" lon="-1.4272">
        <ele>1.8565</ele>
        <time>2023-05-31T08:15:56.000Z</time>
      </trkpt>
      <trkpt lat="46.19879" lon="-1.42724">
        <ele>1.82316</ele>
        <time>2023-05-31T08:15:57.000Z</time>
      </trkpt>
      <trkpt lat="46.19881" lon="-1.42729">
        <ele>1.84431</ele>
        <time>2023-05-31T08:15:58.000Z</time>
      </trkpt>
      <trkpt lat="46.19884" lon="-1.42733">
        <ele>1.8019</ele>
        <time>2023-05-31T08:15:59.000Z</time>
      </trkpt>
      <trkpt lat="46.19887" lon="-1.42737">
        <ele>1.80441</ele>
        <time>2023-05-31T08:16:00.000Z</time>
      </trkpt>
      <trkpt lat="46.1989" lon="-1.42741">
        <ele>1.79629</ele>
        <time>2023-05-31T08:16:01.000Z</time>
      </trkpt>
      <trkpt lat="46.19894" lon="-1.42744">
        <ele>1.77764</ele>
        <time>2023-05-31T08:16:02.000Z</time>
      </trkpt>
      <trkpt lat="46.19898" lon="-1.42747">
        <ele>1.73494</ele>
        <time>2023-05-31T08:16:03.000Z</time>
      </trkpt>
      <trkpt lat="46.19903" lon="-1.42747">
        <ele>1.71498</ele>
        <time>2023-05-31T08:16:04.000Z</time>
      </trkpt>
      <trkpt lat="46.19907" lon="-1.42749">
        <ele>1.7124</ele>
        <time>2023-05-31T08:16:05.000Z</time>
      </trkpt>
      <trkpt lat="46.19912" lon="-1.42749">
        <ele>1.70172</ele>
        <time>2023-05-31T08:16:06.000Z</time>
      </trkpt>
      <trkpt lat="46.19916" lon="-1.4275">
        <ele>1.73493</ele>
        <time>2023-05-31T08:16:07.000Z</time>
      </trkpt>
      <trkpt lat="46.19921" lon="-1.42749">
        <ele>1.79317</ele>
        <time>2023-05-31T08:16:08.000Z</time>
      </trkpt>
      <trkpt lat="46.19925" lon="-1.42748">
        <ele>1.8839</ele>
        <time>2023-05-31T08:16:09.000Z</time>
      </trkpt>
      <trkpt lat="46.19929" lon="-1.42746">
        <ele>1.96797</ele>
        <time>2023-05-31T08:16:10.000Z</time>
      </trkpt>
      <trkpt lat="46.19933" lon="-1.42745">
        <ele>2.01064</ele>
        <time>2023-05-31T08:16:11.000Z</time>
      </trkpt>
      <trkpt lat="46.19938" lon="-1.42744">
        <ele>2.06978</ele>
        <time>2023-05-31T08:16:12.000Z</time>
      </trkpt>
      <trkpt lat="46.19942" lon="-1.42743">
        <ele>2.14002</ele>
        <time>2023-05-31T08:16:13.000Z</time>
      </trkpt>
      <trkpt lat="46.19946" lon="-1.42741">
        <ele>2.20377</ele>
        <time>2023-05-31T08:16:14.000Z</time>
      </trkpt>
      <trkpt lat="46.1995" lon="-1.42739">
        <ele>2.24574</ele>
        <time>2023-05-31T08:16:15.000Z</time>
      </trkpt>
      <trkpt lat="46.19954" lon="-1.42737">
        <ele>2.31472</ele>
        <time>2023-05-31T08:16:16.000Z</time>
      </trkpt>
      <trkpt lat="46.19959" lon="-1.42737">
        <ele>2.38065</ele>
        <time>2023-05-31T08:16:17.000Z</time>
      </trkpt>
      <trkpt lat="46.19963" lon="-1.42737">
        <ele>2.42846</ele>
        <time>2023-05-31T08:16:18.000Z</time>
      </trkpt>
      <trkpt lat="46.19967" lon="-1.42737">
        <ele>2.45153</ele>
        <time>2023-05-31T08:16:19.000Z</time>
      </trkpt>
      <trkpt lat="46.19971" lon="-1.42737">
        <ele>2.4815</ele>
        <time>2023-05-31T08:16:20.000Z</time>
      </trkpt>
      <trkpt lat="46.19975" lon="-1.42738">
        <ele>2.47715</ele>
        <time>2023-05-31T08:16:21.000Z</time>
      </trkpt>
      <trkpt lat="46.19979" lon="-1.42739">
        <ele>2.54873</ele>
        <time>2023-05-31T08:16:22.000Z</time>
      </trkpt>
      <trkpt lat="46.19982" lon="-1.4274">
        <ele>2.61987</ele>
        <time>2023-05-31T08:16:23.000Z</time>
      </trkpt>
      <trkpt lat="46.19985" lon="-1.42742">
        <ele>2.68336</ele>
        <time>2023-05-31T08:16:24.000Z</time>
      </trkpt>
      <trkpt lat="46.19988" lon="-1.42745">
        <ele>2.70473</ele>
        <time>2023-05-31T08:16:25.000Z</time>
      </trkpt>
      <trkpt lat="46.19991" lon="-1.4275">
        <ele>2.78291</ele>
        <time>2023-05-31T08:16:26.000Z</time>
      </trkpt>
      <trkpt lat="46.19993" lon="-1.42755">
        <ele>2.85783</ele>
        <time>2023-05-31T08:16:27.000Z</time>
      </trkpt>
      <trkpt lat="46.19994" lon="-1.42761">
        <ele>2.91491</ele>
        <time>2023-05-31T08:16:28.000Z</time>
      </trkpt>
      <trkpt lat="46.19995" lon="-1.42766">
        <ele>2.94098</ele>
        <time>2023-05-31T08:16:29.000Z</time>
      </trkpt>
      <trkpt lat="46.19997" lon="-1.42771">
        <ele>2.96858</ele>
        <time>2023-05-31T08:16:30.000Z</time>
      </trkpt>
      <trkpt lat="46.19999" lon="-1.42777">
        <ele>2.99812</ele>
        <time>2023-05-31T08:16:31.000Z</time>
      </trkpt>
      <trkpt lat="46.20001" lon="-1.42782">
        <ele>3.02243</ele>
        <time>2023-05-31T08:16:32.000Z</time>
      </trkpt>
      <trkpt lat="46.20003" lon="-1.42787">
        <ele>3.02444</ele>
        <time>2023-05-31T08:16:33.000Z</time>
      </trkpt>
      <trkpt lat="46.20005" lon="-1.42793">
        <ele>3.02431</ele>
        <time>2023-05-31T08:16:34.000Z</time>
      </trkpt>
      <trkpt lat="46.20006" lon="-1.42798">
        <ele>3.02289</ele>
        <time>2023-05-31T08:16:35.000Z</time>
      </trkpt>
      <trkpt lat="46.20008" lon="-1.42804">
        <ele>3.01005</ele>
        <time>2023-05-31T08:16:36.000Z</time>
      </trkpt>
      <trkpt lat="46.2001" lon="-1.42809">
        <ele>2.98896</ele>
        <time>2023-05-31T08:16:37.000Z</time>
      </trkpt>
      <trkpt lat="46.20013" lon="-1.42814">
        <ele>2.94755</ele>
        <time>2023-05-31T08:16:38.000Z</time>
      </trkpt>
      <trkpt lat="46.20015" lon="-1.42819">
        <ele>2.88477</ele>
        <time>2023-05-31T08:16:39.000Z</time>
      </trkpt>
      <trkpt lat="46.20017" lon="-1.42824">
        <ele>2.89207</ele>
        <time>2023-05-31T08:16:40.000Z</time>
      </trkpt>
      <trkpt lat="46.20019" lon="-1.42829">
        <ele>2.92704</ele>
        <time>2023-05-31T08:16:41.000Z</time>
      </trkpt>
      <trkpt lat="46.20021" lon="-1.42834">
        <ele>2.89109</ele>
        <time>2023-05-31T08:16:42.000Z</time>
      </trkpt>
      <trkpt lat="46.20023" lon="-1.42839">
        <ele>2.88192</ele>
        <time>2023-05-31T08:16:43.000Z</time>
      </trkpt>
      <trkpt lat="46.20025" lon="-1.42844">
        <ele>2.87495</ele>
        <time>2023-05-31T08:16:44.000Z</time>
      </trkpt>
      <trkpt lat="46.20027" lon="-1.42849">
        <ele>2.93044</ele>
        <time>2023-05-31T08:16:45.000Z</time>
      </trkpt>
      <trkpt lat="46.20029" lon="-1.42854">
        <ele>2.88658</ele>
        <time>2023-05-31T08:16:46.000Z</time>
      </trkpt>
      <trkpt lat="46.2003" lon="-1.4286">
        <ele>2.80372</ele>
        <time>2023-05-31T08:16:47.000Z</time>
      </trkpt>
      <trkpt lat="46.20033" lon="-1.42865">
        <ele>2.73088</ele>
        <time>2023-05-31T08:16:48.000Z</time>
      </trkpt>
      <trkpt lat="46.20035" lon="-1.4287">
        <ele>2.73942</ele>
        <time>2023-05-31T08:16:49.000Z</time>
      </trkpt>
      <trkpt lat="46.20037" lon="-1.42875">
        <ele>2.74129</ele>
        <time>2023-05-31T08:16:50.000Z</time>
      </trkpt>
      <trkpt lat="46.20039" lon="-1.4288">
        <ele>2.75425</ele>
        <time>2023-05-31T08:16:51.000Z</time>
      </trkpt>
      <trkpt lat="46.20041" lon="-1.42885">
        <ele>2.76152</ele>
        <time>2023-05-31T08:16:52.000Z</time>
      </trkpt>
      <trkpt lat="46.20043" lon="-1.4289">
        <ele>2.78095</ele>
        <time>2023-05-31T08:16:53.000Z</time>
      </trkpt>
      <trkpt lat="46.20046" lon="-1.42896">
        <ele>2.79583</ele>
        <time>2023-05-31T08:16:54.000Z</time>
      </trkpt>
      <trkpt lat="46.20048" lon="-1.42901">
        <ele>2.80704</ele>
        <time>2023-05-31T08:16:55.000Z</time>
      </trkpt>
      <trkpt lat="46.2005" lon="-1.42907">
        <ele>2.79374</ele>
        <time>2023-05-31T08:16:56.000Z</time>
      </trkpt>
      <trkpt lat="46.20052" lon="-1.42912">
        <ele>2.76702</ele>
        <time>2023-05-31T08:16:57.000Z</time>
      </trkpt>
      <trkpt lat="46.20055" lon="-1.42918">
        <ele>2.76514</ele>
        <time>2023-05-31T08:16:58.000Z</time>
      </trkpt>
      <trkpt lat="46.20057" lon="-1.42923">
        <ele>2.89068</ele>
        <time>2023-05-31T08:16:59.000Z</time>
      </trkpt>
      <trkpt lat="46.20059" lon="-1.42929">
        <ele>2.93068</ele>
        <time>2023-05-31T08:17:00.000Z</time>
      </trkpt>
      <trkpt lat="46.20061" lon="-1.42934">
        <ele>2.97632</ele>
        <time>2023-05-31T08:17:01.000Z</time>
      </trkpt>
      <trkpt lat="46.20063" lon="-1.4294">
        <ele>3.01502</ele>
        <time>2023-05-31T08:17:02.000Z</time>
      </trkpt>
      <trkpt lat="46.20066" lon="-1.42946">
        <ele>3.03729</ele>
        <time>2023-05-31T08:17:03.000Z</time>
      </trkpt>
      <trkpt lat="46.20068" lon="-1.42951">
        <ele>3.05193</ele>
        <time>2023-05-31T08:17:04.000Z</time>
      </trkpt>
      <trkpt lat="46.2007" lon="-1.42957">
        <ele>3.04426</ele>
        <time>2023-05-31T08:17:05.000Z</time>
      </trkpt>
      <trkpt lat="46.20073" lon="-1.42962">
        <ele>3.06927</ele>
        <time>2023-05-31T08:17:06.000Z</time>
      </trkpt>
      <trkpt lat="46.20075" lon="-1.42968">
        <ele>3.11502</ele>
        <time>2023-05-31T08:17:07.000Z</time>
      </trkpt>
      <trkpt lat="46.20077" lon="-1.42973">
        <ele>3.12069</ele>
        <time>2023-05-31T08:17:08.000Z</time>
      </trkpt>
      <trkpt lat="46.20079" lon="-1.42978">
        <ele>3.05566</ele>
        <time>2023-05-31T08:17:09.000Z</time>
      </trkpt>
      <trkpt lat="46.20081" lon="-1.42984">
        <ele>2.99897</ele>
        <time>2023-05-31T08:17:10.000Z</time>
      </trkpt>
      <trkpt lat="46.20084" lon="-1.4299">
        <ele>2.90229</ele>
        <time>2023-05-31T08:17:11.000Z</time>
      </trkpt>
      <trkpt lat="46.20086" lon="-1.42995">
        <ele>2.81191</ele>
        <time>2023-05-31T08:17:12.000Z</time>
      </trkpt>
      <trkpt lat="46.20088" lon="-1.43001">
        <ele>2.7298</ele>
        <time>2023-05-31T08:17:13.000Z</time>
      </trkpt>
      <trkpt lat="46.2009" lon="-1.43007">
        <ele>2.65654</ele>
        <time>2023-05-31T08:17:14.000Z</time>
      </trkpt>
      <trkpt lat="46.20092" lon="-1.43012">
        <ele>2.65906</ele>
        <time>2023-05-31T08:17:15.000Z</time>
      </trkpt>
      <trkpt lat="46.20095" lon="-1.43018">
        <ele>2.66816</ele>
        <time>2023-05-31T08:17:16.000Z</time>
      </trkpt>
      <trkpt lat="46.20097" lon="-1.43024">
        <ele>2.70534</ele>
        <time>2023-05-31T08:17:17.000Z</time>
      </trkpt>
      <trkpt lat="46.20099" lon="-1.43031">
        <ele>2.74442</ele>
        <time>2023-05-31T08:17:18.000Z</time>
      </trkpt>
      <trkpt lat="46.20102" lon="-1.43037">
        <ele>2.67264</ele>
        <time>2023-05-31T08:17:19.000Z</time>
      </trkpt>
      <trkpt lat="46.20104" lon="-1.43043">
        <ele>2.58515</ele>
        <time>2023-05-31T08:17:20.000Z</time>
      </trkpt>
      <trkpt lat="46.20106" lon="-1.43049">
        <ele>2.48759</ele>
        <time>2023-05-31T08:17:21.000Z</time>
      </trkpt>
      <trkpt lat="46.20109" lon="-1.43055">
        <ele>2.45912</ele>
        <time>2023-05-31T08:17:22.000Z</time>
      </trkpt>
      <trkpt lat="46.20111" lon="-1.43061">
        <ele>2.43072</ele>
        <time>2023-05-31T08:17:23.000Z</time>
      </trkpt>
      <trkpt lat="46.20114" lon="-1.43066">
        <ele>2.41921</ele>
        <time>2023-05-31T08:17:24.000Z</time>
      </trkpt>
      <trkpt lat="46.20116" lon="-1.43072">
        <ele>2.41409</ele>
        <time>2023-05-31T08:17:25.000Z</time>
      </trkpt>
      <trkpt lat="46.20118" lon="-1.43078">
        <ele>2.42266</ele>
        <time>2023-05-31T08:17:26.000Z</time>
      </trkpt>
      <trkpt lat="46.2012" lon="-1.43084">
        <ele>2.44258</ele>
        <time>2023-05-31T08:17:27.000Z</time>
      </trkpt>
      <trkpt lat="46.20123" lon="-1.4309">
        <ele>2.49703</ele>
        <time>2023-05-31T08:17:28.000Z</time>
      </trkpt>
      <trkpt lat="46.20125" lon="-1.43096">
        <ele>2.55453</ele>
        <time>2023-05-31T08:17:29.000Z</time>
      </trkpt>
      <trkpt lat="46.20127" lon="-1.43102">
        <ele>2.59475</ele>
        <time>2023-05-31T08:17:30.000Z</time>
      </trkpt>
      <trkpt lat="46.20129" lon="-1.43108">
        <ele>2.64485</ele>
        <time>2023-05-31T08:17:31.000Z</time>
      </trkpt>
      <trkpt lat="46.20132" lon="-1.43115">
        <ele>2.6779</ele>
        <time>2023-05-31T08:17:32.000Z</time>
      </trkpt>
      <trkpt lat="46.20133" lon="-1.4312">
        <ele>2.67612</ele>
        <time>2023-05-31T08:17:33.000Z</time>
      </trkpt>
      <trkpt lat="46.20135" lon="-1.43126">
        <ele>2.66634</ele>
        <time>2023-05-31T08:17:34.000Z</time>
      </trkpt>
      <trkpt lat="46.20138" lon="-1.43132">
        <ele>2.66302</ele>
        <time>2023-05-31T08:17:35.000Z</time>
      </trkpt>
      <trkpt lat="46.2014" lon="-1.43138">
        <ele>2.68542</ele>
        <time>2023-05-31T08:17:36.000Z</time>
      </trkpt>
      <trkpt lat="46.20142" lon="-1.43143">
        <ele>2.71008</ele>
        <time>2023-05-31T08:17:37.000Z</time>
      </trkpt>
      <trkpt lat="46.20144" lon="-1.43147">
        <ele>2.72457</ele>
        <time>2023-05-31T08:17:38.000Z</time>
      </trkpt>
      <trkpt lat="46.20147" lon="-1.43153">
        <ele>2.75987</ele>
        <time>2023-05-31T08:17:39.000Z</time>
      </trkpt>
      <trkpt lat="46.20149" lon="-1.43158">
        <ele>2.80098</ele>
        <time>2023-05-31T08:17:40.000Z</time>
      </trkpt>
      <trkpt lat="46.20151" lon="-1.43163">
        <ele>2.85836</ele>
        <time>2023-05-31T08:17:41.000Z</time>
      </trkpt>
      <trkpt lat="46.20154" lon="-1.43169">
        <ele>2.832</ele>
        <time>2023-05-31T08:17:42.000Z</time>
      </trkpt>
      <trkpt lat="46.20156" lon="-1.43174">
        <ele>2.82842</ele>
        <time>2023-05-31T08:17:43.000Z</time>
      </trkpt>
      <trkpt lat="46.20158" lon="-1.4318">
        <ele>2.77022</ele>
        <time>2023-05-31T08:17:44.000Z</time>
      </trkpt>
      <trkpt lat="46.2016" lon="-1.43186">
        <ele>2.70312</ele>
        <time>2023-05-31T08:17:45.000Z</time>
      </trkpt>
      <trkpt lat="46.20163" lon="-1.43191">
        <ele>2.63044</ele>
        <time>2023-05-31T08:17:46.000Z</time>
      </trkpt>
      <trkpt lat="46.20164" lon="-1.43197">
        <ele>2.58253</ele>
        <time>2023-05-31T08:17:47.000Z</time>
      </trkpt>
      <trkpt lat="46.20167" lon="-1.43202">
        <ele>2.52385</ele>
        <time>2023-05-31T08:17:48.000Z</time>
      </trkpt>
      <trkpt lat="46.20169" lon="-1.43207">
        <ele>2.42912</ele>
        <time>2023-05-31T08:17:49.000Z</time>
      </trkpt>
      <trkpt lat="46.20171" lon="-1.43213">
        <ele>2.35075</ele>
        <time>2023-05-31T08:17:50.000Z</time>
      </trkpt>
      <trkpt lat="46.20173" lon="-1.43218">
        <ele>2.29065</ele>
        <time>2023-05-31T08:17:51.000Z</time>
      </trkpt>
      <trkpt lat="46.20175" lon="-1.43224">
        <ele>2.24499</ele>
        <time>2023-05-31T08:17:52.000Z</time>
      </trkpt>
      <trkpt lat="46.20177" lon="-1.43229">
        <ele>2.21404</ele>
        <time>2023-05-31T08:17:53.000Z</time>
      </trkpt>
      <trkpt lat="46.20179" lon="-1.43235">
        <ele>2.1766</ele>
        <time>2023-05-31T08:17:54.000Z</time>
      </trkpt>
      <trkpt lat="46.20181" lon="-1.4324">
        <ele>2.07303</ele>
        <time>2023-05-31T08:17:55.000Z</time>
      </trkpt>
      <trkpt lat="46.20184" lon="-1.43245">
        <ele>1.97478</ele>
        <time>2023-05-31T08:17:56.000Z</time>
      </trkpt>
      <trkpt lat="46.20186" lon="-1.4325">
        <ele>1.87042</ele>
        <time>2023-05-31T08:17:57.000Z</time>
      </trkpt>
      <trkpt lat="46.20188" lon="-1.43256">
        <ele>1.79031</ele>
        <time>2023-05-31T08:17:58.000Z</time>
      </trkpt>
      <trkpt lat="46.20191" lon="-1.43261">
        <ele>1.70926</ele>
        <time>2023-05-31T08:17:59.000Z</time>
      </trkpt>
      <trkpt lat="46.20193" lon="-1.43266">
        <ele>1.65574</ele>
        <time>2023-05-31T08:18:00.000Z</time>
      </trkpt>
      <trkpt lat="46.20195" lon="-1.43271">
        <ele>1.56894</ele>
        <time>2023-05-31T08:18:01.000Z</time>
      </trkpt>
      <trkpt lat="46.20197" lon="-1.43277">
        <ele>1.48278</ele>
        <time>2023-05-31T08:18:02.000Z</time>
      </trkpt>
      <trkpt lat="46.20199" lon="-1.43282">
        <ele>1.37493</ele>
        <time>2023-05-31T08:18:03.000Z</time>
      </trkpt>
      <trkpt lat="46.20202" lon="-1.43288">
        <ele>1.39698</ele>
        <time>2023-05-31T08:18:04.000Z</time>
      </trkpt>
      <trkpt lat="46.20204" lon="-1.43293">
        <ele>1.41474</ele>
        <time>2023-05-31T08:18:05.000Z</time>
      </trkpt>
      <trkpt lat="46.20206" lon="-1.43299">
        <ele>1.42824</ele>
        <time>2023-05-31T08:18:06.000Z</time>
      </trkpt>
      <trkpt lat="46.20208" lon="-1.43305">
        <ele>1.41025</ele>
        <time>2023-05-31T08:18:07.000Z</time>
      </trkpt>
      <trkpt lat="46.20211" lon="-1.43311">
        <ele>1.42442</ele>
        <time>2023-05-31T08:18:08.000Z</time>
      </trkpt>
      <trkpt lat="46.20213" lon="-1.43317">
        <ele>1.46217</ele>
        <time>2023-05-31T08:18:09.000Z</time>
      </trkpt>
      <trkpt lat="46.20215" lon="-1.43322">
        <ele>1.51115</ele>
        <time>2023-05-31T08:18:10.000Z</time>
      </trkpt>
      <trkpt lat="46.20217" lon="-1.43328">
        <ele>1.56025</ele>
        <time>2023-05-31T08:18:11.000Z</time>
      </trkpt>
      <trkpt lat="46.20219" lon="-1.43333">
        <ele>1.61394</ele>
        <time>2023-05-31T08:18:12.000Z</time>
      </trkpt>
      <trkpt lat="46.20222" lon="-1.43339">
        <ele>1.69284</ele>
        <time>2023-05-31T08:18:13.000Z</time>
      </trkpt>
      <trkpt lat="46.20225" lon="-1.43344">
        <ele>1.7628</ele>
        <time>2023-05-31T08:18:14.000Z</time>
      </trkpt>
      <trkpt lat="46.20227" lon="-1.4335">
        <ele>1.83746</ele>
        <time>2023-05-31T08:18:15.000Z</time>
      </trkpt>
      <trkpt lat="46.20229" lon="-1.43355">
        <ele>1.89971</ele>
        <time>2023-05-31T08:18:16.000Z</time>
      </trkpt>
      <trkpt lat="46.20231" lon="-1.43361">
        <ele>1.95182</ele>
        <time>2023-05-31T08:18:17.000Z</time>
      </trkpt>
      <trkpt lat="46.20233" lon="-1.43367">
        <ele>1.9931</ele>
        <time>2023-05-31T08:18:18.000Z</time>
      </trkpt>
      <trkpt lat="46.20235" lon="-1.43372">
        <ele>2.05303</ele>
        <time>2023-05-31T08:18:19.000Z</time>
      </trkpt>
      <trkpt lat="46.20237" lon="-1.43377">
        <ele>2.04703</ele>
        <time>2023-05-31T08:18:20.000Z</time>
      </trkpt>
      <trkpt lat="46.2024" lon="-1.43383">
        <ele>2.06178</ele>
        <time>2023-05-31T08:18:21.000Z</time>
      </trkpt>
      <trkpt lat="46.20242" lon="-1.43389">
        <ele>2.1631</ele>
        <time>2023-05-31T08:18:22.000Z</time>
      </trkpt>
      <trkpt lat="46.20245" lon="-1.43395">
        <ele>2.25217</ele>
        <time>2023-05-31T08:18:23.000Z</time>
      </trkpt>
      <trkpt lat="46.20247" lon="-1.434">
        <ele>2.2399</ele>
        <time>2023-05-31T08:18:24.000Z</time>
      </trkpt>
      <trkpt lat="46.2025" lon="-1.43407">
        <ele>2.24575</ele>
        <time>2023-05-31T08:18:25.000Z</time>
      </trkpt>
      <trkpt lat="46.20252" lon="-1.43412">
        <ele>2.26321</ele>
        <time>2023-05-31T08:18:26.000Z</time>
      </trkpt>
      <trkpt lat="46.20254" lon="-1.43418">
        <ele>2.28722</ele>
        <time>2023-05-31T08:18:27.000Z</time>
      </trkpt>
      <trkpt lat="46.20256" lon="-1.43424">
        <ele>2.31594</ele>
        <time>2023-05-31T08:18:28.000Z</time>
      </trkpt>
      <trkpt lat="46.20258" lon="-1.43429">
        <ele>2.3586</ele>
        <time>2023-05-31T08:18:29.000Z</time>
      </trkpt>
      <trkpt lat="46.2026" lon="-1.43434">
        <ele>2.39962</ele>
        <time>2023-05-31T08:18:30.000Z</time>
      </trkpt>
      <trkpt lat="46.20263" lon="-1.43441">
        <ele>2.39081</ele>
        <time>2023-05-31T08:18:31.000Z</time>
      </trkpt>
      <trkpt lat="46.20265" lon="-1.43446">
        <ele>2.37078</ele>
        <time>2023-05-31T08:18:32.000Z</time>
      </trkpt>
      <trkpt lat="46.20267" lon="-1.43452">
        <ele>2.43622</ele>
        <time>2023-05-31T08:18:33.000Z</time>
      </trkpt>
      <trkpt lat="46.20269" lon="-1.43457">
        <ele>2.50462</ele>
        <time>2023-05-31T08:18:34.000Z</time>
      </trkpt>
      <trkpt lat="46.20272" lon="-1.43463">
        <ele>2.55736</ele>
        <time>2023-05-31T08:18:35.000Z</time>
      </trkpt>
      <trkpt lat="46.20274" lon="-1.43468">
        <ele>2.60032</ele>
        <time>2023-05-31T08:18:36.000Z</time>
      </trkpt>
      <trkpt lat="46.20276" lon="-1.43474">
        <ele>2.65963</ele>
        <time>2023-05-31T08:18:37.000Z</time>
      </trkpt>
      <trkpt lat="46.20278" lon="-1.4348">
        <ele>2.70695</ele>
        <time>2023-05-31T08:18:38.000Z</time>
      </trkpt>
      <trkpt lat="46.2028" lon="-1.43486">
        <ele>2.73019</ele>
        <time>2023-05-31T08:18:39.000Z</time>
      </trkpt>
      <trkpt lat="46.20283" lon="-1.43492">
        <ele>2.82208</ele>
        <time>2023-05-31T08:18:40.000Z</time>
      </trkpt>
      <trkpt lat="46.20285" lon="-1.43496">
        <ele>2.91934</ele>
        <time>2023-05-31T08:18:41.000Z</time>
      </trkpt>
      <trkpt lat="46.20287" lon="-1.43502">
        <ele>2.94765</ele>
        <time>2023-05-31T08:18:42.000Z</time>
      </trkpt>
      <trkpt lat="46.20289" lon="-1.43507">
        <ele>2.98913</ele>
        <time>2023-05-31T08:18:43.000Z</time>
      </trkpt>
      <trkpt lat="46.20292" lon="-1.43512">
        <ele>3.03919</ele>
        <time>2023-05-31T08:18:44.000Z</time>
      </trkpt>
      <trkpt lat="46.20294" lon="-1.43518">
        <ele>3.07492</ele>
        <time>2023-05-31T08:18:45.000Z</time>
      </trkpt>
      <trkpt lat="46.20297" lon="-1.43524">
        <ele>3.04307</ele>
        <time>2023-05-31T08:18:46.000Z</time>
      </trkpt>
      <trkpt lat="46.20299" lon="-1.4353">
        <ele>3.00214</ele>
        <time>2023-05-31T08:18:47.000Z</time>
      </trkpt>
      <trkpt lat="46.20301" lon="-1.43534">
        <ele>3.0017</ele>
        <time>2023-05-31T08:18:48.000Z</time>
      </trkpt>
      <trkpt lat="46.20303" lon="-1.4354">
        <ele>2.9671</ele>
        <time>2023-05-31T08:18:49.000Z</time>
      </trkpt>
      <trkpt lat="46.20305" lon="-1.43546">
        <ele>2.92446</ele>
        <time>2023-05-31T08:18:50.000Z</time>
      </trkpt>
      <trkpt lat="46.20308" lon="-1.43552">
        <ele>2.94329</ele>
        <time>2023-05-31T08:18:51.000Z</time>
      </trkpt>
      <trkpt lat="46.2031" lon="-1.43558">
        <ele>2.96428</ele>
        <time>2023-05-31T08:18:52.000Z</time>
      </trkpt>
      <trkpt lat="46.20313" lon="-1.43563">
        <ele>2.88006</ele>
        <time>2023-05-31T08:18:53.000Z</time>
      </trkpt>
      <trkpt lat="46.20315" lon="-1.43569">
        <ele>2.83365</ele>
        <time>2023-05-31T08:18:54.000Z</time>
      </trkpt>
      <trkpt lat="46.20317" lon="-1.43575">
        <ele>2.75123</ele>
        <time>2023-05-31T08:18:55.000Z</time>
      </trkpt>
      <trkpt lat="46.20319" lon="-1.43581">
        <ele>2.69408</ele>
        <time>2023-05-31T08:18:56.000Z</time>
      </trkpt>
      <trkpt lat="46.20321" lon="-1.43587">
        <ele>2.61654</ele>
        <time>2023-05-31T08:18:57.000Z</time>
      </trkpt>
      <trkpt lat="46.20324" lon="-1.43592">
        <ele>2.53157</ele>
        <time>2023-05-31T08:18:58.000Z</time>
      </trkpt>
      <trkpt lat="46.20326" lon="-1.43598">
        <ele>2.44644</ele>
        <time>2023-05-31T08:18:59.000Z</time>
      </trkpt>
      <trkpt lat="46.20328" lon="-1.43604">
        <ele>2.44375</ele>
        <time>2023-05-31T08:19:00.000Z</time>
      </trkpt>
      <trkpt lat="46.2033" lon="-1.4361">
        <ele>2.44601</ele>
        <time>2023-05-31T08:19:01.000Z</time>
      </trkpt>
      <trkpt lat="46.20332" lon="-1.43615">
        <ele>2.45824</ele>
        <time>2023-05-31T08:19:02.000Z</time>
      </trkpt>
      <trkpt lat="46.20335" lon="-1.4362">
        <ele>2.45431</ele>
        <time>2023-05-31T08:19:03.000Z</time>
      </trkpt>
      <trkpt lat="46.20337" lon="-1.43626">
        <ele>2.47603</ele>
        <time>2023-05-31T08:19:04.000Z</time>
      </trkpt>
      <trkpt lat="46.20339" lon="-1.43631">
        <ele>2.4447</ele>
        <time>2023-05-31T08:19:05.000Z</time>
      </trkpt>
      <trkpt lat="46.20342" lon="-1.43637">
        <ele>2.4568</ele>
        <time>2023-05-31T08:19:06.000Z</time>
      </trkpt>
      <trkpt lat="46.20343" lon="-1.43643">
        <ele>2.53099</ele>
        <time>2023-05-31T08:19:07.000Z</time>
      </trkpt>
      <trkpt lat="46.20346" lon="-1.43648">
        <ele>2.53369</ele>
        <time>2023-05-31T08:19:08.000Z</time>
      </trkpt>
      <trkpt lat="46.20349" lon="-1.43654">
        <ele>2.56682</ele>
        <time>2023-05-31T08:19:09.000Z</time>
      </trkpt>
      <trkpt lat="46.20351" lon="-1.4366">
        <ele>2.61055</ele>
        <time>2023-05-31T08:19:10.000Z</time>
      </trkpt>
      <trkpt lat="46.20353" lon="-1.43666">
        <ele>2.65779</ele>
        <time>2023-05-31T08:19:11.000Z</time>
      </trkpt>
      <trkpt lat="46.20355" lon="-1.43672">
        <ele>2.71076</ele>
        <time>2023-05-31T08:19:12.000Z</time>
      </trkpt>
      <trkpt lat="46.20357" lon="-1.43677">
        <ele>2.77027</ele>
        <time>2023-05-31T08:19:13.000Z</time>
      </trkpt>
      <trkpt lat="46.20359" lon="-1.43683">
        <ele>2.82058</ele>
        <time>2023-05-31T08:19:14.000Z</time>
      </trkpt>
      <trkpt lat="46.20361" lon="-1.43688">
        <ele>2.91559</ele>
        <time>2023-05-31T08:19:15.000Z</time>
      </trkpt>
      <trkpt lat="46.20364" lon="-1.43694">
        <ele>2.99028</ele>
        <time>2023-05-31T08:19:16.000Z</time>
      </trkpt>
      <trkpt lat="46.20366" lon="-1.43701">
        <ele>3.07716</ele>
        <time>2023-05-31T08:19:17.000Z</time>
      </trkpt>
      <trkpt lat="46.20368" lon="-1.43707">
        <ele>3.16696</ele>
        <time>2023-05-31T08:19:18.000Z</time>
      </trkpt>
      <trkpt lat="46.2037" lon="-1.43712">
        <ele>3.24929</ele>
        <time>2023-05-31T08:19:19.000Z</time>
      </trkpt>
      <trkpt lat="46.20372" lon="-1.43717">
        <ele>3.25349</ele>
        <time>2023-05-31T08:19:20.000Z</time>
      </trkpt>
      <trkpt lat="46.20374" lon="-1.43722">
        <ele>3.20302</ele>
        <time>2023-05-31T08:19:21.000Z</time>
      </trkpt>
      <trkpt lat="46.20377" lon="-1.43729">
        <ele>3.14732</ele>
        <time>2023-05-31T08:19:22.000Z</time>
      </trkpt>
      <trkpt lat="46.20379" lon="-1.43734">
        <ele>3.06671</ele>
        <time>2023-05-31T08:19:23.000Z</time>
      </trkpt>
      <trkpt lat="46.20381" lon="-1.4374">
        <ele>2.96901</ele>
        <time>2023-05-31T08:19:24.000Z</time>
      </trkpt>
      <trkpt lat="46.20384" lon="-1.43744">
        <ele>3.02498</ele>
        <time>2023-05-31T08:19:25.000Z</time>
      </trkpt>
      <trkpt lat="46.20386" lon="-1.43751">
        <ele>3.06482</ele>
        <time>2023-05-31T08:19:26.000Z</time>
      </trkpt>
      <trkpt lat="46.20388" lon="-1.43757">
        <ele>3.05339</ele>
        <time>2023-05-31T08:19:27.000Z</time>
      </trkpt>
      <trkpt lat="46.20391" lon="-1.43763">
        <ele>3.05907</ele>
        <time>2023-05-31T08:19:28.000Z</time>
      </trkpt>
      <trkpt lat="46.20393" lon="-1.43768">
        <ele>3.06329</ele>
        <time>2023-05-31T08:19:29.000Z</time>
      </trkpt>
      <trkpt lat="46.20395" lon="-1.43774">
        <ele>3.04823</ele>
        <time>2023-05-31T08:19:30.000Z</time>
      </trkpt>
      <trkpt lat="46.20397" lon="-1.4378">
        <ele>2.97254</ele>
        <time>2023-05-31T08:19:31.000Z</time>
      </trkpt>
      <trkpt lat="46.20399" lon="-1.43786">
        <ele>2.87558</ele>
        <time>2023-05-31T08:19:32.000Z</time>
      </trkpt>
      <trkpt lat="46.20401" lon="-1.43791">
        <ele>2.83409</ele>
        <time>2023-05-31T08:19:33.000Z</time>
      </trkpt>
      <trkpt lat="46.20404" lon="-1.43798">
        <ele>2.75639</ele>
        <time>2023-05-31T08:19:34.000Z</time>
      </trkpt>
      <trkpt lat="46.20406" lon="-1.43803">
        <ele>2.68962</ele>
        <time>2023-05-31T08:19:35.000Z</time>
      </trkpt>
      <trkpt lat="46.20408" lon="-1.43809">
        <ele>2.61326</ele>
        <time>2023-05-31T08:19:36.000Z</time>
      </trkpt>
      <trkpt lat="46.20411" lon="-1.43813">
        <ele>2.55554</ele>
        <time>2023-05-31T08:19:37.000Z</time>
      </trkpt>
      <trkpt lat="46.20414" lon="-1.4382">
        <ele>2.46909</ele>
        <time>2023-05-31T08:19:38.000Z</time>
      </trkpt>
      <trkpt lat="46.20416" lon="-1.43826">
        <ele>2.38895</ele>
        <time>2023-05-31T08:19:39.000Z</time>
      </trkpt>
      <trkpt lat="46.20419" lon="-1.43831">
        <ele>2.34907</ele>
        <time>2023-05-31T08:19:40.000Z</time>
      </trkpt>
      <trkpt lat="46.20422" lon="-1.43835">
        <ele>2.32249</ele>
        <time>2023-05-31T08:19:41.000Z</time>
      </trkpt>
      <trkpt lat="46.20424" lon="-1.4384">
        <ele>2.26979</ele>
        <time>2023-05-31T08:19:42.000Z</time>
      </trkpt>
      <trkpt lat="46.20426" lon="-1.43847">
        <ele>2.26095</ele>
        <time>2023-05-31T08:19:43.000Z</time>
      </trkpt>
      <trkpt lat="46.20428" lon="-1.43853">
        <ele>2.23571</ele>
        <time>2023-05-31T08:19:44.000Z</time>
      </trkpt>
      <trkpt lat="46.2043" lon="-1.43859">
        <ele>2.11316</ele>
        <time>2023-05-31T08:19:45.000Z</time>
      </trkpt>
      <trkpt lat="46.20433" lon="-1.43865">
        <ele>2.00707</ele>
        <time>2023-05-31T08:19:46.000Z</time>
      </trkpt>
      <trkpt lat="46.20435" lon="-1.4387">
        <ele>1.8989</ele>
        <time>2023-05-31T08:19:47.000Z</time>
      </trkpt>
      <trkpt lat="46.20437" lon="-1.43875">
        <ele>1.79942</ele>
        <time>2023-05-31T08:19:48.000Z</time>
      </trkpt>
      <trkpt lat="46.20438" lon="-1.43881">
        <ele>1.7092</ele>
        <time>2023-05-31T08:19:49.000Z</time>
      </trkpt>
      <trkpt lat="46.2044" lon="-1.43887">
        <ele>1.62075</ele>
        <time>2023-05-31T08:19:50.000Z</time>
      </trkpt>
      <trkpt lat="46.20443" lon="-1.43893">
        <ele>1.59987</ele>
        <time>2023-05-31T08:19:51.000Z</time>
      </trkpt>
      <trkpt lat="46.20445" lon="-1.43899">
        <ele>1.57976</ele>
        <time>2023-05-31T08:19:52.000Z</time>
      </trkpt>
      <trkpt lat="46.20448" lon="-1.43904">
        <ele>1.51505</ele>
        <time>2023-05-31T08:19:53.000Z</time>
      </trkpt>
      <trkpt lat="46.2045" lon="-1.4391">
        <ele>1.4767</ele>
        <time>2023-05-31T08:19:54.000Z</time>
      </trkpt>
      <trkpt lat="46.20452" lon="-1.43916">
        <ele>1.44499</ele>
        <time>2023-05-31T08:19:55.000Z</time>
      </trkpt>
      <trkpt lat="46.20454" lon="-1.43921">
        <ele>1.43928</ele>
        <time>2023-05-31T08:19:56.000Z</time>
      </trkpt>
      <trkpt lat="46.20456" lon="-1.43926">
        <ele>1.43532</ele>
        <time>2023-05-31T08:19:57.000Z</time>
      </trkpt>
      <trkpt lat="46.20458" lon="-1.43932">
        <ele>1.47918</ele>
        <time>2023-05-31T08:19:58.000Z</time>
      </trkpt>
      <trkpt lat="46.2046" lon="-1.43937">
        <ele>1.51354</ele>
        <time>2023-05-31T08:19:59.000Z</time>
      </trkpt>
      <trkpt lat="46.20462" lon="-1.43942">
        <ele>1.51185</ele>
        <time>2023-05-31T08:20:00.000Z</time>
      </trkpt>
      <trkpt lat="46.20465" lon="-1.43947">
        <ele>1.55325</ele>
        <time>2023-05-31T08:20:01.000Z</time>
      </trkpt>
      <trkpt lat="46.20467" lon="-1.43953">
        <ele>1.59703</ele>
        <time>2023-05-31T08:20:02.000Z</time>
      </trkpt>
      <trkpt lat="46.20469" lon="-1.43958">
        <ele>1.62129</ele>
        <time>2023-05-31T08:20:03.000Z</time>
      </trkpt>
      <trkpt lat="46.20471" lon="-1.43964">
        <ele>1.67068</ele>
        <time>2023-05-31T08:20:04.000Z</time>
      </trkpt>
      <trkpt lat="46.20473" lon="-1.4397">
        <ele>1.78639</ele>
        <time>2023-05-31T08:20:05.000Z</time>
      </trkpt>
      <trkpt lat="46.20475" lon="-1.43976">
        <ele>1.91883</ele>
        <time>2023-05-31T08:20:06.000Z</time>
      </trkpt>
      <trkpt lat="46.20477" lon="-1.4398">
        <ele>2.03384</ele>
        <time>2023-05-31T08:20:07.000Z</time>
      </trkpt>
      <trkpt lat="46.20479" lon="-1.43985">
        <ele>2.12708</ele>
        <time>2023-05-31T08:20:08.000Z</time>
      </trkpt>
      <trkpt lat="46.20482" lon="-1.4399">
        <ele>2.21091</ele>
        <time>2023-05-31T08:20:09.000Z</time>
      </trkpt>
      <trkpt lat="46.20484" lon="-1.43996">
        <ele>2.32154</ele>
        <time>2023-05-31T08:20:10.000Z</time>
      </trkpt>
      <trkpt lat="46.20486" lon="-1.44001">
        <ele>2.3914</ele>
        <time>2023-05-31T08:20:11.000Z</time>
      </trkpt>
      <trkpt lat="46.20488" lon="-1.44007">
        <ele>2.48336</ele>
        <time>2023-05-31T08:20:12.000Z</time>
      </trkpt>
      <trkpt lat="46.2049" lon="-1.44012">
        <ele>2.56937</ele>
        <time>2023-05-31T08:20:13.000Z</time>
      </trkpt>
      <trkpt lat="46.20492" lon="-1.44018">
        <ele>2.65299</ele>
        <time>2023-05-31T08:20:14.000Z</time>
      </trkpt>
      <trkpt lat="46.20494" lon="-1.44023">
        <ele>2.72491</ele>
        <time>2023-05-31T08:20:15.000Z</time>
      </trkpt>
      <trkpt lat="46.20496" lon="-1.44028">
        <ele>2.79263</ele>
        <time>2023-05-31T08:20:16.000Z</time>
      </trkpt>
      <trkpt lat="46.20498" lon="-1.44033">
        <ele>2.8342</ele>
        <time>2023-05-31T08:20:17.000Z</time>
      </trkpt>
      <trkpt lat="46.205" lon="-1.44039">
        <ele>2.86385</ele>
        <time>2023-05-31T08:20:18.000Z</time>
      </trkpt>
      <trkpt lat="46.20502" lon="-1.44044">
        <ele>2.90477</ele>
        <time>2023-05-31T08:20:19.000Z</time>
      </trkpt>
      <trkpt lat="46.20504" lon="-1.44049">
        <ele>2.93556</ele>
        <time>2023-05-31T08:20:20.000Z</time>
      </trkpt>
      <trkpt lat="46.20506" lon="-1.44054">
        <ele>2.97764</ele>
        <time>2023-05-31T08:20:21.000Z</time>
      </trkpt>
      <trkpt lat="46.20508" lon="-1.44059">
        <ele>3.05166</ele>
        <time>2023-05-31T08:20:22.000Z</time>
      </trkpt>
      <trkpt lat="46.2051" lon="-1.44065">
        <ele>3.13122</ele>
        <time>2023-05-31T08:20:23.000Z</time>
      </trkpt>
      <trkpt lat="46.20512" lon="-1.4407">
        <ele>3.2009</ele>
        <time>2023-05-31T08:20:24.000Z</time>
      </trkpt>
      <trkpt lat="46.20514" lon="-1.44076">
        <ele>3.21788</ele>
        <time>2023-05-31T08:20:25.000Z</time>
      </trkpt>
      <trkpt lat="46.20516" lon="-1.44081">
        <ele>3.14972</ele>
        <time>2023-05-31T08:20:26.000Z</time>
      </trkpt>
      <trkpt lat="46.20518" lon="-1.44087">
        <ele>3.1761</ele>
        <time>2023-05-31T08:20:27.000Z</time>
      </trkpt>
      <trkpt lat="46.2052" lon="-1.44092">
        <ele>3.2207</ele>
        <time>2023-05-31T08:20:28.000Z</time>
      </trkpt>
      <trkpt lat="46.20523" lon="-1.44097">
        <ele>3.27158</ele>
        <time>2023-05-31T08:20:29.000Z</time>
      </trkpt>
      <trkpt lat="46.20525" lon="-1.44103">
        <ele>3.30032</ele>
        <time>2023-05-31T08:20:30.000Z</time>
      </trkpt>
      <trkpt lat="46.20527" lon="-1.44108">
        <ele>3.29197</ele>
        <time>2023-05-31T08:20:31.000Z</time>
      </trkpt>
      <trkpt lat="46.2053" lon="-1.44114">
        <ele>3.26636</ele>
        <time>2023-05-31T08:20:32.000Z</time>
      </trkpt>
      <trkpt lat="46.20532" lon="-1.44119">
        <ele>3.23143</ele>
        <time>2023-05-31T08:20:33.000Z</time>
      </trkpt>
      <trkpt lat="46.20534" lon="-1.44124">
        <ele>3.27408</ele>
        <time>2023-05-31T08:20:34.000Z</time>
      </trkpt>
      <trkpt lat="46.20536" lon="-1.4413">
        <ele>3.29059</ele>
        <time>2023-05-31T08:20:35.000Z</time>
      </trkpt>
      <trkpt lat="46.20539" lon="-1.44135">
        <ele>3.29256</ele>
        <time>2023-05-31T08:20:36.000Z</time>
      </trkpt>
      <trkpt lat="46.20541" lon="-1.44141">
        <ele>3.30044</ele>
        <time>2023-05-31T08:20:37.000Z</time>
      </trkpt>
      <trkpt lat="46.20543" lon="-1.44147">
        <ele>3.30472</ele>
        <time>2023-05-31T08:20:38.000Z</time>
      </trkpt>
      <trkpt lat="46.20546" lon="-1.44153">
        <ele>3.31739</ele>
        <time>2023-05-31T08:20:39.000Z</time>
      </trkpt>
      <trkpt lat="46.20547" lon="-1.44158">
        <ele>3.3337</ele>
        <time>2023-05-31T08:20:40.000Z</time>
      </trkpt>
      <trkpt lat="46.2055" lon="-1.44164">
        <ele>3.34433</ele>
        <time>2023-05-31T08:20:41.000Z</time>
      </trkpt>
      <trkpt lat="46.20553" lon="-1.4417">
        <ele>3.31852</ele>
        <time>2023-05-31T08:20:42.000Z</time>
      </trkpt>
      <trkpt lat="46.20555" lon="-1.44175">
        <ele>3.23991</ele>
        <time>2023-05-31T08:20:43.000Z</time>
      </trkpt>
      <trkpt lat="46.20557" lon="-1.4418">
        <ele>3.16625</ele>
        <time>2023-05-31T08:20:44.000Z</time>
      </trkpt>
      <trkpt lat="46.20559" lon="-1.44186">
        <ele>3.08788</ele>
        <time>2023-05-31T08:20:45.000Z</time>
      </trkpt>
      <trkpt lat="46.20561" lon="-1.44191">
        <ele>3.16448</ele>
        <time>2023-05-31T08:20:46.000Z</time>
      </trkpt>
      <trkpt lat="46.20563" lon="-1.44196">
        <ele>3.13699</ele>
        <time>2023-05-31T08:20:47.000Z</time>
      </trkpt>
      <trkpt lat="46.20565" lon="-1.44202">
        <ele>3.10671</ele>
        <time>2023-05-31T08:20:48.000Z</time>
      </trkpt>
      <trkpt lat="46.20567" lon="-1.44207">
        <ele>3.05045</ele>
        <time>2023-05-31T08:20:49.000Z</time>
      </trkpt>
      <trkpt lat="46.20569" lon="-1.44213">
        <ele>3.00715</ele>
        <time>2023-05-31T08:20:50.000Z</time>
      </trkpt>
      <trkpt lat="46.20571" lon="-1.44219">
        <ele>3.00653</ele>
        <time>2023-05-31T08:20:51.000Z</time>
      </trkpt>
      <trkpt lat="46.20573" lon="-1.44224">
        <ele>3.0161</ele>
        <time>2023-05-31T08:20:52.000Z</time>
      </trkpt>
      <trkpt lat="46.20575" lon="-1.44229">
        <ele>3.01772</ele>
        <time>2023-05-31T08:20:53.000Z</time>
      </trkpt>
      <trkpt lat="46.20577" lon="-1.44235">
        <ele>2.9712</ele>
        <time>2023-05-31T08:20:54.000Z</time>
      </trkpt>
      <trkpt lat="46.2058" lon="-1.44241">
        <ele>2.9367</ele>
        <time>2023-05-31T08:20:55.000Z</time>
      </trkpt>
      <trkpt lat="46.20581" lon="-1.44247">
        <ele>2.90186</ele>
        <time>2023-05-31T08:20:56.000Z</time>
      </trkpt>
      <trkpt lat="46.20583" lon="-1.44252">
        <ele>2.85385</ele>
        <time>2023-05-31T08:20:57.000Z</time>
      </trkpt>
      <trkpt lat="46.20586" lon="-1.44258">
        <ele>2.80576</ele>
        <time>2023-05-31T08:20:58.000Z</time>
      </trkpt>
      <trkpt lat="46.20588" lon="-1.44264">
        <ele>2.76735</ele>
        <time>2023-05-31T08:20:59.000Z</time>
      </trkpt>
      <trkpt lat="46.2059" lon="-1.44269">
        <ele>2.73648</ele>
        <time>2023-05-31T08:21:00.000Z</time>
      </trkpt>
      <trkpt lat="46.20592" lon="-1.44275">
        <ele>2.66439</ele>
        <time>2023-05-31T08:21:01.000Z</time>
      </trkpt>
      <trkpt lat="46.20594" lon="-1.44281">
        <ele>2.62004</ele>
        <time>2023-05-31T08:21:02.000Z</time>
      </trkpt>
      <trkpt lat="46.20595" lon="-1.44286">
        <ele>2.63673</ele>
        <time>2023-05-31T08:21:03.000Z</time>
      </trkpt>
      <trkpt lat="46.20597" lon="-1.44292">
        <ele>2.64785</ele>
        <time>2023-05-31T08:21:04.000Z</time>
      </trkpt>
      <trkpt lat="46.20599" lon="-1.44297">
        <ele>2.66243</ele>
        <time>2023-05-31T08:21:05.000Z</time>
      </trkpt>
      <trkpt lat="46.20601" lon="-1.44303">
        <ele>2.60725</ele>
        <time>2023-05-31T08:21:06.000Z</time>
      </trkpt>
      <trkpt lat="46.20603" lon="-1.44308">
        <ele>2.57102</ele>
        <time>2023-05-31T08:21:07.000Z</time>
      </trkpt>
      <trkpt lat="46.20605" lon="-1.44313">
        <ele>2.53608</ele>
        <time>2023-05-31T08:21:08.000Z</time>
      </trkpt>
      <trkpt lat="46.20607" lon="-1.44319">
        <ele>2.52162</ele>
        <time>2023-05-31T08:21:09.000Z</time>
      </trkpt>
      <trkpt lat="46.20608" lon="-1.44324">
        <ele>2.49337</ele>
        <time>2023-05-31T08:21:10.000Z</time>
      </trkpt>
      <trkpt lat="46.2061" lon="-1.4433">
        <ele>2.47474</ele>
        <time>2023-05-31T08:21:11.000Z</time>
      </trkpt>
      <trkpt lat="46.20612" lon="-1.44335">
        <ele>2.46019</ele>
        <time>2023-05-31T08:21:12.000Z</time>
      </trkpt>
      <trkpt lat="46.20614" lon="-1.4434">
        <ele>2.46139</ele>
        <time>2023-05-31T08:21:13.000Z</time>
      </trkpt>
      <trkpt lat="46.20616" lon="-1.44346">
        <ele>2.4444</ele>
        <time>2023-05-31T08:21:14.000Z</time>
      </trkpt>
      <trkpt lat="46.20618" lon="-1.44351">
        <ele>2.425</ele>
        <time>2023-05-31T08:21:15.000Z</time>
      </trkpt>
      <trkpt lat="46.20619" lon="-1.44356">
        <ele>2.42344</ele>
        <time>2023-05-31T08:21:16.000Z</time>
      </trkpt>
      <trkpt lat="46.20621" lon="-1.44362">
        <ele>2.43897</ele>
        <time>2023-05-31T08:21:17.000Z</time>
      </trkpt>
      <trkpt lat="46.20623" lon="-1.44367">
        <ele>2.47028</ele>
        <time>2023-05-31T08:21:18.000Z</time>
      </trkpt>
      <trkpt lat="46.20624" lon="-1.44372">
        <ele>2.4931</ele>
        <time>2023-05-31T08:21:19.000Z</time>
      </trkpt>
      <trkpt lat="46.20625" lon="-1.44377">
        <ele>2.49961</ele>
        <time>2023-05-31T08:21:20.000Z</time>
      </trkpt>
      <trkpt lat="46.20627" lon="-1.44381">
        <ele>2.5804</ele>
        <time>2023-05-31T08:21:21.000Z</time>
      </trkpt>
      <trkpt lat="46.20628" lon="-1.44385">
        <ele>2.63518</ele>
        <time>2023-05-31T08:21:22.000Z</time>
      </trkpt>
      <trkpt lat="46.2063" lon="-1.44389">
        <ele>2.69819</ele>
        <time>2023-05-31T08:21:23.000Z</time>
      </trkpt>
      <trkpt lat="46.20632" lon="-1.44393">
        <ele>2.7528</ele>
        <time>2023-05-31T08:21:24.000Z</time>
      </trkpt>
      <trkpt lat="46.20633" lon="-1.44397">
        <ele>2.8051</ele>
        <time>2023-05-31T08:21:25.000Z</time>
      </trkpt>
      <trkpt lat="46.20634" lon="-1.444">
        <ele>2.87208</ele>
        <time>2023-05-31T08:21:26.000Z</time>
      </trkpt>
      <trkpt lat="46.20635" lon="-1.44404">
        <ele>2.94904</ele>
        <time>2023-05-31T08:21:27.000Z</time>
      </trkpt>
      <trkpt lat="46.20636" lon="-1.44409">
        <ele>3.03118</ele>
        <time>2023-05-31T08:21:28.000Z</time>
      </trkpt>
      <trkpt lat="46.20636" lon="-1.44413">
        <ele>3.1062</ele>
        <time>2023-05-31T08:21:29.000Z</time>
      </trkpt>
      <trkpt lat="46.20637" lon="-1.44418">
        <ele>3.18048</ele>
        <time>2023-05-31T08:21:30.000Z</time>
      </trkpt>
      <trkpt lat="46.20639" lon="-1.44423">
        <ele>3.25493</ele>
        <time>2023-05-31T08:21:31.000Z</time>
      </trkpt>
      <trkpt lat="46.2064" lon="-1.44428">
        <ele>3.32821</ele>
        <time>2023-05-31T08:21:32.000Z</time>
      </trkpt>
      <trkpt lat="46.20642" lon="-1.44432">
        <ele>3.37704</ele>
        <time>2023-05-31T08:21:33.000Z</time>
      </trkpt>
      <trkpt lat="46.20644" lon="-1.44437">
        <ele>3.419</ele>
        <time>2023-05-31T08:21:34.000Z</time>
      </trkpt>
      <trkpt lat="46.20646" lon="-1.44442">
        <ele>3.42343</ele>
        <time>2023-05-31T08:21:35.000Z</time>
      </trkpt>
      <trkpt lat="46.20648" lon="-1.44447">
        <ele>3.4258</ele>
        <time>2023-05-31T08:21:36.000Z</time>
      </trkpt>
      <trkpt lat="46.20649" lon="-1.44452">
        <ele>3.41192</ele>
        <time>2023-05-31T08:21:37.000Z</time>
      </trkpt>
      <trkpt lat="46.20651" lon="-1.44457">
        <ele>3.37279</ele>
        <time>2023-05-31T08:21:38.000Z</time>
      </trkpt>
      <trkpt lat="46.20653" lon="-1.44462">
        <ele>3.32674</ele>
        <time>2023-05-31T08:21:39.000Z</time>
      </trkpt>
      <trkpt lat="46.20654" lon="-1.44467">
        <ele>3.33367</ele>
        <time>2023-05-31T08:21:40.000Z</time>
      </trkpt>
      <trkpt lat="46.20656" lon="-1.44472">
        <ele>3.28917</ele>
        <time>2023-05-31T08:21:41.000Z</time>
      </trkpt>
      <trkpt lat="46.20658" lon="-1.44478">
        <ele>3.25885</ele>
        <time>2023-05-31T08:21:42.000Z</time>
      </trkpt>
      <trkpt lat="46.2066" lon="-1.44483">
        <ele>3.2169</ele>
        <time>2023-05-31T08:21:43.000Z</time>
      </trkpt>
      <trkpt lat="46.20662" lon="-1.44489">
        <ele>3.18378</ele>
        <time>2023-05-31T08:21:44.000Z</time>
      </trkpt>
      <trkpt lat="46.20664" lon="-1.44495">
        <ele>3.13541</ele>
        <time>2023-05-31T08:21:45.000Z</time>
      </trkpt>
      <trkpt lat="46.20666" lon="-1.445">
        <ele>3.06713</ele>
        <time>2023-05-31T08:21:46.000Z</time>
      </trkpt>
      <trkpt lat="46.20668" lon="-1.44506">
        <ele>3.01514</ele>
        <time>2023-05-31T08:21:47.000Z</time>
      </trkpt>
      <trkpt lat="46.2067" lon="-1.44512">
        <ele>2.95657</ele>
        <time>2023-05-31T08:21:48.000Z</time>
      </trkpt>
      <trkpt lat="46.20672" lon="-1.44517">
        <ele>2.90157</ele>
        <time>2023-05-31T08:21:49.000Z</time>
      </trkpt>
      <trkpt lat="46.20673" lon="-1.44523">
        <ele>2.85281</ele>
        <time>2023-05-31T08:21:50.000Z</time>
      </trkpt>
      <trkpt lat="46.20676" lon="-1.44528">
        <ele>2.77481</ele>
        <time>2023-05-31T08:21:51.000Z</time>
      </trkpt>
      <trkpt lat="46.20677" lon="-1.44534">
        <ele>2.71133</ele>
        <time>2023-05-31T08:21:52.000Z</time>
      </trkpt>
      <trkpt lat="46.20679" lon="-1.4454">
        <ele>2.66475</ele>
        <time>2023-05-31T08:21:53.000Z</time>
      </trkpt>
      <trkpt lat="46.20681" lon="-1.44545">
        <ele>2.6169</ele>
        <time>2023-05-31T08:21:54.000Z</time>
      </trkpt>
      <trkpt lat="46.20683" lon="-1.44551">
        <ele>2.6208</ele>
        <time>2023-05-31T08:21:55.000Z</time>
      </trkpt>
      <trkpt lat="46.20685" lon="-1.44557">
        <ele>2.63221</ele>
        <time>2023-05-31T08:21:56.000Z</time>
      </trkpt>
      <trkpt lat="46.20687" lon="-1.44563">
        <ele>2.65284</ele>
        <time>2023-05-31T08:21:57.000Z</time>
      </trkpt>
      <trkpt lat="46.20689" lon="-1.44568">
        <ele>2.69212</ele>
        <time>2023-05-31T08:21:58.000Z</time>
      </trkpt>
      <trkpt lat="46.20691" lon="-1.44574">
        <ele>2.72529</ele>
        <time>2023-05-31T08:21:59.000Z</time>
      </trkpt>
      <trkpt lat="46.20693" lon="-1.4458">
        <ele>2.71134</ele>
        <time>2023-05-31T08:22:00.000Z</time>
      </trkpt>
      <trkpt lat="46.20694" lon="-1.44586">
        <ele>2.6844</ele>
        <time>2023-05-31T08:22:01.000Z</time>
      </trkpt>
      <trkpt lat="46.20696" lon="-1.44592">
        <ele>2.7756</ele>
        <time>2023-05-31T08:22:02.000Z</time>
      </trkpt>
      <trkpt lat="46.20698" lon="-1.44597">
        <ele>2.8678</ele>
        <time>2023-05-31T08:22:03.000Z</time>
      </trkpt>
      <trkpt lat="46.207" lon="-1.44602">
        <ele>2.95869</ele>
        <time>2023-05-31T08:22:04.000Z</time>
      </trkpt>
      <trkpt lat="46.20702" lon="-1.44608">
        <ele>3.05654</ele>
        <time>2023-05-31T08:22:05.000Z</time>
      </trkpt>
      <trkpt lat="46.20704" lon="-1.44614">
        <ele>3.14063</ele>
        <time>2023-05-31T08:22:06.000Z</time>
      </trkpt>
      <trkpt lat="46.20706" lon="-1.44621">
        <ele>3.20516</ele>
        <time>2023-05-31T08:22:07.000Z</time>
      </trkpt>
      <trkpt lat="46.20708" lon="-1.44626">
        <ele>3.27468</ele>
        <time>2023-05-31T08:22:08.000Z</time>
      </trkpt>
      <trkpt lat="46.2071" lon="-1.44632">
        <ele>3.35238</ele>
        <time>2023-05-31T08:22:09.000Z</time>
      </trkpt>
      <trkpt lat="46.20712" lon="-1.44638">
        <ele>3.42519</ele>
        <time>2023-05-31T08:22:10.000Z</time>
      </trkpt>
      <trkpt lat="46.20714" lon="-1.44644">
        <ele>3.53244</ele>
        <time>2023-05-31T08:22:11.000Z</time>
      </trkpt>
      <trkpt lat="46.20716" lon="-1.4465">
        <ele>3.63108</ele>
        <time>2023-05-31T08:22:12.000Z</time>
      </trkpt>
      <trkpt lat="46.20718" lon="-1.44656">
        <ele>3.71687</ele>
        <time>2023-05-31T08:22:13.000Z</time>
      </trkpt>
      <trkpt lat="46.2072" lon="-1.44662">
        <ele>3.79303</ele>
        <time>2023-05-31T08:22:14.000Z</time>
      </trkpt>
      <trkpt lat="46.20722" lon="-1.44668">
        <ele>3.91785</ele>
        <time>2023-05-31T08:22:15.000Z</time>
      </trkpt>
      <trkpt lat="46.20724" lon="-1.44673">
        <ele>4.02746</ele>
        <time>2023-05-31T08:22:16.000Z</time>
      </trkpt>
      <trkpt lat="46.20726" lon="-1.44679">
        <ele>4.14304</ele>
        <time>2023-05-31T08:22:17.000Z</time>
      </trkpt>
      <trkpt lat="46.20727" lon="-1.44685">
        <ele>4.25991</ele>
        <time>2023-05-31T08:22:18.000Z</time>
      </trkpt>
      <trkpt lat="46.20729" lon="-1.44691">
        <ele>4.38632</ele>
        <time>2023-05-31T08:22:19.000Z</time>
      </trkpt>
      <trkpt lat="46.20731" lon="-1.44696">
        <ele>4.51178</ele>
        <time>2023-05-31T08:22:20.000Z</time>
      </trkpt>
      <trkpt lat="46.20733" lon="-1.44702">
        <ele>4.6749</ele>
        <time>2023-05-31T08:22:21.000Z</time>
      </trkpt>
      <trkpt lat="46.20735" lon="-1.44708">
        <ele>4.70353</ele>
        <time>2023-05-31T08:22:22.000Z</time>
      </trkpt>
      <trkpt lat="46.20737" lon="-1.44715">
        <ele>4.72615</ele>
        <time>2023-05-31T08:22:23.000Z</time>
      </trkpt>
      <trkpt lat="46.20739" lon="-1.4472">
        <ele>4.74698</ele>
        <time>2023-05-31T08:22:24.000Z</time>
      </trkpt>
      <trkpt lat="46.20741" lon="-1.44725">
        <ele>4.77834</ele>
        <time>2023-05-31T08:22:25.000Z</time>
      </trkpt>
      <trkpt lat="46.20743" lon="-1.44732">
        <ele>4.81977</ele>
        <time>2023-05-31T08:22:26.000Z</time>
      </trkpt>
      <trkpt lat="46.20745" lon="-1.44737">
        <ele>4.93808</ele>
        <time>2023-05-31T08:22:27.000Z</time>
      </trkpt>
      <trkpt lat="46.20747" lon="-1.44744">
        <ele>5.03895</ele>
        <time>2023-05-31T08:22:28.000Z</time>
      </trkpt>
      <trkpt lat="46.20749" lon="-1.44749">
        <ele>5.13783</ele>
        <time>2023-05-31T08:22:29.000Z</time>
      </trkpt>
      <trkpt lat="46.20751" lon="-1.44755">
        <ele>5.2268</ele>
        <time>2023-05-31T08:22:30.000Z</time>
      </trkpt>
      <trkpt lat="46.20752" lon="-1.4476">
        <ele>5.3025</ele>
        <time>2023-05-31T08:22:31.000Z</time>
      </trkpt>
      <trkpt lat="46.20754" lon="-1.44766">
        <ele>5.37781</ele>
        <time>2023-05-31T08:22:32.000Z</time>
      </trkpt>
      <trkpt lat="46.20756" lon="-1.44772">
        <ele>5.45892</ele>
        <time>2023-05-31T08:22:33.000Z</time>
      </trkpt>
      <trkpt lat="46.20758" lon="-1.44777">
        <ele>5.54143</ele>
        <time>2023-05-31T08:22:34.000Z</time>
      </trkpt>
      <trkpt lat="46.2076" lon="-1.44783">
        <ele>5.54809</ele>
        <time>2023-05-31T08:22:35.000Z</time>
      </trkpt>
      <trkpt lat="46.20763" lon="-1.4479">
        <ele>5.55757</ele>
        <time>2023-05-31T08:22:36.000Z</time>
      </trkpt>
      <trkpt lat="46.20765" lon="-1.44796">
        <ele>5.58465</ele>
        <time>2023-05-31T08:22:37.000Z</time>
      </trkpt>
      <trkpt lat="46.20766" lon="-1.44801">
        <ele>5.61081</ele>
        <time>2023-05-31T08:22:38.000Z</time>
      </trkpt>
      <trkpt lat="46.20769" lon="-1.44806">
        <ele>5.61896</ele>
        <time>2023-05-31T08:22:39.000Z</time>
      </trkpt>
      <trkpt lat="46.20771" lon="-1.44811">
        <ele>5.62766</ele>
        <time>2023-05-31T08:22:40.000Z</time>
      </trkpt>
      <trkpt lat="46.20773" lon="-1.44817">
        <ele>5.628</ele>
        <time>2023-05-31T08:22:41.000Z</time>
      </trkpt>
      <trkpt lat="46.20775" lon="-1.44823">
        <ele>5.65271</ele>
        <time>2023-05-31T08:22:42.000Z</time>
      </trkpt>
      <trkpt lat="46.20776" lon="-1.44829">
        <ele>5.67701</ele>
        <time>2023-05-31T08:22:43.000Z</time>
      </trkpt>
      <trkpt lat="46.20778" lon="-1.44835">
        <ele>5.69902</ele>
        <time>2023-05-31T08:22:44.000Z</time>
      </trkpt>
      <trkpt lat="46.2078" lon="-1.44841">
        <ele>5.71935</ele>
        <time>2023-05-31T08:22:45.000Z</time>
      </trkpt>
      <trkpt lat="46.20782" lon="-1.44847">
        <ele>5.74833</ele>
        <time>2023-05-31T08:22:46.000Z</time>
      </trkpt>
      <trkpt lat="46.20783" lon="-1.44852">
        <ele>5.68866</ele>
        <time>2023-05-31T08:22:47.000Z</time>
      </trkpt>
      <trkpt lat="46.20785" lon="-1.44858">
        <ele>5.64039</ele>
        <time>2023-05-31T08:22:48.000Z</time>
      </trkpt>
      <trkpt lat="46.20786" lon="-1.44864">
        <ele>5.57835</ele>
        <time>2023-05-31T08:22:49.000Z</time>
      </trkpt>
      <trkpt lat="46.20788" lon="-1.44869">
        <ele>5.53279</ele>
        <time>2023-05-31T08:22:50.000Z</time>
      </trkpt>
      <trkpt lat="46.2079" lon="-1.44875">
        <ele>5.49229</ele>
        <time>2023-05-31T08:22:51.000Z</time>
      </trkpt>
      <trkpt lat="46.20792" lon="-1.44881">
        <ele>5.44392</ele>
        <time>2023-05-31T08:22:52.000Z</time>
      </trkpt>
      <trkpt lat="46.20794" lon="-1.44886">
        <ele>5.41019</ele>
        <time>2023-05-31T08:22:53.000Z</time>
      </trkpt>
      <trkpt lat="46.20796" lon="-1.44892">
        <ele>5.39228</ele>
        <time>2023-05-31T08:22:54.000Z</time>
      </trkpt>
      <trkpt lat="46.20798" lon="-1.44898">
        <ele>5.39902</ele>
        <time>2023-05-31T08:22:55.000Z</time>
      </trkpt>
      <trkpt lat="46.208" lon="-1.44905">
        <ele>5.38895</ele>
        <time>2023-05-31T08:22:56.000Z</time>
      </trkpt>
      <trkpt lat="46.20801" lon="-1.4491">
        <ele>5.35238</ele>
        <time>2023-05-31T08:22:57.000Z</time>
      </trkpt>
      <trkpt lat="46.20804" lon="-1.44917">
        <ele>5.29469</ele>
        <time>2023-05-31T08:22:58.000Z</time>
      </trkpt>
      <trkpt lat="46.20806" lon="-1.44923">
        <ele>5.23789</ele>
        <time>2023-05-31T08:22:59.000Z</time>
      </trkpt>
      <trkpt lat="46.20808" lon="-1.44929">
        <ele>5.16002</ele>
        <time>2023-05-31T08:23:00.000Z</time>
      </trkpt>
      <trkpt lat="46.20811" lon="-1.44934">
        <ele>5.0817</ele>
        <time>2023-05-31T08:23:01.000Z</time>
      </trkpt>
      <trkpt lat="46.20812" lon="-1.44939">
        <ele>5.00592</ele>
        <time>2023-05-31T08:23:02.000Z</time>
      </trkpt>
      <trkpt lat="46.20814" lon="-1.44945">
        <ele>4.94316</ele>
        <time>2023-05-31T08:23:03.000Z</time>
      </trkpt>
      <trkpt lat="46.20816" lon="-1.44951">
        <ele>4.88847</ele>
        <time>2023-05-31T08:23:04.000Z</time>
      </trkpt>
      <trkpt lat="46.20818" lon="-1.44957">
        <ele>4.83482</ele>
        <time>2023-05-31T08:23:05.000Z</time>
      </trkpt>
      <trkpt lat="46.2082" lon="-1.44963">
        <ele>4.78527</ele>
        <time>2023-05-31T08:23:06.000Z</time>
      </trkpt>
      <trkpt lat="46.20822" lon="-1.4497">
        <ele>4.74731</ele>
        <time>2023-05-31T08:23:07.000Z</time>
      </trkpt>
      <trkpt lat="46.20824" lon="-1.44976">
        <ele>4.68058</ele>
        <time>2023-05-31T08:23:08.000Z</time>
      </trkpt>
      <trkpt lat="46.20827" lon="-1.44981">
        <ele>4.60564</ele>
        <time>2023-05-31T08:23:09.000Z</time>
      </trkpt>
      <trkpt lat="46.20828" lon="-1.44986">
        <ele>4.5815</ele>
        <time>2023-05-31T08:23:10.000Z</time>
      </trkpt>
      <trkpt lat="46.2083" lon="-1.44992">
        <ele>4.55863</ele>
        <time>2023-05-31T08:23:11.000Z</time>
      </trkpt>
      <trkpt lat="46.20832" lon="-1.44999">
        <ele>4.51515</ele>
        <time>2023-05-31T08:23:12.000Z</time>
      </trkpt>
      <trkpt lat="46.20834" lon="-1.45005">
        <ele>4.45273</ele>
        <time>2023-05-31T08:23:13.000Z</time>
      </trkpt>
      <trkpt lat="46.20836" lon="-1.4501">
        <ele>4.39373</ele>
        <time>2023-05-31T08:23:14.000Z</time>
      </trkpt>
      <trkpt lat="46.20838" lon="-1.45016">
        <ele>4.3202</ele>
        <time>2023-05-31T08:23:15.000Z</time>
      </trkpt>
      <trkpt lat="46.2084" lon="-1.45022">
        <ele>4.26333</ele>
        <time>2023-05-31T08:23:16.000Z</time>
      </trkpt>
      <trkpt lat="46.20842" lon="-1.45027">
        <ele>4.2056</ele>
        <time>2023-05-31T08:23:17.000Z</time>
      </trkpt>
      <trkpt lat="46.20844" lon="-1.45033">
        <ele>4.16193</ele>
        <time>2023-05-31T08:23:18.000Z</time>
      </trkpt>
      <trkpt lat="46.20846" lon="-1.45038">
        <ele>4.1341</ele>
        <time>2023-05-31T08:23:19.000Z</time>
      </trkpt>
      <trkpt lat="46.20847" lon="-1.45044">
        <ele>4.11492</ele>
        <time>2023-05-31T08:23:20.000Z</time>
      </trkpt>
      <trkpt lat="46.20849" lon="-1.45049">
        <ele>4.09127</ele>
        <time>2023-05-31T08:23:21.000Z</time>
      </trkpt>
      <trkpt lat="46.20851" lon="-1.45055">
        <ele>4.06706</ele>
        <time>2023-05-31T08:23:22.000Z</time>
      </trkpt>
      <trkpt lat="46.20853" lon="-1.45062">
        <ele>4.03119</ele>
        <time>2023-05-31T08:23:23.000Z</time>
      </trkpt>
      <trkpt lat="46.20854" lon="-1.45068">
        <ele>3.99027</ele>
        <time>2023-05-31T08:23:24.000Z</time>
      </trkpt>
      <trkpt lat="46.20856" lon="-1.45074">
        <ele>3.94099</ele>
        <time>2023-05-31T08:23:25.000Z</time>
      </trkpt>
      <trkpt lat="46.20859" lon="-1.4508">
        <ele>3.89277</ele>
        <time>2023-05-31T08:23:26.000Z</time>
      </trkpt>
      <trkpt lat="46.20861" lon="-1.45084">
        <ele>3.819</ele>
        <time>2023-05-31T08:23:27.000Z</time>
      </trkpt>
      <trkpt lat="46.20863" lon="-1.4509">
        <ele>3.78149</ele>
        <time>2023-05-31T08:23:28.000Z</time>
      </trkpt>
      <trkpt lat="46.20866" lon="-1.45097">
        <ele>3.74806</ele>
        <time>2023-05-31T08:23:29.000Z</time>
      </trkpt>
      <trkpt lat="46.20868" lon="-1.45102">
        <ele>3.65958</ele>
        <time>2023-05-31T08:23:30.000Z</time>
      </trkpt>
      <trkpt lat="46.2087" lon="-1.45109">
        <ele>3.57303</ele>
        <time>2023-05-31T08:23:31.000Z</time>
      </trkpt>
      <trkpt lat="46.20872" lon="-1.45115">
        <ele>3.49087</ele>
        <time>2023-05-31T08:23:32.000Z</time>
      </trkpt>
      <trkpt lat="46.20874" lon="-1.45121">
        <ele>3.42033</ele>
        <time>2023-05-31T08:23:33.000Z</time>
      </trkpt>
      <trkpt lat="46.20875" lon="-1.45127">
        <ele>3.34145</ele>
        <time>2023-05-31T08:23:34.000Z</time>
      </trkpt>
      <trkpt lat="46.20877" lon="-1.45133">
        <ele>3.30202</ele>
        <time>2023-05-31T08:23:35.000Z</time>
      </trkpt>
      <trkpt lat="46.20879" lon="-1.45139">
        <ele>3.25975</ele>
        <time>2023-05-31T08:23:36.000Z</time>
      </trkpt>
      <trkpt lat="46.2088" lon="-1.45145">
        <ele>3.21562</ele>
        <time>2023-05-31T08:23:37.000Z</time>
      </trkpt>
      <trkpt lat="46.20883" lon="-1.45151">
        <ele>3.18109</ele>
        <time>2023-05-31T08:23:38.000Z</time>
      </trkpt>
      <trkpt lat="46.20885" lon="-1.45157">
        <ele>3.13972</ele>
        <time>2023-05-31T08:23:39.000Z</time>
      </trkpt>
      <trkpt lat="46.20887" lon="-1.45162">
        <ele>3.11026</ele>
        <time>2023-05-31T08:23:40.000Z</time>
      </trkpt>
      <trkpt lat="46.20889" lon="-1.45168">
        <ele>3.06828</ele>
        <time>2023-05-31T08:23:41.000Z</time>
      </trkpt>
      <trkpt lat="46.20891" lon="-1.45174">
        <ele>3.02322</ele>
        <time>2023-05-31T08:23:42.000Z</time>
      </trkpt>
      <trkpt lat="46.20892" lon="-1.4518">
        <ele>2.98537</ele>
        <time>2023-05-31T08:23:43.000Z</time>
      </trkpt>
      <trkpt lat="46.20894" lon="-1.45186">
        <ele>2.94345</ele>
        <time>2023-05-31T08:23:44.000Z</time>
      </trkpt>
      <trkpt lat="46.20897" lon="-1.45192">
        <ele>2.90199</ele>
        <time>2023-05-31T08:23:45.000Z</time>
      </trkpt>
      <trkpt lat="46.20898" lon="-1.45198">
        <ele>2.858</ele>
        <time>2023-05-31T08:23:46.000Z</time>
      </trkpt>
      <trkpt lat="46.20901" lon="-1.45204">
        <ele>2.84318</ele>
        <time>2023-05-31T08:23:47.000Z</time>
      </trkpt>
      <trkpt lat="46.20903" lon="-1.4521">
        <ele>2.82327</ele>
        <time>2023-05-31T08:23:48.000Z</time>
      </trkpt>
      <trkpt lat="46.20905" lon="-1.45217">
        <ele>2.8245</ele>
        <time>2023-05-31T08:23:49.000Z</time>
      </trkpt>
      <trkpt lat="46.20906" lon="-1.45223">
        <ele>2.83601</ele>
        <time>2023-05-31T08:23:50.000Z</time>
      </trkpt>
      <trkpt lat="46.20908" lon="-1.4523">
        <ele>2.84062</ele>
        <time>2023-05-31T08:23:51.000Z</time>
      </trkpt>
      <trkpt lat="46.2091" lon="-1.45235">
        <ele>2.85938</ele>
        <time>2023-05-31T08:23:52.000Z</time>
      </trkpt>
      <trkpt lat="46.20912" lon="-1.45242">
        <ele>2.87767</ele>
        <time>2023-05-31T08:23:53.000Z</time>
      </trkpt>
      <trkpt lat="46.20914" lon="-1.45248">
        <ele>2.93662</ele>
        <time>2023-05-31T08:23:54.000Z</time>
      </trkpt>
      <trkpt lat="46.20916" lon="-1.45254">
        <ele>2.9559</ele>
        <time>2023-05-31T08:23:55.000Z</time>
      </trkpt>
      <trkpt lat="46.20918" lon="-1.4526">
        <ele>2.97008</ele>
        <time>2023-05-31T08:23:56.000Z</time>
      </trkpt>
      <trkpt lat="46.2092" lon="-1.45266">
        <ele>2.9867</ele>
        <time>2023-05-31T08:23:57.000Z</time>
      </trkpt>
      <trkpt lat="46.20922" lon="-1.45272">
        <ele>3.00135</ele>
        <time>2023-05-31T08:23:58.000Z</time>
      </trkpt>
      <trkpt lat="46.20924" lon="-1.45278">
        <ele>3.03871</ele>
        <time>2023-05-31T08:23:59.000Z</time>
      </trkpt>
      <trkpt lat="46.20926" lon="-1.45284">
        <ele>3.07538</ele>
        <time>2023-05-31T08:24:00.000Z</time>
      </trkpt>
      <trkpt lat="46.20928" lon="-1.4529">
        <ele>3.11789</ele>
        <time>2023-05-31T08:24:01.000Z</time>
      </trkpt>
      <trkpt lat="46.2093" lon="-1.45295">
        <ele>3.16547</ele>
        <time>2023-05-31T08:24:02.000Z</time>
      </trkpt>
      <trkpt lat="46.20932" lon="-1.45302">
        <ele>3.22105</ele>
        <time>2023-05-31T08:24:03.000Z</time>
      </trkpt>
      <trkpt lat="46.20934" lon="-1.45308">
        <ele>3.28403</ele>
        <time>2023-05-31T08:24:04.000Z</time>
      </trkpt>
      <trkpt lat="46.20935" lon="-1.45314">
        <ele>3.36318</ele>
        <time>2023-05-31T08:24:05.000Z</time>
      </trkpt>
      <trkpt lat="46.20937" lon="-1.4532">
        <ele>3.43877</ele>
        <time>2023-05-31T08:24:06.000Z</time>
      </trkpt>
      <trkpt lat="46.20939" lon="-1.45325">
        <ele>3.52574</ele>
        <time>2023-05-31T08:24:07.000Z</time>
      </trkpt>
      <trkpt lat="46.20941" lon="-1.45331">
        <ele>3.60179</ele>
        <time>2023-05-31T08:24:08.000Z</time>
      </trkpt>
      <trkpt lat="46.20943" lon="-1.45337">
        <ele>3.6649</ele>
        <time>2023-05-31T08:24:09.000Z</time>
      </trkpt>
      <trkpt lat="46.20945" lon="-1.45343">
        <ele>3.72536</ele>
        <time>2023-05-31T08:24:10.000Z</time>
      </trkpt>
      <trkpt lat="46.20947" lon="-1.45349">
        <ele>3.79475</ele>
        <time>2023-05-31T08:24:11.000Z</time>
      </trkpt>
      <trkpt lat="46.20949" lon="-1.45354">
        <ele>3.83358</ele>
        <time>2023-05-31T08:24:12.000Z</time>
      </trkpt>
      <trkpt lat="46.20951" lon="-1.4536">
        <ele>3.86556</ele>
        <time>2023-05-31T08:24:13.000Z</time>
      </trkpt>
      <trkpt lat="46.20952" lon="-1.45366">
        <ele>3.91706</ele>
        <time>2023-05-31T08:24:14.000Z</time>
      </trkpt>
      <trkpt lat="46.20954" lon="-1.45372">
        <ele>3.97603</ele>
        <time>2023-05-31T08:24:15.000Z</time>
      </trkpt>
      <trkpt lat="46.20956" lon="-1.45377">
        <ele>4.03398</ele>
        <time>2023-05-31T08:24:16.000Z</time>
      </trkpt>
      <trkpt lat="46.20957" lon="-1.45383">
        <ele>4.07111</ele>
        <time>2023-05-31T08:24:17.000Z</time>
      </trkpt>
      <trkpt lat="46.20958" lon="-1.45389">
        <ele>4.09272</ele>
        <time>2023-05-31T08:24:18.000Z</time>
      </trkpt>
      <trkpt lat="46.20958" lon="-1.45396">
        <ele>4.08746</ele>
        <time>2023-05-31T08:24:19.000Z</time>
      </trkpt>
      <trkpt lat="46.20958" lon="-1.45402">
        <ele>4.07539</ele>
        <time>2023-05-31T08:24:20.000Z</time>
      </trkpt>
      <trkpt lat="46.2096" lon="-1.45407">
        <ele>4.07316</ele>
        <time>2023-05-31T08:24:21.000Z</time>
      </trkpt>
      <trkpt lat="46.20962" lon="-1.45412">
        <ele>4.07402</ele>
        <time>2023-05-31T08:24:22.000Z</time>
      </trkpt>
      <trkpt lat="46.20964" lon="-1.45417">
        <ele>4.05116</ele>
        <time>2023-05-31T08:24:23.000Z</time>
      </trkpt>
      <trkpt lat="46.20966" lon="-1.45422">
        <ele>4.00669</ele>
        <time>2023-05-31T08:24:24.000Z</time>
      </trkpt>
      <trkpt lat="46.20968" lon="-1.45428">
        <ele>3.94616</ele>
        <time>2023-05-31T08:24:25.000Z</time>
      </trkpt>
      <trkpt lat="46.2097" lon="-1.45433">
        <ele>3.89881</ele>
        <time>2023-05-31T08:24:26.000Z</time>
      </trkpt>
      <trkpt lat="46.20973" lon="-1.45438">
        <ele>3.85279</ele>
        <time>2023-05-31T08:24:27.000Z</time>
      </trkpt>
      <trkpt lat="46.20975" lon="-1.45444">
        <ele>3.82833</ele>
        <time>2023-05-31T08:24:28.000Z</time>
      </trkpt>
      <trkpt lat="46.20977" lon="-1.45449">
        <ele>3.8097</ele>
        <time>2023-05-31T08:24:29.000Z</time>
      </trkpt>
      <trkpt lat="46.20979" lon="-1.45454">
        <ele>3.78375</ele>
        <time>2023-05-31T08:24:30.000Z</time>
      </trkpt>
      <trkpt lat="46.20981" lon="-1.4546">
        <ele>3.75535</ele>
        <time>2023-05-31T08:24:31.000Z</time>
      </trkpt>
      <trkpt lat="46.20983" lon="-1.45465">
        <ele>3.73717</ele>
        <time>2023-05-31T08:24:32.000Z</time>
      </trkpt>
      <trkpt lat="46.20985" lon="-1.45471">
        <ele>3.72481</ele>
        <time>2023-05-31T08:24:33.000Z</time>
      </trkpt>
      <trkpt lat="46.20987" lon="-1.45476">
        <ele>3.64868</ele>
        <time>2023-05-31T08:24:34.000Z</time>
      </trkpt>
      <trkpt lat="46.20989" lon="-1.45482">
        <ele>3.56997</ele>
        <time>2023-05-31T08:24:35.000Z</time>
      </trkpt>
      <trkpt lat="46.2099" lon="-1.45487">
        <ele>3.5053</ele>
        <time>2023-05-31T08:24:36.000Z</time>
      </trkpt>
      <trkpt lat="46.20992" lon="-1.45493">
        <ele>3.4647</ele>
        <time>2023-05-31T08:24:37.000Z</time>
      </trkpt>
      <trkpt lat="46.20994" lon="-1.45498">
        <ele>3.44213</ele>
        <time>2023-05-31T08:24:38.000Z</time>
      </trkpt>
      <trkpt lat="46.20996" lon="-1.45504">
        <ele>3.43509</ele>
        <time>2023-05-31T08:24:39.000Z</time>
      </trkpt>
      <trkpt lat="46.20998" lon="-1.4551">
        <ele>3.43259</ele>
        <time>2023-05-31T08:24:40.000Z</time>
      </trkpt>
      <trkpt lat="46.21" lon="-1.45516">
        <ele>3.42963</ele>
        <time>2023-05-31T08:24:41.000Z</time>
      </trkpt>
      <trkpt lat="46.21001" lon="-1.45522">
        <ele>3.42175</ele>
        <time>2023-05-31T08:24:42.000Z</time>
      </trkpt>
      <trkpt lat="46.21003" lon="-1.45529">
        <ele>3.43627</ele>
        <time>2023-05-31T08:24:43.000Z</time>
      </trkpt>
      <trkpt lat="46.21005" lon="-1.45534">
        <ele>3.46489</ele>
        <time>2023-05-31T08:24:44.000Z</time>
      </trkpt>
      <trkpt lat="46.21007" lon="-1.4554">
        <ele>3.49592</ele>
        <time>2023-05-31T08:24:45.000Z</time>
      </trkpt>
      <trkpt lat="46.21009" lon="-1.45546">
        <ele>3.50464</ele>
        <time>2023-05-31T08:24:46.000Z</time>
      </trkpt>
      <trkpt lat="46.21011" lon="-1.45552">
        <ele>3.49243</ele>
        <time>2023-05-31T08:24:47.000Z</time>
      </trkpt>
      <trkpt lat="46.21013" lon="-1.45558">
        <ele>3.46142</ele>
        <time>2023-05-31T08:24:48.000Z</time>
      </trkpt>
      <trkpt lat="46.21014" lon="-1.45564">
        <ele>3.41181</ele>
        <time>2023-05-31T08:24:49.000Z</time>
      </trkpt>
      <trkpt lat="46.21016" lon="-1.4557">
        <ele>3.35989</ele>
        <time>2023-05-31T08:24:50.000Z</time>
      </trkpt>
      <trkpt lat="46.21017" lon="-1.45575">
        <ele>3.29247</ele>
        <time>2023-05-31T08:24:51.000Z</time>
      </trkpt>
      <trkpt lat="46.21019" lon="-1.45582">
        <ele>3.25572</ele>
        <time>2023-05-31T08:24:52.000Z</time>
      </trkpt>
      <trkpt lat="46.2102" lon="-1.45588">
        <ele>3.22841</ele>
        <time>2023-05-31T08:24:53.000Z</time>
      </trkpt>
      <trkpt lat="46.21023" lon="-1.45594">
        <ele>3.2343</ele>
        <time>2023-05-31T08:24:54.000Z</time>
      </trkpt>
      <trkpt lat="46.21025" lon="-1.45599">
        <ele>3.23338</ele>
        <time>2023-05-31T08:24:55.000Z</time>
      </trkpt>
      <trkpt lat="46.21027" lon="-1.45605">
        <ele>3.21815</ele>
        <time>2023-05-31T08:24:56.000Z</time>
      </trkpt>
      <trkpt lat="46.21029" lon="-1.45609">
        <ele>3.21546</ele>
        <time>2023-05-31T08:24:57.000Z</time>
      </trkpt>
      <trkpt lat="46.2103" lon="-1.45615">
        <ele>3.20398</ele>
        <time>2023-05-31T08:24:58.000Z</time>
      </trkpt>
      <trkpt lat="46.21031" lon="-1.4562">
        <ele>3.19921</ele>
        <time>2023-05-31T08:24:59.000Z</time>
      </trkpt>
      <trkpt lat="46.21032" lon="-1.45626">
        <ele>3.18874</ele>
        <time>2023-05-31T08:25:00.000Z</time>
      </trkpt>
      <trkpt lat="46.21034" lon="-1.45631">
        <ele>3.18786</ele>
        <time>2023-05-31T08:25:01.000Z</time>
      </trkpt>
      <trkpt lat="46.21035" lon="-1.45637">
        <ele>3.1873</ele>
        <time>2023-05-31T08:25:02.000Z</time>
      </trkpt>
      <trkpt lat="46.21035" lon="-1.45642">
        <ele>3.18111</ele>
        <time>2023-05-31T08:25:03.000Z</time>
      </trkpt>
      <trkpt lat="46.21037" lon="-1.45648">
        <ele>3.15582</ele>
        <time>2023-05-31T08:25:04.000Z</time>
      </trkpt>
      <trkpt lat="46.21038" lon="-1.45654">
        <ele>3.11578</ele>
        <time>2023-05-31T08:25:05.000Z</time>
      </trkpt>
      <trkpt lat="46.21039" lon="-1.4566">
        <ele>3.08615</ele>
        <time>2023-05-31T08:25:06.000Z</time>
      </trkpt>
      <trkpt lat="46.2104" lon="-1.45666">
        <ele>3.06161</ele>
        <time>2023-05-31T08:25:07.000Z</time>
      </trkpt>
      <trkpt lat="46.21042" lon="-1.45672">
        <ele>3.03561</ele>
        <time>2023-05-31T08:25:08.000Z</time>
      </trkpt>
      <trkpt lat="46.21043" lon="-1.45678">
        <ele>3.02978</ele>
        <time>2023-05-31T08:25:09.000Z</time>
      </trkpt>
      <trkpt lat="46.21044" lon="-1.45684">
        <ele>3.05961</ele>
        <time>2023-05-31T08:25:10.000Z</time>
      </trkpt>
      <trkpt lat="46.21045" lon="-1.4569">
        <ele>3.08193</ele>
        <time>2023-05-31T08:25:11.000Z</time>
      </trkpt>
      <trkpt lat="46.21046" lon="-1.45696">
        <ele>3.10885</ele>
        <time>2023-05-31T08:25:12.000Z</time>
      </trkpt>
      <trkpt lat="46.21048" lon="-1.45702">
        <ele>3.13503</ele>
        <time>2023-05-31T08:25:13.000Z</time>
      </trkpt>
      <trkpt lat="46.21049" lon="-1.45709">
        <ele>3.15347</ele>
        <time>2023-05-31T08:25:14.000Z</time>
      </trkpt>
      <trkpt lat="46.2105" lon="-1.45715">
        <ele>3.1846</ele>
        <time>2023-05-31T08:25:15.000Z</time>
      </trkpt>
      <trkpt lat="46.21052" lon="-1.45721">
        <ele>3.21829</ele>
        <time>2023-05-31T08:25:16.000Z</time>
      </trkpt>
      <trkpt lat="46.21053" lon="-1.45727">
        <ele>3.24069</ele>
        <time>2023-05-31T08:25:17.000Z</time>
      </trkpt>
      <trkpt lat="46.21054" lon="-1.45733">
        <ele>3.25449</ele>
        <time>2023-05-31T08:25:18.000Z</time>
      </trkpt>
      <trkpt lat="46.21055" lon="-1.45739">
        <ele>3.27724</ele>
        <time>2023-05-31T08:25:19.000Z</time>
      </trkpt>
      <trkpt lat="46.21057" lon="-1.45745">
        <ele>3.29342</ele>
        <time>2023-05-31T08:25:20.000Z</time>
      </trkpt>
      <trkpt lat="46.21057" lon="-1.45751">
        <ele>3.29761</ele>
        <time>2023-05-31T08:25:21.000Z</time>
      </trkpt>
      <trkpt lat="46.21059" lon="-1.45757">
        <ele>3.32158</ele>
        <time>2023-05-31T08:25:22.000Z</time>
      </trkpt>
      <trkpt lat="46.2106" lon="-1.45763">
        <ele>3.35469</ele>
        <time>2023-05-31T08:25:23.000Z</time>
      </trkpt>
      <trkpt lat="46.21061" lon="-1.45769">
        <ele>3.42168</ele>
        <time>2023-05-31T08:25:24.000Z</time>
      </trkpt>
      <trkpt lat="46.21063" lon="-1.45775">
        <ele>3.50239</ele>
        <time>2023-05-31T08:25:25.000Z</time>
      </trkpt>
      <trkpt lat="46.21064" lon="-1.45781">
        <ele>3.56659</ele>
        <time>2023-05-31T08:25:26.000Z</time>
      </trkpt>
      <trkpt lat="46.21065" lon="-1.45787">
        <ele>3.63035</ele>
        <time>2023-05-31T08:25:27.000Z</time>
      </trkpt>
      <trkpt lat="46.21066" lon="-1.45794">
        <ele>3.70632</ele>
        <time>2023-05-31T08:25:28.000Z</time>
      </trkpt>
      <trkpt lat="46.21067" lon="-1.458">
        <ele>3.79863</ele>
        <time>2023-05-31T08:25:29.000Z</time>
      </trkpt>
      <trkpt lat="46.21069" lon="-1.45807">
        <ele>3.84086</ele>
        <time>2023-05-31T08:25:30.000Z</time>
      </trkpt>
      <trkpt lat="46.2107" lon="-1.45813">
        <ele>3.90939</ele>
        <time>2023-05-31T08:25:31.000Z</time>
      </trkpt>
      <trkpt lat="46.21071" lon="-1.45819">
        <ele>3.95886</ele>
        <time>2023-05-31T08:25:32.000Z</time>
      </trkpt>
      <trkpt lat="46.21072" lon="-1.45825">
        <ele>4.01315</ele>
        <time>2023-05-31T08:25:33.000Z</time>
      </trkpt>
      <trkpt lat="46.21074" lon="-1.45831">
        <ele>4.03912</ele>
        <time>2023-05-31T08:25:34.000Z</time>
      </trkpt>
      <trkpt lat="46.21075" lon="-1.45837">
        <ele>4.0479</ele>
        <time>2023-05-31T08:25:35.000Z</time>
      </trkpt>
      <trkpt lat="46.21076" lon="-1.45843">
        <ele>4.06613</ele>
        <time>2023-05-31T08:25:36.000Z</time>
      </trkpt>
      <trkpt lat="46.21076" lon="-1.45849">
        <ele>4.12248</ele>
        <time>2023-05-31T08:25:37.000Z</time>
      </trkpt>
      <trkpt lat="46.21078" lon="-1.45856">
        <ele>4.19647</ele>
        <time>2023-05-31T08:25:38.000Z</time>
      </trkpt>
      <trkpt lat="46.21079" lon="-1.45862">
        <ele>4.24978</ele>
        <time>2023-05-31T08:25:39.000Z</time>
      </trkpt>
      <trkpt lat="46.21079" lon="-1.45868">
        <ele>4.30508</ele>
        <time>2023-05-31T08:25:40.000Z</time>
      </trkpt>
      <trkpt lat="46.2108" lon="-1.45874">
        <ele>4.34634</ele>
        <time>2023-05-31T08:25:41.000Z</time>
      </trkpt>
      <trkpt lat="46.21081" lon="-1.45881">
        <ele>4.35855</ele>
        <time>2023-05-31T08:25:42.000Z</time>
      </trkpt>
      <trkpt lat="46.21082" lon="-1.45887">
        <ele>4.35459</ele>
        <time>2023-05-31T08:25:43.000Z</time>
      </trkpt>
      <trkpt lat="46.21082" lon="-1.45893">
        <ele>4.32543</ele>
        <time>2023-05-31T08:25:44.000Z</time>
      </trkpt>
      <trkpt lat="46.21083" lon="-1.459">
        <ele>4.30345</ele>
        <time>2023-05-31T08:25:45.000Z</time>
      </trkpt>
      <trkpt lat="46.21083" lon="-1.45906">
        <ele>4.2905</ele>
        <time>2023-05-31T08:25:46.000Z</time>
      </trkpt>
      <trkpt lat="46.21084" lon="-1.45911">
        <ele>4.27046</ele>
        <time>2023-05-31T08:25:47.000Z</time>
      </trkpt>
      <trkpt lat="46.21084" lon="-1.45918">
        <ele>4.2346</ele>
        <time>2023-05-31T08:25:48.000Z</time>
      </trkpt>
      <trkpt lat="46.21085" lon="-1.45925">
        <ele>4.21502</ele>
        <time>2023-05-31T08:25:49.000Z</time>
      </trkpt>
      <trkpt lat="46.21086" lon="-1.45931">
        <ele>4.19631</ele>
        <time>2023-05-31T08:25:50.000Z</time>
      </trkpt>
      <trkpt lat="46.21087" lon="-1.45938">
        <ele>4.16339</ele>
        <time>2023-05-31T08:25:51.000Z</time>
      </trkpt>
      <trkpt lat="46.21088" lon="-1.45944">
        <ele>4.15952</ele>
        <time>2023-05-31T08:25:52.000Z</time>
      </trkpt>
      <trkpt lat="46.21088" lon="-1.4595">
        <ele>4.13186</ele>
        <time>2023-05-31T08:25:53.000Z</time>
      </trkpt>
      <trkpt lat="46.21089" lon="-1.45956">
        <ele>4.10504</ele>
        <time>2023-05-31T08:25:54.000Z</time>
      </trkpt>
      <trkpt lat="46.21091" lon="-1.45962">
        <ele>4.09209</ele>
        <time>2023-05-31T08:25:55.000Z</time>
      </trkpt>
      <trkpt lat="46.21092" lon="-1.45968">
        <ele>4.06591</ele>
        <time>2023-05-31T08:25:56.000Z</time>
      </trkpt>
      <trkpt lat="46.21092" lon="-1.45973">
        <ele>3.99121</ele>
        <time>2023-05-31T08:25:57.000Z</time>
      </trkpt>
      <trkpt lat="46.21093" lon="-1.45979">
        <ele>3.90752</ele>
        <time>2023-05-31T08:25:58.000Z</time>
      </trkpt>
      <trkpt lat="46.21095" lon="-1.45985">
        <ele>3.82565</ele>
        <time>2023-05-31T08:25:59.000Z</time>
      </trkpt>
      <trkpt lat="46.21095" lon="-1.4599">
        <ele>3.7415</ele>
        <time>2023-05-31T08:26:00.000Z</time>
      </trkpt>
      <trkpt lat="46.21097" lon="-1.45994">
        <ele>3.66892</ele>
        <time>2023-05-31T08:26:01.000Z</time>
      </trkpt>
      <trkpt lat="46.21098" lon="-1.45999">
        <ele>3.59568</ele>
        <time>2023-05-31T08:26:02.000Z</time>
      </trkpt>
      <trkpt lat="46.211" lon="-1.46003">
        <ele>3.51066</ele>
        <time>2023-05-31T08:26:03.000Z</time>
      </trkpt>
      <trkpt lat="46.21102" lon="-1.46006">
        <ele>3.44277</ele>
        <time>2023-05-31T08:26:04.000Z</time>
      </trkpt>
      <trkpt lat="46.21104" lon="-1.46009">
        <ele>3.37433</ele>
        <time>2023-05-31T08:26:05.000Z</time>
      </trkpt>
      <trkpt lat="46.21105" lon="-1.46013">
        <ele>3.31992</ele>
        <time>2023-05-31T08:26:06.000Z</time>
      </trkpt>
      <trkpt lat="46.21107" lon="-1.46015">
        <ele>3.27909</ele>
        <time>2023-05-31T08:26:07.000Z</time>
      </trkpt>
      <trkpt lat="46.21109" lon="-1.46017">
        <ele>3.24081</ele>
        <time>2023-05-31T08:26:08.000Z</time>
      </trkpt>
      <trkpt lat="46.21112" lon="-1.46018">
        <ele>3.16804</ele>
        <time>2023-05-31T08:26:09.000Z</time>
      </trkpt>
      <trkpt lat="46.21114" lon="-1.46019">
        <ele>3.09571</ele>
        <time>2023-05-31T08:26:10.000Z</time>
      </trkpt>
      <trkpt lat="46.21116" lon="-1.4602">
        <ele>3.03868</ele>
        <time>2023-05-31T08:26:11.000Z</time>
      </trkpt>
      <trkpt lat="46.21119" lon="-1.46021">
        <ele>2.96869</ele>
        <time>2023-05-31T08:26:12.000Z</time>
      </trkpt>
      <trkpt lat="46.2112" lon="-1.46023">
        <ele>2.94216</ele>
        <time>2023-05-31T08:26:14.000Z</time>
      </trkpt>
      <trkpt lat="46.2112" lon="-1.46027">
        <ele>2.9457</ele>
        <time>2023-05-31T08:26:21.000Z</time>
      </trkpt>
      <trkpt lat="46.2112" lon="-1.46032">
        <ele>2.92422</ele>
        <time>2023-05-31T08:26:22.000Z</time>
      </trkpt>
      <trkpt lat="46.2112" lon="-1.46037">
        <ele>2.91367</ele>
        <time>2023-05-31T08:26:23.000Z</time>
      </trkpt>
      <trkpt lat="46.2112" lon="-1.46042">
        <ele>2.91292</ele>
        <time>2023-05-31T08:26:24.000Z</time>
      </trkpt>
      <trkpt lat="46.2112" lon="-1.46047">
        <ele>2.9196</ele>
        <time>2023-05-31T08:26:25.000Z</time>
      </trkpt>
      <trkpt lat="46.2112" lon="-1.46052">
        <ele>2.91875</ele>
        <time>2023-05-31T08:26:26.000Z</time>
      </trkpt>
      <trkpt lat="46.2112" lon="-1.46058">
        <ele>2.9463</ele>
        <time>2023-05-31T08:26:27.000Z</time>
      </trkpt>
      <trkpt lat="46.2112" lon="-1.46064">
        <ele>2.96426</ele>
        <time>2023-05-31T08:26:28.000Z</time>
      </trkpt>
      <trkpt lat="46.2112" lon="-1.4607">
        <ele>2.97403</ele>
        <time>2023-05-31T08:26:29.000Z</time>
      </trkpt>
      <trkpt lat="46.2112" lon="-1.46076">
        <ele>2.99463</ele>
        <time>2023-05-31T08:26:30.000Z</time>
      </trkpt>
      <trkpt lat="46.2112" lon="-1.46083">
        <ele>3.02052</ele>
        <time>2023-05-31T08:26:31.000Z</time>
      </trkpt>
      <trkpt lat="46.2112" lon="-1.46089">
        <ele>3.03385</ele>
        <time>2023-05-31T08:26:32.000Z</time>
      </trkpt>
      <trkpt lat="46.2112" lon="-1.46095">
        <ele>3.09679</ele>
        <time>2023-05-31T08:26:33.000Z</time>
      </trkpt>
      <trkpt lat="46.2112" lon="-1.46101">
        <ele>3.13027</ele>
        <time>2023-05-31T08:26:34.000Z</time>
      </trkpt>
      <trkpt lat="46.2112" lon="-1.46107">
        <ele>3.16237</ele>
        <time>2023-05-31T08:26:35.000Z</time>
      </trkpt>
      <trkpt lat="46.21121" lon="-1.46113">
        <ele>3.16887</ele>
        <time>2023-05-31T08:26:36.000Z</time>
      </trkpt>
      <trkpt lat="46.21121" lon="-1.46119">
        <ele>3.1922</ele>
        <time>2023-05-31T08:26:37.000Z</time>
      </trkpt>
      <trkpt lat="46.21121" lon="-1.46125">
        <ele>3.21402</ele>
        <time>2023-05-31T08:26:38.000Z</time>
      </trkpt>
      <trkpt lat="46.21122" lon="-1.46131">
        <ele>3.23725</ele>
        <time>2023-05-31T08:26:39.000Z</time>
      </trkpt>
      <trkpt lat="46.21121" lon="-1.46137">
        <ele>3.22377</ele>
        <time>2023-05-31T08:26:40.000Z</time>
      </trkpt>
      <trkpt lat="46.21121" lon="-1.46144">
        <ele>3.19148</ele>
        <time>2023-05-31T08:26:41.000Z</time>
      </trkpt>
      <trkpt lat="46.2112" lon="-1.4615">
        <ele>3.18539</ele>
        <time>2023-05-31T08:26:42.000Z</time>
      </trkpt>
      <trkpt lat="46.2112" lon="-1.46157">
        <ele>3.18215</ele>
        <time>2023-05-31T08:26:43.000Z</time>
      </trkpt>
      <trkpt lat="46.21118" lon="-1.46163">
        <ele>3.17348</ele>
        <time>2023-05-31T08:26:44.000Z</time>
      </trkpt>
      <trkpt lat="46.21117" lon="-1.46169">
        <ele>3.16893</ele>
        <time>2023-05-31T08:26:45.000Z</time>
      </trkpt>
      <trkpt lat="46.21116" lon="-1.46176">
        <ele>3.16503</ele>
        <time>2023-05-31T08:26:46.000Z</time>
      </trkpt>
      <trkpt lat="46.21114" lon="-1.46182">
        <ele>3.12996</ele>
        <time>2023-05-31T08:26:47.000Z</time>
      </trkpt>
      <trkpt lat="46.21113" lon="-1.46188">
        <ele>3.1254</ele>
        <time>2023-05-31T08:26:48.000Z</time>
      </trkpt>
      <trkpt lat="46.21111" lon="-1.46194">
        <ele>3.13916</ele>
        <time>2023-05-31T08:26:49.000Z</time>
      </trkpt>
      <trkpt lat="46.2111" lon="-1.462">
        <ele>3.17746</ele>
        <time>2023-05-31T08:26:50.000Z</time>
      </trkpt>
      <trkpt lat="46.21109" lon="-1.46205">
        <ele>3.20471</ele>
        <time>2023-05-31T08:26:51.000Z</time>
      </trkpt>
      <trkpt lat="46.21107" lon="-1.4621">
        <ele>3.22649</ele>
        <time>2023-05-31T08:26:52.000Z</time>
      </trkpt>
      <trkpt lat="46.21106" lon="-1.46216">
        <ele>3.18942</ele>
        <time>2023-05-31T08:26:53.000Z</time>
      </trkpt>
      <trkpt lat="46.21104" lon="-1.46221">
        <ele>3.16002</ele>
        <time>2023-05-31T08:26:54.000Z</time>
      </trkpt>
      <trkpt lat="46.21104" lon="-1.46225">
        <ele>3.17215</ele>
        <time>2023-05-31T08:26:55.000Z</time>
      </trkpt>
      <trkpt lat="46.21103" lon="-1.46229">
        <ele>3.20954</ele>
        <time>2023-05-31T08:26:57.000Z</time>
      </trkpt>
      <trkpt lat="46.21103" lon="-1.46234">
        <ele>3.27087</ele>
        <time>2023-05-31T08:26:59.000Z</time>
      </trkpt>
      <trkpt lat="46.21103" lon="-1.46236">
        <ele>3.30895</ele>
        <time>2023-05-31T08:27:02.000Z</time>
      </trkpt>
      <trkpt lat="46.21102" lon="-1.4624">
        <ele>3.35721</ele>
        <time>2023-05-31T08:27:08.000Z</time>
      </trkpt>
      <trkpt lat="46.21102" lon="-1.46245">
        <ele>3.40859</ele>
        <time>2023-05-31T08:27:10.000Z</time>
      </trkpt>
      <trkpt lat="46.21101" lon="-1.46247">
        <ele>3.44522</ele>
        <time>2023-05-31T08:27:12.000Z</time>
      </trkpt>
      <trkpt lat="46.21101" lon="-1.46252">
        <ele>3.49756</ele>
        <time>2023-05-31T08:27:19.000Z</time>
      </trkpt>
      <trkpt lat="46.21101" lon="-1.46255">
        <ele>3.5415</ele>
        <time>2023-05-31T08:27:20.000Z</time>
      </trkpt>
      <trkpt lat="46.211" lon="-1.46258">
        <ele>3.59602</ele>
        <time>2023-05-31T08:27:21.000Z</time>
      </trkpt>
      <trkpt lat="46.211" lon="-1.46262">
        <ele>3.62969</ele>
        <time>2023-05-31T08:27:22.000Z</time>
      </trkpt>
      <trkpt lat="46.21099" lon="-1.46267">
        <ele>3.64785</ele>
        <time>2023-05-31T08:27:23.000Z</time>
      </trkpt>
      <trkpt lat="46.21099" lon="-1.46271">
        <ele>3.65606</ele>
        <time>2023-05-31T08:27:24.000Z</time>
      </trkpt>
      <trkpt lat="46.21098" lon="-1.46275">
        <ele>3.65188</ele>
        <time>2023-05-31T08:27:25.000Z</time>
      </trkpt>
      <trkpt lat="46.21097" lon="-1.46279">
        <ele>3.68497</ele>
        <time>2023-05-31T08:27:26.000Z</time>
      </trkpt>
      <trkpt lat="46.21095" lon="-1.46283">
        <ele>3.70544</ele>
        <time>2023-05-31T08:27:27.000Z</time>
      </trkpt>
      <trkpt lat="46.21094" lon="-1.46286">
        <ele>3.73736</ele>
        <time>2023-05-31T08:27:28.000Z</time>
      </trkpt>
      <trkpt lat="46.21093" lon="-1.4629">
        <ele>3.77673</ele>
        <time>2023-05-31T08:27:29.000Z</time>
      </trkpt>
      <trkpt lat="46.21092" lon="-1.46295">
        <ele>3.81296</ele>
        <time>2023-05-31T08:27:30.000Z</time>
      </trkpt>
      <trkpt lat="46.21091" lon="-1.463">
        <ele>3.87341</ele>
        <time>2023-05-31T08:27:31.000Z</time>
      </trkpt>
      <trkpt lat="46.2109" lon="-1.46306">
        <ele>3.90235</ele>
        <time>2023-05-31T08:27:32.000Z</time>
      </trkpt>
      <trkpt lat="46.21089" lon="-1.46311">
        <ele>3.93354</ele>
        <time>2023-05-31T08:27:33.000Z</time>
      </trkpt>
      <trkpt lat="46.21088" lon="-1.46317">
        <ele>3.93751</ele>
        <time>2023-05-31T08:27:34.000Z</time>
      </trkpt>
      <trkpt lat="46.21087" lon="-1.46323">
        <ele>3.963</ele>
        <time>2023-05-31T08:27:35.000Z</time>
      </trkpt>
      <trkpt lat="46.21086" lon="-1.46329">
        <ele>3.96971</ele>
        <time>2023-05-31T08:27:36.000Z</time>
      </trkpt>
      <trkpt lat="46.21084" lon="-1.46335">
        <ele>3.97435</ele>
        <time>2023-05-31T08:27:37.000Z</time>
      </trkpt>
      <trkpt lat="46.21084" lon="-1.46341">
        <ele>3.98394</ele>
        <time>2023-05-31T08:27:38.000Z</time>
      </trkpt>
      <trkpt lat="46.21083" lon="-1.46347">
        <ele>3.98302</ele>
        <time>2023-05-31T08:27:39.000Z</time>
      </trkpt>
      <trkpt lat="46.21081" lon="-1.46354">
        <ele>3.97237</ele>
        <time>2023-05-31T08:27:40.000Z</time>
      </trkpt>
      <trkpt lat="46.2108" lon="-1.46361">
        <ele>3.94623</ele>
        <time>2023-05-31T08:27:41.000Z</time>
      </trkpt>
      <trkpt lat="46.2108" lon="-1.46369">
        <ele>3.91083</ele>
        <time>2023-05-31T08:27:42.000Z</time>
      </trkpt>
      <trkpt lat="46.21079" lon="-1.46375">
        <ele>3.89463</ele>
        <time>2023-05-31T08:27:43.000Z</time>
      </trkpt>
      <trkpt lat="46.21077" lon="-1.46382">
        <ele>3.91499</ele>
        <time>2023-05-31T08:27:44.000Z</time>
      </trkpt>
      <trkpt lat="46.21076" lon="-1.46389">
        <ele>3.93326</ele>
        <time>2023-05-31T08:27:45.000Z</time>
      </trkpt>
      <trkpt lat="46.21076" lon="-1.46397">
        <ele>3.90574</ele>
        <time>2023-05-31T08:27:46.000Z</time>
      </trkpt>
      <trkpt lat="46.21074" lon="-1.46405">
        <ele>3.87702</ele>
        <time>2023-05-31T08:27:47.000Z</time>
      </trkpt>
      <trkpt lat="46.21073" lon="-1.46413">
        <ele>3.84904</ele>
        <time>2023-05-31T08:27:48.000Z</time>
      </trkpt>
      <trkpt lat="46.21072" lon="-1.46421">
        <ele>3.83981</ele>
        <time>2023-05-31T08:27:49.000Z</time>
      </trkpt>
      <trkpt lat="46.21072" lon="-1.46429">
        <ele>3.83067</ele>
        <time>2023-05-31T08:27:50.000Z</time>
      </trkpt>
      <trkpt lat="46.21071" lon="-1.46437">
        <ele>3.81494</ele>
        <time>2023-05-31T08:27:51.000Z</time>
      </trkpt>
      <trkpt lat="46.2107" lon="-1.46444">
        <ele>3.76142</ele>
        <time>2023-05-31T08:27:52.000Z</time>
      </trkpt>
      <trkpt lat="46.21069" lon="-1.46452">
        <ele>3.70186</ele>
        <time>2023-05-31T08:27:53.000Z</time>
      </trkpt>
      <trkpt lat="46.21068" lon="-1.46459">
        <ele>3.6197</ele>
        <time>2023-05-31T08:27:54.000Z</time>
      </trkpt>
      <trkpt lat="46.21067" lon="-1.46468">
        <ele>3.51865</ele>
        <time>2023-05-31T08:27:55.000Z</time>
      </trkpt>
      <trkpt lat="46.21066" lon="-1.46475">
        <ele>3.41146</ele>
        <time>2023-05-31T08:27:56.000Z</time>
      </trkpt>
      <trkpt lat="46.21066" lon="-1.46483">
        <ele>3.32325</ele>
        <time>2023-05-31T08:27:57.000Z</time>
      </trkpt>
      <trkpt lat="46.21065" lon="-1.46491">
        <ele>3.26168</ele>
        <time>2023-05-31T08:27:58.000Z</time>
      </trkpt>
      <trkpt lat="46.21065" lon="-1.46499">
        <ele>3.18596</ele>
        <time>2023-05-31T08:27:59.000Z</time>
      </trkpt>
      <trkpt lat="46.21064" lon="-1.46506">
        <ele>3.11459</ele>
        <time>2023-05-31T08:28:00.000Z</time>
      </trkpt>
      <trkpt lat="46.21065" lon="-1.46514">
        <ele>3.05921</ele>
        <time>2023-05-31T08:28:01.000Z</time>
      </trkpt>
      <trkpt lat="46.21064" lon="-1.4652">
        <ele>3.02256</ele>
        <time>2023-05-31T08:28:02.000Z</time>
      </trkpt>
      <trkpt lat="46.21064" lon="-1.46526">
        <ele>2.99385</ele>
        <time>2023-05-31T08:28:03.000Z</time>
      </trkpt>
      <trkpt lat="46.21063" lon="-1.46531">
        <ele>2.94917</ele>
        <time>2023-05-31T08:28:04.000Z</time>
      </trkpt>
      <trkpt lat="46.21063" lon="-1.46536">
        <ele>2.92599</ele>
        <time>2023-05-31T08:28:05.000Z</time>
      </trkpt>
      <trkpt lat="46.21063" lon="-1.46541">
        <ele>2.90956</ele>
        <time>2023-05-31T08:28:06.000Z</time>
      </trkpt>
      <trkpt lat="46.21063" lon="-1.46546">
        <ele>2.86456</ele>
        <time>2023-05-31T08:28:07.000Z</time>
      </trkpt>
      <trkpt lat="46.21062" lon="-1.46551">
        <ele>2.80594</ele>
        <time>2023-05-31T08:28:08.000Z</time>
      </trkpt>
      <trkpt lat="46.21062" lon="-1.46555">
        <ele>2.73562</ele>
        <time>2023-05-31T08:28:09.000Z</time>
      </trkpt>
      <trkpt lat="46.21062" lon="-1.4656">
        <ele>2.67363</ele>
        <time>2023-05-31T08:28:10.000Z</time>
      </trkpt>
      <trkpt lat="46.21062" lon="-1.46565">
        <ele>2.59865</ele>
        <time>2023-05-31T08:28:11.000Z</time>
      </trkpt>
      <trkpt lat="46.21061" lon="-1.46569">
        <ele>2.53962</ele>
        <time>2023-05-31T08:28:12.000Z</time>
      </trkpt>
      <trkpt lat="46.2106" lon="-1.46574">
        <ele>2.48565</ele>
        <time>2023-05-31T08:28:13.000Z</time>
      </trkpt>
      <trkpt lat="46.2106" lon="-1.46579">
        <ele>2.44983</ele>
        <time>2023-05-31T08:28:14.000Z</time>
      </trkpt>
      <trkpt lat="46.2106" lon="-1.46585">
        <ele>2.41674</ele>
        <time>2023-05-31T08:28:15.000Z</time>
      </trkpt>
      <trkpt lat="46.21059" lon="-1.4659">
        <ele>2.39548</ele>
        <time>2023-05-31T08:28:16.000Z</time>
      </trkpt>
      <trkpt lat="46.21059" lon="-1.46595">
        <ele>2.36382</ele>
        <time>2023-05-31T08:28:17.000Z</time>
      </trkpt>
      <trkpt lat="46.21058" lon="-1.46601">
        <ele>2.31702</ele>
        <time>2023-05-31T08:28:18.000Z</time>
      </trkpt>
      <trkpt lat="46.21058" lon="-1.46606">
        <ele>2.27</ele>
        <time>2023-05-31T08:28:19.000Z</time>
      </trkpt>
      <trkpt lat="46.21057" lon="-1.46611">
        <ele>2.2399</ele>
        <time>2023-05-31T08:28:20.000Z</time>
      </trkpt>
      <trkpt lat="46.21057" lon="-1.46617">
        <ele>2.19833</ele>
        <time>2023-05-31T08:28:21.000Z</time>
      </trkpt>
      <trkpt lat="46.21056" lon="-1.46622">
        <ele>2.1554</ele>
        <time>2023-05-31T08:28:22.000Z</time>
      </trkpt>
      <trkpt lat="46.21055" lon="-1.46627">
        <ele>2.12476</ele>
        <time>2023-05-31T08:28:23.000Z</time>
      </trkpt>
      <trkpt lat="46.21055" lon="-1.46632">
        <ele>2.08353</ele>
        <time>2023-05-31T08:28:24.000Z</time>
      </trkpt>
      <trkpt lat="46.21055" lon="-1.46637">
        <ele>2.03367</ele>
        <time>2023-05-31T08:28:25.000Z</time>
      </trkpt>
      <trkpt lat="46.21054" lon="-1.46642">
        <ele>1.98125</ele>
        <time>2023-05-31T08:28:26.000Z</time>
      </trkpt>
      <trkpt lat="46.21055" lon="-1.46647">
        <ele>1.95752</ele>
        <time>2023-05-31T08:28:27.000Z</time>
      </trkpt>
      <trkpt lat="46.21055" lon="-1.46652">
        <ele>1.9341</ele>
        <time>2023-05-31T08:28:28.000Z</time>
      </trkpt>
      <trkpt lat="46.21056" lon="-1.46655">
        <ele>1.93752</ele>
        <time>2023-05-31T08:28:29.000Z</time>
      </trkpt>
      <trkpt lat="46.21058" lon="-1.46656">
        <ele>1.93728</ele>
        <time>2023-05-31T08:28:33.000Z</time>
      </trkpt>
      <trkpt lat="46.21058" lon="-1.46653">
        <ele>1.92825</ele>
        <time>2023-05-31T08:28:38.000Z</time>
      </trkpt>
      <trkpt lat="46.21057" lon="-1.46657">
        <ele>1.9437</ele>
        <time>2023-05-31T08:29:24.000Z</time>
      </trkpt>
      <trkpt lat="46.21056" lon="-1.46659">
        <ele>1.95357</ele>
        <time>2023-05-31T08:29:25.000Z</time>
      </trkpt>
      <trkpt lat="46.21054" lon="-1.46662">
        <ele>1.98593</ele>
        <time>2023-05-31T08:29:26.000Z</time>
      </trkpt>
      <trkpt lat="46.21053" lon="-1.46665">
        <ele>2.04537</ele>
        <time>2023-05-31T08:29:27.000Z</time>
      </trkpt>
      <trkpt lat="46.21052" lon="-1.46669">
        <ele>2.07987</ele>
        <time>2023-05-31T08:29:28.000Z</time>
      </trkpt>
      <trkpt lat="46.21052" lon="-1.46673">
        <ele>2.11976</ele>
        <time>2023-05-31T08:29:29.000Z</time>
      </trkpt>
      <trkpt lat="46.21051" lon="-1.46677">
        <ele>2.14806</ele>
        <time>2023-05-31T08:29:30.000Z</time>
      </trkpt>
      <trkpt lat="46.2105" lon="-1.46681">
        <ele>2.18602</ele>
        <time>2023-05-31T08:29:31.000Z</time>
      </trkpt>
      <trkpt lat="46.21049" lon="-1.46686">
        <ele>2.211</ele>
        <time>2023-05-31T08:29:32.000Z</time>
      </trkpt>
      <trkpt lat="46.21049" lon="-1.46691">
        <ele>2.23851</ele>
        <time>2023-05-31T08:29:33.000Z</time>
      </trkpt>
      <trkpt lat="46.21048" lon="-1.46696">
        <ele>2.27156</ele>
        <time>2023-05-31T08:29:34.000Z</time>
      </trkpt>
      <trkpt lat="46.21046" lon="-1.46702">
        <ele>2.29511</ele>
        <time>2023-05-31T08:29:35.000Z</time>
      </trkpt>
      <trkpt lat="46.21045" lon="-1.46707">
        <ele>2.33373</ele>
        <time>2023-05-31T08:29:36.000Z</time>
      </trkpt>
      <trkpt lat="46.21043" lon="-1.46712">
        <ele>2.37659</ele>
        <time>2023-05-31T08:29:37.000Z</time>
      </trkpt>
      <trkpt lat="46.21042" lon="-1.46717">
        <ele>2.41499</ele>
        <time>2023-05-31T08:29:38.000Z</time>
      </trkpt>
      <trkpt lat="46.2104" lon="-1.46723">
        <ele>2.43529</ele>
        <time>2023-05-31T08:29:39.000Z</time>
      </trkpt>
      <trkpt lat="46.21039" lon="-1.46728">
        <ele>2.4684</ele>
        <time>2023-05-31T08:29:40.000Z</time>
      </trkpt>
      <trkpt lat="46.21037" lon="-1.46733">
        <ele>2.46694</ele>
        <time>2023-05-31T08:29:41.000Z</time>
      </trkpt>
      <trkpt lat="46.21035" lon="-1.46738">
        <ele>2.46815</ele>
        <time>2023-05-31T08:29:42.000Z</time>
      </trkpt>
      <trkpt lat="46.21033" lon="-1.46743">
        <ele>2.48831</ele>
        <time>2023-05-31T08:29:43.000Z</time>
      </trkpt>
      <trkpt lat="46.2103" lon="-1.46748">
        <ele>2.52964</ele>
        <time>2023-05-31T08:29:44.000Z</time>
      </trkpt>
      <trkpt lat="46.21028" lon="-1.46753">
        <ele>2.569</ele>
        <time>2023-05-31T08:29:45.000Z</time>
      </trkpt>
      <trkpt lat="46.21025" lon="-1.46758">
        <ele>2.59683</ele>
        <time>2023-05-31T08:29:46.000Z</time>
      </trkpt>
      <trkpt lat="46.21022" lon="-1.46762">
        <ele>2.61369</ele>
        <time>2023-05-31T08:29:47.000Z</time>
      </trkpt>
      <trkpt lat="46.21019" lon="-1.46767">
        <ele>2.65377</ele>
        <time>2023-05-31T08:29:48.000Z</time>
      </trkpt>
      <trkpt lat="46.21016" lon="-1.46772">
        <ele>2.6607</ele>
        <time>2023-05-31T08:29:49.000Z</time>
      </trkpt>
      <trkpt lat="46.21013" lon="-1.46777">
        <ele>2.67123</ele>
        <time>2023-05-31T08:29:50.000Z</time>
      </trkpt>
      <trkpt lat="46.21011" lon="-1.46782">
        <ele>2.67304</ele>
        <time>2023-05-31T08:29:51.000Z</time>
      </trkpt>
      <trkpt lat="46.21008" lon="-1.46788">
        <ele>2.67731</ele>
        <time>2023-05-31T08:29:52.000Z</time>
      </trkpt>
      <trkpt lat="46.21006" lon="-1.46794">
        <ele>2.68302</ele>
        <time>2023-05-31T08:29:53.000Z</time>
      </trkpt>
      <trkpt lat="46.21005" lon="-1.468">
        <ele>2.70078</ele>
        <time>2023-05-31T08:29:54.000Z</time>
      </trkpt>
      <trkpt lat="46.21003" lon="-1.46805">
        <ele>2.69547</ele>
        <time>2023-05-31T08:29:55.000Z</time>
      </trkpt>
      <trkpt lat="46.21002" lon="-1.46811">
        <ele>2.69768</ele>
        <time>2023-05-31T08:29:56.000Z</time>
      </trkpt>
      <trkpt lat="46.21" lon="-1.46816">
        <ele>2.66854</ele>
        <time>2023-05-31T08:29:57.000Z</time>
      </trkpt>
      <trkpt lat="46.20999" lon="-1.46822">
        <ele>2.64416</ele>
        <time>2023-05-31T08:29:58.000Z</time>
      </trkpt>
      <trkpt lat="46.20996" lon="-1.46828">
        <ele>2.64298</ele>
        <time>2023-05-31T08:29:59.000Z</time>
      </trkpt>
      <trkpt lat="46.20993" lon="-1.46833">
        <ele>2.62833</ele>
        <time>2023-05-31T08:30:00.000Z</time>
      </trkpt>
      <trkpt lat="46.20991" lon="-1.46837">
        <ele>2.62712</ele>
        <time>2023-05-31T08:30:01.000Z</time>
      </trkpt>
      <trkpt lat="46.20988" lon="-1.46841">
        <ele>2.62263</ele>
        <time>2023-05-31T08:30:02.000Z</time>
      </trkpt>
      <trkpt lat="46.20985" lon="-1.46845">
        <ele>2.61587</ele>
        <time>2023-05-31T08:30:03.000Z</time>
      </trkpt>
      <trkpt lat="46.20982" lon="-1.46849">
        <ele>2.57773</ele>
        <time>2023-05-31T08:30:04.000Z</time>
      </trkpt>
      <trkpt lat="46.20978" lon="-1.46853">
        <ele>2.52927</ele>
        <time>2023-05-31T08:30:05.000Z</time>
      </trkpt>
      <trkpt lat="46.20975" lon="-1.46856">
        <ele>2.48222</ele>
        <time>2023-05-31T08:30:06.000Z</time>
      </trkpt>
      <trkpt lat="46.20971" lon="-1.4686">
        <ele>2.42942</ele>
        <time>2023-05-31T08:30:07.000Z</time>
      </trkpt>
      <trkpt lat="46.20968" lon="-1.46863">
        <ele>2.37872</ele>
        <time>2023-05-31T08:30:08.000Z</time>
      </trkpt>
      <trkpt lat="46.20964" lon="-1.46867">
        <ele>2.33272</ele>
        <time>2023-05-31T08:30:09.000Z</time>
      </trkpt>
      <trkpt lat="46.2096" lon="-1.4687">
        <ele>2.28834</ele>
        <time>2023-05-31T08:30:10.000Z</time>
      </trkpt>
      <trkpt lat="46.20956" lon="-1.46872">
        <ele>2.25396</ele>
        <time>2023-05-31T08:30:11.000Z</time>
      </trkpt>
      <trkpt lat="46.20952" lon="-1.46876">
        <ele>2.21347</ele>
        <time>2023-05-31T08:30:12.000Z</time>
      </trkpt>
      <trkpt lat="46.20948" lon="-1.46878">
        <ele>2.17494</ele>
        <time>2023-05-31T08:30:13.000Z</time>
      </trkpt>
      <trkpt lat="46.20944" lon="-1.46882">
        <ele>2.1197</ele>
        <time>2023-05-31T08:30:14.000Z</time>
      </trkpt>
      <trkpt lat="46.2094" lon="-1.46884">
        <ele>2.06846</ele>
        <time>2023-05-31T08:30:15.000Z</time>
      </trkpt>
      <trkpt lat="46.20936" lon="-1.46888">
        <ele>1.99342</ele>
        <time>2023-05-31T08:30:16.000Z</time>
      </trkpt>
      <trkpt lat="46.20932" lon="-1.46891">
        <ele>1.95053</ele>
        <time>2023-05-31T08:30:17.000Z</time>
      </trkpt>
      <trkpt lat="46.20928" lon="-1.46894">
        <ele>1.90552</ele>
        <time>2023-05-31T08:30:18.000Z</time>
      </trkpt>
      <trkpt lat="46.20924" lon="-1.46897">
        <ele>1.85112</ele>
        <time>2023-05-31T08:30:19.000Z</time>
      </trkpt>
      <trkpt lat="46.2092" lon="-1.469">
        <ele>1.81588</ele>
        <time>2023-05-31T08:30:20.000Z</time>
      </trkpt>
      <trkpt lat="46.20916" lon="-1.46903">
        <ele>1.7596</ele>
        <time>2023-05-31T08:30:21.000Z</time>
      </trkpt>
      <trkpt lat="46.20913" lon="-1.46906">
        <ele>1.73233</ele>
        <time>2023-05-31T08:30:22.000Z</time>
      </trkpt>
      <trkpt lat="46.20908" lon="-1.4691">
        <ele>1.70501</ele>
        <time>2023-05-31T08:30:23.000Z</time>
      </trkpt>
      <trkpt lat="46.20904" lon="-1.46913">
        <ele>1.69794</ele>
        <time>2023-05-31T08:30:24.000Z</time>
      </trkpt>
      <trkpt lat="46.20899" lon="-1.46917">
        <ele>1.71826</ele>
        <time>2023-05-31T08:30:25.000Z</time>
      </trkpt>
      <trkpt lat="46.20896" lon="-1.46921">
        <ele>1.71711</ele>
        <time>2023-05-31T08:30:26.000Z</time>
      </trkpt>
      <trkpt lat="46.20891" lon="-1.46924">
        <ele>1.73183</ele>
        <time>2023-05-31T08:30:27.000Z</time>
      </trkpt>
      <trkpt lat="46.20887" lon="-1.46928">
        <ele>1.73987</ele>
        <time>2023-05-31T08:30:28.000Z</time>
      </trkpt>
      <trkpt lat="46.20883" lon="-1.46931">
        <ele>1.74722</ele>
        <time>2023-05-31T08:30:29.000Z</time>
      </trkpt>
      <trkpt lat="46.20878" lon="-1.46934">
        <ele>1.75414</ele>
        <time>2023-05-31T08:30:30.000Z</time>
      </trkpt>
      <trkpt lat="46.20874" lon="-1.46938">
        <ele>1.76152</ele>
        <time>2023-05-31T08:30:31.000Z</time>
      </trkpt>
      <trkpt lat="46.2087" lon="-1.4694">
        <ele>1.77281</ele>
        <time>2023-05-31T08:30:32.000Z</time>
      </trkpt>
      <trkpt lat="46.20866" lon="-1.46944">
        <ele>1.78774</ele>
        <time>2023-05-31T08:30:33.000Z</time>
      </trkpt>
      <trkpt lat="46.20861" lon="-1.46947">
        <ele>1.81692</ele>
        <time>2023-05-31T08:30:34.000Z</time>
      </trkpt>
      <trkpt lat="46.20856" lon="-1.46949">
        <ele>1.86401</ele>
        <time>2023-05-31T08:30:35.000Z</time>
      </trkpt>
      <trkpt lat="46.20852" lon="-1.46953">
        <ele>1.94457</ele>
        <time>2023-05-31T08:30:36.000Z</time>
      </trkpt>
      <trkpt lat="46.20848" lon="-1.46956">
        <ele>2.00748</ele>
        <time>2023-05-31T08:30:37.000Z</time>
      </trkpt>
      <trkpt lat="46.20843" lon="-1.4696">
        <ele>2.08333</ele>
        <time>2023-05-31T08:30:38.000Z</time>
      </trkpt>
      <trkpt lat="46.20839" lon="-1.46962">
        <ele>2.17918</ele>
        <time>2023-05-31T08:30:39.000Z</time>
      </trkpt>
      <trkpt lat="46.20835" lon="-1.46965">
        <ele>2.25155</ele>
        <time>2023-05-31T08:30:40.000Z</time>
      </trkpt>
      <trkpt lat="46.20831" lon="-1.46969">
        <ele>2.3425</ele>
        <time>2023-05-31T08:30:41.000Z</time>
      </trkpt>
      <trkpt lat="46.20827" lon="-1.46972">
        <ele>2.38696</ele>
        <time>2023-05-31T08:30:42.000Z</time>
      </trkpt>
      <trkpt lat="46.20823" lon="-1.46975">
        <ele>2.41678</ele>
        <time>2023-05-31T08:30:43.000Z</time>
      </trkpt>
      <trkpt lat="46.20819" lon="-1.46978">
        <ele>2.44543</ele>
        <time>2023-05-31T08:30:44.000Z</time>
      </trkpt>
      <trkpt lat="46.20815" lon="-1.46982">
        <ele>2.47618</ele>
        <time>2023-05-31T08:30:45.000Z</time>
      </trkpt>
      <trkpt lat="46.20811" lon="-1.46985">
        <ele>2.53501</ele>
        <time>2023-05-31T08:30:46.000Z</time>
      </trkpt>
      <trkpt lat="46.20807" lon="-1.46988">
        <ele>2.56708</ele>
        <time>2023-05-31T08:30:47.000Z</time>
      </trkpt>
      <trkpt lat="46.20802" lon="-1.46992">
        <ele>2.5886</ele>
        <time>2023-05-31T08:30:48.000Z</time>
      </trkpt>
      <trkpt lat="46.20798" lon="-1.46995">
        <ele>2.64166</ele>
        <time>2023-05-31T08:30:49.000Z</time>
      </trkpt>
      <trkpt lat="46.20793" lon="-1.46999">
        <ele>2.70506</ele>
        <time>2023-05-31T08:30:50.000Z</time>
      </trkpt>
      <trkpt lat="46.20789" lon="-1.47003">
        <ele>2.77167</ele>
        <time>2023-05-31T08:30:51.000Z</time>
      </trkpt>
      <trkpt lat="46.20785" lon="-1.47005">
        <ele>2.85111</ele>
        <time>2023-05-31T08:30:52.000Z</time>
      </trkpt>
      <trkpt lat="46.20781" lon="-1.47009">
        <ele>2.92523</ele>
        <time>2023-05-31T08:30:53.000Z</time>
      </trkpt>
      <trkpt lat="46.20777" lon="-1.47012">
        <ele>2.99001</ele>
        <time>2023-05-31T08:30:54.000Z</time>
      </trkpt>
      <trkpt lat="46.20773" lon="-1.47016">
        <ele>3.0378</ele>
        <time>2023-05-31T08:30:55.000Z</time>
      </trkpt>
      <trkpt lat="46.2077" lon="-1.47019">
        <ele>3.08893</ele>
        <time>2023-05-31T08:30:56.000Z</time>
      </trkpt>
      <trkpt lat="46.20768" lon="-1.47023">
        <ele>3.12018</ele>
        <time>2023-05-31T08:30:57.000Z</time>
      </trkpt>
      <trkpt lat="46.20765" lon="-1.47026">
        <ele>3.13023</ele>
        <time>2023-05-31T08:30:58.000Z</time>
      </trkpt>
      <trkpt lat="46.20762" lon="-1.47028">
        <ele>3.12307</ele>
        <time>2023-05-31T08:30:59.000Z</time>
      </trkpt>
      <trkpt lat="46.20759" lon="-1.4703">
        <ele>3.12283</ele>
        <time>2023-05-31T08:31:00.000Z</time>
      </trkpt>
      <trkpt lat="46.20755" lon="-1.47031">
        <ele>3.12315</ele>
        <time>2023-05-31T08:31:01.000Z</time>
      </trkpt>
      <trkpt lat="46.20752" lon="-1.47034">
        <ele>3.14165</ele>
        <time>2023-05-31T08:31:02.000Z</time>
      </trkpt>
      <trkpt lat="46.20749" lon="-1.47037">
        <ele>3.15897</ele>
        <time>2023-05-31T08:31:03.000Z</time>
      </trkpt>
      <trkpt lat="46.20746" lon="-1.47039">
        <ele>3.16252</ele>
        <time>2023-05-31T08:31:04.000Z</time>
      </trkpt>
      <trkpt lat="46.20742" lon="-1.47041">
        <ele>3.15431</ele>
        <time>2023-05-31T08:31:05.000Z</time>
      </trkpt>
      <trkpt lat="46.20739" lon="-1.47044">
        <ele>3.14128</ele>
        <time>2023-05-31T08:31:06.000Z</time>
      </trkpt>
      <trkpt lat="46.20735" lon="-1.47046">
        <ele>3.14578</ele>
        <time>2023-05-31T08:31:07.000Z</time>
      </trkpt>
      <trkpt lat="46.20732" lon="-1.47049">
        <ele>3.15329</ele>
        <time>2023-05-31T08:31:08.000Z</time>
      </trkpt>
      <trkpt lat="46.20727" lon="-1.47051">
        <ele>3.15027</ele>
        <time>2023-05-31T08:31:09.000Z</time>
      </trkpt>
      <trkpt lat="46.20723" lon="-1.47052">
        <ele>3.14254</ele>
        <time>2023-05-31T08:31:10.000Z</time>
      </trkpt>
      <trkpt lat="46.20719" lon="-1.47052">
        <ele>3.13837</ele>
        <time>2023-05-31T08:31:11.000Z</time>
      </trkpt>
      <trkpt lat="46.20714" lon="-1.47053">
        <ele>3.11235</ele>
        <time>2023-05-31T08:31:12.000Z</time>
      </trkpt>
      <trkpt lat="46.20709" lon="-1.47053">
        <ele>3.07951</ele>
        <time>2023-05-31T08:31:13.000Z</time>
      </trkpt>
      <trkpt lat="46.20705" lon="-1.47054">
        <ele>3.0423</ele>
        <time>2023-05-31T08:31:14.000Z</time>
      </trkpt>
      <trkpt lat="46.207" lon="-1.47054">
        <ele>3.03967</ele>
        <time>2023-05-31T08:31:15.000Z</time>
      </trkpt>
      <trkpt lat="46.20695" lon="-1.47054">
        <ele>3.01463</ele>
        <time>2023-05-31T08:31:16.000Z</time>
      </trkpt>
      <trkpt lat="46.20691" lon="-1.47055">
        <ele>3.03697</ele>
        <time>2023-05-31T08:31:17.000Z</time>
      </trkpt>
      <trkpt lat="46.20686" lon="-1.47057">
        <ele>3.0795</ele>
        <time>2023-05-31T08:31:18.000Z</time>
      </trkpt>
      <trkpt lat="46.20681" lon="-1.47059">
        <ele>3.10592</ele>
        <time>2023-05-31T08:31:19.000Z</time>
      </trkpt>
      <trkpt lat="46.20676" lon="-1.47061">
        <ele>3.12294</ele>
        <time>2023-05-31T08:31:20.000Z</time>
      </trkpt>
      <trkpt lat="46.20671" lon="-1.47062">
        <ele>3.13209</ele>
        <time>2023-05-31T08:31:21.000Z</time>
      </trkpt>
      <trkpt lat="46.20666" lon="-1.47064">
        <ele>3.14798</ele>
        <time>2023-05-31T08:31:22.000Z</time>
      </trkpt>
      <trkpt lat="46.20661" lon="-1.47066">
        <ele>3.17495</ele>
        <time>2023-05-31T08:31:23.000Z</time>
      </trkpt>
      <trkpt lat="46.20656" lon="-1.47068">
        <ele>3.20513</ele>
        <time>2023-05-31T08:31:24.000Z</time>
      </trkpt>
      <trkpt lat="46.20651" lon="-1.47071">
        <ele>3.2275</ele>
        <time>2023-05-31T08:31:25.000Z</time>
      </trkpt>
      <trkpt lat="46.20646" lon="-1.47073">
        <ele>3.25225</ele>
        <time>2023-05-31T08:31:26.000Z</time>
      </trkpt>
      <trkpt lat="46.20641" lon="-1.47076">
        <ele>3.27664</ele>
        <time>2023-05-31T08:31:27.000Z</time>
      </trkpt>
      <trkpt lat="46.20637" lon="-1.47079">
        <ele>3.31285</ele>
        <time>2023-05-31T08:31:28.000Z</time>
      </trkpt>
      <trkpt lat="46.20633" lon="-1.47082">
        <ele>3.32905</ele>
        <time>2023-05-31T08:31:29.000Z</time>
      </trkpt>
      <trkpt lat="46.2063" lon="-1.47085">
        <ele>3.35023</ele>
        <time>2023-05-31T08:31:30.000Z</time>
      </trkpt>
      <trkpt lat="46.20625" lon="-1.47088">
        <ele>3.35181</ele>
        <time>2023-05-31T08:31:31.000Z</time>
      </trkpt>
      <trkpt lat="46.20622" lon="-1.47092">
        <ele>3.37173</ele>
        <time>2023-05-31T08:31:32.000Z</time>
      </trkpt>
      <trkpt lat="46.20618" lon="-1.47094">
        <ele>3.44703</ele>
        <time>2023-05-31T08:31:33.000Z</time>
      </trkpt>
      <trkpt lat="46.20615" lon="-1.47097">
        <ele>3.54931</ele>
        <time>2023-05-31T08:31:34.000Z</time>
      </trkpt>
      <trkpt lat="46.20611" lon="-1.471">
        <ele>3.63787</ele>
        <time>2023-05-31T08:31:35.000Z</time>
      </trkpt>
      <trkpt lat="46.20608" lon="-1.47103">
        <ele>3.73973</ele>
        <time>2023-05-31T08:31:36.000Z</time>
      </trkpt>
      <trkpt lat="46.20603" lon="-1.47105">
        <ele>3.77744</ele>
        <time>2023-05-31T08:31:37.000Z</time>
      </trkpt>
      <trkpt lat="46.20599" lon="-1.47108">
        <ele>3.7886</ele>
        <time>2023-05-31T08:31:38.000Z</time>
      </trkpt>
      <trkpt lat="46.20595" lon="-1.47111">
        <ele>3.83043</ele>
        <time>2023-05-31T08:31:39.000Z</time>
      </trkpt>
      <trkpt lat="46.20591" lon="-1.47112">
        <ele>3.9152</ele>
        <time>2023-05-31T08:31:40.000Z</time>
      </trkpt>
      <trkpt lat="46.20588" lon="-1.47115">
        <ele>4.02728</ele>
        <time>2023-05-31T08:31:41.000Z</time>
      </trkpt>
      <trkpt lat="46.20585" lon="-1.47116">
        <ele>4.14816</ele>
        <time>2023-05-31T08:31:42.000Z</time>
      </trkpt>
      <trkpt lat="46.20581" lon="-1.47117">
        <ele>4.27303</ele>
        <time>2023-05-31T08:31:43.000Z</time>
      </trkpt>
      <trkpt lat="46.20578" lon="-1.47119">
        <ele>4.41184</ele>
        <time>2023-05-31T08:31:44.000Z</time>
      </trkpt>
      <trkpt lat="46.20575" lon="-1.4712">
        <ele>4.5635</ele>
        <time>2023-05-31T08:31:45.000Z</time>
      </trkpt>
      <trkpt lat="46.20572" lon="-1.47122">
        <ele>4.70133</ele>
        <time>2023-05-31T08:31:46.000Z</time>
      </trkpt>
      <trkpt lat="46.20569" lon="-1.47125">
        <ele>4.81591</ele>
        <time>2023-05-31T08:31:47.000Z</time>
      </trkpt>
      <trkpt lat="46.20567" lon="-1.47129">
        <ele>4.92779</ele>
        <time>2023-05-31T08:31:48.000Z</time>
      </trkpt>
      <trkpt lat="46.20566" lon="-1.47134">
        <ele>5.0526</ele>
        <time>2023-05-31T08:31:49.000Z</time>
      </trkpt>
      <trkpt lat="46.20567" lon="-1.47139">
        <ele>5.16131</ele>
        <time>2023-05-31T08:31:50.000Z</time>
      </trkpt>
      <trkpt lat="46.20568" lon="-1.47144">
        <ele>5.2618</ele>
        <time>2023-05-31T08:31:51.000Z</time>
      </trkpt>
      <trkpt lat="46.2057" lon="-1.47149">
        <ele>5.33426</ele>
        <time>2023-05-31T08:31:52.000Z</time>
      </trkpt>
      <trkpt lat="46.20572" lon="-1.47154">
        <ele>5.32713</ele>
        <time>2023-05-31T08:31:53.000Z</time>
      </trkpt>
      <trkpt lat="46.20573" lon="-1.47158">
        <ele>5.3074</ele>
        <time>2023-05-31T08:31:54.000Z</time>
      </trkpt>
      <trkpt lat="46.20574" lon="-1.47162">
        <ele>5.36113</ele>
        <time>2023-05-31T08:31:55.000Z</time>
      </trkpt>
      <trkpt lat="46.20575" lon="-1.47168">
        <ele>5.3466</ele>
        <time>2023-05-31T08:31:56.000Z</time>
      </trkpt>
      <trkpt lat="46.20576" lon="-1.47174">
        <ele>5.43536</ele>
        <time>2023-05-31T08:31:57.000Z</time>
      </trkpt>
      <trkpt lat="46.20576" lon="-1.47179">
        <ele>5.57561</ele>
        <time>2023-05-31T08:31:58.000Z</time>
      </trkpt>
      <trkpt lat="46.20577" lon="-1.47185">
        <ele>5.69519</ele>
        <time>2023-05-31T08:31:59.000Z</time>
      </trkpt>
      <trkpt lat="46.20577" lon="-1.4719">
        <ele>5.76782</ele>
        <time>2023-05-31T08:32:00.000Z</time>
      </trkpt>
      <trkpt lat="46.20577" lon="-1.47195">
        <ele>5.81419</ele>
        <time>2023-05-31T08:32:01.000Z</time>
      </trkpt>
      <trkpt lat="46.20578" lon="-1.47201">
        <ele>5.82153</ele>
        <time>2023-05-31T08:32:02.000Z</time>
      </trkpt>
      <trkpt lat="46.20579" lon="-1.47207">
        <ele>5.82446</ele>
        <time>2023-05-31T08:32:03.000Z</time>
      </trkpt>
      <trkpt lat="46.2058" lon="-1.47213">
        <ele>5.80554</ele>
        <time>2023-05-31T08:32:04.000Z</time>
      </trkpt>
      <trkpt lat="46.20581" lon="-1.47219">
        <ele>5.77523</ele>
        <time>2023-05-31T08:32:05.000Z</time>
      </trkpt>
      <trkpt lat="46.20582" lon="-1.47224">
        <ele>5.74774</ele>
        <time>2023-05-31T08:32:06.000Z</time>
      </trkpt>
      <trkpt lat="46.20583" lon="-1.47229">
        <ele>5.73082</ele>
        <time>2023-05-31T08:32:07.000Z</time>
      </trkpt>
      <trkpt lat="46.20584" lon="-1.47233">
        <ele>5.69419</ele>
        <time>2023-05-31T08:32:08.000Z</time>
      </trkpt>
      <trkpt lat="46.20585" lon="-1.47238">
        <ele>5.6627</ele>
        <time>2023-05-31T08:32:09.000Z</time>
      </trkpt>
      <trkpt lat="46.20587" lon="-1.47243">
        <ele>5.58481</ele>
        <time>2023-05-31T08:32:10.000Z</time>
      </trkpt>
      <trkpt lat="46.2059" lon="-1.47246">
        <ele>5.51534</ele>
        <time>2023-05-31T08:32:11.000Z</time>
      </trkpt>
      <trkpt lat="46.20593" lon="-1.47249">
        <ele>5.45115</ele>
        <time>2023-05-31T08:32:12.000Z</time>
      </trkpt>
      <trkpt lat="46.20597" lon="-1.47251">
        <ele>5.44795</ele>
        <time>2023-05-31T08:32:13.000Z</time>
      </trkpt>
      <trkpt lat="46.20601" lon="-1.47251">
        <ele>5.43403</ele>
        <time>2023-05-31T08:32:14.000Z</time>
      </trkpt>
      <trkpt lat="46.20606" lon="-1.47251">
        <ele>5.36452</ele>
        <time>2023-05-31T08:32:15.000Z</time>
      </trkpt>
      <trkpt lat="46.2061" lon="-1.47252">
        <ele>5.32162</ele>
        <time>2023-05-31T08:32:16.000Z</time>
      </trkpt>
      <trkpt lat="46.20614" lon="-1.47253">
        <ele>5.22767</ele>
        <time>2023-05-31T08:32:17.000Z</time>
      </trkpt>
      <trkpt lat="46.2062" lon="-1.47255">
        <ele>5.06826</ele>
        <time>2023-05-31T08:32:18.000Z</time>
      </trkpt>
      <trkpt lat="46.20624" lon="-1.47258">
        <ele>4.90174</ele>
        <time>2023-05-31T08:32:19.000Z</time>
      </trkpt>
      <trkpt lat="46.20627" lon="-1.47262">
        <ele>4.75581</ele>
        <time>2023-05-31T08:32:20.000Z</time>
      </trkpt>
      <trkpt lat="46.2063" lon="-1.47264">
        <ele>4.58099</ele>
        <time>2023-05-31T08:32:21.000Z</time>
      </trkpt>
      <trkpt lat="46.20633" lon="-1.4727">
        <ele>4.41979</ele>
        <time>2023-05-31T08:32:22.000Z</time>
      </trkpt>
      <trkpt lat="46.20636" lon="-1.47275">
        <ele>4.2362</ele>
        <time>2023-05-31T08:32:23.000Z</time>
      </trkpt>
      <trkpt lat="46.20639" lon="-1.47279">
        <ele>4.05472</ele>
        <time>2023-05-31T08:32:24.000Z</time>
      </trkpt>
      <trkpt lat="46.20642" lon="-1.47284">
        <ele>3.93302</ele>
        <time>2023-05-31T08:32:25.000Z</time>
      </trkpt>
      <trkpt lat="46.20645" lon="-1.47289">
        <ele>3.80885</ele>
        <time>2023-05-31T08:32:26.000Z</time>
      </trkpt>
      <trkpt lat="46.20648" lon="-1.47293">
        <ele>3.66893</ele>
        <time>2023-05-31T08:32:27.000Z</time>
      </trkpt>
      <trkpt lat="46.20651" lon="-1.47297">
        <ele>3.55216</ele>
        <time>2023-05-31T08:32:28.000Z</time>
      </trkpt>
      <trkpt lat="46.20654" lon="-1.47301">
        <ele>3.43338</ele>
        <time>2023-05-31T08:32:29.000Z</time>
      </trkpt>
      <trkpt lat="46.20658" lon="-1.47306">
        <ele>3.34975</ele>
        <time>2023-05-31T08:32:30.000Z</time>
      </trkpt>
      <trkpt lat="46.20662" lon="-1.47308">
        <ele>3.31323</ele>
        <time>2023-05-31T08:32:31.000Z</time>
      </trkpt>
      <trkpt lat="46.20665" lon="-1.47311">
        <ele>3.32808</ele>
        <time>2023-05-31T08:32:32.000Z</time>
      </trkpt>
      <trkpt lat="46.20668" lon="-1.47315">
        <ele>3.33738</ele>
        <time>2023-05-31T08:32:33.000Z</time>
      </trkpt>
      <trkpt lat="46.20671" lon="-1.4732">
        <ele>3.34809</ele>
        <time>2023-05-31T08:32:34.000Z</time>
      </trkpt>
      <trkpt lat="46.20674" lon="-1.47324">
        <ele>3.33735</ele>
        <time>2023-05-31T08:32:35.000Z</time>
      </trkpt>
      <trkpt lat="46.20677" lon="-1.47327">
        <ele>3.3637</ele>
        <time>2023-05-31T08:32:36.000Z</time>
      </trkpt>
      <trkpt lat="46.20681" lon="-1.47332">
        <ele>3.38934</ele>
        <time>2023-05-31T08:32:37.000Z</time>
      </trkpt>
      <trkpt lat="46.20685" lon="-1.47335">
        <ele>3.43086</ele>
        <time>2023-05-31T08:32:38.000Z</time>
      </trkpt>
      <trkpt lat="46.20689" lon="-1.47339">
        <ele>3.47838</ele>
        <time>2023-05-31T08:32:39.000Z</time>
      </trkpt>
      <trkpt lat="46.20693" lon="-1.47343">
        <ele>3.53444</ele>
        <time>2023-05-31T08:32:40.000Z</time>
      </trkpt>
      <trkpt lat="46.20697" lon="-1.47346">
        <ele>3.60826</ele>
        <time>2023-05-31T08:32:41.000Z</time>
      </trkpt>
      <trkpt lat="46.207" lon="-1.47351">
        <ele>3.67764</ele>
        <time>2023-05-31T08:32:42.000Z</time>
      </trkpt>
      <trkpt lat="46.20702" lon="-1.47355">
        <ele>3.79127</ele>
        <time>2023-05-31T08:32:43.000Z</time>
      </trkpt>
      <trkpt lat="46.20705" lon="-1.47359">
        <ele>3.91393</ele>
        <time>2023-05-31T08:32:44.000Z</time>
      </trkpt>
      <trkpt lat="46.20708" lon="-1.47364">
        <ele>3.9763</ele>
        <time>2023-05-31T08:32:45.000Z</time>
      </trkpt>
      <trkpt lat="46.20711" lon="-1.47368">
        <ele>4.03742</ele>
        <time>2023-05-31T08:32:46.000Z</time>
      </trkpt>
      <trkpt lat="46.20714" lon="-1.47371">
        <ele>4.12008</ele>
        <time>2023-05-31T08:32:47.000Z</time>
      </trkpt>
      <trkpt lat="46.20716" lon="-1.47375">
        <ele>4.2134</ele>
        <time>2023-05-31T08:32:48.000Z</time>
      </trkpt>
      <trkpt lat="46.20718" lon="-1.47379">
        <ele>4.29982</ele>
        <time>2023-05-31T08:32:49.000Z</time>
      </trkpt>
      <trkpt lat="46.20721" lon="-1.47383">
        <ele>4.40364</ele>
        <time>2023-05-31T08:32:50.000Z</time>
      </trkpt>
      <trkpt lat="46.20723" lon="-1.47387">
        <ele>4.47775</ele>
        <time>2023-05-31T08:32:51.000Z</time>
      </trkpt>
      <trkpt lat="46.20723" lon="-1.47392">
        <ele>4.50469</ele>
        <time>2023-05-31T08:32:52.000Z</time>
      </trkpt>
      <trkpt lat="46.20721" lon="-1.47397">
        <ele>4.4985</ele>
        <time>2023-05-31T08:32:53.000Z</time>
      </trkpt>
      <trkpt lat="46.20718" lon="-1.47401">
        <ele>4.47737</ele>
        <time>2023-05-31T08:32:54.000Z</time>
      </trkpt>
      <trkpt lat="46.20713" lon="-1.47401">
        <ele>4.44058</ele>
        <time>2023-05-31T08:32:55.000Z</time>
      </trkpt>
      <trkpt lat="46.20709" lon="-1.47403">
        <ele>4.37654</ele>
        <time>2023-05-31T08:32:56.000Z</time>
      </trkpt>
      <trkpt lat="46.20704" lon="-1.47404">
        <ele>4.30826</ele>
        <time>2023-05-31T08:32:57.000Z</time>
      </trkpt>
      <trkpt lat="46.207" lon="-1.47405">
        <ele>4.26188</ele>
        <time>2023-05-31T08:32:58.000Z</time>
      </trkpt>
      <trkpt lat="46.20695" lon="-1.47405">
        <ele>4.23768</ele>
        <time>2023-05-31T08:32:59.000Z</time>
      </trkpt>
      <trkpt lat="46.20692" lon="-1.47406">
        <ele>4.21399</ele>
        <time>2023-05-31T08:33:00.000Z</time>
      </trkpt>
      <trkpt lat="46.20688" lon="-1.47406">
        <ele>4.20402</ele>
        <time>2023-05-31T08:33:01.000Z</time>
      </trkpt>
      <trkpt lat="46.20684" lon="-1.47407">
        <ele>4.22193</ele>
        <time>2023-05-31T08:33:02.000Z</time>
      </trkpt>
      <trkpt lat="46.20679" lon="-1.47407">
        <ele>4.22642</ele>
        <time>2023-05-31T08:33:03.000Z</time>
      </trkpt>
      <trkpt lat="46.20675" lon="-1.47407">
        <ele>4.21474</ele>
        <time>2023-05-31T08:33:04.000Z</time>
      </trkpt>
      <trkpt lat="46.2067" lon="-1.47408">
        <ele>4.21916</ele>
        <time>2023-05-31T08:33:05.000Z</time>
      </trkpt>
      <trkpt lat="46.20666" lon="-1.47409">
        <ele>4.22773</ele>
        <time>2023-05-31T08:33:06.000Z</time>
      </trkpt>
      <trkpt lat="46.20661" lon="-1.47409">
        <ele>4.23845</ele>
        <time>2023-05-31T08:33:07.000Z</time>
      </trkpt>
      <trkpt lat="46.20656" lon="-1.47409">
        <ele>4.23022</ele>
        <time>2023-05-31T08:33:08.000Z</time>
      </trkpt>
      <trkpt lat="46.20652" lon="-1.47409">
        <ele>4.24928</ele>
        <time>2023-05-31T08:33:09.000Z</time>
      </trkpt>
      <trkpt lat="46.20648" lon="-1.47412">
        <ele>4.2343</ele>
        <time>2023-05-31T08:33:10.000Z</time>
      </trkpt>
      <trkpt lat="46.20643" lon="-1.47413">
        <ele>4.21554</ele>
        <time>2023-05-31T08:33:11.000Z</time>
      </trkpt>
      <trkpt lat="46.20639" lon="-1.47414">
        <ele>4.17005</ele>
        <time>2023-05-31T08:33:12.000Z</time>
      </trkpt>
      <trkpt lat="46.20634" lon="-1.47416">
        <ele>4.12543</ele>
        <time>2023-05-31T08:33:13.000Z</time>
      </trkpt>
      <trkpt lat="46.20628" lon="-1.47418">
        <ele>4.06863</ele>
        <time>2023-05-31T08:33:14.000Z</time>
      </trkpt>
      <trkpt lat="46.20624" lon="-1.47419">
        <ele>4.02395</ele>
        <time>2023-05-31T08:33:15.000Z</time>
      </trkpt>
      <trkpt lat="46.2062" lon="-1.4742">
        <ele>3.99056</ele>
        <time>2023-05-31T08:33:16.000Z</time>
      </trkpt>
      <trkpt lat="46.20615" lon="-1.47421">
        <ele>3.9393</ele>
        <time>2023-05-31T08:33:17.000Z</time>
      </trkpt>
      <trkpt lat="46.20611" lon="-1.47423">
        <ele>3.86361</ele>
        <time>2023-05-31T08:33:18.000Z</time>
      </trkpt>
      <trkpt lat="46.20607" lon="-1.47425">
        <ele>3.80137</ele>
        <time>2023-05-31T08:33:19.000Z</time>
      </trkpt>
      <trkpt lat="46.20603" lon="-1.47428">
        <ele>3.7702</ele>
        <time>2023-05-31T08:33:20.000Z</time>
      </trkpt>
      <trkpt lat="46.20599" lon="-1.47431">
        <ele>3.74773</ele>
        <time>2023-05-31T08:33:21.000Z</time>
      </trkpt>
      <trkpt lat="46.20596" lon="-1.47434">
        <ele>3.72122</ele>
        <time>2023-05-31T08:33:22.000Z</time>
      </trkpt>
      <trkpt lat="46.20593" lon="-1.47437">
        <ele>3.69014</ele>
        <time>2023-05-31T08:33:23.000Z</time>
      </trkpt>
      <trkpt lat="46.20589" lon="-1.47439">
        <ele>3.65674</ele>
        <time>2023-05-31T08:33:24.000Z</time>
      </trkpt>
      <trkpt lat="46.20584" lon="-1.47442">
        <ele>3.63593</ele>
        <time>2023-05-31T08:33:25.000Z</time>
      </trkpt>
      <trkpt lat="46.20581" lon="-1.47444">
        <ele>3.55177</ele>
        <time>2023-05-31T08:33:26.000Z</time>
      </trkpt>
      <trkpt lat="46.20576" lon="-1.47445">
        <ele>3.4761</ele>
        <time>2023-05-31T08:33:27.000Z</time>
      </trkpt>
      <trkpt lat="46.20571" lon="-1.47447">
        <ele>3.40336</ele>
        <time>2023-05-31T08:33:28.000Z</time>
      </trkpt>
      <trkpt lat="46.20566" lon="-1.47451">
        <ele>3.33541</ele>
        <time>2023-05-31T08:33:29.000Z</time>
      </trkpt>
      <trkpt lat="46.20562" lon="-1.47455">
        <ele>3.30109</ele>
        <time>2023-05-31T08:33:30.000Z</time>
      </trkpt>
      <trkpt lat="46.20559" lon="-1.47458">
        <ele>3.27092</ele>
        <time>2023-05-31T08:33:31.000Z</time>
      </trkpt>
      <trkpt lat="46.20555" lon="-1.47462">
        <ele>3.28605</ele>
        <time>2023-05-31T08:33:32.000Z</time>
      </trkpt>
      <trkpt lat="46.20551" lon="-1.47465">
        <ele>3.27095</ele>
        <time>2023-05-31T08:33:33.000Z</time>
      </trkpt>
      <trkpt lat="46.20547" lon="-1.47469">
        <ele>3.29356</ele>
        <time>2023-05-31T08:33:34.000Z</time>
      </trkpt>
      <trkpt lat="46.20543" lon="-1.47474">
        <ele>3.31212</ele>
        <time>2023-05-31T08:33:35.000Z</time>
      </trkpt>
      <trkpt lat="46.2054" lon="-1.47478">
        <ele>3.33249</ele>
        <time>2023-05-31T08:33:36.000Z</time>
      </trkpt>
      <trkpt lat="46.20537" lon="-1.47485">
        <ele>3.36712</ele>
        <time>2023-05-31T08:33:37.000Z</time>
      </trkpt>
      <trkpt lat="46.20534" lon="-1.47491">
        <ele>3.43166</ele>
        <time>2023-05-31T08:33:38.000Z</time>
      </trkpt>
      <trkpt lat="46.20532" lon="-1.47497">
        <ele>3.48073</ele>
        <time>2023-05-31T08:33:39.000Z</time>
      </trkpt>
      <trkpt lat="46.20529" lon="-1.47503">
        <ele>3.51649</ele>
        <time>2023-05-31T08:33:40.000Z</time>
      </trkpt>
      <trkpt lat="46.20527" lon="-1.47509">
        <ele>3.55931</ele>
        <time>2023-05-31T08:33:41.000Z</time>
      </trkpt>
      <trkpt lat="46.20524" lon="-1.47514">
        <ele>3.6141</ele>
        <time>2023-05-31T08:33:42.000Z</time>
      </trkpt>
      <trkpt lat="46.20521" lon="-1.47519">
        <ele>3.67467</ele>
        <time>2023-05-31T08:33:43.000Z</time>
      </trkpt>
      <trkpt lat="46.20518" lon="-1.47524">
        <ele>3.73454</ele>
        <time>2023-05-31T08:33:44.000Z</time>
      </trkpt>
      <trkpt lat="46.20516" lon="-1.4753">
        <ele>3.77716</ele>
        <time>2023-05-31T08:33:45.000Z</time>
      </trkpt>
      <trkpt lat="46.20513" lon="-1.47535">
        <ele>3.84644</ele>
        <time>2023-05-31T08:33:46.000Z</time>
      </trkpt>
      <trkpt lat="46.2051" lon="-1.4754">
        <ele>3.90825</ele>
        <time>2023-05-31T08:33:47.000Z</time>
      </trkpt>
      <trkpt lat="46.20507" lon="-1.47545">
        <ele>3.97965</ele>
        <time>2023-05-31T08:33:48.000Z</time>
      </trkpt>
      <trkpt lat="46.20504" lon="-1.47551">
        <ele>4.03662</ele>
        <time>2023-05-31T08:33:49.000Z</time>
      </trkpt>
      <trkpt lat="46.20502" lon="-1.47556">
        <ele>4.10696</ele>
        <time>2023-05-31T08:33:50.000Z</time>
      </trkpt>
      <trkpt lat="46.20499" lon="-1.47561">
        <ele>4.19494</ele>
        <time>2023-05-31T08:33:51.000Z</time>
      </trkpt>
      <trkpt lat="46.20497" lon="-1.47566">
        <ele>4.26512</ele>
        <time>2023-05-31T08:33:52.000Z</time>
      </trkpt>
      <trkpt lat="46.20495" lon="-1.47572">
        <ele>4.37721</ele>
        <time>2023-05-31T08:33:53.000Z</time>
      </trkpt>
      <trkpt lat="46.20492" lon="-1.47577">
        <ele>4.46939</ele>
        <time>2023-05-31T08:33:54.000Z</time>
      </trkpt>
      <trkpt lat="46.20489" lon="-1.47581">
        <ele>4.55127</ele>
        <time>2023-05-31T08:33:55.000Z</time>
      </trkpt>
      <trkpt lat="46.20486" lon="-1.47586">
        <ele>4.62565</ele>
        <time>2023-05-31T08:33:56.000Z</time>
      </trkpt>
      <trkpt lat="46.20483" lon="-1.4759">
        <ele>4.71325</ele>
        <time>2023-05-31T08:33:57.000Z</time>
      </trkpt>
      <trkpt lat="46.2048" lon="-1.47596">
        <ele>4.78747</ele>
        <time>2023-05-31T08:33:58.000Z</time>
      </trkpt>
      <trkpt lat="46.20478" lon="-1.47601">
        <ele>4.82322</ele>
        <time>2023-05-31T08:33:59.000Z</time>
      </trkpt>
      <trkpt lat="46.20474" lon="-1.47605">
        <ele>4.85124</ele>
        <time>2023-05-31T08:34:00.000Z</time>
      </trkpt>
      <trkpt lat="46.20471" lon="-1.4761">
        <ele>4.85179</ele>
        <time>2023-05-31T08:34:01.000Z</time>
      </trkpt>
      <trkpt lat="46.20468" lon="-1.47614">
        <ele>4.82681</ele>
        <time>2023-05-31T08:34:02.000Z</time>
      </trkpt>
      <trkpt lat="46.20464" lon="-1.47618">
        <ele>4.80229</ele>
        <time>2023-05-31T08:34:03.000Z</time>
      </trkpt>
      <trkpt lat="46.20461" lon="-1.47621">
        <ele>4.78697</ele>
        <time>2023-05-31T08:34:04.000Z</time>
      </trkpt>
      <trkpt lat="46.20457" lon="-1.47624">
        <ele>4.75917</ele>
        <time>2023-05-31T08:34:05.000Z</time>
      </trkpt>
      <trkpt lat="46.20454" lon="-1.47628">
        <ele>4.77475</ele>
        <time>2023-05-31T08:34:06.000Z</time>
      </trkpt>
      <trkpt lat="46.20451" lon="-1.47632">
        <ele>4.79225</ele>
        <time>2023-05-31T08:34:07.000Z</time>
      </trkpt>
      <trkpt lat="46.20449" lon="-1.47636">
        <ele>4.82016</ele>
        <time>2023-05-31T08:34:08.000Z</time>
      </trkpt>
      <trkpt lat="46.20446" lon="-1.47642">
        <ele>4.84169</ele>
        <time>2023-05-31T08:34:09.000Z</time>
      </trkpt>
      <trkpt lat="46.20445" lon="-1.47649">
        <ele>4.85325</ele>
        <time>2023-05-31T08:34:10.000Z</time>
      </trkpt>
      <trkpt lat="46.20444" lon="-1.47655">
        <ele>4.81713</ele>
        <time>2023-05-31T08:34:11.000Z</time>
      </trkpt>
      <trkpt lat="46.20442" lon="-1.47661">
        <ele>4.7758</ele>
        <time>2023-05-31T08:34:12.000Z</time>
      </trkpt>
      <trkpt lat="46.20441" lon="-1.47667">
        <ele>4.72555</ele>
        <time>2023-05-31T08:34:13.000Z</time>
      </trkpt>
      <trkpt lat="46.20439" lon="-1.47673">
        <ele>4.68764</ele>
        <time>2023-05-31T08:34:14.000Z</time>
      </trkpt>
      <trkpt lat="46.20437" lon="-1.47678">
        <ele>4.66339</ele>
        <time>2023-05-31T08:34:15.000Z</time>
      </trkpt>
      <trkpt lat="46.20436" lon="-1.47684">
        <ele>4.65752</ele>
        <time>2023-05-31T08:34:16.000Z</time>
      </trkpt>
      <trkpt lat="46.20435" lon="-1.4769">
        <ele>4.62685</ele>
        <time>2023-05-31T08:34:17.000Z</time>
      </trkpt>
      <trkpt lat="46.20433" lon="-1.47695">
        <ele>4.58998</ele>
        <time>2023-05-31T08:34:18.000Z</time>
      </trkpt>
      <trkpt lat="46.20432" lon="-1.477">
        <ele>4.56509</ele>
        <time>2023-05-31T08:34:19.000Z</time>
      </trkpt>
      <trkpt lat="46.20431" lon="-1.47705">
        <ele>4.5144</ele>
        <time>2023-05-31T08:34:20.000Z</time>
      </trkpt>
      <trkpt lat="46.20429" lon="-1.47711">
        <ele>4.48778</ele>
        <time>2023-05-31T08:34:21.000Z</time>
      </trkpt>
      <trkpt lat="46.20428" lon="-1.47716">
        <ele>4.46712</ele>
        <time>2023-05-31T08:34:22.000Z</time>
      </trkpt>
      <trkpt lat="46.20426" lon="-1.47722">
        <ele>4.41637</ele>
        <time>2023-05-31T08:34:23.000Z</time>
      </trkpt>
      <trkpt lat="46.20425" lon="-1.47728">
        <ele>4.35376</ele>
        <time>2023-05-31T08:34:24.000Z</time>
      </trkpt>
      <trkpt lat="46.20424" lon="-1.47733">
        <ele>4.29784</ele>
        <time>2023-05-31T08:34:25.000Z</time>
      </trkpt>
      <trkpt lat="46.20423" lon="-1.47739">
        <ele>4.24466</ele>
        <time>2023-05-31T08:34:26.000Z</time>
      </trkpt>
      <trkpt lat="46.20421" lon="-1.47745">
        <ele>4.18599</ele>
        <time>2023-05-31T08:34:27.000Z</time>
      </trkpt>
      <trkpt lat="46.2042" lon="-1.4775">
        <ele>4.09576</ele>
        <time>2023-05-31T08:34:28.000Z</time>
      </trkpt>
      <trkpt lat="46.20418" lon="-1.47756">
        <ele>4.01412</ele>
        <time>2023-05-31T08:34:29.000Z</time>
      </trkpt>
      <trkpt lat="46.20417" lon="-1.47762">
        <ele>3.92881</ele>
        <time>2023-05-31T08:34:30.000Z</time>
      </trkpt>
      <trkpt lat="46.20415" lon="-1.47768">
        <ele>3.86775</ele>
        <time>2023-05-31T08:34:31.000Z</time>
      </trkpt>
      <trkpt lat="46.20414" lon="-1.47775">
        <ele>3.84313</ele>
        <time>2023-05-31T08:34:32.000Z</time>
      </trkpt>
      <trkpt lat="46.20412" lon="-1.47781">
        <ele>3.81391</ele>
        <time>2023-05-31T08:34:33.000Z</time>
      </trkpt>
      <trkpt lat="46.20411" lon="-1.47788">
        <ele>3.79602</ele>
        <time>2023-05-31T08:34:34.000Z</time>
      </trkpt>
      <trkpt lat="46.20409" lon="-1.47795">
        <ele>3.82874</ele>
        <time>2023-05-31T08:34:35.000Z</time>
      </trkpt>
      <trkpt lat="46.20407" lon="-1.47801">
        <ele>3.85238</ele>
        <time>2023-05-31T08:34:36.000Z</time>
      </trkpt>
      <trkpt lat="46.20405" lon="-1.47809">
        <ele>3.90036</ele>
        <time>2023-05-31T08:34:37.000Z</time>
      </trkpt>
      <trkpt lat="46.20403" lon="-1.47815">
        <ele>3.95552</ele>
        <time>2023-05-31T08:34:38.000Z</time>
      </trkpt>
      <trkpt lat="46.20401" lon="-1.47821">
        <ele>4.01435</ele>
        <time>2023-05-31T08:34:39.000Z</time>
      </trkpt>
      <trkpt lat="46.20399" lon="-1.47827">
        <ele>4.07962</ele>
        <time>2023-05-31T08:34:40.000Z</time>
      </trkpt>
      <trkpt lat="46.20397" lon="-1.47833">
        <ele>4.12653</ele>
        <time>2023-05-31T08:34:41.000Z</time>
      </trkpt>
      <trkpt lat="46.20394" lon="-1.47839">
        <ele>4.17097</ele>
        <time>2023-05-31T08:34:42.000Z</time>
      </trkpt>
      <trkpt lat="46.20391" lon="-1.47845">
        <ele>4.23385</ele>
        <time>2023-05-31T08:34:43.000Z</time>
      </trkpt>
      <trkpt lat="46.20389" lon="-1.47851">
        <ele>4.32567</ele>
        <time>2023-05-31T08:34:44.000Z</time>
      </trkpt>
      <trkpt lat="46.20387" lon="-1.47858">
        <ele>4.44413</ele>
        <time>2023-05-31T08:34:45.000Z</time>
      </trkpt>
      <trkpt lat="46.20385" lon="-1.47864">
        <ele>4.54102</ele>
        <time>2023-05-31T08:34:46.000Z</time>
      </trkpt>
      <trkpt lat="46.20383" lon="-1.4787">
        <ele>4.64703</ele>
        <time>2023-05-31T08:34:47.000Z</time>
      </trkpt>
      <trkpt lat="46.2038" lon="-1.47876">
        <ele>4.73672</ele>
        <time>2023-05-31T08:34:48.000Z</time>
      </trkpt>
      <trkpt lat="46.20378" lon="-1.47882">
        <ele>4.81272</ele>
        <time>2023-05-31T08:34:49.000Z</time>
      </trkpt>
      <trkpt lat="46.20375" lon="-1.47888">
        <ele>4.88281</ele>
        <time>2023-05-31T08:34:50.000Z</time>
      </trkpt>
      <trkpt lat="46.20373" lon="-1.47894">
        <ele>4.96786</ele>
        <time>2023-05-31T08:34:51.000Z</time>
      </trkpt>
      <trkpt lat="46.20371" lon="-1.47901">
        <ele>5.02699</ele>
        <time>2023-05-31T08:34:52.000Z</time>
      </trkpt>
      <trkpt lat="46.20368" lon="-1.47906">
        <ele>5.09317</ele>
        <time>2023-05-31T08:34:53.000Z</time>
      </trkpt>
      <trkpt lat="46.20365" lon="-1.47913">
        <ele>5.1359</ele>
        <time>2023-05-31T08:34:54.000Z</time>
      </trkpt>
      <trkpt lat="46.20363" lon="-1.47918">
        <ele>5.134</ele>
        <time>2023-05-31T08:34:55.000Z</time>
      </trkpt>
      <trkpt lat="46.2036" lon="-1.47924">
        <ele>5.12588</ele>
        <time>2023-05-31T08:34:56.000Z</time>
      </trkpt>
      <trkpt lat="46.20357" lon="-1.4793">
        <ele>5.09156</ele>
        <time>2023-05-31T08:34:57.000Z</time>
      </trkpt>
      <trkpt lat="46.20355" lon="-1.47935">
        <ele>5.05338</ele>
        <time>2023-05-31T08:34:58.000Z</time>
      </trkpt>
      <trkpt lat="46.20352" lon="-1.47941">
        <ele>5.02607</ele>
        <time>2023-05-31T08:34:59.000Z</time>
      </trkpt>
      <trkpt lat="46.20349" lon="-1.47947">
        <ele>4.99549</ele>
        <time>2023-05-31T08:35:00.000Z</time>
      </trkpt>
      <trkpt lat="46.20346" lon="-1.47954">
        <ele>4.97758</ele>
        <time>2023-05-31T08:35:01.000Z</time>
      </trkpt>
      <trkpt lat="46.20344" lon="-1.4796">
        <ele>4.96189</ele>
        <time>2023-05-31T08:35:02.000Z</time>
      </trkpt>
      <trkpt lat="46.20341" lon="-1.47965">
        <ele>4.95491</ele>
        <time>2023-05-31T08:35:03.000Z</time>
      </trkpt>
      <trkpt lat="46.20339" lon="-1.47971">
        <ele>4.94291</ele>
        <time>2023-05-31T08:35:04.000Z</time>
      </trkpt>
      <trkpt lat="46.20336" lon="-1.47977">
        <ele>4.90417</ele>
        <time>2023-05-31T08:35:05.000Z</time>
      </trkpt>
      <trkpt lat="46.20333" lon="-1.47983">
        <ele>4.87368</ele>
        <time>2023-05-31T08:35:06.000Z</time>
      </trkpt>
      <trkpt lat="46.2033" lon="-1.47989">
        <ele>4.8513</ele>
        <time>2023-05-31T08:35:07.000Z</time>
      </trkpt>
      <trkpt lat="46.20327" lon="-1.47994">
        <ele>4.85258</ele>
        <time>2023-05-31T08:35:08.000Z</time>
      </trkpt>
      <trkpt lat="46.20325" lon="-1.48">
        <ele>4.8948</ele>
        <time>2023-05-31T08:35:09.000Z</time>
      </trkpt>
      <trkpt lat="46.20322" lon="-1.48006">
        <ele>4.93761</ele>
        <time>2023-05-31T08:35:10.000Z</time>
      </trkpt>
      <trkpt lat="46.20319" lon="-1.48012">
        <ele>4.95145</ele>
        <time>2023-05-31T08:35:11.000Z</time>
      </trkpt>
      <trkpt lat="46.20317" lon="-1.48019">
        <ele>4.97679</ele>
        <time>2023-05-31T08:35:12.000Z</time>
      </trkpt>
      <trkpt lat="46.20313" lon="-1.48026">
        <ele>5.00919</ele>
        <time>2023-05-31T08:35:13.000Z</time>
      </trkpt>
      <trkpt lat="46.20311" lon="-1.48032">
        <ele>5.03186</ele>
        <time>2023-05-31T08:35:14.000Z</time>
      </trkpt>
      <trkpt lat="46.20308" lon="-1.48038">
        <ele>5.03882</ele>
        <time>2023-05-31T08:35:15.000Z</time>
      </trkpt>
      <trkpt lat="46.20305" lon="-1.48044">
        <ele>5.06237</ele>
        <time>2023-05-31T08:35:16.000Z</time>
      </trkpt>
      <trkpt lat="46.20303" lon="-1.4805">
        <ele>5.09875</ele>
        <time>2023-05-31T08:35:17.000Z</time>
      </trkpt>
      <trkpt lat="46.203" lon="-1.48055">
        <ele>5.14194</ele>
        <time>2023-05-31T08:35:18.000Z</time>
      </trkpt>
      <trkpt lat="46.20298" lon="-1.48061">
        <ele>5.1784</ele>
        <time>2023-05-31T08:35:19.000Z</time>
      </trkpt>
      <trkpt lat="46.20295" lon="-1.48067">
        <ele>5.20188</ele>
        <time>2023-05-31T08:35:20.000Z</time>
      </trkpt>
      <trkpt lat="46.20293" lon="-1.48071">
        <ele>5.23325</ele>
        <time>2023-05-31T08:35:21.000Z</time>
      </trkpt>
      <trkpt lat="46.2029" lon="-1.48077">
        <ele>5.26673</ele>
        <time>2023-05-31T08:35:22.000Z</time>
      </trkpt>
      <trkpt lat="46.20288" lon="-1.48084">
        <ele>5.30041</ele>
        <time>2023-05-31T08:35:23.000Z</time>
      </trkpt>
      <trkpt lat="46.20285" lon="-1.48089">
        <ele>5.33159</ele>
        <time>2023-05-31T08:35:24.000Z</time>
      </trkpt>
      <trkpt lat="46.20282" lon="-1.48094">
        <ele>5.36761</ele>
        <time>2023-05-31T08:35:25.000Z</time>
      </trkpt>
      <trkpt lat="46.20281" lon="-1.48101">
        <ele>5.37818</ele>
        <time>2023-05-31T08:35:26.000Z</time>
      </trkpt>
      <trkpt lat="46.20278" lon="-1.48107">
        <ele>5.38801</ele>
        <time>2023-05-31T08:35:27.000Z</time>
      </trkpt>
      <trkpt lat="46.20275" lon="-1.48113">
        <ele>5.4263</ele>
        <time>2023-05-31T08:35:28.000Z</time>
      </trkpt>
      <trkpt lat="46.20272" lon="-1.48119">
        <ele>5.42102</ele>
        <time>2023-05-31T08:35:29.000Z</time>
      </trkpt>
      <trkpt lat="46.20269" lon="-1.48125">
        <ele>5.42743</ele>
        <time>2023-05-31T08:35:30.000Z</time>
      </trkpt>
      <trkpt lat="46.20267" lon="-1.48131">
        <ele>5.43957</ele>
        <time>2023-05-31T08:35:31.000Z</time>
      </trkpt>
      <trkpt lat="46.20264" lon="-1.48138">
        <ele>5.44439</ele>
        <time>2023-05-31T08:35:32.000Z</time>
      </trkpt>
      <trkpt lat="46.20262" lon="-1.48145">
        <ele>5.42562</ele>
        <time>2023-05-31T08:35:33.000Z</time>
      </trkpt>
      <trkpt lat="46.20259" lon="-1.48151">
        <ele>5.42216</ele>
        <time>2023-05-31T08:35:34.000Z</time>
      </trkpt>
      <trkpt lat="46.20258" lon="-1.48158">
        <ele>5.42022</ele>
        <time>2023-05-31T08:35:35.000Z</time>
      </trkpt>
      <trkpt lat="46.20256" lon="-1.48165">
        <ele>5.43322</ele>
        <time>2023-05-31T08:35:36.000Z</time>
      </trkpt>
      <trkpt lat="46.20255" lon="-1.48171">
        <ele>5.42391</ele>
        <time>2023-05-31T08:35:37.000Z</time>
      </trkpt>
      <trkpt lat="46.20253" lon="-1.48178">
        <ele>5.43232</ele>
        <time>2023-05-31T08:35:38.000Z</time>
      </trkpt>
      <trkpt lat="46.20251" lon="-1.48185">
        <ele>5.46992</ele>
        <time>2023-05-31T08:35:39.000Z</time>
      </trkpt>
      <trkpt lat="46.2025" lon="-1.48191">
        <ele>5.52155</ele>
        <time>2023-05-31T08:35:40.000Z</time>
      </trkpt>
      <trkpt lat="46.20248" lon="-1.48198">
        <ele>5.56147</ele>
        <time>2023-05-31T08:35:41.000Z</time>
      </trkpt>
      <trkpt lat="46.20246" lon="-1.48204">
        <ele>5.61375</ele>
        <time>2023-05-31T08:35:42.000Z</time>
      </trkpt>
      <trkpt lat="46.20245" lon="-1.4821">
        <ele>5.66745</ele>
        <time>2023-05-31T08:35:43.000Z</time>
      </trkpt>
      <trkpt lat="46.20244" lon="-1.48215">
        <ele>5.6736</ele>
        <time>2023-05-31T08:35:44.000Z</time>
      </trkpt>
      <trkpt lat="46.20243" lon="-1.4822">
        <ele>5.6442</ele>
        <time>2023-05-31T08:35:45.000Z</time>
      </trkpt>
      <trkpt lat="46.20242" lon="-1.48226">
        <ele>5.62796</ele>
        <time>2023-05-31T08:35:46.000Z</time>
      </trkpt>
      <trkpt lat="46.20241" lon="-1.48232">
        <ele>5.64647</ele>
        <time>2023-05-31T08:35:47.000Z</time>
      </trkpt>
      <trkpt lat="46.2024" lon="-1.48237">
        <ele>5.63868</ele>
        <time>2023-05-31T08:35:48.000Z</time>
      </trkpt>
      <trkpt lat="46.20239" lon="-1.48243">
        <ele>5.63618</ele>
        <time>2023-05-31T08:35:49.000Z</time>
      </trkpt>
      <trkpt lat="46.20237" lon="-1.48249">
        <ele>5.63792</ele>
        <time>2023-05-31T08:35:50.000Z</time>
      </trkpt>
      <trkpt lat="46.20236" lon="-1.48255">
        <ele>5.65643</ele>
        <time>2023-05-31T08:35:51.000Z</time>
      </trkpt>
      <trkpt lat="46.20235" lon="-1.48261">
        <ele>5.67721</ele>
        <time>2023-05-31T08:35:52.000Z</time>
      </trkpt>
      <trkpt lat="46.20234" lon="-1.48267">
        <ele>5.73667</ele>
        <time>2023-05-31T08:35:53.000Z</time>
      </trkpt>
      <trkpt lat="46.20233" lon="-1.48273">
        <ele>5.8047</ele>
        <time>2023-05-31T08:35:54.000Z</time>
      </trkpt>
      <trkpt lat="46.20232" lon="-1.48279">
        <ele>5.87565</ele>
        <time>2023-05-31T08:35:55.000Z</time>
      </trkpt>
      <trkpt lat="46.20231" lon="-1.48285">
        <ele>5.91612</ele>
        <time>2023-05-31T08:35:56.000Z</time>
      </trkpt>
      <trkpt lat="46.2023" lon="-1.48291">
        <ele>5.9667</ele>
        <time>2023-05-31T08:35:57.000Z</time>
      </trkpt>
      <trkpt lat="46.20229" lon="-1.48297">
        <ele>5.96568</ele>
        <time>2023-05-31T08:35:58.000Z</time>
      </trkpt>
      <trkpt lat="46.20228" lon="-1.48302">
        <ele>5.91792</ele>
        <time>2023-05-31T08:35:59.000Z</time>
      </trkpt>
      <trkpt lat="46.20227" lon="-1.48308">
        <ele>5.83707</ele>
        <time>2023-05-31T08:36:00.000Z</time>
      </trkpt>
      <trkpt lat="46.20226" lon="-1.48314">
        <ele>5.71957</ele>
        <time>2023-05-31T08:36:01.000Z</time>
      </trkpt>
      <trkpt lat="46.20225" lon="-1.4832">
        <ele>5.57162</ele>
        <time>2023-05-31T08:36:02.000Z</time>
      </trkpt>
      <trkpt lat="46.20224" lon="-1.48326">
        <ele>5.42516</ele>
        <time>2023-05-31T08:36:03.000Z</time>
      </trkpt>
      <trkpt lat="46.20223" lon="-1.48332">
        <ele>5.3094</ele>
        <time>2023-05-31T08:36:04.000Z</time>
      </trkpt>
      <trkpt lat="46.20222" lon="-1.48338">
        <ele>5.20859</ele>
        <time>2023-05-31T08:36:05.000Z</time>
      </trkpt>
      <trkpt lat="46.20221" lon="-1.48344">
        <ele>5.11433</ele>
        <time>2023-05-31T08:36:06.000Z</time>
      </trkpt>
      <trkpt lat="46.2022" lon="-1.48351">
        <ele>4.95902</ele>
        <time>2023-05-31T08:36:07.000Z</time>
      </trkpt>
      <trkpt lat="46.20219" lon="-1.48357">
        <ele>4.81814</ele>
        <time>2023-05-31T08:36:08.000Z</time>
      </trkpt>
      <trkpt lat="46.20219" lon="-1.48363">
        <ele>4.68175</ele>
        <time>2023-05-31T08:36:09.000Z</time>
      </trkpt>
      <trkpt lat="46.20219" lon="-1.4837">
        <ele>4.5828</ele>
        <time>2023-05-31T08:36:10.000Z</time>
      </trkpt>
      <trkpt lat="46.20218" lon="-1.48376">
        <ele>4.46406</ele>
        <time>2023-05-31T08:36:11.000Z</time>
      </trkpt>
      <trkpt lat="46.20217" lon="-1.48382">
        <ele>4.33712</ele>
        <time>2023-05-31T08:36:12.000Z</time>
      </trkpt>
      <trkpt lat="46.20216" lon="-1.48388">
        <ele>4.18875</ele>
        <time>2023-05-31T08:36:13.000Z</time>
      </trkpt>
      <trkpt lat="46.20216" lon="-1.48393">
        <ele>4.04411</ele>
        <time>2023-05-31T08:36:14.000Z</time>
      </trkpt>
      <trkpt lat="46.20214" lon="-1.484">
        <ele>3.90019</ele>
        <time>2023-05-31T08:36:15.000Z</time>
      </trkpt>
      <trkpt lat="46.20213" lon="-1.48406">
        <ele>3.77759</ele>
        <time>2023-05-31T08:36:16.000Z</time>
      </trkpt>
      <trkpt lat="46.20212" lon="-1.48413">
        <ele>3.66251</ele>
        <time>2023-05-31T08:36:17.000Z</time>
      </trkpt>
      <trkpt lat="46.20211" lon="-1.4842">
        <ele>3.58866</ele>
        <time>2023-05-31T08:36:18.000Z</time>
      </trkpt>
      <trkpt lat="46.2021" lon="-1.48426">
        <ele>3.54002</ele>
        <time>2023-05-31T08:36:19.000Z</time>
      </trkpt>
      <trkpt lat="46.20209" lon="-1.48432">
        <ele>3.51038</ele>
        <time>2023-05-31T08:36:20.000Z</time>
      </trkpt>
      <trkpt lat="46.20208" lon="-1.48438">
        <ele>3.49571</ele>
        <time>2023-05-31T08:36:21.000Z</time>
      </trkpt>
      <trkpt lat="46.20207" lon="-1.48444">
        <ele>3.50473</ele>
        <time>2023-05-31T08:36:22.000Z</time>
      </trkpt>
      <trkpt lat="46.20207" lon="-1.48451">
        <ele>3.49977</ele>
        <time>2023-05-31T08:36:23.000Z</time>
      </trkpt>
      <trkpt lat="46.20206" lon="-1.48458">
        <ele>3.50623</ele>
        <time>2023-05-31T08:36:24.000Z</time>
      </trkpt>
      <trkpt lat="46.20204" lon="-1.48464">
        <ele>3.54169</ele>
        <time>2023-05-31T08:36:25.000Z</time>
      </trkpt>
      <trkpt lat="46.20203" lon="-1.48471">
        <ele>3.58088</ele>
        <time>2023-05-31T08:36:26.000Z</time>
      </trkpt>
      <trkpt lat="46.20201" lon="-1.48478">
        <ele>3.61532</ele>
        <time>2023-05-31T08:36:27.000Z</time>
      </trkpt>
      <trkpt lat="46.202" lon="-1.48484">
        <ele>3.61424</ele>
        <time>2023-05-31T08:36:28.000Z</time>
      </trkpt>
      <trkpt lat="46.20199" lon="-1.48491">
        <ele>3.60512</ele>
        <time>2023-05-31T08:36:29.000Z</time>
      </trkpt>
      <trkpt lat="46.20197" lon="-1.48497">
        <ele>3.59623</ele>
        <time>2023-05-31T08:36:30.000Z</time>
      </trkpt>
      <trkpt lat="46.20196" lon="-1.48503">
        <ele>3.62393</ele>
        <time>2023-05-31T08:36:31.000Z</time>
      </trkpt>
      <trkpt lat="46.20194" lon="-1.4851">
        <ele>3.6599</ele>
        <time>2023-05-31T08:36:32.000Z</time>
      </trkpt>
      <trkpt lat="46.20193" lon="-1.48517">
        <ele>3.67196</ele>
        <time>2023-05-31T08:36:33.000Z</time>
      </trkpt>
      <trkpt lat="46.20191" lon="-1.48523">
        <ele>3.68519</ele>
        <time>2023-05-31T08:36:34.000Z</time>
      </trkpt>
      <trkpt lat="46.2019" lon="-1.48529">
        <ele>3.71114</ele>
        <time>2023-05-31T08:36:35.000Z</time>
      </trkpt>
      <trkpt lat="46.20188" lon="-1.48535">
        <ele>3.71127</ele>
        <time>2023-05-31T08:36:36.000Z</time>
      </trkpt>
      <trkpt lat="46.20186" lon="-1.48541">
        <ele>3.70376</ele>
        <time>2023-05-31T08:36:37.000Z</time>
      </trkpt>
      <trkpt lat="46.20184" lon="-1.48547">
        <ele>3.68559</ele>
        <time>2023-05-31T08:36:38.000Z</time>
      </trkpt>
      <trkpt lat="46.20182" lon="-1.48554">
        <ele>3.66951</ele>
        <time>2023-05-31T08:36:39.000Z</time>
      </trkpt>
      <trkpt lat="46.2018" lon="-1.4856">
        <ele>3.67822</ele>
        <time>2023-05-31T08:36:40.000Z</time>
      </trkpt>
      <trkpt lat="46.20178" lon="-1.48566">
        <ele>3.70991</ele>
        <time>2023-05-31T08:36:41.000Z</time>
      </trkpt>
      <trkpt lat="46.20176" lon="-1.48572">
        <ele>3.7298</ele>
        <time>2023-05-31T08:36:42.000Z</time>
      </trkpt>
      <trkpt lat="46.20173" lon="-1.48578">
        <ele>3.76218</ele>
        <time>2023-05-31T08:36:43.000Z</time>
      </trkpt>
      <trkpt lat="46.20171" lon="-1.48584">
        <ele>3.79122</ele>
        <time>2023-05-31T08:36:44.000Z</time>
      </trkpt>
      <trkpt lat="46.20168" lon="-1.4859">
        <ele>3.82441</ele>
        <time>2023-05-31T08:36:45.000Z</time>
      </trkpt>
      <trkpt lat="46.20166" lon="-1.48595">
        <ele>3.87419</ele>
        <time>2023-05-31T08:36:46.000Z</time>
      </trkpt>
      <trkpt lat="46.20164" lon="-1.486">
        <ele>3.95647</ele>
        <time>2023-05-31T08:36:47.000Z</time>
      </trkpt>
      <trkpt lat="46.20162" lon="-1.48606">
        <ele>4.08589</ele>
        <time>2023-05-31T08:36:48.000Z</time>
      </trkpt>
      <trkpt lat="46.2016" lon="-1.48611">
        <ele>4.20646</ele>
        <time>2023-05-31T08:36:49.000Z</time>
      </trkpt>
      <trkpt lat="46.20158" lon="-1.48617">
        <ele>4.28088</ele>
        <time>2023-05-31T08:36:50.000Z</time>
      </trkpt>
      <trkpt lat="46.20155" lon="-1.48623">
        <ele>4.32141</ele>
        <time>2023-05-31T08:36:51.000Z</time>
      </trkpt>
      <trkpt lat="46.20153" lon="-1.48627">
        <ele>4.33688</ele>
        <time>2023-05-31T08:36:52.000Z</time>
      </trkpt>
      <trkpt lat="46.20151" lon="-1.48632">
        <ele>4.36637</ele>
        <time>2023-05-31T08:36:53.000Z</time>
      </trkpt>
      <trkpt lat="46.20149" lon="-1.48637">
        <ele>4.38871</ele>
        <time>2023-05-31T08:36:54.000Z</time>
      </trkpt>
      <trkpt lat="46.20147" lon="-1.48641">
        <ele>4.38737</ele>
        <time>2023-05-31T08:36:55.000Z</time>
      </trkpt>
      <trkpt lat="46.20144" lon="-1.48645">
        <ele>4.40098</ele>
        <time>2023-05-31T08:36:56.000Z</time>
      </trkpt>
      <trkpt lat="46.20141" lon="-1.48649">
        <ele>4.43128</ele>
        <time>2023-05-31T08:36:57.000Z</time>
      </trkpt>
      <trkpt lat="46.20138" lon="-1.48654">
        <ele>4.44926</ele>
        <time>2023-05-31T08:36:58.000Z</time>
      </trkpt>
      <trkpt lat="46.20135" lon="-1.48658">
        <ele>4.4586</ele>
        <time>2023-05-31T08:36:59.000Z</time>
      </trkpt>
      <trkpt lat="46.20131" lon="-1.48662">
        <ele>4.52319</ele>
        <time>2023-05-31T08:37:00.000Z</time>
      </trkpt>
      <trkpt lat="46.20128" lon="-1.48667">
        <ele>4.55164</ele>
        <time>2023-05-31T08:37:01.000Z</time>
      </trkpt>
      <trkpt lat="46.20125" lon="-1.48672">
        <ele>4.58305</ele>
        <time>2023-05-31T08:37:02.000Z</time>
      </trkpt>
      <trkpt lat="46.20121" lon="-1.48677">
        <ele>4.61931</ele>
        <time>2023-05-31T08:37:03.000Z</time>
      </trkpt>
      <trkpt lat="46.20117" lon="-1.48682">
        <ele>4.65525</ele>
        <time>2023-05-31T08:37:04.000Z</time>
      </trkpt>
      <trkpt lat="46.20116" lon="-1.48689">
        <ele>4.66384</ele>
        <time>2023-05-31T08:37:05.000Z</time>
      </trkpt>
      <trkpt lat="46.20114" lon="-1.48695">
        <ele>4.63687</ele>
        <time>2023-05-31T08:37:06.000Z</time>
      </trkpt>
      <trkpt lat="46.20112" lon="-1.48701">
        <ele>4.59812</ele>
        <time>2023-05-31T08:37:07.000Z</time>
      </trkpt>
      <trkpt lat="46.2011" lon="-1.48707">
        <ele>4.51214</ele>
        <time>2023-05-31T08:37:08.000Z</time>
      </trkpt>
      <trkpt lat="46.20108" lon="-1.48714">
        <ele>4.44996</ele>
        <time>2023-05-31T08:37:09.000Z</time>
      </trkpt>
      <trkpt lat="46.20107" lon="-1.48721">
        <ele>4.37721</ele>
        <time>2023-05-31T08:37:10.000Z</time>
      </trkpt>
      <trkpt lat="46.20105" lon="-1.48727">
        <ele>4.29375</ele>
        <time>2023-05-31T08:37:11.000Z</time>
      </trkpt>
      <trkpt lat="46.20104" lon="-1.48734">
        <ele>4.23042</ele>
        <time>2023-05-31T08:37:12.000Z</time>
      </trkpt>
      <trkpt lat="46.20102" lon="-1.48741">
        <ele>4.16544</ele>
        <time>2023-05-31T08:37:13.000Z</time>
      </trkpt>
      <trkpt lat="46.20101" lon="-1.48748">
        <ele>4.09109</ele>
        <time>2023-05-31T08:37:14.000Z</time>
      </trkpt>
      <trkpt lat="46.20101" lon="-1.48755">
        <ele>4.06298</ele>
        <time>2023-05-31T08:37:15.000Z</time>
      </trkpt>
      <trkpt lat="46.201" lon="-1.48762">
        <ele>4.03992</ele>
        <time>2023-05-31T08:37:16.000Z</time>
      </trkpt>
      <trkpt lat="46.201" lon="-1.48769">
        <ele>4.00924</ele>
        <time>2023-05-31T08:37:17.000Z</time>
      </trkpt>
      <trkpt lat="46.201" lon="-1.48776">
        <ele>4.0008</ele>
        <time>2023-05-31T08:37:18.000Z</time>
      </trkpt>
      <trkpt lat="46.20101" lon="-1.48784">
        <ele>3.9886</ele>
        <time>2023-05-31T08:37:19.000Z</time>
      </trkpt>
      <trkpt lat="46.20102" lon="-1.48791">
        <ele>3.89775</ele>
        <time>2023-05-31T08:37:20.000Z</time>
      </trkpt>
      <trkpt lat="46.20103" lon="-1.48798">
        <ele>3.84125</ele>
        <time>2023-05-31T08:37:21.000Z</time>
      </trkpt>
      <trkpt lat="46.20104" lon="-1.48805">
        <ele>3.76883</ele>
        <time>2023-05-31T08:37:22.000Z</time>
      </trkpt>
      <trkpt lat="46.20105" lon="-1.48813">
        <ele>3.66908</ele>
        <time>2023-05-31T08:37:23.000Z</time>
      </trkpt>
      <trkpt lat="46.20108" lon="-1.4882">
        <ele>3.57879</ele>
        <time>2023-05-31T08:37:24.000Z</time>
      </trkpt>
      <trkpt lat="46.2011" lon="-1.48828">
        <ele>3.48902</ele>
        <time>2023-05-31T08:37:25.000Z</time>
      </trkpt>
      <trkpt lat="46.20112" lon="-1.48835">
        <ele>3.4123</ele>
        <time>2023-05-31T08:37:26.000Z</time>
      </trkpt>
      <trkpt lat="46.20114" lon="-1.48843">
        <ele>3.34262</ele>
        <time>2023-05-31T08:37:27.000Z</time>
      </trkpt>
      <trkpt lat="46.20116" lon="-1.48851">
        <ele>3.31788</ele>
        <time>2023-05-31T08:37:28.000Z</time>
      </trkpt>
      <trkpt lat="46.20118" lon="-1.48858">
        <ele>3.28162</ele>
        <time>2023-05-31T08:37:29.000Z</time>
      </trkpt>
      <trkpt lat="46.2012" lon="-1.48867">
        <ele>3.24877</ele>
        <time>2023-05-31T08:37:30.000Z</time>
      </trkpt>
      <trkpt lat="46.20122" lon="-1.48874">
        <ele>3.25242</ele>
        <time>2023-05-31T08:37:31.000Z</time>
      </trkpt>
      <trkpt lat="46.20125" lon="-1.48881">
        <ele>3.277</ele>
        <time>2023-05-31T08:37:32.000Z</time>
      </trkpt>
      <trkpt lat="46.20127" lon="-1.48889">
        <ele>3.30404</ele>
        <time>2023-05-31T08:37:33.000Z</time>
      </trkpt>
      <trkpt lat="46.20129" lon="-1.48897">
        <ele>3.33786</ele>
        <time>2023-05-31T08:37:34.000Z</time>
      </trkpt>
      <trkpt lat="46.20131" lon="-1.48904">
        <ele>3.33763</ele>
        <time>2023-05-31T08:37:35.000Z</time>
      </trkpt>
      <trkpt lat="46.20133" lon="-1.48913">
        <ele>3.33511</ele>
        <time>2023-05-31T08:37:36.000Z</time>
      </trkpt>
      <trkpt lat="46.20135" lon="-1.4892">
        <ele>3.34664</ele>
        <time>2023-05-31T08:37:37.000Z</time>
      </trkpt>
      <trkpt lat="46.20136" lon="-1.48928">
        <ele>3.35531</ele>
        <time>2023-05-31T08:37:38.000Z</time>
      </trkpt>
      <trkpt lat="46.20139" lon="-1.48936">
        <ele>3.33741</ele>
        <time>2023-05-31T08:37:39.000Z</time>
      </trkpt>
      <trkpt lat="46.20141" lon="-1.48943">
        <ele>3.34234</ele>
        <time>2023-05-31T08:37:40.000Z</time>
      </trkpt>
      <trkpt lat="46.20144" lon="-1.4895">
        <ele>3.3294</ele>
        <time>2023-05-31T08:37:41.000Z</time>
      </trkpt>
      <trkpt lat="46.20146" lon="-1.48958">
        <ele>3.32486</ele>
        <time>2023-05-31T08:37:42.000Z</time>
      </trkpt>
      <trkpt lat="46.20148" lon="-1.48965">
        <ele>3.34499</ele>
        <time>2023-05-31T08:37:43.000Z</time>
      </trkpt>
      <trkpt lat="46.20151" lon="-1.48971">
        <ele>3.34736</ele>
        <time>2023-05-31T08:37:44.000Z</time>
      </trkpt>
      <trkpt lat="46.20153" lon="-1.48978">
        <ele>3.35434</ele>
        <time>2023-05-31T08:37:45.000Z</time>
      </trkpt>
      <trkpt lat="46.20155" lon="-1.48985">
        <ele>3.37023</ele>
        <time>2023-05-31T08:37:46.000Z</time>
      </trkpt>
      <trkpt lat="46.20156" lon="-1.48991">
        <ele>3.38063</ele>
        <time>2023-05-31T08:37:47.000Z</time>
      </trkpt>
      <trkpt lat="46.20158" lon="-1.48997">
        <ele>3.37165</ele>
        <time>2023-05-31T08:37:48.000Z</time>
      </trkpt>
      <trkpt lat="46.20161" lon="-1.49003">
        <ele>3.36089</ele>
        <time>2023-05-31T08:37:49.000Z</time>
      </trkpt>
      <trkpt lat="46.20163" lon="-1.4901">
        <ele>3.36533</ele>
        <time>2023-05-31T08:37:50.000Z</time>
      </trkpt>
      <trkpt lat="46.20164" lon="-1.49017">
        <ele>3.35761</ele>
        <time>2023-05-31T08:37:51.000Z</time>
      </trkpt>
      <trkpt lat="46.20166" lon="-1.49023">
        <ele>3.34321</ele>
        <time>2023-05-31T08:37:52.000Z</time>
      </trkpt>
      <trkpt lat="46.20168" lon="-1.49031">
        <ele>3.36245</ele>
        <time>2023-05-31T08:37:53.000Z</time>
      </trkpt>
      <trkpt lat="46.2017" lon="-1.49037">
        <ele>3.37283</ele>
        <time>2023-05-31T08:37:54.000Z</time>
      </trkpt>
      <trkpt lat="46.20172" lon="-1.49044">
        <ele>3.37909</ele>
        <time>2023-05-31T08:37:55.000Z</time>
      </trkpt>
      <trkpt lat="46.20174" lon="-1.4905">
        <ele>3.37419</ele>
        <time>2023-05-31T08:37:56.000Z</time>
      </trkpt>
      <trkpt lat="46.20176" lon="-1.49056">
        <ele>3.36986</ele>
        <time>2023-05-31T08:37:57.000Z</time>
      </trkpt>
      <trkpt lat="46.20178" lon="-1.49063">
        <ele>3.35441</ele>
        <time>2023-05-31T08:37:58.000Z</time>
      </trkpt>
      <trkpt lat="46.2018" lon="-1.4907">
        <ele>3.36611</ele>
        <time>2023-05-31T08:37:59.000Z</time>
      </trkpt>
      <trkpt lat="46.20182" lon="-1.49077">
        <ele>3.30578</ele>
        <time>2023-05-31T08:38:00.000Z</time>
      </trkpt>
      <trkpt lat="46.20185" lon="-1.49084">
        <ele>3.26412</ele>
        <time>2023-05-31T08:38:01.000Z</time>
      </trkpt>
      <trkpt lat="46.20187" lon="-1.49091">
        <ele>3.22262</ele>
        <time>2023-05-31T08:38:02.000Z</time>
      </trkpt>
      <trkpt lat="46.20188" lon="-1.49098">
        <ele>3.2151</ele>
        <time>2023-05-31T08:38:03.000Z</time>
      </trkpt>
      <trkpt lat="46.2019" lon="-1.49106">
        <ele>3.21113</ele>
        <time>2023-05-31T08:38:04.000Z</time>
      </trkpt>
      <trkpt lat="46.20192" lon="-1.49113">
        <ele>3.21505</ele>
        <time>2023-05-31T08:38:05.000Z</time>
      </trkpt>
      <trkpt lat="46.20194" lon="-1.4912">
        <ele>3.23123</ele>
        <time>2023-05-31T08:38:06.000Z</time>
      </trkpt>
      <trkpt lat="46.20196" lon="-1.49126">
        <ele>3.25432</ele>
        <time>2023-05-31T08:38:07.000Z</time>
      </trkpt>
      <trkpt lat="46.20199" lon="-1.49134">
        <ele>3.28463</ele>
        <time>2023-05-31T08:38:08.000Z</time>
      </trkpt>
      <trkpt lat="46.20201" lon="-1.49141">
        <ele>3.32578</ele>
        <time>2023-05-31T08:38:09.000Z</time>
      </trkpt>
      <trkpt lat="46.20203" lon="-1.49149">
        <ele>3.35241</ele>
        <time>2023-05-31T08:38:10.000Z</time>
      </trkpt>
      <trkpt lat="46.20205" lon="-1.49156">
        <ele>3.3703</ele>
        <time>2023-05-31T08:38:11.000Z</time>
      </trkpt>
      <trkpt lat="46.20207" lon="-1.49163">
        <ele>3.39027</ele>
        <time>2023-05-31T08:38:12.000Z</time>
      </trkpt>
      <trkpt lat="46.20209" lon="-1.49169">
        <ele>3.39163</ele>
        <time>2023-05-31T08:38:13.000Z</time>
      </trkpt>
      <trkpt lat="46.20211" lon="-1.49176">
        <ele>3.39893</ele>
        <time>2023-05-31T08:38:14.000Z</time>
      </trkpt>
      <trkpt lat="46.20212" lon="-1.49183">
        <ele>3.41807</ele>
        <time>2023-05-31T08:38:15.000Z</time>
      </trkpt>
      <trkpt lat="46.20214" lon="-1.49189">
        <ele>3.44201</ele>
        <time>2023-05-31T08:38:16.000Z</time>
      </trkpt>
      <trkpt lat="46.20215" lon="-1.49195">
        <ele>3.45369</ele>
        <time>2023-05-31T08:38:17.000Z</time>
      </trkpt>
      <trkpt lat="46.20217" lon="-1.49201">
        <ele>3.44396</ele>
        <time>2023-05-31T08:38:18.000Z</time>
      </trkpt>
      <trkpt lat="46.20218" lon="-1.49207">
        <ele>3.42386</ele>
        <time>2023-05-31T08:38:19.000Z</time>
      </trkpt>
      <trkpt lat="46.20219" lon="-1.49214">
        <ele>3.46059</ele>
        <time>2023-05-31T08:38:20.000Z</time>
      </trkpt>
      <trkpt lat="46.2022" lon="-1.4922">
        <ele>3.51338</ele>
        <time>2023-05-31T08:38:21.000Z</time>
      </trkpt>
      <trkpt lat="46.20221" lon="-1.49226">
        <ele>3.57096</ele>
        <time>2023-05-31T08:38:22.000Z</time>
      </trkpt>
      <trkpt lat="46.20222" lon="-1.49234">
        <ele>3.6068</ele>
        <time>2023-05-31T08:38:23.000Z</time>
      </trkpt>
      <trkpt lat="46.20223" lon="-1.49241">
        <ele>3.64969</ele>
        <time>2023-05-31T08:38:24.000Z</time>
      </trkpt>
      <trkpt lat="46.20223" lon="-1.49248">
        <ele>3.68758</ele>
        <time>2023-05-31T08:38:25.000Z</time>
      </trkpt>
      <trkpt lat="46.20224" lon="-1.49254">
        <ele>3.73358</ele>
        <time>2023-05-31T08:38:26.000Z</time>
      </trkpt>
      <trkpt lat="46.20224" lon="-1.49262">
        <ele>3.77709</ele>
        <time>2023-05-31T08:38:27.000Z</time>
      </trkpt>
      <trkpt lat="46.20223" lon="-1.49269">
        <ele>3.80452</ele>
        <time>2023-05-31T08:38:28.000Z</time>
      </trkpt>
      <trkpt lat="46.20222" lon="-1.49276">
        <ele>3.82576</ele>
        <time>2023-05-31T08:38:29.000Z</time>
      </trkpt>
      <trkpt lat="46.20221" lon="-1.49283">
        <ele>3.84037</ele>
        <time>2023-05-31T08:38:30.000Z</time>
      </trkpt>
      <trkpt lat="46.2022" lon="-1.49291">
        <ele>3.8288</ele>
        <time>2023-05-31T08:38:31.000Z</time>
      </trkpt>
      <trkpt lat="46.20219" lon="-1.49298">
        <ele>3.78493</ele>
        <time>2023-05-31T08:38:32.000Z</time>
      </trkpt>
      <trkpt lat="46.20217" lon="-1.49305">
        <ele>3.78942</ele>
        <time>2023-05-31T08:38:33.000Z</time>
      </trkpt>
      <trkpt lat="46.20215" lon="-1.49312">
        <ele>3.79382</ele>
        <time>2023-05-31T08:38:34.000Z</time>
      </trkpt>
      <trkpt lat="46.20214" lon="-1.49319">
        <ele>3.78901</ele>
        <time>2023-05-31T08:38:35.000Z</time>
      </trkpt>
      <trkpt lat="46.20213" lon="-1.49326">
        <ele>3.81688</ele>
        <time>2023-05-31T08:38:36.000Z</time>
      </trkpt>
      <trkpt lat="46.20212" lon="-1.49333">
        <ele>3.8493</ele>
        <time>2023-05-31T08:38:37.000Z</time>
      </trkpt>
      <trkpt lat="46.20211" lon="-1.49339">
        <ele>3.88909</ele>
        <time>2023-05-31T08:38:38.000Z</time>
      </trkpt>
      <trkpt lat="46.2021" lon="-1.49345">
        <ele>3.9517</ele>
        <time>2023-05-31T08:38:39.000Z</time>
      </trkpt>
      <trkpt lat="46.2021" lon="-1.49352">
        <ele>4.0214</ele>
        <time>2023-05-31T08:38:40.000Z</time>
      </trkpt>
      <trkpt lat="46.20209" lon="-1.4936">
        <ele>4.05261</ele>
        <time>2023-05-31T08:38:41.000Z</time>
      </trkpt>
      <trkpt lat="46.20209" lon="-1.49367">
        <ele>4.08412</ele>
        <time>2023-05-31T08:38:42.000Z</time>
      </trkpt>
      <trkpt lat="46.20209" lon="-1.49374">
        <ele>4.10327</ele>
        <time>2023-05-31T08:38:43.000Z</time>
      </trkpt>
      <trkpt lat="46.20209" lon="-1.49382">
        <ele>4.11632</ele>
        <time>2023-05-31T08:38:44.000Z</time>
      </trkpt>
      <trkpt lat="46.2021" lon="-1.49389">
        <ele>4.12614</ele>
        <time>2023-05-31T08:38:45.000Z</time>
      </trkpt>
      <trkpt lat="46.2021" lon="-1.49397">
        <ele>4.12383</ele>
        <time>2023-05-31T08:38:46.000Z</time>
      </trkpt>
      <trkpt lat="46.20212" lon="-1.49404">
        <ele>4.0933</ele>
        <time>2023-05-31T08:38:47.000Z</time>
      </trkpt>
      <trkpt lat="46.20213" lon="-1.49411">
        <ele>4.06325</ele>
        <time>2023-05-31T08:38:48.000Z</time>
      </trkpt>
      <trkpt lat="46.20215" lon="-1.49418">
        <ele>4.03067</ele>
        <time>2023-05-31T08:38:49.000Z</time>
      </trkpt>
      <trkpt lat="46.20217" lon="-1.49425">
        <ele>4.01416</ele>
        <time>2023-05-31T08:38:50.000Z</time>
      </trkpt>
      <trkpt lat="46.20219" lon="-1.49431">
        <ele>4.02481</ele>
        <time>2023-05-31T08:38:51.000Z</time>
      </trkpt>
      <trkpt lat="46.20221" lon="-1.49437">
        <ele>4.06434</ele>
        <time>2023-05-31T08:38:52.000Z</time>
      </trkpt>
      <trkpt lat="46.20224" lon="-1.49444">
        <ele>4.0465</ele>
        <time>2023-05-31T08:38:53.000Z</time>
      </trkpt>
      <trkpt lat="46.20226" lon="-1.49451">
        <ele>4.0566</ele>
        <time>2023-05-31T08:38:54.000Z</time>
      </trkpt>
      <trkpt lat="46.20228" lon="-1.49458">
        <ele>4.06814</ele>
        <time>2023-05-31T08:38:55.000Z</time>
      </trkpt>
      <trkpt lat="46.2023" lon="-1.49464">
        <ele>4.04119</ele>
        <time>2023-05-31T08:38:56.000Z</time>
      </trkpt>
      <trkpt lat="46.20234" lon="-1.49472">
        <ele>3.99702</ele>
        <time>2023-05-31T08:38:57.000Z</time>
      </trkpt>
      <trkpt lat="46.20236" lon="-1.49478">
        <ele>3.95954</ele>
        <time>2023-05-31T08:38:58.000Z</time>
      </trkpt>
      <trkpt lat="46.20239" lon="-1.49485">
        <ele>3.90189</ele>
        <time>2023-05-31T08:38:59.000Z</time>
      </trkpt>
      <trkpt lat="46.20242" lon="-1.49492">
        <ele>3.82681</ele>
        <time>2023-05-31T08:39:00.000Z</time>
      </trkpt>
      <trkpt lat="46.20245" lon="-1.49499">
        <ele>3.78159</ele>
        <time>2023-05-31T08:39:01.000Z</time>
      </trkpt>
      <trkpt lat="46.20247" lon="-1.49506">
        <ele>3.73805</ele>
        <time>2023-05-31T08:39:02.000Z</time>
      </trkpt>
      <trkpt lat="46.2025" lon="-1.49513">
        <ele>3.69053</ele>
        <time>2023-05-31T08:39:03.000Z</time>
      </trkpt>
      <trkpt lat="46.20252" lon="-1.4952">
        <ele>3.6608</ele>
        <time>2023-05-31T08:39:04.000Z</time>
      </trkpt>
      <trkpt lat="46.20255" lon="-1.49526">
        <ele>3.63701</ele>
        <time>2023-05-31T08:39:05.000Z</time>
      </trkpt>
      <trkpt lat="46.20258" lon="-1.49532">
        <ele>3.61775</ele>
        <time>2023-05-31T08:39:06.000Z</time>
      </trkpt>
      <trkpt lat="46.2026" lon="-1.49539">
        <ele>3.59645</ele>
        <time>2023-05-31T08:39:07.000Z</time>
      </trkpt>
      <trkpt lat="46.20263" lon="-1.49546">
        <ele>3.58223</ele>
        <time>2023-05-31T08:39:08.000Z</time>
      </trkpt>
      <trkpt lat="46.20265" lon="-1.49553">
        <ele>3.56561</ele>
        <time>2023-05-31T08:39:09.000Z</time>
      </trkpt>
      <trkpt lat="46.20267" lon="-1.49559">
        <ele>3.54393</ele>
        <time>2023-05-31T08:39:10.000Z</time>
      </trkpt>
      <trkpt lat="46.2027" lon="-1.49566">
        <ele>3.51569</ele>
        <time>2023-05-31T08:39:11.000Z</time>
      </trkpt>
      <trkpt lat="46.20273" lon="-1.49572">
        <ele>3.45748</ele>
        <time>2023-05-31T08:39:12.000Z</time>
      </trkpt>
      <trkpt lat="46.20274" lon="-1.49579">
        <ele>3.3974</ele>
        <time>2023-05-31T08:39:13.000Z</time>
      </trkpt>
      <trkpt lat="46.20276" lon="-1.49587">
        <ele>3.35159</ele>
        <time>2023-05-31T08:39:14.000Z</time>
      </trkpt>
      <trkpt lat="46.20279" lon="-1.49593">
        <ele>3.31416</ele>
        <time>2023-05-31T08:39:15.000Z</time>
      </trkpt>
      <trkpt lat="46.20282" lon="-1.49599">
        <ele>3.2666</ele>
        <time>2023-05-31T08:39:16.000Z</time>
      </trkpt>
      <trkpt lat="46.20284" lon="-1.49607">
        <ele>3.22475</ele>
        <time>2023-05-31T08:39:17.000Z</time>
      </trkpt>
      <trkpt lat="46.20287" lon="-1.49613">
        <ele>3.20831</ele>
        <time>2023-05-31T08:39:18.000Z</time>
      </trkpt>
      <trkpt lat="46.2029" lon="-1.49621">
        <ele>3.20318</ele>
        <time>2023-05-31T08:39:19.000Z</time>
      </trkpt>
      <trkpt lat="46.20293" lon="-1.49628">
        <ele>3.20897</ele>
        <time>2023-05-31T08:39:20.000Z</time>
      </trkpt>
      <trkpt lat="46.20296" lon="-1.49635">
        <ele>3.21362</ele>
        <time>2023-05-31T08:39:21.000Z</time>
      </trkpt>
      <trkpt lat="46.20299" lon="-1.49642">
        <ele>3.19899</ele>
        <time>2023-05-31T08:39:22.000Z</time>
      </trkpt>
      <trkpt lat="46.20302" lon="-1.49648">
        <ele>3.16768</ele>
        <time>2023-05-31T08:39:23.000Z</time>
      </trkpt>
      <trkpt lat="46.20306" lon="-1.49654">
        <ele>3.12455</ele>
        <time>2023-05-31T08:39:24.000Z</time>
      </trkpt>
      <trkpt lat="46.20309" lon="-1.49662">
        <ele>3.08483</ele>
        <time>2023-05-31T08:39:25.000Z</time>
      </trkpt>
      <trkpt lat="46.20312" lon="-1.49668">
        <ele>3.03246</ele>
        <time>2023-05-31T08:39:26.000Z</time>
      </trkpt>
      <trkpt lat="46.20315" lon="-1.49675">
        <ele>3.01618</ele>
        <time>2023-05-31T08:39:27.000Z</time>
      </trkpt>
      <trkpt lat="46.20318" lon="-1.49681">
        <ele>2.97207</ele>
        <time>2023-05-31T08:39:28.000Z</time>
      </trkpt>
      <trkpt lat="46.20321" lon="-1.49688">
        <ele>2.94578</ele>
        <time>2023-05-31T08:39:29.000Z</time>
      </trkpt>
      <trkpt lat="46.20325" lon="-1.49695">
        <ele>2.93647</ele>
        <time>2023-05-31T08:39:30.000Z</time>
      </trkpt>
      <trkpt lat="46.20329" lon="-1.497">
        <ele>2.9444</ele>
        <time>2023-05-31T08:39:31.000Z</time>
      </trkpt>
      <trkpt lat="46.20332" lon="-1.49706">
        <ele>2.9707</ele>
        <time>2023-05-31T08:39:32.000Z</time>
      </trkpt>
      <trkpt lat="46.20336" lon="-1.49713">
        <ele>3.01005</ele>
        <time>2023-05-31T08:39:33.000Z</time>
      </trkpt>
      <trkpt lat="46.20339" lon="-1.4972">
        <ele>3.02579</ele>
        <time>2023-05-31T08:39:34.000Z</time>
      </trkpt>
      <trkpt lat="46.20343" lon="-1.49727">
        <ele>3.04575</ele>
        <time>2023-05-31T08:39:35.000Z</time>
      </trkpt>
      <trkpt lat="46.20347" lon="-1.49733">
        <ele>3.04388</ele>
        <time>2023-05-31T08:39:36.000Z</time>
      </trkpt>
      <trkpt lat="46.20352" lon="-1.4974">
        <ele>3.04219</ele>
        <time>2023-05-31T08:39:37.000Z</time>
      </trkpt>
      <trkpt lat="46.20356" lon="-1.49745">
        <ele>3.01617</ele>
        <time>2023-05-31T08:39:38.000Z</time>
      </trkpt>
      <trkpt lat="46.20361" lon="-1.49751">
        <ele>2.99099</ele>
        <time>2023-05-31T08:39:39.000Z</time>
      </trkpt>
      <trkpt lat="46.20365" lon="-1.49757">
        <ele>2.96959</ele>
        <time>2023-05-31T08:39:40.000Z</time>
      </trkpt>
      <trkpt lat="46.2037" lon="-1.49763">
        <ele>2.94522</ele>
        <time>2023-05-31T08:39:41.000Z</time>
      </trkpt>
      <trkpt lat="46.20373" lon="-1.49768">
        <ele>2.93835</ele>
        <time>2023-05-31T08:39:42.000Z</time>
      </trkpt>
      <trkpt lat="46.20377" lon="-1.49774">
        <ele>2.94627</ele>
        <time>2023-05-31T08:39:43.000Z</time>
      </trkpt>
      <trkpt lat="46.20381" lon="-1.49781">
        <ele>2.99624</ele>
        <time>2023-05-31T08:39:44.000Z</time>
      </trkpt>
      <trkpt lat="46.20385" lon="-1.49788">
        <ele>3.03537</ele>
        <time>2023-05-31T08:39:45.000Z</time>
      </trkpt>
      <trkpt lat="46.20389" lon="-1.49794">
        <ele>3.08268</ele>
        <time>2023-05-31T08:39:46.000Z</time>
      </trkpt>
      <trkpt lat="46.20392" lon="-1.49801">
        <ele>3.13668</ele>
        <time>2023-05-31T08:39:47.000Z</time>
      </trkpt>
      <trkpt lat="46.20395" lon="-1.49808">
        <ele>3.21897</ele>
        <time>2023-05-31T08:39:48.000Z</time>
      </trkpt>
      <trkpt lat="46.20397" lon="-1.49816">
        <ele>3.29709</ele>
        <time>2023-05-31T08:39:49.000Z</time>
      </trkpt>
      <trkpt lat="46.204" lon="-1.49824">
        <ele>3.35653</ele>
        <time>2023-05-31T08:39:50.000Z</time>
      </trkpt>
      <trkpt lat="46.20401" lon="-1.49831">
        <ele>3.4188</ele>
        <time>2023-05-31T08:39:51.000Z</time>
      </trkpt>
      <trkpt lat="46.20402" lon="-1.49839">
        <ele>3.47579</ele>
        <time>2023-05-31T08:39:52.000Z</time>
      </trkpt>
      <trkpt lat="46.20403" lon="-1.49846">
        <ele>3.52961</ele>
        <time>2023-05-31T08:39:53.000Z</time>
      </trkpt>
      <trkpt lat="46.20404" lon="-1.49854">
        <ele>3.56599</ele>
        <time>2023-05-31T08:39:54.000Z</time>
      </trkpt>
      <trkpt lat="46.20405" lon="-1.4986">
        <ele>3.60667</ele>
        <time>2023-05-31T08:39:55.000Z</time>
      </trkpt>
      <trkpt lat="46.20406" lon="-1.49868">
        <ele>3.69359</ele>
        <time>2023-05-31T08:39:56.000Z</time>
      </trkpt>
      <trkpt lat="46.20406" lon="-1.49876">
        <ele>3.78137</ele>
        <time>2023-05-31T08:39:57.000Z</time>
      </trkpt>
      <trkpt lat="46.20407" lon="-1.49884">
        <ele>3.88456</ele>
        <time>2023-05-31T08:39:58.000Z</time>
      </trkpt>
      <trkpt lat="46.20408" lon="-1.49893">
        <ele>4.01651</ele>
        <time>2023-05-31T08:39:59.000Z</time>
      </trkpt>
      <trkpt lat="46.20409" lon="-1.49901">
        <ele>4.13299</ele>
        <time>2023-05-31T08:40:00.000Z</time>
      </trkpt>
      <trkpt lat="46.2041" lon="-1.49909">
        <ele>4.25293</ele>
        <time>2023-05-31T08:40:01.000Z</time>
      </trkpt>
      <trkpt lat="46.2041" lon="-1.49917">
        <ele>4.37079</ele>
        <time>2023-05-31T08:40:02.000Z</time>
      </trkpt>
      <trkpt lat="46.2041" lon="-1.49927">
        <ele>4.4891</ele>
        <time>2023-05-31T08:40:03.000Z</time>
      </trkpt>
      <trkpt lat="46.2041" lon="-1.49935">
        <ele>4.52884</ele>
        <time>2023-05-31T08:40:04.000Z</time>
      </trkpt>
      <trkpt lat="46.2041" lon="-1.49943">
        <ele>4.54126</ele>
        <time>2023-05-31T08:40:05.000Z</time>
      </trkpt>
      <trkpt lat="46.20409" lon="-1.49952">
        <ele>4.53462</ele>
        <time>2023-05-31T08:40:06.000Z</time>
      </trkpt>
      <trkpt lat="46.20407" lon="-1.49959">
        <ele>4.51321</ele>
        <time>2023-05-31T08:40:07.000Z</time>
      </trkpt>
      <trkpt lat="46.20406" lon="-1.49967">
        <ele>4.51108</ele>
        <time>2023-05-31T08:40:08.000Z</time>
      </trkpt>
      <trkpt lat="46.20404" lon="-1.49975">
        <ele>4.48984</ele>
        <time>2023-05-31T08:40:09.000Z</time>
      </trkpt>
      <trkpt lat="46.20403" lon="-1.49982">
        <ele>4.46421</ele>
        <time>2023-05-31T08:40:10.000Z</time>
      </trkpt>
      <trkpt lat="46.20402" lon="-1.49989">
        <ele>4.4211</ele>
        <time>2023-05-31T08:40:11.000Z</time>
      </trkpt>
      <trkpt lat="46.20401" lon="-1.49996">
        <ele>4.3933</ele>
        <time>2023-05-31T08:40:12.000Z</time>
      </trkpt>
      <trkpt lat="46.20399" lon="-1.50002">
        <ele>4.39057</ele>
        <time>2023-05-31T08:40:13.000Z</time>
      </trkpt>
      <trkpt lat="46.20399" lon="-1.5001">
        <ele>4.38294</ele>
        <time>2023-05-31T08:40:14.000Z</time>
      </trkpt>
      <trkpt lat="46.20399" lon="-1.50016">
        <ele>4.35791</ele>
        <time>2023-05-31T08:40:15.000Z</time>
      </trkpt>
      <trkpt lat="46.20398" lon="-1.50022">
        <ele>4.33381</ele>
        <time>2023-05-31T08:40:16.000Z</time>
      </trkpt>
      <trkpt lat="46.20398" lon="-1.50028">
        <ele>4.29869</ele>
        <time>2023-05-31T08:40:17.000Z</time>
      </trkpt>
      <trkpt lat="46.20397" lon="-1.50034">
        <ele>4.25655</ele>
        <time>2023-05-31T08:40:18.000Z</time>
      </trkpt>
      <trkpt lat="46.20397" lon="-1.5004">
        <ele>4.17927</ele>
        <time>2023-05-31T08:40:19.000Z</time>
      </trkpt>
      <trkpt lat="46.20397" lon="-1.50046">
        <ele>4.11812</ele>
        <time>2023-05-31T08:40:20.000Z</time>
      </trkpt>
      <trkpt lat="46.20397" lon="-1.50052">
        <ele>4.03876</ele>
        <time>2023-05-31T08:40:21.000Z</time>
      </trkpt>
      <trkpt lat="46.20397" lon="-1.50059">
        <ele>3.96664</ele>
        <time>2023-05-31T08:40:22.000Z</time>
      </trkpt>
      <trkpt lat="46.20398" lon="-1.50065">
        <ele>3.89269</ele>
        <time>2023-05-31T08:40:23.000Z</time>
      </trkpt>
      <trkpt lat="46.20398" lon="-1.50071">
        <ele>3.85727</ele>
        <time>2023-05-31T08:40:24.000Z</time>
      </trkpt>
      <trkpt lat="46.20398" lon="-1.50078">
        <ele>3.83732</ele>
        <time>2023-05-31T08:40:25.000Z</time>
      </trkpt>
      <trkpt lat="46.20397" lon="-1.50085">
        <ele>3.83262</ele>
        <time>2023-05-31T08:40:26.000Z</time>
      </trkpt>
      <trkpt lat="46.20398" lon="-1.50092">
        <ele>3.83293</ele>
        <time>2023-05-31T08:40:27.000Z</time>
      </trkpt>
      <trkpt lat="46.20398" lon="-1.50099">
        <ele>3.80443</ele>
        <time>2023-05-31T08:40:28.000Z</time>
      </trkpt>
      <trkpt lat="46.20399" lon="-1.50107">
        <ele>3.79037</ele>
        <time>2023-05-31T08:40:29.000Z</time>
      </trkpt>
      <trkpt lat="46.20399" lon="-1.50115">
        <ele>3.81004</ele>
        <time>2023-05-31T08:40:30.000Z</time>
      </trkpt>
      <trkpt lat="46.20399" lon="-1.50123">
        <ele>3.83529</ele>
        <time>2023-05-31T08:40:31.000Z</time>
      </trkpt>
      <trkpt lat="46.20399" lon="-1.50131">
        <ele>3.86366</ele>
        <time>2023-05-31T08:40:32.000Z</time>
      </trkpt>
      <trkpt lat="46.20399" lon="-1.50137">
        <ele>3.85616</ele>
        <time>2023-05-31T08:40:33.000Z</time>
      </trkpt>
      <trkpt lat="46.20399" lon="-1.50145">
        <ele>3.8552</ele>
        <time>2023-05-31T08:40:34.000Z</time>
      </trkpt>
      <trkpt lat="46.20399" lon="-1.50152">
        <ele>3.8754</ele>
        <time>2023-05-31T08:40:35.000Z</time>
      </trkpt>
      <trkpt lat="46.204" lon="-1.5016">
        <ele>3.87239</ele>
        <time>2023-05-31T08:40:36.000Z</time>
      </trkpt>
      <trkpt lat="46.204" lon="-1.50167">
        <ele>3.90368</ele>
        <time>2023-05-31T08:40:37.000Z</time>
      </trkpt>
      <trkpt lat="46.20399" lon="-1.50174">
        <ele>3.9317</ele>
        <time>2023-05-31T08:40:38.000Z</time>
      </trkpt>
      <trkpt lat="46.20399" lon="-1.50181">
        <ele>3.96029</ele>
        <time>2023-05-31T08:40:39.000Z</time>
      </trkpt>
      <trkpt lat="46.20399" lon="-1.50188">
        <ele>3.99234</ele>
        <time>2023-05-31T08:40:40.000Z</time>
      </trkpt>
      <trkpt lat="46.204" lon="-1.50195">
        <ele>4.02355</ele>
        <time>2023-05-31T08:40:41.000Z</time>
      </trkpt>
      <trkpt lat="46.20401" lon="-1.50203">
        <ele>4.03193</ele>
        <time>2023-05-31T08:40:42.000Z</time>
      </trkpt>
      <trkpt lat="46.20402" lon="-1.50211">
        <ele>4.0494</ele>
        <time>2023-05-31T08:40:43.000Z</time>
      </trkpt>
      <trkpt lat="46.20404" lon="-1.50219">
        <ele>4.06293</ele>
        <time>2023-05-31T08:40:44.000Z</time>
      </trkpt>
      <trkpt lat="46.20405" lon="-1.50227">
        <ele>4.10655</ele>
        <time>2023-05-31T08:40:45.000Z</time>
      </trkpt>
      <trkpt lat="46.20406" lon="-1.50236">
        <ele>4.13383</ele>
        <time>2023-05-31T08:40:46.000Z</time>
      </trkpt>
      <trkpt lat="46.20408" lon="-1.50244">
        <ele>4.13337</ele>
        <time>2023-05-31T08:40:47.000Z</time>
      </trkpt>
      <trkpt lat="46.20409" lon="-1.50252">
        <ele>4.14248</ele>
        <time>2023-05-31T08:40:48.000Z</time>
      </trkpt>
      <trkpt lat="46.20411" lon="-1.5026">
        <ele>4.18212</ele>
        <time>2023-05-31T08:40:49.000Z</time>
      </trkpt>
      <trkpt lat="46.20413" lon="-1.50268">
        <ele>4.17782</ele>
        <time>2023-05-31T08:40:50.000Z</time>
      </trkpt>
      <trkpt lat="46.20414" lon="-1.50276">
        <ele>4.17827</ele>
        <time>2023-05-31T08:40:51.000Z</time>
      </trkpt>
      <trkpt lat="46.20417" lon="-1.50283">
        <ele>4.17387</ele>
        <time>2023-05-31T08:40:52.000Z</time>
      </trkpt>
      <trkpt lat="46.20419" lon="-1.50291">
        <ele>4.18503</ele>
        <time>2023-05-31T08:40:53.000Z</time>
      </trkpt>
      <trkpt lat="46.20422" lon="-1.50297">
        <ele>4.18653</ele>
        <time>2023-05-31T08:40:54.000Z</time>
      </trkpt>
      <trkpt lat="46.20424" lon="-1.50305">
        <ele>4.15351</ele>
        <time>2023-05-31T08:40:55.000Z</time>
      </trkpt>
      <trkpt lat="46.20427" lon="-1.50311">
        <ele>4.13807</ele>
        <time>2023-05-31T08:40:56.000Z</time>
      </trkpt>
      <trkpt lat="46.2043" lon="-1.50318">
        <ele>4.09204</ele>
        <time>2023-05-31T08:40:57.000Z</time>
      </trkpt>
      <trkpt lat="46.20433" lon="-1.50324">
        <ele>4.04617</ele>
        <time>2023-05-31T08:40:58.000Z</time>
      </trkpt>
      <trkpt lat="46.20436" lon="-1.5033">
        <ele>4.0067</ele>
        <time>2023-05-31T08:40:59.000Z</time>
      </trkpt>
      <trkpt lat="46.20439" lon="-1.50336">
        <ele>3.96662</ele>
        <time>2023-05-31T08:41:00.000Z</time>
      </trkpt>
      <trkpt lat="46.20442" lon="-1.50342">
        <ele>3.95144</ele>
        <time>2023-05-31T08:41:01.000Z</time>
      </trkpt>
      <trkpt lat="46.20445" lon="-1.50347">
        <ele>3.94955</ele>
        <time>2023-05-31T08:41:02.000Z</time>
      </trkpt>
      <trkpt lat="46.20448" lon="-1.50353">
        <ele>3.94131</ele>
        <time>2023-05-31T08:41:03.000Z</time>
      </trkpt>
      <trkpt lat="46.20451" lon="-1.50358">
        <ele>3.938</ele>
        <time>2023-05-31T08:41:04.000Z</time>
      </trkpt>
      <trkpt lat="46.20455" lon="-1.50364">
        <ele>3.91648</ele>
        <time>2023-05-31T08:41:05.000Z</time>
      </trkpt>
      <trkpt lat="46.20459" lon="-1.5037">
        <ele>3.91739</ele>
        <time>2023-05-31T08:41:06.000Z</time>
      </trkpt>
      <trkpt lat="46.20463" lon="-1.50375">
        <ele>3.93231</ele>
        <time>2023-05-31T08:41:07.000Z</time>
      </trkpt>
      <trkpt lat="46.20468" lon="-1.5038">
        <ele>3.94553</ele>
        <time>2023-05-31T08:41:08.000Z</time>
      </trkpt>
      <trkpt lat="46.20472" lon="-1.50385">
        <ele>3.92151</ele>
        <time>2023-05-31T08:41:09.000Z</time>
      </trkpt>
      <trkpt lat="46.20476" lon="-1.50389">
        <ele>3.94253</ele>
        <time>2023-05-31T08:41:10.000Z</time>
      </trkpt>
      <trkpt lat="46.2048" lon="-1.50394">
        <ele>3.94232</ele>
        <time>2023-05-31T08:41:11.000Z</time>
      </trkpt>
      <trkpt lat="46.20484" lon="-1.50399">
        <ele>3.93058</ele>
        <time>2023-05-31T08:41:12.000Z</time>
      </trkpt>
      <trkpt lat="46.20488" lon="-1.50403">
        <ele>3.91427</ele>
        <time>2023-05-31T08:41:13.000Z</time>
      </trkpt>
      <trkpt lat="46.20492" lon="-1.50409">
        <ele>3.92181</ele>
        <time>2023-05-31T08:41:14.000Z</time>
      </trkpt>
      <trkpt lat="46.20495" lon="-1.50414">
        <ele>3.94801</ele>
        <time>2023-05-31T08:41:15.000Z</time>
      </trkpt>
      <trkpt lat="46.20498" lon="-1.5042">
        <ele>3.97918</ele>
        <time>2023-05-31T08:41:16.000Z</time>
      </trkpt>
      <trkpt lat="46.20501" lon="-1.50425">
        <ele>4.01589</ele>
        <time>2023-05-31T08:41:17.000Z</time>
      </trkpt>
      <trkpt lat="46.20503" lon="-1.50431">
        <ele>4.08446</ele>
        <time>2023-05-31T08:41:18.000Z</time>
      </trkpt>
      <trkpt lat="46.20507" lon="-1.50437">
        <ele>4.15986</ele>
        <time>2023-05-31T08:41:19.000Z</time>
      </trkpt>
      <trkpt lat="46.20509" lon="-1.50442">
        <ele>4.25199</ele>
        <time>2023-05-31T08:41:20.000Z</time>
      </trkpt>
      <trkpt lat="46.20512" lon="-1.50448">
        <ele>4.33259</ele>
        <time>2023-05-31T08:41:21.000Z</time>
      </trkpt>
      <trkpt lat="46.20514" lon="-1.50453">
        <ele>4.4062</ele>
        <time>2023-05-31T08:41:22.000Z</time>
      </trkpt>
      <trkpt lat="46.20518" lon="-1.50458">
        <ele>4.47174</ele>
        <time>2023-05-31T08:41:23.000Z</time>
      </trkpt>
      <trkpt lat="46.2052" lon="-1.50464">
        <ele>4.52226</ele>
        <time>2023-05-31T08:41:24.000Z</time>
      </trkpt>
      <trkpt lat="46.20523" lon="-1.50468">
        <ele>4.56222</ele>
        <time>2023-05-31T08:41:25.000Z</time>
      </trkpt>
      <trkpt lat="46.20527" lon="-1.50471">
        <ele>4.58697</ele>
        <time>2023-05-31T08:41:26.000Z</time>
      </trkpt>
      <trkpt lat="46.2053" lon="-1.50474">
        <ele>4.65066</ele>
        <time>2023-05-31T08:41:27.000Z</time>
      </trkpt>
      <trkpt lat="46.20534" lon="-1.50476">
        <ele>4.71772</ele>
        <time>2023-05-31T08:41:28.000Z</time>
      </trkpt>
      <trkpt lat="46.20537" lon="-1.5048">
        <ele>4.80654</ele>
        <time>2023-05-31T08:41:29.000Z</time>
      </trkpt>
      <trkpt lat="46.20542" lon="-1.50483">
        <ele>4.85239</ele>
        <time>2023-05-31T08:41:30.000Z</time>
      </trkpt>
      <trkpt lat="46.20545" lon="-1.50485">
        <ele>4.9128</ele>
        <time>2023-05-31T08:41:31.000Z</time>
      </trkpt>
      <trkpt lat="46.20549" lon="-1.50488">
        <ele>4.98808</ele>
        <time>2023-05-31T08:41:32.000Z</time>
      </trkpt>
      <trkpt lat="46.20552" lon="-1.50489">
        <ele>5.0561</ele>
        <time>2023-05-31T08:41:33.000Z</time>
      </trkpt>
      <trkpt lat="46.20555" lon="-1.50492">
        <ele>5.10175</ele>
        <time>2023-05-31T08:41:34.000Z</time>
      </trkpt>
      <trkpt lat="46.20559" lon="-1.50494">
        <ele>5.14522</ele>
        <time>2023-05-31T08:41:35.000Z</time>
      </trkpt>
      <trkpt lat="46.20563" lon="-1.50497">
        <ele>5.18349</ele>
        <time>2023-05-31T08:41:36.000Z</time>
      </trkpt>
      <trkpt lat="46.20567" lon="-1.50499">
        <ele>5.24605</ele>
        <time>2023-05-31T08:41:37.000Z</time>
      </trkpt>
      <trkpt lat="46.20571" lon="-1.50501">
        <ele>5.26735</ele>
        <time>2023-05-31T08:41:38.000Z</time>
      </trkpt>
      <trkpt lat="46.20575" lon="-1.50504">
        <ele>5.26867</ele>
        <time>2023-05-31T08:41:39.000Z</time>
      </trkpt>
      <trkpt lat="46.20578" lon="-1.50506">
        <ele>5.24128</ele>
        <time>2023-05-31T08:41:40.000Z</time>
      </trkpt>
      <trkpt lat="46.20582" lon="-1.50508">
        <ele>5.20529</ele>
        <time>2023-05-31T08:41:41.000Z</time>
      </trkpt>
      <trkpt lat="46.20586" lon="-1.5051">
        <ele>5.19301</ele>
        <time>2023-05-31T08:41:42.000Z</time>
      </trkpt>
      <trkpt lat="46.20589" lon="-1.50512">
        <ele>5.16395</ele>
        <time>2023-05-31T08:41:43.000Z</time>
      </trkpt>
      <trkpt lat="46.20592" lon="-1.50514">
        <ele>5.18567</ele>
        <time>2023-05-31T08:41:44.000Z</time>
      </trkpt>
      <trkpt lat="46.20595" lon="-1.50516">
        <ele>5.21236</ele>
        <time>2023-05-31T08:41:45.000Z</time>
      </trkpt>
      <trkpt lat="46.20599" lon="-1.50518">
        <ele>5.24736</ele>
        <time>2023-05-31T08:41:46.000Z</time>
      </trkpt>
      <trkpt lat="46.20602" lon="-1.50519">
        <ele>5.24527</ele>
        <time>2023-05-31T08:41:47.000Z</time>
      </trkpt>
      <trkpt lat="46.20605" lon="-1.50521">
        <ele>5.25531</ele>
        <time>2023-05-31T08:41:48.000Z</time>
      </trkpt>
      <trkpt lat="46.20608" lon="-1.50523">
        <ele>5.2492</ele>
        <time>2023-05-31T08:41:49.000Z</time>
      </trkpt>
      <trkpt lat="46.20611" lon="-1.50525">
        <ele>5.25526</ele>
        <time>2023-05-31T08:41:50.000Z</time>
      </trkpt>
      <trkpt lat="46.20614" lon="-1.50527">
        <ele>5.242</ele>
        <time>2023-05-31T08:41:51.000Z</time>
      </trkpt>
      <trkpt lat="46.20617" lon="-1.50529">
        <ele>5.20342</ele>
        <time>2023-05-31T08:41:52.000Z</time>
      </trkpt>
      <trkpt lat="46.2062" lon="-1.50531">
        <ele>5.164</ele>
        <time>2023-05-31T08:41:53.000Z</time>
      </trkpt>
      <trkpt lat="46.20623" lon="-1.50533">
        <ele>5.13812</ele>
        <time>2023-05-31T08:41:54.000Z</time>
      </trkpt>
      <trkpt lat="46.20626" lon="-1.50535">
        <ele>5.11641</ele>
        <time>2023-05-31T08:41:55.000Z</time>
      </trkpt>
      <trkpt lat="46.20629" lon="-1.50536">
        <ele>5.09496</ele>
        <time>2023-05-31T08:41:56.000Z</time>
      </trkpt>
      <trkpt lat="46.20632" lon="-1.50538">
        <ele>5.05956</ele>
        <time>2023-05-31T08:41:57.000Z</time>
      </trkpt>
      <trkpt lat="46.20635" lon="-1.50539">
        <ele>5.04046</ele>
        <time>2023-05-31T08:41:58.000Z</time>
      </trkpt>
      <trkpt lat="46.20638" lon="-1.50541">
        <ele>5.03933</ele>
        <time>2023-05-31T08:41:59.000Z</time>
      </trkpt>
      <trkpt lat="46.20641" lon="-1.50544">
        <ele>5.02258</ele>
        <time>2023-05-31T08:42:00.000Z</time>
      </trkpt>
      <trkpt lat="46.20644" lon="-1.50546">
        <ele>5.0044</ele>
        <time>2023-05-31T08:42:01.000Z</time>
      </trkpt>
      <trkpt lat="46.20646" lon="-1.50548">
        <ele>5.00109</ele>
        <time>2023-05-31T08:42:02.000Z</time>
      </trkpt>
      <trkpt lat="46.20649" lon="-1.5055">
        <ele>5.0006</ele>
        <time>2023-05-31T08:42:03.000Z</time>
      </trkpt>
      <trkpt lat="46.20652" lon="-1.50552">
        <ele>4.96861</ele>
        <time>2023-05-31T08:42:04.000Z</time>
      </trkpt>
      <trkpt lat="46.20654" lon="-1.50555">
        <ele>4.94626</ele>
        <time>2023-05-31T08:42:05.000Z</time>
      </trkpt>
      <trkpt lat="46.20657" lon="-1.50557">
        <ele>4.92475</ele>
        <time>2023-05-31T08:42:06.000Z</time>
      </trkpt>
      <trkpt lat="46.20659" lon="-1.50559">
        <ele>4.90982</ele>
        <time>2023-05-31T08:42:07.000Z</time>
      </trkpt>
      <trkpt lat="46.20662" lon="-1.50562">
        <ele>4.88127</ele>
        <time>2023-05-31T08:42:08.000Z</time>
      </trkpt>
      <trkpt lat="46.20665" lon="-1.50565">
        <ele>4.85523</ele>
        <time>2023-05-31T08:42:09.000Z</time>
      </trkpt>
      <trkpt lat="46.20668" lon="-1.50568">
        <ele>4.816</ele>
        <time>2023-05-31T08:42:10.000Z</time>
      </trkpt>
      <trkpt lat="46.2067" lon="-1.50572">
        <ele>4.80721</ele>
        <time>2023-05-31T08:42:11.000Z</time>
      </trkpt>
      <trkpt lat="46.20673" lon="-1.50575">
        <ele>4.8389</ele>
        <time>2023-05-31T08:42:12.000Z</time>
      </trkpt>
      <trkpt lat="46.20675" lon="-1.50579">
        <ele>4.85091</ele>
        <time>2023-05-31T08:42:13.000Z</time>
      </trkpt>
      <trkpt lat="46.20678" lon="-1.50583">
        <ele>4.84581</ele>
        <time>2023-05-31T08:42:14.000Z</time>
      </trkpt>
      <trkpt lat="46.2068" lon="-1.50587">
        <ele>4.8201</ele>
        <time>2023-05-31T08:42:15.000Z</time>
      </trkpt>
      <trkpt lat="46.20682" lon="-1.50591">
        <ele>4.77843</ele>
        <time>2023-05-31T08:42:16.000Z</time>
      </trkpt>
      <trkpt lat="46.20684" lon="-1.50595">
        <ele>4.75255</ele>
        <time>2023-05-31T08:42:17.000Z</time>
      </trkpt>
      <trkpt lat="46.20686" lon="-1.50599">
        <ele>4.71226</ele>
        <time>2023-05-31T08:42:18.000Z</time>
      </trkpt>
      <trkpt lat="46.20688" lon="-1.50603">
        <ele>4.65542</ele>
        <time>2023-05-31T08:42:19.000Z</time>
      </trkpt>
      <trkpt lat="46.2069" lon="-1.50608">
        <ele>4.61223</ele>
        <time>2023-05-31T08:42:20.000Z</time>
      </trkpt>
      <trkpt lat="46.20692" lon="-1.50612">
        <ele>4.54132</ele>
        <time>2023-05-31T08:42:21.000Z</time>
      </trkpt>
      <trkpt lat="46.20693" lon="-1.50617">
        <ele>4.45715</ele>
        <time>2023-05-31T08:42:22.000Z</time>
      </trkpt>
      <trkpt lat="46.20695" lon="-1.50622">
        <ele>4.38172</ele>
        <time>2023-05-31T08:42:23.000Z</time>
      </trkpt>
      <trkpt lat="46.20696" lon="-1.50627">
        <ele>4.28852</ele>
        <time>2023-05-31T08:42:24.000Z</time>
      </trkpt>
      <trkpt lat="46.20697" lon="-1.50632">
        <ele>4.20879</ele>
        <time>2023-05-31T08:42:25.000Z</time>
      </trkpt>
      <trkpt lat="46.20698" lon="-1.50637">
        <ele>4.12367</ele>
        <time>2023-05-31T08:42:26.000Z</time>
      </trkpt>
      <trkpt lat="46.20698" lon="-1.50643">
        <ele>4.03433</ele>
        <time>2023-05-31T08:42:27.000Z</time>
      </trkpt>
      <trkpt lat="46.20699" lon="-1.50649">
        <ele>3.95647</ele>
        <time>2023-05-31T08:42:28.000Z</time>
      </trkpt>
      <trkpt lat="46.207" lon="-1.50654">
        <ele>3.85692</ele>
        <time>2023-05-31T08:42:29.000Z</time>
      </trkpt>
      <trkpt lat="46.20701" lon="-1.5066">
        <ele>3.77508</ele>
        <time>2023-05-31T08:42:30.000Z</time>
      </trkpt>
      <trkpt lat="46.20701" lon="-1.50667">
        <ele>3.66553</ele>
        <time>2023-05-31T08:42:31.000Z</time>
      </trkpt>
      <trkpt lat="46.20702" lon="-1.50674">
        <ele>3.55338</ele>
        <time>2023-05-31T08:42:32.000Z</time>
      </trkpt>
      <trkpt lat="46.20703" lon="-1.5068">
        <ele>3.45943</ele>
        <time>2023-05-31T08:42:33.000Z</time>
      </trkpt>
      <trkpt lat="46.20704" lon="-1.50686">
        <ele>3.36149</ele>
        <time>2023-05-31T08:42:34.000Z</time>
      </trkpt>
      <trkpt lat="46.20704" lon="-1.50692">
        <ele>3.29158</ele>
        <time>2023-05-31T08:42:35.000Z</time>
      </trkpt>
      <trkpt lat="46.20705" lon="-1.50699">
        <ele>3.24872</ele>
        <time>2023-05-31T08:42:36.000Z</time>
      </trkpt>
      <trkpt lat="46.20706" lon="-1.50704">
        <ele>3.17904</ele>
        <time>2023-05-31T08:42:37.000Z</time>
      </trkpt>
      <trkpt lat="46.20706" lon="-1.5071">
        <ele>3.13122</ele>
        <time>2023-05-31T08:42:38.000Z</time>
      </trkpt>
      <trkpt lat="46.20706" lon="-1.50716">
        <ele>3.10433</ele>
        <time>2023-05-31T08:42:39.000Z</time>
      </trkpt>
      <trkpt lat="46.20707" lon="-1.50721">
        <ele>3.08719</ele>
        <time>2023-05-31T08:42:40.000Z</time>
      </trkpt>
      <trkpt lat="46.20709" lon="-1.50725">
        <ele>3.10959</ele>
        <time>2023-05-31T08:42:41.000Z</time>
      </trkpt>
      <trkpt lat="46.20711" lon="-1.5073">
        <ele>3.11535</ele>
        <time>2023-05-31T08:42:42.000Z</time>
      </trkpt>
      <trkpt lat="46.20712" lon="-1.50735">
        <ele>3.1554</ele>
        <time>2023-05-31T08:42:43.000Z</time>
      </trkpt>
      <trkpt lat="46.20713" lon="-1.5074">
        <ele>3.20049</ele>
        <time>2023-05-31T08:42:44.000Z</time>
      </trkpt>
      <trkpt lat="46.20713" lon="-1.50745">
        <ele>3.24232</ele>
        <time>2023-05-31T08:42:45.000Z</time>
      </trkpt>
      <trkpt lat="46.20713" lon="-1.5075">
        <ele>3.29566</ele>
        <time>2023-05-31T08:42:46.000Z</time>
      </trkpt>
      <trkpt lat="46.20713" lon="-1.50755">
        <ele>3.33098</ele>
        <time>2023-05-31T08:42:47.000Z</time>
      </trkpt>
      <trkpt lat="46.20712" lon="-1.5076">
        <ele>3.34324</ele>
        <time>2023-05-31T08:42:48.000Z</time>
      </trkpt>
      <trkpt lat="46.20711" lon="-1.50765">
        <ele>3.34909</ele>
        <time>2023-05-31T08:42:49.000Z</time>
      </trkpt>
      <trkpt lat="46.20711" lon="-1.5077">
        <ele>3.34625</ele>
        <time>2023-05-31T08:42:50.000Z</time>
      </trkpt>
      <trkpt lat="46.20711" lon="-1.50775">
        <ele>3.35256</ele>
        <time>2023-05-31T08:42:51.000Z</time>
      </trkpt>
      <trkpt lat="46.20712" lon="-1.50781">
        <ele>3.32779</ele>
        <time>2023-05-31T08:42:52.000Z</time>
      </trkpt>
      <trkpt lat="46.20714" lon="-1.50786">
        <ele>3.31792</ele>
        <time>2023-05-31T08:42:53.000Z</time>
      </trkpt>
      <trkpt lat="46.20716" lon="-1.50791">
        <ele>3.3378</ele>
        <time>2023-05-31T08:42:54.000Z</time>
      </trkpt>
      <trkpt lat="46.20718" lon="-1.50796">
        <ele>3.36091</ele>
        <time>2023-05-31T08:42:55.000Z</time>
      </trkpt>
      <trkpt lat="46.20721" lon="-1.508">
        <ele>3.39526</ele>
        <time>2023-05-31T08:42:56.000Z</time>
      </trkpt>
      <trkpt lat="46.20723" lon="-1.50805">
        <ele>3.44218</ele>
        <time>2023-05-31T08:42:57.000Z</time>
      </trkpt>
      <trkpt lat="46.20725" lon="-1.50809">
        <ele>3.47773</ele>
        <time>2023-05-31T08:42:58.000Z</time>
      </trkpt>
      <trkpt lat="46.20728" lon="-1.50814">
        <ele>3.49773</ele>
        <time>2023-05-31T08:42:59.000Z</time>
      </trkpt>
      <trkpt lat="46.20731" lon="-1.50819">
        <ele>3.51728</ele>
        <time>2023-05-31T08:43:00.000Z</time>
      </trkpt>
      <trkpt lat="46.20734" lon="-1.50824">
        <ele>3.51355</ele>
        <time>2023-05-31T08:43:01.000Z</time>
      </trkpt>
      <trkpt lat="46.20736" lon="-1.50828">
        <ele>3.50657</ele>
        <time>2023-05-31T08:43:02.000Z</time>
      </trkpt>
      <trkpt lat="46.20739" lon="-1.50832">
        <ele>3.48338</ele>
        <time>2023-05-31T08:43:03.000Z</time>
      </trkpt>
      <trkpt lat="46.20742" lon="-1.50837">
        <ele>3.50744</ele>
        <time>2023-05-31T08:43:04.000Z</time>
      </trkpt>
      <trkpt lat="46.20744" lon="-1.50841">
        <ele>3.50815</ele>
        <time>2023-05-31T08:43:05.000Z</time>
      </trkpt>
      <trkpt lat="46.20747" lon="-1.50846">
        <ele>3.49553</ele>
        <time>2023-05-31T08:43:06.000Z</time>
      </trkpt>
      <trkpt lat="46.2075" lon="-1.5085">
        <ele>3.49436</ele>
        <time>2023-05-31T08:43:07.000Z</time>
      </trkpt>
      <trkpt lat="46.20753" lon="-1.50854">
        <ele>3.50913</ele>
        <time>2023-05-31T08:43:08.000Z</time>
      </trkpt>
      <trkpt lat="46.20755" lon="-1.50858">
        <ele>3.55052</ele>
        <time>2023-05-31T08:43:09.000Z</time>
      </trkpt>
      <trkpt lat="46.20758" lon="-1.50862">
        <ele>3.5985</ele>
        <time>2023-05-31T08:43:10.000Z</time>
      </trkpt>
      <trkpt lat="46.20762" lon="-1.50866">
        <ele>3.65075</ele>
        <time>2023-05-31T08:43:11.000Z</time>
      </trkpt>
      <trkpt lat="46.20765" lon="-1.5087">
        <ele>3.71999</ele>
        <time>2023-05-31T08:43:12.000Z</time>
      </trkpt>
      <trkpt lat="46.20768" lon="-1.50873">
        <ele>3.7684</ele>
        <time>2023-05-31T08:43:13.000Z</time>
      </trkpt>
      <trkpt lat="46.20771" lon="-1.50877">
        <ele>3.80084</ele>
        <time>2023-05-31T08:43:14.000Z</time>
      </trkpt>
      <trkpt lat="46.20774" lon="-1.50881">
        <ele>3.81835</ele>
        <time>2023-05-31T08:43:15.000Z</time>
      </trkpt>
      <trkpt lat="46.20777" lon="-1.50885">
        <ele>3.81678</ele>
        <time>2023-05-31T08:43:16.000Z</time>
      </trkpt>
      <trkpt lat="46.20781" lon="-1.50888">
        <ele>3.80728</ele>
        <time>2023-05-31T08:43:17.000Z</time>
      </trkpt>
      <trkpt lat="46.20784" lon="-1.50892">
        <ele>3.79718</ele>
        <time>2023-05-31T08:43:18.000Z</time>
      </trkpt>
      <trkpt lat="46.20787" lon="-1.50896">
        <ele>3.78922</ele>
        <time>2023-05-31T08:43:19.000Z</time>
      </trkpt>
      <trkpt lat="46.20791" lon="-1.509">
        <ele>3.76658</ele>
        <time>2023-05-31T08:43:20.000Z</time>
      </trkpt>
      <trkpt lat="46.20794" lon="-1.50904">
        <ele>3.76974</ele>
        <time>2023-05-31T08:43:21.000Z</time>
      </trkpt>
      <trkpt lat="46.20798" lon="-1.50908">
        <ele>3.78204</ele>
        <time>2023-05-31T08:43:22.000Z</time>
      </trkpt>
      <trkpt lat="46.20801" lon="-1.50912">
        <ele>3.78786</ele>
        <time>2023-05-31T08:43:23.000Z</time>
      </trkpt>
      <trkpt lat="46.20804" lon="-1.50916">
        <ele>3.74628</ele>
        <time>2023-05-31T08:43:24.000Z</time>
      </trkpt>
      <trkpt lat="46.20808" lon="-1.50919">
        <ele>3.72013</ele>
        <time>2023-05-31T08:43:25.000Z</time>
      </trkpt>
      <trkpt lat="46.20811" lon="-1.50923">
        <ele>3.71128</ele>
        <time>2023-05-31T08:43:26.000Z</time>
      </trkpt>
      <trkpt lat="46.20815" lon="-1.50927">
        <ele>3.72624</ele>
        <time>2023-05-31T08:43:27.000Z</time>
      </trkpt>
      <trkpt lat="46.20818" lon="-1.50932">
        <ele>3.72938</ele>
        <time>2023-05-31T08:43:28.000Z</time>
      </trkpt>
      <trkpt lat="46.20821" lon="-1.50937">
        <ele>3.73756</ele>
        <time>2023-05-31T08:43:29.000Z</time>
      </trkpt>
      <trkpt lat="46.20824" lon="-1.50942">
        <ele>3.74054</ele>
        <time>2023-05-31T08:43:30.000Z</time>
      </trkpt>
      <trkpt lat="46.20827" lon="-1.50947">
        <ele>3.75118</ele>
        <time>2023-05-31T08:43:31.000Z</time>
      </trkpt>
      <trkpt lat="46.2083" lon="-1.50952">
        <ele>3.76432</ele>
        <time>2023-05-31T08:43:32.000Z</time>
      </trkpt>
      <trkpt lat="46.20834" lon="-1.50957">
        <ele>3.76614</ele>
        <time>2023-05-31T08:43:33.000Z</time>
      </trkpt>
      <trkpt lat="46.20837" lon="-1.50962">
        <ele>3.77034</ele>
        <time>2023-05-31T08:43:34.000Z</time>
      </trkpt>
      <trkpt lat="46.2084" lon="-1.50966">
        <ele>3.77933</ele>
        <time>2023-05-31T08:43:35.000Z</time>
      </trkpt>
      <trkpt lat="46.20844" lon="-1.50969">
        <ele>3.7731</ele>
        <time>2023-05-31T08:43:36.000Z</time>
      </trkpt>
      <trkpt lat="46.20847" lon="-1.50973">
        <ele>3.77371</ele>
        <time>2023-05-31T08:43:37.000Z</time>
      </trkpt>
      <trkpt lat="46.20851" lon="-1.50977">
        <ele>3.77126</ele>
        <time>2023-05-31T08:43:38.000Z</time>
      </trkpt>
      <trkpt lat="46.20854" lon="-1.50982">
        <ele>3.79278</ele>
        <time>2023-05-31T08:43:39.000Z</time>
      </trkpt>
      <trkpt lat="46.20857" lon="-1.50987">
        <ele>3.82008</ele>
        <time>2023-05-31T08:43:40.000Z</time>
      </trkpt>
      <trkpt lat="46.20861" lon="-1.50991">
        <ele>3.82633</ele>
        <time>2023-05-31T08:43:41.000Z</time>
      </trkpt>
      <trkpt lat="46.20864" lon="-1.50996">
        <ele>3.83331</ele>
        <time>2023-05-31T08:43:42.000Z</time>
      </trkpt>
      <trkpt lat="46.20867" lon="-1.51001">
        <ele>3.83663</ele>
        <time>2023-05-31T08:43:43.000Z</time>
      </trkpt>
      <trkpt lat="46.2087" lon="-1.51006">
        <ele>3.83842</ele>
        <time>2023-05-31T08:43:44.000Z</time>
      </trkpt>
      <trkpt lat="46.20873" lon="-1.51011">
        <ele>3.84216</ele>
        <time>2023-05-31T08:43:45.000Z</time>
      </trkpt>
      <trkpt lat="46.20875" lon="-1.51017">
        <ele>3.8361</ele>
        <time>2023-05-31T08:43:46.000Z</time>
      </trkpt>
      <trkpt lat="46.20878" lon="-1.51022">
        <ele>3.80205</ele>
        <time>2023-05-31T08:43:47.000Z</time>
      </trkpt>
      <trkpt lat="46.2088" lon="-1.51028">
        <ele>3.78328</ele>
        <time>2023-05-31T08:43:48.000Z</time>
      </trkpt>
      <trkpt lat="46.20881" lon="-1.51034">
        <ele>3.74761</ele>
        <time>2023-05-31T08:43:49.000Z</time>
      </trkpt>
      <trkpt lat="46.20883" lon="-1.5104">
        <ele>3.71684</ele>
        <time>2023-05-31T08:43:50.000Z</time>
      </trkpt>
      <trkpt lat="46.20884" lon="-1.51046">
        <ele>3.67574</ele>
        <time>2023-05-31T08:43:51.000Z</time>
      </trkpt>
      <trkpt lat="46.20885" lon="-1.51052">
        <ele>3.6155</ele>
        <time>2023-05-31T08:43:52.000Z</time>
      </trkpt>
      <trkpt lat="46.20886" lon="-1.51057">
        <ele>3.60163</ele>
        <time>2023-05-31T08:43:53.000Z</time>
      </trkpt>
      <trkpt lat="46.20887" lon="-1.51064">
        <ele>3.61559</ele>
        <time>2023-05-31T08:43:54.000Z</time>
      </trkpt>
      <trkpt lat="46.20889" lon="-1.51069">
        <ele>3.61603</ele>
        <time>2023-05-31T08:43:55.000Z</time>
      </trkpt>
      <trkpt lat="46.2089" lon="-1.51075">
        <ele>3.64256</ele>
        <time>2023-05-31T08:43:56.000Z</time>
      </trkpt>
      <trkpt lat="46.20892" lon="-1.5108">
        <ele>3.64126</ele>
        <time>2023-05-31T08:43:57.000Z</time>
      </trkpt>
      <trkpt lat="46.20894" lon="-1.51086">
        <ele>3.66167</ele>
        <time>2023-05-31T08:43:58.000Z</time>
      </trkpt>
      <trkpt lat="46.20896" lon="-1.51091">
        <ele>3.6605</ele>
        <time>2023-05-31T08:43:59.000Z</time>
      </trkpt>
      <trkpt lat="46.20898" lon="-1.51095">
        <ele>3.65885</ele>
        <time>2023-05-31T08:44:00.000Z</time>
      </trkpt>
      <trkpt lat="46.209" lon="-1.51099">
        <ele>3.67736</ele>
        <time>2023-05-31T08:44:01.000Z</time>
      </trkpt>
      <trkpt lat="46.20902" lon="-1.51103">
        <ele>3.68738</ele>
        <time>2023-05-31T08:44:02.000Z</time>
      </trkpt>
      <trkpt lat="46.20904" lon="-1.51106">
        <ele>3.70327</ele>
        <time>2023-05-31T08:44:03.000Z</time>
      </trkpt>
      <trkpt lat="46.20906" lon="-1.51109">
        <ele>3.73973</ele>
        <time>2023-05-31T08:44:04.000Z</time>
      </trkpt>
      <trkpt lat="46.20909" lon="-1.51112">
        <ele>3.77068</ele>
        <time>2023-05-31T08:44:05.000Z</time>
      </trkpt>
      <trkpt lat="46.20911" lon="-1.51114">
        <ele>3.78937</ele>
        <time>2023-05-31T08:44:06.000Z</time>
      </trkpt>
      <trkpt lat="46.20914" lon="-1.51116">
        <ele>3.82735</ele>
        <time>2023-05-31T08:44:07.000Z</time>
      </trkpt>
      <trkpt lat="46.20917" lon="-1.51118">
        <ele>3.86204</ele>
        <time>2023-05-31T08:44:08.000Z</time>
      </trkpt>
      <trkpt lat="46.20919" lon="-1.5112">
        <ele>3.91142</ele>
        <time>2023-05-31T08:44:09.000Z</time>
      </trkpt>
      <trkpt lat="46.20922" lon="-1.51123">
        <ele>3.9698</ele>
        <time>2023-05-31T08:44:10.000Z</time>
      </trkpt>
      <trkpt lat="46.20924" lon="-1.51127">
        <ele>4.05373</ele>
        <time>2023-05-31T08:44:11.000Z</time>
      </trkpt>
      <trkpt lat="46.20925" lon="-1.51132">
        <ele>4.15242</ele>
        <time>2023-05-31T08:44:12.000Z</time>
      </trkpt>
      <trkpt lat="46.20926" lon="-1.51137">
        <ele>4.22188</ele>
        <time>2023-05-31T08:44:13.000Z</time>
      </trkpt>
      <trkpt lat="46.20928" lon="-1.51142">
        <ele>4.25629</ele>
        <time>2023-05-31T08:44:14.000Z</time>
      </trkpt>
      <trkpt lat="46.20931" lon="-1.51146">
        <ele>4.32769</ele>
        <time>2023-05-31T08:44:15.000Z</time>
      </trkpt>
      <trkpt lat="46.20933" lon="-1.5115">
        <ele>4.37443</ele>
        <time>2023-05-31T08:44:16.000Z</time>
      </trkpt>
      <trkpt lat="46.20936" lon="-1.51154">
        <ele>4.44807</ele>
        <time>2023-05-31T08:44:17.000Z</time>
      </trkpt>
      <trkpt lat="46.20939" lon="-1.51158">
        <ele>4.50104</ele>
        <time>2023-05-31T08:44:18.000Z</time>
      </trkpt>
      <trkpt lat="46.20941" lon="-1.51162">
        <ele>4.56287</ele>
        <time>2023-05-31T08:44:19.000Z</time>
      </trkpt>
      <trkpt lat="46.20944" lon="-1.51165">
        <ele>4.62366</ele>
        <time>2023-05-31T08:44:20.000Z</time>
      </trkpt>
      <trkpt lat="46.20947" lon="-1.51169">
        <ele>4.6726</ele>
        <time>2023-05-31T08:44:21.000Z</time>
      </trkpt>
      <trkpt lat="46.20949" lon="-1.51173">
        <ele>4.72696</ele>
        <time>2023-05-31T08:44:22.000Z</time>
      </trkpt>
      <trkpt lat="46.20952" lon="-1.51177">
        <ele>4.77515</ele>
        <time>2023-05-31T08:44:23.000Z</time>
      </trkpt>
      <trkpt lat="46.20954" lon="-1.51181">
        <ele>4.82526</ele>
        <time>2023-05-31T08:44:24.000Z</time>
      </trkpt>
      <trkpt lat="46.20957" lon="-1.51185">
        <ele>4.87807</ele>
        <time>2023-05-31T08:44:25.000Z</time>
      </trkpt>
      <trkpt lat="46.20959" lon="-1.51189">
        <ele>4.94298</ele>
        <time>2023-05-31T08:44:26.000Z</time>
      </trkpt>
      <trkpt lat="46.20962" lon="-1.51194">
        <ele>4.99445</ele>
        <time>2023-05-31T08:44:27.000Z</time>
      </trkpt>
      <trkpt lat="46.20964" lon="-1.51198">
        <ele>5.03201</ele>
        <time>2023-05-31T08:44:28.000Z</time>
      </trkpt>
      <trkpt lat="46.20967" lon="-1.51202">
        <ele>5.05155</ele>
        <time>2023-05-31T08:44:29.000Z</time>
      </trkpt>
      <trkpt lat="46.2097" lon="-1.51207">
        <ele>5.0685</ele>
        <time>2023-05-31T08:44:30.000Z</time>
      </trkpt>
      <trkpt lat="46.20973" lon="-1.5121">
        <ele>5.06235</ele>
        <time>2023-05-31T08:44:31.000Z</time>
      </trkpt>
      <trkpt lat="46.20976" lon="-1.51214">
        <ele>5.0742</ele>
        <time>2023-05-31T08:44:32.000Z</time>
      </trkpt>
      <trkpt lat="46.2098" lon="-1.51217">
        <ele>5.09975</ele>
        <time>2023-05-31T08:44:33.000Z</time>
      </trkpt>
      <trkpt lat="46.20984" lon="-1.5122">
        <ele>5.12612</ele>
        <time>2023-05-31T08:44:34.000Z</time>
      </trkpt>
      <trkpt lat="46.20987" lon="-1.51224">
        <ele>5.11909</ele>
        <time>2023-05-31T08:44:35.000Z</time>
      </trkpt>
      <trkpt lat="46.20991" lon="-1.51227">
        <ele>5.12846</ele>
        <time>2023-05-31T08:44:36.000Z</time>
      </trkpt>
      <trkpt lat="46.20995" lon="-1.51228">
        <ele>5.13605</ele>
        <time>2023-05-31T08:44:37.000Z</time>
      </trkpt>
      <trkpt lat="46.20999" lon="-1.5123">
        <ele>5.13811</ele>
        <time>2023-05-31T08:44:38.000Z</time>
      </trkpt>
      <trkpt lat="46.21003" lon="-1.51231">
        <ele>5.14815</ele>
        <time>2023-05-31T08:44:39.000Z</time>
      </trkpt>
      <trkpt lat="46.21006" lon="-1.51231">
        <ele>5.15383</ele>
        <time>2023-05-31T08:44:40.000Z</time>
      </trkpt>
      <trkpt lat="46.2101" lon="-1.51232">
        <ele>5.14935</ele>
        <time>2023-05-31T08:44:41.000Z</time>
      </trkpt>
      <trkpt lat="46.21015" lon="-1.51233">
        <ele>5.15111</ele>
        <time>2023-05-31T08:44:42.000Z</time>
      </trkpt>
      <trkpt lat="46.21019" lon="-1.51233">
        <ele>5.14904</ele>
        <time>2023-05-31T08:44:43.000Z</time>
      </trkpt>
      <trkpt lat="46.21023" lon="-1.51233">
        <ele>5.14379</ele>
        <time>2023-05-31T08:44:44.000Z</time>
      </trkpt>
      <trkpt lat="46.21027" lon="-1.51232">
        <ele>5.14106</ele>
        <time>2023-05-31T08:44:45.000Z</time>
      </trkpt>
      <trkpt lat="46.21031" lon="-1.51231">
        <ele>5.13262</ele>
        <time>2023-05-31T08:44:46.000Z</time>
      </trkpt>
      <trkpt lat="46.21034" lon="-1.51228">
        <ele>5.12455</ele>
        <time>2023-05-31T08:44:47.000Z</time>
      </trkpt>
      <trkpt lat="46.21038" lon="-1.51226">
        <ele>5.13419</ele>
        <time>2023-05-31T08:44:48.000Z</time>
      </trkpt>
      <trkpt lat="46.21041" lon="-1.51223">
        <ele>5.14811</ele>
        <time>2023-05-31T08:44:49.000Z</time>
      </trkpt>
      <trkpt lat="46.21045" lon="-1.5122">
        <ele>5.16008</ele>
        <time>2023-05-31T08:44:50.000Z</time>
      </trkpt>
      <trkpt lat="46.21048" lon="-1.51218">
        <ele>5.17013</ele>
        <time>2023-05-31T08:44:51.000Z</time>
      </trkpt>
      <trkpt lat="46.21051" lon="-1.51216">
        <ele>5.16623</ele>
        <time>2023-05-31T08:44:52.000Z</time>
      </trkpt>
      <trkpt lat="46.21054" lon="-1.51214">
        <ele>5.17951</ele>
        <time>2023-05-31T08:44:53.000Z</time>
      </trkpt>
      <trkpt lat="46.21057" lon="-1.51212">
        <ele>5.22194</ele>
        <time>2023-05-31T08:44:54.000Z</time>
      </trkpt>
      <trkpt lat="46.2106" lon="-1.51212">
        <ele>5.27087</ele>
        <time>2023-05-31T08:44:55.000Z</time>
      </trkpt>
      <trkpt lat="46.21064" lon="-1.51213">
        <ele>5.30801</ele>
        <time>2023-05-31T08:44:56.000Z</time>
      </trkpt>
      <trkpt lat="46.21066" lon="-1.51215">
        <ele>5.36292</ele>
        <time>2023-05-31T08:44:57.000Z</time>
      </trkpt>
      <trkpt lat="46.21068" lon="-1.51217">
        <ele>5.43384</ele>
        <time>2023-05-31T08:44:58.000Z</time>
      </trkpt>
      <trkpt lat="46.2107" lon="-1.5122">
        <ele>5.48338</ele>
        <time>2023-05-31T08:44:59.000Z</time>
      </trkpt>
      <trkpt lat="46.21072" lon="-1.51224">
        <ele>5.5527</ele>
        <time>2023-05-31T08:45:00.000Z</time>
      </trkpt>
      <trkpt lat="46.21073" lon="-1.51229">
        <ele>5.63154</ele>
        <time>2023-05-31T08:45:01.000Z</time>
      </trkpt>
      <trkpt lat="46.21074" lon="-1.51234">
        <ele>5.6736</ele>
        <time>2023-05-31T08:45:02.000Z</time>
      </trkpt>
      <trkpt lat="46.21074" lon="-1.51239">
        <ele>5.71425</ele>
        <time>2023-05-31T08:45:03.000Z</time>
      </trkpt>
      <trkpt lat="46.21074" lon="-1.51244">
        <ele>5.73676</ele>
        <time>2023-05-31T08:45:04.000Z</time>
      </trkpt>
      <trkpt lat="46.21073" lon="-1.5125">
        <ele>5.76814</ele>
        <time>2023-05-31T08:45:05.000Z</time>
      </trkpt>
      <trkpt lat="46.21073" lon="-1.51256">
        <ele>5.80585</ele>
        <time>2023-05-31T08:45:06.000Z</time>
      </trkpt>
      <trkpt lat="46.21074" lon="-1.51261">
        <ele>5.81639</ele>
        <time>2023-05-31T08:45:07.000Z</time>
      </trkpt>
      <trkpt lat="46.21076" lon="-1.51267">
        <ele>5.86612</ele>
        <time>2023-05-31T08:45:08.000Z</time>
      </trkpt>
      <trkpt lat="46.21078" lon="-1.51273">
        <ele>5.89805</ele>
        <time>2023-05-31T08:45:09.000Z</time>
      </trkpt>
      <trkpt lat="46.2108" lon="-1.51279">
        <ele>5.92894</ele>
        <time>2023-05-31T08:45:10.000Z</time>
      </trkpt>
      <trkpt lat="46.21081" lon="-1.51286">
        <ele>5.95755</ele>
        <time>2023-05-31T08:45:11.000Z</time>
      </trkpt>
      <trkpt lat="46.21082" lon="-1.51292">
        <ele>5.97236</ele>
        <time>2023-05-31T08:45:12.000Z</time>
      </trkpt>
      <trkpt lat="46.21084" lon="-1.51298">
        <ele>5.97027</ele>
        <time>2023-05-31T08:45:13.000Z</time>
      </trkpt>
      <trkpt lat="46.21085" lon="-1.51304">
        <ele>5.93196</ele>
        <time>2023-05-31T08:45:14.000Z</time>
      </trkpt>
      <trkpt lat="46.21086" lon="-1.51309">
        <ele>5.88202</ele>
        <time>2023-05-31T08:45:15.000Z</time>
      </trkpt>
      <trkpt lat="46.21088" lon="-1.51316">
        <ele>5.84529</ele>
        <time>2023-05-31T08:45:16.000Z</time>
      </trkpt>
      <trkpt lat="46.2109" lon="-1.51321">
        <ele>5.76999</ele>
        <time>2023-05-31T08:45:17.000Z</time>
      </trkpt>
      <trkpt lat="46.21092" lon="-1.51327">
        <ele>5.7052</ele>
        <time>2023-05-31T08:45:18.000Z</time>
      </trkpt>
      <trkpt lat="46.21094" lon="-1.51332">
        <ele>5.64883</ele>
        <time>2023-05-31T08:45:19.000Z</time>
      </trkpt>
      <trkpt lat="46.21095" lon="-1.51337">
        <ele>5.57899</ele>
        <time>2023-05-31T08:45:20.000Z</time>
      </trkpt>
      <trkpt lat="46.21098" lon="-1.51339">
        <ele>5.52328</ele>
        <time>2023-05-31T08:45:21.000Z</time>
      </trkpt>
      <trkpt lat="46.21101" lon="-1.51339">
        <ele>5.51585</ele>
        <time>2023-05-31T08:45:23.000Z</time>
      </trkpt>
      <trkpt lat="46.21104" lon="-1.51338">
        <ele>5.50831</ele>
        <time>2023-05-31T08:45:25.000Z</time>
      </trkpt>
      <trkpt lat="46.21104" lon="-1.51341">
        <ele>5.55178</ele>
        <time>2023-05-31T08:45:50.000Z</time>
      </trkpt>
      <trkpt lat="46.21103" lon="-1.51343">
        <ele>5.54911</ele>
        <time>2023-05-31T08:46:36.000Z</time>
      </trkpt>
      <trkpt lat="46.21102" lon="-1.51347">
        <ele>5.54144</ele>
        <time>2023-05-31T08:46:38.000Z</time>
      </trkpt>
      <trkpt lat="46.211" lon="-1.51347">
        <ele>5.58404</ele>
        <time>2023-05-31T08:50:44.000Z</time>
      </trkpt>
      <trkpt lat="46.21101" lon="-1.51345">
        <ele>5.58013</ele>
        <time>2023-05-31T08:51:52.000Z</time>
      </trkpt>
      <trkpt lat="46.21101" lon="-1.51342">
        <ele>5.50524</ele>
        <time>2023-05-31T08:52:01.000Z</time>
      </trkpt>
      <trkpt lat="46.21101" lon="-1.51339">
        <ele>5.38637</ele>
        <time>2023-05-31T08:52:07.000Z</time>
      </trkpt>
      <trkpt lat="46.21103" lon="-1.51338">
        <ele>5.2918</ele>
        <time>2023-05-31T08:52:17.000Z</time>
      </trkpt>
      <trkpt lat="46.21105" lon="-1.51339">
        <ele>5.26618</ele>
        <time>2023-05-31T08:52:25.000Z</time>
      </trkpt>
      <trkpt lat="46.21105" lon="-1.51342">
        <ele>5.22242</ele>
        <time>2023-05-31T08:52:35.000Z</time>
      </trkpt>
      <trkpt lat="46.21104" lon="-1.51344">
        <ele>5.23554</ele>
        <time>2023-05-31T08:52:45.000Z</time>
      </trkpt>
      <trkpt lat="46.21102" lon="-1.51345">
        <ele>5.26738</ele>
        <time>2023-05-31T08:52:49.000Z</time>
      </trkpt>
      <trkpt lat="46.21102" lon="-1.51348">
        <ele>5.37187</ele>
        <time>2023-05-31T08:54:19.000Z</time>
      </trkpt>
      <trkpt lat="46.21104" lon="-1.51347">
        <ele>5.51814</ele>
        <time>2023-05-31T08:54:54.000Z</time>
      </trkpt>
      <trkpt lat="46.21102" lon="-1.51347">
        <ele>5.59611</ele>
        <time>2023-05-31T08:55:17.000Z</time>
      </trkpt>
      <trkpt lat="46.21102" lon="-1.51343">
        <ele>5.69823</ele>
        <time>2023-05-31T08:55:43.000Z</time>
      </trkpt>
      <trkpt lat="46.21102" lon="-1.5134">
        <ele>5.7891</ele>
        <time>2023-05-31T08:55:45.000Z</time>
      </trkpt>
      <trkpt lat="46.21104" lon="-1.51341">
        <ele>5.84458</ele>
        <time>2023-05-31T08:55:47.000Z</time>
      </trkpt>
      <trkpt lat="46.21104" lon="-1.51345">
        <ele>5.88738</ele>
        <time>2023-05-31T08:55:49.000Z</time>
      </trkpt>
      <trkpt lat="46.21103" lon="-1.51347">
        <ele>5.90901</ele>
        <time>2023-05-31T08:55:54.000Z</time>
      </trkpt>
      <trkpt lat="46.21105" lon="-1.51349">
        <ele>5.91101</ele>
        <time>2023-05-31T08:56:14.000Z</time>
      </trkpt>
      <trkpt lat="46.21107" lon="-1.51351">
        <ele>5.90325</ele>
        <time>2023-05-31T08:56:16.000Z</time>
      </trkpt>
      <trkpt lat="46.21108" lon="-1.51354">
        <ele>5.92539</ele>
        <time>2023-05-31T08:56:18.000Z</time>
      </trkpt>
      <trkpt lat="46.2111" lon="-1.51358">
        <ele>5.9046</ele>
        <time>2023-05-31T08:56:20.000Z</time>
      </trkpt>
      <trkpt lat="46.21111" lon="-1.51361">
        <ele>5.89634</ele>
        <time>2023-05-31T08:56:21.000Z</time>
      </trkpt>
      <trkpt lat="46.21112" lon="-1.51363">
        <ele>5.9847</ele>
        <time>2023-05-31T08:56:22.000Z</time>
      </trkpt>
      <trkpt lat="46.21114" lon="-1.51365">
        <ele>6.1203</ele>
        <time>2023-05-31T08:56:23.000Z</time>
      </trkpt>
      <trkpt lat="46.21115" lon="-1.51368">
        <ele>6.22791</ele>
        <time>2023-05-31T08:56:24.000Z</time>
      </trkpt>
      <trkpt lat="46.21117" lon="-1.5137">
        <ele>6.24855</ele>
        <time>2023-05-31T08:56:25.000Z</time>
      </trkpt>
      <trkpt lat="46.21119" lon="-1.51373">
        <ele>6.2681</ele>
        <time>2023-05-31T08:56:26.000Z</time>
      </trkpt>
      <trkpt lat="46.2112" lon="-1.51377">
        <ele>6.24587</ele>
        <time>2023-05-31T08:56:27.000Z</time>
      </trkpt>
      <trkpt lat="46.21122" lon="-1.5138">
        <ele>6.23598</ele>
        <time>2023-05-31T08:56:28.000Z</time>
      </trkpt>
      <trkpt lat="46.21125" lon="-1.51384">
        <ele>6.18598</ele>
        <time>2023-05-31T08:56:29.000Z</time>
      </trkpt>
      <trkpt lat="46.21128" lon="-1.51388">
        <ele>6.08978</ele>
        <time>2023-05-31T08:56:30.000Z</time>
      </trkpt>
      <trkpt lat="46.2113" lon="-1.51392">
        <ele>6.05176</ele>
        <time>2023-05-31T08:56:31.000Z</time>
      </trkpt>
      <trkpt lat="46.21133" lon="-1.51396">
        <ele>5.98471</ele>
        <time>2023-05-31T08:56:32.000Z</time>
      </trkpt>
      <trkpt lat="46.21135" lon="-1.514">
        <ele>5.92951</ele>
        <time>2023-05-31T08:56:33.000Z</time>
      </trkpt>
      <trkpt lat="46.21138" lon="-1.51403">
        <ele>5.91016</ele>
        <time>2023-05-31T08:56:34.000Z</time>
      </trkpt>
      <trkpt lat="46.21141" lon="-1.51406">
        <ele>5.88667</ele>
        <time>2023-05-31T08:56:35.000Z</time>
      </trkpt>
      <trkpt lat="46.21143" lon="-1.51409">
        <ele>5.8969</ele>
        <time>2023-05-31T08:56:36.000Z</time>
      </trkpt>
      <trkpt lat="46.21146" lon="-1.51412">
        <ele>5.8834</ele>
        <time>2023-05-31T08:56:37.000Z</time>
      </trkpt>
      <trkpt lat="46.21149" lon="-1.51415">
        <ele>5.89845</ele>
        <time>2023-05-31T08:56:38.000Z</time>
      </trkpt>
      <trkpt lat="46.21151" lon="-1.51418">
        <ele>5.87167</ele>
        <time>2023-05-31T08:56:39.000Z</time>
      </trkpt>
      <trkpt lat="46.21154" lon="-1.51421">
        <ele>5.87218</ele>
        <time>2023-05-31T08:56:40.000Z</time>
      </trkpt>
      <trkpt lat="46.21157" lon="-1.51424">
        <ele>5.8389</ele>
        <time>2023-05-31T08:56:41.000Z</time>
      </trkpt>
      <trkpt lat="46.21161" lon="-1.51426">
        <ele>5.80738</ele>
        <time>2023-05-31T08:56:42.000Z</time>
      </trkpt>
      <trkpt lat="46.21164" lon="-1.51429">
        <ele>5.75279</ele>
        <time>2023-05-31T08:56:43.000Z</time>
      </trkpt>
      <trkpt lat="46.21167" lon="-1.51432">
        <ele>5.70535</ele>
        <time>2023-05-31T08:56:44.000Z</time>
      </trkpt>
      <trkpt lat="46.2117" lon="-1.51435">
        <ele>5.67421</ele>
        <time>2023-05-31T08:56:45.000Z</time>
      </trkpt>
      <trkpt lat="46.21173" lon="-1.51437">
        <ele>5.67395</ele>
        <time>2023-05-31T08:56:46.000Z</time>
      </trkpt>
      <trkpt lat="46.21176" lon="-1.51439">
        <ele>5.66164</ele>
        <time>2023-05-31T08:56:47.000Z</time>
      </trkpt>
      <trkpt lat="46.21178" lon="-1.5144">
        <ele>5.62509</ele>
        <time>2023-05-31T08:56:48.000Z</time>
      </trkpt>
      <trkpt lat="46.2118" lon="-1.51442">
        <ele>5.55954</ele>
        <time>2023-05-31T08:56:49.000Z</time>
      </trkpt>
      <trkpt lat="46.21182" lon="-1.51444">
        <ele>5.51886</ele>
        <time>2023-05-31T08:56:50.000Z</time>
      </trkpt>
      <trkpt lat="46.21184" lon="-1.51446">
        <ele>5.4534</ele>
        <time>2023-05-31T08:56:51.000Z</time>
      </trkpt>
      <trkpt lat="46.21186" lon="-1.51448">
        <ele>5.39729</ele>
        <time>2023-05-31T08:56:52.000Z</time>
      </trkpt>
      <trkpt lat="46.21189" lon="-1.5145">
        <ele>5.35857</ele>
        <time>2023-05-31T08:56:53.000Z</time>
      </trkpt>
      <trkpt lat="46.21191" lon="-1.51452">
        <ele>5.30498</ele>
        <time>2023-05-31T08:56:54.000Z</time>
      </trkpt>
      <trkpt lat="46.21194" lon="-1.51454">
        <ele>5.26679</ele>
        <time>2023-05-31T08:56:55.000Z</time>
      </trkpt>
      <trkpt lat="46.21197" lon="-1.51456">
        <ele>5.17077</ele>
        <time>2023-05-31T08:56:56.000Z</time>
      </trkpt>
      <trkpt lat="46.21199" lon="-1.51459">
        <ele>5.10118</ele>
        <time>2023-05-31T08:56:57.000Z</time>
      </trkpt>
      <trkpt lat="46.21202" lon="-1.51461">
        <ele>5.0507</ele>
        <time>2023-05-31T08:56:58.000Z</time>
      </trkpt>
      <trkpt lat="46.21205" lon="-1.51463">
        <ele>5.00509</ele>
        <time>2023-05-31T08:56:59.000Z</time>
      </trkpt>
      <trkpt lat="46.21208" lon="-1.51466">
        <ele>4.96658</ele>
        <time>2023-05-31T08:57:00.000Z</time>
      </trkpt>
      <trkpt lat="46.2121" lon="-1.51469">
        <ele>4.94497</ele>
        <time>2023-05-31T08:57:01.000Z</time>
      </trkpt>
      <trkpt lat="46.21213" lon="-1.51471">
        <ele>4.91567</ele>
        <time>2023-05-31T08:57:02.000Z</time>
      </trkpt>
      <trkpt lat="46.21216" lon="-1.51475">
        <ele>4.90167</ele>
        <time>2023-05-31T08:57:03.000Z</time>
      </trkpt>
      <trkpt lat="46.21219" lon="-1.51478">
        <ele>4.89192</ele>
        <time>2023-05-31T08:57:04.000Z</time>
      </trkpt>
      <trkpt lat="46.21222" lon="-1.51481">
        <ele>4.88802</ele>
        <time>2023-05-31T08:57:05.000Z</time>
      </trkpt>
      <trkpt lat="46.21224" lon="-1.51485">
        <ele>4.87895</ele>
        <time>2023-05-31T08:57:06.000Z</time>
      </trkpt>
      <trkpt lat="46.21226" lon="-1.51489">
        <ele>4.86163</ele>
        <time>2023-05-31T08:57:07.000Z</time>
      </trkpt>
      <trkpt lat="46.21228" lon="-1.51492">
        <ele>4.85628</ele>
        <time>2023-05-31T08:57:08.000Z</time>
      </trkpt>
      <trkpt lat="46.2123" lon="-1.51496">
        <ele>4.83417</ele>
        <time>2023-05-31T08:57:09.000Z</time>
      </trkpt>
      <trkpt lat="46.21232" lon="-1.51499">
        <ele>4.8349</ele>
        <time>2023-05-31T08:57:10.000Z</time>
      </trkpt>
      <trkpt lat="46.21233" lon="-1.51503">
        <ele>4.85892</ele>
        <time>2023-05-31T08:57:11.000Z</time>
      </trkpt>
      <trkpt lat="46.21234" lon="-1.51507">
        <ele>4.87658</ele>
        <time>2023-05-31T08:57:12.000Z</time>
      </trkpt>
      <trkpt lat="46.21236" lon="-1.5151">
        <ele>4.87089</ele>
        <time>2023-05-31T08:57:13.000Z</time>
      </trkpt>
      <trkpt lat="46.21238" lon="-1.51515">
        <ele>4.86996</ele>
        <time>2023-05-31T08:57:14.000Z</time>
      </trkpt>
      <trkpt lat="46.2124" lon="-1.51519">
        <ele>4.87334</ele>
        <time>2023-05-31T08:57:15.000Z</time>
      </trkpt>
      <trkpt lat="46.21243" lon="-1.51523">
        <ele>4.90869</ele>
        <time>2023-05-31T08:57:16.000Z</time>
      </trkpt>
      <trkpt lat="46.21245" lon="-1.51526">
        <ele>4.90304</ele>
        <time>2023-05-31T08:57:17.000Z</time>
      </trkpt>
      <trkpt lat="46.21248" lon="-1.5153">
        <ele>4.89802</ele>
        <time>2023-05-31T08:57:18.000Z</time>
      </trkpt>
      <trkpt lat="46.2125" lon="-1.51534">
        <ele>4.90803</ele>
        <time>2023-05-31T08:57:19.000Z</time>
      </trkpt>
      <trkpt lat="46.21253" lon="-1.51537">
        <ele>4.91582</ele>
        <time>2023-05-31T08:57:20.000Z</time>
      </trkpt>
      <trkpt lat="46.21255" lon="-1.51541">
        <ele>4.93538</ele>
        <time>2023-05-31T08:57:21.000Z</time>
      </trkpt>
      <trkpt lat="46.21258" lon="-1.51544">
        <ele>4.95753</ele>
        <time>2023-05-31T08:57:22.000Z</time>
      </trkpt>
      <trkpt lat="46.2126" lon="-1.51547">
        <ele>4.98172</ele>
        <time>2023-05-31T08:57:23.000Z</time>
      </trkpt>
      <trkpt lat="46.21263" lon="-1.5155">
        <ele>4.99936</ele>
        <time>2023-05-31T08:57:24.000Z</time>
      </trkpt>
      <trkpt lat="46.21266" lon="-1.51553">
        <ele>5.01008</ele>
        <time>2023-05-31T08:57:25.000Z</time>
      </trkpt>
      <trkpt lat="46.2127" lon="-1.51555">
        <ele>5.0077</ele>
        <time>2023-05-31T08:57:26.000Z</time>
      </trkpt>
      <trkpt lat="46.21273" lon="-1.51558">
        <ele>5.01635</ele>
        <time>2023-05-31T08:57:27.000Z</time>
      </trkpt>
      <trkpt lat="46.21276" lon="-1.5156">
        <ele>5.01907</ele>
        <time>2023-05-31T08:57:28.000Z</time>
      </trkpt>
      <trkpt lat="46.21279" lon="-1.51563">
        <ele>5.02521</ele>
        <time>2023-05-31T08:57:29.000Z</time>
      </trkpt>
      <trkpt lat="46.21283" lon="-1.51565">
        <ele>4.99278</ele>
        <time>2023-05-31T08:57:30.000Z</time>
      </trkpt>
      <trkpt lat="46.21286" lon="-1.51567">
        <ele>4.94305</ele>
        <time>2023-05-31T08:57:31.000Z</time>
      </trkpt>
      <trkpt lat="46.21289" lon="-1.51569">
        <ele>4.89498</ele>
        <time>2023-05-31T08:57:32.000Z</time>
      </trkpt>
      <trkpt lat="46.21293" lon="-1.51572">
        <ele>4.88379</ele>
        <time>2023-05-31T08:57:33.000Z</time>
      </trkpt>
      <trkpt lat="46.21296" lon="-1.51574">
        <ele>4.86556</ele>
        <time>2023-05-31T08:57:34.000Z</time>
      </trkpt>
      <trkpt lat="46.21299" lon="-1.51576">
        <ele>4.8252</ele>
        <time>2023-05-31T08:57:35.000Z</time>
      </trkpt>
      <trkpt lat="46.21302" lon="-1.51578">
        <ele>4.81869</ele>
        <time>2023-05-31T08:57:36.000Z</time>
      </trkpt>
      <trkpt lat="46.21305" lon="-1.5158">
        <ele>4.82254</ele>
        <time>2023-05-31T08:57:37.000Z</time>
      </trkpt>
      <trkpt lat="46.21309" lon="-1.51583">
        <ele>4.82425</ele>
        <time>2023-05-31T08:57:38.000Z</time>
      </trkpt>
      <trkpt lat="46.21312" lon="-1.51585">
        <ele>4.81689</ele>
        <time>2023-05-31T08:57:39.000Z</time>
      </trkpt>
      <trkpt lat="46.21316" lon="-1.51587">
        <ele>4.80962</ele>
        <time>2023-05-31T08:57:40.000Z</time>
      </trkpt>
      <trkpt lat="46.21319" lon="-1.51589">
        <ele>4.79791</ele>
        <time>2023-05-31T08:57:41.000Z</time>
      </trkpt>
      <trkpt lat="46.21323" lon="-1.51591">
        <ele>4.77205</ele>
        <time>2023-05-31T08:57:42.000Z</time>
      </trkpt>
      <trkpt lat="46.21326" lon="-1.51593">
        <ele>4.73839</ele>
        <time>2023-05-31T08:57:43.000Z</time>
      </trkpt>
      <trkpt lat="46.21329" lon="-1.51595">
        <ele>4.7082</ele>
        <time>2023-05-31T08:57:44.000Z</time>
      </trkpt>
      <trkpt lat="46.21333" lon="-1.51597">
        <ele>4.69732</ele>
        <time>2023-05-31T08:57:45.000Z</time>
      </trkpt>
      <trkpt lat="46.21336" lon="-1.51599">
        <ele>4.68539</ele>
        <time>2023-05-31T08:57:46.000Z</time>
      </trkpt>
      <trkpt lat="46.21339" lon="-1.51601">
        <ele>4.6763</ele>
        <time>2023-05-31T08:57:47.000Z</time>
      </trkpt>
      <trkpt lat="46.21342" lon="-1.51603">
        <ele>4.66885</ele>
        <time>2023-05-31T08:57:48.000Z</time>
      </trkpt>
      <trkpt lat="46.21345" lon="-1.51605">
        <ele>4.65707</ele>
        <time>2023-05-31T08:57:49.000Z</time>
      </trkpt>
      <trkpt lat="46.21348" lon="-1.51607">
        <ele>4.6658</ele>
        <time>2023-05-31T08:57:50.000Z</time>
      </trkpt>
      <trkpt lat="46.21351" lon="-1.51609">
        <ele>4.70567</ele>
        <time>2023-05-31T08:57:51.000Z</time>
      </trkpt>
      <trkpt lat="46.21354" lon="-1.5161">
        <ele>4.75271</ele>
        <time>2023-05-31T08:57:52.000Z</time>
      </trkpt>
      <trkpt lat="46.21357" lon="-1.51612">
        <ele>4.77372</ele>
        <time>2023-05-31T08:57:53.000Z</time>
      </trkpt>
      <trkpt lat="46.21361" lon="-1.51614">
        <ele>4.7996</ele>
        <time>2023-05-31T08:57:54.000Z</time>
      </trkpt>
      <trkpt lat="46.21364" lon="-1.51616">
        <ele>4.83099</ele>
        <time>2023-05-31T08:57:55.000Z</time>
      </trkpt>
      <trkpt lat="46.21368" lon="-1.51618">
        <ele>4.85736</ele>
        <time>2023-05-31T08:57:56.000Z</time>
      </trkpt>
      <trkpt lat="46.21372" lon="-1.5162">
        <ele>4.90882</ele>
        <time>2023-05-31T08:57:57.000Z</time>
      </trkpt>
      <trkpt lat="46.21376" lon="-1.51622">
        <ele>4.95841</ele>
        <time>2023-05-31T08:57:58.000Z</time>
      </trkpt>
      <trkpt lat="46.2138" lon="-1.51624">
        <ele>4.99665</ele>
        <time>2023-05-31T08:57:59.000Z</time>
      </trkpt>
      <trkpt lat="46.21384" lon="-1.51626">
        <ele>5.00715</ele>
        <time>2023-05-31T08:58:00.000Z</time>
      </trkpt>
      <trkpt lat="46.21388" lon="-1.51628">
        <ele>5.02176</ele>
        <time>2023-05-31T08:58:01.000Z</time>
      </trkpt>
      <trkpt lat="46.21392" lon="-1.5163">
        <ele>5.0747</ele>
        <time>2023-05-31T08:58:02.000Z</time>
      </trkpt>
      <trkpt lat="46.21397" lon="-1.51631">
        <ele>5.14491</ele>
        <time>2023-05-31T08:58:03.000Z</time>
      </trkpt>
      <trkpt lat="46.21401" lon="-1.51632">
        <ele>5.21668</ele>
        <time>2023-05-31T08:58:04.000Z</time>
      </trkpt>
      <trkpt lat="46.21405" lon="-1.51634">
        <ele>5.27955</ele>
        <time>2023-05-31T08:58:05.000Z</time>
      </trkpt>
      <trkpt lat="46.21409" lon="-1.51634">
        <ele>5.33287</ele>
        <time>2023-05-31T08:58:06.000Z</time>
      </trkpt>
      <trkpt lat="46.21413" lon="-1.51636">
        <ele>5.39912</ele>
        <time>2023-05-31T08:58:07.000Z</time>
      </trkpt>
      <trkpt lat="46.21418" lon="-1.51636">
        <ele>5.42685</ele>
        <time>2023-05-31T08:58:08.000Z</time>
      </trkpt>
      <trkpt lat="46.21422" lon="-1.51638">
        <ele>5.48409</ele>
        <time>2023-05-31T08:58:09.000Z</time>
      </trkpt>
      <trkpt lat="46.21426" lon="-1.51639">
        <ele>5.53961</ele>
        <time>2023-05-31T08:58:10.000Z</time>
      </trkpt>
      <trkpt lat="46.2143" lon="-1.51641">
        <ele>5.58915</ele>
        <time>2023-05-31T08:58:11.000Z</time>
      </trkpt>
      <trkpt lat="46.21435" lon="-1.51643">
        <ele>5.65067</ele>
        <time>2023-05-31T08:58:12.000Z</time>
      </trkpt>
      <trkpt lat="46.21439" lon="-1.51644">
        <ele>5.70182</ele>
        <time>2023-05-31T08:58:13.000Z</time>
      </trkpt>
      <trkpt lat="46.21444" lon="-1.51647">
        <ele>5.76451</ele>
        <time>2023-05-31T08:58:14.000Z</time>
      </trkpt>
      <trkpt lat="46.21449" lon="-1.51649">
        <ele>5.82673</ele>
        <time>2023-05-31T08:58:15.000Z</time>
      </trkpt>
      <trkpt lat="46.21453" lon="-1.51651">
        <ele>5.86283</ele>
        <time>2023-05-31T08:58:16.000Z</time>
      </trkpt>
      <trkpt lat="46.21458" lon="-1.51653">
        <ele>5.87612</ele>
        <time>2023-05-31T08:58:17.000Z</time>
      </trkpt>
      <trkpt lat="46.21462" lon="-1.51656">
        <ele>5.89483</ele>
        <time>2023-05-31T08:58:18.000Z</time>
      </trkpt>
      <trkpt lat="46.21466" lon="-1.5166">
        <ele>5.92972</ele>
        <time>2023-05-31T08:58:19.000Z</time>
      </trkpt>
      <trkpt lat="46.21471" lon="-1.51663">
        <ele>5.9786</ele>
        <time>2023-05-31T08:58:20.000Z</time>
      </trkpt>
      <trkpt lat="46.21475" lon="-1.51665">
        <ele>6.02402</ele>
        <time>2023-05-31T08:58:21.000Z</time>
      </trkpt>
      <trkpt lat="46.2148" lon="-1.5167">
        <ele>6.04607</ele>
        <time>2023-05-31T08:58:22.000Z</time>
      </trkpt>
      <trkpt lat="46.21484" lon="-1.51673">
        <ele>6.05242</ele>
        <time>2023-05-31T08:58:23.000Z</time>
      </trkpt>
      <trkpt lat="46.21486" lon="-1.51677">
        <ele>6.0585</ele>
        <time>2023-05-31T08:58:24.000Z</time>
      </trkpt>
      <trkpt lat="46.21489" lon="-1.5168">
        <ele>6.07475</ele>
        <time>2023-05-31T08:58:25.000Z</time>
      </trkpt>
      <trkpt lat="46.21492" lon="-1.51683">
        <ele>6.11307</ele>
        <time>2023-05-31T08:58:26.000Z</time>
      </trkpt>
      <trkpt lat="46.21495" lon="-1.51687">
        <ele>6.15029</ele>
        <time>2023-05-31T08:58:27.000Z</time>
      </trkpt>
      <trkpt lat="46.21498" lon="-1.5169">
        <ele>6.22317</ele>
        <time>2023-05-31T08:58:28.000Z</time>
      </trkpt>
      <trkpt lat="46.21501" lon="-1.51693">
        <ele>6.28056</ele>
        <time>2023-05-31T08:58:29.000Z</time>
      </trkpt>
      <trkpt lat="46.21504" lon="-1.51697">
        <ele>6.31777</ele>
        <time>2023-05-31T08:58:30.000Z</time>
      </trkpt>
      <trkpt lat="46.21506" lon="-1.51702">
        <ele>6.34715</ele>
        <time>2023-05-31T08:58:31.000Z</time>
      </trkpt>
      <trkpt lat="46.21509" lon="-1.51707">
        <ele>6.37166</ele>
        <time>2023-05-31T08:58:32.000Z</time>
      </trkpt>
      <trkpt lat="46.21512" lon="-1.51711">
        <ele>6.40517</ele>
        <time>2023-05-31T08:58:33.000Z</time>
      </trkpt>
      <trkpt lat="46.21515" lon="-1.51716">
        <ele>6.43487</ele>
        <time>2023-05-31T08:58:34.000Z</time>
      </trkpt>
      <trkpt lat="46.21517" lon="-1.51721">
        <ele>6.46465</ele>
        <time>2023-05-31T08:58:35.000Z</time>
      </trkpt>
      <trkpt lat="46.2152" lon="-1.51726">
        <ele>6.5117</ele>
        <time>2023-05-31T08:58:36.000Z</time>
      </trkpt>
      <trkpt lat="46.21522" lon="-1.51732">
        <ele>6.56068</ele>
        <time>2023-05-31T08:58:37.000Z</time>
      </trkpt>
      <trkpt lat="46.21525" lon="-1.51737">
        <ele>6.60664</ele>
        <time>2023-05-31T08:58:38.000Z</time>
      </trkpt>
      <trkpt lat="46.21527" lon="-1.51743">
        <ele>6.65639</ele>
        <time>2023-05-31T08:58:39.000Z</time>
      </trkpt>
      <trkpt lat="46.21529" lon="-1.51748">
        <ele>6.71655</ele>
        <time>2023-05-31T08:58:40.000Z</time>
      </trkpt>
      <trkpt lat="46.21532" lon="-1.51753">
        <ele>6.77244</ele>
        <time>2023-05-31T08:58:41.000Z</time>
      </trkpt>
      <trkpt lat="46.21535" lon="-1.51759">
        <ele>6.82541</ele>
        <time>2023-05-31T08:58:42.000Z</time>
      </trkpt>
      <trkpt lat="46.21539" lon="-1.51763">
        <ele>6.87886</ele>
        <time>2023-05-31T08:58:43.000Z</time>
      </trkpt>
      <trkpt lat="46.21542" lon="-1.51769">
        <ele>6.92457</ele>
        <time>2023-05-31T08:58:44.000Z</time>
      </trkpt>
      <trkpt lat="46.21546" lon="-1.51774">
        <ele>6.96127</ele>
        <time>2023-05-31T08:58:45.000Z</time>
      </trkpt>
      <trkpt lat="46.2155" lon="-1.51778">
        <ele>6.9872</ele>
        <time>2023-05-31T08:58:46.000Z</time>
      </trkpt>
      <trkpt lat="46.21555" lon="-1.51782">
        <ele>7.0037</ele>
        <time>2023-05-31T08:58:47.000Z</time>
      </trkpt>
      <trkpt lat="46.21559" lon="-1.51786">
        <ele>7.01582</ele>
        <time>2023-05-31T08:58:48.000Z</time>
      </trkpt>
      <trkpt lat="46.21564" lon="-1.5179">
        <ele>7.0102</ele>
        <time>2023-05-31T08:58:49.000Z</time>
      </trkpt>
      <trkpt lat="46.21568" lon="-1.51794">
        <ele>7.0193</ele>
        <time>2023-05-31T08:58:50.000Z</time>
      </trkpt>
      <trkpt lat="46.21573" lon="-1.51799">
        <ele>7.00495</ele>
        <time>2023-05-31T08:58:51.000Z</time>
      </trkpt>
      <trkpt lat="46.21578" lon="-1.51803">
        <ele>6.95932</ele>
        <time>2023-05-31T08:58:52.000Z</time>
      </trkpt>
      <trkpt lat="46.21583" lon="-1.51807">
        <ele>6.89935</ele>
        <time>2023-05-31T08:58:53.000Z</time>
      </trkpt>
      <trkpt lat="46.21588" lon="-1.51812">
        <ele>6.84011</ele>
        <time>2023-05-31T08:58:54.000Z</time>
      </trkpt>
      <trkpt lat="46.21593" lon="-1.51816">
        <ele>6.77899</ele>
        <time>2023-05-31T08:58:55.000Z</time>
      </trkpt>
      <trkpt lat="46.21597" lon="-1.5182">
        <ele>6.72308</ele>
        <time>2023-05-31T08:58:56.000Z</time>
      </trkpt>
      <trkpt lat="46.21602" lon="-1.51823">
        <ele>6.65719</ele>
        <time>2023-05-31T08:58:57.000Z</time>
      </trkpt>
      <trkpt lat="46.21607" lon="-1.51827">
        <ele>6.59449</ele>
        <time>2023-05-31T08:58:58.000Z</time>
      </trkpt>
      <trkpt lat="46.21613" lon="-1.5183">
        <ele>6.51478</ele>
        <time>2023-05-31T08:58:59.000Z</time>
      </trkpt>
      <trkpt lat="46.21618" lon="-1.51834">
        <ele>6.44902</ele>
        <time>2023-05-31T08:59:00.000Z</time>
      </trkpt>
      <trkpt lat="46.21623" lon="-1.51838">
        <ele>6.38172</ele>
        <time>2023-05-31T08:59:01.000Z</time>
      </trkpt>
      <trkpt lat="46.21628" lon="-1.51842">
        <ele>6.33273</ele>
        <time>2023-05-31T08:59:02.000Z</time>
      </trkpt>
      <trkpt lat="46.21633" lon="-1.51845">
        <ele>6.32492</ele>
        <time>2023-05-31T08:59:03.000Z</time>
      </trkpt>
      <trkpt lat="46.21638" lon="-1.51848">
        <ele>6.32554</ele>
        <time>2023-05-31T08:59:04.000Z</time>
      </trkpt>
      <trkpt lat="46.21643" lon="-1.51851">
        <ele>6.31789</ele>
        <time>2023-05-31T08:59:05.000Z</time>
      </trkpt>
      <trkpt lat="46.21648" lon="-1.51854">
        <ele>6.30463</ele>
        <time>2023-05-31T08:59:06.000Z</time>
      </trkpt>
      <trkpt lat="46.21654" lon="-1.51855">
        <ele>6.2889</ele>
        <time>2023-05-31T08:59:07.000Z</time>
      </trkpt>
      <trkpt lat="46.21658" lon="-1.51856">
        <ele>6.28233</ele>
        <time>2023-05-31T08:59:08.000Z</time>
      </trkpt>
      <trkpt lat="46.21664" lon="-1.51857">
        <ele>6.30385</ele>
        <time>2023-05-31T08:59:09.000Z</time>
      </trkpt>
      <trkpt lat="46.21669" lon="-1.51858">
        <ele>6.30374</ele>
        <time>2023-05-31T08:59:10.000Z</time>
      </trkpt>
      <trkpt lat="46.21674" lon="-1.51857">
        <ele>6.33913</ele>
        <time>2023-05-31T08:59:11.000Z</time>
      </trkpt>
      <trkpt lat="46.21679" lon="-1.51857">
        <ele>6.38185</ele>
        <time>2023-05-31T08:59:12.000Z</time>
      </trkpt>
      <trkpt lat="46.21684" lon="-1.51857">
        <ele>6.4474</ele>
        <time>2023-05-31T08:59:13.000Z</time>
      </trkpt>
      <trkpt lat="46.21689" lon="-1.51855">
        <ele>6.52434</ele>
        <time>2023-05-31T08:59:14.000Z</time>
      </trkpt>
      <trkpt lat="46.21694" lon="-1.51855">
        <ele>6.61323</ele>
        <time>2023-05-31T08:59:15.000Z</time>
      </trkpt>
      <trkpt lat="46.21699" lon="-1.51855">
        <ele>6.70396</ele>
        <time>2023-05-31T08:59:16.000Z</time>
      </trkpt>
      <trkpt lat="46.21704" lon="-1.51856">
        <ele>6.79097</ele>
        <time>2023-05-31T08:59:17.000Z</time>
      </trkpt>
      <trkpt lat="46.21709" lon="-1.51858">
        <ele>6.86192</ele>
        <time>2023-05-31T08:59:18.000Z</time>
      </trkpt>
      <trkpt lat="46.21714" lon="-1.5186">
        <ele>6.94867</ele>
        <time>2023-05-31T08:59:19.000Z</time>
      </trkpt>
      <trkpt lat="46.21719" lon="-1.51861">
        <ele>7.00008</ele>
        <time>2023-05-31T08:59:20.000Z</time>
      </trkpt>
      <trkpt lat="46.21723" lon="-1.51863">
        <ele>7.04444</ele>
        <time>2023-05-31T08:59:21.000Z</time>
      </trkpt>
      <trkpt lat="46.21728" lon="-1.51866">
        <ele>7.075</ele>
        <time>2023-05-31T08:59:22.000Z</time>
      </trkpt>
      <trkpt lat="46.21732" lon="-1.5187">
        <ele>7.06983</ele>
        <time>2023-05-31T08:59:23.000Z</time>
      </trkpt>
      <trkpt lat="46.21737" lon="-1.51873">
        <ele>7.06664</ele>
        <time>2023-05-31T08:59:24.000Z</time>
      </trkpt>
      <trkpt lat="46.21742" lon="-1.51877">
        <ele>7.07272</ele>
        <time>2023-05-31T08:59:25.000Z</time>
      </trkpt>
      <trkpt lat="46.21746" lon="-1.51881">
        <ele>7.08793</ele>
        <time>2023-05-31T08:59:26.000Z</time>
      </trkpt>
      <trkpt lat="46.2175" lon="-1.51885">
        <ele>7.11935</ele>
        <time>2023-05-31T08:59:27.000Z</time>
      </trkpt>
      <trkpt lat="46.21755" lon="-1.51888">
        <ele>7.15101</ele>
        <time>2023-05-31T08:59:28.000Z</time>
      </trkpt>
      <trkpt lat="46.21759" lon="-1.51892">
        <ele>7.1636</ele>
        <time>2023-05-31T08:59:29.000Z</time>
      </trkpt>
      <trkpt lat="46.21763" lon="-1.51895">
        <ele>7.19465</ele>
        <time>2023-05-31T08:59:30.000Z</time>
      </trkpt>
      <trkpt lat="46.21768" lon="-1.51899">
        <ele>7.21192</ele>
        <time>2023-05-31T08:59:31.000Z</time>
      </trkpt>
      <trkpt lat="46.21772" lon="-1.51903">
        <ele>7.24317</ele>
        <time>2023-05-31T08:59:32.000Z</time>
      </trkpt>
      <trkpt lat="46.21776" lon="-1.51907">
        <ele>7.24147</ele>
        <time>2023-05-31T08:59:33.000Z</time>
      </trkpt>
      <trkpt lat="46.2178" lon="-1.51912">
        <ele>7.21769</ele>
        <time>2023-05-31T08:59:34.000Z</time>
      </trkpt>
      <trkpt lat="46.21783" lon="-1.51916">
        <ele>7.18568</ele>
        <time>2023-05-31T08:59:35.000Z</time>
      </trkpt>
      <trkpt lat="46.21785" lon="-1.5192">
        <ele>7.15885</ele>
        <time>2023-05-31T08:59:36.000Z</time>
      </trkpt>
      <trkpt lat="46.21788" lon="-1.51925">
        <ele>7.14398</ele>
        <time>2023-05-31T08:59:37.000Z</time>
      </trkpt>
      <trkpt lat="46.2179" lon="-1.5193">
        <ele>7.13666</ele>
        <time>2023-05-31T08:59:38.000Z</time>
      </trkpt>
      <trkpt lat="46.21793" lon="-1.51934">
        <ele>7.1143</ele>
        <time>2023-05-31T08:59:39.000Z</time>
      </trkpt>
      <trkpt lat="46.21796" lon="-1.51938">
        <ele>7.10568</ele>
        <time>2023-05-31T08:59:40.000Z</time>
      </trkpt>
      <trkpt lat="46.218" lon="-1.51941">
        <ele>7.10847</ele>
        <time>2023-05-31T08:59:41.000Z</time>
      </trkpt>
      <trkpt lat="46.21803" lon="-1.51945">
        <ele>7.10105</ele>
        <time>2023-05-31T08:59:42.000Z</time>
      </trkpt>
      <trkpt lat="46.21807" lon="-1.51949">
        <ele>7.11218</ele>
        <time>2023-05-31T08:59:43.000Z</time>
      </trkpt>
      <trkpt lat="46.21811" lon="-1.51954">
        <ele>7.10759</ele>
        <time>2023-05-31T08:59:44.000Z</time>
      </trkpt>
      <trkpt lat="46.21815" lon="-1.51957">
        <ele>7.09819</ele>
        <time>2023-05-31T08:59:45.000Z</time>
      </trkpt>
      <trkpt lat="46.2182" lon="-1.51961">
        <ele>7.07352</ele>
        <time>2023-05-31T08:59:46.000Z</time>
      </trkpt>
      <trkpt lat="46.21824" lon="-1.51964">
        <ele>7.04533</ele>
        <time>2023-05-31T08:59:47.000Z</time>
      </trkpt>
      <trkpt lat="46.21828" lon="-1.51968">
        <ele>6.9931</ele>
        <time>2023-05-31T08:59:48.000Z</time>
      </trkpt>
      <trkpt lat="46.21833" lon="-1.51971">
        <ele>6.95202</ele>
        <time>2023-05-31T08:59:49.000Z</time>
      </trkpt>
      <trkpt lat="46.21838" lon="-1.51975">
        <ele>6.92907</ele>
        <time>2023-05-31T08:59:50.000Z</time>
      </trkpt>
      <trkpt lat="46.21841" lon="-1.51978">
        <ele>6.89205</ele>
        <time>2023-05-31T08:59:51.000Z</time>
      </trkpt>
      <trkpt lat="46.21846" lon="-1.51982">
        <ele>6.83702</ele>
        <time>2023-05-31T08:59:52.000Z</time>
      </trkpt>
      <trkpt lat="46.2185" lon="-1.51986">
        <ele>6.81899</ele>
        <time>2023-05-31T08:59:53.000Z</time>
      </trkpt>
      <trkpt lat="46.21853" lon="-1.51991">
        <ele>6.80188</ele>
        <time>2023-05-31T08:59:54.000Z</time>
      </trkpt>
      <trkpt lat="46.21858" lon="-1.51993">
        <ele>6.7701</ele>
        <time>2023-05-31T08:59:55.000Z</time>
      </trkpt>
      <trkpt lat="46.21862" lon="-1.51997">
        <ele>6.72294</ele>
        <time>2023-05-31T08:59:56.000Z</time>
      </trkpt>
      <trkpt lat="46.21867" lon="-1.52">
        <ele>6.67243</ele>
        <time>2023-05-31T08:59:57.000Z</time>
      </trkpt>
      <trkpt lat="46.2187" lon="-1.52005">
        <ele>6.62698</ele>
        <time>2023-05-31T08:59:58.000Z</time>
      </trkpt>
      <trkpt lat="46.21874" lon="-1.52008">
        <ele>6.60328</ele>
        <time>2023-05-31T08:59:59.000Z</time>
      </trkpt>
      <trkpt lat="46.21879" lon="-1.52012">
        <ele>6.57571</ele>
        <time>2023-05-31T09:00:00.000Z</time>
      </trkpt>
      <trkpt lat="46.21883" lon="-1.52016">
        <ele>6.53338</ele>
        <time>2023-05-31T09:00:01.000Z</time>
      </trkpt>
      <trkpt lat="46.21887" lon="-1.52019">
        <ele>6.49984</ele>
        <time>2023-05-31T09:00:02.000Z</time>
      </trkpt>
      <trkpt lat="46.21892" lon="-1.52023">
        <ele>6.44809</ele>
        <time>2023-05-31T09:00:03.000Z</time>
      </trkpt>
      <trkpt lat="46.21895" lon="-1.52026">
        <ele>6.40839</ele>
        <time>2023-05-31T09:00:04.000Z</time>
      </trkpt>
      <trkpt lat="46.219" lon="-1.52031">
        <ele>6.38527</ele>
        <time>2023-05-31T09:00:05.000Z</time>
      </trkpt>
      <trkpt lat="46.21904" lon="-1.52033">
        <ele>6.36542</ele>
        <time>2023-05-31T09:00:06.000Z</time>
      </trkpt>
      <trkpt lat="46.21908" lon="-1.52036">
        <ele>6.32426</ele>
        <time>2023-05-31T09:00:07.000Z</time>
      </trkpt>
      <trkpt lat="46.21913" lon="-1.52039">
        <ele>6.29638</ele>
        <time>2023-05-31T09:00:08.000Z</time>
      </trkpt>
      <trkpt lat="46.21917" lon="-1.52043">
        <ele>6.236</ele>
        <time>2023-05-31T09:00:09.000Z</time>
      </trkpt>
      <trkpt lat="46.21922" lon="-1.52047">
        <ele>6.20626</ele>
        <time>2023-05-31T09:00:10.000Z</time>
      </trkpt>
      <trkpt lat="46.21925" lon="-1.52053">
        <ele>6.151</ele>
        <time>2023-05-31T09:00:11.000Z</time>
      </trkpt>
      <trkpt lat="46.21927" lon="-1.52059">
        <ele>6.09318</ele>
        <time>2023-05-31T09:00:12.000Z</time>
      </trkpt>
      <trkpt lat="46.21928" lon="-1.52067">
        <ele>6.04064</ele>
        <time>2023-05-31T09:00:13.000Z</time>
      </trkpt>
      <trkpt lat="46.21928" lon="-1.52073">
        <ele>5.99119</ele>
        <time>2023-05-31T09:00:14.000Z</time>
      </trkpt>
      <trkpt lat="46.21927" lon="-1.5208">
        <ele>5.94052</ele>
        <time>2023-05-31T09:00:15.000Z</time>
      </trkpt>
      <trkpt lat="46.21927" lon="-1.52087">
        <ele>5.87849</ele>
        <time>2023-05-31T09:00:16.000Z</time>
      </trkpt>
      <trkpt lat="46.21926" lon="-1.52095">
        <ele>5.82331</ele>
        <time>2023-05-31T09:00:17.000Z</time>
      </trkpt>
      <trkpt lat="46.21925" lon="-1.52102">
        <ele>5.76704</ele>
        <time>2023-05-31T09:00:18.000Z</time>
      </trkpt>
      <trkpt lat="46.21924" lon="-1.5211">
        <ele>5.6946</ele>
        <time>2023-05-31T09:00:19.000Z</time>
      </trkpt>
      <trkpt lat="46.21923" lon="-1.52116">
        <ele>5.63309</ele>
        <time>2023-05-31T09:00:20.000Z</time>
      </trkpt>
      <trkpt lat="46.21923" lon="-1.52123">
        <ele>5.60311</ele>
        <time>2023-05-31T09:00:21.000Z</time>
      </trkpt>
      <trkpt lat="46.21923" lon="-1.5213">
        <ele>5.57579</ele>
        <time>2023-05-31T09:00:22.000Z</time>
      </trkpt>
      <trkpt lat="46.21925" lon="-1.52135">
        <ele>5.55583</ele>
        <time>2023-05-31T09:00:23.000Z</time>
      </trkpt>
      <trkpt lat="46.21927" lon="-1.52142">
        <ele>5.53089</ele>
        <time>2023-05-31T09:00:24.000Z</time>
      </trkpt>
      <trkpt lat="46.21929" lon="-1.52147">
        <ele>5.4853</ele>
        <time>2023-05-31T09:00:25.000Z</time>
      </trkpt>
      <trkpt lat="46.21932" lon="-1.52152">
        <ele>5.45946</ele>
        <time>2023-05-31T09:00:26.000Z</time>
      </trkpt>
      <trkpt lat="46.21935" lon="-1.52157">
        <ele>5.44993</ele>
        <time>2023-05-31T09:00:27.000Z</time>
      </trkpt>
      <trkpt lat="46.21937" lon="-1.52163">
        <ele>5.44717</ele>
        <time>2023-05-31T09:00:28.000Z</time>
      </trkpt>
      <trkpt lat="46.21939" lon="-1.52168">
        <ele>5.45897</ele>
        <time>2023-05-31T09:00:29.000Z</time>
      </trkpt>
      <trkpt lat="46.21942" lon="-1.52173">
        <ele>5.40439</ele>
        <time>2023-05-31T09:00:30.000Z</time>
      </trkpt>
      <trkpt lat="46.21945" lon="-1.52179">
        <ele>5.39609</ele>
        <time>2023-05-31T09:00:31.000Z</time>
      </trkpt>
      <trkpt lat="46.21948" lon="-1.52185">
        <ele>5.40901</ele>
        <time>2023-05-31T09:00:32.000Z</time>
      </trkpt>
      <trkpt lat="46.21951" lon="-1.52191">
        <ele>5.4131</ele>
        <time>2023-05-31T09:00:33.000Z</time>
      </trkpt>
      <trkpt lat="46.21954" lon="-1.52196">
        <ele>5.41193</ele>
        <time>2023-05-31T09:00:34.000Z</time>
      </trkpt>
      <trkpt lat="46.21957" lon="-1.52202">
        <ele>5.43284</ele>
        <time>2023-05-31T09:00:35.000Z</time>
      </trkpt>
      <trkpt lat="46.2196" lon="-1.52207">
        <ele>5.47093</ele>
        <time>2023-05-31T09:00:36.000Z</time>
      </trkpt>
      <trkpt lat="46.21963" lon="-1.52212">
        <ele>5.49653</ele>
        <time>2023-05-31T09:00:37.000Z</time>
      </trkpt>
      <trkpt lat="46.21965" lon="-1.52217">
        <ele>5.50742</ele>
        <time>2023-05-31T09:00:38.000Z</time>
      </trkpt>
      <trkpt lat="46.21968" lon="-1.52223">
        <ele>5.53114</ele>
        <time>2023-05-31T09:00:39.000Z</time>
      </trkpt>
      <trkpt lat="46.21971" lon="-1.52228">
        <ele>5.5443</ele>
        <time>2023-05-31T09:00:40.000Z</time>
      </trkpt>
      <trkpt lat="46.21974" lon="-1.52233">
        <ele>5.54878</ele>
        <time>2023-05-31T09:00:41.000Z</time>
      </trkpt>
      <trkpt lat="46.21977" lon="-1.52239">
        <ele>5.56289</ele>
        <time>2023-05-31T09:00:42.000Z</time>
      </trkpt>
      <trkpt lat="46.2198" lon="-1.52244">
        <ele>5.5552</ele>
        <time>2023-05-31T09:00:43.000Z</time>
      </trkpt>
      <trkpt lat="46.21983" lon="-1.52249">
        <ele>5.55314</ele>
        <time>2023-05-31T09:00:44.000Z</time>
      </trkpt>
      <trkpt lat="46.21986" lon="-1.52255">
        <ele>5.5667</ele>
        <time>2023-05-31T09:00:45.000Z</time>
      </trkpt>
      <trkpt lat="46.21988" lon="-1.52262">
        <ele>5.58675</ele>
        <time>2023-05-31T09:00:46.000Z</time>
      </trkpt>
      <trkpt lat="46.21992" lon="-1.52267">
        <ele>5.61043</ele>
        <time>2023-05-31T09:00:47.000Z</time>
      </trkpt>
      <trkpt lat="46.21995" lon="-1.52272">
        <ele>5.637</ele>
        <time>2023-05-31T09:00:48.000Z</time>
      </trkpt>
      <trkpt lat="46.21998" lon="-1.52277">
        <ele>5.66397</ele>
        <time>2023-05-31T09:00:49.000Z</time>
      </trkpt>
      <trkpt lat="46.22002" lon="-1.52283">
        <ele>5.7066</ele>
        <time>2023-05-31T09:00:50.000Z</time>
      </trkpt>
      <trkpt lat="46.22005" lon="-1.52287">
        <ele>5.79299</ele>
        <time>2023-05-31T09:00:51.000Z</time>
      </trkpt>
      <trkpt lat="46.22008" lon="-1.52292">
        <ele>5.8806</ele>
        <time>2023-05-31T09:00:52.000Z</time>
      </trkpt>
      <trkpt lat="46.22011" lon="-1.52297">
        <ele>5.96398</ele>
        <time>2023-05-31T09:00:53.000Z</time>
      </trkpt>
      <trkpt lat="46.22014" lon="-1.52301">
        <ele>6.06962</ele>
        <time>2023-05-31T09:00:54.000Z</time>
      </trkpt>
      <trkpt lat="46.22017" lon="-1.52306">
        <ele>6.16331</ele>
        <time>2023-05-31T09:00:55.000Z</time>
      </trkpt>
      <trkpt lat="46.2202" lon="-1.52309">
        <ele>6.27293</ele>
        <time>2023-05-31T09:00:56.000Z</time>
      </trkpt>
      <trkpt lat="46.22024" lon="-1.52314">
        <ele>6.39754</ele>
        <time>2023-05-31T09:00:57.000Z</time>
      </trkpt>
      <trkpt lat="46.22027" lon="-1.52319">
        <ele>6.52417</ele>
        <time>2023-05-31T09:00:58.000Z</time>
      </trkpt>
      <trkpt lat="46.2203" lon="-1.52323">
        <ele>6.64494</ele>
        <time>2023-05-31T09:00:59.000Z</time>
      </trkpt>
      <trkpt lat="46.22034" lon="-1.52327">
        <ele>6.77276</ele>
        <time>2023-05-31T09:01:00.000Z</time>
      </trkpt>
      <trkpt lat="46.22037" lon="-1.52332">
        <ele>6.87742</ele>
        <time>2023-05-31T09:01:01.000Z</time>
      </trkpt>
      <trkpt lat="46.22041" lon="-1.52337">
        <ele>6.95575</ele>
        <time>2023-05-31T09:01:02.000Z</time>
      </trkpt>
      <trkpt lat="46.22045" lon="-1.52342">
        <ele>7.0557</ele>
        <time>2023-05-31T09:01:03.000Z</time>
      </trkpt>
      <trkpt lat="46.22049" lon="-1.52346">
        <ele>7.1569</ele>
        <time>2023-05-31T09:01:04.000Z</time>
      </trkpt>
      <trkpt lat="46.22053" lon="-1.52351">
        <ele>7.24823</ele>
        <time>2023-05-31T09:01:05.000Z</time>
      </trkpt>
      <trkpt lat="46.22056" lon="-1.52355">
        <ele>7.32803</ele>
        <time>2023-05-31T09:01:06.000Z</time>
      </trkpt>
      <trkpt lat="46.2206" lon="-1.52359">
        <ele>7.39924</ele>
        <time>2023-05-31T09:01:07.000Z</time>
      </trkpt>
      <trkpt lat="46.22063" lon="-1.52363">
        <ele>7.44498</ele>
        <time>2023-05-31T09:01:08.000Z</time>
      </trkpt>
      <trkpt lat="46.22066" lon="-1.52367">
        <ele>7.50367</ele>
        <time>2023-05-31T09:01:09.000Z</time>
      </trkpt>
      <trkpt lat="46.22071" lon="-1.52371">
        <ele>7.57674</ele>
        <time>2023-05-31T09:01:10.000Z</time>
      </trkpt>
      <trkpt lat="46.22075" lon="-1.52374">
        <ele>7.60112</ele>
        <time>2023-05-31T09:01:11.000Z</time>
      </trkpt>
      <trkpt lat="46.22079" lon="-1.52379">
        <ele>7.61747</ele>
        <time>2023-05-31T09:01:12.000Z</time>
      </trkpt>
      <trkpt lat="46.22083" lon="-1.52383">
        <ele>7.62072</ele>
        <time>2023-05-31T09:01:13.000Z</time>
      </trkpt>
      <trkpt lat="46.22087" lon="-1.52387">
        <ele>7.59902</ele>
        <time>2023-05-31T09:01:14.000Z</time>
      </trkpt>
      <trkpt lat="46.22091" lon="-1.52391">
        <ele>7.58064</ele>
        <time>2023-05-31T09:01:15.000Z</time>
      </trkpt>
      <trkpt lat="46.22095" lon="-1.52395">
        <ele>7.56362</ele>
        <time>2023-05-31T09:01:16.000Z</time>
      </trkpt>
      <trkpt lat="46.22099" lon="-1.52398">
        <ele>7.53596</ele>
        <time>2023-05-31T09:01:17.000Z</time>
      </trkpt>
      <trkpt lat="46.22104" lon="-1.52401">
        <ele>7.51496</ele>
        <time>2023-05-31T09:01:18.000Z</time>
      </trkpt>
      <trkpt lat="46.22108" lon="-1.52404">
        <ele>7.48462</ele>
        <time>2023-05-31T09:01:19.000Z</time>
      </trkpt>
      <trkpt lat="46.22113" lon="-1.52407">
        <ele>7.45889</ele>
        <time>2023-05-31T09:01:20.000Z</time>
      </trkpt>
      <trkpt lat="46.22118" lon="-1.52408">
        <ele>7.43443</ele>
        <time>2023-05-31T09:01:21.000Z</time>
      </trkpt>
      <trkpt lat="46.22123" lon="-1.5241">
        <ele>7.42615</ele>
        <time>2023-05-31T09:01:22.000Z</time>
      </trkpt>
      <trkpt lat="46.22127" lon="-1.52413">
        <ele>7.40547</ele>
        <time>2023-05-31T09:01:23.000Z</time>
      </trkpt>
      <trkpt lat="46.22132" lon="-1.52415">
        <ele>7.37277</ele>
        <time>2023-05-31T09:01:24.000Z</time>
      </trkpt>
      <trkpt lat="46.22137" lon="-1.52416">
        <ele>7.32227</ele>
        <time>2023-05-31T09:01:25.000Z</time>
      </trkpt>
      <trkpt lat="46.22142" lon="-1.52417">
        <ele>7.25678</ele>
        <time>2023-05-31T09:01:26.000Z</time>
      </trkpt>
      <trkpt lat="46.22147" lon="-1.52419">
        <ele>7.21076</ele>
        <time>2023-05-31T09:01:27.000Z</time>
      </trkpt>
      <trkpt lat="46.22152" lon="-1.52421">
        <ele>7.19364</ele>
        <time>2023-05-31T09:01:28.000Z</time>
      </trkpt>
      <trkpt lat="46.22157" lon="-1.52421">
        <ele>7.14875</ele>
        <time>2023-05-31T09:01:29.000Z</time>
      </trkpt>
      <trkpt lat="46.22161" lon="-1.52421">
        <ele>7.06342</ele>
        <time>2023-05-31T09:01:30.000Z</time>
      </trkpt>
      <trkpt lat="46.22165" lon="-1.52423">
        <ele>6.97163</ele>
        <time>2023-05-31T09:01:31.000Z</time>
      </trkpt>
      <trkpt lat="46.2217" lon="-1.52424">
        <ele>6.86655</ele>
        <time>2023-05-31T09:01:32.000Z</time>
      </trkpt>
      <trkpt lat="46.22174" lon="-1.52425">
        <ele>6.7828</ele>
        <time>2023-05-31T09:01:33.000Z</time>
      </trkpt>
      <trkpt lat="46.22179" lon="-1.52425">
        <ele>6.7048</ele>
        <time>2023-05-31T09:01:34.000Z</time>
      </trkpt>
      <trkpt lat="46.22184" lon="-1.52426">
        <ele>6.60531</ele>
        <time>2023-05-31T09:01:35.000Z</time>
      </trkpt>
      <trkpt lat="46.22189" lon="-1.52427">
        <ele>6.48727</ele>
        <time>2023-05-31T09:01:36.000Z</time>
      </trkpt>
      <trkpt lat="46.22194" lon="-1.52427">
        <ele>6.38172</ele>
        <time>2023-05-31T09:01:37.000Z</time>
      </trkpt>
      <trkpt lat="46.22198" lon="-1.52427">
        <ele>6.28486</ele>
        <time>2023-05-31T09:01:38.000Z</time>
      </trkpt>
      <trkpt lat="46.22203" lon="-1.52428">
        <ele>6.1871</ele>
        <time>2023-05-31T09:01:39.000Z</time>
      </trkpt>
      <trkpt lat="46.22209" lon="-1.52428">
        <ele>6.08378</ele>
        <time>2023-05-31T09:01:40.000Z</time>
      </trkpt>
      <trkpt lat="46.22213" lon="-1.52428">
        <ele>6.00169</ele>
        <time>2023-05-31T09:01:41.000Z</time>
      </trkpt>
      <trkpt lat="46.22218" lon="-1.5243">
        <ele>5.90447</ele>
        <time>2023-05-31T09:01:42.000Z</time>
      </trkpt>
      <trkpt lat="46.22223" lon="-1.52431">
        <ele>5.81872</ele>
        <time>2023-05-31T09:01:43.000Z</time>
      </trkpt>
      <trkpt lat="46.22228" lon="-1.52431">
        <ele>5.74821</ele>
        <time>2023-05-31T09:01:44.000Z</time>
      </trkpt>
      <trkpt lat="46.22233" lon="-1.52432">
        <ele>5.69276</ele>
        <time>2023-05-31T09:01:45.000Z</time>
      </trkpt>
      <trkpt lat="46.22238" lon="-1.52433">
        <ele>5.63623</ele>
        <time>2023-05-31T09:01:46.000Z</time>
      </trkpt>
      <trkpt lat="46.22243" lon="-1.52436">
        <ele>5.56206</ele>
        <time>2023-05-31T09:01:47.000Z</time>
      </trkpt>
      <trkpt lat="46.22248" lon="-1.52438">
        <ele>5.49035</ele>
        <time>2023-05-31T09:01:48.000Z</time>
      </trkpt>
      <trkpt lat="46.22253" lon="-1.52442">
        <ele>5.43965</ele>
        <time>2023-05-31T09:01:49.000Z</time>
      </trkpt>
      <trkpt lat="46.22258" lon="-1.52445">
        <ele>5.42284</ele>
        <time>2023-05-31T09:01:50.000Z</time>
      </trkpt>
      <trkpt lat="46.22261" lon="-1.5245">
        <ele>5.40641</ele>
        <time>2023-05-31T09:01:51.000Z</time>
      </trkpt>
      <trkpt lat="46.22265" lon="-1.52455">
        <ele>5.41473</ele>
        <time>2023-05-31T09:01:52.000Z</time>
      </trkpt>
      <trkpt lat="46.22268" lon="-1.52461">
        <ele>5.38512</ele>
        <time>2023-05-31T09:01:53.000Z</time>
      </trkpt>
      <trkpt lat="46.22271" lon="-1.52465">
        <ele>5.3406</ele>
        <time>2023-05-31T09:01:54.000Z</time>
      </trkpt>
      <trkpt lat="46.22275" lon="-1.5247">
        <ele>5.30914</ele>
        <time>2023-05-31T09:01:55.000Z</time>
      </trkpt>
      <trkpt lat="46.22278" lon="-1.52475">
        <ele>5.2831</ele>
        <time>2023-05-31T09:01:56.000Z</time>
      </trkpt>
      <trkpt lat="46.22282" lon="-1.5248">
        <ele>5.25623</ele>
        <time>2023-05-31T09:01:57.000Z</time>
      </trkpt>
      <trkpt lat="46.22286" lon="-1.52485">
        <ele>5.25176</ele>
        <time>2023-05-31T09:01:58.000Z</time>
      </trkpt>
      <trkpt lat="46.2229" lon="-1.52489">
        <ele>5.26305</ele>
        <time>2023-05-31T09:01:59.000Z</time>
      </trkpt>
      <trkpt lat="46.22295" lon="-1.52493">
        <ele>5.25786</ele>
        <time>2023-05-31T09:02:00.000Z</time>
      </trkpt>
      <trkpt lat="46.22301" lon="-1.52497">
        <ele>5.2534</ele>
        <time>2023-05-31T09:02:01.000Z</time>
      </trkpt>
      <trkpt lat="46.22307" lon="-1.525">
        <ele>5.26693</ele>
        <time>2023-05-31T09:02:02.000Z</time>
      </trkpt>
      <trkpt lat="46.22312" lon="-1.52503">
        <ele>5.27578</ele>
        <time>2023-05-31T09:02:03.000Z</time>
      </trkpt>
      <trkpt lat="46.22317" lon="-1.52505">
        <ele>5.25993</ele>
        <time>2023-05-31T09:02:04.000Z</time>
      </trkpt>
      <trkpt lat="46.22322" lon="-1.52507">
        <ele>5.23067</ele>
        <time>2023-05-31T09:02:05.000Z</time>
      </trkpt>
      <trkpt lat="46.22327" lon="-1.5251">
        <ele>5.18407</ele>
        <time>2023-05-31T09:02:06.000Z</time>
      </trkpt>
      <trkpt lat="46.22332" lon="-1.52513">
        <ele>5.14799</ele>
        <time>2023-05-31T09:02:07.000Z</time>
      </trkpt>
      <trkpt lat="46.22337" lon="-1.52516">
        <ele>5.08613</ele>
        <time>2023-05-31T09:02:08.000Z</time>
      </trkpt>
      <trkpt lat="46.22341" lon="-1.5252">
        <ele>5.02983</ele>
        <time>2023-05-31T09:02:09.000Z</time>
      </trkpt>
      <trkpt lat="46.22346" lon="-1.52524">
        <ele>4.98608</ele>
        <time>2023-05-31T09:02:10.000Z</time>
      </trkpt>
      <trkpt lat="46.22351" lon="-1.52527">
        <ele>4.93597</ele>
        <time>2023-05-31T09:02:11.000Z</time>
      </trkpt>
      <trkpt lat="46.22355" lon="-1.5253">
        <ele>4.88805</ele>
        <time>2023-05-31T09:02:12.000Z</time>
      </trkpt>
      <trkpt lat="46.2236" lon="-1.52533">
        <ele>4.87645</ele>
        <time>2023-05-31T09:02:13.000Z</time>
      </trkpt>
      <trkpt lat="46.22365" lon="-1.52537">
        <ele>4.88922</ele>
        <time>2023-05-31T09:02:14.000Z</time>
      </trkpt>
      <trkpt lat="46.22369" lon="-1.5254">
        <ele>4.89</ele>
        <time>2023-05-31T09:02:15.000Z</time>
      </trkpt>
      <trkpt lat="46.22373" lon="-1.52544">
        <ele>4.87264</ele>
        <time>2023-05-31T09:02:16.000Z</time>
      </trkpt>
      <trkpt lat="46.22378" lon="-1.52548">
        <ele>4.85491</ele>
        <time>2023-05-31T09:02:17.000Z</time>
      </trkpt>
      <trkpt lat="46.22381" lon="-1.52552">
        <ele>4.81733</ele>
        <time>2023-05-31T09:02:18.000Z</time>
      </trkpt>
      <trkpt lat="46.22384" lon="-1.52557">
        <ele>4.78121</ele>
        <time>2023-05-31T09:02:19.000Z</time>
      </trkpt>
      <trkpt lat="46.22388" lon="-1.52563">
        <ele>4.78221</ele>
        <time>2023-05-31T09:02:20.000Z</time>
      </trkpt>
      <trkpt lat="46.22391" lon="-1.52568">
        <ele>4.7709</ele>
        <time>2023-05-31T09:02:21.000Z</time>
      </trkpt>
      <trkpt lat="46.22395" lon="-1.52573">
        <ele>4.74626</ele>
        <time>2023-05-31T09:02:22.000Z</time>
      </trkpt>
      <trkpt lat="46.22399" lon="-1.52579">
        <ele>4.72105</ele>
        <time>2023-05-31T09:02:23.000Z</time>
      </trkpt>
      <trkpt lat="46.22402" lon="-1.52585">
        <ele>4.72071</ele>
        <time>2023-05-31T09:02:24.000Z</time>
      </trkpt>
      <trkpt lat="46.22405" lon="-1.5259">
        <ele>4.73193</ele>
        <time>2023-05-31T09:02:25.000Z</time>
      </trkpt>
      <trkpt lat="46.22408" lon="-1.52597">
        <ele>4.77398</ele>
        <time>2023-05-31T09:02:26.000Z</time>
      </trkpt>
      <trkpt lat="46.22411" lon="-1.52602">
        <ele>4.80968</ele>
        <time>2023-05-31T09:02:27.000Z</time>
      </trkpt>
      <trkpt lat="46.22413" lon="-1.52607">
        <ele>4.84088</ele>
        <time>2023-05-31T09:02:28.000Z</time>
      </trkpt>
      <trkpt lat="46.22416" lon="-1.52614">
        <ele>4.86349</ele>
        <time>2023-05-31T09:02:29.000Z</time>
      </trkpt>
      <trkpt lat="46.2242" lon="-1.5262">
        <ele>4.89839</ele>
        <time>2023-05-31T09:02:30.000Z</time>
      </trkpt>
      <trkpt lat="46.22423" lon="-1.52627">
        <ele>4.94405</ele>
        <time>2023-05-31T09:02:31.000Z</time>
      </trkpt>
      <trkpt lat="46.22427" lon="-1.52633">
        <ele>4.96434</ele>
        <time>2023-05-31T09:02:32.000Z</time>
      </trkpt>
      <trkpt lat="46.2243" lon="-1.52639">
        <ele>4.97407</ele>
        <time>2023-05-31T09:02:33.000Z</time>
      </trkpt>
      <trkpt lat="46.22432" lon="-1.52644">
        <ele>4.97018</ele>
        <time>2023-05-31T09:02:34.000Z</time>
      </trkpt>
      <trkpt lat="46.22435" lon="-1.5265">
        <ele>4.99261</ele>
        <time>2023-05-31T09:02:35.000Z</time>
      </trkpt>
      <trkpt lat="46.22438" lon="-1.52656">
        <ele>5.02807</ele>
        <time>2023-05-31T09:02:36.000Z</time>
      </trkpt>
      <trkpt lat="46.22441" lon="-1.52662">
        <ele>5.05513</ele>
        <time>2023-05-31T09:02:37.000Z</time>
      </trkpt>
      <trkpt lat="46.22443" lon="-1.52667">
        <ele>5.11035</ele>
        <time>2023-05-31T09:02:38.000Z</time>
      </trkpt>
      <trkpt lat="46.22446" lon="-1.52671">
        <ele>5.13462</ele>
        <time>2023-05-31T09:02:39.000Z</time>
      </trkpt>
      <trkpt lat="46.22449" lon="-1.52677">
        <ele>5.13421</ele>
        <time>2023-05-31T09:02:40.000Z</time>
      </trkpt>
      <trkpt lat="46.22452" lon="-1.52683">
        <ele>5.1433</ele>
        <time>2023-05-31T09:02:41.000Z</time>
      </trkpt>
      <trkpt lat="46.22455" lon="-1.52688">
        <ele>5.14821</ele>
        <time>2023-05-31T09:02:42.000Z</time>
      </trkpt>
      <trkpt lat="46.22457" lon="-1.52694">
        <ele>5.16933</ele>
        <time>2023-05-31T09:02:43.000Z</time>
      </trkpt>
      <trkpt lat="46.22459" lon="-1.527">
        <ele>5.19202</ele>
        <time>2023-05-31T09:02:44.000Z</time>
      </trkpt>
      <trkpt lat="46.2246" lon="-1.52706">
        <ele>5.2325</ele>
        <time>2023-05-31T09:02:45.000Z</time>
      </trkpt>
      <trkpt lat="46.22462" lon="-1.52713">
        <ele>5.25591</ele>
        <time>2023-05-31T09:02:46.000Z</time>
      </trkpt>
      <trkpt lat="46.22463" lon="-1.52719">
        <ele>5.28701</ele>
        <time>2023-05-31T09:02:47.000Z</time>
      </trkpt>
      <trkpt lat="46.22465" lon="-1.52724">
        <ele>5.35034</ele>
        <time>2023-05-31T09:02:48.000Z</time>
      </trkpt>
      <trkpt lat="46.22467" lon="-1.52729">
        <ele>5.40882</ele>
        <time>2023-05-31T09:02:49.000Z</time>
      </trkpt>
      <trkpt lat="46.22469" lon="-1.52735">
        <ele>5.46167</ele>
        <time>2023-05-31T09:02:50.000Z</time>
      </trkpt>
      <trkpt lat="46.2247" lon="-1.52741">
        <ele>5.50297</ele>
        <time>2023-05-31T09:02:51.000Z</time>
      </trkpt>
      <trkpt lat="46.22471" lon="-1.52746">
        <ele>5.57185</ele>
        <time>2023-05-31T09:02:52.000Z</time>
      </trkpt>
      <trkpt lat="46.22473" lon="-1.52752">
        <ele>5.64312</ele>
        <time>2023-05-31T09:02:53.000Z</time>
      </trkpt>
      <trkpt lat="46.22475" lon="-1.52758">
        <ele>5.70856</ele>
        <time>2023-05-31T09:02:54.000Z</time>
      </trkpt>
      <trkpt lat="46.22477" lon="-1.52763">
        <ele>5.75439</ele>
        <time>2023-05-31T09:02:55.000Z</time>
      </trkpt>
      <trkpt lat="46.22479" lon="-1.52769">
        <ele>5.81165</ele>
        <time>2023-05-31T09:02:56.000Z</time>
      </trkpt>
      <trkpt lat="46.22482" lon="-1.52775">
        <ele>5.85486</ele>
        <time>2023-05-31T09:02:57.000Z</time>
      </trkpt>
      <trkpt lat="46.22484" lon="-1.52781">
        <ele>5.84689</ele>
        <time>2023-05-31T09:02:58.000Z</time>
      </trkpt>
      <trkpt lat="46.22486" lon="-1.52785">
        <ele>5.86205</ele>
        <time>2023-05-31T09:02:59.000Z</time>
      </trkpt>
      <trkpt lat="46.22488" lon="-1.52792">
        <ele>5.8839</ele>
        <time>2023-05-31T09:03:00.000Z</time>
      </trkpt>
      <trkpt lat="46.2249" lon="-1.52798">
        <ele>5.88429</ele>
        <time>2023-05-31T09:03:01.000Z</time>
      </trkpt>
      <trkpt lat="46.22493" lon="-1.52804">
        <ele>5.88208</ele>
        <time>2023-05-31T09:03:02.000Z</time>
      </trkpt>
      <trkpt lat="46.22495" lon="-1.52809">
        <ele>5.88017</ele>
        <time>2023-05-31T09:03:03.000Z</time>
      </trkpt>
      <trkpt lat="46.22498" lon="-1.52815">
        <ele>5.8836</ele>
        <time>2023-05-31T09:03:04.000Z</time>
      </trkpt>
      <trkpt lat="46.225" lon="-1.5282">
        <ele>5.87225</ele>
        <time>2023-05-31T09:03:05.000Z</time>
      </trkpt>
      <trkpt lat="46.22503" lon="-1.52826">
        <ele>5.87513</ele>
        <time>2023-05-31T09:03:06.000Z</time>
      </trkpt>
      <trkpt lat="46.22505" lon="-1.52831">
        <ele>5.86195</ele>
        <time>2023-05-31T09:03:07.000Z</time>
      </trkpt>
      <trkpt lat="46.22508" lon="-1.52836">
        <ele>5.82707</ele>
        <time>2023-05-31T09:03:08.000Z</time>
      </trkpt>
      <trkpt lat="46.2251" lon="-1.52842">
        <ele>5.79592</ele>
        <time>2023-05-31T09:03:09.000Z</time>
      </trkpt>
      <trkpt lat="46.22513" lon="-1.52848">
        <ele>5.74978</ele>
        <time>2023-05-31T09:03:10.000Z</time>
      </trkpt>
      <trkpt lat="46.22515" lon="-1.52853">
        <ele>5.71992</ele>
        <time>2023-05-31T09:03:11.000Z</time>
      </trkpt>
      <trkpt lat="46.22517" lon="-1.52858">
        <ele>5.68557</ele>
        <time>2023-05-31T09:03:12.000Z</time>
      </trkpt>
      <trkpt lat="46.2252" lon="-1.52863">
        <ele>5.67235</ele>
        <time>2023-05-31T09:03:13.000Z</time>
      </trkpt>
      <trkpt lat="46.22523" lon="-1.52867">
        <ele>5.66602</ele>
        <time>2023-05-31T09:03:14.000Z</time>
      </trkpt>
      <trkpt lat="46.22526" lon="-1.52872">
        <ele>5.65752</ele>
        <time>2023-05-31T09:03:15.000Z</time>
      </trkpt>
      <trkpt lat="46.22528" lon="-1.52877">
        <ele>5.64206</ele>
        <time>2023-05-31T09:03:16.000Z</time>
      </trkpt>
      <trkpt lat="46.2253" lon="-1.52882">
        <ele>5.65491</ele>
        <time>2023-05-31T09:03:17.000Z</time>
      </trkpt>
      <trkpt lat="46.22533" lon="-1.52886">
        <ele>5.68802</ele>
        <time>2023-05-31T09:03:18.000Z</time>
      </trkpt>
      <trkpt lat="46.22536" lon="-1.52891">
        <ele>5.72674</ele>
        <time>2023-05-31T09:03:19.000Z</time>
      </trkpt>
      <trkpt lat="46.22538" lon="-1.52897">
        <ele>5.75177</ele>
        <time>2023-05-31T09:03:20.000Z</time>
      </trkpt>
      <trkpt lat="46.2254" lon="-1.52902">
        <ele>5.78663</ele>
        <time>2023-05-31T09:03:21.000Z</time>
      </trkpt>
      <trkpt lat="46.22542" lon="-1.52907">
        <ele>5.82731</ele>
        <time>2023-05-31T09:03:22.000Z</time>
      </trkpt>
      <trkpt lat="46.22545" lon="-1.52913">
        <ele>5.86937</ele>
        <time>2023-05-31T09:03:23.000Z</time>
      </trkpt>
      <trkpt lat="46.22547" lon="-1.52919">
        <ele>5.89525</ele>
        <time>2023-05-31T09:03:24.000Z</time>
      </trkpt>
      <trkpt lat="46.22549" lon="-1.52924">
        <ele>5.91428</ele>
        <time>2023-05-31T09:03:25.000Z</time>
      </trkpt>
      <trkpt lat="46.22551" lon="-1.5293">
        <ele>5.92891</ele>
        <time>2023-05-31T09:03:26.000Z</time>
      </trkpt>
      <trkpt lat="46.22552" lon="-1.52936">
        <ele>5.93069</ele>
        <time>2023-05-31T09:03:27.000Z</time>
      </trkpt>
      <trkpt lat="46.22554" lon="-1.52942">
        <ele>5.90784</ele>
        <time>2023-05-31T09:03:28.000Z</time>
      </trkpt>
      <trkpt lat="46.22555" lon="-1.52949">
        <ele>5.87838</ele>
        <time>2023-05-31T09:03:29.000Z</time>
      </trkpt>
      <trkpt lat="46.22558" lon="-1.52956">
        <ele>5.83753</ele>
        <time>2023-05-31T09:03:30.000Z</time>
      </trkpt>
      <trkpt lat="46.22559" lon="-1.52962">
        <ele>5.77782</ele>
        <time>2023-05-31T09:03:31.000Z</time>
      </trkpt>
      <trkpt lat="46.22562" lon="-1.52969">
        <ele>5.71119</ele>
        <time>2023-05-31T09:03:32.000Z</time>
      </trkpt>
      <trkpt lat="46.22563" lon="-1.52976">
        <ele>5.62907</ele>
        <time>2023-05-31T09:03:33.000Z</time>
      </trkpt>
      <trkpt lat="46.22565" lon="-1.52982">
        <ele>5.54694</ele>
        <time>2023-05-31T09:03:34.000Z</time>
      </trkpt>
      <trkpt lat="46.22567" lon="-1.52987">
        <ele>5.47755</ele>
        <time>2023-05-31T09:03:35.000Z</time>
      </trkpt>
      <trkpt lat="46.22569" lon="-1.52994">
        <ele>5.40584</ele>
        <time>2023-05-31T09:03:36.000Z</time>
      </trkpt>
      <trkpt lat="46.22572" lon="-1.53">
        <ele>5.31525</ele>
        <time>2023-05-31T09:03:37.000Z</time>
      </trkpt>
      <trkpt lat="46.22573" lon="-1.53007">
        <ele>5.21503</ele>
        <time>2023-05-31T09:03:38.000Z</time>
      </trkpt>
      <trkpt lat="46.22575" lon="-1.53014">
        <ele>5.09572</ele>
        <time>2023-05-31T09:03:39.000Z</time>
      </trkpt>
      <trkpt lat="46.22577" lon="-1.5302">
        <ele>4.99507</ele>
        <time>2023-05-31T09:03:40.000Z</time>
      </trkpt>
      <trkpt lat="46.22579" lon="-1.53026">
        <ele>4.90198</ele>
        <time>2023-05-31T09:03:41.000Z</time>
      </trkpt>
      <trkpt lat="46.22581" lon="-1.53032">
        <ele>4.82592</ele>
        <time>2023-05-31T09:03:42.000Z</time>
      </trkpt>
      <trkpt lat="46.22582" lon="-1.53039">
        <ele>4.73269</ele>
        <time>2023-05-31T09:03:43.000Z</time>
      </trkpt>
      <trkpt lat="46.22584" lon="-1.53045">
        <ele>4.6499</ele>
        <time>2023-05-31T09:03:44.000Z</time>
      </trkpt>
      <trkpt lat="46.22585" lon="-1.53051">
        <ele>4.57214</ele>
        <time>2023-05-31T09:03:45.000Z</time>
      </trkpt>
      <trkpt lat="46.22587" lon="-1.53057">
        <ele>4.48392</ele>
        <time>2023-05-31T09:03:46.000Z</time>
      </trkpt>
      <trkpt lat="46.2259" lon="-1.53063">
        <ele>4.41572</ele>
        <time>2023-05-31T09:03:47.000Z</time>
      </trkpt>
      <trkpt lat="46.22592" lon="-1.5307">
        <ele>4.37587</ele>
        <time>2023-05-31T09:03:48.000Z</time>
      </trkpt>
      <trkpt lat="46.22595" lon="-1.53075">
        <ele>4.35153</ele>
        <time>2023-05-31T09:03:49.000Z</time>
      </trkpt>
      <trkpt lat="46.22597" lon="-1.53081">
        <ele>4.34003</ele>
        <time>2023-05-31T09:03:50.000Z</time>
      </trkpt>
      <trkpt lat="46.22599" lon="-1.53087">
        <ele>4.36219</ele>
        <time>2023-05-31T09:03:51.000Z</time>
      </trkpt>
      <trkpt lat="46.226" lon="-1.53093">
        <ele>4.38158</ele>
        <time>2023-05-31T09:03:52.000Z</time>
      </trkpt>
      <trkpt lat="46.22602" lon="-1.531">
        <ele>4.4007</ele>
        <time>2023-05-31T09:03:53.000Z</time>
      </trkpt>
      <trkpt lat="46.22605" lon="-1.53105">
        <ele>4.43012</ele>
        <time>2023-05-31T09:03:54.000Z</time>
      </trkpt>
      <trkpt lat="46.22608" lon="-1.5311">
        <ele>4.44951</ele>
        <time>2023-05-31T09:03:55.000Z</time>
      </trkpt>
      <trkpt lat="46.22611" lon="-1.53115">
        <ele>4.47358</ele>
        <time>2023-05-31T09:03:56.000Z</time>
      </trkpt>
      <trkpt lat="46.22615" lon="-1.5312">
        <ele>4.4898</ele>
        <time>2023-05-31T09:03:57.000Z</time>
      </trkpt>
      <trkpt lat="46.22618" lon="-1.53125">
        <ele>4.52132</ele>
        <time>2023-05-31T09:03:58.000Z</time>
      </trkpt>
      <trkpt lat="46.22622" lon="-1.53129">
        <ele>4.56255</ele>
        <time>2023-05-31T09:03:59.000Z</time>
      </trkpt>
      <trkpt lat="46.22625" lon="-1.53134">
        <ele>4.60839</ele>
        <time>2023-05-31T09:04:00.000Z</time>
      </trkpt>
      <trkpt lat="46.22628" lon="-1.53139">
        <ele>4.6523</ele>
        <time>2023-05-31T09:04:01.000Z</time>
      </trkpt>
      <trkpt lat="46.22631" lon="-1.53144">
        <ele>4.7122</ele>
        <time>2023-05-31T09:04:02.000Z</time>
      </trkpt>
      <trkpt lat="46.22634" lon="-1.53149">
        <ele>4.76668</ele>
        <time>2023-05-31T09:04:03.000Z</time>
      </trkpt>
      <trkpt lat="46.22637" lon="-1.53154">
        <ele>4.81334</ele>
        <time>2023-05-31T09:04:04.000Z</time>
      </trkpt>
      <trkpt lat="46.2264" lon="-1.53158">
        <ele>4.84786</ele>
        <time>2023-05-31T09:04:05.000Z</time>
      </trkpt>
      <trkpt lat="46.22643" lon="-1.53163">
        <ele>4.88416</ele>
        <time>2023-05-31T09:04:06.000Z</time>
      </trkpt>
      <trkpt lat="46.22646" lon="-1.53168">
        <ele>4.92651</ele>
        <time>2023-05-31T09:04:07.000Z</time>
      </trkpt>
      <trkpt lat="46.22648" lon="-1.53173">
        <ele>4.95758</ele>
        <time>2023-05-31T09:04:08.000Z</time>
      </trkpt>
      <trkpt lat="46.22649" lon="-1.5318">
        <ele>4.97867</ele>
        <time>2023-05-31T09:04:09.000Z</time>
      </trkpt>
      <trkpt lat="46.22651" lon="-1.53187">
        <ele>4.96815</ele>
        <time>2023-05-31T09:04:10.000Z</time>
      </trkpt>
      <trkpt lat="46.22652" lon="-1.53194">
        <ele>4.93386</ele>
        <time>2023-05-31T09:04:11.000Z</time>
      </trkpt>
      <trkpt lat="46.22653" lon="-1.532">
        <ele>4.89714</ele>
        <time>2023-05-31T09:04:12.000Z</time>
      </trkpt>
      <trkpt lat="46.22655" lon="-1.53207">
        <ele>4.86509</ele>
        <time>2023-05-31T09:04:13.000Z</time>
      </trkpt>
      <trkpt lat="46.22656" lon="-1.53213">
        <ele>4.82923</ele>
        <time>2023-05-31T09:04:14.000Z</time>
      </trkpt>
      <trkpt lat="46.22657" lon="-1.5322">
        <ele>4.80994</ele>
        <time>2023-05-31T09:04:15.000Z</time>
      </trkpt>
      <trkpt lat="46.22658" lon="-1.53227">
        <ele>4.78815</ele>
        <time>2023-05-31T09:04:16.000Z</time>
      </trkpt>
      <trkpt lat="46.22659" lon="-1.53234">
        <ele>4.78199</ele>
        <time>2023-05-31T09:04:17.000Z</time>
      </trkpt>
      <trkpt lat="46.2266" lon="-1.5324">
        <ele>4.77023</ele>
        <time>2023-05-31T09:04:18.000Z</time>
      </trkpt>
      <trkpt lat="46.22662" lon="-1.53247">
        <ele>4.76638</ele>
        <time>2023-05-31T09:04:19.000Z</time>
      </trkpt>
      <trkpt lat="46.22664" lon="-1.53253">
        <ele>4.74703</ele>
        <time>2023-05-31T09:04:20.000Z</time>
      </trkpt>
      <trkpt lat="46.22666" lon="-1.5326">
        <ele>4.73451</ele>
        <time>2023-05-31T09:04:21.000Z</time>
      </trkpt>
      <trkpt lat="46.22669" lon="-1.53268">
        <ele>4.71068</ele>
        <time>2023-05-31T09:04:22.000Z</time>
      </trkpt>
      <trkpt lat="46.22671" lon="-1.53274">
        <ele>4.66639</ele>
        <time>2023-05-31T09:04:23.000Z</time>
      </trkpt>
      <trkpt lat="46.22673" lon="-1.5328">
        <ele>4.62413</ele>
        <time>2023-05-31T09:04:24.000Z</time>
      </trkpt>
      <trkpt lat="46.22675" lon="-1.53287">
        <ele>4.6036</ele>
        <time>2023-05-31T09:04:25.000Z</time>
      </trkpt>
      <trkpt lat="46.22677" lon="-1.53293">
        <ele>4.59995</ele>
        <time>2023-05-31T09:04:26.000Z</time>
      </trkpt>
      <trkpt lat="46.2268" lon="-1.53299">
        <ele>4.61974</ele>
        <time>2023-05-31T09:04:27.000Z</time>
      </trkpt>
      <trkpt lat="46.22681" lon="-1.53305">
        <ele>4.65047</ele>
        <time>2023-05-31T09:04:28.000Z</time>
      </trkpt>
      <trkpt lat="46.22683" lon="-1.53311">
        <ele>4.67367</ele>
        <time>2023-05-31T09:04:29.000Z</time>
      </trkpt>
      <trkpt lat="46.22685" lon="-1.53318">
        <ele>4.72852</ele>
        <time>2023-05-31T09:04:30.000Z</time>
      </trkpt>
      <trkpt lat="46.22686" lon="-1.53324">
        <ele>4.77866</ele>
        <time>2023-05-31T09:04:31.000Z</time>
      </trkpt>
      <trkpt lat="46.22688" lon="-1.53331">
        <ele>4.81849</ele>
        <time>2023-05-31T09:04:32.000Z</time>
      </trkpt>
      <trkpt lat="46.2269" lon="-1.53338">
        <ele>4.83819</ele>
        <time>2023-05-31T09:04:33.000Z</time>
      </trkpt>
      <trkpt lat="46.22692" lon="-1.53345">
        <ele>4.87371</ele>
        <time>2023-05-31T09:04:34.000Z</time>
      </trkpt>
      <trkpt lat="46.22694" lon="-1.53352">
        <ele>4.90128</ele>
        <time>2023-05-31T09:04:35.000Z</time>
      </trkpt>
      <trkpt lat="46.22695" lon="-1.53358">
        <ele>4.91978</ele>
        <time>2023-05-31T09:04:36.000Z</time>
      </trkpt>
      <trkpt lat="46.22696" lon="-1.53365">
        <ele>4.93236</ele>
        <time>2023-05-31T09:04:37.000Z</time>
      </trkpt>
      <trkpt lat="46.22696" lon="-1.53373">
        <ele>4.93985</ele>
        <time>2023-05-31T09:04:38.000Z</time>
      </trkpt>
      <trkpt lat="46.22696" lon="-1.5338">
        <ele>4.94006</ele>
        <time>2023-05-31T09:04:39.000Z</time>
      </trkpt>
      <trkpt lat="46.22697" lon="-1.53388">
        <ele>4.95158</ele>
        <time>2023-05-31T09:04:40.000Z</time>
      </trkpt>
      <trkpt lat="46.22697" lon="-1.53395">
        <ele>4.96151</ele>
        <time>2023-05-31T09:04:41.000Z</time>
      </trkpt>
      <trkpt lat="46.22696" lon="-1.53402">
        <ele>4.94853</ele>
        <time>2023-05-31T09:04:42.000Z</time>
      </trkpt>
      <trkpt lat="46.22695" lon="-1.53409">
        <ele>4.99508</ele>
        <time>2023-05-31T09:04:43.000Z</time>
      </trkpt>
      <trkpt lat="46.22695" lon="-1.53417">
        <ele>5.03305</ele>
        <time>2023-05-31T09:04:44.000Z</time>
      </trkpt>
      <trkpt lat="46.22696" lon="-1.53424">
        <ele>5.06217</ele>
        <time>2023-05-31T09:04:45.000Z</time>
      </trkpt>
      <trkpt lat="46.22697" lon="-1.5343">
        <ele>5.09126</ele>
        <time>2023-05-31T09:04:46.000Z</time>
      </trkpt>
      <trkpt lat="46.22699" lon="-1.53437">
        <ele>5.07729</ele>
        <time>2023-05-31T09:04:47.000Z</time>
      </trkpt>
      <trkpt lat="46.227" lon="-1.53442">
        <ele>5.08094</ele>
        <time>2023-05-31T09:04:48.000Z</time>
      </trkpt>
      <trkpt lat="46.22701" lon="-1.53447">
        <ele>5.09481</ele>
        <time>2023-05-31T09:04:49.000Z</time>
      </trkpt>
      <trkpt lat="46.22702" lon="-1.53452">
        <ele>5.09396</ele>
        <time>2023-05-31T09:04:50.000Z</time>
      </trkpt>
      <trkpt lat="46.22703" lon="-1.53456">
        <ele>5.08771</ele>
        <time>2023-05-31T09:04:51.000Z</time>
      </trkpt>
      <trkpt lat="46.22705" lon="-1.53459">
        <ele>5.07739</ele>
        <time>2023-05-31T09:04:52.000Z</time>
      </trkpt>
      <trkpt lat="46.22708" lon="-1.53459">
        <ele>5.08082</ele>
        <time>2023-05-31T09:04:53.000Z</time>
      </trkpt>
      <trkpt lat="46.22711" lon="-1.53457">
        <ele>5.06131</ele>
        <time>2023-05-31T09:04:54.000Z</time>
      </trkpt>
      <trkpt lat="46.22714" lon="-1.53453">
        <ele>5.04191</ele>
        <time>2023-05-31T09:04:55.000Z</time>
      </trkpt>
      <trkpt lat="46.22718" lon="-1.53449">
        <ele>5.04299</ele>
        <time>2023-05-31T09:04:56.000Z</time>
      </trkpt>
      <trkpt lat="46.22721" lon="-1.53444">
        <ele>5.03519</ele>
        <time>2023-05-31T09:04:57.000Z</time>
      </trkpt>
      <trkpt lat="46.22725" lon="-1.53441">
        <ele>5.03201</ele>
        <time>2023-05-31T09:04:58.000Z</time>
      </trkpt>
      <trkpt lat="46.22729" lon="-1.53436">
        <ele>5.04811</ele>
        <time>2023-05-31T09:04:59.000Z</time>
      </trkpt>
      <trkpt lat="46.22732" lon="-1.53431">
        <ele>5.02802</ele>
        <time>2023-05-31T09:05:00.000Z</time>
      </trkpt>
      <trkpt lat="46.22737" lon="-1.53429">
        <ele>5.0035</ele>
        <time>2023-05-31T09:05:01.000Z</time>
      </trkpt>
      <trkpt lat="46.22741" lon="-1.53425">
        <ele>4.9617</ele>
        <time>2023-05-31T09:05:02.000Z</time>
      </trkpt>
      <trkpt lat="46.22745" lon="-1.53421">
        <ele>4.8896</ele>
        <time>2023-05-31T09:05:03.000Z</time>
      </trkpt>
      <trkpt lat="46.22749" lon="-1.53417">
        <ele>4.81146</ele>
        <time>2023-05-31T09:05:04.000Z</time>
      </trkpt>
      <trkpt lat="46.22753" lon="-1.53414">
        <ele>4.76647</ele>
        <time>2023-05-31T09:05:05.000Z</time>
      </trkpt>
      <trkpt lat="46.22757" lon="-1.53409">
        <ele>4.73868</ele>
        <time>2023-05-31T09:05:06.000Z</time>
      </trkpt>
      <trkpt lat="46.22761" lon="-1.53405">
        <ele>4.71772</ele>
        <time>2023-05-31T09:05:07.000Z</time>
      </trkpt>
      <trkpt lat="46.22766" lon="-1.53401">
        <ele>4.67238</ele>
        <time>2023-05-31T09:05:08.000Z</time>
      </trkpt>
      <trkpt lat="46.22769" lon="-1.53397">
        <ele>4.62352</ele>
        <time>2023-05-31T09:05:09.000Z</time>
      </trkpt>
      <trkpt lat="46.22774" lon="-1.53395">
        <ele>4.5835</ele>
        <time>2023-05-31T09:05:10.000Z</time>
      </trkpt>
      <trkpt lat="46.22778" lon="-1.53391">
        <ele>4.55109</ele>
        <time>2023-05-31T09:05:11.000Z</time>
      </trkpt>
      <trkpt lat="46.22781" lon="-1.53388">
        <ele>4.53599</ele>
        <time>2023-05-31T09:05:12.000Z</time>
      </trkpt>
      <trkpt lat="46.22785" lon="-1.53384">
        <ele>4.52911</ele>
        <time>2023-05-31T09:05:13.000Z</time>
      </trkpt>
      <trkpt lat="46.22789" lon="-1.53381">
        <ele>4.53883</ele>
        <time>2023-05-31T09:05:14.000Z</time>
      </trkpt>
      <trkpt lat="46.22791" lon="-1.53377">
        <ele>4.55257</ele>
        <time>2023-05-31T09:05:15.000Z</time>
      </trkpt>
      <trkpt lat="46.22795" lon="-1.53373">
        <ele>4.5427</ele>
        <time>2023-05-31T09:05:16.000Z</time>
      </trkpt>
      <trkpt lat="46.22798" lon="-1.5337">
        <ele>4.54668</ele>
        <time>2023-05-31T09:05:17.000Z</time>
      </trkpt>
      <trkpt lat="46.22801" lon="-1.53365">
        <ele>4.53535</ele>
        <time>2023-05-31T09:05:18.000Z</time>
      </trkpt>
      <trkpt lat="46.22805" lon="-1.53361">
        <ele>4.52144</ele>
        <time>2023-05-31T09:05:19.000Z</time>
      </trkpt>
      <trkpt lat="46.22809" lon="-1.53358">
        <ele>4.55463</ele>
        <time>2023-05-31T09:05:20.000Z</time>
      </trkpt>
      <trkpt lat="46.22813" lon="-1.53354">
        <ele>4.59119</ele>
        <time>2023-05-31T09:05:21.000Z</time>
      </trkpt>
      <trkpt lat="46.22816" lon="-1.53349">
        <ele>4.65986</ele>
        <time>2023-05-31T09:05:22.000Z</time>
      </trkpt>
      <trkpt lat="46.2282" lon="-1.53345">
        <ele>4.70668</ele>
        <time>2023-05-31T09:05:23.000Z</time>
      </trkpt>
      <trkpt lat="46.22823" lon="-1.53341">
        <ele>4.74415</ele>
        <time>2023-05-31T09:05:24.000Z</time>
      </trkpt>
      <trkpt lat="46.22826" lon="-1.53336">
        <ele>4.75053</ele>
        <time>2023-05-31T09:05:25.000Z</time>
      </trkpt>
      <trkpt lat="46.2283" lon="-1.53332">
        <ele>4.74389</ele>
        <time>2023-05-31T09:05:26.000Z</time>
      </trkpt>
      <trkpt lat="46.22834" lon="-1.53328">
        <ele>4.75815</ele>
        <time>2023-05-31T09:05:27.000Z</time>
      </trkpt>
      <trkpt lat="46.22837" lon="-1.53324">
        <ele>4.79578</ele>
        <time>2023-05-31T09:05:28.000Z</time>
      </trkpt>
      <trkpt lat="46.2284" lon="-1.5332">
        <ele>4.82547</ele>
        <time>2023-05-31T09:05:29.000Z</time>
      </trkpt>
      <trkpt lat="46.22843" lon="-1.53316">
        <ele>4.85155</ele>
        <time>2023-05-31T09:05:30.000Z</time>
      </trkpt>
      <trkpt lat="46.22847" lon="-1.53312">
        <ele>4.88639</ele>
        <time>2023-05-31T09:05:31.000Z</time>
      </trkpt>
      <trkpt lat="46.2285" lon="-1.53309">
        <ele>4.89345</ele>
        <time>2023-05-31T09:05:32.000Z</time>
      </trkpt>
      <trkpt lat="46.22854" lon="-1.53305">
        <ele>4.88389</ele>
        <time>2023-05-31T09:05:33.000Z</time>
      </trkpt>
      <trkpt lat="46.22858" lon="-1.53301">
        <ele>4.87375</ele>
        <time>2023-05-31T09:05:34.000Z</time>
      </trkpt>
      <trkpt lat="46.22861" lon="-1.53296">
        <ele>4.86428</ele>
        <time>2023-05-31T09:05:35.000Z</time>
      </trkpt>
      <trkpt lat="46.22864" lon="-1.53293">
        <ele>4.87434</ele>
        <time>2023-05-31T09:05:36.000Z</time>
      </trkpt>
      <trkpt lat="46.22868" lon="-1.53289">
        <ele>4.8871</ele>
        <time>2023-05-31T09:05:37.000Z</time>
      </trkpt>
      <trkpt lat="46.22872" lon="-1.53284">
        <ele>4.90824</ele>
        <time>2023-05-31T09:05:38.000Z</time>
      </trkpt>
      <trkpt lat="46.22876" lon="-1.53281">
        <ele>4.91828</ele>
        <time>2023-05-31T09:05:39.000Z</time>
      </trkpt>
      <trkpt lat="46.2288" lon="-1.53276">
        <ele>4.91858</ele>
        <time>2023-05-31T09:05:40.000Z</time>
      </trkpt>
      <trkpt lat="46.22883" lon="-1.53272">
        <ele>4.93393</ele>
        <time>2023-05-31T09:05:41.000Z</time>
      </trkpt>
      <trkpt lat="46.22887" lon="-1.53268">
        <ele>4.94925</ele>
        <time>2023-05-31T09:05:42.000Z</time>
      </trkpt>
      <trkpt lat="46.22891" lon="-1.53264">
        <ele>4.98239</ele>
        <time>2023-05-31T09:05:43.000Z</time>
      </trkpt>
      <trkpt lat="46.22895" lon="-1.5326">
        <ele>5.03889</ele>
        <time>2023-05-31T09:05:44.000Z</time>
      </trkpt>
      <trkpt lat="46.22899" lon="-1.53256">
        <ele>5.10415</ele>
        <time>2023-05-31T09:05:45.000Z</time>
      </trkpt>
      <trkpt lat="46.22904" lon="-1.53251">
        <ele>5.1346</ele>
        <time>2023-05-31T09:05:46.000Z</time>
      </trkpt>
      <trkpt lat="46.22908" lon="-1.53247">
        <ele>5.13094</ele>
        <time>2023-05-31T09:05:47.000Z</time>
      </trkpt>
      <trkpt lat="46.22912" lon="-1.53243">
        <ele>5.1076</ele>
        <time>2023-05-31T09:05:48.000Z</time>
      </trkpt>
      <trkpt lat="46.22916" lon="-1.53239">
        <ele>5.09852</ele>
        <time>2023-05-31T09:05:49.000Z</time>
      </trkpt>
      <trkpt lat="46.2292" lon="-1.53236">
        <ele>5.10272</ele>
        <time>2023-05-31T09:05:50.000Z</time>
      </trkpt>
      <trkpt lat="46.22924" lon="-1.53231">
        <ele>5.10905</ele>
        <time>2023-05-31T09:05:51.000Z</time>
      </trkpt>
      <trkpt lat="46.22928" lon="-1.53227">
        <ele>5.11643</ele>
        <time>2023-05-31T09:05:52.000Z</time>
      </trkpt>
      <trkpt lat="46.22932" lon="-1.53223">
        <ele>5.12218</ele>
        <time>2023-05-31T09:05:53.000Z</time>
      </trkpt>
      <trkpt lat="46.22937" lon="-1.53219">
        <ele>5.12005</ele>
        <time>2023-05-31T09:05:54.000Z</time>
      </trkpt>
      <trkpt lat="46.22941" lon="-1.53215">
        <ele>5.11785</ele>
        <time>2023-05-31T09:05:55.000Z</time>
      </trkpt>
      <trkpt lat="46.22944" lon="-1.53211">
        <ele>5.11459</ele>
        <time>2023-05-31T09:05:56.000Z</time>
      </trkpt>
      <trkpt lat="46.22948" lon="-1.53206">
        <ele>5.12677</ele>
        <time>2023-05-31T09:05:57.000Z</time>
      </trkpt>
      <trkpt lat="46.22952" lon="-1.53203">
        <ele>5.13224</ele>
        <time>2023-05-31T09:05:58.000Z</time>
      </trkpt>
      <trkpt lat="46.22956" lon="-1.53198">
        <ele>5.13035</ele>
        <time>2023-05-31T09:05:59.000Z</time>
      </trkpt>
      <trkpt lat="46.22959" lon="-1.53194">
        <ele>5.11776</ele>
        <time>2023-05-31T09:06:00.000Z</time>
      </trkpt>
      <trkpt lat="46.22964" lon="-1.5319">
        <ele>5.09262</ele>
        <time>2023-05-31T09:06:01.000Z</time>
      </trkpt>
      <trkpt lat="46.22968" lon="-1.53186">
        <ele>5.06291</ele>
        <time>2023-05-31T09:06:02.000Z</time>
      </trkpt>
      <trkpt lat="46.22971" lon="-1.53181">
        <ele>5.03627</ele>
        <time>2023-05-31T09:06:03.000Z</time>
      </trkpt>
      <trkpt lat="46.22976" lon="-1.53177">
        <ele>5.01521</ele>
        <time>2023-05-31T09:06:04.000Z</time>
      </trkpt>
      <trkpt lat="46.2298" lon="-1.53173">
        <ele>4.99685</ele>
        <time>2023-05-31T09:06:05.000Z</time>
      </trkpt>
      <trkpt lat="46.22983" lon="-1.53169">
        <ele>5.02135</ele>
        <time>2023-05-31T09:06:06.000Z</time>
      </trkpt>
      <trkpt lat="46.22987" lon="-1.53165">
        <ele>5.0506</ele>
        <time>2023-05-31T09:06:07.000Z</time>
      </trkpt>
      <trkpt lat="46.2299" lon="-1.53162">
        <ele>5.08189</ele>
        <time>2023-05-31T09:06:08.000Z</time>
      </trkpt>
      <trkpt lat="46.22993" lon="-1.5316">
        <ele>5.08743</ele>
        <time>2023-05-31T09:06:09.000Z</time>
      </trkpt>
      <trkpt lat="46.22997" lon="-1.5316">
        <ele>5.09137</ele>
        <time>2023-05-31T09:06:10.000Z</time>
      </trkpt>
      <trkpt lat="46.23002" lon="-1.53163">
        <ele>5.09892</ele>
        <time>2023-05-31T09:06:11.000Z</time>
      </trkpt>
      <trkpt lat="46.23004" lon="-1.53168">
        <ele>5.10816</ele>
        <time>2023-05-31T09:06:12.000Z</time>
      </trkpt>
      <trkpt lat="46.23006" lon="-1.53174">
        <ele>5.13633</ele>
        <time>2023-05-31T09:06:13.000Z</time>
      </trkpt>
      <trkpt lat="46.23009" lon="-1.53179">
        <ele>5.16037</ele>
        <time>2023-05-31T09:06:14.000Z</time>
      </trkpt>
      <trkpt lat="46.23011" lon="-1.53185">
        <ele>5.16922</ele>
        <time>2023-05-31T09:06:15.000Z</time>
      </trkpt>
      <trkpt lat="46.23014" lon="-1.53192">
        <ele>5.16171</ele>
        <time>2023-05-31T09:06:16.000Z</time>
      </trkpt>
      <trkpt lat="46.23016" lon="-1.53198">
        <ele>5.14598</ele>
        <time>2023-05-31T09:06:17.000Z</time>
      </trkpt>
      <trkpt lat="46.23019" lon="-1.53204">
        <ele>5.1578</ele>
        <time>2023-05-31T09:06:18.000Z</time>
      </trkpt>
      <trkpt lat="46.23021" lon="-1.5321">
        <ele>5.17579</ele>
        <time>2023-05-31T09:06:19.000Z</time>
      </trkpt>
      <trkpt lat="46.23024" lon="-1.53215">
        <ele>5.20164</ele>
        <time>2023-05-31T09:06:20.000Z</time>
      </trkpt>
      <trkpt lat="46.23026" lon="-1.53222">
        <ele>5.2119</ele>
        <time>2023-05-31T09:06:21.000Z</time>
      </trkpt>
      <trkpt lat="46.23029" lon="-1.53229">
        <ele>5.23674</ele>
        <time>2023-05-31T09:06:22.000Z</time>
      </trkpt>
      <trkpt lat="46.23031" lon="-1.53235">
        <ele>5.20328</ele>
        <time>2023-05-31T09:06:23.000Z</time>
      </trkpt>
      <trkpt lat="46.23034" lon="-1.53241">
        <ele>5.18057</ele>
        <time>2023-05-31T09:06:24.000Z</time>
      </trkpt>
      <trkpt lat="46.23037" lon="-1.53248">
        <ele>5.15309</ele>
        <time>2023-05-31T09:06:25.000Z</time>
      </trkpt>
      <trkpt lat="46.23039" lon="-1.53253">
        <ele>5.08092</ele>
        <time>2023-05-31T09:06:26.000Z</time>
      </trkpt>
      <trkpt lat="46.23041" lon="-1.53259">
        <ele>5.00363</ele>
        <time>2023-05-31T09:06:27.000Z</time>
      </trkpt>
      <trkpt lat="46.23044" lon="-1.53266">
        <ele>4.9458</ele>
        <time>2023-05-31T09:06:28.000Z</time>
      </trkpt>
      <trkpt lat="46.23046" lon="-1.53273">
        <ele>4.91161</ele>
        <time>2023-05-31T09:06:29.000Z</time>
      </trkpt>
      <trkpt lat="46.23049" lon="-1.53279">
        <ele>4.8552</ele>
        <time>2023-05-31T09:06:30.000Z</time>
      </trkpt>
      <trkpt lat="46.23051" lon="-1.53285">
        <ele>4.78747</ele>
        <time>2023-05-31T09:06:31.000Z</time>
      </trkpt>
      <trkpt lat="46.23053" lon="-1.53291">
        <ele>4.76087</ele>
        <time>2023-05-31T09:06:32.000Z</time>
      </trkpt>
      <trkpt lat="46.23055" lon="-1.53297">
        <ele>4.73993</ele>
        <time>2023-05-31T09:06:33.000Z</time>
      </trkpt>
      <trkpt lat="46.23057" lon="-1.53304">
        <ele>4.73276</ele>
        <time>2023-05-31T09:06:34.000Z</time>
      </trkpt>
      <trkpt lat="46.2306" lon="-1.53312">
        <ele>4.74216</ele>
        <time>2023-05-31T09:06:35.000Z</time>
      </trkpt>
      <trkpt lat="46.23062" lon="-1.53318">
        <ele>4.76071</ele>
        <time>2023-05-31T09:06:36.000Z</time>
      </trkpt>
      <trkpt lat="46.23063" lon="-1.53326">
        <ele>4.75136</ele>
        <time>2023-05-31T09:06:37.000Z</time>
      </trkpt>
      <trkpt lat="46.23065" lon="-1.53333">
        <ele>4.73792</ele>
        <time>2023-05-31T09:06:38.000Z</time>
      </trkpt>
      <trkpt lat="46.23067" lon="-1.53339">
        <ele>4.72591</ele>
        <time>2023-05-31T09:06:39.000Z</time>
      </trkpt>
      <trkpt lat="46.23069" lon="-1.53346">
        <ele>4.71305</ele>
        <time>2023-05-31T09:06:40.000Z</time>
      </trkpt>
      <trkpt lat="46.23071" lon="-1.53353">
        <ele>4.70799</ele>
        <time>2023-05-31T09:06:41.000Z</time>
      </trkpt>
      <trkpt lat="46.23073" lon="-1.5336">
        <ele>4.68881</ele>
        <time>2023-05-31T09:06:42.000Z</time>
      </trkpt>
      <trkpt lat="46.23075" lon="-1.53367">
        <ele>4.73258</ele>
        <time>2023-05-31T09:06:43.000Z</time>
      </trkpt>
      <trkpt lat="46.23077" lon="-1.53374">
        <ele>4.75012</ele>
        <time>2023-05-31T09:06:44.000Z</time>
      </trkpt>
      <trkpt lat="46.23079" lon="-1.53381">
        <ele>4.75919</ele>
        <time>2023-05-31T09:06:45.000Z</time>
      </trkpt>
      <trkpt lat="46.23081" lon="-1.53388">
        <ele>4.7708</ele>
        <time>2023-05-31T09:06:46.000Z</time>
      </trkpt>
      <trkpt lat="46.23083" lon="-1.53395">
        <ele>4.77044</ele>
        <time>2023-05-31T09:06:47.000Z</time>
      </trkpt>
      <trkpt lat="46.23085" lon="-1.53402">
        <ele>4.76036</ele>
        <time>2023-05-31T09:06:48.000Z</time>
      </trkpt>
      <trkpt lat="46.23087" lon="-1.53409">
        <ele>4.7756</ele>
        <time>2023-05-31T09:06:49.000Z</time>
      </trkpt>
      <trkpt lat="46.23088" lon="-1.53417">
        <ele>4.80101</ele>
        <time>2023-05-31T09:06:50.000Z</time>
      </trkpt>
      <trkpt lat="46.2309" lon="-1.53423">
        <ele>4.81505</ele>
        <time>2023-05-31T09:06:51.000Z</time>
      </trkpt>
      <trkpt lat="46.23091" lon="-1.5343">
        <ele>4.82747</ele>
        <time>2023-05-31T09:06:52.000Z</time>
      </trkpt>
      <trkpt lat="46.23093" lon="-1.53438">
        <ele>4.82107</ele>
        <time>2023-05-31T09:06:53.000Z</time>
      </trkpt>
      <trkpt lat="46.23094" lon="-1.53445">
        <ele>4.80452</ele>
        <time>2023-05-31T09:06:54.000Z</time>
      </trkpt>
      <trkpt lat="46.23096" lon="-1.53452">
        <ele>4.76707</ele>
        <time>2023-05-31T09:06:55.000Z</time>
      </trkpt>
      <trkpt lat="46.23097" lon="-1.5346">
        <ele>4.72438</ele>
        <time>2023-05-31T09:06:56.000Z</time>
      </trkpt>
      <trkpt lat="46.23098" lon="-1.53467">
        <ele>4.68681</ele>
        <time>2023-05-31T09:06:57.000Z</time>
      </trkpt>
      <trkpt lat="46.231" lon="-1.53474">
        <ele>4.60296</ele>
        <time>2023-05-31T09:06:58.000Z</time>
      </trkpt>
      <trkpt lat="46.23101" lon="-1.53481">
        <ele>4.51566</ele>
        <time>2023-05-31T09:06:59.000Z</time>
      </trkpt>
      <trkpt lat="46.23103" lon="-1.53489">
        <ele>4.41737</ele>
        <time>2023-05-31T09:07:00.000Z</time>
      </trkpt>
      <trkpt lat="46.23104" lon="-1.53496">
        <ele>4.32355</ele>
        <time>2023-05-31T09:07:01.000Z</time>
      </trkpt>
      <trkpt lat="46.23105" lon="-1.53503">
        <ele>4.2276</ele>
        <time>2023-05-31T09:07:02.000Z</time>
      </trkpt>
      <trkpt lat="46.23106" lon="-1.53511">
        <ele>4.12996</ele>
        <time>2023-05-31T09:07:03.000Z</time>
      </trkpt>
      <trkpt lat="46.23107" lon="-1.53519">
        <ele>4.04641</ele>
        <time>2023-05-31T09:07:04.000Z</time>
      </trkpt>
      <trkpt lat="46.23108" lon="-1.53526">
        <ele>3.9615</ele>
        <time>2023-05-31T09:07:05.000Z</time>
      </trkpt>
      <trkpt lat="46.23109" lon="-1.53534">
        <ele>3.89369</ele>
        <time>2023-05-31T09:07:06.000Z</time>
      </trkpt>
      <trkpt lat="46.23111" lon="-1.53541">
        <ele>3.8468</ele>
        <time>2023-05-31T09:07:07.000Z</time>
      </trkpt>
      <trkpt lat="46.23113" lon="-1.53548">
        <ele>3.79851</ele>
        <time>2023-05-31T09:07:08.000Z</time>
      </trkpt>
      <trkpt lat="46.23114" lon="-1.53555">
        <ele>3.72032</ele>
        <time>2023-05-31T09:07:09.000Z</time>
      </trkpt>
      <trkpt lat="46.23115" lon="-1.53562">
        <ele>3.64176</ele>
        <time>2023-05-31T09:07:10.000Z</time>
      </trkpt>
      <trkpt lat="46.23117" lon="-1.5357">
        <ele>3.58124</ele>
        <time>2023-05-31T09:07:11.000Z</time>
      </trkpt>
      <trkpt lat="46.23118" lon="-1.53579">
        <ele>3.50913</ele>
        <time>2023-05-31T09:07:12.000Z</time>
      </trkpt>
      <trkpt lat="46.23119" lon="-1.53586">
        <ele>3.43993</ele>
        <time>2023-05-31T09:07:13.000Z</time>
      </trkpt>
      <trkpt lat="46.23121" lon="-1.53594">
        <ele>3.36853</ele>
        <time>2023-05-31T09:07:14.000Z</time>
      </trkpt>
      <trkpt lat="46.23122" lon="-1.53602">
        <ele>3.30551</ele>
        <time>2023-05-31T09:07:15.000Z</time>
      </trkpt>
      <trkpt lat="46.23124" lon="-1.5361">
        <ele>3.23627</ele>
        <time>2023-05-31T09:07:16.000Z</time>
      </trkpt>
      <trkpt lat="46.23125" lon="-1.53617">
        <ele>3.18495</ele>
        <time>2023-05-31T09:07:17.000Z</time>
      </trkpt>
      <trkpt lat="46.23127" lon="-1.53626">
        <ele>3.16936</ele>
        <time>2023-05-31T09:07:18.000Z</time>
      </trkpt>
      <trkpt lat="46.23128" lon="-1.53634">
        <ele>3.17483</ele>
        <time>2023-05-31T09:07:19.000Z</time>
      </trkpt>
      <trkpt lat="46.23129" lon="-1.53641">
        <ele>3.17769</ele>
        <time>2023-05-31T09:07:20.000Z</time>
      </trkpt>
      <trkpt lat="46.23131" lon="-1.53649">
        <ele>3.16388</ele>
        <time>2023-05-31T09:07:21.000Z</time>
      </trkpt>
      <trkpt lat="46.23132" lon="-1.53658">
        <ele>3.14035</ele>
        <time>2023-05-31T09:07:22.000Z</time>
      </trkpt>
      <trkpt lat="46.23134" lon="-1.53666">
        <ele>3.10947</ele>
        <time>2023-05-31T09:07:23.000Z</time>
      </trkpt>
      <trkpt lat="46.23135" lon="-1.53673">
        <ele>3.06935</ele>
        <time>2023-05-31T09:07:24.000Z</time>
      </trkpt>
      <trkpt lat="46.23136" lon="-1.53681">
        <ele>3.02684</ele>
        <time>2023-05-31T09:07:25.000Z</time>
      </trkpt>
      <trkpt lat="46.23137" lon="-1.53689">
        <ele>3.02058</ele>
        <time>2023-05-31T09:07:26.000Z</time>
      </trkpt>
      <trkpt lat="46.23138" lon="-1.53696">
        <ele>3.02028</ele>
        <time>2023-05-31T09:07:27.000Z</time>
      </trkpt>
      <trkpt lat="46.23139" lon="-1.53704">
        <ele>3.02259</ele>
        <time>2023-05-31T09:07:28.000Z</time>
      </trkpt>
      <trkpt lat="46.2314" lon="-1.53712">
        <ele>3.03561</ele>
        <time>2023-05-31T09:07:29.000Z</time>
      </trkpt>
      <trkpt lat="46.23142" lon="-1.5372">
        <ele>3.05253</ele>
        <time>2023-05-31T09:07:30.000Z</time>
      </trkpt>
      <trkpt lat="46.23142" lon="-1.53727">
        <ele>3.06944</ele>
        <time>2023-05-31T09:07:31.000Z</time>
      </trkpt>
      <trkpt lat="46.23144" lon="-1.53735">
        <ele>3.08717</ele>
        <time>2023-05-31T09:07:32.000Z</time>
      </trkpt>
      <trkpt lat="46.23145" lon="-1.53742">
        <ele>3.1183</ele>
        <time>2023-05-31T09:07:33.000Z</time>
      </trkpt>
      <trkpt lat="46.23147" lon="-1.5375">
        <ele>3.14906</ele>
        <time>2023-05-31T09:07:34.000Z</time>
      </trkpt>
      <trkpt lat="46.23149" lon="-1.53758">
        <ele>3.17</ele>
        <time>2023-05-31T09:07:35.000Z</time>
      </trkpt>
      <trkpt lat="46.23151" lon="-1.53766">
        <ele>3.18458</ele>
        <time>2023-05-31T09:07:36.000Z</time>
      </trkpt>
      <trkpt lat="46.23153" lon="-1.53775">
        <ele>3.22038</ele>
        <time>2023-05-31T09:07:37.000Z</time>
      </trkpt>
      <trkpt lat="46.23155" lon="-1.53782">
        <ele>3.25182</ele>
        <time>2023-05-31T09:07:38.000Z</time>
      </trkpt>
      <trkpt lat="46.23158" lon="-1.53789">
        <ele>3.2642</ele>
        <time>2023-05-31T09:07:39.000Z</time>
      </trkpt>
      <trkpt lat="46.23161" lon="-1.53796">
        <ele>3.3004</ele>
        <time>2023-05-31T09:07:40.000Z</time>
      </trkpt>
      <trkpt lat="46.23163" lon="-1.53803">
        <ele>3.35634</ele>
        <time>2023-05-31T09:07:41.000Z</time>
      </trkpt>
      <trkpt lat="46.23165" lon="-1.5381">
        <ele>3.43133</ele>
        <time>2023-05-31T09:07:42.000Z</time>
      </trkpt>
      <trkpt lat="46.23168" lon="-1.53817">
        <ele>3.49698</ele>
        <time>2023-05-31T09:07:43.000Z</time>
      </trkpt>
      <trkpt lat="46.2317" lon="-1.53824">
        <ele>3.5685</ele>
        <time>2023-05-31T09:07:44.000Z</time>
      </trkpt>
      <trkpt lat="46.23173" lon="-1.53832">
        <ele>3.64695</ele>
        <time>2023-05-31T09:07:45.000Z</time>
      </trkpt>
      <trkpt lat="46.23176" lon="-1.53839">
        <ele>3.70053</ele>
        <time>2023-05-31T09:07:46.000Z</time>
      </trkpt>
      <trkpt lat="46.23178" lon="-1.53846">
        <ele>3.76021</ele>
        <time>2023-05-31T09:07:47.000Z</time>
      </trkpt>
      <trkpt lat="46.23181" lon="-1.53853">
        <ele>3.81969</ele>
        <time>2023-05-31T09:07:48.000Z</time>
      </trkpt>
      <trkpt lat="46.23183" lon="-1.5386">
        <ele>3.88497</ele>
        <time>2023-05-31T09:07:49.000Z</time>
      </trkpt>
      <trkpt lat="46.23185" lon="-1.53867">
        <ele>3.94804</ele>
        <time>2023-05-31T09:07:50.000Z</time>
      </trkpt>
      <trkpt lat="46.23189" lon="-1.53874">
        <ele>4.01041</ele>
        <time>2023-05-31T09:07:51.000Z</time>
      </trkpt>
      <trkpt lat="46.23192" lon="-1.5388">
        <ele>4.05539</ele>
        <time>2023-05-31T09:07:52.000Z</time>
      </trkpt>
      <trkpt lat="46.23195" lon="-1.53888">
        <ele>4.07867</ele>
        <time>2023-05-31T09:07:53.000Z</time>
      </trkpt>
      <trkpt lat="46.23198" lon="-1.53895">
        <ele>4.11034</ele>
        <time>2023-05-31T09:07:54.000Z</time>
      </trkpt>
      <trkpt lat="46.232" lon="-1.53902">
        <ele>4.17239</ele>
        <time>2023-05-31T09:07:55.000Z</time>
      </trkpt>
      <trkpt lat="46.23202" lon="-1.53909">
        <ele>4.25934</ele>
        <time>2023-05-31T09:07:56.000Z</time>
      </trkpt>
      <trkpt lat="46.23206" lon="-1.53916">
        <ele>4.31844</ele>
        <time>2023-05-31T09:07:57.000Z</time>
      </trkpt>
      <trkpt lat="46.23208" lon="-1.53923">
        <ele>4.37804</ele>
        <time>2023-05-31T09:07:58.000Z</time>
      </trkpt>
      <trkpt lat="46.23211" lon="-1.5393">
        <ele>4.41784</ele>
        <time>2023-05-31T09:07:59.000Z</time>
      </trkpt>
      <trkpt lat="46.23214" lon="-1.53937">
        <ele>4.42295</ele>
        <time>2023-05-31T09:08:00.000Z</time>
      </trkpt>
      <trkpt lat="46.23217" lon="-1.53944">
        <ele>4.40775</ele>
        <time>2023-05-31T09:08:01.000Z</time>
      </trkpt>
      <trkpt lat="46.2322" lon="-1.5395">
        <ele>4.38114</ele>
        <time>2023-05-31T09:08:02.000Z</time>
      </trkpt>
      <trkpt lat="46.23222" lon="-1.53958">
        <ele>4.36582</ele>
        <time>2023-05-31T09:08:03.000Z</time>
      </trkpt>
      <trkpt lat="46.23225" lon="-1.53966">
        <ele>4.36045</ele>
        <time>2023-05-31T09:08:04.000Z</time>
      </trkpt>
      <trkpt lat="46.23228" lon="-1.53973">
        <ele>4.36003</ele>
        <time>2023-05-31T09:08:05.000Z</time>
      </trkpt>
      <trkpt lat="46.2323" lon="-1.5398">
        <ele>4.36689</ele>
        <time>2023-05-31T09:08:06.000Z</time>
      </trkpt>
      <trkpt lat="46.23233" lon="-1.53987">
        <ele>4.35534</ele>
        <time>2023-05-31T09:08:07.000Z</time>
      </trkpt>
      <trkpt lat="46.23235" lon="-1.53994">
        <ele>4.33187</ele>
        <time>2023-05-31T09:08:08.000Z</time>
      </trkpt>
      <trkpt lat="46.23238" lon="-1.54001">
        <ele>4.30961</ele>
        <time>2023-05-31T09:08:09.000Z</time>
      </trkpt>
      <trkpt lat="46.2324" lon="-1.54007">
        <ele>4.28708</ele>
        <time>2023-05-31T09:08:10.000Z</time>
      </trkpt>
      <trkpt lat="46.23243" lon="-1.54014">
        <ele>4.26795</ele>
        <time>2023-05-31T09:08:11.000Z</time>
      </trkpt>
      <trkpt lat="46.23246" lon="-1.54021">
        <ele>4.25401</ele>
        <time>2023-05-31T09:08:12.000Z</time>
      </trkpt>
      <trkpt lat="46.23249" lon="-1.54028">
        <ele>4.26113</ele>
        <time>2023-05-31T09:08:13.000Z</time>
      </trkpt>
      <trkpt lat="46.23252" lon="-1.54035">
        <ele>4.27956</ele>
        <time>2023-05-31T09:08:14.000Z</time>
      </trkpt>
      <trkpt lat="46.23254" lon="-1.54042">
        <ele>4.27848</ele>
        <time>2023-05-31T09:08:15.000Z</time>
      </trkpt>
      <trkpt lat="46.23257" lon="-1.54049">
        <ele>4.26441</ele>
        <time>2023-05-31T09:08:16.000Z</time>
      </trkpt>
      <trkpt lat="46.23259" lon="-1.54055">
        <ele>4.25497</ele>
        <time>2023-05-31T09:08:17.000Z</time>
      </trkpt>
      <trkpt lat="46.23261" lon="-1.54063">
        <ele>4.24885</ele>
        <time>2023-05-31T09:08:18.000Z</time>
      </trkpt>
      <trkpt lat="46.23264" lon="-1.54069">
        <ele>4.2676</ele>
        <time>2023-05-31T09:08:19.000Z</time>
      </trkpt>
      <trkpt lat="46.23267" lon="-1.54076">
        <ele>4.31348</ele>
        <time>2023-05-31T09:08:20.000Z</time>
      </trkpt>
      <trkpt lat="46.2327" lon="-1.54083">
        <ele>4.36864</ele>
        <time>2023-05-31T09:08:21.000Z</time>
      </trkpt>
      <trkpt lat="46.23272" lon="-1.5409">
        <ele>4.41217</ele>
        <time>2023-05-31T09:08:22.000Z</time>
      </trkpt>
      <trkpt lat="46.23275" lon="-1.54097">
        <ele>4.47153</ele>
        <time>2023-05-31T09:08:23.000Z</time>
      </trkpt>
      <trkpt lat="46.23277" lon="-1.54103">
        <ele>4.49897</ele>
        <time>2023-05-31T09:08:24.000Z</time>
      </trkpt>
      <trkpt lat="46.2328" lon="-1.5411">
        <ele>4.52956</ele>
        <time>2023-05-31T09:08:25.000Z</time>
      </trkpt>
      <trkpt lat="46.23282" lon="-1.54116">
        <ele>4.56312</ele>
        <time>2023-05-31T09:08:26.000Z</time>
      </trkpt>
      <trkpt lat="46.23285" lon="-1.54123">
        <ele>4.62745</ele>
        <time>2023-05-31T09:08:27.000Z</time>
      </trkpt>
      <trkpt lat="46.23287" lon="-1.5413">
        <ele>4.69748</ele>
        <time>2023-05-31T09:08:28.000Z</time>
      </trkpt>
      <trkpt lat="46.2329" lon="-1.54136">
        <ele>4.74278</ele>
        <time>2023-05-31T09:08:29.000Z</time>
      </trkpt>
      <trkpt lat="46.23294" lon="-1.54136">
        <ele>4.79857</ele>
        <time>2023-05-31T09:08:30.000Z</time>
      </trkpt>
      <trkpt lat="46.23298" lon="-1.54133">
        <ele>4.8482</ele>
        <time>2023-05-31T09:08:31.000Z</time>
      </trkpt>
      <trkpt lat="46.23301" lon="-1.5413">
        <ele>4.87193</ele>
        <time>2023-05-31T09:08:32.000Z</time>
      </trkpt>
      <trkpt lat="46.23305" lon="-1.54125">
        <ele>4.88402</ele>
        <time>2023-05-31T09:08:33.000Z</time>
      </trkpt>
      <trkpt lat="46.23308" lon="-1.5412">
        <ele>4.8648</ele>
        <time>2023-05-31T09:08:34.000Z</time>
      </trkpt>
      <trkpt lat="46.23311" lon="-1.54116">
        <ele>4.87991</ele>
        <time>2023-05-31T09:08:35.000Z</time>
      </trkpt>
      <trkpt lat="46.23315" lon="-1.54111">
        <ele>4.8565</ele>
        <time>2023-05-31T09:08:36.000Z</time>
      </trkpt>
      <trkpt lat="46.23319" lon="-1.54107">
        <ele>4.82594</ele>
        <time>2023-05-31T09:08:37.000Z</time>
      </trkpt>
      <trkpt lat="46.23322" lon="-1.54102">
        <ele>4.79281</ele>
        <time>2023-05-31T09:08:38.000Z</time>
      </trkpt>
      <trkpt lat="46.23326" lon="-1.54099">
        <ele>4.75649</ele>
        <time>2023-05-31T09:08:39.000Z</time>
      </trkpt>
      <trkpt lat="46.2333" lon="-1.54095">
        <ele>4.72317</ele>
        <time>2023-05-31T09:08:40.000Z</time>
      </trkpt>
      <trkpt lat="46.23334" lon="-1.54091">
        <ele>4.70512</ele>
        <time>2023-05-31T09:08:41.000Z</time>
      </trkpt>
      <trkpt lat="46.23339" lon="-1.54087">
        <ele>4.70026</ele>
        <time>2023-05-31T09:08:42.000Z</time>
      </trkpt>
      <trkpt lat="46.23343" lon="-1.54083">
        <ele>4.69459</ele>
        <time>2023-05-31T09:08:43.000Z</time>
      </trkpt>
      <trkpt lat="46.23347" lon="-1.5408">
        <ele>4.74363</ele>
        <time>2023-05-31T09:08:44.000Z</time>
      </trkpt>
      <trkpt lat="46.23351" lon="-1.54075">
        <ele>4.76957</ele>
        <time>2023-05-31T09:08:45.000Z</time>
      </trkpt>
      <trkpt lat="46.23355" lon="-1.54071">
        <ele>4.77529</ele>
        <time>2023-05-31T09:08:46.000Z</time>
      </trkpt>
      <trkpt lat="46.23359" lon="-1.54067">
        <ele>4.74956</ele>
        <time>2023-05-31T09:08:47.000Z</time>
      </trkpt>
      <trkpt lat="46.23364" lon="-1.54061">
        <ele>4.66737</ele>
        <time>2023-05-31T09:08:48.000Z</time>
      </trkpt>
      <trkpt lat="46.23367" lon="-1.54057">
        <ele>4.59466</ele>
        <time>2023-05-31T09:08:49.000Z</time>
      </trkpt>
      <trkpt lat="46.23372" lon="-1.54054">
        <ele>4.53021</ele>
        <time>2023-05-31T09:08:50.000Z</time>
      </trkpt>
      <trkpt lat="46.23376" lon="-1.5405">
        <ele>4.44656</ele>
        <time>2023-05-31T09:08:51.000Z</time>
      </trkpt>
      <trkpt lat="46.23381" lon="-1.54047">
        <ele>4.40339</ele>
        <time>2023-05-31T09:08:52.000Z</time>
      </trkpt>
      <trkpt lat="46.23384" lon="-1.54043">
        <ele>4.36383</ele>
        <time>2023-05-31T09:08:53.000Z</time>
      </trkpt>
      <trkpt lat="46.23389" lon="-1.54038">
        <ele>4.31572</ele>
        <time>2023-05-31T09:08:54.000Z</time>
      </trkpt>
      <trkpt lat="46.23394" lon="-1.54034">
        <ele>4.23959</ele>
        <time>2023-05-31T09:08:55.000Z</time>
      </trkpt>
      <trkpt lat="46.23398" lon="-1.5403">
        <ele>4.1942</ele>
        <time>2023-05-31T09:08:56.000Z</time>
      </trkpt>
      <trkpt lat="46.23401" lon="-1.54026">
        <ele>4.14607</ele>
        <time>2023-05-31T09:08:57.000Z</time>
      </trkpt>
      <trkpt lat="46.23406" lon="-1.54023">
        <ele>4.08581</ele>
        <time>2023-05-31T09:08:58.000Z</time>
      </trkpt>
      <trkpt lat="46.2341" lon="-1.5402">
        <ele>4.02909</ele>
        <time>2023-05-31T09:08:59.000Z</time>
      </trkpt>
      <trkpt lat="46.23414" lon="-1.54017">
        <ele>3.96185</ele>
        <time>2023-05-31T09:09:00.000Z</time>
      </trkpt>
      <trkpt lat="46.23418" lon="-1.54013">
        <ele>3.88219</ele>
        <time>2023-05-31T09:09:01.000Z</time>
      </trkpt>
      <trkpt lat="46.23423" lon="-1.54011">
        <ele>3.82623</ele>
        <time>2023-05-31T09:09:02.000Z</time>
      </trkpt>
      <trkpt lat="46.23426" lon="-1.54006">
        <ele>3.7519</ele>
        <time>2023-05-31T09:09:03.000Z</time>
      </trkpt>
      <trkpt lat="46.2343" lon="-1.54003">
        <ele>3.64735</ele>
        <time>2023-05-31T09:09:04.000Z</time>
      </trkpt>
      <trkpt lat="46.23433" lon="-1.54001">
        <ele>3.5669</ele>
        <time>2023-05-31T09:09:05.000Z</time>
      </trkpt>
      <trkpt lat="46.23438" lon="-1.54">
        <ele>3.49727</ele>
        <time>2023-05-31T09:09:06.000Z</time>
      </trkpt>
      <trkpt lat="46.23443" lon="-1.54">
        <ele>3.44665</ele>
        <time>2023-05-31T09:09:07.000Z</time>
      </trkpt>
      <trkpt lat="46.23447" lon="-1.54002">
        <ele>3.47645</ele>
        <time>2023-05-31T09:09:08.000Z</time>
      </trkpt>
      <trkpt lat="46.23452" lon="-1.54006">
        <ele>3.51907</ele>
        <time>2023-05-31T09:09:09.000Z</time>
      </trkpt>
      <trkpt lat="46.23455" lon="-1.5401">
        <ele>3.5442</ele>
        <time>2023-05-31T09:09:10.000Z</time>
      </trkpt>
      <trkpt lat="46.23459" lon="-1.54016">
        <ele>3.58972</ele>
        <time>2023-05-31T09:09:11.000Z</time>
      </trkpt>
      <trkpt lat="46.23461" lon="-1.54021">
        <ele>3.61208</ele>
        <time>2023-05-31T09:09:12.000Z</time>
      </trkpt>
      <trkpt lat="46.23464" lon="-1.54027">
        <ele>3.62858</ele>
        <time>2023-05-31T09:09:13.000Z</time>
      </trkpt>
      <trkpt lat="46.23468" lon="-1.54034">
        <ele>3.66868</ele>
        <time>2023-05-31T09:09:14.000Z</time>
      </trkpt>
      <trkpt lat="46.23472" lon="-1.54041">
        <ele>3.70681</ele>
        <time>2023-05-31T09:09:15.000Z</time>
      </trkpt>
      <trkpt lat="46.23475" lon="-1.54047">
        <ele>3.77341</ele>
        <time>2023-05-31T09:09:16.000Z</time>
      </trkpt>
      <trkpt lat="46.23478" lon="-1.54054">
        <ele>3.8681</ele>
        <time>2023-05-31T09:09:17.000Z</time>
      </trkpt>
      <trkpt lat="46.23481" lon="-1.54061">
        <ele>3.9916</ele>
        <time>2023-05-31T09:09:18.000Z</time>
      </trkpt>
      <trkpt lat="46.23485" lon="-1.54067">
        <ele>4.09712</ele>
        <time>2023-05-31T09:09:19.000Z</time>
      </trkpt>
      <trkpt lat="46.23489" lon="-1.54074">
        <ele>4.20192</ele>
        <time>2023-05-31T09:09:20.000Z</time>
      </trkpt>
      <trkpt lat="46.23491" lon="-1.54081">
        <ele>4.29405</ele>
        <time>2023-05-31T09:09:21.000Z</time>
      </trkpt>
      <trkpt lat="46.23495" lon="-1.54087">
        <ele>4.35535</ele>
        <time>2023-05-31T09:09:22.000Z</time>
      </trkpt>
      <trkpt lat="46.23498" lon="-1.54092">
        <ele>4.41229</ele>
        <time>2023-05-31T09:09:23.000Z</time>
      </trkpt>
      <trkpt lat="46.23502" lon="-1.54098">
        <ele>4.46349</ele>
        <time>2023-05-31T09:09:24.000Z</time>
      </trkpt>
      <trkpt lat="46.23505" lon="-1.54105">
        <ele>4.52081</ele>
        <time>2023-05-31T09:09:25.000Z</time>
      </trkpt>
      <trkpt lat="46.23508" lon="-1.54112">
        <ele>4.56142</ele>
        <time>2023-05-31T09:09:26.000Z</time>
      </trkpt>
      <trkpt lat="46.23512" lon="-1.54119">
        <ele>4.59886</ele>
        <time>2023-05-31T09:09:27.000Z</time>
      </trkpt>
      <trkpt lat="46.23516" lon="-1.54125">
        <ele>4.60574</ele>
        <time>2023-05-31T09:09:28.000Z</time>
      </trkpt>
      <trkpt lat="46.23519" lon="-1.54132">
        <ele>4.61108</ele>
        <time>2023-05-31T09:09:29.000Z</time>
      </trkpt>
      <trkpt lat="46.23522" lon="-1.54139">
        <ele>4.61448</ele>
        <time>2023-05-31T09:09:30.000Z</time>
      </trkpt>
      <trkpt lat="46.23526" lon="-1.54145">
        <ele>4.61853</ele>
        <time>2023-05-31T09:09:31.000Z</time>
      </trkpt>
      <trkpt lat="46.2353" lon="-1.54152">
        <ele>4.64161</ele>
        <time>2023-05-31T09:09:32.000Z</time>
      </trkpt>
      <trkpt lat="46.23534" lon="-1.54159">
        <ele>4.67702</ele>
        <time>2023-05-31T09:09:33.000Z</time>
      </trkpt>
      <trkpt lat="46.23537" lon="-1.54167">
        <ele>4.71352</ele>
        <time>2023-05-31T09:09:34.000Z</time>
      </trkpt>
      <trkpt lat="46.2354" lon="-1.54172">
        <ele>4.75284</ele>
        <time>2023-05-31T09:09:35.000Z</time>
      </trkpt>
      <trkpt lat="46.23544" lon="-1.54179">
        <ele>4.78182</ele>
        <time>2023-05-31T09:09:36.000Z</time>
      </trkpt>
      <trkpt lat="46.23547" lon="-1.54186">
        <ele>4.78779</ele>
        <time>2023-05-31T09:09:37.000Z</time>
      </trkpt>
      <trkpt lat="46.23551" lon="-1.54193">
        <ele>4.80001</ele>
        <time>2023-05-31T09:09:38.000Z</time>
      </trkpt>
      <trkpt lat="46.23555" lon="-1.542">
        <ele>4.83669</ele>
        <time>2023-05-31T09:09:39.000Z</time>
      </trkpt>
      <trkpt lat="46.23559" lon="-1.54205">
        <ele>4.90623</ele>
        <time>2023-05-31T09:09:40.000Z</time>
      </trkpt>
      <trkpt lat="46.23563" lon="-1.54211">
        <ele>4.97981</ele>
        <time>2023-05-31T09:09:41.000Z</time>
      </trkpt>
      <trkpt lat="46.23568" lon="-1.54218">
        <ele>5.06813</ele>
        <time>2023-05-31T09:09:42.000Z</time>
      </trkpt>
      <trkpt lat="46.23571" lon="-1.54224">
        <ele>5.17763</ele>
        <time>2023-05-31T09:09:43.000Z</time>
      </trkpt>
      <trkpt lat="46.23575" lon="-1.54231">
        <ele>5.28931</ele>
        <time>2023-05-31T09:09:44.000Z</time>
      </trkpt>
      <trkpt lat="46.23579" lon="-1.54238">
        <ele>5.37543</ele>
        <time>2023-05-31T09:09:45.000Z</time>
      </trkpt>
      <trkpt lat="46.23582" lon="-1.54244">
        <ele>5.47089</ele>
        <time>2023-05-31T09:09:46.000Z</time>
      </trkpt>
      <trkpt lat="46.23586" lon="-1.54251">
        <ele>5.54134</ele>
        <time>2023-05-31T09:09:47.000Z</time>
      </trkpt>
      <trkpt lat="46.2359" lon="-1.54258">
        <ele>5.61072</ele>
        <time>2023-05-31T09:09:48.000Z</time>
      </trkpt>
      <trkpt lat="46.23593" lon="-1.54264">
        <ele>5.68416</ele>
        <time>2023-05-31T09:09:49.000Z</time>
      </trkpt>
      <trkpt lat="46.23597" lon="-1.5427">
        <ele>5.75337</ele>
        <time>2023-05-31T09:09:50.000Z</time>
      </trkpt>
      <trkpt lat="46.236" lon="-1.54276">
        <ele>5.80166</ele>
        <time>2023-05-31T09:09:51.000Z</time>
      </trkpt>
      <trkpt lat="46.23604" lon="-1.54282">
        <ele>5.85217</ele>
        <time>2023-05-31T09:09:52.000Z</time>
      </trkpt>
      <trkpt lat="46.23607" lon="-1.54289">
        <ele>5.88963</ele>
        <time>2023-05-31T09:09:53.000Z</time>
      </trkpt>
      <trkpt lat="46.2361" lon="-1.54296">
        <ele>5.93194</ele>
        <time>2023-05-31T09:09:54.000Z</time>
      </trkpt>
      <trkpt lat="46.23614" lon="-1.54302">
        <ele>5.96737</ele>
        <time>2023-05-31T09:09:55.000Z</time>
      </trkpt>
      <trkpt lat="46.23617" lon="-1.54308">
        <ele>6.00113</ele>
        <time>2023-05-31T09:09:56.000Z</time>
      </trkpt>
      <trkpt lat="46.23621" lon="-1.54315">
        <ele>6.03888</ele>
        <time>2023-05-31T09:09:57.000Z</time>
      </trkpt>
      <trkpt lat="46.23624" lon="-1.5432">
        <ele>6.02281</ele>
        <time>2023-05-31T09:09:58.000Z</time>
      </trkpt>
      <trkpt lat="46.23627" lon="-1.54327">
        <ele>5.99481</ele>
        <time>2023-05-31T09:09:59.000Z</time>
      </trkpt>
      <trkpt lat="46.2363" lon="-1.54334">
        <ele>5.91396</ele>
        <time>2023-05-31T09:10:00.000Z</time>
      </trkpt>
      <trkpt lat="46.23632" lon="-1.54342">
        <ele>5.84694</ele>
        <time>2023-05-31T09:10:01.000Z</time>
      </trkpt>
      <trkpt lat="46.23633" lon="-1.54351">
        <ele>5.76326</ele>
        <time>2023-05-31T09:10:02.000Z</time>
      </trkpt>
      <trkpt lat="46.23633" lon="-1.5436">
        <ele>5.63978</ele>
        <time>2023-05-31T09:10:03.000Z</time>
      </trkpt>
      <trkpt lat="46.23633" lon="-1.54368">
        <ele>5.54397</ele>
        <time>2023-05-31T09:10:04.000Z</time>
      </trkpt>
      <trkpt lat="46.23633" lon="-1.54376">
        <ele>5.4621</ele>
        <time>2023-05-31T09:10:05.000Z</time>
      </trkpt>
      <trkpt lat="46.23634" lon="-1.54384">
        <ele>5.4027</ele>
        <time>2023-05-31T09:10:06.000Z</time>
      </trkpt>
      <trkpt lat="46.23634" lon="-1.54393">
        <ele>5.36643</ele>
        <time>2023-05-31T09:10:07.000Z</time>
      </trkpt>
      <trkpt lat="46.23635" lon="-1.54401">
        <ele>5.35835</ele>
        <time>2023-05-31T09:10:08.000Z</time>
      </trkpt>
      <trkpt lat="46.23635" lon="-1.54408">
        <ele>5.34374</ele>
        <time>2023-05-31T09:10:09.000Z</time>
      </trkpt>
      <trkpt lat="46.23635" lon="-1.54415">
        <ele>5.34324</ele>
        <time>2023-05-31T09:10:10.000Z</time>
      </trkpt>
      <trkpt lat="46.23635" lon="-1.54423">
        <ele>5.33046</ele>
        <time>2023-05-31T09:10:11.000Z</time>
      </trkpt>
      <trkpt lat="46.23635" lon="-1.54429">
        <ele>5.32146</ele>
        <time>2023-05-31T09:10:12.000Z</time>
      </trkpt>
      <trkpt lat="46.23634" lon="-1.54436">
        <ele>5.30322</ele>
        <time>2023-05-31T09:10:13.000Z</time>
      </trkpt>
      <trkpt lat="46.23634" lon="-1.54443">
        <ele>5.30127</ele>
        <time>2023-05-31T09:10:14.000Z</time>
      </trkpt>
      <trkpt lat="46.23638" lon="-1.54449">
        <ele>5.26328</ele>
        <time>2023-05-31T09:10:15.000Z</time>
      </trkpt>
      <trkpt lat="46.23641" lon="-1.54451">
        <ele>5.21773</ele>
        <time>2023-05-31T09:10:16.000Z</time>
      </trkpt>
      <trkpt lat="46.23644" lon="-1.54453">
        <ele>5.14961</ele>
        <time>2023-05-31T09:10:17.000Z</time>
      </trkpt>
      <trkpt lat="46.23649" lon="-1.54454">
        <ele>5.12905</ele>
        <time>2023-05-31T09:10:18.000Z</time>
      </trkpt>
      <trkpt lat="46.23653" lon="-1.54454">
        <ele>5.12715</ele>
        <time>2023-05-31T09:10:19.000Z</time>
      </trkpt>
      <trkpt lat="46.23658" lon="-1.54453">
        <ele>5.1326</ele>
        <time>2023-05-31T09:10:20.000Z</time>
      </trkpt>
      <trkpt lat="46.23662" lon="-1.54452">
        <ele>5.13287</ele>
        <time>2023-05-31T09:10:21.000Z</time>
      </trkpt>
      <trkpt lat="46.23666" lon="-1.54451">
        <ele>5.14287</ele>
        <time>2023-05-31T09:10:22.000Z</time>
      </trkpt>
      <trkpt lat="46.2367" lon="-1.5445">
        <ele>5.1738</ele>
        <time>2023-05-31T09:10:23.000Z</time>
      </trkpt>
      <trkpt lat="46.23673" lon="-1.54448">
        <ele>5.17342</ele>
        <time>2023-05-31T09:10:24.000Z</time>
      </trkpt>
      <trkpt lat="46.23677" lon="-1.54448">
        <ele>5.1931</ele>
        <time>2023-05-31T09:10:25.000Z</time>
      </trkpt>
      <trkpt lat="46.23681" lon="-1.54446">
        <ele>5.18957</ele>
        <time>2023-05-31T09:10:26.000Z</time>
      </trkpt>
      <trkpt lat="46.23684" lon="-1.54445">
        <ele>5.1758</ele>
        <time>2023-05-31T09:10:27.000Z</time>
      </trkpt>
      <trkpt lat="46.23687" lon="-1.54446">
        <ele>5.13429</ele>
        <time>2023-05-31T09:10:28.000Z</time>
      </trkpt>
      <trkpt lat="46.2369" lon="-1.54445">
        <ele>5.09776</ele>
        <time>2023-05-31T09:10:29.000Z</time>
      </trkpt>
      <trkpt lat="46.23693" lon="-1.54445">
        <ele>5.0166</ele>
        <time>2023-05-31T09:10:30.000Z</time>
      </trkpt>
      <trkpt lat="46.23696" lon="-1.54444">
        <ele>4.95927</ele>
        <time>2023-05-31T09:10:31.000Z</time>
      </trkpt>
      <trkpt lat="46.23698" lon="-1.54442">
        <ele>4.89857</ele>
        <time>2023-05-31T09:10:32.000Z</time>
      </trkpt>
      <trkpt lat="46.237" lon="-1.54441">
        <ele>4.88127</ele>
        <time>2023-05-31T09:10:33.000Z</time>
      </trkpt>
      <trkpt lat="46.23702" lon="-1.54441">
        <ele>4.82986</ele>
        <time>2023-05-31T09:10:34.000Z</time>
      </trkpt>
      <trkpt lat="46.23704" lon="-1.54441">
        <ele>4.82871</ele>
        <time>2023-05-31T09:10:35.000Z</time>
      </trkpt>
      <trkpt lat="46.23705" lon="-1.54443">
        <ele>4.84883</ele>
        <time>2023-05-31T09:11:19.000Z</time>
      </trkpt>
      <trkpt lat="46.23708" lon="-1.54443">
        <ele>4.86293</ele>
        <time>2023-05-31T09:11:21.000Z</time>
      </trkpt>
      <trkpt lat="46.23711" lon="-1.54443">
        <ele>4.86973</ele>
        <time>2023-05-31T09:11:22.000Z</time>
      </trkpt>
      <trkpt lat="46.23713" lon="-1.54441">
        <ele>4.84623</ele>
        <time>2023-05-31T09:11:23.000Z</time>
      </trkpt>
      <trkpt lat="46.23717" lon="-1.5444">
        <ele>4.81666</ele>
        <time>2023-05-31T09:11:24.000Z</time>
      </trkpt>
      <trkpt lat="46.2372" lon="-1.54439">
        <ele>4.78096</ele>
        <time>2023-05-31T09:11:25.000Z</time>
      </trkpt>
      <trkpt lat="46.23723" lon="-1.54439">
        <ele>4.74877</ele>
        <time>2023-05-31T09:11:26.000Z</time>
      </trkpt>
      <trkpt lat="46.23726" lon="-1.54439">
        <ele>4.73728</ele>
        <time>2023-05-31T09:11:27.000Z</time>
      </trkpt>
      <trkpt lat="46.2373" lon="-1.54438">
        <ele>4.72636</ele>
        <time>2023-05-31T09:11:28.000Z</time>
      </trkpt>
      <trkpt lat="46.23734" lon="-1.54438">
        <ele>4.66439</ele>
        <time>2023-05-31T09:11:29.000Z</time>
      </trkpt>
      <trkpt lat="46.23737" lon="-1.54437">
        <ele>4.61155</ele>
        <time>2023-05-31T09:11:30.000Z</time>
      </trkpt>
      <trkpt lat="46.23741" lon="-1.54437">
        <ele>4.58349</ele>
        <time>2023-05-31T09:11:31.000Z</time>
      </trkpt>
      <trkpt lat="46.23745" lon="-1.54437">
        <ele>4.55639</ele>
        <time>2023-05-31T09:11:32.000Z</time>
      </trkpt>
      <trkpt lat="46.23749" lon="-1.54437">
        <ele>4.50312</ele>
        <time>2023-05-31T09:11:33.000Z</time>
      </trkpt>
      <trkpt lat="46.23753" lon="-1.54437">
        <ele>4.49672</ele>
        <time>2023-05-31T09:11:34.000Z</time>
      </trkpt>
      <trkpt lat="46.23757" lon="-1.54437">
        <ele>4.4934</ele>
        <time>2023-05-31T09:11:35.000Z</time>
      </trkpt>
      <trkpt lat="46.23761" lon="-1.54437">
        <ele>4.48699</ele>
        <time>2023-05-31T09:11:36.000Z</time>
      </trkpt>
      <trkpt lat="46.23766" lon="-1.54436">
        <ele>4.44427</ele>
        <time>2023-05-31T09:11:37.000Z</time>
      </trkpt>
      <trkpt lat="46.2377" lon="-1.54436">
        <ele>4.39784</ele>
        <time>2023-05-31T09:11:38.000Z</time>
      </trkpt>
      <trkpt lat="46.23774" lon="-1.54436">
        <ele>4.3229</ele>
        <time>2023-05-31T09:11:39.000Z</time>
      </trkpt>
      <trkpt lat="46.23778" lon="-1.54435">
        <ele>4.2217</ele>
        <time>2023-05-31T09:11:40.000Z</time>
      </trkpt>
      <trkpt lat="46.23782" lon="-1.54433">
        <ele>4.13345</ele>
        <time>2023-05-31T09:11:41.000Z</time>
      </trkpt>
      <trkpt lat="46.23787" lon="-1.54433">
        <ele>4.02802</ele>
        <time>2023-05-31T09:11:42.000Z</time>
      </trkpt>
      <trkpt lat="46.23792" lon="-1.54432">
        <ele>3.94017</ele>
        <time>2023-05-31T09:11:43.000Z</time>
      </trkpt>
      <trkpt lat="46.23797" lon="-1.54431">
        <ele>3.86801</ele>
        <time>2023-05-31T09:11:44.000Z</time>
      </trkpt>
      <trkpt lat="46.23801" lon="-1.54431">
        <ele>3.80055</ele>
        <time>2023-05-31T09:11:45.000Z</time>
      </trkpt>
      <trkpt lat="46.23806" lon="-1.5443">
        <ele>3.74383</ele>
        <time>2023-05-31T09:11:46.000Z</time>
      </trkpt>
      <trkpt lat="46.23811" lon="-1.54429">
        <ele>3.65483</ele>
        <time>2023-05-31T09:11:47.000Z</time>
      </trkpt>
      <trkpt lat="46.23815" lon="-1.54429">
        <ele>3.55667</ele>
        <time>2023-05-31T09:11:48.000Z</time>
      </trkpt>
      <trkpt lat="46.2382" lon="-1.54428">
        <ele>3.49406</ele>
        <time>2023-05-31T09:11:49.000Z</time>
      </trkpt>
      <trkpt lat="46.23824" lon="-1.54427">
        <ele>3.42186</ele>
        <time>2023-05-31T09:11:50.000Z</time>
      </trkpt>
      <trkpt lat="46.2383" lon="-1.54426">
        <ele>3.30495</ele>
        <time>2023-05-31T09:11:51.000Z</time>
      </trkpt>
      <trkpt lat="46.23835" lon="-1.54424">
        <ele>3.16668</ele>
        <time>2023-05-31T09:11:52.000Z</time>
      </trkpt>
      <trkpt lat="46.2384" lon="-1.54424">
        <ele>3.05383</ele>
        <time>2023-05-31T09:11:53.000Z</time>
      </trkpt>
      <trkpt lat="46.23844" lon="-1.54424">
        <ele>2.92881</ele>
        <time>2023-05-31T09:11:54.000Z</time>
      </trkpt>
      <trkpt lat="46.23848" lon="-1.54422">
        <ele>2.83403</ele>
        <time>2023-05-31T09:11:55.000Z</time>
      </trkpt>
      <trkpt lat="46.23853" lon="-1.54422">
        <ele>2.75134</ele>
        <time>2023-05-31T09:11:56.000Z</time>
      </trkpt>
      <trkpt lat="46.23858" lon="-1.5442">
        <ele>2.67585</ele>
        <time>2023-05-31T09:11:57.000Z</time>
      </trkpt>
      <trkpt lat="46.23863" lon="-1.5442">
        <ele>2.6367</ele>
        <time>2023-05-31T09:11:58.000Z</time>
      </trkpt>
      <trkpt lat="46.23867" lon="-1.5442">
        <ele>2.62304</ele>
        <time>2023-05-31T09:11:59.000Z</time>
      </trkpt>
      <trkpt lat="46.23871" lon="-1.54419">
        <ele>2.61043</ele>
        <time>2023-05-31T09:12:00.000Z</time>
      </trkpt>
      <trkpt lat="46.23876" lon="-1.54417">
        <ele>2.63516</ele>
        <time>2023-05-31T09:12:01.000Z</time>
      </trkpt>
      <trkpt lat="46.2388" lon="-1.54416">
        <ele>2.64526</ele>
        <time>2023-05-31T09:12:02.000Z</time>
      </trkpt>
      <trkpt lat="46.23884" lon="-1.54414">
        <ele>2.65393</ele>
        <time>2023-05-31T09:12:03.000Z</time>
      </trkpt>
      <trkpt lat="46.23887" lon="-1.54414">
        <ele>2.6858</ele>
        <time>2023-05-31T09:12:04.000Z</time>
      </trkpt>
      <trkpt lat="46.23892" lon="-1.54413">
        <ele>2.69325</ele>
        <time>2023-05-31T09:12:05.000Z</time>
      </trkpt>
      <trkpt lat="46.23896" lon="-1.54412">
        <ele>2.70764</ele>
        <time>2023-05-31T09:12:06.000Z</time>
      </trkpt>
      <trkpt lat="46.239" lon="-1.54413">
        <ele>2.74552</ele>
        <time>2023-05-31T09:12:07.000Z</time>
      </trkpt>
      <trkpt lat="46.23904" lon="-1.54412">
        <ele>2.78539</ele>
        <time>2023-05-31T09:12:08.000Z</time>
      </trkpt>
      <trkpt lat="46.23908" lon="-1.54412">
        <ele>2.82807</ele>
        <time>2023-05-31T09:12:09.000Z</time>
      </trkpt>
      <trkpt lat="46.23912" lon="-1.54413">
        <ele>2.89214</ele>
        <time>2023-05-31T09:12:10.000Z</time>
      </trkpt>
      <trkpt lat="46.23917" lon="-1.54413">
        <ele>2.98213</ele>
        <time>2023-05-31T09:12:11.000Z</time>
      </trkpt>
      <trkpt lat="46.23921" lon="-1.54413">
        <ele>3.11312</ele>
        <time>2023-05-31T09:12:12.000Z</time>
      </trkpt>
      <trkpt lat="46.23925" lon="-1.54414">
        <ele>3.23055</ele>
        <time>2023-05-31T09:12:13.000Z</time>
      </trkpt>
      <trkpt lat="46.23929" lon="-1.54414">
        <ele>3.33727</ele>
        <time>2023-05-31T09:12:14.000Z</time>
      </trkpt>
      <trkpt lat="46.23932" lon="-1.54414">
        <ele>3.39833</ele>
        <time>2023-05-31T09:12:15.000Z</time>
      </trkpt>
      <trkpt lat="46.23935" lon="-1.54414">
        <ele>3.46029</ele>
        <time>2023-05-31T09:12:16.000Z</time>
      </trkpt>
      <trkpt lat="46.23937" lon="-1.54415">
        <ele>3.5092</ele>
        <time>2023-05-31T09:12:17.000Z</time>
      </trkpt>
      <trkpt lat="46.2394" lon="-1.54415">
        <ele>3.54901</ele>
        <time>2023-05-31T09:12:18.000Z</time>
      </trkpt>
      <trkpt lat="46.23942" lon="-1.54415">
        <ele>3.59948</ele>
        <time>2023-05-31T09:12:19.000Z</time>
      </trkpt>
      <trkpt lat="46.23945" lon="-1.54415">
        <ele>3.65878</ele>
        <time>2023-05-31T09:12:20.000Z</time>
      </trkpt>
      <trkpt lat="46.23947" lon="-1.54415">
        <ele>3.68194</ele>
        <time>2023-05-31T09:12:21.000Z</time>
      </trkpt>
      <trkpt lat="46.23949" lon="-1.54415">
        <ele>3.72694</ele>
        <time>2023-05-31T09:12:22.000Z</time>
      </trkpt>
      <trkpt lat="46.23951" lon="-1.54415">
        <ele>3.77678</ele>
        <time>2023-05-31T09:12:23.000Z</time>
      </trkpt>
      <trkpt lat="46.23954" lon="-1.54415">
        <ele>3.82622</ele>
        <time>2023-05-31T09:12:25.000Z</time>
      </trkpt>
      <trkpt lat="46.23958" lon="-1.54417">
        <ele>3.91463</ele>
        <time>2023-05-31T09:12:27.000Z</time>
      </trkpt>
      <trkpt lat="46.2396" lon="-1.54418">
        <ele>4.008</ele>
        <time>2023-05-31T09:12:29.000Z</time>
      </trkpt>
      <trkpt lat="46.23962" lon="-1.5442">
        <ele>4.08946</ele>
        <time>2023-05-31T09:12:30.000Z</time>
      </trkpt>
      <trkpt lat="46.23963" lon="-1.54422">
        <ele>4.19086</ele>
        <time>2023-05-31T09:12:31.000Z</time>
      </trkpt>
      <trkpt lat="46.23965" lon="-1.54425">
        <ele>4.26826</ele>
        <time>2023-05-31T09:12:32.000Z</time>
      </trkpt>
      <trkpt lat="46.23965" lon="-1.54429">
        <ele>4.33016</ele>
        <time>2023-05-31T09:12:33.000Z</time>
      </trkpt>
      <trkpt lat="46.23966" lon="-1.54432">
        <ele>4.39055</ele>
        <time>2023-05-31T09:12:34.000Z</time>
      </trkpt>
      <trkpt lat="46.23966" lon="-1.54435">
        <ele>4.43874</ele>
        <time>2023-05-31T09:12:35.000Z</time>
      </trkpt>
      <trkpt lat="46.23966" lon="-1.54439">
        <ele>4.49943</ele>
        <time>2023-05-31T09:12:36.000Z</time>
      </trkpt>
      <trkpt lat="46.23966" lon="-1.54442">
        <ele>4.56013</ele>
        <time>2023-05-31T09:12:37.000Z</time>
      </trkpt>
      <trkpt lat="46.23968" lon="-1.54446">
        <ele>4.63252</ele>
        <time>2023-05-31T09:12:38.000Z</time>
      </trkpt>
      <trkpt lat="46.23971" lon="-1.54448">
        <ele>4.68663</ele>
        <time>2023-05-31T09:12:39.000Z</time>
      </trkpt>
      <trkpt lat="46.23974" lon="-1.54448">
        <ele>4.73534</ele>
        <time>2023-05-31T09:12:40.000Z</time>
      </trkpt>
      <trkpt lat="46.23978" lon="-1.54446">
        <ele>4.77987</ele>
        <time>2023-05-31T09:12:41.000Z</time>
      </trkpt>
      <trkpt lat="46.23982" lon="-1.54443">
        <ele>4.81803</ele>
        <time>2023-05-31T09:12:42.000Z</time>
      </trkpt>
      <trkpt lat="46.23986" lon="-1.54441">
        <ele>4.85059</ele>
        <time>2023-05-31T09:12:43.000Z</time>
      </trkpt>
      <trkpt lat="46.23991" lon="-1.54437">
        <ele>4.88008</ele>
        <time>2023-05-31T09:12:44.000Z</time>
      </trkpt>
      <trkpt lat="46.23995" lon="-1.54435">
        <ele>4.90721</ele>
        <time>2023-05-31T09:12:45.000Z</time>
      </trkpt>
      <trkpt lat="46.23999" lon="-1.54431">
        <ele>4.91679</ele>
        <time>2023-05-31T09:12:46.000Z</time>
      </trkpt>
      <trkpt lat="46.24004" lon="-1.54429">
        <ele>4.91189</ele>
        <time>2023-05-31T09:12:47.000Z</time>
      </trkpt>
      <trkpt lat="46.24008" lon="-1.54426">
        <ele>4.90334</ele>
        <time>2023-05-31T09:12:48.000Z</time>
      </trkpt>
      <trkpt lat="46.24012" lon="-1.54424">
        <ele>4.8493</ele>
        <time>2023-05-31T09:12:49.000Z</time>
      </trkpt>
      <trkpt lat="46.24017" lon="-1.54422">
        <ele>4.79394</ele>
        <time>2023-05-31T09:12:50.000Z</time>
      </trkpt>
      <trkpt lat="46.24021" lon="-1.54421">
        <ele>4.73033</ele>
        <time>2023-05-31T09:12:51.000Z</time>
      </trkpt>
      <trkpt lat="46.24026" lon="-1.54419">
        <ele>4.69245</ele>
        <time>2023-05-31T09:12:52.000Z</time>
      </trkpt>
      <trkpt lat="46.24031" lon="-1.54418">
        <ele>4.65719</ele>
        <time>2023-05-31T09:12:53.000Z</time>
      </trkpt>
      <trkpt lat="46.24036" lon="-1.54417">
        <ele>4.6379</ele>
        <time>2023-05-31T09:12:54.000Z</time>
      </trkpt>
      <trkpt lat="46.24041" lon="-1.54416">
        <ele>4.59994</ele>
        <time>2023-05-31T09:12:55.000Z</time>
      </trkpt>
      <trkpt lat="46.24045" lon="-1.54414">
        <ele>4.54173</ele>
        <time>2023-05-31T09:12:56.000Z</time>
      </trkpt>
      <trkpt lat="46.2405" lon="-1.54412">
        <ele>4.46856</ele>
        <time>2023-05-31T09:12:57.000Z</time>
      </trkpt>
      <trkpt lat="46.24056" lon="-1.54411">
        <ele>4.38383</ele>
        <time>2023-05-31T09:12:58.000Z</time>
      </trkpt>
      <trkpt lat="46.2406" lon="-1.54409">
        <ele>4.25928</ele>
        <time>2023-05-31T09:12:59.000Z</time>
      </trkpt>
      <trkpt lat="46.24065" lon="-1.54409">
        <ele>4.14172</ele>
        <time>2023-05-31T09:13:00.000Z</time>
      </trkpt>
      <trkpt lat="46.2407" lon="-1.54409">
        <ele>3.98881</ele>
        <time>2023-05-31T09:13:01.000Z</time>
      </trkpt>
      <trkpt lat="46.24075" lon="-1.54407">
        <ele>3.83394</ele>
        <time>2023-05-31T09:13:02.000Z</time>
      </trkpt>
      <trkpt lat="46.2408" lon="-1.54407">
        <ele>3.70228</ele>
        <time>2023-05-31T09:13:03.000Z</time>
      </trkpt>
      <trkpt lat="46.24085" lon="-1.54405">
        <ele>3.56865</ele>
        <time>2023-05-31T09:13:04.000Z</time>
      </trkpt>
      <trkpt lat="46.24091" lon="-1.54404">
        <ele>3.45508</ele>
        <time>2023-05-31T09:13:05.000Z</time>
      </trkpt>
      <trkpt lat="46.24097" lon="-1.54403">
        <ele>3.3502</ele>
        <time>2023-05-31T09:13:06.000Z</time>
      </trkpt>
      <trkpt lat="46.24102" lon="-1.54402">
        <ele>3.25963</ele>
        <time>2023-05-31T09:13:07.000Z</time>
      </trkpt>
      <trkpt lat="46.24108" lon="-1.54401">
        <ele>3.15679</ele>
        <time>2023-05-31T09:13:08.000Z</time>
      </trkpt>
      <trkpt lat="46.24113" lon="-1.544">
        <ele>3.0523</ele>
        <time>2023-05-31T09:13:09.000Z</time>
      </trkpt>
      <trkpt lat="46.24119" lon="-1.54399">
        <ele>2.96259</ele>
        <time>2023-05-31T09:13:10.000Z</time>
      </trkpt>
      <trkpt lat="46.24124" lon="-1.54398">
        <ele>2.86854</ele>
        <time>2023-05-31T09:13:11.000Z</time>
      </trkpt>
      <trkpt lat="46.2413" lon="-1.54397">
        <ele>2.76489</ele>
        <time>2023-05-31T09:13:12.000Z</time>
      </trkpt>
      <trkpt lat="46.24136" lon="-1.54396">
        <ele>2.69704</ele>
        <time>2023-05-31T09:13:13.000Z</time>
      </trkpt>
      <trkpt lat="46.24141" lon="-1.54396">
        <ele>2.62174</ele>
        <time>2023-05-31T09:13:14.000Z</time>
      </trkpt>
      <trkpt lat="46.24146" lon="-1.54396">
        <ele>2.54849</ele>
        <time>2023-05-31T09:13:15.000Z</time>
      </trkpt>
      <trkpt lat="46.24152" lon="-1.54395">
        <ele>2.49529</ele>
        <time>2023-05-31T09:13:16.000Z</time>
      </trkpt>
      <trkpt lat="46.24156" lon="-1.54393">
        <ele>2.44629</ele>
        <time>2023-05-31T09:13:17.000Z</time>
      </trkpt>
      <trkpt lat="46.24161" lon="-1.54392">
        <ele>2.44212</ele>
        <time>2023-05-31T09:13:18.000Z</time>
      </trkpt>
      <trkpt lat="46.24167" lon="-1.54391">
        <ele>2.46745</ele>
        <time>2023-05-31T09:13:19.000Z</time>
      </trkpt>
      <trkpt lat="46.24172" lon="-1.5439">
        <ele>2.5173</ele>
        <time>2023-05-31T09:13:20.000Z</time>
      </trkpt>
      <trkpt lat="46.24177" lon="-1.54389">
        <ele>2.55738</ele>
        <time>2023-05-31T09:13:21.000Z</time>
      </trkpt>
      <trkpt lat="46.24182" lon="-1.54389">
        <ele>2.59317</ele>
        <time>2023-05-31T09:13:22.000Z</time>
      </trkpt>
      <trkpt lat="46.24187" lon="-1.54389">
        <ele>2.61572</ele>
        <time>2023-05-31T09:13:23.000Z</time>
      </trkpt>
      <trkpt lat="46.24192" lon="-1.54389">
        <ele>2.66745</ele>
        <time>2023-05-31T09:13:24.000Z</time>
      </trkpt>
      <trkpt lat="46.24196" lon="-1.5439">
        <ele>2.7238</ele>
        <time>2023-05-31T09:13:25.000Z</time>
      </trkpt>
      <trkpt lat="46.24201" lon="-1.54392">
        <ele>2.77271</ele>
        <time>2023-05-31T09:13:26.000Z</time>
      </trkpt>
      <trkpt lat="46.24205" lon="-1.54394">
        <ele>2.82745</ele>
        <time>2023-05-31T09:13:27.000Z</time>
      </trkpt>
      <trkpt lat="46.24209" lon="-1.54396">
        <ele>2.89368</ele>
        <time>2023-05-31T09:13:28.000Z</time>
      </trkpt>
      <trkpt lat="46.24213" lon="-1.54399">
        <ele>2.99516</ele>
        <time>2023-05-31T09:13:29.000Z</time>
      </trkpt>
      <trkpt lat="46.24216" lon="-1.544">
        <ele>3.12777</ele>
        <time>2023-05-31T09:13:30.000Z</time>
      </trkpt>
      <trkpt lat="46.24219" lon="-1.54401">
        <ele>3.27473</ele>
        <time>2023-05-31T09:13:31.000Z</time>
      </trkpt>
      <trkpt lat="46.24222" lon="-1.54402">
        <ele>3.44</ele>
        <time>2023-05-31T09:13:32.000Z</time>
      </trkpt>
      <trkpt lat="46.24224" lon="-1.54403">
        <ele>3.57935</ele>
        <time>2023-05-31T09:13:33.000Z</time>
      </trkpt>
      <trkpt lat="46.24226" lon="-1.54403">
        <ele>3.72922</ele>
        <time>2023-05-31T09:13:34.000Z</time>
      </trkpt>
      <trkpt lat="46.24228" lon="-1.54404">
        <ele>3.89761</ele>
        <time>2023-05-31T09:13:36.000Z</time>
      </trkpt>
      <trkpt lat="46.24229" lon="-1.54407">
        <ele>4.06996</ele>
        <time>2023-05-31T09:13:37.000Z</time>
      </trkpt>
      <trkpt lat="46.24231" lon="-1.5441">
        <ele>4.24081</ele>
        <time>2023-05-31T09:13:38.000Z</time>
      </trkpt>
      <trkpt lat="46.24231" lon="-1.54414">
        <ele>4.39759</ele>
        <time>2023-05-31T09:13:39.000Z</time>
      </trkpt>
      <trkpt lat="46.24231" lon="-1.54418">
        <ele>4.56765</ele>
        <time>2023-05-31T09:13:40.000Z</time>
      </trkpt>
      <trkpt lat="46.2423" lon="-1.54421">
        <ele>4.70712</ele>
        <time>2023-05-31T09:13:41.000Z</time>
      </trkpt>
      <trkpt lat="46.2423" lon="-1.54424">
        <ele>4.90772</ele>
        <time>2023-05-31T09:13:42.000Z</time>
      </trkpt>
      <trkpt lat="46.24229" lon="-1.54427">
        <ele>5.10506</ele>
        <time>2023-05-31T09:13:43.000Z</time>
      </trkpt>
      <trkpt lat="46.24229" lon="-1.5443">
        <ele>5.29379</ele>
        <time>2023-05-31T09:13:44.000Z</time>
      </trkpt>
      <trkpt lat="46.24228" lon="-1.54433">
        <ele>5.54649</ele>
        <time>2023-05-31T09:13:45.000Z</time>
      </trkpt>
      <trkpt lat="46.24227" lon="-1.54435">
        <ele>5.80398</ele>
        <time>2023-05-31T09:13:46.000Z</time>
      </trkpt>
      <trkpt lat="46.24227" lon="-1.54438">
        <ele>6.05676</ele>
        <time>2023-05-31T09:13:47.000Z</time>
      </trkpt>
      <trkpt lat="46.24227" lon="-1.54441">
        <ele>6.22174</ele>
        <time>2023-05-31T09:13:48.000Z</time>
      </trkpt>
      <trkpt lat="46.24227" lon="-1.54443">
        <ele>6.37507</ele>
        <time>2023-05-31T09:13:49.000Z</time>
      </trkpt>
      <trkpt lat="46.24226" lon="-1.54446">
        <ele>6.52865</ele>
        <time>2023-05-31T09:13:50.000Z</time>
      </trkpt>
      <trkpt lat="46.24226" lon="-1.54449">
        <ele>6.64281</ele>
        <time>2023-05-31T09:13:51.000Z</time>
      </trkpt>
      <trkpt lat="46.24225" lon="-1.54452">
        <ele>6.74301</ele>
        <time>2023-05-31T09:13:52.000Z</time>
      </trkpt>
      <trkpt lat="46.24225" lon="-1.54454">
        <ele>6.82105</ele>
        <time>2023-05-31T09:13:53.000Z</time>
      </trkpt>
      <trkpt lat="46.24224" lon="-1.54457">
        <ele>6.87244</ele>
        <time>2023-05-31T09:13:54.000Z</time>
      </trkpt>
      <trkpt lat="46.24224" lon="-1.5446">
        <ele>6.91359</ele>
        <time>2023-05-31T09:13:55.000Z</time>
      </trkpt>
      <trkpt lat="46.24225" lon="-1.54463">
        <ele>6.95144</ele>
        <time>2023-05-31T09:13:56.000Z</time>
      </trkpt>
      <trkpt lat="46.24225" lon="-1.54465">
        <ele>6.99248</ele>
        <time>2023-05-31T09:13:57.000Z</time>
      </trkpt>
      <trkpt lat="46.24225" lon="-1.54468">
        <ele>7.04247</ele>
        <time>2023-05-31T09:13:58.000Z</time>
      </trkpt>
      <trkpt lat="46.24226" lon="-1.54473">
        <ele>7.0531</ele>
        <time>2023-05-31T09:14:00.000Z</time>
      </trkpt>
      <trkpt lat="46.24227" lon="-1.54475">
        <ele>7.06547</ele>
        <time>2023-05-31T09:14:01.000Z</time>
      </trkpt>
      <trkpt lat="46.24228" lon="-1.54478">
        <ele>7.07129</ele>
        <time>2023-05-31T09:14:03.000Z</time>
      </trkpt>
      <trkpt lat="46.24226" lon="-1.54479">
        <ele>7.07327</ele>
        <time>2023-05-31T09:14:14.000Z</time>
      </trkpt>
      <trkpt lat="46.24225" lon="-1.54485">
        <ele>7.07703</ele>
        <time>2023-05-31T09:14:16.000Z</time>
      </trkpt>
      <trkpt lat="46.24226" lon="-1.54489">
        <ele>7.16626</ele>
        <time>2023-05-31T09:14:17.000Z</time>
      </trkpt>
      <trkpt lat="46.24226" lon="-1.54493">
        <ele>7.18251</ele>
        <time>2023-05-31T09:14:18.000Z</time>
      </trkpt>
      <trkpt lat="46.24226" lon="-1.54498">
        <ele>7.17301</ele>
        <time>2023-05-31T09:14:19.000Z</time>
      </trkpt>
      <trkpt lat="46.24226" lon="-1.54502">
        <ele>7.16386</ele>
        <time>2023-05-31T09:14:20.000Z</time>
      </trkpt>
      <trkpt lat="46.24226" lon="-1.54508">
        <ele>7.05513</ele>
        <time>2023-05-31T09:14:21.000Z</time>
      </trkpt>
      <trkpt lat="46.24226" lon="-1.54513">
        <ele>6.97408</ele>
        <time>2023-05-31T09:14:22.000Z</time>
      </trkpt>
      <trkpt lat="46.24226" lon="-1.54518">
        <ele>6.85515</ele>
        <time>2023-05-31T09:14:23.000Z</time>
      </trkpt>
      <trkpt lat="46.24226" lon="-1.54524">
        <ele>6.68429</ele>
        <time>2023-05-31T09:14:24.000Z</time>
      </trkpt>
      <trkpt lat="46.24226" lon="-1.5453">
        <ele>6.58106</ele>
        <time>2023-05-31T09:14:25.000Z</time>
      </trkpt>
      <trkpt lat="46.24226" lon="-1.54536">
        <ele>6.48421</ele>
        <time>2023-05-31T09:14:26.000Z</time>
      </trkpt>
      <trkpt lat="46.24225" lon="-1.54543">
        <ele>6.4062</ele>
        <time>2023-05-31T09:14:27.000Z</time>
      </trkpt>
      <trkpt lat="46.24224" lon="-1.5455">
        <ele>6.32544</ele>
        <time>2023-05-31T09:14:28.000Z</time>
      </trkpt>
      <trkpt lat="46.24223" lon="-1.54556">
        <ele>6.25333</ele>
        <time>2023-05-31T09:14:29.000Z</time>
      </trkpt>
      <trkpt lat="46.24223" lon="-1.54562">
        <ele>6.15968</ele>
        <time>2023-05-31T09:14:30.000Z</time>
      </trkpt>
      <trkpt lat="46.24223" lon="-1.54569">
        <ele>6.07547</ele>
        <time>2023-05-31T09:14:31.000Z</time>
      </trkpt>
      <trkpt lat="46.24224" lon="-1.54576">
        <ele>6.03136</ele>
        <time>2023-05-31T09:14:32.000Z</time>
      </trkpt>
      <trkpt lat="46.24223" lon="-1.54582">
        <ele>5.9855</ele>
        <time>2023-05-31T09:14:33.000Z</time>
      </trkpt>
      <trkpt lat="46.24222" lon="-1.54589">
        <ele>5.96236</ele>
        <time>2023-05-31T09:14:34.000Z</time>
      </trkpt>
      <trkpt lat="46.24222" lon="-1.54595">
        <ele>5.90672</ele>
        <time>2023-05-31T09:14:35.000Z</time>
      </trkpt>
      <trkpt lat="46.24221" lon="-1.54602">
        <ele>5.85046</ele>
        <time>2023-05-31T09:14:36.000Z</time>
      </trkpt>
      <trkpt lat="46.24221" lon="-1.54609">
        <ele>5.70412</ele>
        <time>2023-05-31T09:14:37.000Z</time>
      </trkpt>
      <trkpt lat="46.2422" lon="-1.54615">
        <ele>5.55376</ele>
        <time>2023-05-31T09:14:38.000Z</time>
      </trkpt>
      <trkpt lat="46.24219" lon="-1.54622">
        <ele>5.40891</ele>
        <time>2023-05-31T09:14:39.000Z</time>
      </trkpt>
      <trkpt lat="46.24219" lon="-1.54629">
        <ele>5.27531</ele>
        <time>2023-05-31T09:14:40.000Z</time>
      </trkpt>
      <trkpt lat="46.24219" lon="-1.54636">
        <ele>5.29851</ele>
        <time>2023-05-31T09:14:41.000Z</time>
      </trkpt>
      <trkpt lat="46.24219" lon="-1.54643">
        <ele>5.29327</ele>
        <time>2023-05-31T09:14:42.000Z</time>
      </trkpt>
      <trkpt lat="46.24218" lon="-1.5465">
        <ele>5.30481</ele>
        <time>2023-05-31T09:14:43.000Z</time>
      </trkpt>
      <trkpt lat="46.24218" lon="-1.54658">
        <ele>5.39059</ele>
        <time>2023-05-31T09:14:44.000Z</time>
      </trkpt>
      <trkpt lat="46.24217" lon="-1.54666">
        <ele>5.41591</ele>
        <time>2023-05-31T09:14:45.000Z</time>
      </trkpt>
      <trkpt lat="46.24217" lon="-1.54673">
        <ele>5.44922</ele>
        <time>2023-05-31T09:14:46.000Z</time>
      </trkpt>
      <trkpt lat="46.24217" lon="-1.54681">
        <ele>5.47487</ele>
        <time>2023-05-31T09:14:47.000Z</time>
      </trkpt>
      <trkpt lat="46.24217" lon="-1.54687">
        <ele>5.48827</ele>
        <time>2023-05-31T09:14:48.000Z</time>
      </trkpt>
      <trkpt lat="46.24217" lon="-1.54694">
        <ele>5.46734</ele>
        <time>2023-05-31T09:14:49.000Z</time>
      </trkpt>
      <trkpt lat="46.24217" lon="-1.547">
        <ele>5.4546</ele>
        <time>2023-05-31T09:14:50.000Z</time>
      </trkpt>
      <trkpt lat="46.24218" lon="-1.54709">
        <ele>5.42918</ele>
        <time>2023-05-31T09:14:51.000Z</time>
      </trkpt>
      <trkpt lat="46.24219" lon="-1.54716">
        <ele>5.39877</ele>
        <time>2023-05-31T09:14:52.000Z</time>
      </trkpt>
      <trkpt lat="46.2422" lon="-1.54724">
        <ele>5.3668</ele>
        <time>2023-05-31T09:14:53.000Z</time>
      </trkpt>
      <trkpt lat="46.24221" lon="-1.54731">
        <ele>5.33834</ele>
        <time>2023-05-31T09:14:54.000Z</time>
      </trkpt>
      <trkpt lat="46.24222" lon="-1.54738">
        <ele>5.32699</ele>
        <time>2023-05-31T09:14:55.000Z</time>
      </trkpt>
      <trkpt lat="46.24222" lon="-1.54745">
        <ele>5.33457</ele>
        <time>2023-05-31T09:14:56.000Z</time>
      </trkpt>
      <trkpt lat="46.24223" lon="-1.54752">
        <ele>5.37813</ele>
        <time>2023-05-31T09:14:57.000Z</time>
      </trkpt>
      <trkpt lat="46.24225" lon="-1.5476">
        <ele>5.39876</ele>
        <time>2023-05-31T09:14:58.000Z</time>
      </trkpt>
      <trkpt lat="46.24226" lon="-1.54767">
        <ele>5.38337</ele>
        <time>2023-05-31T09:14:59.000Z</time>
      </trkpt>
      <trkpt lat="46.24228" lon="-1.54774">
        <ele>5.36187</ele>
        <time>2023-05-31T09:15:00.000Z</time>
      </trkpt>
      <trkpt lat="46.24228" lon="-1.5478">
        <ele>5.36186</ele>
        <time>2023-05-31T09:15:01.000Z</time>
      </trkpt>
      <trkpt lat="46.2423" lon="-1.54787">
        <ele>5.35967</ele>
        <time>2023-05-31T09:15:02.000Z</time>
      </trkpt>
      <trkpt lat="46.24231" lon="-1.54794">
        <ele>5.34021</ele>
        <time>2023-05-31T09:15:03.000Z</time>
      </trkpt>
      <trkpt lat="46.24232" lon="-1.548">
        <ele>5.3144</ele>
        <time>2023-05-31T09:15:04.000Z</time>
      </trkpt>
      <trkpt lat="46.24233" lon="-1.54806">
        <ele>5.26479</ele>
        <time>2023-05-31T09:15:05.000Z</time>
      </trkpt>
      <trkpt lat="46.24234" lon="-1.54813">
        <ele>5.21186</ele>
        <time>2023-05-31T09:15:06.000Z</time>
      </trkpt>
      <trkpt lat="46.24234" lon="-1.54818">
        <ele>5.15786</ele>
        <time>2023-05-31T09:15:07.000Z</time>
      </trkpt>
      <trkpt lat="46.24235" lon="-1.54824">
        <ele>5.13694</ele>
        <time>2023-05-31T09:15:08.000Z</time>
      </trkpt>
      <trkpt lat="46.24236" lon="-1.5483">
        <ele>5.13573</ele>
        <time>2023-05-31T09:15:09.000Z</time>
      </trkpt>
      <trkpt lat="46.24237" lon="-1.54837">
        <ele>5.13134</ele>
        <time>2023-05-31T09:15:10.000Z</time>
      </trkpt>
      <trkpt lat="46.24238" lon="-1.54843">
        <ele>5.14405</ele>
        <time>2023-05-31T09:15:11.000Z</time>
      </trkpt>
      <trkpt lat="46.24239" lon="-1.54849">
        <ele>5.14348</ele>
        <time>2023-05-31T09:15:12.000Z</time>
      </trkpt>
      <trkpt lat="46.24239" lon="-1.54855">
        <ele>5.14333</ele>
        <time>2023-05-31T09:15:13.000Z</time>
      </trkpt>
      <trkpt lat="46.2424" lon="-1.5486">
        <ele>5.09663</ele>
        <time>2023-05-31T09:15:14.000Z</time>
      </trkpt>
      <trkpt lat="46.24242" lon="-1.54866">
        <ele>5.02083</ele>
        <time>2023-05-31T09:15:15.000Z</time>
      </trkpt>
      <trkpt lat="46.24243" lon="-1.54871">
        <ele>4.90879</ele>
        <time>2023-05-31T09:15:16.000Z</time>
      </trkpt>
      <trkpt lat="46.24243" lon="-1.54877">
        <ele>4.76643</ele>
        <time>2023-05-31T09:15:17.000Z</time>
      </trkpt>
      <trkpt lat="46.24243" lon="-1.54883">
        <ele>4.67561</ele>
        <time>2023-05-31T09:15:18.000Z</time>
      </trkpt>
      <trkpt lat="46.24244" lon="-1.54889">
        <ele>4.631</ele>
        <time>2023-05-31T09:15:19.000Z</time>
      </trkpt>
      <trkpt lat="46.24245" lon="-1.54894">
        <ele>4.59008</ele>
        <time>2023-05-31T09:15:20.000Z</time>
      </trkpt>
      <trkpt lat="46.24245" lon="-1.54901">
        <ele>4.56434</ele>
        <time>2023-05-31T09:15:21.000Z</time>
      </trkpt>
      <trkpt lat="46.24246" lon="-1.54907">
        <ele>4.56639</ele>
        <time>2023-05-31T09:15:22.000Z</time>
      </trkpt>
      <trkpt lat="46.24247" lon="-1.54912">
        <ele>4.60297</ele>
        <time>2023-05-31T09:15:23.000Z</time>
      </trkpt>
      <trkpt lat="46.24248" lon="-1.54918">
        <ele>4.63109</ele>
        <time>2023-05-31T09:15:24.000Z</time>
      </trkpt>
      <trkpt lat="46.24249" lon="-1.54923">
        <ele>4.67276</ele>
        <time>2023-05-31T09:15:25.000Z</time>
      </trkpt>
      <trkpt lat="46.24249" lon="-1.54929">
        <ele>4.71517</ele>
        <time>2023-05-31T09:15:26.000Z</time>
      </trkpt>
      <trkpt lat="46.2425" lon="-1.54935">
        <ele>4.76797</ele>
        <time>2023-05-31T09:15:27.000Z</time>
      </trkpt>
      <trkpt lat="46.24251" lon="-1.54941">
        <ele>4.77374</ele>
        <time>2023-05-31T09:15:28.000Z</time>
      </trkpt>
      <trkpt lat="46.24252" lon="-1.54947">
        <ele>4.7848</ele>
        <time>2023-05-31T09:15:29.000Z</time>
      </trkpt>
      <trkpt lat="46.24253" lon="-1.54953">
        <ele>4.79078</ele>
        <time>2023-05-31T09:15:30.000Z</time>
      </trkpt>
      <trkpt lat="46.24254" lon="-1.54959">
        <ele>4.82021</ele>
        <time>2023-05-31T09:15:31.000Z</time>
      </trkpt>
      <trkpt lat="46.24255" lon="-1.54965">
        <ele>4.8565</ele>
        <time>2023-05-31T09:15:32.000Z</time>
      </trkpt>
      <trkpt lat="46.24256" lon="-1.54971">
        <ele>4.87164</ele>
        <time>2023-05-31T09:15:33.000Z</time>
      </trkpt>
      <trkpt lat="46.24257" lon="-1.54977">
        <ele>4.91297</ele>
        <time>2023-05-31T09:15:34.000Z</time>
      </trkpt>
      <trkpt lat="46.24258" lon="-1.54982">
        <ele>4.98395</ele>
        <time>2023-05-31T09:15:35.000Z</time>
      </trkpt>
      <trkpt lat="46.24259" lon="-1.54988">
        <ele>5.07212</ele>
        <time>2023-05-31T09:15:36.000Z</time>
      </trkpt>
      <trkpt lat="46.2426" lon="-1.54994">
        <ele>5.16768</ele>
        <time>2023-05-31T09:15:37.000Z</time>
      </trkpt>
      <trkpt lat="46.24261" lon="-1.54999">
        <ele>5.19305</ele>
        <time>2023-05-31T09:15:38.000Z</time>
      </trkpt>
      <trkpt lat="46.24262" lon="-1.55005">
        <ele>5.20906</ele>
        <time>2023-05-31T09:15:39.000Z</time>
      </trkpt>
      <trkpt lat="46.24263" lon="-1.55011">
        <ele>5.22572</ele>
        <time>2023-05-31T09:15:40.000Z</time>
      </trkpt>
      <trkpt lat="46.24264" lon="-1.55016">
        <ele>5.18173</ele>
        <time>2023-05-31T09:15:41.000Z</time>
      </trkpt>
      <trkpt lat="46.24264" lon="-1.55021">
        <ele>5.09753</ele>
        <time>2023-05-31T09:15:42.000Z</time>
      </trkpt>
      <trkpt lat="46.24265" lon="-1.55027">
        <ele>5.00762</ele>
        <time>2023-05-31T09:15:43.000Z</time>
      </trkpt>
      <trkpt lat="46.24266" lon="-1.55032">
        <ele>4.8773</ele>
        <time>2023-05-31T09:15:44.000Z</time>
      </trkpt>
      <trkpt lat="46.24267" lon="-1.55037">
        <ele>4.75464</ele>
        <time>2023-05-31T09:15:45.000Z</time>
      </trkpt>
      <trkpt lat="46.24268" lon="-1.55042">
        <ele>4.63125</ele>
        <time>2023-05-31T09:15:46.000Z</time>
      </trkpt>
      <trkpt lat="46.24268" lon="-1.55047">
        <ele>4.52006</ele>
        <time>2023-05-31T09:15:47.000Z</time>
      </trkpt>
      <trkpt lat="46.24269" lon="-1.55052">
        <ele>4.42475</ele>
        <time>2023-05-31T09:15:48.000Z</time>
      </trkpt>
      <trkpt lat="46.2427" lon="-1.55058">
        <ele>4.34912</ele>
        <time>2023-05-31T09:15:49.000Z</time>
      </trkpt>
      <trkpt lat="46.24271" lon="-1.55063">
        <ele>4.30263</ele>
        <time>2023-05-31T09:15:50.000Z</time>
      </trkpt>
      <trkpt lat="46.24272" lon="-1.55069">
        <ele>4.2297</ele>
        <time>2023-05-31T09:15:51.000Z</time>
      </trkpt>
      <trkpt lat="46.24274" lon="-1.55074">
        <ele>4.14209</ele>
        <time>2023-05-31T09:15:52.000Z</time>
      </trkpt>
      <trkpt lat="46.24275" lon="-1.5508">
        <ele>4.05607</ele>
        <time>2023-05-31T09:15:53.000Z</time>
      </trkpt>
      <trkpt lat="46.24276" lon="-1.55085">
        <ele>3.99252</ele>
        <time>2023-05-31T09:15:54.000Z</time>
      </trkpt>
      <trkpt lat="46.24276" lon="-1.5509">
        <ele>3.93921</ele>
        <time>2023-05-31T09:15:55.000Z</time>
      </trkpt>
      <trkpt lat="46.24276" lon="-1.55095">
        <ele>3.88206</ele>
        <time>2023-05-31T09:15:56.000Z</time>
      </trkpt>
      <trkpt lat="46.24277" lon="-1.551">
        <ele>3.8293</ele>
        <time>2023-05-31T09:15:57.000Z</time>
      </trkpt>
      <trkpt lat="46.24277" lon="-1.55104">
        <ele>3.81983</ele>
        <time>2023-05-31T09:15:58.000Z</time>
      </trkpt>
      <trkpt lat="46.24278" lon="-1.55109">
        <ele>3.80599</ele>
        <time>2023-05-31T09:15:59.000Z</time>
      </trkpt>
      <trkpt lat="46.24279" lon="-1.55114">
        <ele>3.78996</ele>
        <time>2023-05-31T09:16:00.000Z</time>
      </trkpt>
      <trkpt lat="46.2428" lon="-1.55119">
        <ele>3.80604</ele>
        <time>2023-05-31T09:16:01.000Z</time>
      </trkpt>
      <trkpt lat="46.24281" lon="-1.55123">
        <ele>3.83491</ele>
        <time>2023-05-31T09:16:02.000Z</time>
      </trkpt>
      <trkpt lat="46.24281" lon="-1.55128">
        <ele>3.85709</ele>
        <time>2023-05-31T09:16:03.000Z</time>
      </trkpt>
      <trkpt lat="46.24282" lon="-1.55132">
        <ele>3.91563</ele>
        <time>2023-05-31T09:16:04.000Z</time>
      </trkpt>
      <trkpt lat="46.24283" lon="-1.55137">
        <ele>3.9702</ele>
        <time>2023-05-31T09:16:05.000Z</time>
      </trkpt>
      <trkpt lat="46.24283" lon="-1.55141">
        <ele>4.00886</ele>
        <time>2023-05-31T09:16:06.000Z</time>
      </trkpt>
      <trkpt lat="46.24284" lon="-1.55146">
        <ele>4.03688</ele>
        <time>2023-05-31T09:16:07.000Z</time>
      </trkpt>
      <trkpt lat="46.24284" lon="-1.55151">
        <ele>4.09382</ele>
        <time>2023-05-31T09:16:08.000Z</time>
      </trkpt>
      <trkpt lat="46.24285" lon="-1.55155">
        <ele>4.14897</ele>
        <time>2023-05-31T09:16:09.000Z</time>
      </trkpt>
      <trkpt lat="46.24286" lon="-1.5516">
        <ele>4.18284</ele>
        <time>2023-05-31T09:16:10.000Z</time>
      </trkpt>
      <trkpt lat="46.24287" lon="-1.55165">
        <ele>4.23585</ele>
        <time>2023-05-31T09:16:11.000Z</time>
      </trkpt>
      <trkpt lat="46.24288" lon="-1.55171">
        <ele>4.30731</ele>
        <time>2023-05-31T09:16:12.000Z</time>
      </trkpt>
      <trkpt lat="46.24289" lon="-1.55176">
        <ele>4.40648</ele>
        <time>2023-05-31T09:16:13.000Z</time>
      </trkpt>
      <trkpt lat="46.24289" lon="-1.55181">
        <ele>4.50479</ele>
        <time>2023-05-31T09:16:14.000Z</time>
      </trkpt>
      <trkpt lat="46.2429" lon="-1.55186">
        <ele>4.5764</ele>
        <time>2023-05-31T09:16:15.000Z</time>
      </trkpt>
      <trkpt lat="46.24291" lon="-1.55191">
        <ele>4.65126</ele>
        <time>2023-05-31T09:16:16.000Z</time>
      </trkpt>
      <trkpt lat="46.24292" lon="-1.55196">
        <ele>4.71583</ele>
        <time>2023-05-31T09:16:17.000Z</time>
      </trkpt>
      <trkpt lat="46.24293" lon="-1.55201">
        <ele>4.76185</ele>
        <time>2023-05-31T09:16:18.000Z</time>
      </trkpt>
      <trkpt lat="46.24294" lon="-1.55205">
        <ele>4.7481</ele>
        <time>2023-05-31T09:16:19.000Z</time>
      </trkpt>
      <trkpt lat="46.24295" lon="-1.5521">
        <ele>4.73703</ele>
        <time>2023-05-31T09:16:20.000Z</time>
      </trkpt>
      <trkpt lat="46.24296" lon="-1.55216">
        <ele>4.74079</ele>
        <time>2023-05-31T09:16:21.000Z</time>
      </trkpt>
      <trkpt lat="46.24297" lon="-1.55221">
        <ele>4.74588</ele>
        <time>2023-05-31T09:16:22.000Z</time>
      </trkpt>
      <trkpt lat="46.24298" lon="-1.55226">
        <ele>4.75188</ele>
        <time>2023-05-31T09:16:23.000Z</time>
      </trkpt>
      <trkpt lat="46.24298" lon="-1.55232">
        <ele>4.75341</ele>
        <time>2023-05-31T09:16:24.000Z</time>
      </trkpt>
      <trkpt lat="46.24299" lon="-1.55237">
        <ele>4.78148</ele>
        <time>2023-05-31T09:16:25.000Z</time>
      </trkpt>
      <trkpt lat="46.243" lon="-1.55242">
        <ele>4.81057</ele>
        <time>2023-05-31T09:16:26.000Z</time>
      </trkpt>
      <trkpt lat="46.243" lon="-1.55247">
        <ele>4.81939</ele>
        <time>2023-05-31T09:16:27.000Z</time>
      </trkpt>
      <trkpt lat="46.24301" lon="-1.55252">
        <ele>4.8061</ele>
        <time>2023-05-31T09:16:28.000Z</time>
      </trkpt>
      <trkpt lat="46.24302" lon="-1.55256">
        <ele>4.77397</ele>
        <time>2023-05-31T09:16:29.000Z</time>
      </trkpt>
      <trkpt lat="46.24303" lon="-1.55261">
        <ele>4.74567</ele>
        <time>2023-05-31T09:16:30.000Z</time>
      </trkpt>
      <trkpt lat="46.24303" lon="-1.55265">
        <ele>4.69651</ele>
        <time>2023-05-31T09:16:31.000Z</time>
      </trkpt>
      <trkpt lat="46.24304" lon="-1.55269">
        <ele>4.64536</ele>
        <time>2023-05-31T09:16:32.000Z</time>
      </trkpt>
      <trkpt lat="46.24305" lon="-1.55273">
        <ele>4.57746</ele>
        <time>2023-05-31T09:16:33.000Z</time>
      </trkpt>
      <trkpt lat="46.24305" lon="-1.55277">
        <ele>4.50799</ele>
        <time>2023-05-31T09:16:34.000Z</time>
      </trkpt>
      <trkpt lat="46.24306" lon="-1.55281">
        <ele>4.44953</ele>
        <time>2023-05-31T09:16:35.000Z</time>
      </trkpt>
      <trkpt lat="46.24306" lon="-1.55285">
        <ele>4.38324</ele>
        <time>2023-05-31T09:16:36.000Z</time>
      </trkpt>
      <trkpt lat="46.24307" lon="-1.55288">
        <ele>4.32406</ele>
        <time>2023-05-31T09:16:37.000Z</time>
      </trkpt>
      <trkpt lat="46.24307" lon="-1.55292">
        <ele>4.28984</ele>
        <time>2023-05-31T09:16:38.000Z</time>
      </trkpt>
      <trkpt lat="46.24308" lon="-1.55296">
        <ele>4.31528</ele>
        <time>2023-05-31T09:16:39.000Z</time>
      </trkpt>
      <trkpt lat="46.24308" lon="-1.553">
        <ele>4.34382</ele>
        <time>2023-05-31T09:16:40.000Z</time>
      </trkpt>
      <trkpt lat="46.24309" lon="-1.55303">
        <ele>4.34944</ele>
        <time>2023-05-31T09:16:41.000Z</time>
      </trkpt>
      <trkpt lat="46.24309" lon="-1.55307">
        <ele>4.35707</ele>
        <time>2023-05-31T09:16:42.000Z</time>
      </trkpt>
      <trkpt lat="46.24309" lon="-1.5531">
        <ele>4.38353</ele>
        <time>2023-05-31T09:16:43.000Z</time>
      </trkpt>
      <trkpt lat="46.2431" lon="-1.55314">
        <ele>4.40815</ele>
        <time>2023-05-31T09:16:44.000Z</time>
      </trkpt>
      <trkpt lat="46.2431" lon="-1.55317">
        <ele>4.38401</ele>
        <time>2023-05-31T09:16:45.000Z</time>
      </trkpt>
      <trkpt lat="46.24311" lon="-1.55321">
        <ele>4.35636</ele>
        <time>2023-05-31T09:16:46.000Z</time>
      </trkpt>
      <trkpt lat="46.24311" lon="-1.55325">
        <ele>4.35207</ele>
        <time>2023-05-31T09:16:47.000Z</time>
      </trkpt>
      <trkpt lat="46.24311" lon="-1.55329">
        <ele>4.36139</ele>
        <time>2023-05-31T09:16:48.000Z</time>
      </trkpt>
      <trkpt lat="46.24311" lon="-1.55333">
        <ele>4.37273</ele>
        <time>2023-05-31T09:16:49.000Z</time>
      </trkpt>
      <trkpt lat="46.24311" lon="-1.55338">
        <ele>4.39266</ele>
        <time>2023-05-31T09:16:50.000Z</time>
      </trkpt>
      <trkpt lat="46.24311" lon="-1.55342">
        <ele>4.42779</ele>
        <time>2023-05-31T09:16:51.000Z</time>
      </trkpt>
      <trkpt lat="46.24311" lon="-1.55346">
        <ele>4.44946</ele>
        <time>2023-05-31T09:16:52.000Z</time>
      </trkpt>
      <trkpt lat="46.24312" lon="-1.5535">
        <ele>4.48612</ele>
        <time>2023-05-31T09:16:53.000Z</time>
      </trkpt>
      <trkpt lat="46.24312" lon="-1.55354">
        <ele>4.54036</ele>
        <time>2023-05-31T09:16:54.000Z</time>
      </trkpt>
      <trkpt lat="46.24313" lon="-1.55357">
        <ele>4.60847</ele>
        <time>2023-05-31T09:16:55.000Z</time>
      </trkpt>
      <trkpt lat="46.24314" lon="-1.5536">
        <ele>4.68654</ele>
        <time>2023-05-31T09:16:56.000Z</time>
      </trkpt>
      <trkpt lat="46.24315" lon="-1.55364">
        <ele>4.7519</ele>
        <time>2023-05-31T09:16:57.000Z</time>
      </trkpt>
      <trkpt lat="46.24316" lon="-1.55367">
        <ele>4.80044</ele>
        <time>2023-05-31T09:16:58.000Z</time>
      </trkpt>
      <trkpt lat="46.24316" lon="-1.55371">
        <ele>4.84494</ele>
        <time>2023-05-31T09:16:59.000Z</time>
      </trkpt>
      <trkpt lat="46.24317" lon="-1.55375">
        <ele>4.87306</ele>
        <time>2023-05-31T09:17:00.000Z</time>
      </trkpt>
      <trkpt lat="46.24318" lon="-1.55379">
        <ele>4.87983</ele>
        <time>2023-05-31T09:17:01.000Z</time>
      </trkpt>
      <trkpt lat="46.24319" lon="-1.55384">
        <ele>4.89132</ele>
        <time>2023-05-31T09:17:02.000Z</time>
      </trkpt>
      <trkpt lat="46.24321" lon="-1.55389">
        <ele>4.89509</ele>
        <time>2023-05-31T09:17:03.000Z</time>
      </trkpt>
      <trkpt lat="46.24323" lon="-1.55394">
        <ele>4.87908</ele>
        <time>2023-05-31T09:17:04.000Z</time>
      </trkpt>
      <trkpt lat="46.24326" lon="-1.55399">
        <ele>4.88703</ele>
        <time>2023-05-31T09:17:05.000Z</time>
      </trkpt>
      <trkpt lat="46.24328" lon="-1.55404">
        <ele>4.88984</ele>
        <time>2023-05-31T09:17:06.000Z</time>
      </trkpt>
      <trkpt lat="46.24331" lon="-1.5541">
        <ele>4.87</ele>
        <time>2023-05-31T09:17:07.000Z</time>
      </trkpt>
      <trkpt lat="46.24333" lon="-1.55415">
        <ele>4.84249</ele>
        <time>2023-05-31T09:17:08.000Z</time>
      </trkpt>
      <trkpt lat="46.24335" lon="-1.55421">
        <ele>4.81085</ele>
        <time>2023-05-31T09:17:09.000Z</time>
      </trkpt>
      <trkpt lat="46.24337" lon="-1.55426">
        <ele>4.76351</ele>
        <time>2023-05-31T09:17:10.000Z</time>
      </trkpt>
      <trkpt lat="46.24339" lon="-1.55431">
        <ele>4.71056</ele>
        <time>2023-05-31T09:17:11.000Z</time>
      </trkpt>
      <trkpt lat="46.24341" lon="-1.55436">
        <ele>4.66487</ele>
        <time>2023-05-31T09:17:12.000Z</time>
      </trkpt>
      <trkpt lat="46.24343" lon="-1.55442">
        <ele>4.62319</ele>
        <time>2023-05-31T09:17:13.000Z</time>
      </trkpt>
      <trkpt lat="46.24345" lon="-1.55447">
        <ele>4.56777</ele>
        <time>2023-05-31T09:17:14.000Z</time>
      </trkpt>
      <trkpt lat="46.24348" lon="-1.55452">
        <ele>4.50551</ele>
        <time>2023-05-31T09:17:15.000Z</time>
      </trkpt>
      <trkpt lat="46.2435" lon="-1.55457">
        <ele>4.46248</ele>
        <time>2023-05-31T09:17:16.000Z</time>
      </trkpt>
      <trkpt lat="46.24352" lon="-1.55462">
        <ele>4.43134</ele>
        <time>2023-05-31T09:17:17.000Z</time>
      </trkpt>
      <trkpt lat="46.24354" lon="-1.55467">
        <ele>4.42076</ele>
        <time>2023-05-31T09:17:18.000Z</time>
      </trkpt>
      <trkpt lat="46.24356" lon="-1.55472">
        <ele>4.42334</ele>
        <time>2023-05-31T09:17:19.000Z</time>
      </trkpt>
      <trkpt lat="46.24359" lon="-1.55477">
        <ele>4.43945</ele>
        <time>2023-05-31T09:17:20.000Z</time>
      </trkpt>
      <trkpt lat="46.24361" lon="-1.55482">
        <ele>4.47815</ele>
        <time>2023-05-31T09:17:21.000Z</time>
      </trkpt>
      <trkpt lat="46.24363" lon="-1.55488">
        <ele>4.505</ele>
        <time>2023-05-31T09:17:22.000Z</time>
      </trkpt>
      <trkpt lat="46.24365" lon="-1.55493">
        <ele>4.52585</ele>
        <time>2023-05-31T09:17:23.000Z</time>
      </trkpt>
      <trkpt lat="46.24366" lon="-1.55499">
        <ele>4.57477</ele>
        <time>2023-05-31T09:17:24.000Z</time>
      </trkpt>
      <trkpt lat="46.24368" lon="-1.55504">
        <ele>4.62229</ele>
        <time>2023-05-31T09:17:25.000Z</time>
      </trkpt>
      <trkpt lat="46.24369" lon="-1.55509">
        <ele>4.70873</ele>
        <time>2023-05-31T09:17:26.000Z</time>
      </trkpt>
      <trkpt lat="46.24371" lon="-1.55514">
        <ele>4.80175</ele>
        <time>2023-05-31T09:17:27.000Z</time>
      </trkpt>
      <trkpt lat="46.24373" lon="-1.55519">
        <ele>4.88981</ele>
        <time>2023-05-31T09:17:28.000Z</time>
      </trkpt>
      <trkpt lat="46.24375" lon="-1.55524">
        <ele>4.98902</ele>
        <time>2023-05-31T09:17:29.000Z</time>
      </trkpt>
      <trkpt lat="46.24377" lon="-1.5553">
        <ele>5.09129</ele>
        <time>2023-05-31T09:17:30.000Z</time>
      </trkpt>
      <trkpt lat="46.24378" lon="-1.55535">
        <ele>5.19569</ele>
        <time>2023-05-31T09:17:31.000Z</time>
      </trkpt>
      <trkpt lat="46.24379" lon="-1.5554">
        <ele>5.26486</ele>
        <time>2023-05-31T09:17:32.000Z</time>
      </trkpt>
      <trkpt lat="46.24381" lon="-1.55546">
        <ele>5.32365</ele>
        <time>2023-05-31T09:17:33.000Z</time>
      </trkpt>
      <trkpt lat="46.24382" lon="-1.55553">
        <ele>5.36205</ele>
        <time>2023-05-31T09:17:34.000Z</time>
      </trkpt>
      <trkpt lat="46.24384" lon="-1.55559">
        <ele>5.38675</ele>
        <time>2023-05-31T09:17:35.000Z</time>
      </trkpt>
      <trkpt lat="46.24386" lon="-1.55566">
        <ele>5.39476</ele>
        <time>2023-05-31T09:17:36.000Z</time>
      </trkpt>
      <trkpt lat="46.24388" lon="-1.55572">
        <ele>5.35867</ele>
        <time>2023-05-31T09:17:37.000Z</time>
      </trkpt>
      <trkpt lat="46.2439" lon="-1.55577">
        <ele>5.32998</ele>
        <time>2023-05-31T09:17:38.000Z</time>
      </trkpt>
      <trkpt lat="46.24391" lon="-1.55583">
        <ele>5.27691</ele>
        <time>2023-05-31T09:17:39.000Z</time>
      </trkpt>
      <trkpt lat="46.24393" lon="-1.55589">
        <ele>5.22252</ele>
        <time>2023-05-31T09:17:40.000Z</time>
      </trkpt>
      <trkpt lat="46.24394" lon="-1.55595">
        <ele>5.18056</ele>
        <time>2023-05-31T09:17:41.000Z</time>
      </trkpt>
      <trkpt lat="46.24396" lon="-1.55601">
        <ele>5.16167</ele>
        <time>2023-05-31T09:17:42.000Z</time>
      </trkpt>
      <trkpt lat="46.24398" lon="-1.55607">
        <ele>5.13994</ele>
        <time>2023-05-31T09:17:43.000Z</time>
      </trkpt>
      <trkpt lat="46.24399" lon="-1.55613">
        <ele>5.09928</ele>
        <time>2023-05-31T09:17:44.000Z</time>
      </trkpt>
      <trkpt lat="46.24401" lon="-1.5562">
        <ele>5.06987</ele>
        <time>2023-05-31T09:17:45.000Z</time>
      </trkpt>
      <trkpt lat="46.24403" lon="-1.55627">
        <ele>5.02193</ele>
        <time>2023-05-31T09:17:46.000Z</time>
      </trkpt>
      <trkpt lat="46.24405" lon="-1.55633">
        <ele>4.95976</ele>
        <time>2023-05-31T09:17:47.000Z</time>
      </trkpt>
      <trkpt lat="46.24406" lon="-1.5564">
        <ele>4.905</ele>
        <time>2023-05-31T09:17:48.000Z</time>
      </trkpt>
      <trkpt lat="46.24408" lon="-1.55647">
        <ele>4.83779</ele>
        <time>2023-05-31T09:17:49.000Z</time>
      </trkpt>
      <trkpt lat="46.2441" lon="-1.55654">
        <ele>4.77285</ele>
        <time>2023-05-31T09:17:50.000Z</time>
      </trkpt>
      <trkpt lat="46.24411" lon="-1.55661">
        <ele>4.71188</ele>
        <time>2023-05-31T09:17:51.000Z</time>
      </trkpt>
      <trkpt lat="46.24414" lon="-1.55667">
        <ele>4.69547</ele>
        <time>2023-05-31T09:17:52.000Z</time>
      </trkpt>
      <trkpt lat="46.24416" lon="-1.55672">
        <ele>4.6798</ele>
        <time>2023-05-31T09:17:53.000Z</time>
      </trkpt>
      <trkpt lat="46.24418" lon="-1.55678">
        <ele>4.66947</ele>
        <time>2023-05-31T09:17:54.000Z</time>
      </trkpt>
      <trkpt lat="46.24421" lon="-1.55683">
        <ele>4.67749</ele>
        <time>2023-05-31T09:17:55.000Z</time>
      </trkpt>
      <trkpt lat="46.24422" lon="-1.55689">
        <ele>4.7013</ele>
        <time>2023-05-31T09:17:56.000Z</time>
      </trkpt>
      <trkpt lat="46.24423" lon="-1.55695">
        <ele>4.76792</ele>
        <time>2023-05-31T09:17:57.000Z</time>
      </trkpt>
      <trkpt lat="46.24425" lon="-1.55701">
        <ele>4.81606</ele>
        <time>2023-05-31T09:17:58.000Z</time>
      </trkpt>
      <trkpt lat="46.24425" lon="-1.55706">
        <ele>4.83966</ele>
        <time>2023-05-31T09:17:59.000Z</time>
      </trkpt>
      <trkpt lat="46.24428" lon="-1.55713">
        <ele>4.84482</ele>
        <time>2023-05-31T09:18:00.000Z</time>
      </trkpt>
      <trkpt lat="46.2443" lon="-1.5572">
        <ele>4.83227</ele>
        <time>2023-05-31T09:18:01.000Z</time>
      </trkpt>
      <trkpt lat="46.24433" lon="-1.55726">
        <ele>4.80478</ele>
        <time>2023-05-31T09:18:02.000Z</time>
      </trkpt>
      <trkpt lat="46.24433" lon="-1.55732">
        <ele>4.73902</ele>
        <time>2023-05-31T09:18:03.000Z</time>
      </trkpt>
      <trkpt lat="46.24434" lon="-1.55738">
        <ele>4.64943</ele>
        <time>2023-05-31T09:18:04.000Z</time>
      </trkpt>
      <trkpt lat="46.24434" lon="-1.55745">
        <ele>4.54961</ele>
        <time>2023-05-31T09:18:05.000Z</time>
      </trkpt>
      <trkpt lat="46.24433" lon="-1.55753">
        <ele>4.45474</ele>
        <time>2023-05-31T09:18:06.000Z</time>
      </trkpt>
      <trkpt lat="46.24432" lon="-1.5576">
        <ele>4.3897</ele>
        <time>2023-05-31T09:18:07.000Z</time>
      </trkpt>
      <trkpt lat="46.24431" lon="-1.55769">
        <ele>4.33086</ele>
        <time>2023-05-31T09:18:08.000Z</time>
      </trkpt>
      <trkpt lat="46.24428" lon="-1.55777">
        <ele>4.28767</ele>
        <time>2023-05-31T09:18:09.000Z</time>
      </trkpt>
      <trkpt lat="46.24426" lon="-1.55785">
        <ele>4.23908</ele>
        <time>2023-05-31T09:18:10.000Z</time>
      </trkpt>
      <trkpt lat="46.24423" lon="-1.55792">
        <ele>4.18641</ele>
        <time>2023-05-31T09:18:11.000Z</time>
      </trkpt>
      <trkpt lat="46.24419" lon="-1.55799">
        <ele>4.12483</ele>
        <time>2023-05-31T09:18:12.000Z</time>
      </trkpt>
      <trkpt lat="46.24416" lon="-1.55806">
        <ele>4.05942</ele>
        <time>2023-05-31T09:18:13.000Z</time>
      </trkpt>
      <trkpt lat="46.24412" lon="-1.55813">
        <ele>4.00202</ele>
        <time>2023-05-31T09:18:14.000Z</time>
      </trkpt>
      <trkpt lat="46.24408" lon="-1.55819">
        <ele>3.95612</ele>
        <time>2023-05-31T09:18:15.000Z</time>
      </trkpt>
      <trkpt lat="46.24404" lon="-1.55825">
        <ele>3.84747</ele>
        <time>2023-05-31T09:18:16.000Z</time>
      </trkpt>
      <trkpt lat="46.244" lon="-1.55831">
        <ele>3.76036</ele>
        <time>2023-05-31T09:18:17.000Z</time>
      </trkpt>
      <trkpt lat="46.24395" lon="-1.55837">
        <ele>3.68033</ele>
        <time>2023-05-31T09:18:18.000Z</time>
      </trkpt>
      <trkpt lat="46.24392" lon="-1.55842">
        <ele>3.64972</ele>
        <time>2023-05-31T09:18:19.000Z</time>
      </trkpt>
      <trkpt lat="46.24389" lon="-1.55846">
        <ele>3.64413</ele>
        <time>2023-05-31T09:18:20.000Z</time>
      </trkpt>
      <trkpt lat="46.24386" lon="-1.55849">
        <ele>3.64858</ele>
        <time>2023-05-31T09:18:21.000Z</time>
      </trkpt>
      <trkpt lat="46.24383" lon="-1.55851">
        <ele>3.64824</ele>
        <time>2023-05-31T09:18:22.000Z</time>
      </trkpt>
      <trkpt lat="46.2438" lon="-1.55852">
        <ele>3.70407</ele>
        <time>2023-05-31T09:18:23.000Z</time>
      </trkpt>
      <trkpt lat="46.24378" lon="-1.55854">
        <ele>3.82048</ele>
        <time>2023-05-31T09:18:24.000Z</time>
      </trkpt>
      <trkpt lat="46.24376" lon="-1.55856">
        <ele>3.94696</ele>
        <time>2023-05-31T09:18:25.000Z</time>
      </trkpt>
      <trkpt lat="46.24374" lon="-1.55857">
        <ele>4.04672</ele>
        <time>2023-05-31T09:18:26.000Z</time>
      </trkpt>
      <trkpt lat="46.24372" lon="-1.55859">
        <ele>4.127</ele>
        <time>2023-05-31T09:18:27.000Z</time>
      </trkpt>
      <trkpt lat="46.2437" lon="-1.55861">
        <ele>4.1812</ele>
        <time>2023-05-31T09:18:28.000Z</time>
      </trkpt>
      <trkpt lat="46.24368" lon="-1.55863">
        <ele>4.23122</ele>
        <time>2023-05-31T09:18:29.000Z</time>
      </trkpt>
      <trkpt lat="46.24366" lon="-1.55864">
        <ele>4.27641</ele>
        <time>2023-05-31T09:18:30.000Z</time>
      </trkpt>
      <trkpt lat="46.24364" lon="-1.55865">
        <ele>4.30679</ele>
        <time>2023-05-31T09:18:31.000Z</time>
      </trkpt>
      <trkpt lat="46.24362" lon="-1.55866">
        <ele>4.347</ele>
        <time>2023-05-31T09:18:32.000Z</time>
      </trkpt>
      <trkpt lat="46.2436" lon="-1.55867">
        <ele>4.38935</ele>
        <time>2023-05-31T09:18:33.000Z</time>
      </trkpt>
      <trkpt lat="46.24357" lon="-1.55868">
        <ele>4.40595</ele>
        <time>2023-05-31T09:18:34.000Z</time>
      </trkpt>
      <trkpt lat="46.24355" lon="-1.5587">
        <ele>4.40073</ele>
        <time>2023-05-31T09:18:35.000Z</time>
      </trkpt>
      <trkpt lat="46.24353" lon="-1.55871">
        <ele>4.43532</ele>
        <time>2023-05-31T09:18:36.000Z</time>
      </trkpt>
      <trkpt lat="46.24351" lon="-1.55873">
        <ele>4.45637</ele>
        <time>2023-05-31T09:18:37.000Z</time>
      </trkpt>
      <trkpt lat="46.24348" lon="-1.55875">
        <ele>4.47823</ele>
        <time>2023-05-31T09:18:38.000Z</time>
      </trkpt>
      <trkpt lat="46.24346" lon="-1.55876">
        <ele>4.48326</ele>
        <time>2023-05-31T09:18:39.000Z</time>
      </trkpt>
      <trkpt lat="46.24344" lon="-1.55878">
        <ele>4.4885</ele>
        <time>2023-05-31T09:18:40.000Z</time>
      </trkpt>
      <trkpt lat="46.24342" lon="-1.5588">
        <ele>4.51134</ele>
        <time>2023-05-31T09:18:41.000Z</time>
      </trkpt>
      <trkpt lat="46.2434" lon="-1.55882">
        <ele>4.5412</ele>
        <time>2023-05-31T09:18:42.000Z</time>
      </trkpt>
      <trkpt lat="46.24338" lon="-1.55884">
        <ele>4.55023</ele>
        <time>2023-05-31T09:18:43.000Z</time>
      </trkpt>
      <trkpt lat="46.24336" lon="-1.55886">
        <ele>4.51935</ele>
        <time>2023-05-31T09:18:44.000Z</time>
      </trkpt>
      <trkpt lat="46.24334" lon="-1.55888">
        <ele>4.47044</ele>
        <time>2023-05-31T09:18:45.000Z</time>
      </trkpt>
      <trkpt lat="46.24332" lon="-1.5589">
        <ele>4.4291</ele>
        <time>2023-05-31T09:18:46.000Z</time>
      </trkpt>
      <trkpt lat="46.2433" lon="-1.55892">
        <ele>4.37891</ele>
        <time>2023-05-31T09:18:47.000Z</time>
      </trkpt>
      <trkpt lat="46.24328" lon="-1.55893">
        <ele>4.34839</ele>
        <time>2023-05-31T09:18:48.000Z</time>
      </trkpt>
      <trkpt lat="46.24325" lon="-1.55895">
        <ele>4.30935</ele>
        <time>2023-05-31T09:18:49.000Z</time>
      </trkpt>
      <trkpt lat="46.24323" lon="-1.55897">
        <ele>4.28107</ele>
        <time>2023-05-31T09:18:50.000Z</time>
      </trkpt>
      <trkpt lat="46.24321" lon="-1.55899">
        <ele>4.27063</ele>
        <time>2023-05-31T09:18:51.000Z</time>
      </trkpt>
      <trkpt lat="46.24319" lon="-1.55902">
        <ele>4.25186</ele>
        <time>2023-05-31T09:18:52.000Z</time>
      </trkpt>
      <trkpt lat="46.24317" lon="-1.55903">
        <ele>4.24707</ele>
        <time>2023-05-31T09:18:53.000Z</time>
      </trkpt>
      <trkpt lat="46.24315" lon="-1.55905">
        <ele>4.26499</ele>
        <time>2023-05-31T09:18:54.000Z</time>
      </trkpt>
      <trkpt lat="46.24313" lon="-1.55906">
        <ele>4.27646</ele>
        <time>2023-05-31T09:18:55.000Z</time>
      </trkpt>
      <trkpt lat="46.24311" lon="-1.55907">
        <ele>4.31127</ele>
        <time>2023-05-31T09:18:56.000Z</time>
      </trkpt>
      <trkpt lat="46.2431" lon="-1.55911">
        <ele>4.32488</ele>
        <time>2023-05-31T09:18:58.000Z</time>
      </trkpt>
      <trkpt lat="46.2431" lon="-1.55916">
        <ele>4.35507</ele>
        <time>2023-05-31T09:19:00.000Z</time>
      </trkpt>
      <trkpt lat="46.2431" lon="-1.55921">
        <ele>4.39973</ele>
        <time>2023-05-31T09:19:02.000Z</time>
      </trkpt>
      <trkpt lat="46.2431" lon="-1.55925">
        <ele>4.4235</ele>
        <time>2023-05-31T09:19:03.000Z</time>
      </trkpt>
      <trkpt lat="46.24309" lon="-1.55929">
        <ele>4.44427</ele>
        <time>2023-05-31T09:19:04.000Z</time>
      </trkpt>
      <trkpt lat="46.24308" lon="-1.55931">
        <ele>4.47888</ele>
        <time>2023-05-31T09:19:05.000Z</time>
      </trkpt>
      <trkpt lat="46.24306" lon="-1.55934">
        <ele>4.50264</ele>
        <time>2023-05-31T09:19:06.000Z</time>
      </trkpt>
      <trkpt lat="46.24304" lon="-1.55935">
        <ele>4.52445</ele>
        <time>2023-05-31T09:19:08.000Z</time>
      </trkpt>
      <trkpt lat="46.24302" lon="-1.55934">
        <ele>4.54694</ele>
        <time>2023-05-31T09:19:11.000Z</time>
      </trkpt>
      <trkpt lat="46.24302" lon="-1.55934">
        <ele>4.54694</ele>
        <time>2023-05-31T09:19:11.000Z</time>
      </trkpt>
      <trkpt lat="46.24289" lon="-1.55917">
        <ele>4.48442</ele>
        <time>2023-05-31T13:37:40.000Z</time>
      </trkpt>
      <trkpt lat="46.24289" lon="-1.55917">
        <ele>4.48442</ele>
        <time>2023-05-31T13:37:40.000Z</time>
      </trkpt>
      <trkpt lat="46.24286" lon="-1.5592">
        <ele>4.4474</ele>
        <time>2023-05-31T13:37:43.000Z</time>
      </trkpt>
      <trkpt lat="46.24284" lon="-1.55922">
        <ele>4.43136</ele>
        <time>2023-05-31T13:37:44.000Z</time>
      </trkpt>
      <trkpt lat="46.24282" lon="-1.55925">
        <ele>4.4078</ele>
        <time>2023-05-31T13:37:45.000Z</time>
      </trkpt>
      <trkpt lat="46.2428" lon="-1.55927">
        <ele>4.32889</ele>
        <time>2023-05-31T13:37:46.000Z</time>
      </trkpt>
      <trkpt lat="46.24278" lon="-1.55929">
        <ele>4.24845</ele>
        <time>2023-05-31T13:37:47.000Z</time>
      </trkpt>
      <trkpt lat="46.24275" lon="-1.5593">
        <ele>4.11421</ele>
        <time>2023-05-31T13:37:48.000Z</time>
      </trkpt>
      <trkpt lat="46.24273" lon="-1.55932">
        <ele>3.96316</ele>
        <time>2023-05-31T13:37:49.000Z</time>
      </trkpt>
      <trkpt lat="46.24269" lon="-1.55935">
        <ele>3.82709</ele>
        <time>2023-05-31T13:37:50.000Z</time>
      </trkpt>
      <trkpt lat="46.24267" lon="-1.55938">
        <ele>3.70647</ele>
        <time>2023-05-31T13:37:51.000Z</time>
      </trkpt>
      <trkpt lat="46.24264" lon="-1.5594">
        <ele>3.58377</ele>
        <time>2023-05-31T13:37:52.000Z</time>
      </trkpt>
      <trkpt lat="46.24263" lon="-1.55942">
        <ele>3.40524</ele>
        <time>2023-05-31T13:37:53.000Z</time>
      </trkpt>
      <trkpt lat="46.24261" lon="-1.55943">
        <ele>3.21441</ele>
        <time>2023-05-31T13:37:54.000Z</time>
      </trkpt>
      <trkpt lat="46.24258" lon="-1.55945">
        <ele>3.02738</ele>
        <time>2023-05-31T13:37:55.000Z</time>
      </trkpt>
      <trkpt lat="46.24256" lon="-1.55947">
        <ele>2.87143</ele>
        <time>2023-05-31T13:37:56.000Z</time>
      </trkpt>
      <trkpt lat="46.24255" lon="-1.5595">
        <ele>2.72269</ele>
        <time>2023-05-31T13:37:57.000Z</time>
      </trkpt>
      <trkpt lat="46.24252" lon="-1.55952">
        <ele>2.54837</ele>
        <time>2023-05-31T13:37:58.000Z</time>
      </trkpt>
      <trkpt lat="46.24249" lon="-1.55954">
        <ele>2.38746</ele>
        <time>2023-05-31T13:37:59.000Z</time>
      </trkpt>
      <trkpt lat="46.24247" lon="-1.55956">
        <ele>2.18172</ele>
        <time>2023-05-31T13:38:00.000Z</time>
      </trkpt>
      <trkpt lat="46.24245" lon="-1.55957">
        <ele>1.99597</ele>
        <time>2023-05-31T13:38:01.000Z</time>
      </trkpt>
      <trkpt lat="46.24243" lon="-1.55958">
        <ele>1.90446</ele>
        <time>2023-05-31T13:38:02.000Z</time>
      </trkpt>
      <trkpt lat="46.24241" lon="-1.5596">
        <ele>1.79812</ele>
        <time>2023-05-31T13:38:03.000Z</time>
      </trkpt>
      <trkpt lat="46.24238" lon="-1.55962">
        <ele>1.69715</ele>
        <time>2023-05-31T13:38:04.000Z</time>
      </trkpt>
      <trkpt lat="46.24236" lon="-1.55964">
        <ele>1.64414</ele>
        <time>2023-05-31T13:38:05.000Z</time>
      </trkpt>
      <trkpt lat="46.24235" lon="-1.55966">
        <ele>1.64096</ele>
        <time>2023-05-31T13:38:06.000Z</time>
      </trkpt>
      <trkpt lat="46.24233" lon="-1.55969">
        <ele>1.66176</ele>
        <time>2023-05-31T13:38:07.000Z</time>
      </trkpt>
      <trkpt lat="46.24231" lon="-1.55972">
        <ele>1.73834</ele>
        <time>2023-05-31T13:38:08.000Z</time>
      </trkpt>
      <trkpt lat="46.2423" lon="-1.55975">
        <ele>1.84837</ele>
        <time>2023-05-31T13:38:09.000Z</time>
      </trkpt>
      <trkpt lat="46.24228" lon="-1.55978">
        <ele>1.946</ele>
        <time>2023-05-31T13:38:10.000Z</time>
      </trkpt>
      <trkpt lat="46.24227" lon="-1.55981">
        <ele>2.03497</ele>
        <time>2023-05-31T13:38:11.000Z</time>
      </trkpt>
      <trkpt lat="46.24225" lon="-1.55984">
        <ele>2.12441</ele>
        <time>2023-05-31T13:38:12.000Z</time>
      </trkpt>
      <trkpt lat="46.24224" lon="-1.55988">
        <ele>2.24589</ele>
        <time>2023-05-31T13:38:13.000Z</time>
      </trkpt>
      <trkpt lat="46.24223" lon="-1.55991">
        <ele>2.35305</ele>
        <time>2023-05-31T13:38:14.000Z</time>
      </trkpt>
      <trkpt lat="46.24223" lon="-1.55995">
        <ele>2.44519</ele>
        <time>2023-05-31T13:38:15.000Z</time>
      </trkpt>
      <trkpt lat="46.24222" lon="-1.55998">
        <ele>2.51555</ele>
        <time>2023-05-31T13:38:16.000Z</time>
      </trkpt>
      <trkpt lat="46.24221" lon="-1.56001">
        <ele>2.54909</ele>
        <time>2023-05-31T13:38:17.000Z</time>
      </trkpt>
      <trkpt lat="46.2422" lon="-1.56005">
        <ele>2.59071</ele>
        <time>2023-05-31T13:38:18.000Z</time>
      </trkpt>
      <trkpt lat="46.24219" lon="-1.56009">
        <ele>2.64199</ele>
        <time>2023-05-31T13:38:19.000Z</time>
      </trkpt>
      <trkpt lat="46.24218" lon="-1.56013">
        <ele>2.74624</ele>
        <time>2023-05-31T13:38:20.000Z</time>
      </trkpt>
      <trkpt lat="46.24218" lon="-1.56016">
        <ele>2.8312</ele>
        <time>2023-05-31T13:38:21.000Z</time>
      </trkpt>
      <trkpt lat="46.24218" lon="-1.5602">
        <ele>2.92701</ele>
        <time>2023-05-31T13:38:22.000Z</time>
      </trkpt>
      <trkpt lat="46.24217" lon="-1.56023">
        <ele>2.96822</ele>
        <time>2023-05-31T13:38:23.000Z</time>
      </trkpt>
      <trkpt lat="46.24217" lon="-1.56027">
        <ele>2.98572</ele>
        <time>2023-05-31T13:38:24.000Z</time>
      </trkpt>
      <trkpt lat="46.24217" lon="-1.5603">
        <ele>2.94829</ele>
        <time>2023-05-31T13:38:25.000Z</time>
      </trkpt>
      <trkpt lat="46.24217" lon="-1.56033">
        <ele>2.89662</ele>
        <time>2023-05-31T13:38:26.000Z</time>
      </trkpt>
      <trkpt lat="46.24216" lon="-1.56037">
        <ele>2.80532</ele>
        <time>2023-05-31T13:38:27.000Z</time>
      </trkpt>
      <trkpt lat="46.24215" lon="-1.5604">
        <ele>2.71511</ele>
        <time>2023-05-31T13:38:28.000Z</time>
      </trkpt>
      <trkpt lat="46.24213" lon="-1.56042">
        <ele>2.59848</ele>
        <time>2023-05-31T13:38:29.000Z</time>
      </trkpt>
      <trkpt lat="46.24211" lon="-1.56044">
        <ele>2.46886</ele>
        <time>2023-05-31T13:38:30.000Z</time>
      </trkpt>
      <trkpt lat="46.24208" lon="-1.56045">
        <ele>2.36667</ele>
        <time>2023-05-31T13:38:31.000Z</time>
      </trkpt>
      <trkpt lat="46.24204" lon="-1.56046">
        <ele>2.21214</ele>
        <time>2023-05-31T13:38:32.000Z</time>
      </trkpt>
      <trkpt lat="46.24201" lon="-1.56047">
        <ele>2.07525</ele>
        <time>2023-05-31T13:38:33.000Z</time>
      </trkpt>
      <trkpt lat="46.24198" lon="-1.56048">
        <ele>1.93909</ele>
        <time>2023-05-31T13:38:34.000Z</time>
      </trkpt>
      <trkpt lat="46.24195" lon="-1.56049">
        <ele>1.79746</ele>
        <time>2023-05-31T13:38:35.000Z</time>
      </trkpt>
      <trkpt lat="46.24191" lon="-1.5605">
        <ele>1.66946</ele>
        <time>2023-05-31T13:38:36.000Z</time>
      </trkpt>
      <trkpt lat="46.24188" lon="-1.5605">
        <ele>1.55083</ele>
        <time>2023-05-31T13:38:37.000Z</time>
      </trkpt>
      <trkpt lat="46.24185" lon="-1.5605">
        <ele>1.43085</ele>
        <time>2023-05-31T13:38:38.000Z</time>
      </trkpt>
      <trkpt lat="46.24181" lon="-1.5605">
        <ele>1.30324</ele>
        <time>2023-05-31T13:38:39.000Z</time>
      </trkpt>
      <trkpt lat="46.24178" lon="-1.56051">
        <ele>1.19283</ele>
        <time>2023-05-31T13:38:40.000Z</time>
      </trkpt>
      <trkpt lat="46.24174" lon="-1.56051">
        <ele>1.10634</ele>
        <time>2023-05-31T13:38:41.000Z</time>
      </trkpt>
      <trkpt lat="46.24171" lon="-1.56051">
        <ele>1.02505</ele>
        <time>2023-05-31T13:38:42.000Z</time>
      </trkpt>
      <trkpt lat="46.24168" lon="-1.56052">
        <ele>0.98682</ele>
        <time>2023-05-31T13:38:43.000Z</time>
      </trkpt>
      <trkpt lat="46.24164" lon="-1.56052">
        <ele>0.93727</ele>
        <time>2023-05-31T13:38:44.000Z</time>
      </trkpt>
      <trkpt lat="46.24161" lon="-1.56053">
        <ele>0.92895</ele>
        <time>2023-05-31T13:38:45.000Z</time>
      </trkpt>
      <trkpt lat="46.24158" lon="-1.56053">
        <ele>0.91646</ele>
        <time>2023-05-31T13:38:46.000Z</time>
      </trkpt>
      <trkpt lat="46.24155" lon="-1.56053">
        <ele>0.89562</ele>
        <time>2023-05-31T13:38:47.000Z</time>
      </trkpt>
      <trkpt lat="46.24152" lon="-1.56053">
        <ele>0.87009</ele>
        <time>2023-05-31T13:38:48.000Z</time>
      </trkpt>
      <trkpt lat="46.24149" lon="-1.56053">
        <ele>0.83383</ele>
        <time>2023-05-31T13:38:49.000Z</time>
      </trkpt>
      <trkpt lat="46.24146" lon="-1.56053">
        <ele>0.81144</ele>
        <time>2023-05-31T13:38:50.000Z</time>
      </trkpt>
      <trkpt lat="46.24142" lon="-1.56054">
        <ele>0.76442</ele>
        <time>2023-05-31T13:38:51.000Z</time>
      </trkpt>
      <trkpt lat="46.24139" lon="-1.56054">
        <ele>0.77671</ele>
        <time>2023-05-31T13:38:52.000Z</time>
      </trkpt>
      <trkpt lat="46.24136" lon="-1.56055">
        <ele>0.82695</ele>
        <time>2023-05-31T13:38:53.000Z</time>
      </trkpt>
      <trkpt lat="46.24133" lon="-1.56055">
        <ele>0.87488</ele>
        <time>2023-05-31T13:38:54.000Z</time>
      </trkpt>
      <trkpt lat="46.24129" lon="-1.56055">
        <ele>0.93941</ele>
        <time>2023-05-31T13:38:55.000Z</time>
      </trkpt>
      <trkpt lat="46.24126" lon="-1.56055">
        <ele>0.99805</ele>
        <time>2023-05-31T13:38:56.000Z</time>
      </trkpt>
      <trkpt lat="46.24123" lon="-1.56054">
        <ele>1.07476</ele>
        <time>2023-05-31T13:38:57.000Z</time>
      </trkpt>
      <trkpt lat="46.2412" lon="-1.56054">
        <ele>1.08498</ele>
        <time>2023-05-31T13:38:58.000Z</time>
      </trkpt>
      <trkpt lat="46.24117" lon="-1.56053">
        <ele>1.0994</ele>
        <time>2023-05-31T13:38:59.000Z</time>
      </trkpt>
      <trkpt lat="46.24113" lon="-1.56052">
        <ele>1.10791</ele>
        <time>2023-05-31T13:39:00.000Z</time>
      </trkpt>
      <trkpt lat="46.2411" lon="-1.56051">
        <ele>1.09622</ele>
        <time>2023-05-31T13:39:01.000Z</time>
      </trkpt>
      <trkpt lat="46.24107" lon="-1.56049">
        <ele>1.06884</ele>
        <time>2023-05-31T13:39:02.000Z</time>
      </trkpt>
      <trkpt lat="46.24105" lon="-1.56047">
        <ele>1.06218</ele>
        <time>2023-05-31T13:39:03.000Z</time>
      </trkpt>
      <trkpt lat="46.24102" lon="-1.56046">
        <ele>1.04432</ele>
        <time>2023-05-31T13:39:04.000Z</time>
      </trkpt>
      <trkpt lat="46.24099" lon="-1.56044">
        <ele>1.03725</ele>
        <time>2023-05-31T13:39:05.000Z</time>
      </trkpt>
      <trkpt lat="46.24096" lon="-1.56042">
        <ele>1.05971</ele>
        <time>2023-05-31T13:39:06.000Z</time>
      </trkpt>
      <trkpt lat="46.24094" lon="-1.5604">
        <ele>1.11184</ele>
        <time>2023-05-31T13:39:07.000Z</time>
      </trkpt>
      <trkpt lat="46.24091" lon="-1.56038">
        <ele>1.1766</ele>
        <time>2023-05-31T13:39:08.000Z</time>
      </trkpt>
      <trkpt lat="46.24089" lon="-1.56036">
        <ele>1.24799</ele>
        <time>2023-05-31T13:39:09.000Z</time>
      </trkpt>
      <trkpt lat="46.24086" lon="-1.56035">
        <ele>1.31655</ele>
        <time>2023-05-31T13:39:10.000Z</time>
      </trkpt>
      <trkpt lat="46.24083" lon="-1.56033">
        <ele>1.38663</ele>
        <time>2023-05-31T13:39:11.000Z</time>
      </trkpt>
      <trkpt lat="46.24079" lon="-1.56031">
        <ele>1.42937</ele>
        <time>2023-05-31T13:39:12.000Z</time>
      </trkpt>
      <trkpt lat="46.24076" lon="-1.56029">
        <ele>1.45198</ele>
        <time>2023-05-31T13:39:13.000Z</time>
      </trkpt>
      <trkpt lat="46.24073" lon="-1.56027">
        <ele>1.47442</ele>
        <time>2023-05-31T13:39:14.000Z</time>
      </trkpt>
      <trkpt lat="46.2407" lon="-1.56025">
        <ele>1.48608</ele>
        <time>2023-05-31T13:39:15.000Z</time>
      </trkpt>
      <trkpt lat="46.24067" lon="-1.56022">
        <ele>1.49644</ele>
        <time>2023-05-31T13:39:16.000Z</time>
      </trkpt>
      <trkpt lat="46.24064" lon="-1.5602">
        <ele>1.49135</ele>
        <time>2023-05-31T13:39:17.000Z</time>
      </trkpt>
      <trkpt lat="46.24061" lon="-1.56018">
        <ele>1.56634</ele>
        <time>2023-05-31T13:39:18.000Z</time>
      </trkpt>
      <trkpt lat="46.24059" lon="-1.56015">
        <ele>1.63204</ele>
        <time>2023-05-31T13:39:19.000Z</time>
      </trkpt>
      <trkpt lat="46.24056" lon="-1.56013">
        <ele>1.68705</ele>
        <time>2023-05-31T13:39:20.000Z</time>
      </trkpt>
      <trkpt lat="46.24053" lon="-1.56011">
        <ele>1.75773</ele>
        <time>2023-05-31T13:39:21.000Z</time>
      </trkpt>
      <trkpt lat="46.2405" lon="-1.56009">
        <ele>1.82047</ele>
        <time>2023-05-31T13:39:22.000Z</time>
      </trkpt>
      <trkpt lat="46.24047" lon="-1.56007">
        <ele>1.87767</ele>
        <time>2023-05-31T13:39:23.000Z</time>
      </trkpt>
      <trkpt lat="46.24044" lon="-1.56005">
        <ele>1.95135</ele>
        <time>2023-05-31T13:39:24.000Z</time>
      </trkpt>
      <trkpt lat="46.2404" lon="-1.56003">
        <ele>2.00814</ele>
        <time>2023-05-31T13:39:25.000Z</time>
      </trkpt>
      <trkpt lat="46.24037" lon="-1.56002">
        <ele>2.06986</ele>
        <time>2023-05-31T13:39:26.000Z</time>
      </trkpt>
      <trkpt lat="46.24034" lon="-1.56">
        <ele>2.13951</ele>
        <time>2023-05-31T13:39:27.000Z</time>
      </trkpt>
      <trkpt lat="46.24031" lon="-1.55998">
        <ele>2.17265</ele>
        <time>2023-05-31T13:39:28.000Z</time>
      </trkpt>
      <trkpt lat="46.24027" lon="-1.55995">
        <ele>2.19956</ele>
        <time>2023-05-31T13:39:29.000Z</time>
      </trkpt>
      <trkpt lat="46.24024" lon="-1.55993">
        <ele>2.20926</ele>
        <time>2023-05-31T13:39:30.000Z</time>
      </trkpt>
      <trkpt lat="46.24021" lon="-1.55991">
        <ele>2.21413</ele>
        <time>2023-05-31T13:39:31.000Z</time>
      </trkpt>
      <trkpt lat="46.24018" lon="-1.55989">
        <ele>2.21099</ele>
        <time>2023-05-31T13:39:32.000Z</time>
      </trkpt>
      <trkpt lat="46.24014" lon="-1.55987">
        <ele>2.20744</ele>
        <time>2023-05-31T13:39:33.000Z</time>
      </trkpt>
      <trkpt lat="46.24011" lon="-1.55985">
        <ele>2.21321</ele>
        <time>2023-05-31T13:39:34.000Z</time>
      </trkpt>
      <trkpt lat="46.24008" lon="-1.55983">
        <ele>2.22128</ele>
        <time>2023-05-31T13:39:35.000Z</time>
      </trkpt>
      <trkpt lat="46.24005" lon="-1.55981">
        <ele>2.25518</ele>
        <time>2023-05-31T13:39:36.000Z</time>
      </trkpt>
      <trkpt lat="46.24002" lon="-1.55979">
        <ele>2.29326</ele>
        <time>2023-05-31T13:39:37.000Z</time>
      </trkpt>
      <trkpt lat="46.23998" lon="-1.55977">
        <ele>2.32303</ele>
        <time>2023-05-31T13:39:38.000Z</time>
      </trkpt>
      <trkpt lat="46.23995" lon="-1.55975">
        <ele>2.36472</ele>
        <time>2023-05-31T13:39:39.000Z</time>
      </trkpt>
      <trkpt lat="46.23993" lon="-1.55972">
        <ele>2.41151</ele>
        <time>2023-05-31T13:39:40.000Z</time>
      </trkpt>
      <trkpt lat="46.23989" lon="-1.5597">
        <ele>2.45596</ele>
        <time>2023-05-31T13:39:41.000Z</time>
      </trkpt>
      <trkpt lat="46.23986" lon="-1.55968">
        <ele>2.52074</ele>
        <time>2023-05-31T13:39:42.000Z</time>
      </trkpt>
      <trkpt lat="46.23983" lon="-1.55966">
        <ele>2.57443</ele>
        <time>2023-05-31T13:39:43.000Z</time>
      </trkpt>
      <trkpt lat="46.2398" lon="-1.55965">
        <ele>2.63556</ele>
        <time>2023-05-31T13:39:44.000Z</time>
      </trkpt>
      <trkpt lat="46.23977" lon="-1.55962">
        <ele>2.65426</ele>
        <time>2023-05-31T13:39:45.000Z</time>
      </trkpt>
      <trkpt lat="46.23974" lon="-1.5596">
        <ele>2.65489</ele>
        <time>2023-05-31T13:39:46.000Z</time>
      </trkpt>
      <trkpt lat="46.23971" lon="-1.55958">
        <ele>2.63136</ele>
        <time>2023-05-31T13:39:47.000Z</time>
      </trkpt>
      <trkpt lat="46.23967" lon="-1.55956">
        <ele>2.63128</ele>
        <time>2023-05-31T13:39:48.000Z</time>
      </trkpt>
      <trkpt lat="46.23964" lon="-1.55954">
        <ele>2.63088</ele>
        <time>2023-05-31T13:39:49.000Z</time>
      </trkpt>
      <trkpt lat="46.23961" lon="-1.55952">
        <ele>2.63191</ele>
        <time>2023-05-31T13:39:50.000Z</time>
      </trkpt>
      <trkpt lat="46.23957" lon="-1.5595">
        <ele>2.65411</ele>
        <time>2023-05-31T13:39:51.000Z</time>
      </trkpt>
      <trkpt lat="46.23954" lon="-1.55948">
        <ele>2.68212</ele>
        <time>2023-05-31T13:39:52.000Z</time>
      </trkpt>
      <trkpt lat="46.23951" lon="-1.55947">
        <ele>2.71448</ele>
        <time>2023-05-31T13:39:53.000Z</time>
      </trkpt>
      <trkpt lat="46.23948" lon="-1.55944">
        <ele>2.77006</ele>
        <time>2023-05-31T13:39:54.000Z</time>
      </trkpt>
      <trkpt lat="46.23944" lon="-1.55942">
        <ele>2.83183</ele>
        <time>2023-05-31T13:39:55.000Z</time>
      </trkpt>
      <trkpt lat="46.23941" lon="-1.5594">
        <ele>2.84217</ele>
        <time>2023-05-31T13:39:56.000Z</time>
      </trkpt>
      <trkpt lat="46.23938" lon="-1.55938">
        <ele>2.86022</ele>
        <time>2023-05-31T13:39:57.000Z</time>
      </trkpt>
      <trkpt lat="46.23935" lon="-1.55936">
        <ele>2.86507</ele>
        <time>2023-05-31T13:39:58.000Z</time>
      </trkpt>
      <trkpt lat="46.23931" lon="-1.55935">
        <ele>2.86228</ele>
        <time>2023-05-31T13:39:59.000Z</time>
      </trkpt>
      <trkpt lat="46.23928" lon="-1.55933">
        <ele>2.8735</ele>
        <time>2023-05-31T13:40:00.000Z</time>
      </trkpt>
      <trkpt lat="46.23925" lon="-1.55932">
        <ele>2.87642</ele>
        <time>2023-05-31T13:40:01.000Z</time>
      </trkpt>
      <trkpt lat="46.23922" lon="-1.5593">
        <ele>2.86958</ele>
        <time>2023-05-31T13:40:02.000Z</time>
      </trkpt>
      <trkpt lat="46.23919" lon="-1.55928">
        <ele>2.83411</ele>
        <time>2023-05-31T13:40:03.000Z</time>
      </trkpt>
      <trkpt lat="46.23917" lon="-1.55926">
        <ele>2.81354</ele>
        <time>2023-05-31T13:40:04.000Z</time>
      </trkpt>
      <trkpt lat="46.23915" lon="-1.55923">
        <ele>2.81803</ele>
        <time>2023-05-31T13:40:05.000Z</time>
      </trkpt>
      <trkpt lat="46.23913" lon="-1.55922">
        <ele>2.83816</ele>
        <time>2023-05-31T13:40:06.000Z</time>
      </trkpt>
      <trkpt lat="46.23911" lon="-1.5592">
        <ele>2.85824</ele>
        <time>2023-05-31T13:40:07.000Z</time>
      </trkpt>
      <trkpt lat="46.23908" lon="-1.55918">
        <ele>2.87191</ele>
        <time>2023-05-31T13:40:08.000Z</time>
      </trkpt>
      <trkpt lat="46.23905" lon="-1.55916">
        <ele>2.87353</ele>
        <time>2023-05-31T13:40:09.000Z</time>
      </trkpt>
      <trkpt lat="46.23902" lon="-1.55914">
        <ele>2.91896</ele>
        <time>2023-05-31T13:40:10.000Z</time>
      </trkpt>
      <trkpt lat="46.23899" lon="-1.55911">
        <ele>2.94477</ele>
        <time>2023-05-31T13:40:11.000Z</time>
      </trkpt>
      <trkpt lat="46.23896" lon="-1.55908">
        <ele>2.97471</ele>
        <time>2023-05-31T13:40:12.000Z</time>
      </trkpt>
      <trkpt lat="46.23893" lon="-1.55905">
        <ele>2.96008</ele>
        <time>2023-05-31T13:40:13.000Z</time>
      </trkpt>
      <trkpt lat="46.23891" lon="-1.55902">
        <ele>2.90915</ele>
        <time>2023-05-31T13:40:14.000Z</time>
      </trkpt>
      <trkpt lat="46.23888" lon="-1.55899">
        <ele>2.8586</ele>
        <time>2023-05-31T13:40:15.000Z</time>
      </trkpt>
      <trkpt lat="46.23885" lon="-1.55896">
        <ele>2.81975</ele>
        <time>2023-05-31T13:40:16.000Z</time>
      </trkpt>
      <trkpt lat="46.23882" lon="-1.55893">
        <ele>2.76941</ele>
        <time>2023-05-31T13:40:17.000Z</time>
      </trkpt>
      <trkpt lat="46.2388" lon="-1.55889">
        <ele>2.75527</ele>
        <time>2023-05-31T13:40:18.000Z</time>
      </trkpt>
      <trkpt lat="46.23877" lon="-1.55886">
        <ele>2.73668</ele>
        <time>2023-05-31T13:40:19.000Z</time>
      </trkpt>
      <trkpt lat="46.23874" lon="-1.55883">
        <ele>2.72425</ele>
        <time>2023-05-31T13:40:20.000Z</time>
      </trkpt>
      <trkpt lat="46.23871" lon="-1.5588">
        <ele>2.71122</ele>
        <time>2023-05-31T13:40:21.000Z</time>
      </trkpt>
      <trkpt lat="46.23868" lon="-1.55876">
        <ele>2.70294</ele>
        <time>2023-05-31T13:40:22.000Z</time>
      </trkpt>
      <trkpt lat="46.23865" lon="-1.55873">
        <ele>2.68876</ele>
        <time>2023-05-31T13:40:23.000Z</time>
      </trkpt>
      <trkpt lat="46.23862" lon="-1.5587">
        <ele>2.65214</ele>
        <time>2023-05-31T13:40:24.000Z</time>
      </trkpt>
      <trkpt lat="46.23859" lon="-1.55866">
        <ele>2.60297</ele>
        <time>2023-05-31T13:40:25.000Z</time>
      </trkpt>
      <trkpt lat="46.23856" lon="-1.55863">
        <ele>2.53361</ele>
        <time>2023-05-31T13:40:26.000Z</time>
      </trkpt>
      <trkpt lat="46.23853" lon="-1.5586">
        <ele>2.46186</ele>
        <time>2023-05-31T13:40:27.000Z</time>
      </trkpt>
      <trkpt lat="46.2385" lon="-1.55857">
        <ele>2.40127</ele>
        <time>2023-05-31T13:40:28.000Z</time>
      </trkpt>
      <trkpt lat="46.23847" lon="-1.55853">
        <ele>2.35938</ele>
        <time>2023-05-31T13:40:29.000Z</time>
      </trkpt>
      <trkpt lat="46.23844" lon="-1.55849">
        <ele>2.28587</ele>
        <time>2023-05-31T13:40:30.000Z</time>
      </trkpt>
      <trkpt lat="46.2384" lon="-1.55846">
        <ele>2.21587</ele>
        <time>2023-05-31T13:40:31.000Z</time>
      </trkpt>
      <trkpt lat="46.23837" lon="-1.55842">
        <ele>2.13942</ele>
        <time>2023-05-31T13:40:32.000Z</time>
      </trkpt>
      <trkpt lat="46.23834" lon="-1.55839">
        <ele>2.10667</ele>
        <time>2023-05-31T13:40:33.000Z</time>
      </trkpt>
      <trkpt lat="46.23831" lon="-1.55835">
        <ele>2.10387</ele>
        <time>2023-05-31T13:40:34.000Z</time>
      </trkpt>
      <trkpt lat="46.23827" lon="-1.55832">
        <ele>2.10499</ele>
        <time>2023-05-31T13:40:35.000Z</time>
      </trkpt>
      <trkpt lat="46.23824" lon="-1.55828">
        <ele>2.11691</ele>
        <time>2023-05-31T13:40:36.000Z</time>
      </trkpt>
      <trkpt lat="46.23821" lon="-1.55824">
        <ele>2.13585</ele>
        <time>2023-05-31T13:40:37.000Z</time>
      </trkpt>
      <trkpt lat="46.23818" lon="-1.55821">
        <ele>2.13427</ele>
        <time>2023-05-31T13:40:38.000Z</time>
      </trkpt>
      <trkpt lat="46.23814" lon="-1.55817">
        <ele>2.14297</ele>
        <time>2023-05-31T13:40:39.000Z</time>
      </trkpt>
      <trkpt lat="46.23811" lon="-1.55813">
        <ele>2.14655</ele>
        <time>2023-05-31T13:40:40.000Z</time>
      </trkpt>
      <trkpt lat="46.23808" lon="-1.55809">
        <ele>2.17382</ele>
        <time>2023-05-31T13:40:41.000Z</time>
      </trkpt>
      <trkpt lat="46.23805" lon="-1.55805">
        <ele>2.19549</ele>
        <time>2023-05-31T13:40:42.000Z</time>
      </trkpt>
      <trkpt lat="46.23801" lon="-1.55802">
        <ele>2.26534</ele>
        <time>2023-05-31T13:40:43.000Z</time>
      </trkpt>
      <trkpt lat="46.23798" lon="-1.55798">
        <ele>2.3421</ele>
        <time>2023-05-31T13:40:44.000Z</time>
      </trkpt>
      <trkpt lat="46.23795" lon="-1.55794">
        <ele>2.40004</ele>
        <time>2023-05-31T13:40:45.000Z</time>
      </trkpt>
      <trkpt lat="46.23792" lon="-1.55791">
        <ele>2.46942</ele>
        <time>2023-05-31T13:40:46.000Z</time>
      </trkpt>
      <trkpt lat="46.23788" lon="-1.55787">
        <ele>2.54373</ele>
        <time>2023-05-31T13:40:47.000Z</time>
      </trkpt>
      <trkpt lat="46.23785" lon="-1.55784">
        <ele>2.62063</ele>
        <time>2023-05-31T13:40:48.000Z</time>
      </trkpt>
      <trkpt lat="46.23782" lon="-1.5578">
        <ele>2.69756</ele>
        <time>2023-05-31T13:40:49.000Z</time>
      </trkpt>
      <trkpt lat="46.23779" lon="-1.55777">
        <ele>2.7738</ele>
        <time>2023-05-31T13:40:50.000Z</time>
      </trkpt>
      <trkpt lat="46.23776" lon="-1.55774">
        <ele>2.83144</ele>
        <time>2023-05-31T13:40:51.000Z</time>
      </trkpt>
      <trkpt lat="46.23773" lon="-1.5577">
        <ele>2.87778</ele>
        <time>2023-05-31T13:40:52.000Z</time>
      </trkpt>
      <trkpt lat="46.2377" lon="-1.55767">
        <ele>2.91596</ele>
        <time>2023-05-31T13:40:53.000Z</time>
      </trkpt>
      <trkpt lat="46.23767" lon="-1.55763">
        <ele>2.92867</ele>
        <time>2023-05-31T13:40:54.000Z</time>
      </trkpt>
      <trkpt lat="46.23763" lon="-1.5576">
        <ele>2.92659</ele>
        <time>2023-05-31T13:40:55.000Z</time>
      </trkpt>
      <trkpt lat="46.2376" lon="-1.55756">
        <ele>2.91686</ele>
        <time>2023-05-31T13:40:56.000Z</time>
      </trkpt>
      <trkpt lat="46.23757" lon="-1.55753">
        <ele>2.91077</ele>
        <time>2023-05-31T13:40:57.000Z</time>
      </trkpt>
      <trkpt lat="46.23754" lon="-1.5575">
        <ele>2.92849</ele>
        <time>2023-05-31T13:40:58.000Z</time>
      </trkpt>
      <trkpt lat="46.2375" lon="-1.55748">
        <ele>2.94949</ele>
        <time>2023-05-31T13:40:59.000Z</time>
      </trkpt>
      <trkpt lat="46.23747" lon="-1.55745">
        <ele>2.97338</ele>
        <time>2023-05-31T13:41:00.000Z</time>
      </trkpt>
      <trkpt lat="46.23744" lon="-1.55742">
        <ele>2.9606</ele>
        <time>2023-05-31T13:41:01.000Z</time>
      </trkpt>
      <trkpt lat="46.23741" lon="-1.55738">
        <ele>2.94961</ele>
        <time>2023-05-31T13:41:02.000Z</time>
      </trkpt>
      <trkpt lat="46.23738" lon="-1.55735">
        <ele>2.94791</ele>
        <time>2023-05-31T13:41:03.000Z</time>
      </trkpt>
      <trkpt lat="46.23735" lon="-1.55731">
        <ele>2.94906</ele>
        <time>2023-05-31T13:41:04.000Z</time>
      </trkpt>
      <trkpt lat="46.23733" lon="-1.55727">
        <ele>2.92689</ele>
        <time>2023-05-31T13:41:05.000Z</time>
      </trkpt>
      <trkpt lat="46.2373" lon="-1.55724">
        <ele>2.91819</ele>
        <time>2023-05-31T13:41:06.000Z</time>
      </trkpt>
      <trkpt lat="46.23726" lon="-1.5572">
        <ele>2.91133</ele>
        <time>2023-05-31T13:41:07.000Z</time>
      </trkpt>
      <trkpt lat="46.23723" lon="-1.55717">
        <ele>2.9066</ele>
        <time>2023-05-31T13:41:08.000Z</time>
      </trkpt>
      <trkpt lat="46.2372" lon="-1.55714">
        <ele>2.86331</ele>
        <time>2023-05-31T13:41:09.000Z</time>
      </trkpt>
      <trkpt lat="46.23717" lon="-1.55711">
        <ele>2.81798</ele>
        <time>2023-05-31T13:41:10.000Z</time>
      </trkpt>
      <trkpt lat="46.23714" lon="-1.55708">
        <ele>2.79435</ele>
        <time>2023-05-31T13:41:11.000Z</time>
      </trkpt>
      <trkpt lat="46.23712" lon="-1.55704">
        <ele>2.78372</ele>
        <time>2023-05-31T13:41:12.000Z</time>
      </trkpt>
      <trkpt lat="46.23709" lon="-1.55701">
        <ele>2.76193</ele>
        <time>2023-05-31T13:41:13.000Z</time>
      </trkpt>
      <trkpt lat="46.23706" lon="-1.55698">
        <ele>2.73927</ele>
        <time>2023-05-31T13:41:14.000Z</time>
      </trkpt>
      <trkpt lat="46.23704" lon="-1.55695">
        <ele>2.71907</ele>
        <time>2023-05-31T13:41:15.000Z</time>
      </trkpt>
      <trkpt lat="46.23701" lon="-1.55692">
        <ele>2.7049</ele>
        <time>2023-05-31T13:41:16.000Z</time>
      </trkpt>
      <trkpt lat="46.23699" lon="-1.55689">
        <ele>2.6638</ele>
        <time>2023-05-31T13:41:17.000Z</time>
      </trkpt>
      <trkpt lat="46.23697" lon="-1.55687">
        <ele>2.59454</ele>
        <time>2023-05-31T13:41:18.000Z</time>
      </trkpt>
      <trkpt lat="46.23694" lon="-1.55684">
        <ele>2.51435</ele>
        <time>2023-05-31T13:41:19.000Z</time>
      </trkpt>
      <trkpt lat="46.23692" lon="-1.55682">
        <ele>2.45201</ele>
        <time>2023-05-31T13:41:20.000Z</time>
      </trkpt>
      <trkpt lat="46.23691" lon="-1.55681">
        <ele>2.43926</ele>
        <time>2023-05-31T13:41:21.000Z</time>
      </trkpt>
      <trkpt lat="46.23687" lon="-1.55679">
        <ele>2.3875</ele>
        <time>2023-05-31T13:41:23.000Z</time>
      </trkpt>
      <trkpt lat="46.23685" lon="-1.55678">
        <ele>2.33689</ele>
        <time>2023-05-31T13:41:24.000Z</time>
      </trkpt>
      <trkpt lat="46.23683" lon="-1.55675">
        <ele>2.21458</ele>
        <time>2023-05-31T13:41:25.000Z</time>
      </trkpt>
      <trkpt lat="46.23681" lon="-1.55672">
        <ele>2.14741</ele>
        <time>2023-05-31T13:41:26.000Z</time>
      </trkpt>
      <trkpt lat="46.23679" lon="-1.55668">
        <ele>2.06571</ele>
        <time>2023-05-31T13:41:27.000Z</time>
      </trkpt>
      <trkpt lat="46.23677" lon="-1.55665">
        <ele>1.97984</ele>
        <time>2023-05-31T13:41:28.000Z</time>
      </trkpt>
      <trkpt lat="46.23674" lon="-1.55661">
        <ele>1.89845</ele>
        <time>2023-05-31T13:41:29.000Z</time>
      </trkpt>
      <trkpt lat="46.23671" lon="-1.55658">
        <ele>1.85394</ele>
        <time>2023-05-31T13:41:30.000Z</time>
      </trkpt>
      <trkpt lat="46.23668" lon="-1.55655">
        <ele>1.80745</ele>
        <time>2023-05-31T13:41:31.000Z</time>
      </trkpt>
      <trkpt lat="46.23666" lon="-1.55652">
        <ele>1.75135</ele>
        <time>2023-05-31T13:41:32.000Z</time>
      </trkpt>
      <trkpt lat="46.23663" lon="-1.55648">
        <ele>1.70342</ele>
        <time>2023-05-31T13:41:33.000Z</time>
      </trkpt>
      <trkpt lat="46.2366" lon="-1.55645">
        <ele>1.69437</ele>
        <time>2023-05-31T13:41:34.000Z</time>
      </trkpt>
      <trkpt lat="46.23657" lon="-1.55642">
        <ele>1.68832</ele>
        <time>2023-05-31T13:41:35.000Z</time>
      </trkpt>
      <trkpt lat="46.23654" lon="-1.55639">
        <ele>1.67652</ele>
        <time>2023-05-31T13:41:36.000Z</time>
      </trkpt>
      <trkpt lat="46.23651" lon="-1.55636">
        <ele>1.66643</ele>
        <time>2023-05-31T13:41:37.000Z</time>
      </trkpt>
      <trkpt lat="46.23648" lon="-1.55632">
        <ele>1.68208</ele>
        <time>2023-05-31T13:41:38.000Z</time>
      </trkpt>
      <trkpt lat="46.23645" lon="-1.55629">
        <ele>1.69334</ele>
        <time>2023-05-31T13:41:39.000Z</time>
      </trkpt>
      <trkpt lat="46.23642" lon="-1.55626">
        <ele>1.69244</ele>
        <time>2023-05-31T13:41:40.000Z</time>
      </trkpt>
      <trkpt lat="46.23638" lon="-1.55622">
        <ele>1.67145</ele>
        <time>2023-05-31T13:41:41.000Z</time>
      </trkpt>
      <trkpt lat="46.23635" lon="-1.55619">
        <ele>1.60371</ele>
        <time>2023-05-31T13:41:42.000Z</time>
      </trkpt>
      <trkpt lat="46.23632" lon="-1.55616">
        <ele>1.57792</ele>
        <time>2023-05-31T13:41:43.000Z</time>
      </trkpt>
      <trkpt lat="46.23629" lon="-1.55612">
        <ele>1.54517</ele>
        <time>2023-05-31T13:41:44.000Z</time>
      </trkpt>
      <trkpt lat="46.23626" lon="-1.55609">
        <ele>1.53051</ele>
        <time>2023-05-31T13:41:45.000Z</time>
      </trkpt>
      <trkpt lat="46.23622" lon="-1.55606">
        <ele>1.51901</ele>
        <time>2023-05-31T13:41:46.000Z</time>
      </trkpt>
      <trkpt lat="46.23619" lon="-1.55602">
        <ele>1.50218</ele>
        <time>2023-05-31T13:41:47.000Z</time>
      </trkpt>
      <trkpt lat="46.23616" lon="-1.55599">
        <ele>1.47983</ele>
        <time>2023-05-31T13:41:48.000Z</time>
      </trkpt>
      <trkpt lat="46.23612" lon="-1.55595">
        <ele>1.45072</ele>
        <time>2023-05-31T13:41:49.000Z</time>
      </trkpt>
      <trkpt lat="46.23609" lon="-1.55591">
        <ele>1.44321</ele>
        <time>2023-05-31T13:41:50.000Z</time>
      </trkpt>
      <trkpt lat="46.23606" lon="-1.55587">
        <ele>1.45125</ele>
        <time>2023-05-31T13:41:51.000Z</time>
      </trkpt>
      <trkpt lat="46.23603" lon="-1.55583">
        <ele>1.46579</ele>
        <time>2023-05-31T13:41:52.000Z</time>
      </trkpt>
      <trkpt lat="46.23599" lon="-1.5558">
        <ele>1.48829</ele>
        <time>2023-05-31T13:41:53.000Z</time>
      </trkpt>
      <trkpt lat="46.23596" lon="-1.55576">
        <ele>1.52011</ele>
        <time>2023-05-31T13:41:54.000Z</time>
      </trkpt>
      <trkpt lat="46.23592" lon="-1.55572">
        <ele>1.56432</ele>
        <time>2023-05-31T13:41:55.000Z</time>
      </trkpt>
      <trkpt lat="46.23589" lon="-1.55568">
        <ele>1.59721</ele>
        <time>2023-05-31T13:41:56.000Z</time>
      </trkpt>
      <trkpt lat="46.23586" lon="-1.55564">
        <ele>1.63677</ele>
        <time>2023-05-31T13:41:57.000Z</time>
      </trkpt>
      <trkpt lat="46.23582" lon="-1.55561">
        <ele>1.67995</ele>
        <time>2023-05-31T13:41:58.000Z</time>
      </trkpt>
      <trkpt lat="46.23579" lon="-1.55557">
        <ele>1.69587</ele>
        <time>2023-05-31T13:41:59.000Z</time>
      </trkpt>
      <trkpt lat="46.23575" lon="-1.55553">
        <ele>1.72805</ele>
        <time>2023-05-31T13:42:00.000Z</time>
      </trkpt>
      <trkpt lat="46.23572" lon="-1.55549">
        <ele>1.73535</ele>
        <time>2023-05-31T13:42:01.000Z</time>
      </trkpt>
      <trkpt lat="46.23569" lon="-1.55545">
        <ele>1.74967</ele>
        <time>2023-05-31T13:42:02.000Z</time>
      </trkpt>
      <trkpt lat="46.23565" lon="-1.55541">
        <ele>1.75377</ele>
        <time>2023-05-31T13:42:03.000Z</time>
      </trkpt>
      <trkpt lat="46.23562" lon="-1.55537">
        <ele>1.76255</ele>
        <time>2023-05-31T13:42:04.000Z</time>
      </trkpt>
      <trkpt lat="46.23558" lon="-1.55534">
        <ele>1.84057</ele>
        <time>2023-05-31T13:42:05.000Z</time>
      </trkpt>
      <trkpt lat="46.23555" lon="-1.5553">
        <ele>1.90238</ele>
        <time>2023-05-31T13:42:06.000Z</time>
      </trkpt>
      <trkpt lat="46.23552" lon="-1.55526">
        <ele>1.96231</ele>
        <time>2023-05-31T13:42:07.000Z</time>
      </trkpt>
      <trkpt lat="46.23549" lon="-1.55523">
        <ele>2.02532</ele>
        <time>2023-05-31T13:42:08.000Z</time>
      </trkpt>
      <trkpt lat="46.23545" lon="-1.55519">
        <ele>2.09327</ele>
        <time>2023-05-31T13:42:09.000Z</time>
      </trkpt>
      <trkpt lat="46.23542" lon="-1.55515">
        <ele>2.17498</ele>
        <time>2023-05-31T13:42:10.000Z</time>
      </trkpt>
      <trkpt lat="46.23539" lon="-1.55512">
        <ele>2.25434</ele>
        <time>2023-05-31T13:42:11.000Z</time>
      </trkpt>
      <trkpt lat="46.23536" lon="-1.55508">
        <ele>2.33274</ele>
        <time>2023-05-31T13:42:12.000Z</time>
      </trkpt>
      <trkpt lat="46.23533" lon="-1.55505">
        <ele>2.37621</ele>
        <time>2023-05-31T13:42:13.000Z</time>
      </trkpt>
      <trkpt lat="46.2353" lon="-1.55502">
        <ele>2.38426</ele>
        <time>2023-05-31T13:42:14.000Z</time>
      </trkpt>
      <trkpt lat="46.23526" lon="-1.55498">
        <ele>2.37862</ele>
        <time>2023-05-31T13:42:15.000Z</time>
      </trkpt>
      <trkpt lat="46.23523" lon="-1.55495">
        <ele>2.37799</ele>
        <time>2023-05-31T13:42:16.000Z</time>
      </trkpt>
      <trkpt lat="46.2352" lon="-1.55491">
        <ele>2.36228</ele>
        <time>2023-05-31T13:42:17.000Z</time>
      </trkpt>
      <trkpt lat="46.23517" lon="-1.55487">
        <ele>2.32104</ele>
        <time>2023-05-31T13:42:18.000Z</time>
      </trkpt>
      <trkpt lat="46.23514" lon="-1.55483">
        <ele>2.32121</ele>
        <time>2023-05-31T13:42:19.000Z</time>
      </trkpt>
      <trkpt lat="46.23511" lon="-1.55478">
        <ele>2.32536</ele>
        <time>2023-05-31T13:42:20.000Z</time>
      </trkpt>
      <trkpt lat="46.23508" lon="-1.55474">
        <ele>2.34144</ele>
        <time>2023-05-31T13:42:21.000Z</time>
      </trkpt>
      <trkpt lat="46.23505" lon="-1.5547">
        <ele>2.3737</ele>
        <time>2023-05-31T13:42:22.000Z</time>
      </trkpt>
      <trkpt lat="46.23502" lon="-1.55465">
        <ele>2.40071</ele>
        <time>2023-05-31T13:42:23.000Z</time>
      </trkpt>
      <trkpt lat="46.23498" lon="-1.55461">
        <ele>2.39981</ele>
        <time>2023-05-31T13:42:24.000Z</time>
      </trkpt>
      <trkpt lat="46.23495" lon="-1.55457">
        <ele>2.39016</ele>
        <time>2023-05-31T13:42:25.000Z</time>
      </trkpt>
      <trkpt lat="46.23492" lon="-1.55453">
        <ele>2.3796</ele>
        <time>2023-05-31T13:42:26.000Z</time>
      </trkpt>
      <trkpt lat="46.23489" lon="-1.55448">
        <ele>2.378</ele>
        <time>2023-05-31T13:42:27.000Z</time>
      </trkpt>
      <trkpt lat="46.23486" lon="-1.55443">
        <ele>2.40554</ele>
        <time>2023-05-31T13:42:28.000Z</time>
      </trkpt>
      <trkpt lat="46.23483" lon="-1.55439">
        <ele>2.42538</ele>
        <time>2023-05-31T13:42:29.000Z</time>
      </trkpt>
      <trkpt lat="46.23479" lon="-1.55435">
        <ele>2.40872</ele>
        <time>2023-05-31T13:42:30.000Z</time>
      </trkpt>
      <trkpt lat="46.23476" lon="-1.5543">
        <ele>2.35428</ele>
        <time>2023-05-31T13:42:31.000Z</time>
      </trkpt>
      <trkpt lat="46.23473" lon="-1.55426">
        <ele>2.2978</ele>
        <time>2023-05-31T13:42:32.000Z</time>
      </trkpt>
      <trkpt lat="46.2347" lon="-1.55422">
        <ele>2.28321</ele>
        <time>2023-05-31T13:42:33.000Z</time>
      </trkpt>
      <trkpt lat="46.23467" lon="-1.55418">
        <ele>2.28265</ele>
        <time>2023-05-31T13:42:34.000Z</time>
      </trkpt>
      <trkpt lat="46.23464" lon="-1.55414">
        <ele>2.27772</ele>
        <time>2023-05-31T13:42:35.000Z</time>
      </trkpt>
      <trkpt lat="46.23461" lon="-1.5541">
        <ele>2.27718</ele>
        <time>2023-05-31T13:42:36.000Z</time>
      </trkpt>
      <trkpt lat="46.23459" lon="-1.55405">
        <ele>2.28941</ele>
        <time>2023-05-31T13:42:37.000Z</time>
      </trkpt>
      <trkpt lat="46.23455" lon="-1.554">
        <ele>2.31299</ele>
        <time>2023-05-31T13:42:38.000Z</time>
      </trkpt>
      <trkpt lat="46.23452" lon="-1.55396">
        <ele>2.32891</ele>
        <time>2023-05-31T13:42:39.000Z</time>
      </trkpt>
      <trkpt lat="46.23449" lon="-1.55392">
        <ele>2.32964</ele>
        <time>2023-05-31T13:42:40.000Z</time>
      </trkpt>
      <trkpt lat="46.23446" lon="-1.55388">
        <ele>2.33664</ele>
        <time>2023-05-31T13:42:41.000Z</time>
      </trkpt>
      <trkpt lat="46.23443" lon="-1.55383">
        <ele>2.32847</ele>
        <time>2023-05-31T13:42:42.000Z</time>
      </trkpt>
      <trkpt lat="46.2344" lon="-1.55379">
        <ele>2.34581</ele>
        <time>2023-05-31T13:42:43.000Z</time>
      </trkpt>
      <trkpt lat="46.23437" lon="-1.55375">
        <ele>2.36335</ele>
        <time>2023-05-31T13:42:44.000Z</time>
      </trkpt>
      <trkpt lat="46.23434" lon="-1.55372">
        <ele>2.35848</ele>
        <time>2023-05-31T13:42:45.000Z</time>
      </trkpt>
      <trkpt lat="46.23431" lon="-1.55368">
        <ele>2.35433</ele>
        <time>2023-05-31T13:42:46.000Z</time>
      </trkpt>
      <trkpt lat="46.23428" lon="-1.55364">
        <ele>2.34213</ele>
        <time>2023-05-31T13:42:47.000Z</time>
      </trkpt>
      <trkpt lat="46.23425" lon="-1.5536">
        <ele>2.3003</ele>
        <time>2023-05-31T13:42:48.000Z</time>
      </trkpt>
      <trkpt lat="46.23423" lon="-1.55356">
        <ele>2.2606</ele>
        <time>2023-05-31T13:42:49.000Z</time>
      </trkpt>
      <trkpt lat="46.2342" lon="-1.55351">
        <ele>2.26718</ele>
        <time>2023-05-31T13:42:50.000Z</time>
      </trkpt>
      <trkpt lat="46.23417" lon="-1.55347">
        <ele>2.29901</ele>
        <time>2023-05-31T13:42:51.000Z</time>
      </trkpt>
      <trkpt lat="46.23414" lon="-1.55343">
        <ele>2.34535</ele>
        <time>2023-05-31T13:42:52.000Z</time>
      </trkpt>
      <trkpt lat="46.23411" lon="-1.55339">
        <ele>2.37413</ele>
        <time>2023-05-31T13:42:53.000Z</time>
      </trkpt>
      <trkpt lat="46.23408" lon="-1.55335">
        <ele>2.40138</ele>
        <time>2023-05-31T13:42:54.000Z</time>
      </trkpt>
      <trkpt lat="46.23405" lon="-1.55331">
        <ele>2.39859</ele>
        <time>2023-05-31T13:42:55.000Z</time>
      </trkpt>
      <trkpt lat="46.23402" lon="-1.55326">
        <ele>2.41528</ele>
        <time>2023-05-31T13:42:56.000Z</time>
      </trkpt>
      <trkpt lat="46.23399" lon="-1.55322">
        <ele>2.44012</ele>
        <time>2023-05-31T13:42:57.000Z</time>
      </trkpt>
      <trkpt lat="46.23396" lon="-1.55318">
        <ele>2.48682</ele>
        <time>2023-05-31T13:42:58.000Z</time>
      </trkpt>
      <trkpt lat="46.23393" lon="-1.55314">
        <ele>2.54467</ele>
        <time>2023-05-31T13:42:59.000Z</time>
      </trkpt>
      <trkpt lat="46.2339" lon="-1.55309">
        <ele>2.60527</ele>
        <time>2023-05-31T13:43:00.000Z</time>
      </trkpt>
      <trkpt lat="46.23387" lon="-1.55305">
        <ele>2.67137</ele>
        <time>2023-05-31T13:43:01.000Z</time>
      </trkpt>
      <trkpt lat="46.23384" lon="-1.553">
        <ele>2.73752</ele>
        <time>2023-05-31T13:43:02.000Z</time>
      </trkpt>
      <trkpt lat="46.23381" lon="-1.55296">
        <ele>2.77842</ele>
        <time>2023-05-31T13:43:03.000Z</time>
      </trkpt>
      <trkpt lat="46.23378" lon="-1.55292">
        <ele>2.82423</ele>
        <time>2023-05-31T13:43:04.000Z</time>
      </trkpt>
      <trkpt lat="46.23375" lon="-1.55288">
        <ele>2.87873</ele>
        <time>2023-05-31T13:43:05.000Z</time>
      </trkpt>
      <trkpt lat="46.23372" lon="-1.55283">
        <ele>2.9511</ele>
        <time>2023-05-31T13:43:06.000Z</time>
      </trkpt>
      <trkpt lat="46.23369" lon="-1.55279">
        <ele>3.04255</ele>
        <time>2023-05-31T13:43:07.000Z</time>
      </trkpt>
      <trkpt lat="46.23366" lon="-1.55275">
        <ele>3.14848</ele>
        <time>2023-05-31T13:43:08.000Z</time>
      </trkpt>
      <trkpt lat="46.23363" lon="-1.5527">
        <ele>3.23656</ele>
        <time>2023-05-31T13:43:09.000Z</time>
      </trkpt>
      <trkpt lat="46.2336" lon="-1.55265">
        <ele>3.27897</ele>
        <time>2023-05-31T13:43:10.000Z</time>
      </trkpt>
      <trkpt lat="46.23357" lon="-1.55261">
        <ele>3.34504</ele>
        <time>2023-05-31T13:43:11.000Z</time>
      </trkpt>
      <trkpt lat="46.23353" lon="-1.55258">
        <ele>3.37931</ele>
        <time>2023-05-31T13:43:12.000Z</time>
      </trkpt>
      <trkpt lat="46.2335" lon="-1.55253">
        <ele>3.40089</ele>
        <time>2023-05-31T13:43:13.000Z</time>
      </trkpt>
      <trkpt lat="46.23347" lon="-1.55249">
        <ele>3.41572</ele>
        <time>2023-05-31T13:43:14.000Z</time>
      </trkpt>
      <trkpt lat="46.23344" lon="-1.55244">
        <ele>3.46888</ele>
        <time>2023-05-31T13:43:15.000Z</time>
      </trkpt>
      <trkpt lat="46.23341" lon="-1.55239">
        <ele>3.51458</ele>
        <time>2023-05-31T13:43:16.000Z</time>
      </trkpt>
      <trkpt lat="46.23338" lon="-1.55235">
        <ele>3.54949</ele>
        <time>2023-05-31T13:43:17.000Z</time>
      </trkpt>
      <trkpt lat="46.23335" lon="-1.55231">
        <ele>3.57643</ele>
        <time>2023-05-31T13:43:18.000Z</time>
      </trkpt>
      <trkpt lat="46.23332" lon="-1.55226">
        <ele>3.60442</ele>
        <time>2023-05-31T13:43:19.000Z</time>
      </trkpt>
      <trkpt lat="46.23329" lon="-1.55222">
        <ele>3.63905</ele>
        <time>2023-05-31T13:43:20.000Z</time>
      </trkpt>
      <trkpt lat="46.23325" lon="-1.55218">
        <ele>3.64836</ele>
        <time>2023-05-31T13:43:21.000Z</time>
      </trkpt>
      <trkpt lat="46.23322" lon="-1.55213">
        <ele>3.65655</ele>
        <time>2023-05-31T13:43:22.000Z</time>
      </trkpt>
      <trkpt lat="46.23319" lon="-1.55208">
        <ele>3.6342</ele>
        <time>2023-05-31T13:43:23.000Z</time>
      </trkpt>
      <trkpt lat="46.23316" lon="-1.55203">
        <ele>3.62514</ele>
        <time>2023-05-31T13:43:24.000Z</time>
      </trkpt>
      <trkpt lat="46.23312" lon="-1.55199">
        <ele>3.61248</ele>
        <time>2023-05-31T13:43:25.000Z</time>
      </trkpt>
      <trkpt lat="46.23309" lon="-1.55195">
        <ele>3.589</ele>
        <time>2023-05-31T13:43:26.000Z</time>
      </trkpt>
      <trkpt lat="46.23306" lon="-1.5519">
        <ele>3.55327</ele>
        <time>2023-05-31T13:43:27.000Z</time>
      </trkpt>
      <trkpt lat="46.23303" lon="-1.55185">
        <ele>3.51675</ele>
        <time>2023-05-31T13:43:28.000Z</time>
      </trkpt>
      <trkpt lat="46.23299" lon="-1.55181">
        <ele>3.49108</ele>
        <time>2023-05-31T13:43:29.000Z</time>
      </trkpt>
      <trkpt lat="46.23296" lon="-1.55177">
        <ele>3.47407</ele>
        <time>2023-05-31T13:43:30.000Z</time>
      </trkpt>
      <trkpt lat="46.23293" lon="-1.55172">
        <ele>3.44562</ele>
        <time>2023-05-31T13:43:31.000Z</time>
      </trkpt>
      <trkpt lat="46.23289" lon="-1.55167">
        <ele>3.42587</ele>
        <time>2023-05-31T13:43:32.000Z</time>
      </trkpt>
      <trkpt lat="46.23286" lon="-1.55164">
        <ele>3.42485</ele>
        <time>2023-05-31T13:43:33.000Z</time>
      </trkpt>
      <trkpt lat="46.23283" lon="-1.55159">
        <ele>3.41149</ele>
        <time>2023-05-31T13:43:34.000Z</time>
      </trkpt>
      <trkpt lat="46.2328" lon="-1.55154">
        <ele>3.38295</ele>
        <time>2023-05-31T13:43:35.000Z</time>
      </trkpt>
      <trkpt lat="46.23276" lon="-1.55149">
        <ele>3.34585</ele>
        <time>2023-05-31T13:43:36.000Z</time>
      </trkpt>
      <trkpt lat="46.23273" lon="-1.55144">
        <ele>3.30665</ele>
        <time>2023-05-31T13:43:37.000Z</time>
      </trkpt>
      <trkpt lat="46.2327" lon="-1.5514">
        <ele>3.26662</ele>
        <time>2023-05-31T13:43:38.000Z</time>
      </trkpt>
      <trkpt lat="46.23266" lon="-1.55135">
        <ele>3.22312</ele>
        <time>2023-05-31T13:43:39.000Z</time>
      </trkpt>
      <trkpt lat="46.23263" lon="-1.5513">
        <ele>3.18566</ele>
        <time>2023-05-31T13:43:40.000Z</time>
      </trkpt>
      <trkpt lat="46.2326" lon="-1.55125">
        <ele>3.1584</ele>
        <time>2023-05-31T13:43:41.000Z</time>
      </trkpt>
      <trkpt lat="46.23256" lon="-1.55122">
        <ele>3.11974</ele>
        <time>2023-05-31T13:43:42.000Z</time>
      </trkpt>
      <trkpt lat="46.23253" lon="-1.55117">
        <ele>3.12677</ele>
        <time>2023-05-31T13:43:43.000Z</time>
      </trkpt>
      <trkpt lat="46.2325" lon="-1.55113">
        <ele>3.12053</ele>
        <time>2023-05-31T13:43:44.000Z</time>
      </trkpt>
      <trkpt lat="46.23246" lon="-1.55108">
        <ele>3.11507</ele>
        <time>2023-05-31T13:43:45.000Z</time>
      </trkpt>
      <trkpt lat="46.23242" lon="-1.55104">
        <ele>3.10812</ele>
        <time>2023-05-31T13:43:46.000Z</time>
      </trkpt>
      <trkpt lat="46.23239" lon="-1.55099">
        <ele>3.0983</ele>
        <time>2023-05-31T13:43:47.000Z</time>
      </trkpt>
      <trkpt lat="46.23235" lon="-1.55094">
        <ele>3.0806</ele>
        <time>2023-05-31T13:43:48.000Z</time>
      </trkpt>
      <trkpt lat="46.23232" lon="-1.55088">
        <ele>3.06791</ele>
        <time>2023-05-31T13:43:49.000Z</time>
      </trkpt>
      <trkpt lat="46.23229" lon="-1.55084">
        <ele>3.04075</ele>
        <time>2023-05-31T13:43:50.000Z</time>
      </trkpt>
      <trkpt lat="46.23226" lon="-1.55079">
        <ele>3.02186</ele>
        <time>2023-05-31T13:43:51.000Z</time>
      </trkpt>
      <trkpt lat="46.23222" lon="-1.55074">
        <ele>3.01244</ele>
        <time>2023-05-31T13:43:52.000Z</time>
      </trkpt>
      <trkpt lat="46.23219" lon="-1.55069">
        <ele>3.00349</ele>
        <time>2023-05-31T13:43:53.000Z</time>
      </trkpt>
      <trkpt lat="46.23216" lon="-1.55064">
        <ele>2.99473</ele>
        <time>2023-05-31T13:43:54.000Z</time>
      </trkpt>
      <trkpt lat="46.23212" lon="-1.55059">
        <ele>3.00177</ele>
        <time>2023-05-31T13:43:55.000Z</time>
      </trkpt>
      <trkpt lat="46.23208" lon="-1.55055">
        <ele>3.00441</ele>
        <time>2023-05-31T13:43:56.000Z</time>
      </trkpt>
      <trkpt lat="46.23204" lon="-1.5505">
        <ele>3.00062</ele>
        <time>2023-05-31T13:43:57.000Z</time>
      </trkpt>
      <trkpt lat="46.23201" lon="-1.55046">
        <ele>2.98679</ele>
        <time>2023-05-31T13:43:58.000Z</time>
      </trkpt>
      <trkpt lat="46.23197" lon="-1.55041">
        <ele>2.97252</ele>
        <time>2023-05-31T13:43:59.000Z</time>
      </trkpt>
      <trkpt lat="46.23194" lon="-1.55036">
        <ele>2.95542</ele>
        <time>2023-05-31T13:44:00.000Z</time>
      </trkpt>
      <trkpt lat="46.23191" lon="-1.55032">
        <ele>2.95428</ele>
        <time>2023-05-31T13:44:01.000Z</time>
      </trkpt>
      <trkpt lat="46.23188" lon="-1.55027">
        <ele>2.96887</ele>
        <time>2023-05-31T13:44:02.000Z</time>
      </trkpt>
      <trkpt lat="46.23184" lon="-1.55022">
        <ele>2.97172</ele>
        <time>2023-05-31T13:44:03.000Z</time>
      </trkpt>
      <trkpt lat="46.23181" lon="-1.55018">
        <ele>2.98387</ele>
        <time>2023-05-31T13:44:04.000Z</time>
      </trkpt>
      <trkpt lat="46.23178" lon="-1.55013">
        <ele>3.01263</ele>
        <time>2023-05-31T13:44:05.000Z</time>
      </trkpt>
      <trkpt lat="46.23174" lon="-1.55009">
        <ele>3.05146</ele>
        <time>2023-05-31T13:44:06.000Z</time>
      </trkpt>
      <trkpt lat="46.23171" lon="-1.55004">
        <ele>3.10368</ele>
        <time>2023-05-31T13:44:07.000Z</time>
      </trkpt>
      <trkpt lat="46.23168" lon="-1.54999">
        <ele>3.12704</ele>
        <time>2023-05-31T13:44:08.000Z</time>
      </trkpt>
      <trkpt lat="46.23165" lon="-1.54995">
        <ele>3.13872</ele>
        <time>2023-05-31T13:44:09.000Z</time>
      </trkpt>
      <trkpt lat="46.23162" lon="-1.54991">
        <ele>3.15353</ele>
        <time>2023-05-31T13:44:10.000Z</time>
      </trkpt>
      <trkpt lat="46.23159" lon="-1.54986">
        <ele>3.15392</ele>
        <time>2023-05-31T13:44:11.000Z</time>
      </trkpt>
      <trkpt lat="46.23156" lon="-1.54982">
        <ele>3.14457</ele>
        <time>2023-05-31T13:44:12.000Z</time>
      </trkpt>
      <trkpt lat="46.23153" lon="-1.54977">
        <ele>3.12791</ele>
        <time>2023-05-31T13:44:13.000Z</time>
      </trkpt>
      <trkpt lat="46.23151" lon="-1.54974">
        <ele>3.11659</ele>
        <time>2023-05-31T13:44:14.000Z</time>
      </trkpt>
      <trkpt lat="46.23148" lon="-1.54972">
        <ele>3.11041</ele>
        <time>2023-05-31T13:44:15.000Z</time>
      </trkpt>
      <trkpt lat="46.23145" lon="-1.54968">
        <ele>3.12377</ele>
        <time>2023-05-31T13:44:16.000Z</time>
      </trkpt>
      <trkpt lat="46.23143" lon="-1.54965">
        <ele>3.14135</ele>
        <time>2023-05-31T13:44:17.000Z</time>
      </trkpt>
      <trkpt lat="46.2314" lon="-1.54961">
        <ele>3.1788</ele>
        <time>2023-05-31T13:44:18.000Z</time>
      </trkpt>
      <trkpt lat="46.23137" lon="-1.54957">
        <ele>3.20696</ele>
        <time>2023-05-31T13:44:19.000Z</time>
      </trkpt>
      <trkpt lat="46.23135" lon="-1.54953">
        <ele>3.22351</ele>
        <time>2023-05-31T13:44:20.000Z</time>
      </trkpt>
      <trkpt lat="46.23132" lon="-1.54949">
        <ele>3.19418</ele>
        <time>2023-05-31T13:44:21.000Z</time>
      </trkpt>
      <trkpt lat="46.23129" lon="-1.54945">
        <ele>3.15736</ele>
        <time>2023-05-31T13:44:22.000Z</time>
      </trkpt>
      <trkpt lat="46.23126" lon="-1.54941">
        <ele>3.11783</ele>
        <time>2023-05-31T13:44:23.000Z</time>
      </trkpt>
      <trkpt lat="46.23123" lon="-1.54937">
        <ele>3.06875</ele>
        <time>2023-05-31T13:44:24.000Z</time>
      </trkpt>
      <trkpt lat="46.2312" lon="-1.54933">
        <ele>3.01794</ele>
        <time>2023-05-31T13:44:25.000Z</time>
      </trkpt>
      <trkpt lat="46.23117" lon="-1.54929">
        <ele>2.97123</ele>
        <time>2023-05-31T13:44:26.000Z</time>
      </trkpt>
      <trkpt lat="46.23114" lon="-1.54925">
        <ele>2.91333</ele>
        <time>2023-05-31T13:44:27.000Z</time>
      </trkpt>
      <trkpt lat="46.23111" lon="-1.54921">
        <ele>2.87544</ele>
        <time>2023-05-31T13:44:28.000Z</time>
      </trkpt>
      <trkpt lat="46.23108" lon="-1.54917">
        <ele>2.84562</ele>
        <time>2023-05-31T13:44:29.000Z</time>
      </trkpt>
      <trkpt lat="46.23105" lon="-1.54912">
        <ele>2.82883</ele>
        <time>2023-05-31T13:44:30.000Z</time>
      </trkpt>
      <trkpt lat="46.23101" lon="-1.54908">
        <ele>2.80355</ele>
        <time>2023-05-31T13:44:31.000Z</time>
      </trkpt>
      <trkpt lat="46.23098" lon="-1.54904">
        <ele>2.75554</ele>
        <time>2023-05-31T13:44:32.000Z</time>
      </trkpt>
      <trkpt lat="46.23095" lon="-1.54899">
        <ele>2.71618</ele>
        <time>2023-05-31T13:44:33.000Z</time>
      </trkpt>
      <trkpt lat="46.23092" lon="-1.54895">
        <ele>2.697</ele>
        <time>2023-05-31T13:44:34.000Z</time>
      </trkpt>
      <trkpt lat="46.23089" lon="-1.54891">
        <ele>2.67739</ele>
        <time>2023-05-31T13:44:35.000Z</time>
      </trkpt>
      <trkpt lat="46.23086" lon="-1.54886">
        <ele>2.66746</ele>
        <time>2023-05-31T13:44:36.000Z</time>
      </trkpt>
      <trkpt lat="46.23083" lon="-1.54881">
        <ele>2.65907</ele>
        <time>2023-05-31T13:44:37.000Z</time>
      </trkpt>
      <trkpt lat="46.2308" lon="-1.54877">
        <ele>2.64507</ele>
        <time>2023-05-31T13:44:38.000Z</time>
      </trkpt>
      <trkpt lat="46.23077" lon="-1.54872">
        <ele>2.60065</ele>
        <time>2023-05-31T13:44:39.000Z</time>
      </trkpt>
      <trkpt lat="46.23073" lon="-1.54868">
        <ele>2.56857</ele>
        <time>2023-05-31T13:44:40.000Z</time>
      </trkpt>
      <trkpt lat="46.2307" lon="-1.54863">
        <ele>2.56586</ele>
        <time>2023-05-31T13:44:41.000Z</time>
      </trkpt>
      <trkpt lat="46.23067" lon="-1.54859">
        <ele>2.56585</ele>
        <time>2023-05-31T13:44:42.000Z</time>
      </trkpt>
      <trkpt lat="46.23064" lon="-1.54854">
        <ele>2.57525</ele>
        <time>2023-05-31T13:44:43.000Z</time>
      </trkpt>
      <trkpt lat="46.23061" lon="-1.54849">
        <ele>2.59949</ele>
        <time>2023-05-31T13:44:44.000Z</time>
      </trkpt>
      <trkpt lat="46.23057" lon="-1.54845">
        <ele>2.60942</ele>
        <time>2023-05-31T13:44:45.000Z</time>
      </trkpt>
      <trkpt lat="46.23054" lon="-1.54841">
        <ele>2.60614</ele>
        <time>2023-05-31T13:44:46.000Z</time>
      </trkpt>
      <trkpt lat="46.23051" lon="-1.54836">
        <ele>2.60195</ele>
        <time>2023-05-31T13:44:47.000Z</time>
      </trkpt>
      <trkpt lat="46.23048" lon="-1.54831">
        <ele>2.60515</ele>
        <time>2023-05-31T13:44:48.000Z</time>
      </trkpt>
      <trkpt lat="46.23044" lon="-1.54827">
        <ele>2.62103</ele>
        <time>2023-05-31T13:44:49.000Z</time>
      </trkpt>
      <trkpt lat="46.23041" lon="-1.54823">
        <ele>2.65242</ele>
        <time>2023-05-31T13:44:50.000Z</time>
      </trkpt>
      <trkpt lat="46.23038" lon="-1.54819">
        <ele>2.70152</ele>
        <time>2023-05-31T13:44:51.000Z</time>
      </trkpt>
      <trkpt lat="46.23035" lon="-1.54814">
        <ele>2.79278</ele>
        <time>2023-05-31T13:44:52.000Z</time>
      </trkpt>
      <trkpt lat="46.23032" lon="-1.5481">
        <ele>2.87681</ele>
        <time>2023-05-31T13:44:53.000Z</time>
      </trkpt>
      <trkpt lat="46.23029" lon="-1.54806">
        <ele>2.90799</ele>
        <time>2023-05-31T13:44:54.000Z</time>
      </trkpt>
      <trkpt lat="46.23026" lon="-1.54801">
        <ele>2.93861</ele>
        <time>2023-05-31T13:44:55.000Z</time>
      </trkpt>
      <trkpt lat="46.23023" lon="-1.54798">
        <ele>2.94684</ele>
        <time>2023-05-31T13:44:56.000Z</time>
      </trkpt>
      <trkpt lat="46.2302" lon="-1.54793">
        <ele>2.95437</ele>
        <time>2023-05-31T13:44:57.000Z</time>
      </trkpt>
      <trkpt lat="46.23017" lon="-1.54788">
        <ele>2.96529</ele>
        <time>2023-05-31T13:44:58.000Z</time>
      </trkpt>
      <trkpt lat="46.23013" lon="-1.54785">
        <ele>2.98186</ele>
        <time>2023-05-31T13:44:59.000Z</time>
      </trkpt>
      <trkpt lat="46.2301" lon="-1.5478">
        <ele>2.99817</ele>
        <time>2023-05-31T13:45:00.000Z</time>
      </trkpt>
      <trkpt lat="46.23007" lon="-1.54776">
        <ele>3.03299</ele>
        <time>2023-05-31T13:45:01.000Z</time>
      </trkpt>
      <trkpt lat="46.23003" lon="-1.54771">
        <ele>3.07005</ele>
        <time>2023-05-31T13:45:02.000Z</time>
      </trkpt>
      <trkpt lat="46.23" lon="-1.54766">
        <ele>3.11061</ele>
        <time>2023-05-31T13:45:03.000Z</time>
      </trkpt>
      <trkpt lat="46.22997" lon="-1.54761">
        <ele>3.16703</ele>
        <time>2023-05-31T13:45:04.000Z</time>
      </trkpt>
      <trkpt lat="46.22993" lon="-1.54757">
        <ele>3.22566</ele>
        <time>2023-05-31T13:45:05.000Z</time>
      </trkpt>
      <trkpt lat="46.2299" lon="-1.54752">
        <ele>3.25364</ele>
        <time>2023-05-31T13:45:06.000Z</time>
      </trkpt>
      <trkpt lat="46.22987" lon="-1.54747">
        <ele>3.27337</ele>
        <time>2023-05-31T13:45:07.000Z</time>
      </trkpt>
      <trkpt lat="46.22984" lon="-1.54743">
        <ele>3.29538</ele>
        <time>2023-05-31T13:45:08.000Z</time>
      </trkpt>
      <trkpt lat="46.2298" lon="-1.54738">
        <ele>3.29869</ele>
        <time>2023-05-31T13:45:09.000Z</time>
      </trkpt>
      <trkpt lat="46.22977" lon="-1.54733">
        <ele>3.27514</ele>
        <time>2023-05-31T13:45:10.000Z</time>
      </trkpt>
      <trkpt lat="46.22974" lon="-1.54729">
        <ele>3.24126</ele>
        <time>2023-05-31T13:45:11.000Z</time>
      </trkpt>
      <trkpt lat="46.2297" lon="-1.54725">
        <ele>3.18744</ele>
        <time>2023-05-31T13:45:12.000Z</time>
      </trkpt>
      <trkpt lat="46.22967" lon="-1.54721">
        <ele>3.13421</ele>
        <time>2023-05-31T13:45:13.000Z</time>
      </trkpt>
      <trkpt lat="46.22964" lon="-1.54715">
        <ele>3.11748</ele>
        <time>2023-05-31T13:45:14.000Z</time>
      </trkpt>
      <trkpt lat="46.2296" lon="-1.5471">
        <ele>3.09254</ele>
        <time>2023-05-31T13:45:15.000Z</time>
      </trkpt>
      <trkpt lat="46.22957" lon="-1.54706">
        <ele>3.07453</ele>
        <time>2023-05-31T13:45:16.000Z</time>
      </trkpt>
      <trkpt lat="46.22954" lon="-1.54702">
        <ele>3.05589</ele>
        <time>2023-05-31T13:45:17.000Z</time>
      </trkpt>
      <trkpt lat="46.2295" lon="-1.54697">
        <ele>3.02617</ele>
        <time>2023-05-31T13:45:18.000Z</time>
      </trkpt>
      <trkpt lat="46.22947" lon="-1.54693">
        <ele>3.03383</ele>
        <time>2023-05-31T13:45:19.000Z</time>
      </trkpt>
      <trkpt lat="46.22944" lon="-1.54689">
        <ele>3.02401</ele>
        <time>2023-05-31T13:45:20.000Z</time>
      </trkpt>
      <trkpt lat="46.22941" lon="-1.54684">
        <ele>2.99711</ele>
        <time>2023-05-31T13:45:21.000Z</time>
      </trkpt>
      <trkpt lat="46.22938" lon="-1.5468">
        <ele>2.96095</ele>
        <time>2023-05-31T13:45:22.000Z</time>
      </trkpt>
      <trkpt lat="46.22935" lon="-1.54676">
        <ele>2.932</ele>
        <time>2023-05-31T13:45:23.000Z</time>
      </trkpt>
      <trkpt lat="46.22932" lon="-1.54672">
        <ele>2.88336</ele>
        <time>2023-05-31T13:45:24.000Z</time>
      </trkpt>
      <trkpt lat="46.22928" lon="-1.54668">
        <ele>2.83497</ele>
        <time>2023-05-31T13:45:25.000Z</time>
      </trkpt>
      <trkpt lat="46.22926" lon="-1.54663">
        <ele>2.83045</ele>
        <time>2023-05-31T13:45:26.000Z</time>
      </trkpt>
      <trkpt lat="46.22923" lon="-1.54658">
        <ele>2.8427</ele>
        <time>2023-05-31T13:45:27.000Z</time>
      </trkpt>
      <trkpt lat="46.2292" lon="-1.54654">
        <ele>2.84797</ele>
        <time>2023-05-31T13:45:28.000Z</time>
      </trkpt>
      <trkpt lat="46.22917" lon="-1.5465">
        <ele>2.85821</ele>
        <time>2023-05-31T13:45:29.000Z</time>
      </trkpt>
      <trkpt lat="46.22913" lon="-1.54646">
        <ele>2.87125</ele>
        <time>2023-05-31T13:45:30.000Z</time>
      </trkpt>
      <trkpt lat="46.22911" lon="-1.54642">
        <ele>2.8892</ele>
        <time>2023-05-31T13:45:31.000Z</time>
      </trkpt>
      <trkpt lat="46.22908" lon="-1.54638">
        <ele>2.92177</ele>
        <time>2023-05-31T13:45:32.000Z</time>
      </trkpt>
      <trkpt lat="46.22906" lon="-1.54634">
        <ele>2.95431</ele>
        <time>2023-05-31T13:45:33.000Z</time>
      </trkpt>
      <trkpt lat="46.22904" lon="-1.54631">
        <ele>2.99582</ele>
        <time>2023-05-31T13:45:34.000Z</time>
      </trkpt>
      <trkpt lat="46.22901" lon="-1.54628">
        <ele>3.0428</ele>
        <time>2023-05-31T13:45:35.000Z</time>
      </trkpt>
      <trkpt lat="46.22899" lon="-1.54625">
        <ele>3.10954</ele>
        <time>2023-05-31T13:45:36.000Z</time>
      </trkpt>
      <trkpt lat="46.22897" lon="-1.54622">
        <ele>3.19872</ele>
        <time>2023-05-31T13:45:37.000Z</time>
      </trkpt>
      <trkpt lat="46.22894" lon="-1.54618">
        <ele>3.28557</ele>
        <time>2023-05-31T13:45:38.000Z</time>
      </trkpt>
      <trkpt lat="46.22892" lon="-1.54615">
        <ele>3.36156</ele>
        <time>2023-05-31T13:45:39.000Z</time>
      </trkpt>
      <trkpt lat="46.2289" lon="-1.54611">
        <ele>3.43668</ele>
        <time>2023-05-31T13:45:40.000Z</time>
      </trkpt>
      <trkpt lat="46.22888" lon="-1.54608">
        <ele>3.5135</ele>
        <time>2023-05-31T13:45:41.000Z</time>
      </trkpt>
      <trkpt lat="46.22886" lon="-1.54606">
        <ele>3.59913</ele>
        <time>2023-05-31T13:45:42.000Z</time>
      </trkpt>
      <trkpt lat="46.22883" lon="-1.54603">
        <ele>3.67511</ele>
        <time>2023-05-31T13:45:43.000Z</time>
      </trkpt>
      <trkpt lat="46.22882" lon="-1.546">
        <ele>3.74473</ele>
        <time>2023-05-31T13:45:44.000Z</time>
      </trkpt>
      <trkpt lat="46.2288" lon="-1.54597">
        <ele>3.81591</ele>
        <time>2023-05-31T13:45:45.000Z</time>
      </trkpt>
      <trkpt lat="46.22878" lon="-1.54593">
        <ele>3.89281</ele>
        <time>2023-05-31T13:45:46.000Z</time>
      </trkpt>
      <trkpt lat="46.22876" lon="-1.5459">
        <ele>3.96068</ele>
        <time>2023-05-31T13:45:47.000Z</time>
      </trkpt>
      <trkpt lat="46.22874" lon="-1.54588">
        <ele>4.0244</ele>
        <time>2023-05-31T13:45:48.000Z</time>
      </trkpt>
      <trkpt lat="46.22872" lon="-1.54585">
        <ele>4.08694</ele>
        <time>2023-05-31T13:45:49.000Z</time>
      </trkpt>
      <trkpt lat="46.2287" lon="-1.54583">
        <ele>4.15245</ele>
        <time>2023-05-31T13:45:50.000Z</time>
      </trkpt>
      <trkpt lat="46.22868" lon="-1.5458">
        <ele>4.2109</ele>
        <time>2023-05-31T13:45:51.000Z</time>
      </trkpt>
      <trkpt lat="46.22866" lon="-1.54577">
        <ele>4.27392</ele>
        <time>2023-05-31T13:45:52.000Z</time>
      </trkpt>
      <trkpt lat="46.22864" lon="-1.54575">
        <ele>4.3347</ele>
        <time>2023-05-31T13:45:53.000Z</time>
      </trkpt>
      <trkpt lat="46.22862" lon="-1.54572">
        <ele>4.38292</ele>
        <time>2023-05-31T13:45:54.000Z</time>
      </trkpt>
      <trkpt lat="46.2286" lon="-1.54569">
        <ele>4.43795</ele>
        <time>2023-05-31T13:45:55.000Z</time>
      </trkpt>
      <trkpt lat="46.22858" lon="-1.54566">
        <ele>4.4685</ele>
        <time>2023-05-31T13:45:56.000Z</time>
      </trkpt>
      <trkpt lat="46.22856" lon="-1.54564">
        <ele>4.49967</ele>
        <time>2023-05-31T13:45:57.000Z</time>
      </trkpt>
      <trkpt lat="46.22854" lon="-1.54561">
        <ele>4.5347</ele>
        <time>2023-05-31T13:45:58.000Z</time>
      </trkpt>
      <trkpt lat="46.22852" lon="-1.54558">
        <ele>4.55446</ele>
        <time>2023-05-31T13:45:59.000Z</time>
      </trkpt>
      <trkpt lat="46.2285" lon="-1.54556">
        <ele>4.62338</ele>
        <time>2023-05-31T13:46:00.000Z</time>
      </trkpt>
      <trkpt lat="46.22848" lon="-1.54554">
        <ele>4.68405</ele>
        <time>2023-05-31T13:46:01.000Z</time>
      </trkpt>
      <trkpt lat="46.22846" lon="-1.54552">
        <ele>4.75289</ele>
        <time>2023-05-31T13:46:02.000Z</time>
      </trkpt>
      <trkpt lat="46.22844" lon="-1.54549">
        <ele>4.80832</ele>
        <time>2023-05-31T13:46:03.000Z</time>
      </trkpt>
      <trkpt lat="46.22842" lon="-1.54545">
        <ele>4.85397</ele>
        <time>2023-05-31T13:46:04.000Z</time>
      </trkpt>
      <trkpt lat="46.22841" lon="-1.54542">
        <ele>4.90295</ele>
        <time>2023-05-31T13:46:05.000Z</time>
      </trkpt>
      <trkpt lat="46.22839" lon="-1.54538">
        <ele>4.93164</ele>
        <time>2023-05-31T13:46:06.000Z</time>
      </trkpt>
      <trkpt lat="46.22838" lon="-1.54535">
        <ele>4.94621</ele>
        <time>2023-05-31T13:46:07.000Z</time>
      </trkpt>
      <trkpt lat="46.22836" lon="-1.54532">
        <ele>4.9728</ele>
        <time>2023-05-31T13:46:08.000Z</time>
      </trkpt>
      <trkpt lat="46.22834" lon="-1.54529">
        <ele>5.01507</ele>
        <time>2023-05-31T13:46:09.000Z</time>
      </trkpt>
      <trkpt lat="46.22833" lon="-1.54527">
        <ele>5.0522</ele>
        <time>2023-05-31T13:46:10.000Z</time>
      </trkpt>
      <trkpt lat="46.22831" lon="-1.54523">
        <ele>5.06349</ele>
        <time>2023-05-31T13:46:12.000Z</time>
      </trkpt>
      <trkpt lat="46.2283" lon="-1.54519">
        <ele>5.06956</ele>
        <time>2023-05-31T13:46:14.000Z</time>
      </trkpt>
      <trkpt lat="46.22829" lon="-1.54516">
        <ele>5.05761</ele>
        <time>2023-05-31T13:46:15.000Z</time>
      </trkpt>
      <trkpt lat="46.22828" lon="-1.54514">
        <ele>5.05366</ele>
        <time>2023-05-31T13:46:16.000Z</time>
      </trkpt>
      <trkpt lat="46.22826" lon="-1.54512">
        <ele>5.04602</ele>
        <time>2023-05-31T13:46:17.000Z</time>
      </trkpt>
      <trkpt lat="46.22825" lon="-1.54509">
        <ele>5.03938</ele>
        <time>2023-05-31T13:46:18.000Z</time>
      </trkpt>
      <trkpt lat="46.22823" lon="-1.54507">
        <ele>5.01176</ele>
        <time>2023-05-31T13:46:19.000Z</time>
      </trkpt>
      <trkpt lat="46.22822" lon="-1.54504">
        <ele>5.01233</ele>
        <time>2023-05-31T13:46:20.000Z</time>
      </trkpt>
      <trkpt lat="46.2282" lon="-1.54502">
        <ele>5.0358</ele>
        <time>2023-05-31T13:46:21.000Z</time>
      </trkpt>
      <trkpt lat="46.22819" lon="-1.54499">
        <ele>5.0096</ele>
        <time>2023-05-31T13:46:22.000Z</time>
      </trkpt>
      <trkpt lat="46.22817" lon="-1.54496">
        <ele>4.98963</ele>
        <time>2023-05-31T13:46:23.000Z</time>
      </trkpt>
      <trkpt lat="46.22815" lon="-1.54493">
        <ele>4.95184</ele>
        <time>2023-05-31T13:46:24.000Z</time>
      </trkpt>
      <trkpt lat="46.22813" lon="-1.5449">
        <ele>4.94516</ele>
        <time>2023-05-31T13:46:25.000Z</time>
      </trkpt>
      <trkpt lat="46.22812" lon="-1.54488">
        <ele>4.95097</ele>
        <time>2023-05-31T13:46:26.000Z</time>
      </trkpt>
      <trkpt lat="46.2281" lon="-1.54484">
        <ele>4.95264</ele>
        <time>2023-05-31T13:46:28.000Z</time>
      </trkpt>
      <trkpt lat="46.22808" lon="-1.54481">
        <ele>4.97805</ele>
        <time>2023-05-31T13:46:30.000Z</time>
      </trkpt>
      <trkpt lat="46.22804" lon="-1.5448">
        <ele>5.01173</ele>
        <time>2023-05-31T13:46:32.000Z</time>
      </trkpt>
      <trkpt lat="46.22802" lon="-1.54482">
        <ele>5.04181</ele>
        <time>2023-05-31T13:46:33.000Z</time>
      </trkpt>
      <trkpt lat="46.228" lon="-1.54484">
        <ele>5.08825</ele>
        <time>2023-05-31T13:46:34.000Z</time>
      </trkpt>
      <trkpt lat="46.22799" lon="-1.54487">
        <ele>5.15222</ele>
        <time>2023-05-31T13:46:35.000Z</time>
      </trkpt>
      <trkpt lat="46.22797" lon="-1.54489">
        <ele>5.25499</ele>
        <time>2023-05-31T13:46:36.000Z</time>
      </trkpt>
      <trkpt lat="46.22795" lon="-1.54492">
        <ele>5.34409</ele>
        <time>2023-05-31T13:46:37.000Z</time>
      </trkpt>
      <trkpt lat="46.22794" lon="-1.54493">
        <ele>5.45249</ele>
        <time>2023-05-31T13:46:38.000Z</time>
      </trkpt>
      <trkpt lat="46.22792" lon="-1.54493">
        <ele>5.55547</ele>
        <time>2023-05-31T13:46:39.000Z</time>
      </trkpt>
      <trkpt lat="46.22789" lon="-1.54492">
        <ele>5.63641</ele>
        <time>2023-05-31T13:46:40.000Z</time>
      </trkpt>
      <trkpt lat="46.22786" lon="-1.5449">
        <ele>5.67704</ele>
        <time>2023-05-31T13:46:41.000Z</time>
      </trkpt>
      <trkpt lat="46.22783" lon="-1.54488">
        <ele>5.7067</ele>
        <time>2023-05-31T13:46:42.000Z</time>
      </trkpt>
      <trkpt lat="46.22781" lon="-1.54485">
        <ele>5.68043</ele>
        <time>2023-05-31T13:46:43.000Z</time>
      </trkpt>
      <trkpt lat="46.22778" lon="-1.54483">
        <ele>5.66675</ele>
        <time>2023-05-31T13:46:44.000Z</time>
      </trkpt>
      <trkpt lat="46.22776" lon="-1.5448">
        <ele>5.65699</ele>
        <time>2023-05-31T13:46:45.000Z</time>
      </trkpt>
      <trkpt lat="46.22774" lon="-1.54479">
        <ele>5.63831</ele>
        <time>2023-05-31T13:46:46.000Z</time>
      </trkpt>
      <trkpt lat="46.22772" lon="-1.54481">
        <ele>5.62278</ele>
        <time>2023-05-31T13:46:48.000Z</time>
      </trkpt>
      <trkpt lat="46.22772" lon="-1.54484">
        <ele>5.5969</ele>
        <time>2023-05-31T13:46:49.000Z</time>
      </trkpt>
      <trkpt lat="46.22771" lon="-1.54487">
        <ele>5.57868</ele>
        <time>2023-05-31T13:46:50.000Z</time>
      </trkpt>
      <trkpt lat="46.2277" lon="-1.5449">
        <ele>5.56748</ele>
        <time>2023-05-31T13:46:52.000Z</time>
      </trkpt>
      <trkpt lat="46.22768" lon="-1.5449">
        <ele>5.52544</ele>
        <time>2023-05-31T13:46:53.000Z</time>
      </trkpt>
      <trkpt lat="46.22767" lon="-1.54487">
        <ele>5.49167</ele>
        <time>2023-05-31T13:46:54.000Z</time>
      </trkpt>
      <trkpt lat="46.22768" lon="-1.54483">
        <ele>5.45641</ele>
        <time>2023-05-31T13:46:55.000Z</time>
      </trkpt>
      <trkpt lat="46.2277" lon="-1.54479">
        <ele>5.38699</ele>
        <time>2023-05-31T13:46:56.000Z</time>
      </trkpt>
      <trkpt lat="46.22772" lon="-1.54475">
        <ele>5.2975</ele>
        <time>2023-05-31T13:46:57.000Z</time>
      </trkpt>
      <trkpt lat="46.22772" lon="-1.54471">
        <ele>5.19667</ele>
        <time>2023-05-31T13:46:58.000Z</time>
      </trkpt>
      <trkpt lat="46.22771" lon="-1.54467">
        <ele>5.10637</ele>
        <time>2023-05-31T13:46:59.000Z</time>
      </trkpt>
      <trkpt lat="46.2277" lon="-1.54464">
        <ele>5.00397</ele>
        <time>2023-05-31T13:47:00.000Z</time>
      </trkpt>
      <trkpt lat="46.22768" lon="-1.5446">
        <ele>4.90576</ele>
        <time>2023-05-31T13:47:01.000Z</time>
      </trkpt>
      <trkpt lat="46.22766" lon="-1.54457">
        <ele>4.78292</ele>
        <time>2023-05-31T13:47:02.000Z</time>
      </trkpt>
      <trkpt lat="46.22764" lon="-1.54453">
        <ele>4.70167</ele>
        <time>2023-05-31T13:47:03.000Z</time>
      </trkpt>
      <trkpt lat="46.22763" lon="-1.54449">
        <ele>4.61183</ele>
        <time>2023-05-31T13:47:04.000Z</time>
      </trkpt>
      <trkpt lat="46.22763" lon="-1.54445">
        <ele>4.55276</ele>
        <time>2023-05-31T13:47:05.000Z</time>
      </trkpt>
      <trkpt lat="46.22763" lon="-1.5444">
        <ele>4.47998</ele>
        <time>2023-05-31T13:47:06.000Z</time>
      </trkpt>
      <trkpt lat="46.22763" lon="-1.54436">
        <ele>4.41511</ele>
        <time>2023-05-31T13:47:07.000Z</time>
      </trkpt>
      <trkpt lat="46.22763" lon="-1.54431">
        <ele>4.36753</ele>
        <time>2023-05-31T13:47:08.000Z</time>
      </trkpt>
      <trkpt lat="46.22763" lon="-1.54426">
        <ele>4.32327</ele>
        <time>2023-05-31T13:47:09.000Z</time>
      </trkpt>
      <trkpt lat="46.22762" lon="-1.54422">
        <ele>4.26319</ele>
        <time>2023-05-31T13:47:10.000Z</time>
      </trkpt>
      <trkpt lat="46.22762" lon="-1.54417">
        <ele>4.22212</ele>
        <time>2023-05-31T13:47:11.000Z</time>
      </trkpt>
      <trkpt lat="46.22761" lon="-1.54413">
        <ele>4.19193</ele>
        <time>2023-05-31T13:47:12.000Z</time>
      </trkpt>
      <trkpt lat="46.2276" lon="-1.54408">
        <ele>4.17649</ele>
        <time>2023-05-31T13:47:13.000Z</time>
      </trkpt>
      <trkpt lat="46.2276" lon="-1.54403">
        <ele>4.14446</ele>
        <time>2023-05-31T13:47:14.000Z</time>
      </trkpt>
      <trkpt lat="46.22759" lon="-1.54399">
        <ele>4.09426</ele>
        <time>2023-05-31T13:47:15.000Z</time>
      </trkpt>
      <trkpt lat="46.22758" lon="-1.54394">
        <ele>4.05032</ele>
        <time>2023-05-31T13:47:16.000Z</time>
      </trkpt>
      <trkpt lat="46.22757" lon="-1.5439">
        <ele>3.99908</ele>
        <time>2023-05-31T13:47:17.000Z</time>
      </trkpt>
      <trkpt lat="46.22756" lon="-1.54386">
        <ele>3.9415</ele>
        <time>2023-05-31T13:47:18.000Z</time>
      </trkpt>
      <trkpt lat="46.22755" lon="-1.54382">
        <ele>3.85551</ele>
        <time>2023-05-31T13:47:19.000Z</time>
      </trkpt>
      <trkpt lat="46.22754" lon="-1.54378">
        <ele>3.73443</ele>
        <time>2023-05-31T13:47:20.000Z</time>
      </trkpt>
      <trkpt lat="46.22753" lon="-1.54374">
        <ele>3.61923</ele>
        <time>2023-05-31T13:47:21.000Z</time>
      </trkpt>
      <trkpt lat="46.22752" lon="-1.5437">
        <ele>3.5462</ele>
        <time>2023-05-31T13:47:22.000Z</time>
      </trkpt>
      <trkpt lat="46.2275" lon="-1.54366">
        <ele>3.46796</ele>
        <time>2023-05-31T13:47:23.000Z</time>
      </trkpt>
      <trkpt lat="46.22748" lon="-1.54362">
        <ele>3.40302</ele>
        <time>2023-05-31T13:47:24.000Z</time>
      </trkpt>
      <trkpt lat="46.22746" lon="-1.54358">
        <ele>3.33408</ele>
        <time>2023-05-31T13:47:25.000Z</time>
      </trkpt>
      <trkpt lat="46.22744" lon="-1.54354">
        <ele>3.26598</ele>
        <time>2023-05-31T13:47:26.000Z</time>
      </trkpt>
      <trkpt lat="46.22742" lon="-1.5435">
        <ele>3.19462</ele>
        <time>2023-05-31T13:47:27.000Z</time>
      </trkpt>
      <trkpt lat="46.22741" lon="-1.54345">
        <ele>3.14088</ele>
        <time>2023-05-31T13:47:28.000Z</time>
      </trkpt>
      <trkpt lat="46.22739" lon="-1.54341">
        <ele>3.09142</ele>
        <time>2023-05-31T13:47:29.000Z</time>
      </trkpt>
      <trkpt lat="46.22737" lon="-1.54337">
        <ele>3.04742</ele>
        <time>2023-05-31T13:47:30.000Z</time>
      </trkpt>
      <trkpt lat="46.22736" lon="-1.54333">
        <ele>2.97975</ele>
        <time>2023-05-31T13:47:31.000Z</time>
      </trkpt>
      <trkpt lat="46.22734" lon="-1.5433">
        <ele>2.88583</ele>
        <time>2023-05-31T13:47:32.000Z</time>
      </trkpt>
      <trkpt lat="46.22733" lon="-1.54326">
        <ele>2.78482</ele>
        <time>2023-05-31T13:47:33.000Z</time>
      </trkpt>
      <trkpt lat="46.22731" lon="-1.54322">
        <ele>2.69281</ele>
        <time>2023-05-31T13:47:34.000Z</time>
      </trkpt>
      <trkpt lat="46.22729" lon="-1.54318">
        <ele>2.61848</ele>
        <time>2023-05-31T13:47:35.000Z</time>
      </trkpt>
      <trkpt lat="46.22728" lon="-1.54314">
        <ele>2.52086</ele>
        <time>2023-05-31T13:47:36.000Z</time>
      </trkpt>
      <trkpt lat="46.22726" lon="-1.5431">
        <ele>2.45488</ele>
        <time>2023-05-31T13:47:37.000Z</time>
      </trkpt>
      <trkpt lat="46.22725" lon="-1.54306">
        <ele>2.38971</ele>
        <time>2023-05-31T13:47:38.000Z</time>
      </trkpt>
      <trkpt lat="46.22724" lon="-1.54302">
        <ele>2.34188</ele>
        <time>2023-05-31T13:47:39.000Z</time>
      </trkpt>
      <trkpt lat="46.22722" lon="-1.54297">
        <ele>2.33141</ele>
        <time>2023-05-31T13:47:40.000Z</time>
      </trkpt>
      <trkpt lat="46.22721" lon="-1.54293">
        <ele>2.30818</ele>
        <time>2023-05-31T13:47:41.000Z</time>
      </trkpt>
      <trkpt lat="46.22719" lon="-1.54288">
        <ele>2.29353</ele>
        <time>2023-05-31T13:47:42.000Z</time>
      </trkpt>
      <trkpt lat="46.22718" lon="-1.54283">
        <ele>2.29419</ele>
        <time>2023-05-31T13:47:43.000Z</time>
      </trkpt>
      <trkpt lat="46.22717" lon="-1.54279">
        <ele>2.29879</ele>
        <time>2023-05-31T13:47:44.000Z</time>
      </trkpt>
      <trkpt lat="46.22715" lon="-1.54274">
        <ele>2.28914</ele>
        <time>2023-05-31T13:47:45.000Z</time>
      </trkpt>
      <trkpt lat="46.22714" lon="-1.5427">
        <ele>2.26593</ele>
        <time>2023-05-31T13:47:46.000Z</time>
      </trkpt>
      <trkpt lat="46.22713" lon="-1.54266">
        <ele>2.23542</ele>
        <time>2023-05-31T13:47:47.000Z</time>
      </trkpt>
      <trkpt lat="46.22712" lon="-1.54261">
        <ele>2.16983</ele>
        <time>2023-05-31T13:47:48.000Z</time>
      </trkpt>
      <trkpt lat="46.2271" lon="-1.54257">
        <ele>2.10901</ele>
        <time>2023-05-31T13:47:49.000Z</time>
      </trkpt>
      <trkpt lat="46.22709" lon="-1.54253">
        <ele>2.0616</ele>
        <time>2023-05-31T13:47:50.000Z</time>
      </trkpt>
      <trkpt lat="46.22708" lon="-1.54249">
        <ele>2.03561</ele>
        <time>2023-05-31T13:47:51.000Z</time>
      </trkpt>
      <trkpt lat="46.22706" lon="-1.54244">
        <ele>2.03804</ele>
        <time>2023-05-31T13:47:52.000Z</time>
      </trkpt>
      <trkpt lat="46.22705" lon="-1.5424">
        <ele>2.05233</ele>
        <time>2023-05-31T13:47:53.000Z</time>
      </trkpt>
      <trkpt lat="46.22704" lon="-1.54235">
        <ele>2.03011</ele>
        <time>2023-05-31T13:47:54.000Z</time>
      </trkpt>
      <trkpt lat="46.22702" lon="-1.54231">
        <ele>2.02572</ele>
        <time>2023-05-31T13:47:55.000Z</time>
      </trkpt>
      <trkpt lat="46.22701" lon="-1.54226">
        <ele>2.04232</ele>
        <time>2023-05-31T13:47:56.000Z</time>
      </trkpt>
      <trkpt lat="46.227" lon="-1.54221">
        <ele>2.04193</ele>
        <time>2023-05-31T13:47:57.000Z</time>
      </trkpt>
      <trkpt lat="46.22698" lon="-1.54216">
        <ele>2.04935</ele>
        <time>2023-05-31T13:47:58.000Z</time>
      </trkpt>
      <trkpt lat="46.22696" lon="-1.54211">
        <ele>2.05715</ele>
        <time>2023-05-31T13:47:59.000Z</time>
      </trkpt>
      <trkpt lat="46.22695" lon="-1.54207">
        <ele>2.07699</ele>
        <time>2023-05-31T13:48:00.000Z</time>
      </trkpt>
      <trkpt lat="46.22693" lon="-1.54202">
        <ele>2.09332</ele>
        <time>2023-05-31T13:48:01.000Z</time>
      </trkpt>
      <trkpt lat="46.22691" lon="-1.54197">
        <ele>2.10515</ele>
        <time>2023-05-31T13:48:02.000Z</time>
      </trkpt>
      <trkpt lat="46.2269" lon="-1.54193">
        <ele>2.11873</ele>
        <time>2023-05-31T13:48:03.000Z</time>
      </trkpt>
      <trkpt lat="46.22688" lon="-1.54188">
        <ele>2.13446</ele>
        <time>2023-05-31T13:48:04.000Z</time>
      </trkpt>
      <trkpt lat="46.22686" lon="-1.54184">
        <ele>2.16021</ele>
        <time>2023-05-31T13:48:05.000Z</time>
      </trkpt>
      <trkpt lat="46.22684" lon="-1.54179">
        <ele>2.17857</ele>
        <time>2023-05-31T13:48:06.000Z</time>
      </trkpt>
      <trkpt lat="46.22682" lon="-1.54175">
        <ele>2.22133</ele>
        <time>2023-05-31T13:48:07.000Z</time>
      </trkpt>
      <trkpt lat="46.22679" lon="-1.54171">
        <ele>2.27641</ele>
        <time>2023-05-31T13:48:08.000Z</time>
      </trkpt>
      <trkpt lat="46.22677" lon="-1.54167">
        <ele>2.32538</ele>
        <time>2023-05-31T13:48:09.000Z</time>
      </trkpt>
      <trkpt lat="46.22674" lon="-1.54162">
        <ele>2.35266</ele>
        <time>2023-05-31T13:48:10.000Z</time>
      </trkpt>
      <trkpt lat="46.22672" lon="-1.54158">
        <ele>2.34678</ele>
        <time>2023-05-31T13:48:11.000Z</time>
      </trkpt>
      <trkpt lat="46.22669" lon="-1.54155">
        <ele>2.30749</ele>
        <time>2023-05-31T13:48:12.000Z</time>
      </trkpt>
      <trkpt lat="46.22666" lon="-1.54151">
        <ele>2.2635</ele>
        <time>2023-05-31T13:48:13.000Z</time>
      </trkpt>
      <trkpt lat="46.22664" lon="-1.54147">
        <ele>2.25677</ele>
        <time>2023-05-31T13:48:14.000Z</time>
      </trkpt>
      <trkpt lat="46.22662" lon="-1.54143">
        <ele>2.23759</ele>
        <time>2023-05-31T13:48:15.000Z</time>
      </trkpt>
      <trkpt lat="46.22659" lon="-1.54139">
        <ele>2.22437</ele>
        <time>2023-05-31T13:48:16.000Z</time>
      </trkpt>
      <trkpt lat="46.22657" lon="-1.54135">
        <ele>2.2217</ele>
        <time>2023-05-31T13:48:17.000Z</time>
      </trkpt>
      <trkpt lat="46.22654" lon="-1.5413">
        <ele>2.21662</ele>
        <time>2023-05-31T13:48:18.000Z</time>
      </trkpt>
      <trkpt lat="46.22652" lon="-1.54126">
        <ele>2.2216</ele>
        <time>2023-05-31T13:48:19.000Z</time>
      </trkpt>
      <trkpt lat="46.22649" lon="-1.54123">
        <ele>2.21364</ele>
        <time>2023-05-31T13:48:20.000Z</time>
      </trkpt>
      <trkpt lat="46.22647" lon="-1.54119">
        <ele>2.21015</ele>
        <time>2023-05-31T13:48:21.000Z</time>
      </trkpt>
      <trkpt lat="46.22644" lon="-1.54116">
        <ele>2.20553</ele>
        <time>2023-05-31T13:48:22.000Z</time>
      </trkpt>
      <trkpt lat="46.22642" lon="-1.54112">
        <ele>2.18878</ele>
        <time>2023-05-31T13:48:23.000Z</time>
      </trkpt>
      <trkpt lat="46.2264" lon="-1.54108">
        <ele>2.17548</ele>
        <time>2023-05-31T13:48:24.000Z</time>
      </trkpt>
      <trkpt lat="46.22637" lon="-1.54105">
        <ele>2.18686</ele>
        <time>2023-05-31T13:48:25.000Z</time>
      </trkpt>
      <trkpt lat="46.22635" lon="-1.54101">
        <ele>2.20812</ele>
        <time>2023-05-31T13:48:26.000Z</time>
      </trkpt>
      <trkpt lat="46.22633" lon="-1.54098">
        <ele>2.21194</ele>
        <time>2023-05-31T13:48:27.000Z</time>
      </trkpt>
      <trkpt lat="46.2263" lon="-1.54094">
        <ele>2.21257</ele>
        <time>2023-05-31T13:48:28.000Z</time>
      </trkpt>
      <trkpt lat="46.22628" lon="-1.5409">
        <ele>2.21439</ele>
        <time>2023-05-31T13:48:29.000Z</time>
      </trkpt>
      <trkpt lat="46.22625" lon="-1.54086">
        <ele>2.23467</ele>
        <time>2023-05-31T13:48:30.000Z</time>
      </trkpt>
      <trkpt lat="46.22623" lon="-1.54083">
        <ele>2.27671</ele>
        <time>2023-05-31T13:48:31.000Z</time>
      </trkpt>
      <trkpt lat="46.2262" lon="-1.54079">
        <ele>2.32841</ele>
        <time>2023-05-31T13:48:32.000Z</time>
      </trkpt>
      <trkpt lat="46.22618" lon="-1.54076">
        <ele>2.37799</ele>
        <time>2023-05-31T13:48:33.000Z</time>
      </trkpt>
      <trkpt lat="46.22615" lon="-1.54072">
        <ele>2.43388</ele>
        <time>2023-05-31T13:48:34.000Z</time>
      </trkpt>
      <trkpt lat="46.22612" lon="-1.54069">
        <ele>2.50613</ele>
        <time>2023-05-31T13:48:35.000Z</time>
      </trkpt>
      <trkpt lat="46.22609" lon="-1.54066">
        <ele>2.57236</ele>
        <time>2023-05-31T13:48:36.000Z</time>
      </trkpt>
      <trkpt lat="46.22606" lon="-1.54062">
        <ele>2.63702</ele>
        <time>2023-05-31T13:48:37.000Z</time>
      </trkpt>
      <trkpt lat="46.22604" lon="-1.54059">
        <ele>2.68787</ele>
        <time>2023-05-31T13:48:38.000Z</time>
      </trkpt>
      <trkpt lat="46.22601" lon="-1.54056">
        <ele>2.73917</ele>
        <time>2023-05-31T13:48:39.000Z</time>
      </trkpt>
      <trkpt lat="46.22598" lon="-1.54053">
        <ele>2.75886</ele>
        <time>2023-05-31T13:48:40.000Z</time>
      </trkpt>
      <trkpt lat="46.22595" lon="-1.54051">
        <ele>2.7824</ele>
        <time>2023-05-31T13:48:41.000Z</time>
      </trkpt>
      <trkpt lat="46.22592" lon="-1.54048">
        <ele>2.79176</ele>
        <time>2023-05-31T13:48:42.000Z</time>
      </trkpt>
      <trkpt lat="46.22588" lon="-1.54045">
        <ele>2.80801</ele>
        <time>2023-05-31T13:48:43.000Z</time>
      </trkpt>
      <trkpt lat="46.22585" lon="-1.54043">
        <ele>2.82563</ele>
        <time>2023-05-31T13:48:44.000Z</time>
      </trkpt>
      <trkpt lat="46.22582" lon="-1.5404">
        <ele>2.8246</ele>
        <time>2023-05-31T13:48:45.000Z</time>
      </trkpt>
      <trkpt lat="46.22579" lon="-1.54037">
        <ele>2.81865</ele>
        <time>2023-05-31T13:48:46.000Z</time>
      </trkpt>
      <trkpt lat="46.22576" lon="-1.54034">
        <ele>2.8237</ele>
        <time>2023-05-31T13:48:47.000Z</time>
      </trkpt>
      <trkpt lat="46.22574" lon="-1.5403">
        <ele>2.83036</ele>
        <time>2023-05-31T13:48:48.000Z</time>
      </trkpt>
      <trkpt lat="46.22571" lon="-1.54027">
        <ele>2.85436</ele>
        <time>2023-05-31T13:48:49.000Z</time>
      </trkpt>
      <trkpt lat="46.22568" lon="-1.54023">
        <ele>3.07429</ele>
        <time>2023-05-31T13:48:50.000Z</time>
      </trkpt>
      <trkpt lat="46.22565" lon="-1.5402">
        <ele>3.29523</ele>
        <time>2023-05-31T13:48:51.000Z</time>
      </trkpt>
      <trkpt lat="46.22562" lon="-1.54016">
        <ele>3.40491</ele>
        <time>2023-05-31T13:48:52.000Z</time>
      </trkpt>
      <trkpt lat="46.22559" lon="-1.54013">
        <ele>3.54312</ele>
        <time>2023-05-31T13:48:53.000Z</time>
      </trkpt>
      <trkpt lat="46.22556" lon="-1.54009">
        <ele>3.66877</ele>
        <time>2023-05-31T13:48:54.000Z</time>
      </trkpt>
      <trkpt lat="46.22554" lon="-1.54005">
        <ele>3.77366</ele>
        <time>2023-05-31T13:48:55.000Z</time>
      </trkpt>
      <trkpt lat="46.22551" lon="-1.54001">
        <ele>3.86955</ele>
        <time>2023-05-31T13:48:56.000Z</time>
      </trkpt>
      <trkpt lat="46.22549" lon="-1.53997">
        <ele>3.95409</ele>
        <time>2023-05-31T13:48:57.000Z</time>
      </trkpt>
      <trkpt lat="46.22547" lon="-1.53993">
        <ele>4.04429</ele>
        <time>2023-05-31T13:48:58.000Z</time>
      </trkpt>
      <trkpt lat="46.22544" lon="-1.53989">
        <ele>4.12684</ele>
        <time>2023-05-31T13:48:59.000Z</time>
      </trkpt>
      <trkpt lat="46.22542" lon="-1.53986">
        <ele>4.25873</ele>
        <time>2023-05-31T13:49:00.000Z</time>
      </trkpt>
      <trkpt lat="46.22539" lon="-1.53983">
        <ele>4.45066</ele>
        <time>2023-05-31T13:49:01.000Z</time>
      </trkpt>
      <trkpt lat="46.22536" lon="-1.5398">
        <ele>4.69117</ele>
        <time>2023-05-31T13:49:02.000Z</time>
      </trkpt>
      <trkpt lat="46.22533" lon="-1.53978">
        <ele>4.93947</ele>
        <time>2023-05-31T13:49:03.000Z</time>
      </trkpt>
      <trkpt lat="46.2253" lon="-1.53976">
        <ele>5.06709</ele>
        <time>2023-05-31T13:49:04.000Z</time>
      </trkpt>
      <trkpt lat="46.22528" lon="-1.53974">
        <ele>5.20865</ele>
        <time>2023-05-31T13:49:05.000Z</time>
      </trkpt>
      <trkpt lat="46.22525" lon="-1.53972">
        <ele>5.35</ele>
        <time>2023-05-31T13:49:06.000Z</time>
      </trkpt>
      <trkpt lat="46.22523" lon="-1.5397">
        <ele>5.49969</ele>
        <time>2023-05-31T13:49:07.000Z</time>
      </trkpt>
      <trkpt lat="46.2252" lon="-1.53968">
        <ele>5.63366</ele>
        <time>2023-05-31T13:49:08.000Z</time>
      </trkpt>
      <trkpt lat="46.22517" lon="-1.53966">
        <ele>5.82674</ele>
        <time>2023-05-31T13:49:09.000Z</time>
      </trkpt>
      <trkpt lat="46.22514" lon="-1.53964">
        <ele>5.83336</ele>
        <time>2023-05-31T13:49:10.000Z</time>
      </trkpt>
      <trkpt lat="46.22511" lon="-1.53961">
        <ele>5.82304</ele>
        <time>2023-05-31T13:49:11.000Z</time>
      </trkpt>
      <trkpt lat="46.22509" lon="-1.53958">
        <ele>5.8164</ele>
        <time>2023-05-31T13:49:12.000Z</time>
      </trkpt>
      <trkpt lat="46.22505" lon="-1.53954">
        <ele>5.79088</ele>
        <time>2023-05-31T13:49:13.000Z</time>
      </trkpt>
      <trkpt lat="46.22502" lon="-1.53951">
        <ele>5.78845</ele>
        <time>2023-05-31T13:49:14.000Z</time>
      </trkpt>
      <trkpt lat="46.225" lon="-1.53947">
        <ele>5.77503</ele>
        <time>2023-05-31T13:49:15.000Z</time>
      </trkpt>
      <trkpt lat="46.22497" lon="-1.53943">
        <ele>5.78008</ele>
        <time>2023-05-31T13:49:16.000Z</time>
      </trkpt>
      <trkpt lat="46.22494" lon="-1.53939">
        <ele>5.80118</ele>
        <time>2023-05-31T13:49:17.000Z</time>
      </trkpt>
      <trkpt lat="46.22492" lon="-1.53935">
        <ele>5.82117</ele>
        <time>2023-05-31T13:49:18.000Z</time>
      </trkpt>
      <trkpt lat="46.22489" lon="-1.53931">
        <ele>5.84428</ele>
        <time>2023-05-31T13:49:19.000Z</time>
      </trkpt>
      <trkpt lat="46.22487" lon="-1.53926">
        <ele>5.85308</ele>
        <time>2023-05-31T13:49:20.000Z</time>
      </trkpt>
      <trkpt lat="46.22485" lon="-1.53922">
        <ele>5.85037</ele>
        <time>2023-05-31T13:49:21.000Z</time>
      </trkpt>
      <trkpt lat="46.22482" lon="-1.53918">
        <ele>5.81404</ele>
        <time>2023-05-31T13:49:22.000Z</time>
      </trkpt>
      <trkpt lat="46.2248" lon="-1.53914">
        <ele>5.77801</ele>
        <time>2023-05-31T13:49:23.000Z</time>
      </trkpt>
      <trkpt lat="46.22477" lon="-1.5391">
        <ele>5.74746</ele>
        <time>2023-05-31T13:49:24.000Z</time>
      </trkpt>
      <trkpt lat="46.22475" lon="-1.53906">
        <ele>5.73533</ele>
        <time>2023-05-31T13:49:25.000Z</time>
      </trkpt>
      <trkpt lat="46.22472" lon="-1.53903">
        <ele>5.74194</ele>
        <time>2023-05-31T13:49:26.000Z</time>
      </trkpt>
      <trkpt lat="46.2247" lon="-1.53899">
        <ele>5.73844</ele>
        <time>2023-05-31T13:49:27.000Z</time>
      </trkpt>
      <trkpt lat="46.22467" lon="-1.53895">
        <ele>5.75048</ele>
        <time>2023-05-31T13:49:28.000Z</time>
      </trkpt>
      <trkpt lat="46.22464" lon="-1.53892">
        <ele>5.68976</ele>
        <time>2023-05-31T13:49:29.000Z</time>
      </trkpt>
      <trkpt lat="46.22461" lon="-1.53889">
        <ele>5.61664</ele>
        <time>2023-05-31T13:49:30.000Z</time>
      </trkpt>
      <trkpt lat="46.22458" lon="-1.53885">
        <ele>5.54385</ele>
        <time>2023-05-31T13:49:31.000Z</time>
      </trkpt>
      <trkpt lat="46.22455" lon="-1.53882">
        <ele>5.57625</ele>
        <time>2023-05-31T13:49:32.000Z</time>
      </trkpt>
      <trkpt lat="46.22453" lon="-1.53879">
        <ele>5.59892</ele>
        <time>2023-05-31T13:49:33.000Z</time>
      </trkpt>
      <trkpt lat="46.2245" lon="-1.53875">
        <ele>5.62137</ele>
        <time>2023-05-31T13:49:34.000Z</time>
      </trkpt>
      <trkpt lat="46.22447" lon="-1.53871">
        <ele>5.67956</ele>
        <time>2023-05-31T13:49:35.000Z</time>
      </trkpt>
      <trkpt lat="46.22445" lon="-1.53868">
        <ele>5.72114</ele>
        <time>2023-05-31T13:49:36.000Z</time>
      </trkpt>
      <trkpt lat="46.22442" lon="-1.53864">
        <ele>5.74962</ele>
        <time>2023-05-31T13:49:37.000Z</time>
      </trkpt>
      <trkpt lat="46.22439" lon="-1.53861">
        <ele>5.78489</ele>
        <time>2023-05-31T13:49:38.000Z</time>
      </trkpt>
      <trkpt lat="46.22437" lon="-1.53858">
        <ele>5.83207</ele>
        <time>2023-05-31T13:49:39.000Z</time>
      </trkpt>
      <trkpt lat="46.22435" lon="-1.53855">
        <ele>5.8779</ele>
        <time>2023-05-31T13:49:40.000Z</time>
      </trkpt>
      <trkpt lat="46.22433" lon="-1.53852">
        <ele>5.89026</ele>
        <time>2023-05-31T13:49:41.000Z</time>
      </trkpt>
      <trkpt lat="46.22431" lon="-1.5385">
        <ele>5.90377</ele>
        <time>2023-05-31T13:49:42.000Z</time>
      </trkpt>
      <trkpt lat="46.22429" lon="-1.53848">
        <ele>5.88933</ele>
        <time>2023-05-31T13:49:43.000Z</time>
      </trkpt>
      <trkpt lat="46.22427" lon="-1.53845">
        <ele>5.99169</ele>
        <time>2023-05-31T13:49:45.000Z</time>
      </trkpt>
      <trkpt lat="46.22426" lon="-1.53843">
        <ele>6.03494</ele>
        <time>2023-05-31T13:49:47.000Z</time>
      </trkpt>
      <trkpt lat="46.22424" lon="-1.53841">
        <ele>6.05965</ele>
        <time>2023-05-31T13:50:02.000Z</time>
      </trkpt>
      <trkpt lat="46.22423" lon="-1.53844">
        <ele>6.08395</ele>
        <time>2023-05-31T13:50:12.000Z</time>
      </trkpt>
      <trkpt lat="46.22425" lon="-1.53847">
        <ele>6.14574</ele>
        <time>2023-05-31T13:50:14.000Z</time>
      </trkpt>
      <trkpt lat="46.22427" lon="-1.53851">
        <ele>6.19866</ele>
        <time>2023-05-31T13:50:16.000Z</time>
      </trkpt>
      <trkpt lat="46.2243" lon="-1.5385">
        <ele>6.27537</ele>
        <time>2023-05-31T13:50:18.000Z</time>
      </trkpt>
      <trkpt lat="46.22429" lon="-1.53847">
        <ele>6.40382</ele>
        <time>2023-05-31T13:50:20.000Z</time>
      </trkpt>
      <trkpt lat="46.22427" lon="-1.53845">
        <ele>6.54068</ele>
        <time>2023-05-31T13:50:22.000Z</time>
      </trkpt>
      <trkpt lat="46.22425" lon="-1.53843">
        <ele>6.67637</ele>
        <time>2023-05-31T13:50:24.000Z</time>
      </trkpt>
      <trkpt lat="46.22422" lon="-1.5384">
        <ele>6.70249</ele>
        <time>2023-05-31T13:50:26.000Z</time>
      </trkpt>
      <trkpt lat="46.2242" lon="-1.53839">
        <ele>6.71611</ele>
        <time>2023-05-31T13:50:27.000Z</time>
      </trkpt>
      <trkpt lat="46.22418" lon="-1.53837">
        <ele>6.73643</ele>
        <time>2023-05-31T13:50:28.000Z</time>
      </trkpt>
      <trkpt lat="46.22416" lon="-1.53835">
        <ele>6.75792</ele>
        <time>2023-05-31T13:50:29.000Z</time>
      </trkpt>
      <trkpt lat="46.22414" lon="-1.53833">
        <ele>6.78695</ele>
        <time>2023-05-31T13:50:30.000Z</time>
      </trkpt>
      <trkpt lat="46.22412" lon="-1.53831">
        <ele>6.79285</ele>
        <time>2023-05-31T13:50:31.000Z</time>
      </trkpt>
      <trkpt lat="46.22409" lon="-1.53829">
        <ele>6.81667</ele>
        <time>2023-05-31T13:50:32.000Z</time>
      </trkpt>
      <trkpt lat="46.22407" lon="-1.53827">
        <ele>6.8228</ele>
        <time>2023-05-31T13:50:33.000Z</time>
      </trkpt>
      <trkpt lat="46.22405" lon="-1.53824">
        <ele>6.80704</ele>
        <time>2023-05-31T13:50:34.000Z</time>
      </trkpt>
      <trkpt lat="46.22403" lon="-1.53822">
        <ele>6.80628</ele>
        <time>2023-05-31T13:50:35.000Z</time>
      </trkpt>
      <trkpt lat="46.224" lon="-1.5382">
        <ele>6.84564</ele>
        <time>2023-05-31T13:50:36.000Z</time>
      </trkpt>
      <trkpt lat="46.22398" lon="-1.53817">
        <ele>6.92808</ele>
        <time>2023-05-31T13:50:37.000Z</time>
      </trkpt>
      <trkpt lat="46.22395" lon="-1.53814">
        <ele>7.02663</ele>
        <time>2023-05-31T13:50:38.000Z</time>
      </trkpt>
      <trkpt lat="46.22393" lon="-1.53811">
        <ele>7.02174</ele>
        <time>2023-05-31T13:50:39.000Z</time>
      </trkpt>
      <trkpt lat="46.2239" lon="-1.53808">
        <ele>7.0019</ele>
        <time>2023-05-31T13:50:40.000Z</time>
      </trkpt>
      <trkpt lat="46.22388" lon="-1.53805">
        <ele>6.98895</ele>
        <time>2023-05-31T13:50:41.000Z</time>
      </trkpt>
      <trkpt lat="46.22386" lon="-1.53802">
        <ele>6.92151</ele>
        <time>2023-05-31T13:50:42.000Z</time>
      </trkpt>
      <trkpt lat="46.22383" lon="-1.53798">
        <ele>6.79661</ele>
        <time>2023-05-31T13:50:43.000Z</time>
      </trkpt>
      <trkpt lat="46.22381" lon="-1.53794">
        <ele>6.65632</ele>
        <time>2023-05-31T13:50:44.000Z</time>
      </trkpt>
      <trkpt lat="46.22378" lon="-1.5379">
        <ele>6.52507</ele>
        <time>2023-05-31T13:50:45.000Z</time>
      </trkpt>
      <trkpt lat="46.22376" lon="-1.53786">
        <ele>6.48429</ele>
        <time>2023-05-31T13:50:46.000Z</time>
      </trkpt>
      <trkpt lat="46.22373" lon="-1.53783">
        <ele>6.43378</ele>
        <time>2023-05-31T13:50:47.000Z</time>
      </trkpt>
      <trkpt lat="46.22371" lon="-1.53779">
        <ele>6.40217</ele>
        <time>2023-05-31T13:50:48.000Z</time>
      </trkpt>
      <trkpt lat="46.22369" lon="-1.53776">
        <ele>6.36015</ele>
        <time>2023-05-31T13:50:49.000Z</time>
      </trkpt>
      <trkpt lat="46.22366" lon="-1.53772">
        <ele>6.35251</ele>
        <time>2023-05-31T13:50:50.000Z</time>
      </trkpt>
      <trkpt lat="46.22363" lon="-1.53768">
        <ele>6.34127</ele>
        <time>2023-05-31T13:50:51.000Z</time>
      </trkpt>
      <trkpt lat="46.22361" lon="-1.53765">
        <ele>6.31197</ele>
        <time>2023-05-31T13:50:52.000Z</time>
      </trkpt>
      <trkpt lat="46.22358" lon="-1.53762">
        <ele>6.26765</ele>
        <time>2023-05-31T13:50:53.000Z</time>
      </trkpt>
      <trkpt lat="46.22356" lon="-1.53758">
        <ele>6.21319</ele>
        <time>2023-05-31T13:50:54.000Z</time>
      </trkpt>
      <trkpt lat="46.22353" lon="-1.53755">
        <ele>6.13835</ele>
        <time>2023-05-31T13:50:55.000Z</time>
      </trkpt>
      <trkpt lat="46.2235" lon="-1.53752">
        <ele>5.99877</ele>
        <time>2023-05-31T13:50:56.000Z</time>
      </trkpt>
      <trkpt lat="46.22347" lon="-1.53749">
        <ele>5.84142</ele>
        <time>2023-05-31T13:50:57.000Z</time>
      </trkpt>
      <trkpt lat="46.22344" lon="-1.53745">
        <ele>5.62955</ele>
        <time>2023-05-31T13:50:58.000Z</time>
      </trkpt>
      <trkpt lat="46.22342" lon="-1.53742">
        <ele>5.5198</ele>
        <time>2023-05-31T13:50:59.000Z</time>
      </trkpt>
      <trkpt lat="46.22341" lon="-1.53737">
        <ele>5.3728</ele>
        <time>2023-05-31T13:51:00.000Z</time>
      </trkpt>
      <trkpt lat="46.22339" lon="-1.53732">
        <ele>5.2272</ele>
        <time>2023-05-31T13:51:01.000Z</time>
      </trkpt>
      <trkpt lat="46.22337" lon="-1.53727">
        <ele>5.13089</ele>
        <time>2023-05-31T13:51:02.000Z</time>
      </trkpt>
      <trkpt lat="46.22334" lon="-1.53721">
        <ele>5.07026</ele>
        <time>2023-05-31T13:51:03.000Z</time>
      </trkpt>
      <trkpt lat="46.22332" lon="-1.53713">
        <ele>5.02937</ele>
        <time>2023-05-31T13:51:04.000Z</time>
      </trkpt>
      <trkpt lat="46.22329" lon="-1.53707">
        <ele>5.04769</ele>
        <time>2023-05-31T13:51:05.000Z</time>
      </trkpt>
      <trkpt lat="46.22327" lon="-1.537">
        <ele>5.08095</ele>
        <time>2023-05-31T13:51:06.000Z</time>
      </trkpt>
      <trkpt lat="46.22325" lon="-1.53693">
        <ele>5.19451</ele>
        <time>2023-05-31T13:51:07.000Z</time>
      </trkpt>
      <trkpt lat="46.22323" lon="-1.53686">
        <ele>5.28529</ele>
        <time>2023-05-31T13:51:08.000Z</time>
      </trkpt>
      <trkpt lat="46.22321" lon="-1.5368">
        <ele>5.23379</ele>
        <time>2023-05-31T13:51:09.000Z</time>
      </trkpt>
      <trkpt lat="46.22319" lon="-1.53673">
        <ele>5.12976</ele>
        <time>2023-05-31T13:51:10.000Z</time>
      </trkpt>
      <trkpt lat="46.22317" lon="-1.53668">
        <ele>5.04016</ele>
        <time>2023-05-31T13:51:11.000Z</time>
      </trkpt>
      <trkpt lat="46.22315" lon="-1.53662">
        <ele>4.96123</ele>
        <time>2023-05-31T13:51:12.000Z</time>
      </trkpt>
      <trkpt lat="46.22313" lon="-1.53658">
        <ele>4.88504</ele>
        <time>2023-05-31T13:51:13.000Z</time>
      </trkpt>
      <trkpt lat="46.2231" lon="-1.53652">
        <ele>4.83631</ele>
        <time>2023-05-31T13:51:14.000Z</time>
      </trkpt>
      <trkpt lat="46.22308" lon="-1.53647">
        <ele>4.79147</ele>
        <time>2023-05-31T13:51:15.000Z</time>
      </trkpt>
      <trkpt lat="46.22306" lon="-1.53642">
        <ele>4.78203</ele>
        <time>2023-05-31T13:51:16.000Z</time>
      </trkpt>
      <trkpt lat="46.22304" lon="-1.53637">
        <ele>4.78783</ele>
        <time>2023-05-31T13:51:17.000Z</time>
      </trkpt>
      <trkpt lat="46.22301" lon="-1.53632">
        <ele>4.82212</ele>
        <time>2023-05-31T13:51:18.000Z</time>
      </trkpt>
      <trkpt lat="46.22299" lon="-1.53628">
        <ele>4.82399</ele>
        <time>2023-05-31T13:51:19.000Z</time>
      </trkpt>
      <trkpt lat="46.22297" lon="-1.53623">
        <ele>4.84313</ele>
        <time>2023-05-31T13:51:20.000Z</time>
      </trkpt>
      <trkpt lat="46.22294" lon="-1.53618">
        <ele>4.86279</ele>
        <time>2023-05-31T13:51:21.000Z</time>
      </trkpt>
      <trkpt lat="46.22292" lon="-1.53613">
        <ele>4.84652</ele>
        <time>2023-05-31T13:51:22.000Z</time>
      </trkpt>
      <trkpt lat="46.22289" lon="-1.53608">
        <ele>4.81155</ele>
        <time>2023-05-31T13:51:23.000Z</time>
      </trkpt>
      <trkpt lat="46.22287" lon="-1.53603">
        <ele>4.77247</ele>
        <time>2023-05-31T13:51:24.000Z</time>
      </trkpt>
      <trkpt lat="46.22284" lon="-1.53598">
        <ele>4.66045</ele>
        <time>2023-05-31T13:51:25.000Z</time>
      </trkpt>
      <trkpt lat="46.22282" lon="-1.53593">
        <ele>4.54969</ele>
        <time>2023-05-31T13:51:26.000Z</time>
      </trkpt>
      <trkpt lat="46.22279" lon="-1.53588">
        <ele>4.33508</ele>
        <time>2023-05-31T13:51:27.000Z</time>
      </trkpt>
      <trkpt lat="46.22277" lon="-1.53584">
        <ele>4.14072</ele>
        <time>2023-05-31T13:51:28.000Z</time>
      </trkpt>
      <trkpt lat="46.22274" lon="-1.53579">
        <ele>4.10383</ele>
        <time>2023-05-31T13:51:29.000Z</time>
      </trkpt>
      <trkpt lat="46.22271" lon="-1.53574">
        <ele>4.04397</ele>
        <time>2023-05-31T13:51:30.000Z</time>
      </trkpt>
      <trkpt lat="46.22269" lon="-1.53569">
        <ele>4.06245</ele>
        <time>2023-05-31T13:51:31.000Z</time>
      </trkpt>
      <trkpt lat="46.22267" lon="-1.53564">
        <ele>4.10936</ele>
        <time>2023-05-31T13:51:32.000Z</time>
      </trkpt>
      <trkpt lat="46.22264" lon="-1.5356">
        <ele>4.18523</ele>
        <time>2023-05-31T13:51:33.000Z</time>
      </trkpt>
      <trkpt lat="46.22261" lon="-1.53555">
        <ele>4.14139</ele>
        <time>2023-05-31T13:51:34.000Z</time>
      </trkpt>
      <trkpt lat="46.22258" lon="-1.53551">
        <ele>4.14322</ele>
        <time>2023-05-31T13:51:35.000Z</time>
      </trkpt>
      <trkpt lat="46.22256" lon="-1.53547">
        <ele>4.11257</ele>
        <time>2023-05-31T13:51:36.000Z</time>
      </trkpt>
      <trkpt lat="46.22253" lon="-1.53543">
        <ele>4.09595</ele>
        <time>2023-05-31T13:51:37.000Z</time>
      </trkpt>
      <trkpt lat="46.2225" lon="-1.53538">
        <ele>4.09004</ele>
        <time>2023-05-31T13:51:38.000Z</time>
      </trkpt>
      <trkpt lat="46.22247" lon="-1.53534">
        <ele>4.11594</ele>
        <time>2023-05-31T13:51:39.000Z</time>
      </trkpt>
      <trkpt lat="46.22244" lon="-1.5353">
        <ele>4.13327</ele>
        <time>2023-05-31T13:51:40.000Z</time>
      </trkpt>
      <trkpt lat="46.22241" lon="-1.53526">
        <ele>4.15361</ele>
        <time>2023-05-31T13:51:41.000Z</time>
      </trkpt>
      <trkpt lat="46.22238" lon="-1.53522">
        <ele>4.18482</ele>
        <time>2023-05-31T13:51:42.000Z</time>
      </trkpt>
      <trkpt lat="46.22236" lon="-1.53518">
        <ele>4.22371</ele>
        <time>2023-05-31T13:51:43.000Z</time>
      </trkpt>
      <trkpt lat="46.22232" lon="-1.53514">
        <ele>4.25104</ele>
        <time>2023-05-31T13:51:44.000Z</time>
      </trkpt>
      <trkpt lat="46.22229" lon="-1.5351">
        <ele>4.3375</ele>
        <time>2023-05-31T13:51:45.000Z</time>
      </trkpt>
      <trkpt lat="46.22226" lon="-1.53506">
        <ele>4.42165</ele>
        <time>2023-05-31T13:51:46.000Z</time>
      </trkpt>
      <trkpt lat="46.22224" lon="-1.53501">
        <ele>4.56633</ele>
        <time>2023-05-31T13:51:47.000Z</time>
      </trkpt>
      <trkpt lat="46.22221" lon="-1.53497">
        <ele>4.71525</ele>
        <time>2023-05-31T13:51:48.000Z</time>
      </trkpt>
      <trkpt lat="46.22217" lon="-1.53493">
        <ele>4.72453</ele>
        <time>2023-05-31T13:51:49.000Z</time>
      </trkpt>
      <trkpt lat="46.22214" lon="-1.53489">
        <ele>4.78841</ele>
        <time>2023-05-31T13:51:50.000Z</time>
      </trkpt>
      <trkpt lat="46.22211" lon="-1.53485">
        <ele>4.77454</ele>
        <time>2023-05-31T13:51:51.000Z</time>
      </trkpt>
      <trkpt lat="46.22208" lon="-1.5348">
        <ele>4.74757</ele>
        <time>2023-05-31T13:51:52.000Z</time>
      </trkpt>
      <trkpt lat="46.22206" lon="-1.53476">
        <ele>4.70865</ele>
        <time>2023-05-31T13:51:53.000Z</time>
      </trkpt>
      <trkpt lat="46.22203" lon="-1.53472">
        <ele>4.79461</ele>
        <time>2023-05-31T13:51:54.000Z</time>
      </trkpt>
      <trkpt lat="46.222" lon="-1.53468">
        <ele>4.84165</ele>
        <time>2023-05-31T13:51:55.000Z</time>
      </trkpt>
      <trkpt lat="46.22198" lon="-1.53464">
        <ele>4.90168</ele>
        <time>2023-05-31T13:51:56.000Z</time>
      </trkpt>
      <trkpt lat="46.22195" lon="-1.53459">
        <ele>4.92827</ele>
        <time>2023-05-31T13:51:57.000Z</time>
      </trkpt>
      <trkpt lat="46.22192" lon="-1.53455">
        <ele>4.9523</ele>
        <time>2023-05-31T13:51:58.000Z</time>
      </trkpt>
      <trkpt lat="46.22189" lon="-1.53451">
        <ele>4.99867</ele>
        <time>2023-05-31T13:51:59.000Z</time>
      </trkpt>
      <trkpt lat="46.22186" lon="-1.53447">
        <ele>5.06155</ele>
        <time>2023-05-31T13:52:00.000Z</time>
      </trkpt>
      <trkpt lat="46.22184" lon="-1.53442">
        <ele>5.12123</ele>
        <time>2023-05-31T13:52:01.000Z</time>
      </trkpt>
      <trkpt lat="46.22183" lon="-1.53437">
        <ele>5.19231</ele>
        <time>2023-05-31T13:52:02.000Z</time>
      </trkpt>
      <trkpt lat="46.22183" lon="-1.53431">
        <ele>5.23887</ele>
        <time>2023-05-31T13:52:03.000Z</time>
      </trkpt>
      <trkpt lat="46.22189" lon="-1.53425">
        <ele>5.32611</ele>
        <time>2023-05-31T13:52:04.000Z</time>
      </trkpt>
      <trkpt lat="46.22192" lon="-1.53421">
        <ele>5.35458</ele>
        <time>2023-05-31T13:52:05.000Z</time>
      </trkpt>
      <trkpt lat="46.22196" lon="-1.53416">
        <ele>5.37686</ele>
        <time>2023-05-31T13:52:06.000Z</time>
      </trkpt>
      <trkpt lat="46.22199" lon="-1.53412">
        <ele>5.3982</ele>
        <time>2023-05-31T13:52:07.000Z</time>
      </trkpt>
      <trkpt lat="46.22203" lon="-1.53408">
        <ele>5.41333</ele>
        <time>2023-05-31T13:52:08.000Z</time>
      </trkpt>
      <trkpt lat="46.22206" lon="-1.53404">
        <ele>5.54968</ele>
        <time>2023-05-31T13:52:09.000Z</time>
      </trkpt>
      <trkpt lat="46.22209" lon="-1.534">
        <ele>5.68386</ele>
        <time>2023-05-31T13:52:10.000Z</time>
      </trkpt>
      <trkpt lat="46.22212" lon="-1.53396">
        <ele>5.812</ele>
        <time>2023-05-31T13:52:11.000Z</time>
      </trkpt>
      <trkpt lat="46.22215" lon="-1.53392">
        <ele>5.91723</ele>
        <time>2023-05-31T13:52:12.000Z</time>
      </trkpt>
      <trkpt lat="46.22218" lon="-1.53387">
        <ele>6.03364</ele>
        <time>2023-05-31T13:52:13.000Z</time>
      </trkpt>
      <trkpt lat="46.22222" lon="-1.53383">
        <ele>6.13693</ele>
        <time>2023-05-31T13:52:14.000Z</time>
      </trkpt>
      <trkpt lat="46.22225" lon="-1.53379">
        <ele>6.25078</ele>
        <time>2023-05-31T13:52:15.000Z</time>
      </trkpt>
      <trkpt lat="46.22227" lon="-1.53375">
        <ele>6.37773</ele>
        <time>2023-05-31T13:52:16.000Z</time>
      </trkpt>
      <trkpt lat="46.2223" lon="-1.53371">
        <ele>6.49915</ele>
        <time>2023-05-31T13:52:17.000Z</time>
      </trkpt>
      <trkpt lat="46.22233" lon="-1.53367">
        <ele>6.65411</ele>
        <time>2023-05-31T13:52:18.000Z</time>
      </trkpt>
      <trkpt lat="46.22236" lon="-1.53363">
        <ele>6.80407</ele>
        <time>2023-05-31T13:52:19.000Z</time>
      </trkpt>
      <trkpt lat="46.22238" lon="-1.53359">
        <ele>6.94238</ele>
        <time>2023-05-31T13:52:20.000Z</time>
      </trkpt>
      <trkpt lat="46.22241" lon="-1.53355">
        <ele>7.06728</ele>
        <time>2023-05-31T13:52:21.000Z</time>
      </trkpt>
      <trkpt lat="46.22244" lon="-1.53351">
        <ele>7.17256</ele>
        <time>2023-05-31T13:52:22.000Z</time>
      </trkpt>
      <trkpt lat="46.22247" lon="-1.53348">
        <ele>7.26277</ele>
        <time>2023-05-31T13:52:23.000Z</time>
      </trkpt>
      <trkpt lat="46.22249" lon="-1.53344">
        <ele>7.31643</ele>
        <time>2023-05-31T13:52:24.000Z</time>
      </trkpt>
      <trkpt lat="46.22252" lon="-1.53341">
        <ele>7.36576</ele>
        <time>2023-05-31T13:52:25.000Z</time>
      </trkpt>
      <trkpt lat="46.22254" lon="-1.53337">
        <ele>7.41095</ele>
        <time>2023-05-31T13:52:26.000Z</time>
      </trkpt>
      <trkpt lat="46.22256" lon="-1.53333">
        <ele>7.41549</ele>
        <time>2023-05-31T13:52:27.000Z</time>
      </trkpt>
      <trkpt lat="46.22258" lon="-1.5333">
        <ele>7.41075</ele>
        <time>2023-05-31T13:52:28.000Z</time>
      </trkpt>
      <trkpt lat="46.22259" lon="-1.53327">
        <ele>7.41397</ele>
        <time>2023-05-31T13:52:29.000Z</time>
      </trkpt>
      <trkpt lat="46.22261" lon="-1.53324">
        <ele>7.41277</ele>
        <time>2023-05-31T13:52:30.000Z</time>
      </trkpt>
      <trkpt lat="46.22263" lon="-1.53322">
        <ele>7.40434</ele>
        <time>2023-05-31T13:52:31.000Z</time>
      </trkpt>
      <trkpt lat="46.22265" lon="-1.5332">
        <ele>7.42924</ele>
        <time>2023-05-31T13:52:32.000Z</time>
      </trkpt>
      <trkpt lat="46.22267" lon="-1.53317">
        <ele>7.42534</ele>
        <time>2023-05-31T13:52:33.000Z</time>
      </trkpt>
      <trkpt lat="46.22269" lon="-1.53315">
        <ele>7.43288</ele>
        <time>2023-05-31T13:52:34.000Z</time>
      </trkpt>
      <trkpt lat="46.22271" lon="-1.53312">
        <ele>7.45608</ele>
        <time>2023-05-31T13:52:35.000Z</time>
      </trkpt>
      <trkpt lat="46.22272" lon="-1.5331">
        <ele>7.45991</ele>
        <time>2023-05-31T13:52:36.000Z</time>
      </trkpt>
      <trkpt lat="46.22274" lon="-1.53308">
        <ele>7.53319</ele>
        <time>2023-05-31T13:52:37.000Z</time>
      </trkpt>
      <trkpt lat="46.22277" lon="-1.53307">
        <ele>7.58318</ele>
        <time>2023-05-31T13:52:38.000Z</time>
      </trkpt>
      <trkpt lat="46.22279" lon="-1.53307">
        <ele>7.65015</ele>
        <time>2023-05-31T13:52:39.000Z</time>
      </trkpt>
      <trkpt lat="46.22281" lon="-1.53308">
        <ele>7.64002</ele>
        <time>2023-05-31T13:52:40.000Z</time>
      </trkpt>
      <trkpt lat="46.22284" lon="-1.53307">
        <ele>7.65588</ele>
        <time>2023-05-31T13:52:41.000Z</time>
      </trkpt>
      <trkpt lat="46.22286" lon="-1.53304">
        <ele>7.66747</ele>
        <time>2023-05-31T13:52:42.000Z</time>
      </trkpt>
      <trkpt lat="46.22287" lon="-1.533">
        <ele>7.71575</ele>
        <time>2023-05-31T13:52:43.000Z</time>
      </trkpt>
      <trkpt lat="46.22287" lon="-1.53295">
        <ele>7.76258</ele>
        <time>2023-05-31T13:52:44.000Z</time>
      </trkpt>
      <trkpt lat="46.22286" lon="-1.53291">
        <ele>7.79571</ele>
        <time>2023-05-31T13:52:45.000Z</time>
      </trkpt>
      <trkpt lat="46.22284" lon="-1.53286">
        <ele>7.82992</ele>
        <time>2023-05-31T13:52:46.000Z</time>
      </trkpt>
      <trkpt lat="46.22284" lon="-1.53281">
        <ele>7.85976</ele>
        <time>2023-05-31T13:52:47.000Z</time>
      </trkpt>
      <trkpt lat="46.22285" lon="-1.53277">
        <ele>7.87404</ele>
        <time>2023-05-31T13:52:48.000Z</time>
      </trkpt>
      <trkpt lat="46.22287" lon="-1.53273">
        <ele>7.90741</ele>
        <time>2023-05-31T13:52:49.000Z</time>
      </trkpt>
      <trkpt lat="46.22289" lon="-1.5327">
        <ele>7.9294</ele>
        <time>2023-05-31T13:52:50.000Z</time>
      </trkpt>
      <trkpt lat="46.22291" lon="-1.53266">
        <ele>7.96112</ele>
        <time>2023-05-31T13:52:51.000Z</time>
      </trkpt>
      <trkpt lat="46.22294" lon="-1.53263">
        <ele>7.93862</ele>
        <time>2023-05-31T13:52:52.000Z</time>
      </trkpt>
      <trkpt lat="46.22296" lon="-1.5326">
        <ele>7.9231</ele>
        <time>2023-05-31T13:52:53.000Z</time>
      </trkpt>
      <trkpt lat="46.22299" lon="-1.53257">
        <ele>7.89825</ele>
        <time>2023-05-31T13:52:54.000Z</time>
      </trkpt>
      <trkpt lat="46.22302" lon="-1.53253">
        <ele>7.85281</ele>
        <time>2023-05-31T13:52:55.000Z</time>
      </trkpt>
      <trkpt lat="46.22304" lon="-1.53249">
        <ele>7.83446</ele>
        <time>2023-05-31T13:52:56.000Z</time>
      </trkpt>
      <trkpt lat="46.22307" lon="-1.53245">
        <ele>7.74386</ele>
        <time>2023-05-31T13:52:57.000Z</time>
      </trkpt>
      <trkpt lat="46.22309" lon="-1.53242">
        <ele>7.66331</ele>
        <time>2023-05-31T13:52:58.000Z</time>
      </trkpt>
      <trkpt lat="46.22312" lon="-1.53238">
        <ele>7.53366</ele>
        <time>2023-05-31T13:52:59.000Z</time>
      </trkpt>
      <trkpt lat="46.22315" lon="-1.53235">
        <ele>7.48435</ele>
        <time>2023-05-31T13:53:00.000Z</time>
      </trkpt>
      <trkpt lat="46.22317" lon="-1.53231">
        <ele>7.42086</ele>
        <time>2023-05-31T13:53:01.000Z</time>
      </trkpt>
      <trkpt lat="46.2232" lon="-1.53227">
        <ele>7.37673</ele>
        <time>2023-05-31T13:53:02.000Z</time>
      </trkpt>
      <trkpt lat="46.22323" lon="-1.53223">
        <ele>7.33749</ele>
        <time>2023-05-31T13:53:03.000Z</time>
      </trkpt>
      <trkpt lat="46.22326" lon="-1.53219">
        <ele>7.30025</ele>
        <time>2023-05-31T13:53:04.000Z</time>
      </trkpt>
      <trkpt lat="46.22328" lon="-1.53215">
        <ele>7.2701</ele>
        <time>2023-05-31T13:53:05.000Z</time>
      </trkpt>
      <trkpt lat="46.22331" lon="-1.53212">
        <ele>7.28544</ele>
        <time>2023-05-31T13:53:06.000Z</time>
      </trkpt>
      <trkpt lat="46.22334" lon="-1.53208">
        <ele>7.32514</ele>
        <time>2023-05-31T13:53:07.000Z</time>
      </trkpt>
      <trkpt lat="46.22337" lon="-1.53204">
        <ele>7.38996</ele>
        <time>2023-05-31T13:53:08.000Z</time>
      </trkpt>
      <trkpt lat="46.22339" lon="-1.532">
        <ele>7.32175</ele>
        <time>2023-05-31T13:53:09.000Z</time>
      </trkpt>
      <trkpt lat="46.22342" lon="-1.53196">
        <ele>7.27185</ele>
        <time>2023-05-31T13:53:10.000Z</time>
      </trkpt>
      <trkpt lat="46.22345" lon="-1.53192">
        <ele>7.21737</ele>
        <time>2023-05-31T13:53:11.000Z</time>
      </trkpt>
      <trkpt lat="46.22348" lon="-1.53188">
        <ele>7.17008</ele>
        <time>2023-05-31T13:53:12.000Z</time>
      </trkpt>
      <trkpt lat="46.22351" lon="-1.53184">
        <ele>7.11542</ele>
        <time>2023-05-31T13:53:13.000Z</time>
      </trkpt>
      <trkpt lat="46.22354" lon="-1.5318">
        <ele>7.06134</ele>
        <time>2023-05-31T13:53:14.000Z</time>
      </trkpt>
      <trkpt lat="46.22357" lon="-1.53177">
        <ele>7.01568</ele>
        <time>2023-05-31T13:53:15.000Z</time>
      </trkpt>
      <trkpt lat="46.2236" lon="-1.53173">
        <ele>6.94924</ele>
        <time>2023-05-31T13:53:16.000Z</time>
      </trkpt>
      <trkpt lat="46.22363" lon="-1.53169">
        <ele>6.90338</ele>
        <time>2023-05-31T13:53:17.000Z</time>
      </trkpt>
      <trkpt lat="46.22366" lon="-1.53165">
        <ele>6.85293</ele>
        <time>2023-05-31T13:53:18.000Z</time>
      </trkpt>
      <trkpt lat="46.22369" lon="-1.53161">
        <ele>6.80083</ele>
        <time>2023-05-31T13:53:19.000Z</time>
      </trkpt>
      <trkpt lat="46.22371" lon="-1.53157">
        <ele>6.74468</ele>
        <time>2023-05-31T13:53:20.000Z</time>
      </trkpt>
      <trkpt lat="46.22374" lon="-1.53153">
        <ele>6.65645</ele>
        <time>2023-05-31T13:53:21.000Z</time>
      </trkpt>
      <trkpt lat="46.22377" lon="-1.53149">
        <ele>6.58169</ele>
        <time>2023-05-31T13:53:22.000Z</time>
      </trkpt>
      <trkpt lat="46.2238" lon="-1.53144">
        <ele>6.51817</ele>
        <time>2023-05-31T13:53:23.000Z</time>
      </trkpt>
      <trkpt lat="46.22383" lon="-1.53139">
        <ele>6.45257</ele>
        <time>2023-05-31T13:53:24.000Z</time>
      </trkpt>
      <trkpt lat="46.22387" lon="-1.53135">
        <ele>6.39288</ele>
        <time>2023-05-31T13:53:25.000Z</time>
      </trkpt>
      <trkpt lat="46.2239" lon="-1.5313">
        <ele>6.26418</ele>
        <time>2023-05-31T13:53:26.000Z</time>
      </trkpt>
      <trkpt lat="46.22393" lon="-1.53126">
        <ele>6.1103</ele>
        <time>2023-05-31T13:53:27.000Z</time>
      </trkpt>
      <trkpt lat="46.22396" lon="-1.53121">
        <ele>5.9193</ele>
        <time>2023-05-31T13:53:28.000Z</time>
      </trkpt>
      <trkpt lat="46.224" lon="-1.53116">
        <ele>5.8471</ele>
        <time>2023-05-31T13:53:29.000Z</time>
      </trkpt>
      <trkpt lat="46.22403" lon="-1.53112">
        <ele>5.76519</ele>
        <time>2023-05-31T13:53:30.000Z</time>
      </trkpt>
      <trkpt lat="46.22407" lon="-1.53107">
        <ele>5.71</ele>
        <time>2023-05-31T13:53:31.000Z</time>
      </trkpt>
      <trkpt lat="46.2241" lon="-1.53103">
        <ele>5.67879</ele>
        <time>2023-05-31T13:53:32.000Z</time>
      </trkpt>
      <trkpt lat="46.22413" lon="-1.53098">
        <ele>5.65745</ele>
        <time>2023-05-31T13:53:33.000Z</time>
      </trkpt>
      <trkpt lat="46.22417" lon="-1.53094">
        <ele>5.65445</ele>
        <time>2023-05-31T13:53:34.000Z</time>
      </trkpt>
      <trkpt lat="46.2242" lon="-1.5309">
        <ele>5.64067</ele>
        <time>2023-05-31T13:53:35.000Z</time>
      </trkpt>
      <trkpt lat="46.22423" lon="-1.53085">
        <ele>5.63848</ele>
        <time>2023-05-31T13:53:36.000Z</time>
      </trkpt>
      <trkpt lat="46.22426" lon="-1.5308">
        <ele>5.63874</ele>
        <time>2023-05-31T13:53:37.000Z</time>
      </trkpt>
      <trkpt lat="46.22429" lon="-1.53076">
        <ele>5.61531</ele>
        <time>2023-05-31T13:53:38.000Z</time>
      </trkpt>
      <trkpt lat="46.22432" lon="-1.53072">
        <ele>5.62668</ele>
        <time>2023-05-31T13:53:39.000Z</time>
      </trkpt>
      <trkpt lat="46.22435" lon="-1.53068">
        <ele>5.64495</ele>
        <time>2023-05-31T13:53:40.000Z</time>
      </trkpt>
      <trkpt lat="46.22439" lon="-1.53063">
        <ele>5.69796</ele>
        <time>2023-05-31T13:53:41.000Z</time>
      </trkpt>
      <trkpt lat="46.22442" lon="-1.53058">
        <ele>5.72004</ele>
        <time>2023-05-31T13:53:42.000Z</time>
      </trkpt>
      <trkpt lat="46.22445" lon="-1.53053">
        <ele>5.72691</ele>
        <time>2023-05-31T13:53:43.000Z</time>
      </trkpt>
      <trkpt lat="46.22449" lon="-1.53048">
        <ele>5.73036</ele>
        <time>2023-05-31T13:53:44.000Z</time>
      </trkpt>
      <trkpt lat="46.22451" lon="-1.53044">
        <ele>5.75146</ele>
        <time>2023-05-31T13:53:45.000Z</time>
      </trkpt>
      <trkpt lat="46.22455" lon="-1.53039">
        <ele>5.80211</ele>
        <time>2023-05-31T13:53:46.000Z</time>
      </trkpt>
      <trkpt lat="46.22458" lon="-1.53035">
        <ele>5.86656</ele>
        <time>2023-05-31T13:53:47.000Z</time>
      </trkpt>
      <trkpt lat="46.22461" lon="-1.53031">
        <ele>5.94895</ele>
        <time>2023-05-31T13:53:48.000Z</time>
      </trkpt>
      <trkpt lat="46.22465" lon="-1.53027">
        <ele>6.04773</ele>
        <time>2023-05-31T13:53:49.000Z</time>
      </trkpt>
      <trkpt lat="46.22468" lon="-1.53023">
        <ele>6.12167</ele>
        <time>2023-05-31T13:53:50.000Z</time>
      </trkpt>
      <trkpt lat="46.22471" lon="-1.53019">
        <ele>6.18347</ele>
        <time>2023-05-31T13:53:51.000Z</time>
      </trkpt>
      <trkpt lat="46.22474" lon="-1.53015">
        <ele>6.25197</ele>
        <time>2023-05-31T13:53:52.000Z</time>
      </trkpt>
      <trkpt lat="46.22478" lon="-1.5301">
        <ele>6.33209</ele>
        <time>2023-05-31T13:53:53.000Z</time>
      </trkpt>
      <trkpt lat="46.22481" lon="-1.53006">
        <ele>6.39646</ele>
        <time>2023-05-31T13:53:54.000Z</time>
      </trkpt>
      <trkpt lat="46.22485" lon="-1.53002">
        <ele>6.46626</ele>
        <time>2023-05-31T13:53:55.000Z</time>
      </trkpt>
      <trkpt lat="46.22488" lon="-1.52997">
        <ele>6.53521</ele>
        <time>2023-05-31T13:53:56.000Z</time>
      </trkpt>
      <trkpt lat="46.2249" lon="-1.52993">
        <ele>6.57268</ele>
        <time>2023-05-31T13:53:57.000Z</time>
      </trkpt>
      <trkpt lat="46.22493" lon="-1.52989">
        <ele>6.62438</ele>
        <time>2023-05-31T13:53:58.000Z</time>
      </trkpt>
      <trkpt lat="46.22497" lon="-1.52985">
        <ele>6.6563</ele>
        <time>2023-05-31T13:53:59.000Z</time>
      </trkpt>
      <trkpt lat="46.225" lon="-1.5298">
        <ele>6.65355</ele>
        <time>2023-05-31T13:54:00.000Z</time>
      </trkpt>
      <trkpt lat="46.22503" lon="-1.52976">
        <ele>6.68097</ele>
        <time>2023-05-31T13:54:01.000Z</time>
      </trkpt>
      <trkpt lat="46.22506" lon="-1.52972">
        <ele>6.7055</ele>
        <time>2023-05-31T13:54:02.000Z</time>
      </trkpt>
      <trkpt lat="46.22509" lon="-1.52968">
        <ele>6.70972</ele>
        <time>2023-05-31T13:54:03.000Z</time>
      </trkpt>
      <trkpt lat="46.22512" lon="-1.52964">
        <ele>6.72575</ele>
        <time>2023-05-31T13:54:04.000Z</time>
      </trkpt>
      <trkpt lat="46.22515" lon="-1.5296">
        <ele>6.74436</ele>
        <time>2023-05-31T13:54:05.000Z</time>
      </trkpt>
      <trkpt lat="46.22518" lon="-1.52956">
        <ele>6.77038</ele>
        <time>2023-05-31T13:54:06.000Z</time>
      </trkpt>
      <trkpt lat="46.22521" lon="-1.52952">
        <ele>6.79667</ele>
        <time>2023-05-31T13:54:07.000Z</time>
      </trkpt>
      <trkpt lat="46.22524" lon="-1.52947">
        <ele>6.82871</ele>
        <time>2023-05-31T13:54:08.000Z</time>
      </trkpt>
      <trkpt lat="46.22527" lon="-1.52943">
        <ele>6.80993</ele>
        <time>2023-05-31T13:54:09.000Z</time>
      </trkpt>
      <trkpt lat="46.2253" lon="-1.52938">
        <ele>6.81448</ele>
        <time>2023-05-31T13:54:10.000Z</time>
      </trkpt>
      <trkpt lat="46.22533" lon="-1.52934">
        <ele>6.83732</ele>
        <time>2023-05-31T13:54:11.000Z</time>
      </trkpt>
      <trkpt lat="46.22536" lon="-1.52931">
        <ele>6.83921</ele>
        <time>2023-05-31T13:54:12.000Z</time>
      </trkpt>
      <trkpt lat="46.22538" lon="-1.52927">
        <ele>6.84077</ele>
        <time>2023-05-31T13:54:13.000Z</time>
      </trkpt>
      <trkpt lat="46.22541" lon="-1.52923">
        <ele>6.82484</ele>
        <time>2023-05-31T13:54:14.000Z</time>
      </trkpt>
      <trkpt lat="46.22543" lon="-1.52918">
        <ele>6.80343</ele>
        <time>2023-05-31T13:54:15.000Z</time>
      </trkpt>
      <trkpt lat="46.22545" lon="-1.52913">
        <ele>6.75757</ele>
        <time>2023-05-31T13:54:16.000Z</time>
      </trkpt>
      <trkpt lat="46.22545" lon="-1.52908">
        <ele>6.72098</ele>
        <time>2023-05-31T13:54:17.000Z</time>
      </trkpt>
      <trkpt lat="46.22543" lon="-1.52902">
        <ele>6.6787</ele>
        <time>2023-05-31T13:54:18.000Z</time>
      </trkpt>
      <trkpt lat="46.22541" lon="-1.52897">
        <ele>6.6342</ele>
        <time>2023-05-31T13:54:19.000Z</time>
      </trkpt>
      <trkpt lat="46.22537" lon="-1.52893">
        <ele>6.63516</ele>
        <time>2023-05-31T13:54:20.000Z</time>
      </trkpt>
      <trkpt lat="46.22534" lon="-1.52888">
        <ele>6.61444</ele>
        <time>2023-05-31T13:54:21.000Z</time>
      </trkpt>
      <trkpt lat="46.22531" lon="-1.52883">
        <ele>6.66918</ele>
        <time>2023-05-31T13:54:22.000Z</time>
      </trkpt>
      <trkpt lat="46.22529" lon="-1.52877">
        <ele>6.7522</ele>
        <time>2023-05-31T13:54:23.000Z</time>
      </trkpt>
      <trkpt lat="46.22526" lon="-1.52872">
        <ele>6.8556</ele>
        <time>2023-05-31T13:54:24.000Z</time>
      </trkpt>
      <trkpt lat="46.22523" lon="-1.52867">
        <ele>6.96082</ele>
        <time>2023-05-31T13:54:25.000Z</time>
      </trkpt>
      <trkpt lat="46.22521" lon="-1.52861">
        <ele>6.95132</ele>
        <time>2023-05-31T13:54:26.000Z</time>
      </trkpt>
      <trkpt lat="46.22518" lon="-1.52856">
        <ele>6.93439</ele>
        <time>2023-05-31T13:54:27.000Z</time>
      </trkpt>
      <trkpt lat="46.22516" lon="-1.52851">
        <ele>6.91574</ele>
        <time>2023-05-31T13:54:28.000Z</time>
      </trkpt>
      <trkpt lat="46.22513" lon="-1.52846">
        <ele>6.93851</ele>
        <time>2023-05-31T13:54:29.000Z</time>
      </trkpt>
      <trkpt lat="46.2251" lon="-1.5284">
        <ele>6.94567</ele>
        <time>2023-05-31T13:54:30.000Z</time>
      </trkpt>
      <trkpt lat="46.22507" lon="-1.52834">
        <ele>6.91776</ele>
        <time>2023-05-31T13:54:31.000Z</time>
      </trkpt>
      <trkpt lat="46.22504" lon="-1.52829">
        <ele>6.89979</ele>
        <time>2023-05-31T13:54:32.000Z</time>
      </trkpt>
      <trkpt lat="46.22501" lon="-1.52823">
        <ele>6.90589</ele>
        <time>2023-05-31T13:54:33.000Z</time>
      </trkpt>
      <trkpt lat="46.22498" lon="-1.52815">
        <ele>6.89619</ele>
        <time>2023-05-31T13:54:34.000Z</time>
      </trkpt>
      <trkpt lat="46.22495" lon="-1.52809">
        <ele>6.89125</ele>
        <time>2023-05-31T13:54:35.000Z</time>
      </trkpt>
      <trkpt lat="46.22492" lon="-1.52803">
        <ele>6.88193</ele>
        <time>2023-05-31T13:54:36.000Z</time>
      </trkpt>
      <trkpt lat="46.22489" lon="-1.52797">
        <ele>6.86647</ele>
        <time>2023-05-31T13:54:37.000Z</time>
      </trkpt>
      <trkpt lat="46.22486" lon="-1.5279">
        <ele>6.85944</ele>
        <time>2023-05-31T13:54:38.000Z</time>
      </trkpt>
      <trkpt lat="46.22484" lon="-1.52784">
        <ele>6.8618</ele>
        <time>2023-05-31T13:54:39.000Z</time>
      </trkpt>
      <trkpt lat="46.22482" lon="-1.52777">
        <ele>6.83496</ele>
        <time>2023-05-31T13:54:40.000Z</time>
      </trkpt>
      <trkpt lat="46.2248" lon="-1.5277">
        <ele>6.80157</ele>
        <time>2023-05-31T13:54:41.000Z</time>
      </trkpt>
      <trkpt lat="46.22478" lon="-1.52763">
        <ele>6.68457</ele>
        <time>2023-05-31T13:54:42.000Z</time>
      </trkpt>
      <trkpt lat="46.22475" lon="-1.52757">
        <ele>6.56746</ele>
        <time>2023-05-31T13:54:43.000Z</time>
      </trkpt>
      <trkpt lat="46.22474" lon="-1.52751">
        <ele>6.41931</ele>
        <time>2023-05-31T13:54:44.000Z</time>
      </trkpt>
      <trkpt lat="46.22471" lon="-1.52744">
        <ele>6.2616</ele>
        <time>2023-05-31T13:54:45.000Z</time>
      </trkpt>
      <trkpt lat="46.2247" lon="-1.52738">
        <ele>6.19377</ele>
        <time>2023-05-31T13:54:46.000Z</time>
      </trkpt>
      <trkpt lat="46.22468" lon="-1.52731">
        <ele>6.12786</ele>
        <time>2023-05-31T13:54:47.000Z</time>
      </trkpt>
      <trkpt lat="46.22466" lon="-1.52725">
        <ele>6.06167</ele>
        <time>2023-05-31T13:54:48.000Z</time>
      </trkpt>
      <trkpt lat="46.22465" lon="-1.52719">
        <ele>5.96919</ele>
        <time>2023-05-31T13:54:49.000Z</time>
      </trkpt>
      <trkpt lat="46.22463" lon="-1.52713">
        <ele>5.78405</ele>
        <time>2023-05-31T13:54:50.000Z</time>
      </trkpt>
      <trkpt lat="46.22461" lon="-1.52706">
        <ele>5.58504</ele>
        <time>2023-05-31T13:54:51.000Z</time>
      </trkpt>
      <trkpt lat="46.2246" lon="-1.527">
        <ele>5.36588</ele>
        <time>2023-05-31T13:54:52.000Z</time>
      </trkpt>
      <trkpt lat="46.22458" lon="-1.52694">
        <ele>5.29334</ele>
        <time>2023-05-31T13:54:53.000Z</time>
      </trkpt>
      <trkpt lat="46.22456" lon="-1.52688">
        <ele>5.20842</ele>
        <time>2023-05-31T13:54:54.000Z</time>
      </trkpt>
      <trkpt lat="46.22454" lon="-1.52682">
        <ele>4.97984</ele>
        <time>2023-05-31T13:54:55.000Z</time>
      </trkpt>
      <trkpt lat="46.22452" lon="-1.52677">
        <ele>4.77422</ele>
        <time>2023-05-31T13:54:56.000Z</time>
      </trkpt>
      <trkpt lat="46.22448" lon="-1.52671">
        <ele>4.58193</ele>
        <time>2023-05-31T13:54:57.000Z</time>
      </trkpt>
      <trkpt lat="46.22446" lon="-1.52666">
        <ele>4.40397</ele>
        <time>2023-05-31T13:54:58.000Z</time>
      </trkpt>
      <trkpt lat="46.22443" lon="-1.5266">
        <ele>4.23461</ele>
        <time>2023-05-31T13:54:59.000Z</time>
      </trkpt>
      <trkpt lat="46.22439" lon="-1.52654">
        <ele>4.33255</ele>
        <time>2023-05-31T13:55:00.000Z</time>
      </trkpt>
      <trkpt lat="46.22436" lon="-1.52648">
        <ele>4.41955</ele>
        <time>2023-05-31T13:55:01.000Z</time>
      </trkpt>
      <trkpt lat="46.22433" lon="-1.52642">
        <ele>4.53715</ele>
        <time>2023-05-31T13:55:02.000Z</time>
      </trkpt>
      <trkpt lat="46.2243" lon="-1.52636">
        <ele>4.5232</ele>
        <time>2023-05-31T13:55:03.000Z</time>
      </trkpt>
      <trkpt lat="46.22427" lon="-1.5263">
        <ele>4.51932</ele>
        <time>2023-05-31T13:55:04.000Z</time>
      </trkpt>
      <trkpt lat="46.22424" lon="-1.52624">
        <ele>4.52126</ele>
        <time>2023-05-31T13:55:05.000Z</time>
      </trkpt>
      <trkpt lat="46.22421" lon="-1.52618">
        <ele>4.53808</ele>
        <time>2023-05-31T13:55:06.000Z</time>
      </trkpt>
      <trkpt lat="46.22417" lon="-1.52611">
        <ele>4.55591</ele>
        <time>2023-05-31T13:55:07.000Z</time>
      </trkpt>
      <trkpt lat="46.22414" lon="-1.52605">
        <ele>4.56911</ele>
        <time>2023-05-31T13:55:08.000Z</time>
      </trkpt>
      <trkpt lat="46.22412" lon="-1.526">
        <ele>4.60877</ele>
        <time>2023-05-31T13:55:09.000Z</time>
      </trkpt>
      <trkpt lat="46.22409" lon="-1.52595">
        <ele>4.74384</ele>
        <time>2023-05-31T13:55:10.000Z</time>
      </trkpt>
      <trkpt lat="46.22406" lon="-1.52589">
        <ele>4.87188</ele>
        <time>2023-05-31T13:55:11.000Z</time>
      </trkpt>
      <trkpt lat="46.22403" lon="-1.52583">
        <ele>5.01859</ele>
        <time>2023-05-31T13:55:12.000Z</time>
      </trkpt>
      <trkpt lat="46.22399" lon="-1.52578">
        <ele>4.99558</ele>
        <time>2023-05-31T13:55:13.000Z</time>
      </trkpt>
      <trkpt lat="46.22396" lon="-1.52573">
        <ele>5.00267</ele>
        <time>2023-05-31T13:55:14.000Z</time>
      </trkpt>
      <trkpt lat="46.22392" lon="-1.52568">
        <ele>5.17735</ele>
        <time>2023-05-31T13:55:15.000Z</time>
      </trkpt>
      <trkpt lat="46.22389" lon="-1.52563">
        <ele>5.35848</ele>
        <time>2023-05-31T13:55:16.000Z</time>
      </trkpt>
      <trkpt lat="46.22385" lon="-1.52558">
        <ele>5.56708</ele>
        <time>2023-05-31T13:55:17.000Z</time>
      </trkpt>
      <trkpt lat="46.22381" lon="-1.52553">
        <ele>5.77035</ele>
        <time>2023-05-31T13:55:18.000Z</time>
      </trkpt>
      <trkpt lat="46.22377" lon="-1.52549">
        <ele>5.95293</ele>
        <time>2023-05-31T13:55:19.000Z</time>
      </trkpt>
      <trkpt lat="46.22372" lon="-1.52546">
        <ele>5.86773</ele>
        <time>2023-05-31T13:55:20.000Z</time>
      </trkpt>
      <trkpt lat="46.22368" lon="-1.52543">
        <ele>5.77603</ele>
        <time>2023-05-31T13:55:21.000Z</time>
      </trkpt>
      <trkpt lat="46.22364" lon="-1.52539">
        <ele>5.66778</ele>
        <time>2023-05-31T13:55:22.000Z</time>
      </trkpt>
      <trkpt lat="46.2236" lon="-1.52536">
        <ele>5.65443</ele>
        <time>2023-05-31T13:55:23.000Z</time>
      </trkpt>
      <trkpt lat="46.22355" lon="-1.52532">
        <ele>5.62228</ele>
        <time>2023-05-31T13:55:24.000Z</time>
      </trkpt>
      <trkpt lat="46.2235" lon="-1.52528">
        <ele>5.60345</ele>
        <time>2023-05-31T13:55:25.000Z</time>
      </trkpt>
      <trkpt lat="46.22345" lon="-1.52524">
        <ele>5.58813</ele>
        <time>2023-05-31T13:55:26.000Z</time>
      </trkpt>
      <trkpt lat="46.2234" lon="-1.5252">
        <ele>5.58244</ele>
        <time>2023-05-31T13:55:27.000Z</time>
      </trkpt>
      <trkpt lat="46.22335" lon="-1.52516">
        <ele>5.58434</ele>
        <time>2023-05-31T13:55:28.000Z</time>
      </trkpt>
      <trkpt lat="46.2233" lon="-1.52514">
        <ele>5.58006</ele>
        <time>2023-05-31T13:55:29.000Z</time>
      </trkpt>
      <trkpt lat="46.22326" lon="-1.52511">
        <ele>5.58288</ele>
        <time>2023-05-31T13:55:30.000Z</time>
      </trkpt>
      <trkpt lat="46.22321" lon="-1.52508">
        <ele>5.60532</ele>
        <time>2023-05-31T13:55:31.000Z</time>
      </trkpt>
      <trkpt lat="46.22315" lon="-1.52506">
        <ele>5.61267</ele>
        <time>2023-05-31T13:55:32.000Z</time>
      </trkpt>
      <trkpt lat="46.2231" lon="-1.52503">
        <ele>5.61813</ele>
        <time>2023-05-31T13:55:33.000Z</time>
      </trkpt>
      <trkpt lat="46.22306" lon="-1.525">
        <ele>5.66701</ele>
        <time>2023-05-31T13:55:34.000Z</time>
      </trkpt>
      <trkpt lat="46.22301" lon="-1.52497">
        <ele>5.69721</ele>
        <time>2023-05-31T13:55:35.000Z</time>
      </trkpt>
      <trkpt lat="46.22296" lon="-1.52494">
        <ele>5.72569</ele>
        <time>2023-05-31T13:55:36.000Z</time>
      </trkpt>
      <trkpt lat="46.22292" lon="-1.52491">
        <ele>5.71558</ele>
        <time>2023-05-31T13:55:37.000Z</time>
      </trkpt>
      <trkpt lat="46.22287" lon="-1.52487">
        <ele>5.69097</ele>
        <time>2023-05-31T13:55:38.000Z</time>
      </trkpt>
      <trkpt lat="46.22283" lon="-1.52482">
        <ele>5.67653</ele>
        <time>2023-05-31T13:55:39.000Z</time>
      </trkpt>
      <trkpt lat="46.22279" lon="-1.52477">
        <ele>5.67867</ele>
        <time>2023-05-31T13:55:40.000Z</time>
      </trkpt>
      <trkpt lat="46.22276" lon="-1.52472">
        <ele>5.69877</ele>
        <time>2023-05-31T13:55:41.000Z</time>
      </trkpt>
      <trkpt lat="46.22272" lon="-1.52466">
        <ele>5.72098</ele>
        <time>2023-05-31T13:55:42.000Z</time>
      </trkpt>
      <trkpt lat="46.22268" lon="-1.52459">
        <ele>5.77522</ele>
        <time>2023-05-31T13:55:43.000Z</time>
      </trkpt>
      <trkpt lat="46.22264" lon="-1.52454">
        <ele>5.85017</ele>
        <time>2023-05-31T13:55:44.000Z</time>
      </trkpt>
      <trkpt lat="46.2226" lon="-1.52449">
        <ele>5.89802</ele>
        <time>2023-05-31T13:55:45.000Z</time>
      </trkpt>
      <trkpt lat="46.22255" lon="-1.52444">
        <ele>5.94606</ele>
        <time>2023-05-31T13:55:46.000Z</time>
      </trkpt>
      <trkpt lat="46.22251" lon="-1.5244">
        <ele>5.98357</ele>
        <time>2023-05-31T13:55:47.000Z</time>
      </trkpt>
      <trkpt lat="46.22246" lon="-1.52437">
        <ele>6.03803</ele>
        <time>2023-05-31T13:55:48.000Z</time>
      </trkpt>
      <trkpt lat="46.22241" lon="-1.52436">
        <ele>6.07306</ele>
        <time>2023-05-31T13:55:49.000Z</time>
      </trkpt>
      <trkpt lat="46.22236" lon="-1.52434">
        <ele>6.1036</ele>
        <time>2023-05-31T13:55:50.000Z</time>
      </trkpt>
      <trkpt lat="46.22231" lon="-1.52433">
        <ele>6.17285</ele>
        <time>2023-05-31T13:55:51.000Z</time>
      </trkpt>
      <trkpt lat="46.22225" lon="-1.52431">
        <ele>6.23786</ele>
        <time>2023-05-31T13:55:52.000Z</time>
      </trkpt>
      <trkpt lat="46.2222" lon="-1.5243">
        <ele>6.29453</ele>
        <time>2023-05-31T13:55:53.000Z</time>
      </trkpt>
      <trkpt lat="46.22214" lon="-1.5243">
        <ele>6.33883</ele>
        <time>2023-05-31T13:55:54.000Z</time>
      </trkpt>
      <trkpt lat="46.22209" lon="-1.52429">
        <ele>6.38268</ele>
        <time>2023-05-31T13:55:55.000Z</time>
      </trkpt>
      <trkpt lat="46.22203" lon="-1.52428">
        <ele>6.45113</ele>
        <time>2023-05-31T13:55:56.000Z</time>
      </trkpt>
      <trkpt lat="46.22197" lon="-1.52427">
        <ele>6.52735</ele>
        <time>2023-05-31T13:55:57.000Z</time>
      </trkpt>
      <trkpt lat="46.22191" lon="-1.52426">
        <ele>6.60797</ele>
        <time>2023-05-31T13:55:58.000Z</time>
      </trkpt>
      <trkpt lat="46.22185" lon="-1.52426">
        <ele>6.6725</ele>
        <time>2023-05-31T13:55:59.000Z</time>
      </trkpt>
      <trkpt lat="46.22179" lon="-1.52426">
        <ele>6.73256</ele>
        <time>2023-05-31T13:56:00.000Z</time>
      </trkpt>
      <trkpt lat="46.22173" lon="-1.52425">
        <ele>6.77038</ele>
        <time>2023-05-31T13:56:01.000Z</time>
      </trkpt>
      <trkpt lat="46.22167" lon="-1.52424">
        <ele>6.83506</ele>
        <time>2023-05-31T13:56:02.000Z</time>
      </trkpt>
      <trkpt lat="46.22161" lon="-1.52424">
        <ele>6.88976</ele>
        <time>2023-05-31T13:56:03.000Z</time>
      </trkpt>
      <trkpt lat="46.22155" lon="-1.52422">
        <ele>6.96102</ele>
        <time>2023-05-31T13:56:04.000Z</time>
      </trkpt>
      <trkpt lat="46.22149" lon="-1.52421">
        <ele>7.03328</ele>
        <time>2023-05-31T13:56:05.000Z</time>
      </trkpt>
      <trkpt lat="46.22143" lon="-1.52419">
        <ele>7.07804</ele>
        <time>2023-05-31T13:56:06.000Z</time>
      </trkpt>
      <trkpt lat="46.22137" lon="-1.52418">
        <ele>7.09695</ele>
        <time>2023-05-31T13:56:07.000Z</time>
      </trkpt>
      <trkpt lat="46.2213" lon="-1.52416">
        <ele>7.06792</ele>
        <time>2023-05-31T13:56:08.000Z</time>
      </trkpt>
      <trkpt lat="46.22125" lon="-1.52413">
        <ele>7.07846</ele>
        <time>2023-05-31T13:56:09.000Z</time>
      </trkpt>
      <trkpt lat="46.22118" lon="-1.5241">
        <ele>7.08455</ele>
        <time>2023-05-31T13:56:10.000Z</time>
      </trkpt>
      <trkpt lat="46.22113" lon="-1.52407">
        <ele>7.06915</ele>
        <time>2023-05-31T13:56:11.000Z</time>
      </trkpt>
      <trkpt lat="46.22108" lon="-1.52404">
        <ele>7.06768</ele>
        <time>2023-05-31T13:56:12.000Z</time>
      </trkpt>
      <trkpt lat="46.22102" lon="-1.52399">
        <ele>7.07057</ele>
        <time>2023-05-31T13:56:13.000Z</time>
      </trkpt>
      <trkpt lat="46.22097" lon="-1.52395">
        <ele>7.0465</ele>
        <time>2023-05-31T13:56:14.000Z</time>
      </trkpt>
      <trkpt lat="46.22092" lon="-1.5239">
        <ele>7.01855</ele>
        <time>2023-05-31T13:56:15.000Z</time>
      </trkpt>
      <trkpt lat="46.22087" lon="-1.52385">
        <ele>6.95565</ele>
        <time>2023-05-31T13:56:16.000Z</time>
      </trkpt>
      <trkpt lat="46.22083" lon="-1.52381">
        <ele>6.89371</ele>
        <time>2023-05-31T13:56:17.000Z</time>
      </trkpt>
      <trkpt lat="46.22078" lon="-1.52375">
        <ele>6.83793</ele>
        <time>2023-05-31T13:56:18.000Z</time>
      </trkpt>
      <trkpt lat="46.22073" lon="-1.52369">
        <ele>6.80543</ele>
        <time>2023-05-31T13:56:19.000Z</time>
      </trkpt>
      <trkpt lat="46.22069" lon="-1.52365">
        <ele>6.7782</ele>
        <time>2023-05-31T13:56:20.000Z</time>
      </trkpt>
      <trkpt lat="46.22064" lon="-1.52361">
        <ele>6.75007</ele>
        <time>2023-05-31T13:56:21.000Z</time>
      </trkpt>
      <trkpt lat="46.2206" lon="-1.52356">
        <ele>6.70521</ele>
        <time>2023-05-31T13:56:22.000Z</time>
      </trkpt>
      <trkpt lat="46.22055" lon="-1.52351">
        <ele>6.65632</ele>
        <time>2023-05-31T13:56:23.000Z</time>
      </trkpt>
      <trkpt lat="46.22051" lon="-1.52346">
        <ele>6.58801</ele>
        <time>2023-05-31T13:56:24.000Z</time>
      </trkpt>
      <trkpt lat="46.22047" lon="-1.5234">
        <ele>6.50287</ele>
        <time>2023-05-31T13:56:25.000Z</time>
      </trkpt>
      <trkpt lat="46.22042" lon="-1.52334">
        <ele>6.43672</ele>
        <time>2023-05-31T13:56:26.000Z</time>
      </trkpt>
      <trkpt lat="46.22037" lon="-1.52329">
        <ele>6.38948</ele>
        <time>2023-05-31T13:56:27.000Z</time>
      </trkpt>
      <trkpt lat="46.22033" lon="-1.52323">
        <ele>6.39423</ele>
        <time>2023-05-31T13:56:28.000Z</time>
      </trkpt>
      <trkpt lat="46.22029" lon="-1.52318">
        <ele>6.37121</ele>
        <time>2023-05-31T13:56:29.000Z</time>
      </trkpt>
      <trkpt lat="46.22025" lon="-1.52312">
        <ele>6.34077</ele>
        <time>2023-05-31T13:56:30.000Z</time>
      </trkpt>
      <trkpt lat="46.22021" lon="-1.52307">
        <ele>6.29819</ele>
        <time>2023-05-31T13:56:31.000Z</time>
      </trkpt>
      <trkpt lat="46.22017" lon="-1.52302">
        <ele>6.24986</ele>
        <time>2023-05-31T13:56:32.000Z</time>
      </trkpt>
      <trkpt lat="46.22014" lon="-1.52298">
        <ele>6.17921</ele>
        <time>2023-05-31T13:56:33.000Z</time>
      </trkpt>
      <trkpt lat="46.2201" lon="-1.52293">
        <ele>6.13415</ele>
        <time>2023-05-31T13:56:34.000Z</time>
      </trkpt>
      <trkpt lat="46.22006" lon="-1.52287">
        <ele>6.09131</ele>
        <time>2023-05-31T13:56:35.000Z</time>
      </trkpt>
      <trkpt lat="46.22002" lon="-1.52281">
        <ele>6.04549</ele>
        <time>2023-05-31T13:56:36.000Z</time>
      </trkpt>
      <trkpt lat="46.21998" lon="-1.52275">
        <ele>5.99565</ele>
        <time>2023-05-31T13:56:37.000Z</time>
      </trkpt>
      <trkpt lat="46.21993" lon="-1.52268">
        <ele>5.92634</ele>
        <time>2023-05-31T13:56:38.000Z</time>
      </trkpt>
      <trkpt lat="46.2199" lon="-1.52262">
        <ele>5.86099</ele>
        <time>2023-05-31T13:56:39.000Z</time>
      </trkpt>
      <trkpt lat="46.21987" lon="-1.52255">
        <ele>5.81456</ele>
        <time>2023-05-31T13:56:40.000Z</time>
      </trkpt>
      <trkpt lat="46.21984" lon="-1.52248">
        <ele>5.80059</ele>
        <time>2023-05-31T13:56:41.000Z</time>
      </trkpt>
      <trkpt lat="46.2198" lon="-1.52242">
        <ele>5.76884</ele>
        <time>2023-05-31T13:56:42.000Z</time>
      </trkpt>
      <trkpt lat="46.21977" lon="-1.52235">
        <ele>5.73183</ele>
        <time>2023-05-31T13:56:43.000Z</time>
      </trkpt>
      <trkpt lat="46.21973" lon="-1.52229">
        <ele>5.69166</ele>
        <time>2023-05-31T13:56:44.000Z</time>
      </trkpt>
      <trkpt lat="46.2197" lon="-1.52222">
        <ele>5.75485</ele>
        <time>2023-05-31T13:56:45.000Z</time>
      </trkpt>
      <trkpt lat="46.21966" lon="-1.52216">
        <ele>5.84051</ele>
        <time>2023-05-31T13:56:46.000Z</time>
      </trkpt>
      <trkpt lat="46.21963" lon="-1.5221">
        <ele>5.9242</ele>
        <time>2023-05-31T13:56:47.000Z</time>
      </trkpt>
      <trkpt lat="46.21959" lon="-1.52204">
        <ele>5.97743</ele>
        <time>2023-05-31T13:56:48.000Z</time>
      </trkpt>
      <trkpt lat="46.21956" lon="-1.52198">
        <ele>5.9054</ele>
        <time>2023-05-31T13:56:49.000Z</time>
      </trkpt>
      <trkpt lat="46.21953" lon="-1.52192">
        <ele>5.8747</ele>
        <time>2023-05-31T13:56:50.000Z</time>
      </trkpt>
      <trkpt lat="46.21949" lon="-1.52185">
        <ele>5.84062</ele>
        <time>2023-05-31T13:56:51.000Z</time>
      </trkpt>
      <trkpt lat="46.21946" lon="-1.52179">
        <ele>5.83576</ele>
        <time>2023-05-31T13:56:52.000Z</time>
      </trkpt>
      <trkpt lat="46.21942" lon="-1.52173">
        <ele>5.86753</ele>
        <time>2023-05-31T13:56:53.000Z</time>
      </trkpt>
      <trkpt lat="46.21939" lon="-1.52167">
        <ele>5.856</ele>
        <time>2023-05-31T13:56:54.000Z</time>
      </trkpt>
      <trkpt lat="46.21935" lon="-1.52162">
        <ele>5.83691</ele>
        <time>2023-05-31T13:56:55.000Z</time>
      </trkpt>
      <trkpt lat="46.21932" lon="-1.52156">
        <ele>5.83266</ele>
        <time>2023-05-31T13:56:56.000Z</time>
      </trkpt>
      <trkpt lat="46.21929" lon="-1.52151">
        <ele>5.83244</ele>
        <time>2023-05-31T13:56:57.000Z</time>
      </trkpt>
      <trkpt lat="46.21927" lon="-1.52144">
        <ele>5.84427</ele>
        <time>2023-05-31T13:56:58.000Z</time>
      </trkpt>
      <trkpt lat="46.21925" lon="-1.52137">
        <ele>5.83419</ele>
        <time>2023-05-31T13:56:59.000Z</time>
      </trkpt>
      <trkpt lat="46.21923" lon="-1.5213">
        <ele>5.78007</ele>
        <time>2023-05-31T13:57:00.000Z</time>
      </trkpt>
      <trkpt lat="46.21922" lon="-1.52121">
        <ele>5.71163</ele>
        <time>2023-05-31T13:57:01.000Z</time>
      </trkpt>
      <trkpt lat="46.21923" lon="-1.52113">
        <ele>5.64247</ele>
        <time>2023-05-31T13:57:02.000Z</time>
      </trkpt>
      <trkpt lat="46.21924" lon="-1.52104">
        <ele>5.57065</ele>
        <time>2023-05-31T13:57:03.000Z</time>
      </trkpt>
      <trkpt lat="46.21925" lon="-1.52095">
        <ele>5.48479</ele>
        <time>2023-05-31T13:57:04.000Z</time>
      </trkpt>
      <trkpt lat="46.21926" lon="-1.52086">
        <ele>5.31958</ele>
        <time>2023-05-31T13:57:05.000Z</time>
      </trkpt>
      <trkpt lat="46.21927" lon="-1.52078">
        <ele>5.19668</ele>
        <time>2023-05-31T13:57:06.000Z</time>
      </trkpt>
      <trkpt lat="46.21927" lon="-1.52071">
        <ele>4.89197</ele>
        <time>2023-05-31T13:57:07.000Z</time>
      </trkpt>
      <trkpt lat="46.21927" lon="-1.52063">
        <ele>4.61012</ele>
        <time>2023-05-31T13:57:08.000Z</time>
      </trkpt>
      <trkpt lat="46.21925" lon="-1.52056">
        <ele>4.46755</ele>
        <time>2023-05-31T13:57:09.000Z</time>
      </trkpt>
      <trkpt lat="46.21922" lon="-1.5205">
        <ele>4.2974</ele>
        <time>2023-05-31T13:57:10.000Z</time>
      </trkpt>
      <trkpt lat="46.21919" lon="-1.52045">
        <ele>4.14639</ele>
        <time>2023-05-31T13:57:11.000Z</time>
      </trkpt>
      <trkpt lat="46.21914" lon="-1.52041">
        <ele>3.95285</ele>
        <time>2023-05-31T13:57:12.000Z</time>
      </trkpt>
      <trkpt lat="46.2191" lon="-1.52037">
        <ele>3.74543</ele>
        <time>2023-05-31T13:57:13.000Z</time>
      </trkpt>
      <trkpt lat="46.21905" lon="-1.52033">
        <ele>3.77707</ele>
        <time>2023-05-31T13:57:14.000Z</time>
      </trkpt>
      <trkpt lat="46.21901" lon="-1.52029">
        <ele>3.79591</ele>
        <time>2023-05-31T13:57:15.000Z</time>
      </trkpt>
      <trkpt lat="46.21896" lon="-1.52025">
        <ele>3.80481</ele>
        <time>2023-05-31T13:57:16.000Z</time>
      </trkpt>
      <trkpt lat="46.21892" lon="-1.52022">
        <ele>3.8083</ele>
        <time>2023-05-31T13:57:17.000Z</time>
      </trkpt>
      <trkpt lat="46.21887" lon="-1.52018">
        <ele>3.82466</ele>
        <time>2023-05-31T13:57:18.000Z</time>
      </trkpt>
      <trkpt lat="46.21883" lon="-1.52014">
        <ele>3.68758</ele>
        <time>2023-05-31T13:57:19.000Z</time>
      </trkpt>
      <trkpt lat="46.21879" lon="-1.5201">
        <ele>3.53426</ele>
        <time>2023-05-31T13:57:20.000Z</time>
      </trkpt>
      <trkpt lat="46.21875" lon="-1.52006">
        <ele>3.70503</ele>
        <time>2023-05-31T13:57:21.000Z</time>
      </trkpt>
      <trkpt lat="46.21871" lon="-1.52002">
        <ele>3.78989</ele>
        <time>2023-05-31T13:57:22.000Z</time>
      </trkpt>
      <trkpt lat="46.21866" lon="-1.51998">
        <ele>3.90469</ele>
        <time>2023-05-31T13:57:23.000Z</time>
      </trkpt>
      <trkpt lat="46.21862" lon="-1.51994">
        <ele>4.03876</ele>
        <time>2023-05-31T13:57:24.000Z</time>
      </trkpt>
      <trkpt lat="46.21857" lon="-1.5199">
        <ele>4.1587</ele>
        <time>2023-05-31T13:57:25.000Z</time>
      </trkpt>
      <trkpt lat="46.21853" lon="-1.51985">
        <ele>4.24119</ele>
        <time>2023-05-31T13:57:26.000Z</time>
      </trkpt>
      <trkpt lat="46.21848" lon="-1.51981">
        <ele>4.53023</ele>
        <time>2023-05-31T13:57:27.000Z</time>
      </trkpt>
      <trkpt lat="46.21844" lon="-1.51977">
        <ele>4.79931</ele>
        <time>2023-05-31T13:57:28.000Z</time>
      </trkpt>
      <trkpt lat="46.21839" lon="-1.51973">
        <ele>5.06333</ele>
        <time>2023-05-31T13:57:29.000Z</time>
      </trkpt>
      <trkpt lat="46.21834" lon="-1.51968">
        <ele>5.37005</ele>
        <time>2023-05-31T13:57:30.000Z</time>
      </trkpt>
      <trkpt lat="46.21829" lon="-1.51964">
        <ele>5.66729</ele>
        <time>2023-05-31T13:57:31.000Z</time>
      </trkpt>
      <trkpt lat="46.21824" lon="-1.51961">
        <ele>5.98244</ele>
        <time>2023-05-31T13:57:32.000Z</time>
      </trkpt>
      <trkpt lat="46.2182" lon="-1.51957">
        <ele>6.29016</ele>
        <time>2023-05-31T13:57:33.000Z</time>
      </trkpt>
      <trkpt lat="46.21815" lon="-1.51953">
        <ele>6.28613</ele>
        <time>2023-05-31T13:57:34.000Z</time>
      </trkpt>
      <trkpt lat="46.21811" lon="-1.51949">
        <ele>6.32734</ele>
        <time>2023-05-31T13:57:35.000Z</time>
      </trkpt>
      <trkpt lat="46.21806" lon="-1.51946">
        <ele>6.36177</ele>
        <time>2023-05-31T13:57:36.000Z</time>
      </trkpt>
      <trkpt lat="46.21802" lon="-1.51944">
        <ele>6.39633</ele>
        <time>2023-05-31T13:57:37.000Z</time>
      </trkpt>
      <trkpt lat="46.21798" lon="-1.51941">
        <ele>6.41322</ele>
        <time>2023-05-31T13:57:38.000Z</time>
      </trkpt>
      <trkpt lat="46.21794" lon="-1.51937">
        <ele>6.597</ele>
        <time>2023-05-31T13:57:39.000Z</time>
      </trkpt>
      <trkpt lat="46.21791" lon="-1.51932">
        <ele>6.81092</ele>
        <time>2023-05-31T13:57:40.000Z</time>
      </trkpt>
      <trkpt lat="46.21788" lon="-1.51927">
        <ele>6.69435</ele>
        <time>2023-05-31T13:57:41.000Z</time>
      </trkpt>
      <trkpt lat="46.21786" lon="-1.51921">
        <ele>6.68147</ele>
        <time>2023-05-31T13:57:42.000Z</time>
      </trkpt>
      <trkpt lat="46.21784" lon="-1.51916">
        <ele>6.63649</ele>
        <time>2023-05-31T13:57:43.000Z</time>
      </trkpt>
      <trkpt lat="46.21781" lon="-1.5191">
        <ele>6.64401</ele>
        <time>2023-05-31T13:57:44.000Z</time>
      </trkpt>
      <trkpt lat="46.21777" lon="-1.51905">
        <ele>6.7187</ele>
        <time>2023-05-31T13:57:45.000Z</time>
      </trkpt>
      <trkpt lat="46.21773" lon="-1.51901">
        <ele>6.79543</ele>
        <time>2023-05-31T13:57:46.000Z</time>
      </trkpt>
      <trkpt lat="46.21769" lon="-1.51897">
        <ele>6.74291</ele>
        <time>2023-05-31T13:57:47.000Z</time>
      </trkpt>
      <trkpt lat="46.21765" lon="-1.51894">
        <ele>6.70498</ele>
        <time>2023-05-31T13:57:48.000Z</time>
      </trkpt>
      <trkpt lat="46.21761" lon="-1.5189">
        <ele>6.66456</ele>
        <time>2023-05-31T13:57:49.000Z</time>
      </trkpt>
      <trkpt lat="46.21756" lon="-1.51887">
        <ele>6.55972</ele>
        <time>2023-05-31T13:57:50.000Z</time>
      </trkpt>
      <trkpt lat="46.21752" lon="-1.51883">
        <ele>6.45485</ele>
        <time>2023-05-31T13:57:51.000Z</time>
      </trkpt>
      <trkpt lat="46.21748" lon="-1.5188">
        <ele>6.34979</ele>
        <time>2023-05-31T13:57:52.000Z</time>
      </trkpt>
      <trkpt lat="46.21743" lon="-1.51876">
        <ele>6.2374</ele>
        <time>2023-05-31T13:57:53.000Z</time>
      </trkpt>
      <trkpt lat="46.21739" lon="-1.51872">
        <ele>6.22511</ele>
        <time>2023-05-31T13:57:54.000Z</time>
      </trkpt>
      <trkpt lat="46.21734" lon="-1.51869">
        <ele>6.18193</ele>
        <time>2023-05-31T13:57:55.000Z</time>
      </trkpt>
      <trkpt lat="46.21729" lon="-1.51865">
        <ele>6.14797</ele>
        <time>2023-05-31T13:57:56.000Z</time>
      </trkpt>
      <trkpt lat="46.21724" lon="-1.51862">
        <ele>6.11102</ele>
        <time>2023-05-31T13:57:57.000Z</time>
      </trkpt>
      <trkpt lat="46.21719" lon="-1.51861">
        <ele>6.07536</ele>
        <time>2023-05-31T13:57:58.000Z</time>
      </trkpt>
      <trkpt lat="46.21713" lon="-1.51859">
        <ele>5.88121</ele>
        <time>2023-05-31T13:57:59.000Z</time>
      </trkpt>
      <trkpt lat="46.21708" lon="-1.51858">
        <ele>5.67931</ele>
        <time>2023-05-31T13:58:00.000Z</time>
      </trkpt>
      <trkpt lat="46.21702" lon="-1.51856">
        <ele>5.49287</ele>
        <time>2023-05-31T13:58:01.000Z</time>
      </trkpt>
      <trkpt lat="46.21697" lon="-1.51855">
        <ele>5.29504</ele>
        <time>2023-05-31T13:58:02.000Z</time>
      </trkpt>
      <trkpt lat="46.21691" lon="-1.51855">
        <ele>5.1116</ele>
        <time>2023-05-31T13:58:03.000Z</time>
      </trkpt>
      <trkpt lat="46.21686" lon="-1.51855">
        <ele>4.86253</ele>
        <time>2023-05-31T13:58:04.000Z</time>
      </trkpt>
      <trkpt lat="46.21681" lon="-1.51855">
        <ele>4.55796</ele>
        <time>2023-05-31T13:58:05.000Z</time>
      </trkpt>
      <trkpt lat="46.21675" lon="-1.51856">
        <ele>4.21162</ele>
        <time>2023-05-31T13:58:06.000Z</time>
      </trkpt>
      <trkpt lat="46.2167" lon="-1.51856">
        <ele>3.97177</ele>
        <time>2023-05-31T13:58:07.000Z</time>
      </trkpt>
      <trkpt lat="46.21665" lon="-1.51858">
        <ele>3.68959</ele>
        <time>2023-05-31T13:58:08.000Z</time>
      </trkpt>
      <trkpt lat="46.2166" lon="-1.51858">
        <ele>3.40574</ele>
        <time>2023-05-31T13:58:09.000Z</time>
      </trkpt>
      <trkpt lat="46.21654" lon="-1.51856">
        <ele>3.13869</ele>
        <time>2023-05-31T13:58:10.000Z</time>
      </trkpt>
      <trkpt lat="46.21649" lon="-1.51855">
        <ele>2.85386</ele>
        <time>2023-05-31T13:58:11.000Z</time>
      </trkpt>
      <trkpt lat="46.21644" lon="-1.51852">
        <ele>2.60843</ele>
        <time>2023-05-31T13:58:12.000Z</time>
      </trkpt>
      <trkpt lat="46.21639" lon="-1.51849">
        <ele>2.38805</ele>
        <time>2023-05-31T13:58:13.000Z</time>
      </trkpt>
      <trkpt lat="46.21633" lon="-1.51845">
        <ele>2.1736</ele>
        <time>2023-05-31T13:58:14.000Z</time>
      </trkpt>
      <trkpt lat="46.21628" lon="-1.51843">
        <ele>1.96271</ele>
        <time>2023-05-31T13:58:15.000Z</time>
      </trkpt>
      <trkpt lat="46.21624" lon="-1.51839">
        <ele>1.75605</ele>
        <time>2023-05-31T13:58:16.000Z</time>
      </trkpt>
      <trkpt lat="46.21619" lon="-1.51836">
        <ele>1.55703</ele>
        <time>2023-05-31T13:58:17.000Z</time>
      </trkpt>
      <trkpt lat="46.21614" lon="-1.51832">
        <ele>1.36724</ele>
        <time>2023-05-31T13:58:18.000Z</time>
      </trkpt>
      <trkpt lat="46.21609" lon="-1.51829">
        <ele>1.32326</ele>
        <time>2023-05-31T13:58:19.000Z</time>
      </trkpt>
      <trkpt lat="46.21605" lon="-1.51825">
        <ele>1.30406</ele>
        <time>2023-05-31T13:58:20.000Z</time>
      </trkpt>
      <trkpt lat="46.216" lon="-1.51821">
        <ele>1.27028</ele>
        <time>2023-05-31T13:58:21.000Z</time>
      </trkpt>
      <trkpt lat="46.21596" lon="-1.51817">
        <ele>1.24148</ele>
        <time>2023-05-31T13:58:22.000Z</time>
      </trkpt>
      <trkpt lat="46.21592" lon="-1.51812">
        <ele>1.22657</ele>
        <time>2023-05-31T13:58:23.000Z</time>
      </trkpt>
      <trkpt lat="46.21588" lon="-1.51809">
        <ele>1.22261</ele>
        <time>2023-05-31T13:58:24.000Z</time>
      </trkpt>
      <trkpt lat="46.21583" lon="-1.51805">
        <ele>1.22977</ele>
        <time>2023-05-31T13:58:25.000Z</time>
      </trkpt>
      <trkpt lat="46.21579" lon="-1.51801">
        <ele>1.26037</ele>
        <time>2023-05-31T13:58:26.000Z</time>
      </trkpt>
      <trkpt lat="46.21575" lon="-1.51798">
        <ele>1.29244</ele>
        <time>2023-05-31T13:58:27.000Z</time>
      </trkpt>
      <trkpt lat="46.21571" lon="-1.51794">
        <ele>1.35652</ele>
        <time>2023-05-31T13:58:28.000Z</time>
      </trkpt>
      <trkpt lat="46.21567" lon="-1.5179">
        <ele>1.40888</ele>
        <time>2023-05-31T13:58:29.000Z</time>
      </trkpt>
      <trkpt lat="46.21563" lon="-1.51787">
        <ele>1.48191</ele>
        <time>2023-05-31T13:58:30.000Z</time>
      </trkpt>
      <trkpt lat="46.21559" lon="-1.51783">
        <ele>1.57174</ele>
        <time>2023-05-31T13:58:31.000Z</time>
      </trkpt>
      <trkpt lat="46.21555" lon="-1.5178">
        <ele>1.63313</ele>
        <time>2023-05-31T13:58:32.000Z</time>
      </trkpt>
      <trkpt lat="46.21551" lon="-1.51776">
        <ele>1.68926</ele>
        <time>2023-05-31T13:58:33.000Z</time>
      </trkpt>
      <trkpt lat="46.21547" lon="-1.51772">
        <ele>1.74499</ele>
        <time>2023-05-31T13:58:34.000Z</time>
      </trkpt>
      <trkpt lat="46.21543" lon="-1.51768">
        <ele>1.83248</ele>
        <time>2023-05-31T13:58:35.000Z</time>
      </trkpt>
      <trkpt lat="46.2154" lon="-1.51763">
        <ele>1.92188</ele>
        <time>2023-05-31T13:58:36.000Z</time>
      </trkpt>
      <trkpt lat="46.21537" lon="-1.51758">
        <ele>2.01638</ele>
        <time>2023-05-31T13:58:37.000Z</time>
      </trkpt>
      <trkpt lat="46.21533" lon="-1.51752">
        <ele>2.11815</ele>
        <time>2023-05-31T13:58:38.000Z</time>
      </trkpt>
      <trkpt lat="46.2153" lon="-1.51746">
        <ele>2.23306</ele>
        <time>2023-05-31T13:58:39.000Z</time>
      </trkpt>
      <trkpt lat="46.21528" lon="-1.5174">
        <ele>2.35003</ele>
        <time>2023-05-31T13:58:40.000Z</time>
      </trkpt>
      <trkpt lat="46.21525" lon="-1.51734">
        <ele>2.4732</ele>
        <time>2023-05-31T13:58:41.000Z</time>
      </trkpt>
      <trkpt lat="46.21523" lon="-1.51728">
        <ele>2.5879</ele>
        <time>2023-05-31T13:58:42.000Z</time>
      </trkpt>
      <trkpt lat="46.2152" lon="-1.51722">
        <ele>2.64938</ele>
        <time>2023-05-31T13:58:43.000Z</time>
      </trkpt>
      <trkpt lat="46.21516" lon="-1.51717">
        <ele>2.70018</ele>
        <time>2023-05-31T13:58:44.000Z</time>
      </trkpt>
      <trkpt lat="46.21513" lon="-1.51712">
        <ele>2.74048</ele>
        <time>2023-05-31T13:58:45.000Z</time>
      </trkpt>
      <trkpt lat="46.2151" lon="-1.51706">
        <ele>2.75816</ele>
        <time>2023-05-31T13:58:46.000Z</time>
      </trkpt>
      <trkpt lat="46.21506" lon="-1.517">
        <ele>2.80758</ele>
        <time>2023-05-31T13:58:47.000Z</time>
      </trkpt>
      <trkpt lat="46.21503" lon="-1.51695">
        <ele>2.83347</ele>
        <time>2023-05-31T13:58:48.000Z</time>
      </trkpt>
      <trkpt lat="46.215" lon="-1.5169">
        <ele>2.85559</ele>
        <time>2023-05-31T13:58:49.000Z</time>
      </trkpt>
      <trkpt lat="46.21497" lon="-1.51689">
        <ele>2.8388</ele>
        <time>2023-05-31T13:58:50.000Z</time>
      </trkpt>
      <trkpt lat="46.21495" lon="-1.51689">
        <ele>2.81999</ele>
        <time>2023-05-31T13:58:51.000Z</time>
      </trkpt>
      <trkpt lat="46.21492" lon="-1.51688">
        <ele>2.80997</ele>
        <time>2023-05-31T13:58:52.000Z</time>
      </trkpt>
      <trkpt lat="46.21489" lon="-1.51689">
        <ele>2.77583</ele>
        <time>2023-05-31T13:58:53.000Z</time>
      </trkpt>
      <trkpt lat="46.21487" lon="-1.51689">
        <ele>2.74026</ele>
        <time>2023-05-31T13:58:54.000Z</time>
      </trkpt>
      <trkpt lat="46.21484" lon="-1.51688">
        <ele>2.68881</ele>
        <time>2023-05-31T13:58:55.000Z</time>
      </trkpt>
      <trkpt lat="46.21482" lon="-1.51686">
        <ele>2.62963</ele>
        <time>2023-05-31T13:58:56.000Z</time>
      </trkpt>
      <trkpt lat="46.21481" lon="-1.51684">
        <ele>2.5844</ele>
        <time>2023-05-31T13:58:57.000Z</time>
      </trkpt>
      <trkpt lat="46.2148" lon="-1.51681">
        <ele>2.57153</ele>
        <time>2023-05-31T13:59:04.000Z</time>
      </trkpt>
      <trkpt lat="46.21478" lon="-1.51678">
        <ele>2.56121</ele>
        <time>2023-05-31T13:59:06.000Z</time>
      </trkpt>
      <trkpt lat="46.21475" lon="-1.51677">
        <ele>2.55028</ele>
        <time>2023-05-31T13:59:07.000Z</time>
      </trkpt>
      <trkpt lat="46.21472" lon="-1.51676">
        <ele>2.54574</ele>
        <time>2023-05-31T13:59:08.000Z</time>
      </trkpt>
      <trkpt lat="46.21469" lon="-1.51673">
        <ele>2.55677</ele>
        <time>2023-05-31T13:59:09.000Z</time>
      </trkpt>
      <trkpt lat="46.21467" lon="-1.51671">
        <ele>2.60704</ele>
        <time>2023-05-31T13:59:10.000Z</time>
      </trkpt>
      <trkpt lat="46.21464" lon="-1.51668">
        <ele>2.63678</ele>
        <time>2023-05-31T13:59:11.000Z</time>
      </trkpt>
      <trkpt lat="46.21462" lon="-1.51666">
        <ele>2.66531</ele>
        <time>2023-05-31T13:59:12.000Z</time>
      </trkpt>
      <trkpt lat="46.21459" lon="-1.51663">
        <ele>2.7008</ele>
        <time>2023-05-31T13:59:13.000Z</time>
      </trkpt>
      <trkpt lat="46.21455" lon="-1.51661">
        <ele>2.68334</ele>
        <time>2023-05-31T13:59:14.000Z</time>
      </trkpt>
      <trkpt lat="46.21452" lon="-1.51659">
        <ele>2.68694</ele>
        <time>2023-05-31T13:59:15.000Z</time>
      </trkpt>
      <trkpt lat="46.21448" lon="-1.51656">
        <ele>2.69021</ele>
        <time>2023-05-31T13:59:16.000Z</time>
      </trkpt>
      <trkpt lat="46.21444" lon="-1.51654">
        <ele>2.73223</ele>
        <time>2023-05-31T13:59:17.000Z</time>
      </trkpt>
      <trkpt lat="46.21441" lon="-1.51652">
        <ele>2.77533</ele>
        <time>2023-05-31T13:59:18.000Z</time>
      </trkpt>
      <trkpt lat="46.21437" lon="-1.5165">
        <ele>2.82864</ele>
        <time>2023-05-31T13:59:19.000Z</time>
      </trkpt>
      <trkpt lat="46.21433" lon="-1.51649">
        <ele>2.92163</ele>
        <time>2023-05-31T13:59:20.000Z</time>
      </trkpt>
      <trkpt lat="46.21428" lon="-1.51648">
        <ele>3.01272</ele>
        <time>2023-05-31T13:59:21.000Z</time>
      </trkpt>
      <trkpt lat="46.21424" lon="-1.51646">
        <ele>3.08896</ele>
        <time>2023-05-31T13:59:22.000Z</time>
      </trkpt>
      <trkpt lat="46.2142" lon="-1.51645">
        <ele>3.17871</ele>
        <time>2023-05-31T13:59:23.000Z</time>
      </trkpt>
      <trkpt lat="46.21416" lon="-1.51644">
        <ele>3.24408</ele>
        <time>2023-05-31T13:59:24.000Z</time>
      </trkpt>
      <trkpt lat="46.21412" lon="-1.51643">
        <ele>3.29374</ele>
        <time>2023-05-31T13:59:25.000Z</time>
      </trkpt>
      <trkpt lat="46.21408" lon="-1.51642">
        <ele>3.32944</ele>
        <time>2023-05-31T13:59:26.000Z</time>
      </trkpt>
      <trkpt lat="46.21404" lon="-1.51641">
        <ele>3.2993</ele>
        <time>2023-05-31T13:59:27.000Z</time>
      </trkpt>
      <trkpt lat="46.214" lon="-1.51639">
        <ele>3.26058</ele>
        <time>2023-05-31T13:59:28.000Z</time>
      </trkpt>
      <trkpt lat="46.21396" lon="-1.51638">
        <ele>3.22123</ele>
        <time>2023-05-31T13:59:29.000Z</time>
      </trkpt>
      <trkpt lat="46.21392" lon="-1.51638">
        <ele>3.21753</ele>
        <time>2023-05-31T13:59:30.000Z</time>
      </trkpt>
      <trkpt lat="46.21388" lon="-1.51638">
        <ele>3.24211</ele>
        <time>2023-05-31T13:59:31.000Z</time>
      </trkpt>
      <trkpt lat="46.21384" lon="-1.51639">
        <ele>3.27749</ele>
        <time>2023-05-31T13:59:32.000Z</time>
      </trkpt>
      <trkpt lat="46.21381" lon="-1.51641">
        <ele>3.30956</ele>
        <time>2023-05-31T13:59:33.000Z</time>
      </trkpt>
      <trkpt lat="46.21377" lon="-1.51644">
        <ele>3.34727</ele>
        <time>2023-05-31T13:59:34.000Z</time>
      </trkpt>
      <trkpt lat="46.21375" lon="-1.51649">
        <ele>3.36947</ele>
        <time>2023-05-31T13:59:35.000Z</time>
      </trkpt>
      <trkpt lat="46.21373" lon="-1.51654">
        <ele>3.39206</ele>
        <time>2023-05-31T13:59:36.000Z</time>
      </trkpt>
      <trkpt lat="46.2137" lon="-1.5166">
        <ele>3.38876</ele>
        <time>2023-05-31T13:59:37.000Z</time>
      </trkpt>
      <trkpt lat="46.21368" lon="-1.51665">
        <ele>3.38728</ele>
        <time>2023-05-31T13:59:38.000Z</time>
      </trkpt>
      <trkpt lat="46.21366" lon="-1.51671">
        <ele>3.35632</ele>
        <time>2023-05-31T13:59:39.000Z</time>
      </trkpt>
      <trkpt lat="46.21363" lon="-1.51676">
        <ele>3.33383</ele>
        <time>2023-05-31T13:59:40.000Z</time>
      </trkpt>
      <trkpt lat="46.21361" lon="-1.51681">
        <ele>3.32533</ele>
        <time>2023-05-31T13:59:41.000Z</time>
      </trkpt>
      <trkpt lat="46.21358" lon="-1.51686">
        <ele>3.32094</ele>
        <time>2023-05-31T13:59:42.000Z</time>
      </trkpt>
      <trkpt lat="46.21356" lon="-1.51691">
        <ele>3.31691</ele>
        <time>2023-05-31T13:59:43.000Z</time>
      </trkpt>
      <trkpt lat="46.21354" lon="-1.51696">
        <ele>3.33013</ele>
        <time>2023-05-31T13:59:44.000Z</time>
      </trkpt>
      <trkpt lat="46.21351" lon="-1.51701">
        <ele>3.3065</ele>
        <time>2023-05-31T13:59:45.000Z</time>
      </trkpt>
      <trkpt lat="46.2135" lon="-1.51706">
        <ele>3.28243</ele>
        <time>2023-05-31T13:59:46.000Z</time>
      </trkpt>
      <trkpt lat="46.21347" lon="-1.51711">
        <ele>3.29419</ele>
        <time>2023-05-31T13:59:47.000Z</time>
      </trkpt>
      <trkpt lat="46.21343" lon="-1.51715">
        <ele>3.30804</ele>
        <time>2023-05-31T13:59:48.000Z</time>
      </trkpt>
      <trkpt lat="46.2134" lon="-1.51719">
        <ele>3.30574</ele>
        <time>2023-05-31T13:59:49.000Z</time>
      </trkpt>
      <trkpt lat="46.21336" lon="-1.51722">
        <ele>3.28728</ele>
        <time>2023-05-31T13:59:50.000Z</time>
      </trkpt>
      <trkpt lat="46.21332" lon="-1.51725">
        <ele>3.24822</ele>
        <time>2023-05-31T13:59:51.000Z</time>
      </trkpt>
      <trkpt lat="46.21327" lon="-1.51726">
        <ele>3.21579</ele>
        <time>2023-05-31T13:59:52.000Z</time>
      </trkpt>
      <trkpt lat="46.21322" lon="-1.51727">
        <ele>3.18888</ele>
        <time>2023-05-31T13:59:53.000Z</time>
      </trkpt>
      <trkpt lat="46.21319" lon="-1.51728">
        <ele>3.17662</ele>
        <time>2023-05-31T13:59:54.000Z</time>
      </trkpt>
      <trkpt lat="46.21314" lon="-1.5173">
        <ele>3.18259</ele>
        <time>2023-05-31T13:59:55.000Z</time>
      </trkpt>
      <trkpt lat="46.2131" lon="-1.51731">
        <ele>3.20417</ele>
        <time>2023-05-31T13:59:56.000Z</time>
      </trkpt>
      <trkpt lat="46.21305" lon="-1.51733">
        <ele>3.2318</ele>
        <time>2023-05-31T13:59:57.000Z</time>
      </trkpt>
      <trkpt lat="46.21301" lon="-1.51735">
        <ele>3.25848</ele>
        <time>2023-05-31T13:59:58.000Z</time>
      </trkpt>
      <trkpt lat="46.21296" lon="-1.51737">
        <ele>3.32211</ele>
        <time>2023-05-31T13:59:59.000Z</time>
      </trkpt>
      <trkpt lat="46.21292" lon="-1.5174">
        <ele>3.35457</ele>
        <time>2023-05-31T14:00:00.000Z</time>
      </trkpt>
      <trkpt lat="46.21288" lon="-1.51743">
        <ele>3.37375</ele>
        <time>2023-05-31T14:00:01.000Z</time>
      </trkpt>
      <trkpt lat="46.21283" lon="-1.51746">
        <ele>3.38539</ele>
        <time>2023-05-31T14:00:02.000Z</time>
      </trkpt>
      <trkpt lat="46.21279" lon="-1.5175">
        <ele>3.37619</ele>
        <time>2023-05-31T14:00:03.000Z</time>
      </trkpt>
      <trkpt lat="46.21276" lon="-1.51753">
        <ele>3.34564</ele>
        <time>2023-05-31T14:00:04.000Z</time>
      </trkpt>
      <trkpt lat="46.21272" lon="-1.51756">
        <ele>3.34068</ele>
        <time>2023-05-31T14:00:05.000Z</time>
      </trkpt>
      <trkpt lat="46.21268" lon="-1.51759">
        <ele>3.3549</ele>
        <time>2023-05-31T14:00:06.000Z</time>
      </trkpt>
      <trkpt lat="46.21264" lon="-1.51763">
        <ele>3.37119</ele>
        <time>2023-05-31T14:00:07.000Z</time>
      </trkpt>
      <trkpt lat="46.2126" lon="-1.51766">
        <ele>3.38347</ele>
        <time>2023-05-31T14:00:08.000Z</time>
      </trkpt>
      <trkpt lat="46.21257" lon="-1.5177">
        <ele>3.39823</ele>
        <time>2023-05-31T14:00:09.000Z</time>
      </trkpt>
      <trkpt lat="46.21254" lon="-1.51774">
        <ele>3.38796</ele>
        <time>2023-05-31T14:00:10.000Z</time>
      </trkpt>
      <trkpt lat="46.21252" lon="-1.51778">
        <ele>3.37015</ele>
        <time>2023-05-31T14:00:11.000Z</time>
      </trkpt>
      <trkpt lat="46.21247" lon="-1.51783">
        <ele>3.33046</ele>
        <time>2023-05-31T14:00:12.000Z</time>
      </trkpt>
      <trkpt lat="46.21244" lon="-1.51787">
        <ele>3.31758</ele>
        <time>2023-05-31T14:00:13.000Z</time>
      </trkpt>
      <trkpt lat="46.2124" lon="-1.51793">
        <ele>3.29192</ele>
        <time>2023-05-31T14:00:14.000Z</time>
      </trkpt>
      <trkpt lat="46.21237" lon="-1.51799">
        <ele>3.24274</ele>
        <time>2023-05-31T14:00:15.000Z</time>
      </trkpt>
      <trkpt lat="46.21234" lon="-1.51804">
        <ele>3.20686</ele>
        <time>2023-05-31T14:00:16.000Z</time>
      </trkpt>
      <trkpt lat="46.21231" lon="-1.51809">
        <ele>3.19711</ele>
        <time>2023-05-31T14:00:17.000Z</time>
      </trkpt>
      <trkpt lat="46.21228" lon="-1.51815">
        <ele>3.18757</ele>
        <time>2023-05-31T14:00:18.000Z</time>
      </trkpt>
      <trkpt lat="46.21225" lon="-1.5182">
        <ele>3.13735</ele>
        <time>2023-05-31T14:00:19.000Z</time>
      </trkpt>
      <trkpt lat="46.21222" lon="-1.51825">
        <ele>3.07262</ele>
        <time>2023-05-31T14:00:20.000Z</time>
      </trkpt>
      <trkpt lat="46.2122" lon="-1.5183">
        <ele>3.01605</ele>
        <time>2023-05-31T14:00:21.000Z</time>
      </trkpt>
      <trkpt lat="46.21217" lon="-1.51835">
        <ele>2.9766</ele>
        <time>2023-05-31T14:00:22.000Z</time>
      </trkpt>
      <trkpt lat="46.21214" lon="-1.51842">
        <ele>2.9415</ele>
        <time>2023-05-31T14:00:23.000Z</time>
      </trkpt>
      <trkpt lat="46.2121" lon="-1.51846">
        <ele>2.90237</ele>
        <time>2023-05-31T14:00:24.000Z</time>
      </trkpt>
      <trkpt lat="46.21208" lon="-1.51852">
        <ele>2.84453</ele>
        <time>2023-05-31T14:00:25.000Z</time>
      </trkpt>
      <trkpt lat="46.21204" lon="-1.51857">
        <ele>2.77518</ele>
        <time>2023-05-31T14:00:26.000Z</time>
      </trkpt>
      <trkpt lat="46.21202" lon="-1.51862">
        <ele>2.74186</ele>
        <time>2023-05-31T14:00:27.000Z</time>
      </trkpt>
      <trkpt lat="46.21198" lon="-1.51868">
        <ele>2.71132</ele>
        <time>2023-05-31T14:00:28.000Z</time>
      </trkpt>
      <trkpt lat="46.21195" lon="-1.51873">
        <ele>2.70736</ele>
        <time>2023-05-31T14:00:29.000Z</time>
      </trkpt>
      <trkpt lat="46.21192" lon="-1.51878">
        <ele>2.70098</ele>
        <time>2023-05-31T14:00:30.000Z</time>
      </trkpt>
      <trkpt lat="46.21189" lon="-1.51884">
        <ele>2.71275</ele>
        <time>2023-05-31T14:00:31.000Z</time>
      </trkpt>
      <trkpt lat="46.21185" lon="-1.5189">
        <ele>2.72432</ele>
        <time>2023-05-31T14:00:32.000Z</time>
      </trkpt>
      <trkpt lat="46.21182" lon="-1.51894">
        <ele>2.70774</ele>
        <time>2023-05-31T14:00:33.000Z</time>
      </trkpt>
      <trkpt lat="46.21178" lon="-1.51899">
        <ele>2.7469</ele>
        <time>2023-05-31T14:00:34.000Z</time>
      </trkpt>
      <trkpt lat="46.21174" lon="-1.51903">
        <ele>2.78482</ele>
        <time>2023-05-31T14:00:35.000Z</time>
      </trkpt>
      <trkpt lat="46.2117" lon="-1.51908">
        <ele>2.82183</ele>
        <time>2023-05-31T14:00:36.000Z</time>
      </trkpt>
      <trkpt lat="46.21166" lon="-1.51913">
        <ele>2.83459</ele>
        <time>2023-05-31T14:00:37.000Z</time>
      </trkpt>
      <trkpt lat="46.21162" lon="-1.51917">
        <ele>2.86181</ele>
        <time>2023-05-31T14:00:38.000Z</time>
      </trkpt>
      <trkpt lat="46.21158" lon="-1.51922">
        <ele>2.89133</ele>
        <time>2023-05-31T14:00:39.000Z</time>
      </trkpt>
      <trkpt lat="46.21154" lon="-1.51926">
        <ele>2.95851</ele>
        <time>2023-05-31T14:00:40.000Z</time>
      </trkpt>
      <trkpt lat="46.2115" lon="-1.51931">
        <ele>3.00519</ele>
        <time>2023-05-31T14:00:41.000Z</time>
      </trkpt>
      <trkpt lat="46.21145" lon="-1.51936">
        <ele>3.046</ele>
        <time>2023-05-31T14:00:42.000Z</time>
      </trkpt>
      <trkpt lat="46.21141" lon="-1.5194">
        <ele>3.10453</ele>
        <time>2023-05-31T14:00:43.000Z</time>
      </trkpt>
      <trkpt lat="46.21137" lon="-1.51945">
        <ele>3.15993</ele>
        <time>2023-05-31T14:00:44.000Z</time>
      </trkpt>
      <trkpt lat="46.21133" lon="-1.5195">
        <ele>3.22048</ele>
        <time>2023-05-31T14:00:45.000Z</time>
      </trkpt>
      <trkpt lat="46.21129" lon="-1.51955">
        <ele>3.27522</ele>
        <time>2023-05-31T14:00:46.000Z</time>
      </trkpt>
      <trkpt lat="46.21125" lon="-1.51961">
        <ele>3.28232</ele>
        <time>2023-05-31T14:00:47.000Z</time>
      </trkpt>
      <trkpt lat="46.21121" lon="-1.51965">
        <ele>3.28273</ele>
        <time>2023-05-31T14:00:48.000Z</time>
      </trkpt>
      <trkpt lat="46.21118" lon="-1.5197">
        <ele>3.25796</ele>
        <time>2023-05-31T14:00:49.000Z</time>
      </trkpt>
      <trkpt lat="46.21113" lon="-1.51974">
        <ele>3.2418</ele>
        <time>2023-05-31T14:00:50.000Z</time>
      </trkpt>
      <trkpt lat="46.21108" lon="-1.51978">
        <ele>3.21251</ele>
        <time>2023-05-31T14:00:51.000Z</time>
      </trkpt>
      <trkpt lat="46.21105" lon="-1.51983">
        <ele>3.184</ele>
        <time>2023-05-31T14:00:52.000Z</time>
      </trkpt>
      <trkpt lat="46.21101" lon="-1.51987">
        <ele>3.16979</ele>
        <time>2023-05-31T14:00:53.000Z</time>
      </trkpt>
      <trkpt lat="46.21097" lon="-1.51991">
        <ele>3.13797</ele>
        <time>2023-05-31T14:00:54.000Z</time>
      </trkpt>
      <trkpt lat="46.21092" lon="-1.51996">
        <ele>3.12766</ele>
        <time>2023-05-31T14:00:55.000Z</time>
      </trkpt>
      <trkpt lat="46.21088" lon="-1.51999">
        <ele>3.06621</ele>
        <time>2023-05-31T14:00:56.000Z</time>
      </trkpt>
      <trkpt lat="46.21085" lon="-1.52004">
        <ele>3.00819</ele>
        <time>2023-05-31T14:00:57.000Z</time>
      </trkpt>
      <trkpt lat="46.21081" lon="-1.52009">
        <ele>2.93621</ele>
        <time>2023-05-31T14:00:58.000Z</time>
      </trkpt>
      <trkpt lat="46.21076" lon="-1.52015">
        <ele>2.8511</ele>
        <time>2023-05-31T14:00:59.000Z</time>
      </trkpt>
      <trkpt lat="46.21072" lon="-1.52019">
        <ele>2.76342</ele>
        <time>2023-05-31T14:01:00.000Z</time>
      </trkpt>
      <trkpt lat="46.21069" lon="-1.52024">
        <ele>2.70515</ele>
        <time>2023-05-31T14:01:01.000Z</time>
      </trkpt>
      <trkpt lat="46.21065" lon="-1.52027">
        <ele>2.63951</ele>
        <time>2023-05-31T14:01:02.000Z</time>
      </trkpt>
      <trkpt lat="46.21062" lon="-1.52029">
        <ele>2.56377</ele>
        <time>2023-05-31T14:01:03.000Z</time>
      </trkpt>
      <trkpt lat="46.21059" lon="-1.52031">
        <ele>2.47021</ele>
        <time>2023-05-31T14:01:04.000Z</time>
      </trkpt>
      <trkpt lat="46.21056" lon="-1.52033">
        <ele>2.37287</ele>
        <time>2023-05-31T14:01:05.000Z</time>
      </trkpt>
      <trkpt lat="46.21053" lon="-1.52037">
        <ele>2.28351</ele>
        <time>2023-05-31T14:01:06.000Z</time>
      </trkpt>
      <trkpt lat="46.21051" lon="-1.5204">
        <ele>2.219</ele>
        <time>2023-05-31T14:01:07.000Z</time>
      </trkpt>
      <trkpt lat="46.2105" lon="-1.52045">
        <ele>2.16915</ele>
        <time>2023-05-31T14:01:08.000Z</time>
      </trkpt>
      <trkpt lat="46.21051" lon="-1.52049">
        <ele>2.12441</ele>
        <time>2023-05-31T14:01:09.000Z</time>
      </trkpt>
      <trkpt lat="46.21054" lon="-1.52053">
        <ele>2.07723</ele>
        <time>2023-05-31T14:01:10.000Z</time>
      </trkpt>
      <trkpt lat="46.21056" lon="-1.52056">
        <ele>2.04286</ele>
        <time>2023-05-31T14:01:11.000Z</time>
      </trkpt>
      <trkpt lat="46.21058" lon="-1.52059">
        <ele>1.99628</ele>
        <time>2023-05-31T14:01:12.000Z</time>
      </trkpt>
      <trkpt lat="46.2106" lon="-1.52062">
        <ele>1.95612</ele>
        <time>2023-05-31T14:01:13.000Z</time>
      </trkpt>
      <trkpt lat="46.21061" lon="-1.52066">
        <ele>1.89648</ele>
        <time>2023-05-31T14:01:14.000Z</time>
      </trkpt>
      <trkpt lat="46.21063" lon="-1.52068">
        <ele>1.85512</ele>
        <time>2023-05-31T14:01:15.000Z</time>
      </trkpt>
      <trkpt lat="46.21065" lon="-1.5207">
        <ele>1.87529</ele>
        <time>2023-05-31T14:01:16.000Z</time>
      </trkpt>
      <trkpt lat="46.21066" lon="-1.52073">
        <ele>1.89494</ele>
        <time>2023-05-31T14:01:17.000Z</time>
      </trkpt>
      <trkpt lat="46.21068" lon="-1.52075">
        <ele>1.93218</ele>
        <time>2023-05-31T14:01:18.000Z</time>
      </trkpt>
      <trkpt lat="46.21069" lon="-1.52078">
        <ele>2.00382</ele>
        <time>2023-05-31T14:01:19.000Z</time>
      </trkpt>
      <trkpt lat="46.21071" lon="-1.52081">
        <ele>2.03576</ele>
        <time>2023-05-31T14:01:20.000Z</time>
      </trkpt>
      <trkpt lat="46.21072" lon="-1.52085">
        <ele>2.0412</ele>
        <time>2023-05-31T14:01:21.000Z</time>
      </trkpt>
      <trkpt lat="46.21071" lon="-1.52088">
        <ele>2.04882</ele>
        <time>2023-05-31T14:01:22.000Z</time>
      </trkpt>
      <trkpt lat="46.2107" lon="-1.5209">
        <ele>2.06312</ele>
        <time>2023-05-31T14:01:23.000Z</time>
      </trkpt>
      <trkpt lat="46.21068" lon="-1.52089">
        <ele>2.10904</ele>
        <time>2023-05-31T14:01:24.000Z</time>
      </trkpt>
      <trkpt lat="46.21066" lon="-1.52087">
        <ele>2.16664</ele>
        <time>2023-05-31T14:01:25.000Z</time>
      </trkpt>
      <trkpt lat="46.21065" lon="-1.52084">
        <ele>2.22631</ele>
        <time>2023-05-31T14:01:26.000Z</time>
      </trkpt>
      <trkpt lat="46.21063" lon="-1.52082">
        <ele>2.30927</ele>
        <time>2023-05-31T14:01:27.000Z</time>
      </trkpt>
      <trkpt lat="46.21061" lon="-1.5208">
        <ele>2.39505</ele>
        <time>2023-05-31T14:01:28.000Z</time>
      </trkpt>
      <trkpt lat="46.21059" lon="-1.52077">
        <ele>2.48517</ele>
        <time>2023-05-31T14:01:29.000Z</time>
      </trkpt>
      <trkpt lat="46.21058" lon="-1.52074">
        <ele>2.55646</ele>
        <time>2023-05-31T14:01:30.000Z</time>
      </trkpt>
      <trkpt lat="46.21057" lon="-1.5207">
        <ele>2.62797</ele>
        <time>2023-05-31T14:01:31.000Z</time>
      </trkpt>
      <trkpt lat="46.21055" lon="-1.52066">
        <ele>2.7</ele>
        <time>2023-05-31T14:01:32.000Z</time>
      </trkpt>
      <trkpt lat="46.21053" lon="-1.52063">
        <ele>2.73126</ele>
        <time>2023-05-31T14:01:33.000Z</time>
      </trkpt>
      <trkpt lat="46.21051" lon="-1.52059">
        <ele>2.76703</ele>
        <time>2023-05-31T14:01:34.000Z</time>
      </trkpt>
      <trkpt lat="46.21049" lon="-1.52056">
        <ele>2.79953</ele>
        <time>2023-05-31T14:01:35.000Z</time>
      </trkpt>
      <trkpt lat="46.21047" lon="-1.52052">
        <ele>2.81136</ele>
        <time>2023-05-31T14:01:36.000Z</time>
      </trkpt>
      <trkpt lat="46.21045" lon="-1.52049">
        <ele>2.8172</ele>
        <time>2023-05-31T14:01:37.000Z</time>
      </trkpt>
      <trkpt lat="46.21042" lon="-1.52046">
        <ele>2.81084</ele>
        <time>2023-05-31T14:01:38.000Z</time>
      </trkpt>
      <trkpt lat="46.21039" lon="-1.52043">
        <ele>2.79025</ele>
        <time>2023-05-31T14:01:39.000Z</time>
      </trkpt>
      <trkpt lat="46.21036" lon="-1.52041">
        <ele>2.78909</ele>
        <time>2023-05-31T14:01:40.000Z</time>
      </trkpt>
      <trkpt lat="46.21033" lon="-1.52038">
        <ele>2.79787</ele>
        <time>2023-05-31T14:01:41.000Z</time>
      </trkpt>
      <trkpt lat="46.21031" lon="-1.52034">
        <ele>2.80617</ele>
        <time>2023-05-31T14:01:42.000Z</time>
      </trkpt>
      <trkpt lat="46.21029" lon="-1.5203">
        <ele>2.80467</ele>
        <time>2023-05-31T14:01:43.000Z</time>
      </trkpt>
      <trkpt lat="46.21027" lon="-1.52026">
        <ele>2.80944</ele>
        <time>2023-05-31T14:01:44.000Z</time>
      </trkpt>
      <trkpt lat="46.21026" lon="-1.52022">
        <ele>2.77906</ele>
        <time>2023-05-31T14:01:45.000Z</time>
      </trkpt>
      <trkpt lat="46.21025" lon="-1.52019">
        <ele>2.74287</ele>
        <time>2023-05-31T14:01:46.000Z</time>
      </trkpt>
      <trkpt lat="46.21023" lon="-1.52016">
        <ele>2.68501</ele>
        <time>2023-05-31T14:01:47.000Z</time>
      </trkpt>
      <trkpt lat="46.21021" lon="-1.52015">
        <ele>2.61056</ele>
        <time>2023-05-31T14:01:48.000Z</time>
      </trkpt>
      <trkpt lat="46.21018" lon="-1.52016">
        <ele>2.54119</ele>
        <time>2023-05-31T14:01:49.000Z</time>
      </trkpt>
      <trkpt lat="46.21016" lon="-1.52018">
        <ele>2.49564</ele>
        <time>2023-05-31T14:01:50.000Z</time>
      </trkpt>
      <trkpt lat="46.21013" lon="-1.52022">
        <ele>2.4691</ele>
        <time>2023-05-31T14:01:51.000Z</time>
      </trkpt>
      <trkpt lat="46.21011" lon="-1.52025">
        <ele>2.46293</ele>
        <time>2023-05-31T14:01:52.000Z</time>
      </trkpt>
      <trkpt lat="46.21009" lon="-1.52029">
        <ele>2.48753</ele>
        <time>2023-05-31T14:01:53.000Z</time>
      </trkpt>
      <trkpt lat="46.21006" lon="-1.52033">
        <ele>2.52057</ele>
        <time>2023-05-31T14:01:54.000Z</time>
      </trkpt>
      <trkpt lat="46.21003" lon="-1.52036">
        <ele>2.54613</ele>
        <time>2023-05-31T14:01:55.000Z</time>
      </trkpt>
      <trkpt lat="46.21" lon="-1.5204">
        <ele>2.54257</ele>
        <time>2023-05-31T14:01:56.000Z</time>
      </trkpt>
      <trkpt lat="46.20997" lon="-1.52043">
        <ele>2.55504</ele>
        <time>2023-05-31T14:01:57.000Z</time>
      </trkpt>
      <trkpt lat="46.20994" lon="-1.52047">
        <ele>2.57194</ele>
        <time>2023-05-31T14:01:58.000Z</time>
      </trkpt>
      <trkpt lat="46.2099" lon="-1.52051">
        <ele>2.60204</ele>
        <time>2023-05-31T14:01:59.000Z</time>
      </trkpt>
      <trkpt lat="46.20987" lon="-1.52056">
        <ele>2.65309</ele>
        <time>2023-05-31T14:02:00.000Z</time>
      </trkpt>
      <trkpt lat="46.20984" lon="-1.5206">
        <ele>2.7086</ele>
        <time>2023-05-31T14:02:01.000Z</time>
      </trkpt>
      <trkpt lat="46.20981" lon="-1.52065">
        <ele>2.77712</ele>
        <time>2023-05-31T14:02:02.000Z</time>
      </trkpt>
      <trkpt lat="46.20978" lon="-1.52069">
        <ele>2.85227</ele>
        <time>2023-05-31T14:02:03.000Z</time>
      </trkpt>
      <trkpt lat="46.20975" lon="-1.52072">
        <ele>2.91586</ele>
        <time>2023-05-31T14:02:04.000Z</time>
      </trkpt>
      <trkpt lat="46.20972" lon="-1.52076">
        <ele>2.99767</ele>
        <time>2023-05-31T14:02:05.000Z</time>
      </trkpt>
      <trkpt lat="46.20968" lon="-1.5208">
        <ele>3.08159</ele>
        <time>2023-05-31T14:02:06.000Z</time>
      </trkpt>
      <trkpt lat="46.20966" lon="-1.52084">
        <ele>3.18227</ele>
        <time>2023-05-31T14:02:07.000Z</time>
      </trkpt>
      <trkpt lat="46.20962" lon="-1.52088">
        <ele>3.29736</ele>
        <time>2023-05-31T14:02:08.000Z</time>
      </trkpt>
      <trkpt lat="46.20958" lon="-1.52092">
        <ele>3.40547</ele>
        <time>2023-05-31T14:02:09.000Z</time>
      </trkpt>
      <trkpt lat="46.20955" lon="-1.52096">
        <ele>3.50629</ele>
        <time>2023-05-31T14:02:10.000Z</time>
      </trkpt>
      <trkpt lat="46.20951" lon="-1.52099">
        <ele>3.58916</ele>
        <time>2023-05-31T14:02:11.000Z</time>
      </trkpt>
      <trkpt lat="46.20948" lon="-1.52103">
        <ele>3.66227</ele>
        <time>2023-05-31T14:02:12.000Z</time>
      </trkpt>
      <trkpt lat="46.20945" lon="-1.52106">
        <ele>3.72615</ele>
        <time>2023-05-31T14:02:13.000Z</time>
      </trkpt>
      <trkpt lat="46.20941" lon="-1.52109">
        <ele>3.79753</ele>
        <time>2023-05-31T14:02:14.000Z</time>
      </trkpt>
      <trkpt lat="46.20937" lon="-1.52112">
        <ele>3.87665</ele>
        <time>2023-05-31T14:02:15.000Z</time>
      </trkpt>
      <trkpt lat="46.20933" lon="-1.52115">
        <ele>4.00749</ele>
        <time>2023-05-31T14:02:16.000Z</time>
      </trkpt>
      <trkpt lat="46.2093" lon="-1.52118">
        <ele>4.13663</ele>
        <time>2023-05-31T14:02:17.000Z</time>
      </trkpt>
      <trkpt lat="46.20928" lon="-1.52119">
        <ele>4.24913</ele>
        <time>2023-05-31T14:02:18.000Z</time>
      </trkpt>
      <trkpt lat="46.20926" lon="-1.5212">
        <ele>4.33973</ele>
        <time>2023-05-31T14:02:19.000Z</time>
      </trkpt>
      <trkpt lat="46.20924" lon="-1.52121">
        <ele>4.41539</ele>
        <time>2023-05-31T14:02:20.000Z</time>
      </trkpt>
      <trkpt lat="46.20922" lon="-1.52122">
        <ele>4.4748</ele>
        <time>2023-05-31T14:02:21.000Z</time>
      </trkpt>
      <trkpt lat="46.2092" lon="-1.52123">
        <ele>4.50362</ele>
        <time>2023-05-31T14:02:22.000Z</time>
      </trkpt>
      <trkpt lat="46.20917" lon="-1.52123">
        <ele>4.52964</ele>
        <time>2023-05-31T14:02:23.000Z</time>
      </trkpt>
      <trkpt lat="46.20914" lon="-1.52121">
        <ele>4.58411</ele>
        <time>2023-05-31T14:02:24.000Z</time>
      </trkpt>
      <trkpt lat="46.20911" lon="-1.52119">
        <ele>4.6661</ele>
        <time>2023-05-31T14:02:25.000Z</time>
      </trkpt>
      <trkpt lat="46.20909" lon="-1.52115">
        <ele>4.75846</ele>
        <time>2023-05-31T14:02:26.000Z</time>
      </trkpt>
      <trkpt lat="46.20909" lon="-1.52113">
        <ele>4.77991</ele>
        <time>2023-05-31T14:02:35.000Z</time>
      </trkpt>
      <trkpt lat="46.20908" lon="-1.5211">
        <ele>4.76445</ele>
        <time>2023-05-31T14:02:49.000Z</time>
      </trkpt>
      <trkpt lat="46.20906" lon="-1.52106">
        <ele>4.74954</ele>
        <time>2023-05-31T14:02:51.000Z</time>
      </trkpt>
      <trkpt lat="46.20904" lon="-1.52102">
        <ele>4.73514</ele>
        <time>2023-05-31T14:02:53.000Z</time>
      </trkpt>
      <trkpt lat="46.20903" lon="-1.521">
        <ele>4.7109</ele>
        <time>2023-05-31T14:02:54.000Z</time>
      </trkpt>
      <trkpt lat="46.20901" lon="-1.52097">
        <ele>4.69527</ele>
        <time>2023-05-31T14:02:55.000Z</time>
      </trkpt>
      <trkpt lat="46.20899" lon="-1.52094">
        <ele>4.6953</ele>
        <time>2023-05-31T14:02:56.000Z</time>
      </trkpt>
      <trkpt lat="46.20898" lon="-1.5209">
        <ele>4.6871</ele>
        <time>2023-05-31T14:02:57.000Z</time>
      </trkpt>
      <trkpt lat="46.20896" lon="-1.52087">
        <ele>4.67777</ele>
        <time>2023-05-31T14:02:58.000Z</time>
      </trkpt>
      <trkpt lat="46.20893" lon="-1.52084">
        <ele>4.64072</ele>
        <time>2023-05-31T14:02:59.000Z</time>
      </trkpt>
      <trkpt lat="46.20891" lon="-1.5208">
        <ele>4.58148</ele>
        <time>2023-05-31T14:03:00.000Z</time>
      </trkpt>
      <trkpt lat="46.20889" lon="-1.52077">
        <ele>4.53159</ele>
        <time>2023-05-31T14:03:01.000Z</time>
      </trkpt>
      <trkpt lat="46.20887" lon="-1.52073">
        <ele>4.48448</ele>
        <time>2023-05-31T14:03:02.000Z</time>
      </trkpt>
      <trkpt lat="46.20885" lon="-1.5207">
        <ele>4.42298</ele>
        <time>2023-05-31T14:03:03.000Z</time>
      </trkpt>
      <trkpt lat="46.20884" lon="-1.52066">
        <ele>4.38328</ele>
        <time>2023-05-31T14:03:04.000Z</time>
      </trkpt>
      <trkpt lat="46.20882" lon="-1.52063">
        <ele>4.36439</ele>
        <time>2023-05-31T14:03:05.000Z</time>
      </trkpt>
      <trkpt lat="46.2088" lon="-1.5206">
        <ele>4.35849</ele>
        <time>2023-05-31T14:03:06.000Z</time>
      </trkpt>
      <trkpt lat="46.20878" lon="-1.52057">
        <ele>4.31798</ele>
        <time>2023-05-31T14:03:07.000Z</time>
      </trkpt>
      <trkpt lat="46.20876" lon="-1.52054">
        <ele>4.25833</ele>
        <time>2023-05-31T14:03:08.000Z</time>
      </trkpt>
      <trkpt lat="46.20875" lon="-1.52052">
        <ele>4.18061</ele>
        <time>2023-05-31T14:03:09.000Z</time>
      </trkpt>
      <trkpt lat="46.20874" lon="-1.52049">
        <ele>4.17254</ele>
        <time>2023-05-31T14:03:10.000Z</time>
      </trkpt>
      <trkpt lat="46.20872" lon="-1.52047">
        <ele>4.18753</ele>
        <time>2023-05-31T14:03:11.000Z</time>
      </trkpt>
      <trkpt lat="46.20871" lon="-1.52044">
        <ele>4.18933</ele>
        <time>2023-05-31T14:03:12.000Z</time>
      </trkpt>
      <trkpt lat="46.20869" lon="-1.52042">
        <ele>4.19881</ele>
        <time>2023-05-31T14:03:13.000Z</time>
      </trkpt>
      <trkpt lat="46.20867" lon="-1.52041">
        <ele>4.23816</ele>
        <time>2023-05-31T14:03:14.000Z</time>
      </trkpt>
      <trkpt lat="46.20864" lon="-1.52041">
        <ele>4.25148</ele>
        <time>2023-05-31T14:03:15.000Z</time>
      </trkpt>
      <trkpt lat="46.20861" lon="-1.52044">
        <ele>4.28294</ele>
        <time>2023-05-31T14:03:16.000Z</time>
      </trkpt>
      <trkpt lat="46.20859" lon="-1.52046">
        <ele>4.32164</ele>
        <time>2023-05-31T14:03:17.000Z</time>
      </trkpt>
      <trkpt lat="46.20857" lon="-1.52049">
        <ele>4.34281</ele>
        <time>2023-05-31T14:03:18.000Z</time>
      </trkpt>
      <trkpt lat="46.20855" lon="-1.52052">
        <ele>4.35835</ele>
        <time>2023-05-31T14:03:19.000Z</time>
      </trkpt>
      <trkpt lat="46.20852" lon="-1.52055">
        <ele>4.38042</ele>
        <time>2023-05-31T14:03:20.000Z</time>
      </trkpt>
      <trkpt lat="46.2085" lon="-1.52058">
        <ele>4.38825</ele>
        <time>2023-05-31T14:03:21.000Z</time>
      </trkpt>
      <trkpt lat="46.20848" lon="-1.52061">
        <ele>4.40516</ele>
        <time>2023-05-31T14:03:22.000Z</time>
      </trkpt>
      <trkpt lat="46.20846" lon="-1.52065">
        <ele>4.40878</ele>
        <time>2023-05-31T14:03:23.000Z</time>
      </trkpt>
      <trkpt lat="46.20844" lon="-1.52068">
        <ele>4.37201</ele>
        <time>2023-05-31T14:03:24.000Z</time>
      </trkpt>
      <trkpt lat="46.20842" lon="-1.52071">
        <ele>4.32368</ele>
        <time>2023-05-31T14:03:25.000Z</time>
      </trkpt>
      <trkpt lat="46.2084" lon="-1.52074">
        <ele>4.26301</ele>
        <time>2023-05-31T14:03:26.000Z</time>
      </trkpt>
      <trkpt lat="46.20837" lon="-1.52076">
        <ele>4.19843</ele>
        <time>2023-05-31T14:03:27.000Z</time>
      </trkpt>
      <trkpt lat="46.20835" lon="-1.52079">
        <ele>4.12953</ele>
        <time>2023-05-31T14:03:28.000Z</time>
      </trkpt>
      <trkpt lat="46.20832" lon="-1.52082">
        <ele>4.07733</ele>
        <time>2023-05-31T14:03:29.000Z</time>
      </trkpt>
      <trkpt lat="46.2083" lon="-1.52085">
        <ele>4.00957</ele>
        <time>2023-05-31T14:03:30.000Z</time>
      </trkpt>
      <trkpt lat="46.20828" lon="-1.52089">
        <ele>3.93833</ele>
        <time>2023-05-31T14:03:31.000Z</time>
      </trkpt>
      <trkpt lat="46.20826" lon="-1.52094">
        <ele>3.87705</ele>
        <time>2023-05-31T14:03:32.000Z</time>
      </trkpt>
      <trkpt lat="46.20824" lon="-1.52098">
        <ele>3.81277</ele>
        <time>2023-05-31T14:03:33.000Z</time>
      </trkpt>
      <trkpt lat="46.20822" lon="-1.52103">
        <ele>3.75195</ele>
        <time>2023-05-31T14:03:34.000Z</time>
      </trkpt>
      <trkpt lat="46.2082" lon="-1.52107">
        <ele>3.71861</ele>
        <time>2023-05-31T14:03:35.000Z</time>
      </trkpt>
      <trkpt lat="46.20819" lon="-1.52112">
        <ele>3.63317</ele>
        <time>2023-05-31T14:03:36.000Z</time>
      </trkpt>
      <trkpt lat="46.20817" lon="-1.52117">
        <ele>3.49903</ele>
        <time>2023-05-31T14:03:37.000Z</time>
      </trkpt>
      <trkpt lat="46.20816" lon="-1.52122">
        <ele>3.36789</ele>
        <time>2023-05-31T14:03:38.000Z</time>
      </trkpt>
      <trkpt lat="46.20814" lon="-1.52127">
        <ele>3.23101</ele>
        <time>2023-05-31T14:03:39.000Z</time>
      </trkpt>
      <trkpt lat="46.20812" lon="-1.52132">
        <ele>3.13151</ele>
        <time>2023-05-31T14:03:40.000Z</time>
      </trkpt>
      <trkpt lat="46.20811" lon="-1.52137">
        <ele>3.05206</ele>
        <time>2023-05-31T14:03:41.000Z</time>
      </trkpt>
      <trkpt lat="46.2081" lon="-1.5214">
        <ele>2.97632</ele>
        <time>2023-05-31T14:03:42.000Z</time>
      </trkpt>
      <trkpt lat="46.20809" lon="-1.52143">
        <ele>2.94256</ele>
        <time>2023-05-31T14:03:43.000Z</time>
      </trkpt>
      <trkpt lat="46.20809" lon="-1.52146">
        <ele>2.92437</ele>
        <time>2023-05-31T14:03:44.000Z</time>
      </trkpt>
      <trkpt lat="46.20809" lon="-1.52149">
        <ele>2.90842</ele>
        <time>2023-05-31T14:03:45.000Z</time>
      </trkpt>
      <trkpt lat="46.20809" lon="-1.52153">
        <ele>2.91117</ele>
        <time>2023-05-31T14:03:46.000Z</time>
      </trkpt>
      <trkpt lat="46.20809" lon="-1.52156">
        <ele>2.91664</ele>
        <time>2023-05-31T14:03:47.000Z</time>
      </trkpt>
      <trkpt lat="46.20807" lon="-1.52158">
        <ele>2.91488</ele>
        <time>2023-05-31T14:03:48.000Z</time>
      </trkpt>
      <trkpt lat="46.20805" lon="-1.52157">
        <ele>2.91493</ele>
        <time>2023-05-31T14:03:49.000Z</time>
      </trkpt>
      <trkpt lat="46.20804" lon="-1.52154">
        <ele>2.93021</ele>
        <time>2023-05-31T14:03:50.000Z</time>
      </trkpt>
      <trkpt lat="46.20805" lon="-1.52151">
        <ele>2.95903</ele>
        <time>2023-05-31T14:03:51.000Z</time>
      </trkpt>
      <trkpt lat="46.20806" lon="-1.52147">
        <ele>2.99613</ele>
        <time>2023-05-31T14:03:52.000Z</time>
      </trkpt>
      <trkpt lat="46.20808" lon="-1.52142">
        <ele>3.0112</ele>
        <time>2023-05-31T14:03:53.000Z</time>
      </trkpt>
      <trkpt lat="46.2081" lon="-1.52138">
        <ele>3.00526</ele>
        <time>2023-05-31T14:03:54.000Z</time>
      </trkpt>
      <trkpt lat="46.20812" lon="-1.52134">
        <ele>3.00378</ele>
        <time>2023-05-31T14:03:55.000Z</time>
      </trkpt>
      <trkpt lat="46.20813" lon="-1.52129">
        <ele>3.031</ele>
        <time>2023-05-31T14:03:56.000Z</time>
      </trkpt>
      <trkpt lat="46.20815" lon="-1.52125">
        <ele>3.09148</ele>
        <time>2023-05-31T14:03:57.000Z</time>
      </trkpt>
      <trkpt lat="46.20816" lon="-1.5212">
        <ele>3.15486</ele>
        <time>2023-05-31T14:03:58.000Z</time>
      </trkpt>
      <trkpt lat="46.20818" lon="-1.52115">
        <ele>3.21899</ele>
        <time>2023-05-31T14:03:59.000Z</time>
      </trkpt>
      <trkpt lat="46.20819" lon="-1.5211">
        <ele>3.28357</ele>
        <time>2023-05-31T14:04:00.000Z</time>
      </trkpt>
      <trkpt lat="46.20821" lon="-1.52105">
        <ele>3.32908</ele>
        <time>2023-05-31T14:04:01.000Z</time>
      </trkpt>
      <trkpt lat="46.20823" lon="-1.521">
        <ele>3.38113</ele>
        <time>2023-05-31T14:04:02.000Z</time>
      </trkpt>
      <trkpt lat="46.20825" lon="-1.52096">
        <ele>3.41309</ele>
        <time>2023-05-31T14:04:03.000Z</time>
      </trkpt>
      <trkpt lat="46.20826" lon="-1.52091">
        <ele>3.44868</ele>
        <time>2023-05-31T14:04:04.000Z</time>
      </trkpt>
      <trkpt lat="46.20828" lon="-1.52086">
        <ele>3.49935</ele>
        <time>2023-05-31T14:04:05.000Z</time>
      </trkpt>
      <trkpt lat="46.2083" lon="-1.52081">
        <ele>3.51534</ele>
        <time>2023-05-31T14:04:06.000Z</time>
      </trkpt>
      <trkpt lat="46.20831" lon="-1.52076">
        <ele>3.54281</ele>
        <time>2023-05-31T14:04:07.000Z</time>
      </trkpt>
      <trkpt lat="46.20832" lon="-1.52072">
        <ele>3.57841</ele>
        <time>2023-05-31T14:04:08.000Z</time>
      </trkpt>
      <trkpt lat="46.20834" lon="-1.52067">
        <ele>3.59881</ele>
        <time>2023-05-31T14:04:09.000Z</time>
      </trkpt>
      <trkpt lat="46.20835" lon="-1.52062">
        <ele>3.60071</ele>
        <time>2023-05-31T14:04:10.000Z</time>
      </trkpt>
      <trkpt lat="46.20837" lon="-1.52057">
        <ele>3.59687</ele>
        <time>2023-05-31T14:04:11.000Z</time>
      </trkpt>
      <trkpt lat="46.20838" lon="-1.52052">
        <ele>3.56948</ele>
        <time>2023-05-31T14:04:12.000Z</time>
      </trkpt>
      <trkpt lat="46.20839" lon="-1.52047">
        <ele>3.5474</ele>
        <time>2023-05-31T14:04:13.000Z</time>
      </trkpt>
      <trkpt lat="46.20841" lon="-1.52043">
        <ele>3.53924</ele>
        <time>2023-05-31T14:04:14.000Z</time>
      </trkpt>
      <trkpt lat="46.20843" lon="-1.52039">
        <ele>3.52082</ele>
        <time>2023-05-31T14:04:15.000Z</time>
      </trkpt>
      <trkpt lat="46.20844" lon="-1.52036">
        <ele>3.49302</ele>
        <time>2023-05-31T14:04:16.000Z</time>
      </trkpt>
      <trkpt lat="46.20844" lon="-1.52033">
        <ele>3.47489</ele>
        <time>2023-05-31T14:04:17.000Z</time>
      </trkpt>
      <trkpt lat="46.20845" lon="-1.5203">
        <ele>3.49335</ele>
        <time>2023-05-31T14:04:18.000Z</time>
      </trkpt>
      <trkpt lat="46.20845" lon="-1.52026">
        <ele>3.53989</ele>
        <time>2023-05-31T14:04:19.000Z</time>
      </trkpt>
      <trkpt lat="46.20846" lon="-1.5202">
        <ele>3.57092</ele>
        <time>2023-05-31T14:04:20.000Z</time>
      </trkpt>
      <trkpt lat="46.20846" lon="-1.52015">
        <ele>3.60997</ele>
        <time>2023-05-31T14:04:21.000Z</time>
      </trkpt>
      <trkpt lat="46.20846" lon="-1.5201">
        <ele>3.6268</ele>
        <time>2023-05-31T14:04:22.000Z</time>
      </trkpt>
      <trkpt lat="46.20844" lon="-1.52005">
        <ele>3.64207</ele>
        <time>2023-05-31T14:04:23.000Z</time>
      </trkpt>
      <trkpt lat="46.20842" lon="-1.52">
        <ele>3.66446</ele>
        <time>2023-05-31T14:04:24.000Z</time>
      </trkpt>
      <trkpt lat="46.2084" lon="-1.51996">
        <ele>3.68038</ele>
        <time>2023-05-31T14:04:25.000Z</time>
      </trkpt>
      <trkpt lat="46.20838" lon="-1.51991">
        <ele>3.68999</ele>
        <time>2023-05-31T14:04:26.000Z</time>
      </trkpt>
      <trkpt lat="46.20835" lon="-1.51987">
        <ele>3.72463</ele>
        <time>2023-05-31T14:04:27.000Z</time>
      </trkpt>
      <trkpt lat="46.20833" lon="-1.51982">
        <ele>3.78209</ele>
        <time>2023-05-31T14:04:28.000Z</time>
      </trkpt>
      <trkpt lat="46.2083" lon="-1.51977">
        <ele>3.84086</ele>
        <time>2023-05-31T14:04:29.000Z</time>
      </trkpt>
      <trkpt lat="46.20828" lon="-1.51973">
        <ele>3.90409</ele>
        <time>2023-05-31T14:04:30.000Z</time>
      </trkpt>
      <trkpt lat="46.20827" lon="-1.5197">
        <ele>3.96036</ele>
        <time>2023-05-31T14:04:31.000Z</time>
      </trkpt>
      <trkpt lat="46.20825" lon="-1.51966">
        <ele>4.05202</ele>
        <time>2023-05-31T14:04:33.000Z</time>
      </trkpt>
      <trkpt lat="46.20823" lon="-1.51962">
        <ele>4.12115</ele>
        <time>2023-05-31T14:04:35.000Z</time>
      </trkpt>
      <trkpt lat="46.20821" lon="-1.51961">
        <ele>4.18425</ele>
        <time>2023-05-31T14:04:36.000Z</time>
      </trkpt>
      <trkpt lat="46.20819" lon="-1.51962">
        <ele>4.22438</ele>
        <time>2023-05-31T14:04:37.000Z</time>
      </trkpt>
      <trkpt lat="46.20817" lon="-1.51963">
        <ele>4.26621</ele>
        <time>2023-05-31T14:04:38.000Z</time>
      </trkpt>
      <trkpt lat="46.20814" lon="-1.51965">
        <ele>4.31223</ele>
        <time>2023-05-31T14:04:39.000Z</time>
      </trkpt>
      <trkpt lat="46.20812" lon="-1.51966">
        <ele>4.29399</ele>
        <time>2023-05-31T14:04:40.000Z</time>
      </trkpt>
      <trkpt lat="46.2081" lon="-1.51967">
        <ele>4.25273</ele>
        <time>2023-05-31T14:04:41.000Z</time>
      </trkpt>
      <trkpt lat="46.20808" lon="-1.51968">
        <ele>4.20368</ele>
        <time>2023-05-31T14:04:42.000Z</time>
      </trkpt>
      <trkpt lat="46.20805" lon="-1.51969">
        <ele>4.15006</ele>
        <time>2023-05-31T14:04:43.000Z</time>
      </trkpt>
      <trkpt lat="46.20803" lon="-1.51969">
        <ele>4.12623</ele>
        <time>2023-05-31T14:04:44.000Z</time>
      </trkpt>
      <trkpt lat="46.208" lon="-1.5197">
        <ele>4.09298</ele>
        <time>2023-05-31T14:04:45.000Z</time>
      </trkpt>
      <trkpt lat="46.20797" lon="-1.51971">
        <ele>4.06514</ele>
        <time>2023-05-31T14:04:46.000Z</time>
      </trkpt>
      <trkpt lat="46.20794" lon="-1.51972">
        <ele>4.04392</ele>
        <time>2023-05-31T14:04:47.000Z</time>
      </trkpt>
      <trkpt lat="46.20791" lon="-1.51974">
        <ele>4.04873</ele>
        <time>2023-05-31T14:04:48.000Z</time>
      </trkpt>
      <trkpt lat="46.20787" lon="-1.51975">
        <ele>4.05122</ele>
        <time>2023-05-31T14:04:49.000Z</time>
      </trkpt>
      <trkpt lat="46.20784" lon="-1.51977">
        <ele>4.0358</ele>
        <time>2023-05-31T14:04:50.000Z</time>
      </trkpt>
      <trkpt lat="46.2078" lon="-1.51978">
        <ele>4.01359</ele>
        <time>2023-05-31T14:04:51.000Z</time>
      </trkpt>
      <trkpt lat="46.20777" lon="-1.5198">
        <ele>3.98439</ele>
        <time>2023-05-31T14:04:52.000Z</time>
      </trkpt>
      <trkpt lat="46.20773" lon="-1.51981">
        <ele>3.9546</ele>
        <time>2023-05-31T14:04:53.000Z</time>
      </trkpt>
      <trkpt lat="46.2077" lon="-1.51983">
        <ele>3.90846</ele>
        <time>2023-05-31T14:04:54.000Z</time>
      </trkpt>
      <trkpt lat="46.20766" lon="-1.51985">
        <ele>3.90012</ele>
        <time>2023-05-31T14:04:55.000Z</time>
      </trkpt>
      <trkpt lat="46.20763" lon="-1.51987">
        <ele>3.89155</ele>
        <time>2023-05-31T14:04:56.000Z</time>
      </trkpt>
      <trkpt lat="46.20759" lon="-1.5199">
        <ele>3.90969</ele>
        <time>2023-05-31T14:04:57.000Z</time>
      </trkpt>
      <trkpt lat="46.20756" lon="-1.51993">
        <ele>3.94696</ele>
        <time>2023-05-31T14:04:58.000Z</time>
      </trkpt>
      <trkpt lat="46.20752" lon="-1.51996">
        <ele>3.97433</ele>
        <time>2023-05-31T14:04:59.000Z</time>
      </trkpt>
      <trkpt lat="46.20748" lon="-1.51999">
        <ele>4.04434</ele>
        <time>2023-05-31T14:05:00.000Z</time>
      </trkpt>
      <trkpt lat="46.20745" lon="-1.52002">
        <ele>4.1199</ele>
        <time>2023-05-31T14:05:01.000Z</time>
      </trkpt>
      <trkpt lat="46.20741" lon="-1.52005">
        <ele>4.20017</ele>
        <time>2023-05-31T14:05:02.000Z</time>
      </trkpt>
      <trkpt lat="46.20737" lon="-1.52008">
        <ele>4.28047</ele>
        <time>2023-05-31T14:05:03.000Z</time>
      </trkpt>
      <trkpt lat="46.20734" lon="-1.5201">
        <ele>4.31703</ele>
        <time>2023-05-31T14:05:04.000Z</time>
      </trkpt>
      <trkpt lat="46.2073" lon="-1.52012">
        <ele>4.3655</ele>
        <time>2023-05-31T14:05:05.000Z</time>
      </trkpt>
      <trkpt lat="46.20727" lon="-1.52015">
        <ele>4.40865</ele>
        <time>2023-05-31T14:05:06.000Z</time>
      </trkpt>
      <trkpt lat="46.20723" lon="-1.52017">
        <ele>4.43087</ele>
        <time>2023-05-31T14:05:07.000Z</time>
      </trkpt>
      <trkpt lat="46.2072" lon="-1.5202">
        <ele>4.45391</ele>
        <time>2023-05-31T14:05:08.000Z</time>
      </trkpt>
      <trkpt lat="46.20717" lon="-1.52023">
        <ele>4.45317</ele>
        <time>2023-05-31T14:05:09.000Z</time>
      </trkpt>
      <trkpt lat="46.20714" lon="-1.52026">
        <ele>4.44495</ele>
        <time>2023-05-31T14:05:10.000Z</time>
      </trkpt>
      <trkpt lat="46.20711" lon="-1.52029">
        <ele>4.45274</ele>
        <time>2023-05-31T14:05:11.000Z</time>
      </trkpt>
      <trkpt lat="46.20709" lon="-1.52032">
        <ele>4.47175</ele>
        <time>2023-05-31T14:05:12.000Z</time>
      </trkpt>
      <trkpt lat="46.20706" lon="-1.52035">
        <ele>4.50534</ele>
        <time>2023-05-31T14:05:13.000Z</time>
      </trkpt>
      <trkpt lat="46.20703" lon="-1.52038">
        <ele>4.53835</ele>
        <time>2023-05-31T14:05:14.000Z</time>
      </trkpt>
      <trkpt lat="46.207" lon="-1.52041">
        <ele>4.54925</ele>
        <time>2023-05-31T14:05:15.000Z</time>
      </trkpt>
      <trkpt lat="46.20696" lon="-1.52043">
        <ele>4.56826</ele>
        <time>2023-05-31T14:05:16.000Z</time>
      </trkpt>
      <trkpt lat="46.20693" lon="-1.52046">
        <ele>4.58023</ele>
        <time>2023-05-31T14:05:17.000Z</time>
      </trkpt>
      <trkpt lat="46.20689" lon="-1.52048">
        <ele>4.59037</ele>
        <time>2023-05-31T14:05:18.000Z</time>
      </trkpt>
      <trkpt lat="46.20686" lon="-1.52051">
        <ele>4.58428</ele>
        <time>2023-05-31T14:05:19.000Z</time>
      </trkpt>
      <trkpt lat="46.20683" lon="-1.52054">
        <ele>4.55858</ele>
        <time>2023-05-31T14:05:20.000Z</time>
      </trkpt>
      <trkpt lat="46.2068" lon="-1.52057">
        <ele>4.52218</ele>
        <time>2023-05-31T14:05:21.000Z</time>
      </trkpt>
      <trkpt lat="46.20677" lon="-1.52061">
        <ele>4.46123</ele>
        <time>2023-05-31T14:05:22.000Z</time>
      </trkpt>
      <trkpt lat="46.20674" lon="-1.52064">
        <ele>4.40998</ele>
        <time>2023-05-31T14:05:23.000Z</time>
      </trkpt>
      <trkpt lat="46.20671" lon="-1.52067">
        <ele>4.39628</ele>
        <time>2023-05-31T14:05:24.000Z</time>
      </trkpt>
      <trkpt lat="46.20668" lon="-1.52069">
        <ele>4.38378</ele>
        <time>2023-05-31T14:05:25.000Z</time>
      </trkpt>
      <trkpt lat="46.20664" lon="-1.52072">
        <ele>4.38878</ele>
        <time>2023-05-31T14:05:26.000Z</time>
      </trkpt>
      <trkpt lat="46.20661" lon="-1.52074">
        <ele>4.3995</ele>
        <time>2023-05-31T14:05:27.000Z</time>
      </trkpt>
      <trkpt lat="46.20658" lon="-1.52077">
        <ele>4.38765</ele>
        <time>2023-05-31T14:05:28.000Z</time>
      </trkpt>
      <trkpt lat="46.20656" lon="-1.5208">
        <ele>4.37732</ele>
        <time>2023-05-31T14:05:29.000Z</time>
      </trkpt>
      <trkpt lat="46.20654" lon="-1.52083">
        <ele>4.38345</ele>
        <time>2023-05-31T14:05:30.000Z</time>
      </trkpt>
      <trkpt lat="46.20652" lon="-1.52085">
        <ele>4.37164</ele>
        <time>2023-05-31T14:05:31.000Z</time>
      </trkpt>
      <trkpt lat="46.20651" lon="-1.52089">
        <ele>4.37703</ele>
        <time>2023-05-31T14:05:33.000Z</time>
      </trkpt>
      <trkpt lat="46.2065" lon="-1.52093">
        <ele>4.38644</ele>
        <time>2023-05-31T14:05:35.000Z</time>
      </trkpt>
      <trkpt lat="46.20648" lon="-1.52096">
        <ele>4.40462</ele>
        <time>2023-05-31T14:05:37.000Z</time>
      </trkpt>
      <trkpt lat="46.20646" lon="-1.52096">
        <ele>4.45622</ele>
        <time>2023-05-31T14:05:38.000Z</time>
      </trkpt>
      <trkpt lat="46.20644" lon="-1.52095">
        <ele>4.50544</ele>
        <time>2023-05-31T14:05:39.000Z</time>
      </trkpt>
      <trkpt lat="46.20642" lon="-1.52095">
        <ele>4.58663</ele>
        <time>2023-05-31T14:05:41.000Z</time>
      </trkpt>
      <trkpt lat="46.20642" lon="-1.52098">
        <ele>4.62337</ele>
        <time>2023-05-31T14:05:46.000Z</time>
      </trkpt>
      <trkpt lat="46.2064" lon="-1.521">
        <ele>4.66276</ele>
        <time>2023-05-31T14:05:48.000Z</time>
      </trkpt>
      <trkpt lat="46.20642" lon="-1.52101">
        <ele>4.65618</ele>
        <time>2023-05-31T14:05:52.000Z</time>
      </trkpt>
      <trkpt lat="46.20644" lon="-1.52101">
        <ele>4.66551</ele>
        <time>2023-05-31T14:05:54.000Z</time>
      </trkpt>
      <trkpt lat="46.20646" lon="-1.521">
        <ele>4.70033</ele>
        <time>2023-05-31T14:05:58.000Z</time>
      </trkpt>
      <trkpt lat="46.20646" lon="-1.521">
        <ele>4.70033</ele>
        <time>2023-05-31T14:05:58.000Z</time>
      </trkpt>
      <trkpt lat="46.20651" lon="-1.52095">
        <ele>4.83398</ele>
        <time>2023-05-31T14:11:07.000Z</time>
      </trkpt>
      <trkpt lat="46.20651" lon="-1.52095">
        <ele>4.83398</ele>
        <time>2023-05-31T14:11:07.000Z</time>
      </trkpt>
      <trkpt lat="46.20652" lon="-1.52093">
        <ele>4.92085</ele>
        <time>2023-05-31T14:11:23.000Z</time>
      </trkpt>
      <trkpt lat="46.20652" lon="-1.52089">
        <ele>5.01726</ele>
        <time>2023-05-31T14:11:25.000Z</time>
      </trkpt>
      <trkpt lat="46.20651" lon="-1.52084">
        <ele>5.11033</ele>
        <time>2023-05-31T14:11:27.000Z</time>
      </trkpt>
      <trkpt lat="46.20651" lon="-1.52081">
        <ele>5.19459</ele>
        <time>2023-05-31T14:11:28.000Z</time>
      </trkpt>
      <trkpt lat="46.20653" lon="-1.52078">
        <ele>5.25481</ele>
        <time>2023-05-31T14:11:30.000Z</time>
      </trkpt>
      <trkpt lat="46.20656" lon="-1.52076">
        <ele>5.34248</ele>
        <time>2023-05-31T14:11:32.000Z</time>
      </trkpt>
      <trkpt lat="46.20659" lon="-1.52074">
        <ele>5.39703</ele>
        <time>2023-05-31T14:11:34.000Z</time>
      </trkpt>
      <trkpt lat="46.20661" lon="-1.52073">
        <ele>5.44648</ele>
        <time>2023-05-31T14:11:35.000Z</time>
      </trkpt>
      <trkpt lat="46.20663" lon="-1.52072">
        <ele>5.45034</ele>
        <time>2023-05-31T14:11:36.000Z</time>
      </trkpt>
      <trkpt lat="46.20664" lon="-1.52071">
        <ele>5.44834</ele>
        <time>2023-05-31T14:11:37.000Z</time>
      </trkpt>
      <trkpt lat="46.20666" lon="-1.5207">
        <ele>5.43617</ele>
        <time>2023-05-31T14:11:38.000Z</time>
      </trkpt>
      <trkpt lat="46.20668" lon="-1.52068">
        <ele>5.42528</ele>
        <time>2023-05-31T14:11:39.000Z</time>
      </trkpt>
      <trkpt lat="46.20669" lon="-1.52067">
        <ele>5.4196</ele>
        <time>2023-05-31T14:11:40.000Z</time>
      </trkpt>
      <trkpt lat="46.20671" lon="-1.52065">
        <ele>5.39949</ele>
        <time>2023-05-31T14:11:41.000Z</time>
      </trkpt>
      <trkpt lat="46.20673" lon="-1.52063">
        <ele>5.4084</ele>
        <time>2023-05-31T14:11:42.000Z</time>
      </trkpt>
      <trkpt lat="46.20675" lon="-1.52062">
        <ele>5.41406</ele>
        <time>2023-05-31T14:11:43.000Z</time>
      </trkpt>
      <trkpt lat="46.20677" lon="-1.5206">
        <ele>5.47467</ele>
        <time>2023-05-31T14:11:44.000Z</time>
      </trkpt>
      <trkpt lat="46.20679" lon="-1.52058">
        <ele>5.52433</ele>
        <time>2023-05-31T14:11:45.000Z</time>
      </trkpt>
      <trkpt lat="46.20681" lon="-1.52056">
        <ele>5.57449</ele>
        <time>2023-05-31T14:11:46.000Z</time>
      </trkpt>
      <trkpt lat="46.20683" lon="-1.52054">
        <ele>5.50467</ele>
        <time>2023-05-31T14:11:47.000Z</time>
      </trkpt>
      <trkpt lat="46.20685" lon="-1.52053">
        <ele>5.46191</ele>
        <time>2023-05-31T14:11:48.000Z</time>
      </trkpt>
      <trkpt lat="46.20687" lon="-1.52051">
        <ele>5.40514</ele>
        <time>2023-05-31T14:11:49.000Z</time>
      </trkpt>
      <trkpt lat="46.20689" lon="-1.52049">
        <ele>5.3415</ele>
        <time>2023-05-31T14:11:50.000Z</time>
      </trkpt>
      <trkpt lat="46.20691" lon="-1.52047">
        <ele>5.28628</ele>
        <time>2023-05-31T14:11:51.000Z</time>
      </trkpt>
      <trkpt lat="46.20693" lon="-1.52045">
        <ele>5.27152</ele>
        <time>2023-05-31T14:11:52.000Z</time>
      </trkpt>
      <trkpt lat="46.20695" lon="-1.52043">
        <ele>5.21089</ele>
        <time>2023-05-31T14:11:53.000Z</time>
      </trkpt>
      <trkpt lat="46.20698" lon="-1.52041">
        <ele>5.17783</ele>
        <time>2023-05-31T14:11:54.000Z</time>
      </trkpt>
      <trkpt lat="46.207" lon="-1.52039">
        <ele>5.1865</ele>
        <time>2023-05-31T14:11:55.000Z</time>
      </trkpt>
      <trkpt lat="46.20703" lon="-1.52037">
        <ele>5.19512</ele>
        <time>2023-05-31T14:11:56.000Z</time>
      </trkpt>
      <trkpt lat="46.20705" lon="-1.52034">
        <ele>5.20412</ele>
        <time>2023-05-31T14:11:57.000Z</time>
      </trkpt>
      <trkpt lat="46.20707" lon="-1.52032">
        <ele>5.22525</ele>
        <time>2023-05-31T14:11:58.000Z</time>
      </trkpt>
      <trkpt lat="46.20709" lon="-1.5203">
        <ele>5.23418</ele>
        <time>2023-05-31T14:11:59.000Z</time>
      </trkpt>
      <trkpt lat="46.20711" lon="-1.52028">
        <ele>5.21847</ele>
        <time>2023-05-31T14:12:00.000Z</time>
      </trkpt>
      <trkpt lat="46.20713" lon="-1.52026">
        <ele>5.21143</ele>
        <time>2023-05-31T14:12:01.000Z</time>
      </trkpt>
      <trkpt lat="46.20715" lon="-1.52024">
        <ele>5.19676</ele>
        <time>2023-05-31T14:12:02.000Z</time>
      </trkpt>
      <trkpt lat="46.20717" lon="-1.52022">
        <ele>5.2035</ele>
        <time>2023-05-31T14:12:03.000Z</time>
      </trkpt>
      <trkpt lat="46.20719" lon="-1.5202">
        <ele>5.20022</ele>
        <time>2023-05-31T14:12:04.000Z</time>
      </trkpt>
      <trkpt lat="46.20721" lon="-1.52018">
        <ele>5.20632</ele>
        <time>2023-05-31T14:12:05.000Z</time>
      </trkpt>
      <trkpt lat="46.20724" lon="-1.52016">
        <ele>5.19584</ele>
        <time>2023-05-31T14:12:06.000Z</time>
      </trkpt>
      <trkpt lat="46.20726" lon="-1.52014">
        <ele>5.23818</ele>
        <time>2023-05-31T14:12:07.000Z</time>
      </trkpt>
      <trkpt lat="46.20729" lon="-1.52012">
        <ele>5.30913</ele>
        <time>2023-05-31T14:12:08.000Z</time>
      </trkpt>
      <trkpt lat="46.20731" lon="-1.5201">
        <ele>5.37055</ele>
        <time>2023-05-31T14:12:09.000Z</time>
      </trkpt>
      <trkpt lat="46.20734" lon="-1.52008">
        <ele>5.42063</ele>
        <time>2023-05-31T14:12:10.000Z</time>
      </trkpt>
      <trkpt lat="46.20736" lon="-1.52007">
        <ele>5.46308</ele>
        <time>2023-05-31T14:12:11.000Z</time>
      </trkpt>
      <trkpt lat="46.20739" lon="-1.52005">
        <ele>5.49231</ele>
        <time>2023-05-31T14:12:12.000Z</time>
      </trkpt>
      <trkpt lat="46.20742" lon="-1.52003">
        <ele>5.54029</ele>
        <time>2023-05-31T14:12:13.000Z</time>
      </trkpt>
      <trkpt lat="46.20744" lon="-1.52001">
        <ele>5.60178</ele>
        <time>2023-05-31T14:12:14.000Z</time>
      </trkpt>
      <trkpt lat="46.20747" lon="-1.51999">
        <ele>5.64595</ele>
        <time>2023-05-31T14:12:15.000Z</time>
      </trkpt>
      <trkpt lat="46.20749" lon="-1.51997">
        <ele>5.7263</ele>
        <time>2023-05-31T14:12:16.000Z</time>
      </trkpt>
      <trkpt lat="46.20752" lon="-1.51995">
        <ele>5.80726</ele>
        <time>2023-05-31T14:12:17.000Z</time>
      </trkpt>
      <trkpt lat="46.20754" lon="-1.51993">
        <ele>5.85675</ele>
        <time>2023-05-31T14:12:18.000Z</time>
      </trkpt>
      <trkpt lat="46.20757" lon="-1.51992">
        <ele>5.90429</ele>
        <time>2023-05-31T14:12:19.000Z</time>
      </trkpt>
      <trkpt lat="46.20759" lon="-1.5199">
        <ele>5.95596</ele>
        <time>2023-05-31T14:12:20.000Z</time>
      </trkpt>
      <trkpt lat="46.20762" lon="-1.51988">
        <ele>5.97991</ele>
        <time>2023-05-31T14:12:21.000Z</time>
      </trkpt>
      <trkpt lat="46.20764" lon="-1.51987">
        <ele>6.00861</ele>
        <time>2023-05-31T14:12:22.000Z</time>
      </trkpt>
      <trkpt lat="46.20767" lon="-1.51985">
        <ele>6.01259</ele>
        <time>2023-05-31T14:12:23.000Z</time>
      </trkpt>
      <trkpt lat="46.20769" lon="-1.51984">
        <ele>6.02807</ele>
        <time>2023-05-31T14:12:24.000Z</time>
      </trkpt>
      <trkpt lat="46.20771" lon="-1.51983">
        <ele>6.03452</ele>
        <time>2023-05-31T14:12:25.000Z</time>
      </trkpt>
      <trkpt lat="46.20774" lon="-1.51981">
        <ele>6.04718</ele>
        <time>2023-05-31T14:12:26.000Z</time>
      </trkpt>
      <trkpt lat="46.20777" lon="-1.5198">
        <ele>6.01689</ele>
        <time>2023-05-31T14:12:27.000Z</time>
      </trkpt>
      <trkpt lat="46.20779" lon="-1.51978">
        <ele>5.95798</ele>
        <time>2023-05-31T14:12:28.000Z</time>
      </trkpt>
      <trkpt lat="46.20782" lon="-1.51976">
        <ele>5.91121</ele>
        <time>2023-05-31T14:12:29.000Z</time>
      </trkpt>
      <trkpt lat="46.20784" lon="-1.51975">
        <ele>5.86473</ele>
        <time>2023-05-31T14:12:30.000Z</time>
      </trkpt>
      <trkpt lat="46.20787" lon="-1.51974">
        <ele>5.8359</ele>
        <time>2023-05-31T14:12:31.000Z</time>
      </trkpt>
      <trkpt lat="46.2079" lon="-1.51972">
        <ele>5.78409</ele>
        <time>2023-05-31T14:12:32.000Z</time>
      </trkpt>
      <trkpt lat="46.20793" lon="-1.51971">
        <ele>5.73058</ele>
        <time>2023-05-31T14:12:33.000Z</time>
      </trkpt>
      <trkpt lat="46.20796" lon="-1.5197">
        <ele>5.65179</ele>
        <time>2023-05-31T14:12:34.000Z</time>
      </trkpt>
      <trkpt lat="46.20798" lon="-1.51969">
        <ele>5.56238</ele>
        <time>2023-05-31T14:12:35.000Z</time>
      </trkpt>
      <trkpt lat="46.20801" lon="-1.51968">
        <ele>5.45766</ele>
        <time>2023-05-31T14:12:36.000Z</time>
      </trkpt>
      <trkpt lat="46.20804" lon="-1.51966">
        <ele>5.35865</ele>
        <time>2023-05-31T14:12:37.000Z</time>
      </trkpt>
      <trkpt lat="46.20807" lon="-1.51965">
        <ele>5.27966</ele>
        <time>2023-05-31T14:12:38.000Z</time>
      </trkpt>
      <trkpt lat="46.2081" lon="-1.51964">
        <ele>5.18387</ele>
        <time>2023-05-31T14:12:39.000Z</time>
      </trkpt>
      <trkpt lat="46.20813" lon="-1.51963">
        <ele>5.08597</ele>
        <time>2023-05-31T14:12:40.000Z</time>
      </trkpt>
      <trkpt lat="46.20816" lon="-1.51963">
        <ele>4.99993</ele>
        <time>2023-05-31T14:12:41.000Z</time>
      </trkpt>
      <trkpt lat="46.20818" lon="-1.51962">
        <ele>4.88311</ele>
        <time>2023-05-31T14:12:42.000Z</time>
      </trkpt>
      <trkpt lat="46.2082" lon="-1.5196">
        <ele>4.76794</ele>
        <time>2023-05-31T14:12:44.000Z</time>
      </trkpt>
      <trkpt lat="46.20822" lon="-1.51958">
        <ele>4.6116</ele>
        <time>2023-05-31T14:12:46.000Z</time>
      </trkpt>
      <trkpt lat="46.20822" lon="-1.51955">
        <ele>4.48578</ele>
        <time>2023-05-31T14:12:47.000Z</time>
      </trkpt>
      <trkpt lat="46.20821" lon="-1.51952">
        <ele>4.33234</ele>
        <time>2023-05-31T14:12:48.000Z</time>
      </trkpt>
      <trkpt lat="46.20819" lon="-1.51948">
        <ele>4.18186</ele>
        <time>2023-05-31T14:12:49.000Z</time>
      </trkpt>
      <trkpt lat="46.20816" lon="-1.51945">
        <ele>4.03095</ele>
        <time>2023-05-31T14:12:50.000Z</time>
      </trkpt>
      <trkpt lat="46.20814" lon="-1.51941">
        <ele>3.87104</ele>
        <time>2023-05-31T14:12:51.000Z</time>
      </trkpt>
      <trkpt lat="46.20813" lon="-1.51938">
        <ele>3.7078</ele>
        <time>2023-05-31T14:12:52.000Z</time>
      </trkpt>
      <trkpt lat="46.20811" lon="-1.51935">
        <ele>3.5332</ele>
        <time>2023-05-31T14:12:53.000Z</time>
      </trkpt>
      <trkpt lat="46.2081" lon="-1.51932">
        <ele>3.38853</ele>
        <time>2023-05-31T14:12:54.000Z</time>
      </trkpt>
      <trkpt lat="46.20809" lon="-1.5193">
        <ele>3.27635</ele>
        <time>2023-05-31T14:12:55.000Z</time>
      </trkpt>
      <trkpt lat="46.20808" lon="-1.51928">
        <ele>3.16949</ele>
        <time>2023-05-31T14:12:56.000Z</time>
      </trkpt>
      <trkpt lat="46.20807" lon="-1.51926">
        <ele>3.06012</ele>
        <time>2023-05-31T14:12:57.000Z</time>
      </trkpt>
      <trkpt lat="46.20805" lon="-1.51921">
        <ele>2.97971</ele>
        <time>2023-05-31T14:12:59.000Z</time>
      </trkpt>
      <trkpt lat="46.20804" lon="-1.51918">
        <ele>2.87494</ele>
        <time>2023-05-31T14:13:00.000Z</time>
      </trkpt>
      <trkpt lat="46.20804" lon="-1.51915">
        <ele>2.78361</ele>
        <time>2023-05-31T14:13:01.000Z</time>
      </trkpt>
      <trkpt lat="46.20803" lon="-1.51912">
        <ele>2.71539</ele>
        <time>2023-05-31T14:13:02.000Z</time>
      </trkpt>
      <trkpt lat="46.20802" lon="-1.51908">
        <ele>2.66069</ele>
        <time>2023-05-31T14:13:03.000Z</time>
      </trkpt>
      <trkpt lat="46.20801" lon="-1.51904">
        <ele>2.60566</ele>
        <time>2023-05-31T14:13:04.000Z</time>
      </trkpt>
      <trkpt lat="46.208" lon="-1.519">
        <ele>2.59005</ele>
        <time>2023-05-31T14:13:05.000Z</time>
      </trkpt>
      <trkpt lat="46.20799" lon="-1.51897">
        <ele>2.54289</ele>
        <time>2023-05-31T14:13:06.000Z</time>
      </trkpt>
      <trkpt lat="46.20797" lon="-1.51892">
        <ele>2.55932</ele>
        <time>2023-05-31T14:13:07.000Z</time>
      </trkpt>
      <trkpt lat="46.20796" lon="-1.51888">
        <ele>2.55805</ele>
        <time>2023-05-31T14:13:08.000Z</time>
      </trkpt>
      <trkpt lat="46.20795" lon="-1.51884">
        <ele>2.58818</ele>
        <time>2023-05-31T14:13:09.000Z</time>
      </trkpt>
      <trkpt lat="46.20795" lon="-1.5188">
        <ele>2.61178</ele>
        <time>2023-05-31T14:13:10.000Z</time>
      </trkpt>
      <trkpt lat="46.20794" lon="-1.51875">
        <ele>2.66021</ele>
        <time>2023-05-31T14:13:11.000Z</time>
      </trkpt>
      <trkpt lat="46.20794" lon="-1.51871">
        <ele>2.70462</ele>
        <time>2023-05-31T14:13:12.000Z</time>
      </trkpt>
      <trkpt lat="46.20793" lon="-1.51866">
        <ele>2.75595</ele>
        <time>2023-05-31T14:13:13.000Z</time>
      </trkpt>
      <trkpt lat="46.20792" lon="-1.51862">
        <ele>2.77873</ele>
        <time>2023-05-31T14:13:14.000Z</time>
      </trkpt>
      <trkpt lat="46.20791" lon="-1.51857">
        <ele>2.79187</ele>
        <time>2023-05-31T14:13:15.000Z</time>
      </trkpt>
      <trkpt lat="46.2079" lon="-1.51853">
        <ele>2.79208</ele>
        <time>2023-05-31T14:13:16.000Z</time>
      </trkpt>
      <trkpt lat="46.2079" lon="-1.51849">
        <ele>2.80479</ele>
        <time>2023-05-31T14:13:17.000Z</time>
      </trkpt>
      <trkpt lat="46.20789" lon="-1.51845">
        <ele>2.85506</ele>
        <time>2023-05-31T14:13:18.000Z</time>
      </trkpt>
      <trkpt lat="46.20789" lon="-1.5184">
        <ele>2.88481</ele>
        <time>2023-05-31T14:13:19.000Z</time>
      </trkpt>
      <trkpt lat="46.20788" lon="-1.51836">
        <ele>2.92541</ele>
        <time>2023-05-31T14:13:20.000Z</time>
      </trkpt>
      <trkpt lat="46.20787" lon="-1.51831">
        <ele>2.95484</ele>
        <time>2023-05-31T14:13:21.000Z</time>
      </trkpt>
      <trkpt lat="46.20787" lon="-1.51826">
        <ele>2.97453</ele>
        <time>2023-05-31T14:13:22.000Z</time>
      </trkpt>
      <trkpt lat="46.20786" lon="-1.51821">
        <ele>2.97871</ele>
        <time>2023-05-31T14:13:23.000Z</time>
      </trkpt>
      <trkpt lat="46.20786" lon="-1.51817">
        <ele>2.98355</ele>
        <time>2023-05-31T14:13:24.000Z</time>
      </trkpt>
      <trkpt lat="46.20785" lon="-1.51812">
        <ele>2.98884</ele>
        <time>2023-05-31T14:13:25.000Z</time>
      </trkpt>
      <trkpt lat="46.20784" lon="-1.51807">
        <ele>3.03758</ele>
        <time>2023-05-31T14:13:26.000Z</time>
      </trkpt>
      <trkpt lat="46.20784" lon="-1.51802">
        <ele>3.08491</ele>
        <time>2023-05-31T14:13:27.000Z</time>
      </trkpt>
      <trkpt lat="46.20783" lon="-1.51798">
        <ele>3.13915</ele>
        <time>2023-05-31T14:13:28.000Z</time>
      </trkpt>
      <trkpt lat="46.20783" lon="-1.51792">
        <ele>3.19155</ele>
        <time>2023-05-31T14:13:29.000Z</time>
      </trkpt>
      <trkpt lat="46.20782" lon="-1.51787">
        <ele>3.26333</ele>
        <time>2023-05-31T14:13:30.000Z</time>
      </trkpt>
      <trkpt lat="46.20782" lon="-1.51783">
        <ele>3.34774</ele>
        <time>2023-05-31T14:13:31.000Z</time>
      </trkpt>
      <trkpt lat="46.20782" lon="-1.51778">
        <ele>3.41918</ele>
        <time>2023-05-31T14:13:32.000Z</time>
      </trkpt>
      <trkpt lat="46.20781" lon="-1.51774">
        <ele>3.48343</ele>
        <time>2023-05-31T14:13:33.000Z</time>
      </trkpt>
      <trkpt lat="46.2078" lon="-1.51769">
        <ele>3.58226</ele>
        <time>2023-05-31T14:13:34.000Z</time>
      </trkpt>
      <trkpt lat="46.2078" lon="-1.51765">
        <ele>3.71843</ele>
        <time>2023-05-31T14:13:35.000Z</time>
      </trkpt>
      <trkpt lat="46.2078" lon="-1.51762">
        <ele>3.85542</ele>
        <time>2023-05-31T14:13:36.000Z</time>
      </trkpt>
      <trkpt lat="46.2078" lon="-1.51758">
        <ele>3.97962</ele>
        <time>2023-05-31T14:13:37.000Z</time>
      </trkpt>
      <trkpt lat="46.2078" lon="-1.51754">
        <ele>4.06849</ele>
        <time>2023-05-31T14:13:38.000Z</time>
      </trkpt>
      <trkpt lat="46.20779" lon="-1.5175">
        <ele>4.16135</ele>
        <time>2023-05-31T14:13:39.000Z</time>
      </trkpt>
      <trkpt lat="46.20779" lon="-1.51747">
        <ele>4.26983</ele>
        <time>2023-05-31T14:13:40.000Z</time>
      </trkpt>
      <trkpt lat="46.20779" lon="-1.51744">
        <ele>4.38201</ele>
        <time>2023-05-31T14:13:41.000Z</time>
      </trkpt>
      <trkpt lat="46.20779" lon="-1.5174">
        <ele>4.48043</ele>
        <time>2023-05-31T14:13:43.000Z</time>
      </trkpt>
      <trkpt lat="46.20778" lon="-1.51737">
        <ele>4.56679</ele>
        <time>2023-05-31T14:13:45.000Z</time>
      </trkpt>
      <trkpt lat="46.20776" lon="-1.51734">
        <ele>4.64248</ele>
        <time>2023-05-31T14:13:46.000Z</time>
      </trkpt>
      <trkpt lat="46.20774" lon="-1.51731">
        <ele>4.71638</ele>
        <time>2023-05-31T14:13:47.000Z</time>
      </trkpt>
      <trkpt lat="46.20772" lon="-1.51728">
        <ele>4.79922</ele>
        <time>2023-05-31T14:13:48.000Z</time>
      </trkpt>
      <trkpt lat="46.2077" lon="-1.51725">
        <ele>4.85978</ele>
        <time>2023-05-31T14:13:49.000Z</time>
      </trkpt>
      <trkpt lat="46.20767" lon="-1.51723">
        <ele>4.90697</ele>
        <time>2023-05-31T14:13:50.000Z</time>
      </trkpt>
      <trkpt lat="46.20765" lon="-1.51721">
        <ele>4.96121</ele>
        <time>2023-05-31T14:13:51.000Z</time>
      </trkpt>
      <trkpt lat="46.20762" lon="-1.51719">
        <ele>5.00866</ele>
        <time>2023-05-31T14:13:52.000Z</time>
      </trkpt>
      <trkpt lat="46.20759" lon="-1.51716">
        <ele>5.03312</ele>
        <time>2023-05-31T14:13:53.000Z</time>
      </trkpt>
      <trkpt lat="46.20756" lon="-1.51714">
        <ele>5.0574</ele>
        <time>2023-05-31T14:13:54.000Z</time>
      </trkpt>
      <trkpt lat="46.20753" lon="-1.51712">
        <ele>5.0915</ele>
        <time>2023-05-31T14:13:55.000Z</time>
      </trkpt>
      <trkpt lat="46.20751" lon="-1.51709">
        <ele>5.09477</ele>
        <time>2023-05-31T14:13:56.000Z</time>
      </trkpt>
      <trkpt lat="46.20748" lon="-1.51706">
        <ele>5.08708</ele>
        <time>2023-05-31T14:13:57.000Z</time>
      </trkpt>
      <trkpt lat="46.20745" lon="-1.51704">
        <ele>5.05533</ele>
        <time>2023-05-31T14:13:58.000Z</time>
      </trkpt>
      <trkpt lat="46.20743" lon="-1.51702">
        <ele>4.99695</ele>
        <time>2023-05-31T14:13:59.000Z</time>
      </trkpt>
      <trkpt lat="46.2074" lon="-1.51699">
        <ele>4.89115</ele>
        <time>2023-05-31T14:14:00.000Z</time>
      </trkpt>
      <trkpt lat="46.20739" lon="-1.51696">
        <ele>4.81185</ele>
        <time>2023-05-31T14:14:01.000Z</time>
      </trkpt>
      <trkpt lat="46.2074" lon="-1.51691">
        <ele>4.6953</ele>
        <time>2023-05-31T14:14:02.000Z</time>
      </trkpt>
      <trkpt lat="46.20741" lon="-1.51687">
        <ele>4.57345</ele>
        <time>2023-05-31T14:14:03.000Z</time>
      </trkpt>
      <trkpt lat="46.20743" lon="-1.51684">
        <ele>4.47241</ele>
        <time>2023-05-31T14:14:04.000Z</time>
      </trkpt>
      <trkpt lat="46.20745" lon="-1.51681">
        <ele>4.43244</ele>
        <time>2023-05-31T14:14:05.000Z</time>
      </trkpt>
      <trkpt lat="46.20748" lon="-1.51678">
        <ele>4.39738</ele>
        <time>2023-05-31T14:14:06.000Z</time>
      </trkpt>
      <trkpt lat="46.20751" lon="-1.51675">
        <ele>4.40232</ele>
        <time>2023-05-31T14:14:07.000Z</time>
      </trkpt>
      <trkpt lat="46.20754" lon="-1.51675">
        <ele>4.42455</ele>
        <time>2023-05-31T14:14:08.000Z</time>
      </trkpt>
      <trkpt lat="46.20758" lon="-1.51674">
        <ele>4.40196</ele>
        <time>2023-05-31T14:14:09.000Z</time>
      </trkpt>
      <trkpt lat="46.20762" lon="-1.51673">
        <ele>4.38334</ele>
        <time>2023-05-31T14:14:10.000Z</time>
      </trkpt>
      <trkpt lat="46.20765" lon="-1.51673">
        <ele>4.36582</ele>
        <time>2023-05-31T14:14:11.000Z</time>
      </trkpt>
      <trkpt lat="46.20768" lon="-1.51673">
        <ele>4.3638</ele>
        <time>2023-05-31T14:14:12.000Z</time>
      </trkpt>
      <trkpt lat="46.20772" lon="-1.51674">
        <ele>4.3642</ele>
        <time>2023-05-31T14:14:13.000Z</time>
      </trkpt>
      <trkpt lat="46.20774" lon="-1.51675">
        <ele>4.37258</ele>
        <time>2023-05-31T14:14:14.000Z</time>
      </trkpt>
      <trkpt lat="46.20777" lon="-1.51675">
        <ele>4.40209</ele>
        <time>2023-05-31T14:14:15.000Z</time>
      </trkpt>
      <trkpt lat="46.2078" lon="-1.51675">
        <ele>4.46868</ele>
        <time>2023-05-31T14:14:17.000Z</time>
      </trkpt>
      <trkpt lat="46.20783" lon="-1.51675">
        <ele>4.51582</ele>
        <time>2023-05-31T14:14:18.000Z</time>
      </trkpt>
      <trkpt lat="46.20785" lon="-1.51676">
        <ele>4.57941</ele>
        <time>2023-05-31T14:14:19.000Z</time>
      </trkpt>
      <trkpt lat="46.20787" lon="-1.51677">
        <ele>4.67237</ele>
        <time>2023-05-31T14:14:20.000Z</time>
      </trkpt>
      <trkpt lat="46.2079" lon="-1.51678">
        <ele>4.82199</ele>
        <time>2023-05-31T14:14:21.000Z</time>
      </trkpt>
      <trkpt lat="46.20793" lon="-1.51679">
        <ele>4.96852</ele>
        <time>2023-05-31T14:14:22.000Z</time>
      </trkpt>
      <trkpt lat="46.20795" lon="-1.51679">
        <ele>5.14098</ele>
        <time>2023-05-31T14:14:23.000Z</time>
      </trkpt>
      <trkpt lat="46.20798" lon="-1.51678">
        <ele>5.29711</ele>
        <time>2023-05-31T14:14:24.000Z</time>
      </trkpt>
      <trkpt lat="46.208" lon="-1.51678">
        <ele>5.44631</ele>
        <time>2023-05-31T14:14:25.000Z</time>
      </trkpt>
      <trkpt lat="46.20802" lon="-1.51678">
        <ele>5.54436</ele>
        <time>2023-05-31T14:14:26.000Z</time>
      </trkpt>
      <trkpt lat="46.20805" lon="-1.51678">
        <ele>5.64402</ele>
        <time>2023-05-31T14:14:27.000Z</time>
      </trkpt>
      <trkpt lat="46.20808" lon="-1.51678">
        <ele>5.7073</ele>
        <time>2023-05-31T14:14:28.000Z</time>
      </trkpt>
      <trkpt lat="46.2081" lon="-1.51678">
        <ele>5.76095</ele>
        <time>2023-05-31T14:14:29.000Z</time>
      </trkpt>
      <trkpt lat="46.20812" lon="-1.51678">
        <ele>5.85199</ele>
        <time>2023-05-31T14:14:30.000Z</time>
      </trkpt>
      <trkpt lat="46.20814" lon="-1.51675">
        <ele>5.98146</ele>
        <time>2023-05-31T14:14:32.000Z</time>
      </trkpt>
      <trkpt lat="46.20814" lon="-1.51671">
        <ele>6.08496</ele>
        <time>2023-05-31T14:14:33.000Z</time>
      </trkpt>
      <trkpt lat="46.20813" lon="-1.51668">
        <ele>6.17487</ele>
        <time>2023-05-31T14:14:34.000Z</time>
      </trkpt>
      <trkpt lat="46.20812" lon="-1.51664">
        <ele>6.26914</ele>
        <time>2023-05-31T14:14:35.000Z</time>
      </trkpt>
      <trkpt lat="46.20811" lon="-1.51661">
        <ele>6.40905</ele>
        <time>2023-05-31T14:14:36.000Z</time>
      </trkpt>
      <trkpt lat="46.2081" lon="-1.51657">
        <ele>6.54327</ele>
        <time>2023-05-31T14:14:37.000Z</time>
      </trkpt>
      <trkpt lat="46.20809" lon="-1.51654">
        <ele>6.69021</ele>
        <time>2023-05-31T14:14:38.000Z</time>
      </trkpt>
      <trkpt lat="46.20808" lon="-1.51651">
        <ele>6.85629</ele>
        <time>2023-05-31T14:14:39.000Z</time>
      </trkpt>
      <trkpt lat="46.20807" lon="-1.51647">
        <ele>7.01434</ele>
        <time>2023-05-31T14:14:40.000Z</time>
      </trkpt>
      <trkpt lat="46.20806" lon="-1.51644">
        <ele>7.17182</ele>
        <time>2023-05-31T14:14:41.000Z</time>
      </trkpt>
      <trkpt lat="46.20805" lon="-1.5164">
        <ele>7.31964</ele>
        <time>2023-05-31T14:14:42.000Z</time>
      </trkpt>
      <trkpt lat="46.20804" lon="-1.51637">
        <ele>7.42353</ele>
        <time>2023-05-31T14:14:43.000Z</time>
      </trkpt>
      <trkpt lat="46.20803" lon="-1.51633">
        <ele>7.4906</ele>
        <time>2023-05-31T14:14:44.000Z</time>
      </trkpt>
      <trkpt lat="46.20802" lon="-1.51629">
        <ele>7.5594</ele>
        <time>2023-05-31T14:14:45.000Z</time>
      </trkpt>
      <trkpt lat="46.20801" lon="-1.51625">
        <ele>7.637</ele>
        <time>2023-05-31T14:14:46.000Z</time>
      </trkpt>
      <trkpt lat="46.20801" lon="-1.51621">
        <ele>7.73615</ele>
        <time>2023-05-31T14:14:47.000Z</time>
      </trkpt>
      <trkpt lat="46.20802" lon="-1.51617">
        <ele>7.81316</ele>
        <time>2023-05-31T14:14:48.000Z</time>
      </trkpt>
      <trkpt lat="46.20804" lon="-1.51614">
        <ele>7.9043</ele>
        <time>2023-05-31T14:14:49.000Z</time>
      </trkpt>
      <trkpt lat="46.20806" lon="-1.51612">
        <ele>7.98562</ele>
        <time>2023-05-31T14:14:50.000Z</time>
      </trkpt>
      <trkpt lat="46.20808" lon="-1.5161">
        <ele>8.05605</ele>
        <time>2023-05-31T14:14:51.000Z</time>
      </trkpt>
      <trkpt lat="46.20809" lon="-1.51607">
        <ele>8.08773</ele>
        <time>2023-05-31T14:14:52.000Z</time>
      </trkpt>
      <trkpt lat="46.2081" lon="-1.51605">
        <ele>8.12965</ele>
        <time>2023-05-31T14:14:53.000Z</time>
      </trkpt>
      <trkpt lat="46.20811" lon="-1.51601">
        <ele>8.1975</ele>
        <time>2023-05-31T14:14:55.000Z</time>
      </trkpt>
      <trkpt lat="46.20813" lon="-1.51598">
        <ele>8.19022</ele>
        <time>2023-05-31T14:14:57.000Z</time>
      </trkpt>
      <trkpt lat="46.20815" lon="-1.51595">
        <ele>8.13466</ele>
        <time>2023-05-31T14:14:59.000Z</time>
      </trkpt>
      <trkpt lat="46.20814" lon="-1.51592">
        <ele>8.04244</ele>
        <time>2023-05-31T14:15:01.000Z</time>
      </trkpt>
      <trkpt lat="46.20816" lon="-1.5159">
        <ele>7.87449</ele>
        <time>2023-05-31T14:15:32.000Z</time>
      </trkpt>
      <trkpt lat="46.20817" lon="-1.51586">
        <ele>7.70824</ele>
        <time>2023-05-31T14:15:34.000Z</time>
      </trkpt>
      <trkpt lat="46.20817" lon="-1.51583">
        <ele>7.54829</ele>
        <time>2023-05-31T14:15:35.000Z</time>
      </trkpt>
      <trkpt lat="46.20816" lon="-1.5158">
        <ele>7.40458</ele>
        <time>2023-05-31T14:15:36.000Z</time>
      </trkpt>
      <trkpt lat="46.20815" lon="-1.51577">
        <ele>7.26149</ele>
        <time>2023-05-31T14:15:37.000Z</time>
      </trkpt>
      <trkpt lat="46.20815" lon="-1.51574">
        <ele>7.1161</ele>
        <time>2023-05-31T14:15:38.000Z</time>
      </trkpt>
      <trkpt lat="46.20816" lon="-1.51571">
        <ele>7.01877</ele>
        <time>2023-05-31T14:15:39.000Z</time>
      </trkpt>
      <trkpt lat="46.20816" lon="-1.51567">
        <ele>6.91973</ele>
        <time>2023-05-31T14:15:40.000Z</time>
      </trkpt>
      <trkpt lat="46.20816" lon="-1.51564">
        <ele>6.81965</ele>
        <time>2023-05-31T14:15:41.000Z</time>
      </trkpt>
      <trkpt lat="46.20817" lon="-1.51561">
        <ele>6.73543</ele>
        <time>2023-05-31T14:15:42.000Z</time>
      </trkpt>
      <trkpt lat="46.20818" lon="-1.51557">
        <ele>6.66531</ele>
        <time>2023-05-31T14:15:43.000Z</time>
      </trkpt>
      <trkpt lat="46.20818" lon="-1.51554">
        <ele>6.57242</ele>
        <time>2023-05-31T14:15:44.000Z</time>
      </trkpt>
      <trkpt lat="46.20819" lon="-1.51551">
        <ele>6.47947</ele>
        <time>2023-05-31T14:15:45.000Z</time>
      </trkpt>
      <trkpt lat="46.20819" lon="-1.51547">
        <ele>6.41252</ele>
        <time>2023-05-31T14:15:46.000Z</time>
      </trkpt>
      <trkpt lat="46.2082" lon="-1.51544">
        <ele>6.3659</ele>
        <time>2023-05-31T14:15:47.000Z</time>
      </trkpt>
      <trkpt lat="46.2082" lon="-1.51542">
        <ele>6.31816</ele>
        <time>2023-05-31T14:15:48.000Z</time>
      </trkpt>
      <trkpt lat="46.20821" lon="-1.51539">
        <ele>6.24159</ele>
        <time>2023-05-31T14:15:49.000Z</time>
      </trkpt>
      <trkpt lat="46.20822" lon="-1.51536">
        <ele>6.22443</ele>
        <time>2023-05-31T14:15:50.000Z</time>
      </trkpt>
      <trkpt lat="46.20823" lon="-1.51531">
        <ele>6.19408</ele>
        <time>2023-05-31T14:15:51.000Z</time>
      </trkpt>
      <trkpt lat="46.20825" lon="-1.51527">
        <ele>6.18858</ele>
        <time>2023-05-31T14:15:52.000Z</time>
      </trkpt>
      <trkpt lat="46.20826" lon="-1.51522">
        <ele>6.23126</ele>
        <time>2023-05-31T14:15:53.000Z</time>
      </trkpt>
      <trkpt lat="46.20827" lon="-1.51518">
        <ele>6.24451</ele>
        <time>2023-05-31T14:15:54.000Z</time>
      </trkpt>
      <trkpt lat="46.20829" lon="-1.51513">
        <ele>6.2521</ele>
        <time>2023-05-31T14:15:55.000Z</time>
      </trkpt>
      <trkpt lat="46.2083" lon="-1.51508">
        <ele>6.23891</ele>
        <time>2023-05-31T14:15:56.000Z</time>
      </trkpt>
      <trkpt lat="46.20832" lon="-1.51503">
        <ele>6.23598</ele>
        <time>2023-05-31T14:15:57.000Z</time>
      </trkpt>
      <trkpt lat="46.20833" lon="-1.51499">
        <ele>6.28221</ele>
        <time>2023-05-31T14:15:58.000Z</time>
      </trkpt>
      <trkpt lat="46.20835" lon="-1.51494">
        <ele>6.29072</ele>
        <time>2023-05-31T14:15:59.000Z</time>
      </trkpt>
      <trkpt lat="46.20836" lon="-1.51489">
        <ele>6.32014</ele>
        <time>2023-05-31T14:16:00.000Z</time>
      </trkpt>
      <trkpt lat="46.20838" lon="-1.51484">
        <ele>6.33355</ele>
        <time>2023-05-31T14:16:01.000Z</time>
      </trkpt>
      <trkpt lat="46.20839" lon="-1.51479">
        <ele>6.31283</ele>
        <time>2023-05-31T14:16:02.000Z</time>
      </trkpt>
      <trkpt lat="46.2084" lon="-1.51474">
        <ele>6.30082</ele>
        <time>2023-05-31T14:16:03.000Z</time>
      </trkpt>
      <trkpt lat="46.20841" lon="-1.51469">
        <ele>6.2943</ele>
        <time>2023-05-31T14:16:04.000Z</time>
      </trkpt>
      <trkpt lat="46.20841" lon="-1.51464">
        <ele>6.2808</ele>
        <time>2023-05-31T14:16:05.000Z</time>
      </trkpt>
      <trkpt lat="46.20841" lon="-1.51458">
        <ele>6.24496</ele>
        <time>2023-05-31T14:16:06.000Z</time>
      </trkpt>
      <trkpt lat="46.20841" lon="-1.51453">
        <ele>6.15265</ele>
        <time>2023-05-31T14:16:07.000Z</time>
      </trkpt>
      <trkpt lat="46.20841" lon="-1.51448">
        <ele>6.06033</ele>
        <time>2023-05-31T14:16:08.000Z</time>
      </trkpt>
      <trkpt lat="46.2084" lon="-1.51443">
        <ele>5.9655</ele>
        <time>2023-05-31T14:16:09.000Z</time>
      </trkpt>
      <trkpt lat="46.2084" lon="-1.51439">
        <ele>5.86158</ele>
        <time>2023-05-31T14:16:10.000Z</time>
      </trkpt>
      <trkpt lat="46.20839" lon="-1.51434">
        <ele>5.7784</ele>
        <time>2023-05-31T14:16:11.000Z</time>
      </trkpt>
      <trkpt lat="46.20839" lon="-1.5143">
        <ele>5.70483</ele>
        <time>2023-05-31T14:16:12.000Z</time>
      </trkpt>
      <trkpt lat="46.20839" lon="-1.51425">
        <ele>5.6433</ele>
        <time>2023-05-31T14:16:13.000Z</time>
      </trkpt>
      <trkpt lat="46.2084" lon="-1.51421">
        <ele>5.56994</ele>
        <time>2023-05-31T14:16:14.000Z</time>
      </trkpt>
      <trkpt lat="46.2084" lon="-1.51417">
        <ele>5.49001</ele>
        <time>2023-05-31T14:16:15.000Z</time>
      </trkpt>
      <trkpt lat="46.20842" lon="-1.51414">
        <ele>5.43729</ele>
        <time>2023-05-31T14:16:16.000Z</time>
      </trkpt>
      <trkpt lat="46.20844" lon="-1.51411">
        <ele>5.36442</ele>
        <time>2023-05-31T14:16:17.000Z</time>
      </trkpt>
      <trkpt lat="46.20848" lon="-1.51408">
        <ele>5.2244</ele>
        <time>2023-05-31T14:16:18.000Z</time>
      </trkpt>
      <trkpt lat="46.20851" lon="-1.51406">
        <ele>5.12397</ele>
        <time>2023-05-31T14:16:19.000Z</time>
      </trkpt>
      <trkpt lat="46.20855" lon="-1.51404">
        <ele>5.00453</ele>
        <time>2023-05-31T14:16:20.000Z</time>
      </trkpt>
      <trkpt lat="46.20859" lon="-1.51402">
        <ele>4.90039</ele>
        <time>2023-05-31T14:16:21.000Z</time>
      </trkpt>
      <trkpt lat="46.20863" lon="-1.514">
        <ele>4.80875</ele>
        <time>2023-05-31T14:16:22.000Z</time>
      </trkpt>
      <trkpt lat="46.20867" lon="-1.51398">
        <ele>4.7297</ele>
        <time>2023-05-31T14:16:23.000Z</time>
      </trkpt>
      <trkpt lat="46.2087" lon="-1.51396">
        <ele>4.64942</ele>
        <time>2023-05-31T14:16:24.000Z</time>
      </trkpt>
      <trkpt lat="46.20874" lon="-1.51394">
        <ele>4.56999</ele>
        <time>2023-05-31T14:16:25.000Z</time>
      </trkpt>
      <trkpt lat="46.20877" lon="-1.51392">
        <ele>4.51304</ele>
        <time>2023-05-31T14:16:26.000Z</time>
      </trkpt>
      <trkpt lat="46.20881" lon="-1.5139">
        <ele>4.48212</ele>
        <time>2023-05-31T14:16:27.000Z</time>
      </trkpt>
      <trkpt lat="46.20884" lon="-1.51388">
        <ele>4.45047</ele>
        <time>2023-05-31T14:16:28.000Z</time>
      </trkpt>
      <trkpt lat="46.20888" lon="-1.51386">
        <ele>4.4453</ele>
        <time>2023-05-31T14:16:29.000Z</time>
      </trkpt>
      <trkpt lat="46.20891" lon="-1.51383">
        <ele>4.41765</ele>
        <time>2023-05-31T14:16:30.000Z</time>
      </trkpt>
      <trkpt lat="46.20895" lon="-1.51381">
        <ele>4.4388</ele>
        <time>2023-05-31T14:16:31.000Z</time>
      </trkpt>
      <trkpt lat="46.20899" lon="-1.51378">
        <ele>4.49149</ele>
        <time>2023-05-31T14:16:32.000Z</time>
      </trkpt>
      <trkpt lat="46.20903" lon="-1.51376">
        <ele>4.58222</ele>
        <time>2023-05-31T14:16:33.000Z</time>
      </trkpt>
      <trkpt lat="46.20906" lon="-1.51373">
        <ele>4.70628</ele>
        <time>2023-05-31T14:16:34.000Z</time>
      </trkpt>
      <trkpt lat="46.2091" lon="-1.51369">
        <ele>4.83825</ele>
        <time>2023-05-31T14:16:35.000Z</time>
      </trkpt>
      <trkpt lat="46.20914" lon="-1.51366">
        <ele>4.95028</ele>
        <time>2023-05-31T14:16:36.000Z</time>
      </trkpt>
      <trkpt lat="46.20917" lon="-1.51362">
        <ele>5.05449</ele>
        <time>2023-05-31T14:16:37.000Z</time>
      </trkpt>
      <trkpt lat="46.2092" lon="-1.51358">
        <ele>5.18669</ele>
        <time>2023-05-31T14:16:38.000Z</time>
      </trkpt>
      <trkpt lat="46.20923" lon="-1.51354">
        <ele>5.32351</ele>
        <time>2023-05-31T14:16:39.000Z</time>
      </trkpt>
      <trkpt lat="46.20926" lon="-1.5135">
        <ele>5.46218</ele>
        <time>2023-05-31T14:16:40.000Z</time>
      </trkpt>
      <trkpt lat="46.20928" lon="-1.51347">
        <ele>5.59613</ele>
        <time>2023-05-31T14:16:41.000Z</time>
      </trkpt>
      <trkpt lat="46.20931" lon="-1.51343">
        <ele>5.71874</ele>
        <time>2023-05-31T14:16:42.000Z</time>
      </trkpt>
      <trkpt lat="46.20934" lon="-1.51339">
        <ele>5.82678</ele>
        <time>2023-05-31T14:16:43.000Z</time>
      </trkpt>
      <trkpt lat="46.20938" lon="-1.51336">
        <ele>5.95249</ele>
        <time>2023-05-31T14:16:44.000Z</time>
      </trkpt>
      <trkpt lat="46.2094" lon="-1.51332">
        <ele>6.05837</ele>
        <time>2023-05-31T14:16:45.000Z</time>
      </trkpt>
      <trkpt lat="46.20943" lon="-1.51329">
        <ele>6.15575</ele>
        <time>2023-05-31T14:16:46.000Z</time>
      </trkpt>
      <trkpt lat="46.20946" lon="-1.51326">
        <ele>6.27375</ele>
        <time>2023-05-31T14:16:47.000Z</time>
      </trkpt>
      <trkpt lat="46.20949" lon="-1.51323">
        <ele>6.39443</ele>
        <time>2023-05-31T14:16:48.000Z</time>
      </trkpt>
      <trkpt lat="46.20951" lon="-1.5132">
        <ele>6.50264</ele>
        <time>2023-05-31T14:16:49.000Z</time>
      </trkpt>
      <trkpt lat="46.20954" lon="-1.51317">
        <ele>6.64619</ele>
        <time>2023-05-31T14:16:50.000Z</time>
      </trkpt>
      <trkpt lat="46.20956" lon="-1.51314">
        <ele>6.7614</ele>
        <time>2023-05-31T14:16:51.000Z</time>
      </trkpt>
      <trkpt lat="46.20959" lon="-1.51311">
        <ele>6.8319</ele>
        <time>2023-05-31T14:16:52.000Z</time>
      </trkpt>
      <trkpt lat="46.20962" lon="-1.51309">
        <ele>6.83704</ele>
        <time>2023-05-31T14:16:53.000Z</time>
      </trkpt>
      <trkpt lat="46.20964" lon="-1.51306">
        <ele>6.83395</ele>
        <time>2023-05-31T14:16:54.000Z</time>
      </trkpt>
      <trkpt lat="46.20967" lon="-1.51303">
        <ele>6.82292</ele>
        <time>2023-05-31T14:16:55.000Z</time>
      </trkpt>
      <trkpt lat="46.20971" lon="-1.513">
        <ele>6.82377</ele>
        <time>2023-05-31T14:16:56.000Z</time>
      </trkpt>
      <trkpt lat="46.20974" lon="-1.51298">
        <ele>6.84564</ele>
        <time>2023-05-31T14:16:57.000Z</time>
      </trkpt>
      <trkpt lat="46.20977" lon="-1.51295">
        <ele>6.88299</ele>
        <time>2023-05-31T14:16:58.000Z</time>
      </trkpt>
      <trkpt lat="46.20979" lon="-1.51292">
        <ele>6.87791</ele>
        <time>2023-05-31T14:16:59.000Z</time>
      </trkpt>
      <trkpt lat="46.20982" lon="-1.51289">
        <ele>6.87823</ele>
        <time>2023-05-31T14:17:00.000Z</time>
      </trkpt>
      <trkpt lat="46.20985" lon="-1.51286">
        <ele>6.87272</ele>
        <time>2023-05-31T14:17:01.000Z</time>
      </trkpt>
      <trkpt lat="46.20988" lon="-1.51283">
        <ele>6.87521</ele>
        <time>2023-05-31T14:17:02.000Z</time>
      </trkpt>
      <trkpt lat="46.2099" lon="-1.5128">
        <ele>6.87205</ele>
        <time>2023-05-31T14:17:03.000Z</time>
      </trkpt>
      <trkpt lat="46.20993" lon="-1.51276">
        <ele>6.86145</ele>
        <time>2023-05-31T14:17:04.000Z</time>
      </trkpt>
      <trkpt lat="46.20995" lon="-1.51273">
        <ele>6.85614</ele>
        <time>2023-05-31T14:17:05.000Z</time>
      </trkpt>
      <trkpt lat="46.20998" lon="-1.5127">
        <ele>6.84724</ele>
        <time>2023-05-31T14:17:06.000Z</time>
      </trkpt>
      <trkpt lat="46.21" lon="-1.51267">
        <ele>6.8245</ele>
        <time>2023-05-31T14:17:07.000Z</time>
      </trkpt>
      <trkpt lat="46.21002" lon="-1.51264">
        <ele>6.80673</ele>
        <time>2023-05-31T14:17:08.000Z</time>
      </trkpt>
      <trkpt lat="46.21003" lon="-1.51262">
        <ele>6.78939</ele>
        <time>2023-05-31T14:17:09.000Z</time>
      </trkpt>
      <trkpt lat="46.21005" lon="-1.51259">
        <ele>6.79433</ele>
        <time>2023-05-31T14:17:10.000Z</time>
      </trkpt>
      <trkpt lat="46.21005" lon="-1.51256">
        <ele>6.76759</ele>
        <time>2023-05-31T14:17:11.000Z</time>
      </trkpt>
      <trkpt lat="46.21006" lon="-1.51252">
        <ele>6.74707</ele>
        <time>2023-05-31T14:17:12.000Z</time>
      </trkpt>
      <trkpt lat="46.21007" lon="-1.51249">
        <ele>6.74903</ele>
        <time>2023-05-31T14:17:13.000Z</time>
      </trkpt>
      <trkpt lat="46.21007" lon="-1.51245">
        <ele>6.78175</ele>
        <time>2023-05-31T14:17:14.000Z</time>
      </trkpt>
      <trkpt lat="46.21007" lon="-1.5124">
        <ele>6.83449</ele>
        <time>2023-05-31T14:17:15.000Z</time>
      </trkpt>
      <trkpt lat="46.21005" lon="-1.51237">
        <ele>6.86962</ele>
        <time>2023-05-31T14:17:16.000Z</time>
      </trkpt>
      <trkpt lat="46.21002" lon="-1.51233">
        <ele>6.89342</ele>
        <time>2023-05-31T14:17:17.000Z</time>
      </trkpt>
      <trkpt lat="46.20999" lon="-1.51231">
        <ele>6.91799</ele>
        <time>2023-05-31T14:17:18.000Z</time>
      </trkpt>
      <trkpt lat="46.20996" lon="-1.51228">
        <ele>6.96464</ele>
        <time>2023-05-31T14:17:19.000Z</time>
      </trkpt>
      <trkpt lat="46.20992" lon="-1.51226">
        <ele>6.99735</ele>
        <time>2023-05-31T14:17:20.000Z</time>
      </trkpt>
      <trkpt lat="46.20988" lon="-1.51223">
        <ele>7.0328</ele>
        <time>2023-05-31T14:17:21.000Z</time>
      </trkpt>
      <trkpt lat="46.20985" lon="-1.51221">
        <ele>7.05769</ele>
        <time>2023-05-31T14:17:22.000Z</time>
      </trkpt>
      <trkpt lat="46.20982" lon="-1.51218">
        <ele>7.0778</ele>
        <time>2023-05-31T14:17:23.000Z</time>
      </trkpt>
      <trkpt lat="46.20979" lon="-1.51215">
        <ele>7.12138</ele>
        <time>2023-05-31T14:17:24.000Z</time>
      </trkpt>
      <trkpt lat="46.20976" lon="-1.51213">
        <ele>7.17682</ele>
        <time>2023-05-31T14:17:25.000Z</time>
      </trkpt>
      <trkpt lat="46.20973" lon="-1.5121">
        <ele>7.21743</ele>
        <time>2023-05-31T14:17:26.000Z</time>
      </trkpt>
      <trkpt lat="46.2097" lon="-1.51207">
        <ele>7.26094</ele>
        <time>2023-05-31T14:17:27.000Z</time>
      </trkpt>
      <trkpt lat="46.20967" lon="-1.51204">
        <ele>7.29488</ele>
        <time>2023-05-31T14:17:28.000Z</time>
      </trkpt>
      <trkpt lat="46.20965" lon="-1.512">
        <ele>7.30794</ele>
        <time>2023-05-31T14:17:29.000Z</time>
      </trkpt>
      <trkpt lat="46.20963" lon="-1.51197">
        <ele>7.29464</ele>
        <time>2023-05-31T14:17:30.000Z</time>
      </trkpt>
      <trkpt lat="46.20961" lon="-1.51193">
        <ele>7.28816</ele>
        <time>2023-05-31T14:17:31.000Z</time>
      </trkpt>
      <trkpt lat="46.20959" lon="-1.51189">
        <ele>7.27917</ele>
        <time>2023-05-31T14:17:32.000Z</time>
      </trkpt>
      <trkpt lat="46.20956" lon="-1.51185">
        <ele>7.27321</ele>
        <time>2023-05-31T14:17:33.000Z</time>
      </trkpt>
      <trkpt lat="46.20954" lon="-1.51182">
        <ele>7.23464</ele>
        <time>2023-05-31T14:17:34.000Z</time>
      </trkpt>
      <trkpt lat="46.20952" lon="-1.51178">
        <ele>7.16441</ele>
        <time>2023-05-31T14:17:35.000Z</time>
      </trkpt>
      <trkpt lat="46.2095" lon="-1.51175">
        <ele>7.11848</ele>
        <time>2023-05-31T14:17:36.000Z</time>
      </trkpt>
      <trkpt lat="46.20947" lon="-1.51171">
        <ele>7.07025</ele>
        <time>2023-05-31T14:17:37.000Z</time>
      </trkpt>
      <trkpt lat="46.20944" lon="-1.51167">
        <ele>7.0057</ele>
        <time>2023-05-31T14:17:38.000Z</time>
      </trkpt>
      <trkpt lat="46.20941" lon="-1.51163">
        <ele>6.9372</ele>
        <time>2023-05-31T14:17:39.000Z</time>
      </trkpt>
      <trkpt lat="46.20938" lon="-1.51159">
        <ele>6.884</ele>
        <time>2023-05-31T14:17:40.000Z</time>
      </trkpt>
      <trkpt lat="46.20936" lon="-1.51155">
        <ele>6.82782</ele>
        <time>2023-05-31T14:17:41.000Z</time>
      </trkpt>
      <trkpt lat="46.20933" lon="-1.51151">
        <ele>6.7789</ele>
        <time>2023-05-31T14:17:42.000Z</time>
      </trkpt>
      <trkpt lat="46.20931" lon="-1.51147">
        <ele>6.72951</ele>
        <time>2023-05-31T14:17:43.000Z</time>
      </trkpt>
      <trkpt lat="46.20928" lon="-1.51143">
        <ele>6.64402</ele>
        <time>2023-05-31T14:17:44.000Z</time>
      </trkpt>
      <trkpt lat="46.20925" lon="-1.51138">
        <ele>6.56181</ele>
        <time>2023-05-31T14:17:45.000Z</time>
      </trkpt>
      <trkpt lat="46.20923" lon="-1.51134">
        <ele>6.48944</ele>
        <time>2023-05-31T14:17:46.000Z</time>
      </trkpt>
      <trkpt lat="46.20921" lon="-1.5113">
        <ele>6.45424</ele>
        <time>2023-05-31T14:17:47.000Z</time>
      </trkpt>
      <trkpt lat="46.20919" lon="-1.51125">
        <ele>6.4195</ele>
        <time>2023-05-31T14:17:48.000Z</time>
      </trkpt>
      <trkpt lat="46.20917" lon="-1.51121">
        <ele>6.42816</ele>
        <time>2023-05-31T14:17:49.000Z</time>
      </trkpt>
      <trkpt lat="46.20915" lon="-1.51116">
        <ele>6.41731</ele>
        <time>2023-05-31T14:17:50.000Z</time>
      </trkpt>
      <trkpt lat="46.20912" lon="-1.51112">
        <ele>6.41917</ele>
        <time>2023-05-31T14:17:51.000Z</time>
      </trkpt>
      <trkpt lat="46.20908" lon="-1.51109">
        <ele>6.40409</ele>
        <time>2023-05-31T14:17:52.000Z</time>
      </trkpt>
      <trkpt lat="46.20905" lon="-1.51105">
        <ele>6.38776</ele>
        <time>2023-05-31T14:17:53.000Z</time>
      </trkpt>
      <trkpt lat="46.20902" lon="-1.51102">
        <ele>6.34839</ele>
        <time>2023-05-31T14:17:54.000Z</time>
      </trkpt>
      <trkpt lat="46.20899" lon="-1.51097">
        <ele>6.33685</ele>
        <time>2023-05-31T14:17:55.000Z</time>
      </trkpt>
      <trkpt lat="46.20897" lon="-1.51092">
        <ele>6.33469</ele>
        <time>2023-05-31T14:17:56.000Z</time>
      </trkpt>
      <trkpt lat="46.20895" lon="-1.51087">
        <ele>6.34158</ele>
        <time>2023-05-31T14:17:57.000Z</time>
      </trkpt>
      <trkpt lat="46.20892" lon="-1.51082">
        <ele>6.35069</ele>
        <time>2023-05-31T14:17:58.000Z</time>
      </trkpt>
      <trkpt lat="46.20891" lon="-1.51076">
        <ele>6.35437</ele>
        <time>2023-05-31T14:17:59.000Z</time>
      </trkpt>
      <trkpt lat="46.20889" lon="-1.5107">
        <ele>6.35949</ele>
        <time>2023-05-31T14:18:00.000Z</time>
      </trkpt>
      <trkpt lat="46.20888" lon="-1.51064">
        <ele>6.35903</ele>
        <time>2023-05-31T14:18:01.000Z</time>
      </trkpt>
      <trkpt lat="46.20888" lon="-1.51057">
        <ele>6.35676</ele>
        <time>2023-05-31T14:18:02.000Z</time>
      </trkpt>
      <trkpt lat="46.20887" lon="-1.5105">
        <ele>6.35536</ele>
        <time>2023-05-31T14:18:03.000Z</time>
      </trkpt>
      <trkpt lat="46.20886" lon="-1.51044">
        <ele>6.35898</ele>
        <time>2023-05-31T14:18:04.000Z</time>
      </trkpt>
      <trkpt lat="46.20884" lon="-1.51038">
        <ele>6.35528</ele>
        <time>2023-05-31T14:18:05.000Z</time>
      </trkpt>
      <trkpt lat="46.20883" lon="-1.51032">
        <ele>6.346</ele>
        <time>2023-05-31T14:18:06.000Z</time>
      </trkpt>
      <trkpt lat="46.20881" lon="-1.51026">
        <ele>6.30282</ele>
        <time>2023-05-31T14:18:07.000Z</time>
      </trkpt>
      <trkpt lat="46.20879" lon="-1.51021">
        <ele>6.27508</ele>
        <time>2023-05-31T14:18:08.000Z</time>
      </trkpt>
      <trkpt lat="46.20877" lon="-1.51015">
        <ele>6.20841</ele>
        <time>2023-05-31T14:18:09.000Z</time>
      </trkpt>
      <trkpt lat="46.20875" lon="-1.5101">
        <ele>6.18439</ele>
        <time>2023-05-31T14:18:10.000Z</time>
      </trkpt>
      <trkpt lat="46.20872" lon="-1.51005">
        <ele>6.15258</ele>
        <time>2023-05-31T14:18:11.000Z</time>
      </trkpt>
      <trkpt lat="46.20869" lon="-1.51001">
        <ele>6.139</ele>
        <time>2023-05-31T14:18:12.000Z</time>
      </trkpt>
      <trkpt lat="46.20866" lon="-1.50996">
        <ele>6.14577</ele>
        <time>2023-05-31T14:18:13.000Z</time>
      </trkpt>
      <trkpt lat="46.20863" lon="-1.50991">
        <ele>6.17702</ele>
        <time>2023-05-31T14:18:14.000Z</time>
      </trkpt>
      <trkpt lat="46.2086" lon="-1.50987">
        <ele>6.19472</ele>
        <time>2023-05-31T14:18:15.000Z</time>
      </trkpt>
      <trkpt lat="46.20857" lon="-1.50982">
        <ele>6.17521</ele>
        <time>2023-05-31T14:18:16.000Z</time>
      </trkpt>
      <trkpt lat="46.20854" lon="-1.50977">
        <ele>6.15583</ele>
        <time>2023-05-31T14:18:17.000Z</time>
      </trkpt>
      <trkpt lat="46.2085" lon="-1.50973">
        <ele>6.13909</ele>
        <time>2023-05-31T14:18:18.000Z</time>
      </trkpt>
      <trkpt lat="46.20847" lon="-1.50968">
        <ele>6.12898</ele>
        <time>2023-05-31T14:18:19.000Z</time>
      </trkpt>
      <trkpt lat="46.20844" lon="-1.50963">
        <ele>6.10408</ele>
        <time>2023-05-31T14:18:20.000Z</time>
      </trkpt>
      <trkpt lat="46.2084" lon="-1.50959">
        <ele>6.10416</ele>
        <time>2023-05-31T14:18:21.000Z</time>
      </trkpt>
      <trkpt lat="46.20837" lon="-1.50954">
        <ele>6.09353</ele>
        <time>2023-05-31T14:18:22.000Z</time>
      </trkpt>
      <trkpt lat="46.20834" lon="-1.5095">
        <ele>6.09356</ele>
        <time>2023-05-31T14:18:23.000Z</time>
      </trkpt>
      <trkpt lat="46.20831" lon="-1.50946">
        <ele>6.08683</ele>
        <time>2023-05-31T14:18:24.000Z</time>
      </trkpt>
      <trkpt lat="46.20828" lon="-1.50942">
        <ele>6.08852</ele>
        <time>2023-05-31T14:18:25.000Z</time>
      </trkpt>
      <trkpt lat="46.20824" lon="-1.50937">
        <ele>6.09274</ele>
        <time>2023-05-31T14:18:26.000Z</time>
      </trkpt>
      <trkpt lat="46.20821" lon="-1.50933">
        <ele>6.11692</ele>
        <time>2023-05-31T14:18:27.000Z</time>
      </trkpt>
      <trkpt lat="46.20818" lon="-1.50928">
        <ele>6.147</ele>
        <time>2023-05-31T14:18:28.000Z</time>
      </trkpt>
      <trkpt lat="46.20814" lon="-1.50924">
        <ele>6.17968</ele>
        <time>2023-05-31T14:18:29.000Z</time>
      </trkpt>
      <trkpt lat="46.2081" lon="-1.5092">
        <ele>6.18346</ele>
        <time>2023-05-31T14:18:30.000Z</time>
      </trkpt>
      <trkpt lat="46.20806" lon="-1.50916">
        <ele>6.18329</ele>
        <time>2023-05-31T14:18:31.000Z</time>
      </trkpt>
      <trkpt lat="46.20803" lon="-1.50911">
        <ele>6.1806</ele>
        <time>2023-05-31T14:18:32.000Z</time>
      </trkpt>
      <trkpt lat="46.20799" lon="-1.50907">
        <ele>6.14249</ele>
        <time>2023-05-31T14:18:33.000Z</time>
      </trkpt>
      <trkpt lat="46.20796" lon="-1.50902">
        <ele>6.10889</ele>
        <time>2023-05-31T14:18:34.000Z</time>
      </trkpt>
      <trkpt lat="46.20793" lon="-1.50898">
        <ele>6.07791</ele>
        <time>2023-05-31T14:18:35.000Z</time>
      </trkpt>
      <trkpt lat="46.20789" lon="-1.50893">
        <ele>6.05805</ele>
        <time>2023-05-31T14:18:36.000Z</time>
      </trkpt>
      <trkpt lat="46.20786" lon="-1.50889">
        <ele>6.02915</ele>
        <time>2023-05-31T14:18:37.000Z</time>
      </trkpt>
      <trkpt lat="46.20782" lon="-1.50884">
        <ele>6.00556</ele>
        <time>2023-05-31T14:18:38.000Z</time>
      </trkpt>
      <trkpt lat="46.20779" lon="-1.50881">
        <ele>5.97834</ele>
        <time>2023-05-31T14:18:39.000Z</time>
      </trkpt>
      <trkpt lat="46.20776" lon="-1.50877">
        <ele>5.95971</ele>
        <time>2023-05-31T14:18:40.000Z</time>
      </trkpt>
      <trkpt lat="46.20773" lon="-1.50873">
        <ele>5.92733</ele>
        <time>2023-05-31T14:18:41.000Z</time>
      </trkpt>
      <trkpt lat="46.2077" lon="-1.50869">
        <ele>5.90719</ele>
        <time>2023-05-31T14:18:42.000Z</time>
      </trkpt>
      <trkpt lat="46.20766" lon="-1.50865">
        <ele>5.88871</ele>
        <time>2023-05-31T14:18:43.000Z</time>
      </trkpt>
      <trkpt lat="46.20764" lon="-1.50862">
        <ele>5.91025</ele>
        <time>2023-05-31T14:18:44.000Z</time>
      </trkpt>
      <trkpt lat="46.20761" lon="-1.50857">
        <ele>5.94129</ele>
        <time>2023-05-31T14:18:45.000Z</time>
      </trkpt>
      <trkpt lat="46.20758" lon="-1.50853">
        <ele>5.99181</ele>
        <time>2023-05-31T14:18:46.000Z</time>
      </trkpt>
      <trkpt lat="46.20754" lon="-1.5085">
        <ele>6.00956</ele>
        <time>2023-05-31T14:18:47.000Z</time>
      </trkpt>
      <trkpt lat="46.20751" lon="-1.50846">
        <ele>6.00513</ele>
        <time>2023-05-31T14:18:48.000Z</time>
      </trkpt>
      <trkpt lat="46.20748" lon="-1.50842">
        <ele>5.9858</ele>
        <time>2023-05-31T14:18:49.000Z</time>
      </trkpt>
      <trkpt lat="46.20745" lon="-1.50837">
        <ele>6.00678</ele>
        <time>2023-05-31T14:18:50.000Z</time>
      </trkpt>
      <trkpt lat="46.20742" lon="-1.50833">
        <ele>6.06757</ele>
        <time>2023-05-31T14:18:51.000Z</time>
      </trkpt>
      <trkpt lat="46.2074" lon="-1.50828">
        <ele>6.12551</ele>
        <time>2023-05-31T14:18:52.000Z</time>
      </trkpt>
      <trkpt lat="46.20737" lon="-1.50824">
        <ele>6.20979</ele>
        <time>2023-05-31T14:18:53.000Z</time>
      </trkpt>
      <trkpt lat="46.20735" lon="-1.50819">
        <ele>6.29413</ele>
        <time>2023-05-31T14:18:54.000Z</time>
      </trkpt>
      <trkpt lat="46.20732" lon="-1.50814">
        <ele>6.38659</ele>
        <time>2023-05-31T14:18:55.000Z</time>
      </trkpt>
      <trkpt lat="46.2073" lon="-1.50809">
        <ele>6.4564</ele>
        <time>2023-05-31T14:18:56.000Z</time>
      </trkpt>
      <trkpt lat="46.20727" lon="-1.50804">
        <ele>6.53079</ele>
        <time>2023-05-31T14:18:57.000Z</time>
      </trkpt>
      <trkpt lat="46.20725" lon="-1.508">
        <ele>6.61106</ele>
        <time>2023-05-31T14:18:58.000Z</time>
      </trkpt>
      <trkpt lat="46.20722" lon="-1.50795">
        <ele>6.6833</ele>
        <time>2023-05-31T14:18:59.000Z</time>
      </trkpt>
      <trkpt lat="46.2072" lon="-1.5079">
        <ele>6.78383</ele>
        <time>2023-05-31T14:19:00.000Z</time>
      </trkpt>
      <trkpt lat="46.20718" lon="-1.50785">
        <ele>6.90484</ele>
        <time>2023-05-31T14:19:01.000Z</time>
      </trkpt>
      <trkpt lat="46.20715" lon="-1.5078">
        <ele>7.02709</ele>
        <time>2023-05-31T14:19:02.000Z</time>
      </trkpt>
      <trkpt lat="46.20713" lon="-1.50775">
        <ele>7.15243</ele>
        <time>2023-05-31T14:19:03.000Z</time>
      </trkpt>
      <trkpt lat="46.20712" lon="-1.5077">
        <ele>7.24633</ele>
        <time>2023-05-31T14:19:04.000Z</time>
      </trkpt>
      <trkpt lat="46.20712" lon="-1.50765">
        <ele>7.30703</ele>
        <time>2023-05-31T14:19:05.000Z</time>
      </trkpt>
      <trkpt lat="46.20712" lon="-1.50759">
        <ele>7.40773</ele>
        <time>2023-05-31T14:19:06.000Z</time>
      </trkpt>
      <trkpt lat="46.20713" lon="-1.50754">
        <ele>7.50854</ele>
        <time>2023-05-31T14:19:07.000Z</time>
      </trkpt>
      <trkpt lat="46.20713" lon="-1.50748">
        <ele>7.58306</ele>
        <time>2023-05-31T14:19:08.000Z</time>
      </trkpt>
      <trkpt lat="46.20714" lon="-1.50743">
        <ele>7.75154</ele>
        <time>2023-05-31T14:19:09.000Z</time>
      </trkpt>
      <trkpt lat="46.20714" lon="-1.50738">
        <ele>7.8744</ele>
        <time>2023-05-31T14:19:10.000Z</time>
      </trkpt>
      <trkpt lat="46.20712" lon="-1.50732">
        <ele>7.95019</ele>
        <time>2023-05-31T14:19:11.000Z</time>
      </trkpt>
      <trkpt lat="46.20711" lon="-1.50727">
        <ele>8.04747</ele>
        <time>2023-05-31T14:19:12.000Z</time>
      </trkpt>
      <trkpt lat="46.20709" lon="-1.50722">
        <ele>8.12329</ele>
        <time>2023-05-31T14:19:13.000Z</time>
      </trkpt>
      <trkpt lat="46.20707" lon="-1.50717">
        <ele>8.20219</ele>
        <time>2023-05-31T14:19:14.000Z</time>
      </trkpt>
      <trkpt lat="46.20706" lon="-1.50711">
        <ele>8.25839</ele>
        <time>2023-05-31T14:19:15.000Z</time>
      </trkpt>
      <trkpt lat="46.20706" lon="-1.50705">
        <ele>8.31888</ele>
        <time>2023-05-31T14:19:16.000Z</time>
      </trkpt>
      <trkpt lat="46.20705" lon="-1.507">
        <ele>8.39497</ele>
        <time>2023-05-31T14:19:17.000Z</time>
      </trkpt>
      <trkpt lat="46.20704" lon="-1.50694">
        <ele>8.46103</ele>
        <time>2023-05-31T14:19:18.000Z</time>
      </trkpt>
      <trkpt lat="46.20704" lon="-1.50689">
        <ele>8.53698</ele>
        <time>2023-05-31T14:19:19.000Z</time>
      </trkpt>
      <trkpt lat="46.20703" lon="-1.50683">
        <ele>8.58519</ele>
        <time>2023-05-31T14:19:20.000Z</time>
      </trkpt>
      <trkpt lat="46.20702" lon="-1.50678">
        <ele>8.6104</ele>
        <time>2023-05-31T14:19:21.000Z</time>
      </trkpt>
      <trkpt lat="46.20701" lon="-1.50672">
        <ele>8.63561</ele>
        <time>2023-05-31T14:19:22.000Z</time>
      </trkpt>
      <trkpt lat="46.20701" lon="-1.50667">
        <ele>8.65656</ele>
        <time>2023-05-31T14:19:23.000Z</time>
      </trkpt>
      <trkpt lat="46.207" lon="-1.50661">
        <ele>8.67874</ele>
        <time>2023-05-31T14:19:24.000Z</time>
      </trkpt>
      <trkpt lat="46.20699" lon="-1.50656">
        <ele>8.73575</ele>
        <time>2023-05-31T14:19:25.000Z</time>
      </trkpt>
      <trkpt lat="46.20698" lon="-1.5065">
        <ele>8.75665</ele>
        <time>2023-05-31T14:19:26.000Z</time>
      </trkpt>
      <trkpt lat="46.20697" lon="-1.50644">
        <ele>8.79297</ele>
        <time>2023-05-31T14:19:27.000Z</time>
      </trkpt>
      <trkpt lat="46.20696" lon="-1.50639">
        <ele>8.85747</ele>
        <time>2023-05-31T14:19:28.000Z</time>
      </trkpt>
      <trkpt lat="46.20694" lon="-1.50633">
        <ele>8.85444</ele>
        <time>2023-05-31T14:19:29.000Z</time>
      </trkpt>
      <trkpt lat="46.20693" lon="-1.50627">
        <ele>8.879</ele>
        <time>2023-05-31T14:19:30.000Z</time>
      </trkpt>
      <trkpt lat="46.20692" lon="-1.50621">
        <ele>8.90574</ele>
        <time>2023-05-31T14:19:31.000Z</time>
      </trkpt>
      <trkpt lat="46.20691" lon="-1.50616">
        <ele>8.9001</ele>
        <time>2023-05-31T14:19:32.000Z</time>
      </trkpt>
      <trkpt lat="46.20689" lon="-1.5061">
        <ele>8.91243</ele>
        <time>2023-05-31T14:19:33.000Z</time>
      </trkpt>
      <trkpt lat="46.20687" lon="-1.50604">
        <ele>8.91172</ele>
        <time>2023-05-31T14:19:34.000Z</time>
      </trkpt>
      <trkpt lat="46.20685" lon="-1.50599">
        <ele>8.94624</ele>
        <time>2023-05-31T14:19:35.000Z</time>
      </trkpt>
      <trkpt lat="46.20683" lon="-1.50594">
        <ele>8.97679</ele>
        <time>2023-05-31T14:19:36.000Z</time>
      </trkpt>
      <trkpt lat="46.2068" lon="-1.50588">
        <ele>9.01353</ele>
        <time>2023-05-31T14:19:37.000Z</time>
      </trkpt>
      <trkpt lat="46.20678" lon="-1.50584">
        <ele>9.03853</ele>
        <time>2023-05-31T14:19:38.000Z</time>
      </trkpt>
      <trkpt lat="46.20675" lon="-1.50579">
        <ele>9.06023</ele>
        <time>2023-05-31T14:19:39.000Z</time>
      </trkpt>
      <trkpt lat="46.20672" lon="-1.50574">
        <ele>9.09387</ele>
        <time>2023-05-31T14:19:40.000Z</time>
      </trkpt>
      <trkpt lat="46.20669" lon="-1.50569">
        <ele>9.12465</ele>
        <time>2023-05-31T14:19:41.000Z</time>
      </trkpt>
      <trkpt lat="46.20666" lon="-1.50565">
        <ele>9.16144</ele>
        <time>2023-05-31T14:19:42.000Z</time>
      </trkpt>
      <trkpt lat="46.20662" lon="-1.50562">
        <ele>9.20432</ele>
        <time>2023-05-31T14:19:43.000Z</time>
      </trkpt>
      <trkpt lat="46.20659" lon="-1.50558">
        <ele>9.21331</ele>
        <time>2023-05-31T14:19:44.000Z</time>
      </trkpt>
      <trkpt lat="46.20655" lon="-1.50555">
        <ele>9.19328</ele>
        <time>2023-05-31T14:19:45.000Z</time>
      </trkpt>
      <trkpt lat="46.20651" lon="-1.50552">
        <ele>9.17067</ele>
        <time>2023-05-31T14:19:46.000Z</time>
      </trkpt>
      <trkpt lat="46.20648" lon="-1.5055">
        <ele>9.13863</ele>
        <time>2023-05-31T14:19:47.000Z</time>
      </trkpt>
      <trkpt lat="46.20644" lon="-1.50547">
        <ele>9.10676</ele>
        <time>2023-05-31T14:19:48.000Z</time>
      </trkpt>
      <trkpt lat="46.2064" lon="-1.50544">
        <ele>9.0633</ele>
        <time>2023-05-31T14:19:49.000Z</time>
      </trkpt>
      <trkpt lat="46.20636" lon="-1.50541">
        <ele>9.02056</ele>
        <time>2023-05-31T14:19:50.000Z</time>
      </trkpt>
      <trkpt lat="46.20633" lon="-1.50539">
        <ele>8.97588</ele>
        <time>2023-05-31T14:19:51.000Z</time>
      </trkpt>
      <trkpt lat="46.20629" lon="-1.50536">
        <ele>8.949</ele>
        <time>2023-05-31T14:19:52.000Z</time>
      </trkpt>
      <trkpt lat="46.20624" lon="-1.50534">
        <ele>8.92273</ele>
        <time>2023-05-31T14:19:53.000Z</time>
      </trkpt>
      <trkpt lat="46.2062" lon="-1.50532">
        <ele>8.90213</ele>
        <time>2023-05-31T14:19:54.000Z</time>
      </trkpt>
      <trkpt lat="46.20616" lon="-1.5053">
        <ele>8.87525</ele>
        <time>2023-05-31T14:19:55.000Z</time>
      </trkpt>
      <trkpt lat="46.20612" lon="-1.50526">
        <ele>8.8686</ele>
        <time>2023-05-31T14:19:56.000Z</time>
      </trkpt>
      <trkpt lat="46.20608" lon="-1.50523">
        <ele>8.83306</ele>
        <time>2023-05-31T14:19:57.000Z</time>
      </trkpt>
      <trkpt lat="46.20604" lon="-1.5052">
        <ele>8.80558</ele>
        <time>2023-05-31T14:19:58.000Z</time>
      </trkpt>
      <trkpt lat="46.20601" lon="-1.50517">
        <ele>8.80011</ele>
        <time>2023-05-31T14:19:59.000Z</time>
      </trkpt>
      <trkpt lat="46.20597" lon="-1.50515">
        <ele>8.80561</ele>
        <time>2023-05-31T14:20:00.000Z</time>
      </trkpt>
      <trkpt lat="46.20593" lon="-1.50513">
        <ele>8.82502</ele>
        <time>2023-05-31T14:20:01.000Z</time>
      </trkpt>
      <trkpt lat="46.20589" lon="-1.5051">
        <ele>8.80749</ele>
        <time>2023-05-31T14:20:02.000Z</time>
      </trkpt>
      <trkpt lat="46.20585" lon="-1.50508">
        <ele>8.79089</ele>
        <time>2023-05-31T14:20:03.000Z</time>
      </trkpt>
      <trkpt lat="46.20581" lon="-1.50506">
        <ele>8.8082</ele>
        <time>2023-05-31T14:20:04.000Z</time>
      </trkpt>
      <trkpt lat="46.20577" lon="-1.50504">
        <ele>8.82482</ele>
        <time>2023-05-31T14:20:05.000Z</time>
      </trkpt>
      <trkpt lat="46.20573" lon="-1.50501">
        <ele>8.81682</ele>
        <time>2023-05-31T14:20:06.000Z</time>
      </trkpt>
      <trkpt lat="46.20569" lon="-1.50499">
        <ele>8.82043</ele>
        <time>2023-05-31T14:20:07.000Z</time>
      </trkpt>
      <trkpt lat="46.20566" lon="-1.50497">
        <ele>8.83357</ele>
        <time>2023-05-31T14:20:08.000Z</time>
      </trkpt>
      <trkpt lat="46.20562" lon="-1.50494">
        <ele>8.85144</ele>
        <time>2023-05-31T14:20:09.000Z</time>
      </trkpt>
      <trkpt lat="46.20558" lon="-1.50492">
        <ele>8.84566</ele>
        <time>2023-05-31T14:20:10.000Z</time>
      </trkpt>
      <trkpt lat="46.20554" lon="-1.50489">
        <ele>8.8829</ele>
        <time>2023-05-31T14:20:11.000Z</time>
      </trkpt>
      <trkpt lat="46.2055" lon="-1.50487">
        <ele>8.90976</ele>
        <time>2023-05-31T14:20:12.000Z</time>
      </trkpt>
      <trkpt lat="46.20546" lon="-1.50484">
        <ele>8.92356</ele>
        <time>2023-05-31T14:20:13.000Z</time>
      </trkpt>
      <trkpt lat="46.20542" lon="-1.50482">
        <ele>8.94194</ele>
        <time>2023-05-31T14:20:14.000Z</time>
      </trkpt>
      <trkpt lat="46.20537" lon="-1.5048">
        <ele>8.92132</ele>
        <time>2023-05-31T14:20:15.000Z</time>
      </trkpt>
      <trkpt lat="46.20534" lon="-1.50476">
        <ele>8.88796</ele>
        <time>2023-05-31T14:20:16.000Z</time>
      </trkpt>
      <trkpt lat="46.20531" lon="-1.50472">
        <ele>8.87309</ele>
        <time>2023-05-31T14:20:17.000Z</time>
      </trkpt>
      <trkpt lat="46.20527" lon="-1.50468">
        <ele>8.87234</ele>
        <time>2023-05-31T14:20:18.000Z</time>
      </trkpt>
      <trkpt lat="46.20524" lon="-1.50463">
        <ele>8.85354</ele>
        <time>2023-05-31T14:20:19.000Z</time>
      </trkpt>
      <trkpt lat="46.20521" lon="-1.50459">
        <ele>8.82825</ele>
        <time>2023-05-31T14:20:20.000Z</time>
      </trkpt>
      <trkpt lat="46.20518" lon="-1.50455">
        <ele>8.80573</ele>
        <time>2023-05-31T14:20:21.000Z</time>
      </trkpt>
      <trkpt lat="46.20514" lon="-1.5045">
        <ele>8.84274</ele>
        <time>2023-05-31T14:20:22.000Z</time>
      </trkpt>
      <trkpt lat="46.20512" lon="-1.50444">
        <ele>8.89631</ele>
        <time>2023-05-31T14:20:23.000Z</time>
      </trkpt>
      <trkpt lat="46.20509" lon="-1.50439">
        <ele>8.93523</ele>
        <time>2023-05-31T14:20:24.000Z</time>
      </trkpt>
      <trkpt lat="46.20507" lon="-1.50434">
        <ele>8.99152</ele>
        <time>2023-05-31T14:20:25.000Z</time>
      </trkpt>
      <trkpt lat="46.20505" lon="-1.50429">
        <ele>9.06864</ele>
        <time>2023-05-31T14:20:26.000Z</time>
      </trkpt>
      <trkpt lat="46.20503" lon="-1.50423">
        <ele>9.1466</ele>
        <time>2023-05-31T14:20:27.000Z</time>
      </trkpt>
      <trkpt lat="46.205" lon="-1.50418">
        <ele>9.21685</ele>
        <time>2023-05-31T14:20:28.000Z</time>
      </trkpt>
      <trkpt lat="46.20498" lon="-1.50413">
        <ele>9.28497</ele>
        <time>2023-05-31T14:20:29.000Z</time>
      </trkpt>
      <trkpt lat="46.20495" lon="-1.5041">
        <ele>9.34807</ele>
        <time>2023-05-31T14:20:30.000Z</time>
      </trkpt>
      <trkpt lat="46.20492" lon="-1.50405">
        <ele>9.35017</ele>
        <time>2023-05-31T14:20:31.000Z</time>
      </trkpt>
      <trkpt lat="46.20488" lon="-1.50401">
        <ele>9.34917</ele>
        <time>2023-05-31T14:20:32.000Z</time>
      </trkpt>
      <trkpt lat="46.20485" lon="-1.50397">
        <ele>9.34683</ele>
        <time>2023-05-31T14:20:33.000Z</time>
      </trkpt>
      <trkpt lat="46.20481" lon="-1.50392">
        <ele>9.34366</ele>
        <time>2023-05-31T14:20:34.000Z</time>
      </trkpt>
      <trkpt lat="46.20477" lon="-1.50387">
        <ele>9.36596</ele>
        <time>2023-05-31T14:20:35.000Z</time>
      </trkpt>
      <trkpt lat="46.20474" lon="-1.50383">
        <ele>9.39747</ele>
        <time>2023-05-31T14:20:36.000Z</time>
      </trkpt>
      <trkpt lat="46.2047" lon="-1.50379">
        <ele>9.41006</ele>
        <time>2023-05-31T14:20:37.000Z</time>
      </trkpt>
      <trkpt lat="46.20466" lon="-1.50374">
        <ele>9.41253</ele>
        <time>2023-05-31T14:20:38.000Z</time>
      </trkpt>
      <trkpt lat="46.20463" lon="-1.50369">
        <ele>9.41451</ele>
        <time>2023-05-31T14:20:39.000Z</time>
      </trkpt>
      <trkpt lat="46.20459" lon="-1.50365">
        <ele>9.42544</ele>
        <time>2023-05-31T14:20:40.000Z</time>
      </trkpt>
      <trkpt lat="46.20456" lon="-1.50359">
        <ele>9.43141</ele>
        <time>2023-05-31T14:20:41.000Z</time>
      </trkpt>
      <trkpt lat="46.20452" lon="-1.50353">
        <ele>9.40788</ele>
        <time>2023-05-31T14:20:42.000Z</time>
      </trkpt>
      <trkpt lat="46.20448" lon="-1.50347">
        <ele>9.34675</ele>
        <time>2023-05-31T14:20:43.000Z</time>
      </trkpt>
      <trkpt lat="46.20445" lon="-1.50342">
        <ele>9.31222</ele>
        <time>2023-05-31T14:20:44.000Z</time>
      </trkpt>
      <trkpt lat="46.20443" lon="-1.50337">
        <ele>9.27641</ele>
        <time>2023-05-31T14:20:45.000Z</time>
      </trkpt>
      <trkpt lat="46.20439" lon="-1.50332">
        <ele>9.22265</ele>
        <time>2023-05-31T14:20:46.000Z</time>
      </trkpt>
      <trkpt lat="46.20437" lon="-1.50326">
        <ele>9.15614</ele>
        <time>2023-05-31T14:20:47.000Z</time>
      </trkpt>
      <trkpt lat="46.20434" lon="-1.50319">
        <ele>9.08738</ele>
        <time>2023-05-31T14:20:48.000Z</time>
      </trkpt>
      <trkpt lat="46.20432" lon="-1.50314">
        <ele>9.05672</ele>
        <time>2023-05-31T14:20:49.000Z</time>
      </trkpt>
      <trkpt lat="46.20429" lon="-1.50307">
        <ele>9.03281</ele>
        <time>2023-05-31T14:20:50.000Z</time>
      </trkpt>
      <trkpt lat="46.20426" lon="-1.503">
        <ele>9.04966</ele>
        <time>2023-05-31T14:20:51.000Z</time>
      </trkpt>
      <trkpt lat="46.20423" lon="-1.50294">
        <ele>9.0799</ele>
        <time>2023-05-31T14:20:52.000Z</time>
      </trkpt>
      <trkpt lat="46.20421" lon="-1.50287">
        <ele>9.13075</ele>
        <time>2023-05-31T14:20:53.000Z</time>
      </trkpt>
      <trkpt lat="46.20418" lon="-1.5028">
        <ele>9.1682</ele>
        <time>2023-05-31T14:20:54.000Z</time>
      </trkpt>
      <trkpt lat="46.20416" lon="-1.50273">
        <ele>9.18702</ele>
        <time>2023-05-31T14:20:55.000Z</time>
      </trkpt>
      <trkpt lat="46.20415" lon="-1.50265">
        <ele>9.1867</ele>
        <time>2023-05-31T14:20:56.000Z</time>
      </trkpt>
      <trkpt lat="46.20412" lon="-1.50258">
        <ele>9.20835</ele>
        <time>2023-05-31T14:20:57.000Z</time>
      </trkpt>
      <trkpt lat="46.2041" lon="-1.50251">
        <ele>9.21675</ele>
        <time>2023-05-31T14:20:58.000Z</time>
      </trkpt>
      <trkpt lat="46.20409" lon="-1.50243">
        <ele>9.23045</ele>
        <time>2023-05-31T14:20:59.000Z</time>
      </trkpt>
      <trkpt lat="46.20408" lon="-1.50235">
        <ele>9.24539</ele>
        <time>2023-05-31T14:21:00.000Z</time>
      </trkpt>
      <trkpt lat="46.20406" lon="-1.50228">
        <ele>9.24921</ele>
        <time>2023-05-31T14:21:01.000Z</time>
      </trkpt>
      <trkpt lat="46.20405" lon="-1.50221">
        <ele>9.25459</ele>
        <time>2023-05-31T14:21:02.000Z</time>
      </trkpt>
      <trkpt lat="46.20404" lon="-1.50214">
        <ele>9.27155</ele>
        <time>2023-05-31T14:21:03.000Z</time>
      </trkpt>
      <trkpt lat="46.20403" lon="-1.50207">
        <ele>9.26278</ele>
        <time>2023-05-31T14:21:04.000Z</time>
      </trkpt>
      <trkpt lat="46.20402" lon="-1.502">
        <ele>9.25456</ele>
        <time>2023-05-31T14:21:05.000Z</time>
      </trkpt>
      <trkpt lat="46.20401" lon="-1.50192">
        <ele>9.26531</ele>
        <time>2023-05-31T14:21:06.000Z</time>
      </trkpt>
      <trkpt lat="46.204" lon="-1.50186">
        <ele>9.25294</ele>
        <time>2023-05-31T14:21:07.000Z</time>
      </trkpt>
      <trkpt lat="46.204" lon="-1.50179">
        <ele>9.26579</ele>
        <time>2023-05-31T14:21:08.000Z</time>
      </trkpt>
      <trkpt lat="46.204" lon="-1.50172">
        <ele>9.22822</ele>
        <time>2023-05-31T14:21:09.000Z</time>
      </trkpt>
      <trkpt lat="46.204" lon="-1.50164">
        <ele>9.21242</ele>
        <time>2023-05-31T14:21:10.000Z</time>
      </trkpt>
      <trkpt lat="46.20401" lon="-1.50158">
        <ele>9.2126</ele>
        <time>2023-05-31T14:21:11.000Z</time>
      </trkpt>
      <trkpt lat="46.20401" lon="-1.50151">
        <ele>9.19935</ele>
        <time>2023-05-31T14:21:12.000Z</time>
      </trkpt>
      <trkpt lat="46.204" lon="-1.50143">
        <ele>9.1583</ele>
        <time>2023-05-31T14:21:13.000Z</time>
      </trkpt>
      <trkpt lat="46.20401" lon="-1.50137">
        <ele>9.10507</ele>
        <time>2023-05-31T14:21:14.000Z</time>
      </trkpt>
      <trkpt lat="46.20401" lon="-1.5013">
        <ele>9.06952</ele>
        <time>2023-05-31T14:21:15.000Z</time>
      </trkpt>
      <trkpt lat="46.20401" lon="-1.50123">
        <ele>9.08303</ele>
        <time>2023-05-31T14:21:16.000Z</time>
      </trkpt>
      <trkpt lat="46.20401" lon="-1.50116">
        <ele>9.0828</ele>
        <time>2023-05-31T14:21:17.000Z</time>
      </trkpt>
      <trkpt lat="46.20401" lon="-1.5011">
        <ele>9.10513</ele>
        <time>2023-05-31T14:21:18.000Z</time>
      </trkpt>
      <trkpt lat="46.20401" lon="-1.50105">
        <ele>9.12299</ele>
        <time>2023-05-31T14:21:19.000Z</time>
      </trkpt>
      <trkpt lat="46.20401" lon="-1.50098">
        <ele>9.11553</ele>
        <time>2023-05-31T14:21:20.000Z</time>
      </trkpt>
      <trkpt lat="46.20401" lon="-1.50092">
        <ele>9.13493</ele>
        <time>2023-05-31T14:21:21.000Z</time>
      </trkpt>
      <trkpt lat="46.20401" lon="-1.50085">
        <ele>9.14635</ele>
        <time>2023-05-31T14:21:22.000Z</time>
      </trkpt>
      <trkpt lat="46.20401" lon="-1.50078">
        <ele>9.15969</ele>
        <time>2023-05-31T14:21:23.000Z</time>
      </trkpt>
      <trkpt lat="46.204" lon="-1.50069">
        <ele>9.15708</ele>
        <time>2023-05-31T14:21:24.000Z</time>
      </trkpt>
      <trkpt lat="46.204" lon="-1.50062">
        <ele>9.155</ele>
        <time>2023-05-31T14:21:25.000Z</time>
      </trkpt>
      <trkpt lat="46.20399" lon="-1.50054">
        <ele>9.15676</ele>
        <time>2023-05-31T14:21:26.000Z</time>
      </trkpt>
      <trkpt lat="46.20398" lon="-1.50047">
        <ele>9.20071</ele>
        <time>2023-05-31T14:21:27.000Z</time>
      </trkpt>
      <trkpt lat="46.20398" lon="-1.5004">
        <ele>9.21855</ele>
        <time>2023-05-31T14:21:28.000Z</time>
      </trkpt>
      <trkpt lat="46.20398" lon="-1.50033">
        <ele>9.25813</ele>
        <time>2023-05-31T14:21:29.000Z</time>
      </trkpt>
      <trkpt lat="46.20398" lon="-1.50025">
        <ele>9.27495</ele>
        <time>2023-05-31T14:21:30.000Z</time>
      </trkpt>
      <trkpt lat="46.20399" lon="-1.50018">
        <ele>9.26873</ele>
        <time>2023-05-31T14:21:31.000Z</time>
      </trkpt>
      <trkpt lat="46.20399" lon="-1.50011">
        <ele>9.26517</ele>
        <time>2023-05-31T14:21:32.000Z</time>
      </trkpt>
      <trkpt lat="46.204" lon="-1.50004">
        <ele>9.26854</ele>
        <time>2023-05-31T14:21:33.000Z</time>
      </trkpt>
      <trkpt lat="46.20401" lon="-1.49996">
        <ele>9.29334</ele>
        <time>2023-05-31T14:21:34.000Z</time>
      </trkpt>
      <trkpt lat="46.20402" lon="-1.49989">
        <ele>9.30401</ele>
        <time>2023-05-31T14:21:35.000Z</time>
      </trkpt>
      <trkpt lat="46.20403" lon="-1.49981">
        <ele>9.27723</ele>
        <time>2023-05-31T14:21:36.000Z</time>
      </trkpt>
      <trkpt lat="46.20405" lon="-1.49975">
        <ele>9.25489</ele>
        <time>2023-05-31T14:21:37.000Z</time>
      </trkpt>
      <trkpt lat="46.20406" lon="-1.49968">
        <ele>9.21793</ele>
        <time>2023-05-31T14:21:38.000Z</time>
      </trkpt>
      <trkpt lat="46.20407" lon="-1.49961">
        <ele>9.16283</ele>
        <time>2023-05-31T14:21:39.000Z</time>
      </trkpt>
      <trkpt lat="46.20409" lon="-1.49955">
        <ele>9.11809</ele>
        <time>2023-05-31T14:21:40.000Z</time>
      </trkpt>
      <trkpt lat="46.2041" lon="-1.49947">
        <ele>9.06265</ele>
        <time>2023-05-31T14:21:41.000Z</time>
      </trkpt>
      <trkpt lat="46.2041" lon="-1.4994">
        <ele>9.02869</ele>
        <time>2023-05-31T14:21:42.000Z</time>
      </trkpt>
      <trkpt lat="46.2041" lon="-1.49932">
        <ele>8.9839</ele>
        <time>2023-05-31T14:21:43.000Z</time>
      </trkpt>
      <trkpt lat="46.2041" lon="-1.49924">
        <ele>8.9576</ele>
        <time>2023-05-31T14:21:44.000Z</time>
      </trkpt>
      <trkpt lat="46.2041" lon="-1.49917">
        <ele>8.92166</ele>
        <time>2023-05-31T14:21:45.000Z</time>
      </trkpt>
      <trkpt lat="46.2041" lon="-1.49909">
        <ele>8.87427</ele>
        <time>2023-05-31T14:21:46.000Z</time>
      </trkpt>
      <trkpt lat="46.20409" lon="-1.49903">
        <ele>8.82483</ele>
        <time>2023-05-31T14:21:47.000Z</time>
      </trkpt>
      <trkpt lat="46.20409" lon="-1.49895">
        <ele>8.79107</ele>
        <time>2023-05-31T14:21:48.000Z</time>
      </trkpt>
      <trkpt lat="46.20408" lon="-1.49888">
        <ele>8.75629</ele>
        <time>2023-05-31T14:21:49.000Z</time>
      </trkpt>
      <trkpt lat="46.20408" lon="-1.49881">
        <ele>8.72956</ele>
        <time>2023-05-31T14:21:50.000Z</time>
      </trkpt>
      <trkpt lat="46.20407" lon="-1.49873">
        <ele>8.69999</ele>
        <time>2023-05-31T14:21:51.000Z</time>
      </trkpt>
      <trkpt lat="46.20405" lon="-1.49867">
        <ele>8.67006</ele>
        <time>2023-05-31T14:21:52.000Z</time>
      </trkpt>
      <trkpt lat="46.20405" lon="-1.49859">
        <ele>8.62432</ele>
        <time>2023-05-31T14:21:53.000Z</time>
      </trkpt>
      <trkpt lat="46.20405" lon="-1.49852">
        <ele>8.57596</ele>
        <time>2023-05-31T14:21:54.000Z</time>
      </trkpt>
      <trkpt lat="46.20404" lon="-1.49845">
        <ele>8.52709</ele>
        <time>2023-05-31T14:21:55.000Z</time>
      </trkpt>
      <trkpt lat="46.20403" lon="-1.49838">
        <ele>8.48938</ele>
        <time>2023-05-31T14:21:56.000Z</time>
      </trkpt>
      <trkpt lat="46.20402" lon="-1.49832">
        <ele>8.4604</ele>
        <time>2023-05-31T14:21:57.000Z</time>
      </trkpt>
      <trkpt lat="46.20401" lon="-1.49825">
        <ele>8.4483</ele>
        <time>2023-05-31T14:21:58.000Z</time>
      </trkpt>
      <trkpt lat="46.204" lon="-1.49817">
        <ele>8.46313</ele>
        <time>2023-05-31T14:21:59.000Z</time>
      </trkpt>
      <trkpt lat="46.20397" lon="-1.49811">
        <ele>8.45658</ele>
        <time>2023-05-31T14:22:00.000Z</time>
      </trkpt>
      <trkpt lat="46.20395" lon="-1.49803">
        <ele>8.43405</ele>
        <time>2023-05-31T14:22:01.000Z</time>
      </trkpt>
      <trkpt lat="46.20392" lon="-1.49796">
        <ele>8.40207</ele>
        <time>2023-05-31T14:22:02.000Z</time>
      </trkpt>
      <trkpt lat="46.20389" lon="-1.4979">
        <ele>8.39253</ele>
        <time>2023-05-31T14:22:03.000Z</time>
      </trkpt>
      <trkpt lat="46.20386" lon="-1.49784">
        <ele>8.37995</ele>
        <time>2023-05-31T14:22:04.000Z</time>
      </trkpt>
      <trkpt lat="46.20382" lon="-1.49778">
        <ele>8.39515</ele>
        <time>2023-05-31T14:22:05.000Z</time>
      </trkpt>
      <trkpt lat="46.20379" lon="-1.49772">
        <ele>8.40088</ele>
        <time>2023-05-31T14:22:06.000Z</time>
      </trkpt>
      <trkpt lat="46.20376" lon="-1.49767">
        <ele>8.41087</ele>
        <time>2023-05-31T14:22:07.000Z</time>
      </trkpt>
      <trkpt lat="46.20372" lon="-1.49762">
        <ele>8.40789</ele>
        <time>2023-05-31T14:22:08.000Z</time>
      </trkpt>
      <trkpt lat="46.20368" lon="-1.49756">
        <ele>8.40166</ele>
        <time>2023-05-31T14:22:09.000Z</time>
      </trkpt>
      <trkpt lat="46.20364" lon="-1.49751">
        <ele>8.39538</ele>
        <time>2023-05-31T14:22:10.000Z</time>
      </trkpt>
      <trkpt lat="46.2036" lon="-1.49746">
        <ele>8.39834</ele>
        <time>2023-05-31T14:22:11.000Z</time>
      </trkpt>
      <trkpt lat="46.20356" lon="-1.49741">
        <ele>8.40809</ele>
        <time>2023-05-31T14:22:12.000Z</time>
      </trkpt>
      <trkpt lat="46.20352" lon="-1.49736">
        <ele>8.44207</ele>
        <time>2023-05-31T14:22:13.000Z</time>
      </trkpt>
      <trkpt lat="46.20348" lon="-1.49731">
        <ele>8.45966</ele>
        <time>2023-05-31T14:22:14.000Z</time>
      </trkpt>
      <trkpt lat="46.20344" lon="-1.49726">
        <ele>8.49576</ele>
        <time>2023-05-31T14:22:15.000Z</time>
      </trkpt>
      <trkpt lat="46.20341" lon="-1.4972">
        <ele>8.51969</ele>
        <time>2023-05-31T14:22:16.000Z</time>
      </trkpt>
      <trkpt lat="46.20337" lon="-1.49714">
        <ele>8.53104</ele>
        <time>2023-05-31T14:22:17.000Z</time>
      </trkpt>
      <trkpt lat="46.20334" lon="-1.49709">
        <ele>8.52737</ele>
        <time>2023-05-31T14:22:18.000Z</time>
      </trkpt>
      <trkpt lat="46.2033" lon="-1.49702">
        <ele>8.52941</ele>
        <time>2023-05-31T14:22:19.000Z</time>
      </trkpt>
      <trkpt lat="46.20327" lon="-1.49696">
        <ele>8.5498</ele>
        <time>2023-05-31T14:22:20.000Z</time>
      </trkpt>
      <trkpt lat="46.20324" lon="-1.4969">
        <ele>8.58403</ele>
        <time>2023-05-31T14:22:21.000Z</time>
      </trkpt>
      <trkpt lat="46.2032" lon="-1.49684">
        <ele>8.62451</ele>
        <time>2023-05-31T14:22:22.000Z</time>
      </trkpt>
      <trkpt lat="46.20317" lon="-1.49677">
        <ele>8.64621</ele>
        <time>2023-05-31T14:22:23.000Z</time>
      </trkpt>
      <trkpt lat="46.20314" lon="-1.4967">
        <ele>8.66743</ele>
        <time>2023-05-31T14:22:24.000Z</time>
      </trkpt>
      <trkpt lat="46.20311" lon="-1.49664">
        <ele>8.66827</ele>
        <time>2023-05-31T14:22:25.000Z</time>
      </trkpt>
      <trkpt lat="46.20308" lon="-1.49657">
        <ele>8.67765</ele>
        <time>2023-05-31T14:22:26.000Z</time>
      </trkpt>
      <trkpt lat="46.20307" lon="-1.49651">
        <ele>8.70273</ele>
        <time>2023-05-31T14:22:27.000Z</time>
      </trkpt>
      <trkpt lat="46.20304" lon="-1.49645">
        <ele>8.72619</ele>
        <time>2023-05-31T14:22:28.000Z</time>
      </trkpt>
      <trkpt lat="46.20301" lon="-1.49639">
        <ele>8.74022</ele>
        <time>2023-05-31T14:22:29.000Z</time>
      </trkpt>
      <trkpt lat="46.20298" lon="-1.49633">
        <ele>8.72016</ele>
        <time>2023-05-31T14:22:30.000Z</time>
      </trkpt>
      <trkpt lat="46.20296" lon="-1.49627">
        <ele>8.7112</ele>
        <time>2023-05-31T14:22:31.000Z</time>
      </trkpt>
      <trkpt lat="46.20293" lon="-1.49621">
        <ele>8.6951</ele>
        <time>2023-05-31T14:22:32.000Z</time>
      </trkpt>
      <trkpt lat="46.20291" lon="-1.49614">
        <ele>8.67989</ele>
        <time>2023-05-31T14:22:33.000Z</time>
      </trkpt>
      <trkpt lat="46.20289" lon="-1.49608">
        <ele>8.69117</ele>
        <time>2023-05-31T14:22:34.000Z</time>
      </trkpt>
      <trkpt lat="46.20287" lon="-1.49602">
        <ele>8.71127</ele>
        <time>2023-05-31T14:22:35.000Z</time>
      </trkpt>
      <trkpt lat="46.20285" lon="-1.49596">
        <ele>8.75171</ele>
        <time>2023-05-31T14:22:36.000Z</time>
      </trkpt>
      <trkpt lat="46.20282" lon="-1.49591">
        <ele>8.78935</ele>
        <time>2023-05-31T14:22:37.000Z</time>
      </trkpt>
      <trkpt lat="46.20278" lon="-1.49584">
        <ele>8.83041</ele>
        <time>2023-05-31T14:22:38.000Z</time>
      </trkpt>
      <trkpt lat="46.20276" lon="-1.49579">
        <ele>8.87606</ele>
        <time>2023-05-31T14:22:39.000Z</time>
      </trkpt>
      <trkpt lat="46.20273" lon="-1.49572">
        <ele>8.92132</ele>
        <time>2023-05-31T14:22:40.000Z</time>
      </trkpt>
      <trkpt lat="46.2027" lon="-1.49565">
        <ele>8.96247</ele>
        <time>2023-05-31T14:22:41.000Z</time>
      </trkpt>
      <trkpt lat="46.20268" lon="-1.49559">
        <ele>8.99636</ele>
        <time>2023-05-31T14:22:42.000Z</time>
      </trkpt>
      <trkpt lat="46.20265" lon="-1.49552">
        <ele>9.04387</ele>
        <time>2023-05-31T14:22:43.000Z</time>
      </trkpt>
      <trkpt lat="46.20263" lon="-1.49546">
        <ele>9.10027</ele>
        <time>2023-05-31T14:22:44.000Z</time>
      </trkpt>
      <trkpt lat="46.2026" lon="-1.49539">
        <ele>9.17256</ele>
        <time>2023-05-31T14:22:45.000Z</time>
      </trkpt>
      <trkpt lat="46.20258" lon="-1.49532">
        <ele>9.2417</ele>
        <time>2023-05-31T14:22:46.000Z</time>
      </trkpt>
      <trkpt lat="46.20255" lon="-1.49526">
        <ele>9.25244</ele>
        <time>2023-05-31T14:22:47.000Z</time>
      </trkpt>
      <trkpt lat="46.20254" lon="-1.4952">
        <ele>9.25656</ele>
        <time>2023-05-31T14:22:48.000Z</time>
      </trkpt>
      <trkpt lat="46.20252" lon="-1.49513">
        <ele>9.27916</ele>
        <time>2023-05-31T14:22:49.000Z</time>
      </trkpt>
      <trkpt lat="46.2025" lon="-1.49507">
        <ele>9.31614</ele>
        <time>2023-05-31T14:22:50.000Z</time>
      </trkpt>
      <trkpt lat="46.20248" lon="-1.495">
        <ele>9.29989</ele>
        <time>2023-05-31T14:22:51.000Z</time>
      </trkpt>
      <trkpt lat="46.20246" lon="-1.49494">
        <ele>9.26507</ele>
        <time>2023-05-31T14:22:52.000Z</time>
      </trkpt>
      <trkpt lat="46.20243" lon="-1.49488">
        <ele>9.22601</ele>
        <time>2023-05-31T14:22:53.000Z</time>
      </trkpt>
      <trkpt lat="46.2024" lon="-1.49482">
        <ele>9.19528</ele>
        <time>2023-05-31T14:22:54.000Z</time>
      </trkpt>
      <trkpt lat="46.20238" lon="-1.49475">
        <ele>9.14908</ele>
        <time>2023-05-31T14:22:55.000Z</time>
      </trkpt>
      <trkpt lat="46.20235" lon="-1.49468">
        <ele>9.0738</ele>
        <time>2023-05-31T14:22:56.000Z</time>
      </trkpt>
      <trkpt lat="46.20233" lon="-1.49462">
        <ele>9.00592</ele>
        <time>2023-05-31T14:22:57.000Z</time>
      </trkpt>
      <trkpt lat="46.2023" lon="-1.49457">
        <ele>8.97413</ele>
        <time>2023-05-31T14:22:58.000Z</time>
      </trkpt>
      <trkpt lat="46.20227" lon="-1.4945">
        <ele>8.92956</ele>
        <time>2023-05-31T14:22:59.000Z</time>
      </trkpt>
      <trkpt lat="46.20225" lon="-1.49443">
        <ele>8.8908</ele>
        <time>2023-05-31T14:23:00.000Z</time>
      </trkpt>
      <trkpt lat="46.20222" lon="-1.49437">
        <ele>8.84606</ele>
        <time>2023-05-31T14:23:01.000Z</time>
      </trkpt>
      <trkpt lat="46.2022" lon="-1.49429">
        <ele>8.80431</ele>
        <time>2023-05-31T14:23:02.000Z</time>
      </trkpt>
      <trkpt lat="46.20217" lon="-1.49423">
        <ele>8.74421</ele>
        <time>2023-05-31T14:23:03.000Z</time>
      </trkpt>
      <trkpt lat="46.20215" lon="-1.49415">
        <ele>8.69339</ele>
        <time>2023-05-31T14:23:04.000Z</time>
      </trkpt>
      <trkpt lat="46.20213" lon="-1.49408">
        <ele>8.57757</ele>
        <time>2023-05-31T14:23:05.000Z</time>
      </trkpt>
      <trkpt lat="46.20212" lon="-1.494">
        <ele>8.45992</ele>
        <time>2023-05-31T14:23:06.000Z</time>
      </trkpt>
      <trkpt lat="46.20211" lon="-1.49394">
        <ele>8.38107</ele>
        <time>2023-05-31T14:23:07.000Z</time>
      </trkpt>
      <trkpt lat="46.2021" lon="-1.49386">
        <ele>8.31263</ele>
        <time>2023-05-31T14:23:08.000Z</time>
      </trkpt>
      <trkpt lat="46.20209" lon="-1.49378">
        <ele>8.28176</ele>
        <time>2023-05-31T14:23:09.000Z</time>
      </trkpt>
      <trkpt lat="46.2021" lon="-1.49371">
        <ele>8.2773</ele>
        <time>2023-05-31T14:23:10.000Z</time>
      </trkpt>
      <trkpt lat="46.2021" lon="-1.49363">
        <ele>8.31178</ele>
        <time>2023-05-31T14:23:11.000Z</time>
      </trkpt>
      <trkpt lat="46.20211" lon="-1.49355">
        <ele>8.37654</ele>
        <time>2023-05-31T14:23:12.000Z</time>
      </trkpt>
      <trkpt lat="46.20211" lon="-1.49348">
        <ele>8.45939</ele>
        <time>2023-05-31T14:23:13.000Z</time>
      </trkpt>
      <trkpt lat="46.20212" lon="-1.4934">
        <ele>8.53505</ele>
        <time>2023-05-31T14:23:14.000Z</time>
      </trkpt>
      <trkpt lat="46.20213" lon="-1.49332">
        <ele>8.62212</ele>
        <time>2023-05-31T14:23:15.000Z</time>
      </trkpt>
      <trkpt lat="46.20214" lon="-1.49325">
        <ele>8.72548</ele>
        <time>2023-05-31T14:23:16.000Z</time>
      </trkpt>
      <trkpt lat="46.20215" lon="-1.49318">
        <ele>8.82314</ele>
        <time>2023-05-31T14:23:17.000Z</time>
      </trkpt>
      <trkpt lat="46.20216" lon="-1.49311">
        <ele>8.86797</ele>
        <time>2023-05-31T14:23:18.000Z</time>
      </trkpt>
      <trkpt lat="46.20217" lon="-1.49304">
        <ele>8.90235</ele>
        <time>2023-05-31T14:23:19.000Z</time>
      </trkpt>
      <trkpt lat="46.20218" lon="-1.49298">
        <ele>8.93563</ele>
        <time>2023-05-31T14:23:20.000Z</time>
      </trkpt>
      <trkpt lat="46.20219" lon="-1.49292">
        <ele>8.96728</ele>
        <time>2023-05-31T14:23:21.000Z</time>
      </trkpt>
      <trkpt lat="46.2022" lon="-1.49285">
        <ele>8.99669</ele>
        <time>2023-05-31T14:23:22.000Z</time>
      </trkpt>
      <trkpt lat="46.2022" lon="-1.49278">
        <ele>9.0161</ele>
        <time>2023-05-31T14:23:23.000Z</time>
      </trkpt>
      <trkpt lat="46.2022" lon="-1.49272">
        <ele>9.01735</ele>
        <time>2023-05-31T14:23:24.000Z</time>
      </trkpt>
      <trkpt lat="46.20221" lon="-1.49265">
        <ele>9.07148</ele>
        <time>2023-05-31T14:23:25.000Z</time>
      </trkpt>
      <trkpt lat="46.20222" lon="-1.49259">
        <ele>9.13262</ele>
        <time>2023-05-31T14:23:26.000Z</time>
      </trkpt>
      <trkpt lat="46.20223" lon="-1.49253">
        <ele>9.17875</ele>
        <time>2023-05-31T14:23:27.000Z</time>
      </trkpt>
      <trkpt lat="46.20224" lon="-1.49246">
        <ele>9.22446</ele>
        <time>2023-05-31T14:23:28.000Z</time>
      </trkpt>
      <trkpt lat="46.20223" lon="-1.49239">
        <ele>9.22029</ele>
        <time>2023-05-31T14:23:29.000Z</time>
      </trkpt>
      <trkpt lat="46.20223" lon="-1.49233">
        <ele>9.18285</ele>
        <time>2023-05-31T14:23:30.000Z</time>
      </trkpt>
      <trkpt lat="46.20223" lon="-1.49226">
        <ele>9.12665</ele>
        <time>2023-05-31T14:23:31.000Z</time>
      </trkpt>
      <trkpt lat="46.20222" lon="-1.4922">
        <ele>9.06799</ele>
        <time>2023-05-31T14:23:32.000Z</time>
      </trkpt>
      <trkpt lat="46.20221" lon="-1.49214">
        <ele>8.98744</ele>
        <time>2023-05-31T14:23:33.000Z</time>
      </trkpt>
      <trkpt lat="46.20219" lon="-1.49208">
        <ele>8.87115</ele>
        <time>2023-05-31T14:23:34.000Z</time>
      </trkpt>
      <trkpt lat="46.20218" lon="-1.49202">
        <ele>8.74933</ele>
        <time>2023-05-31T14:23:35.000Z</time>
      </trkpt>
      <trkpt lat="46.20217" lon="-1.49197">
        <ele>8.62034</ele>
        <time>2023-05-31T14:23:36.000Z</time>
      </trkpt>
      <trkpt lat="46.20215" lon="-1.49191">
        <ele>8.49885</ele>
        <time>2023-05-31T14:23:37.000Z</time>
      </trkpt>
      <trkpt lat="46.20214" lon="-1.49186">
        <ele>8.39183</ele>
        <time>2023-05-31T14:23:38.000Z</time>
      </trkpt>
      <trkpt lat="46.20213" lon="-1.4918">
        <ele>8.28427</ele>
        <time>2023-05-31T14:23:39.000Z</time>
      </trkpt>
      <trkpt lat="46.20212" lon="-1.49174">
        <ele>8.1694</ele>
        <time>2023-05-31T14:23:40.000Z</time>
      </trkpt>
      <trkpt lat="46.20209" lon="-1.49169">
        <ele>8.06369</ele>
        <time>2023-05-31T14:23:41.000Z</time>
      </trkpt>
      <trkpt lat="46.20208" lon="-1.49162">
        <ele>7.94848</ele>
        <time>2023-05-31T14:23:42.000Z</time>
      </trkpt>
      <trkpt lat="46.20206" lon="-1.49156">
        <ele>7.84971</ele>
        <time>2023-05-31T14:23:43.000Z</time>
      </trkpt>
      <trkpt lat="46.20204" lon="-1.4915">
        <ele>7.76135</ele>
        <time>2023-05-31T14:23:44.000Z</time>
      </trkpt>
      <trkpt lat="46.20202" lon="-1.49144">
        <ele>7.66942</ele>
        <time>2023-05-31T14:23:45.000Z</time>
      </trkpt>
      <trkpt lat="46.20201" lon="-1.49138">
        <ele>7.57243</ele>
        <time>2023-05-31T14:23:46.000Z</time>
      </trkpt>
      <trkpt lat="46.20199" lon="-1.49132">
        <ele>7.4737</ele>
        <time>2023-05-31T14:23:47.000Z</time>
      </trkpt>
      <trkpt lat="46.20197" lon="-1.49125">
        <ele>7.38071</ele>
        <time>2023-05-31T14:23:48.000Z</time>
      </trkpt>
      <trkpt lat="46.20195" lon="-1.49118">
        <ele>7.28983</ele>
        <time>2023-05-31T14:23:49.000Z</time>
      </trkpt>
      <trkpt lat="46.20193" lon="-1.49112">
        <ele>7.21682</ele>
        <time>2023-05-31T14:23:50.000Z</time>
      </trkpt>
      <trkpt lat="46.20193" lon="-1.49104">
        <ele>7.14014</ele>
        <time>2023-05-31T14:23:51.000Z</time>
      </trkpt>
      <trkpt lat="46.20191" lon="-1.49096">
        <ele>7.09203</ele>
        <time>2023-05-31T14:23:52.000Z</time>
      </trkpt>
      <trkpt lat="46.20189" lon="-1.49089">
        <ele>7.03384</ele>
        <time>2023-05-31T14:23:53.000Z</time>
      </trkpt>
      <trkpt lat="46.20187" lon="-1.49082">
        <ele>7.01495</ele>
        <time>2023-05-31T14:23:54.000Z</time>
      </trkpt>
      <trkpt lat="46.20184" lon="-1.49074">
        <ele>6.98775</ele>
        <time>2023-05-31T14:23:55.000Z</time>
      </trkpt>
      <trkpt lat="46.20182" lon="-1.49067">
        <ele>6.98867</ele>
        <time>2023-05-31T14:23:56.000Z</time>
      </trkpt>
      <trkpt lat="46.20179" lon="-1.4906">
        <ele>6.99769</ele>
        <time>2023-05-31T14:23:57.000Z</time>
      </trkpt>
      <trkpt lat="46.20176" lon="-1.49053">
        <ele>7.00595</ele>
        <time>2023-05-31T14:23:58.000Z</time>
      </trkpt>
      <trkpt lat="46.20173" lon="-1.49046">
        <ele>7.02056</ele>
        <time>2023-05-31T14:23:59.000Z</time>
      </trkpt>
      <trkpt lat="46.20171" lon="-1.49039">
        <ele>6.9983</ele>
        <time>2023-05-31T14:24:00.000Z</time>
      </trkpt>
      <trkpt lat="46.20169" lon="-1.49032">
        <ele>6.96559</ele>
        <time>2023-05-31T14:24:01.000Z</time>
      </trkpt>
      <trkpt lat="46.20167" lon="-1.49023">
        <ele>6.93101</ele>
        <time>2023-05-31T14:24:02.000Z</time>
      </trkpt>
      <trkpt lat="46.20164" lon="-1.49016">
        <ele>6.9237</ele>
        <time>2023-05-31T14:24:03.000Z</time>
      </trkpt>
      <trkpt lat="46.20163" lon="-1.49009">
        <ele>6.90404</ele>
        <time>2023-05-31T14:24:04.000Z</time>
      </trkpt>
      <trkpt lat="46.20161" lon="-1.49001">
        <ele>6.88765</ele>
        <time>2023-05-31T14:24:05.000Z</time>
      </trkpt>
      <trkpt lat="46.20159" lon="-1.48993">
        <ele>6.87858</ele>
        <time>2023-05-31T14:24:06.000Z</time>
      </trkpt>
      <trkpt lat="46.20156" lon="-1.48984">
        <ele>6.87916</ele>
        <time>2023-05-31T14:24:07.000Z</time>
      </trkpt>
      <trkpt lat="46.20155" lon="-1.48977">
        <ele>6.87522</ele>
        <time>2023-05-31T14:24:08.000Z</time>
      </trkpt>
      <trkpt lat="46.20152" lon="-1.48969">
        <ele>6.8488</ele>
        <time>2023-05-31T14:24:09.000Z</time>
      </trkpt>
      <trkpt lat="46.2015" lon="-1.48962">
        <ele>6.83455</ele>
        <time>2023-05-31T14:24:10.000Z</time>
      </trkpt>
      <trkpt lat="46.20148" lon="-1.48955">
        <ele>6.83453</ele>
        <time>2023-05-31T14:24:11.000Z</time>
      </trkpt>
      <trkpt lat="46.20146" lon="-1.48948">
        <ele>6.82681</ele>
        <time>2023-05-31T14:24:12.000Z</time>
      </trkpt>
      <trkpt lat="46.20144" lon="-1.48941">
        <ele>6.82727</ele>
        <time>2023-05-31T14:24:13.000Z</time>
      </trkpt>
      <trkpt lat="46.20142" lon="-1.48934">
        <ele>6.81016</ele>
        <time>2023-05-31T14:24:14.000Z</time>
      </trkpt>
      <trkpt lat="46.20141" lon="-1.48928">
        <ele>6.79461</ele>
        <time>2023-05-31T14:24:15.000Z</time>
      </trkpt>
      <trkpt lat="46.20139" lon="-1.48921">
        <ele>6.77239</ele>
        <time>2023-05-31T14:24:16.000Z</time>
      </trkpt>
      <trkpt lat="46.20138" lon="-1.48915">
        <ele>6.74556</ele>
        <time>2023-05-31T14:24:17.000Z</time>
      </trkpt>
      <trkpt lat="46.20136" lon="-1.4891">
        <ele>6.74077</ele>
        <time>2023-05-31T14:24:18.000Z</time>
      </trkpt>
      <trkpt lat="46.20134" lon="-1.48904">
        <ele>6.72767</ele>
        <time>2023-05-31T14:24:19.000Z</time>
      </trkpt>
      <trkpt lat="46.20133" lon="-1.48898">
        <ele>6.75547</ele>
        <time>2023-05-31T14:24:20.000Z</time>
      </trkpt>
      <trkpt lat="46.20131" lon="-1.48891">
        <ele>6.77524</ele>
        <time>2023-05-31T14:24:21.000Z</time>
      </trkpt>
      <trkpt lat="46.20129" lon="-1.48885">
        <ele>6.81338</ele>
        <time>2023-05-31T14:24:22.000Z</time>
      </trkpt>
      <trkpt lat="46.20127" lon="-1.4888">
        <ele>6.8414</ele>
        <time>2023-05-31T14:24:23.000Z</time>
      </trkpt>
      <trkpt lat="46.20125" lon="-1.48873">
        <ele>6.91055</ele>
        <time>2023-05-31T14:24:24.000Z</time>
      </trkpt>
      <trkpt lat="46.20124" lon="-1.48867">
        <ele>6.96377</ele>
        <time>2023-05-31T14:24:25.000Z</time>
      </trkpt>
      <trkpt lat="46.20122" lon="-1.48861">
        <ele>7.01008</ele>
        <time>2023-05-31T14:24:26.000Z</time>
      </trkpt>
      <trkpt lat="46.2012" lon="-1.48854">
        <ele>7.055</ele>
        <time>2023-05-31T14:24:27.000Z</time>
      </trkpt>
      <trkpt lat="46.20118" lon="-1.48848">
        <ele>7.11073</ele>
        <time>2023-05-31T14:24:28.000Z</time>
      </trkpt>
      <trkpt lat="46.20115" lon="-1.48842">
        <ele>7.17371</ele>
        <time>2023-05-31T14:24:29.000Z</time>
      </trkpt>
      <trkpt lat="46.20114" lon="-1.48835">
        <ele>7.24087</ele>
        <time>2023-05-31T14:24:30.000Z</time>
      </trkpt>
      <trkpt lat="46.20112" lon="-1.4883">
        <ele>7.31432</ele>
        <time>2023-05-31T14:24:31.000Z</time>
      </trkpt>
      <trkpt lat="46.2011" lon="-1.48824">
        <ele>7.35646</ele>
        <time>2023-05-31T14:24:32.000Z</time>
      </trkpt>
      <trkpt lat="46.20108" lon="-1.48817">
        <ele>7.39354</ele>
        <time>2023-05-31T14:24:33.000Z</time>
      </trkpt>
      <trkpt lat="46.20106" lon="-1.4881">
        <ele>7.41696</ele>
        <time>2023-05-31T14:24:34.000Z</time>
      </trkpt>
      <trkpt lat="46.20105" lon="-1.48804">
        <ele>7.45791</ele>
        <time>2023-05-31T14:24:35.000Z</time>
      </trkpt>
      <trkpt lat="46.20103" lon="-1.48798">
        <ele>7.46623</ele>
        <time>2023-05-31T14:24:36.000Z</time>
      </trkpt>
      <trkpt lat="46.20102" lon="-1.48792">
        <ele>7.46527</ele>
        <time>2023-05-31T14:24:37.000Z</time>
      </trkpt>
      <trkpt lat="46.20102" lon="-1.48784">
        <ele>7.46411</ele>
        <time>2023-05-31T14:24:38.000Z</time>
      </trkpt>
      <trkpt lat="46.20101" lon="-1.48778">
        <ele>7.48237</ele>
        <time>2023-05-31T14:24:39.000Z</time>
      </trkpt>
      <trkpt lat="46.20101" lon="-1.48771">
        <ele>7.50617</ele>
        <time>2023-05-31T14:24:40.000Z</time>
      </trkpt>
      <trkpt lat="46.20101" lon="-1.48764">
        <ele>7.54713</ele>
        <time>2023-05-31T14:24:41.000Z</time>
      </trkpt>
      <trkpt lat="46.20101" lon="-1.48757">
        <ele>7.58082</ele>
        <time>2023-05-31T14:24:42.000Z</time>
      </trkpt>
      <trkpt lat="46.20101" lon="-1.48751">
        <ele>7.63272</ele>
        <time>2023-05-31T14:24:43.000Z</time>
      </trkpt>
      <trkpt lat="46.20102" lon="-1.48744">
        <ele>7.65399</ele>
        <time>2023-05-31T14:24:44.000Z</time>
      </trkpt>
      <trkpt lat="46.20103" lon="-1.48737">
        <ele>7.66935</ele>
        <time>2023-05-31T14:24:45.000Z</time>
      </trkpt>
      <trkpt lat="46.20104" lon="-1.48731">
        <ele>7.68221</ele>
        <time>2023-05-31T14:24:46.000Z</time>
      </trkpt>
      <trkpt lat="46.20105" lon="-1.48725">
        <ele>7.683</ele>
        <time>2023-05-31T14:24:47.000Z</time>
      </trkpt>
      <trkpt lat="46.20106" lon="-1.48719">
        <ele>7.68928</ele>
        <time>2023-05-31T14:24:48.000Z</time>
      </trkpt>
      <trkpt lat="46.20106" lon="-1.48713">
        <ele>7.72049</ele>
        <time>2023-05-31T14:24:49.000Z</time>
      </trkpt>
      <trkpt lat="46.20108" lon="-1.48708">
        <ele>7.72747</ele>
        <time>2023-05-31T14:24:50.000Z</time>
      </trkpt>
      <trkpt lat="46.2011" lon="-1.48703">
        <ele>7.73576</ele>
        <time>2023-05-31T14:24:51.000Z</time>
      </trkpt>
      <trkpt lat="46.20111" lon="-1.48698">
        <ele>7.73914</ele>
        <time>2023-05-31T14:24:52.000Z</time>
      </trkpt>
      <trkpt lat="46.20113" lon="-1.48693">
        <ele>7.7532</ele>
        <time>2023-05-31T14:24:53.000Z</time>
      </trkpt>
      <trkpt lat="46.20115" lon="-1.48689">
        <ele>7.77785</ele>
        <time>2023-05-31T14:24:54.000Z</time>
      </trkpt>
      <trkpt lat="46.20117" lon="-1.48684">
        <ele>7.78458</ele>
        <time>2023-05-31T14:24:55.000Z</time>
      </trkpt>
      <trkpt lat="46.20118" lon="-1.4868">
        <ele>7.79766</ele>
        <time>2023-05-31T14:24:56.000Z</time>
      </trkpt>
      <trkpt lat="46.20119" lon="-1.48677">
        <ele>7.80587</ele>
        <time>2023-05-31T14:24:57.000Z</time>
      </trkpt>
      <trkpt lat="46.20121" lon="-1.48675">
        <ele>7.82126</ele>
        <time>2023-05-31T14:24:58.000Z</time>
      </trkpt>
      <trkpt lat="46.20123" lon="-1.48672">
        <ele>7.84414</ele>
        <time>2023-05-31T14:24:59.000Z</time>
      </trkpt>
      <trkpt lat="46.20125" lon="-1.4867">
        <ele>7.82814</ele>
        <time>2023-05-31T14:25:00.000Z</time>
      </trkpt>
      <trkpt lat="46.20127" lon="-1.48667">
        <ele>7.79972</ele>
        <time>2023-05-31T14:25:01.000Z</time>
      </trkpt>
      <trkpt lat="46.20129" lon="-1.48664">
        <ele>7.78928</ele>
        <time>2023-05-31T14:25:02.000Z</time>
      </trkpt>
      <trkpt lat="46.20131" lon="-1.48661">
        <ele>7.7477</ele>
        <time>2023-05-31T14:25:03.000Z</time>
      </trkpt>
      <trkpt lat="46.20134" lon="-1.48658">
        <ele>7.72288</ele>
        <time>2023-05-31T14:25:04.000Z</time>
      </trkpt>
      <trkpt lat="46.20136" lon="-1.48655">
        <ele>7.72027</ele>
        <time>2023-05-31T14:25:05.000Z</time>
      </trkpt>
      <trkpt lat="46.20139" lon="-1.48651">
        <ele>7.7397</ele>
        <time>2023-05-31T14:25:06.000Z</time>
      </trkpt>
      <trkpt lat="46.20142" lon="-1.48647">
        <ele>7.7712</ele>
        <time>2023-05-31T14:25:07.000Z</time>
      </trkpt>
      <trkpt lat="46.20145" lon="-1.48644">
        <ele>7.79926</ele>
        <time>2023-05-31T14:25:08.000Z</time>
      </trkpt>
      <trkpt lat="46.20147" lon="-1.4864">
        <ele>7.79746</ele>
        <time>2023-05-31T14:25:09.000Z</time>
      </trkpt>
      <trkpt lat="46.2015" lon="-1.48636">
        <ele>7.82452</ele>
        <time>2023-05-31T14:25:10.000Z</time>
      </trkpt>
      <trkpt lat="46.20153" lon="-1.48631">
        <ele>7.84481</ele>
        <time>2023-05-31T14:25:11.000Z</time>
      </trkpt>
      <trkpt lat="46.20156" lon="-1.48627">
        <ele>7.87634</ele>
        <time>2023-05-31T14:25:12.000Z</time>
      </trkpt>
      <trkpt lat="46.20158" lon="-1.48621">
        <ele>7.89838</ele>
        <time>2023-05-31T14:25:13.000Z</time>
      </trkpt>
      <trkpt lat="46.2016" lon="-1.48616">
        <ele>7.90904</ele>
        <time>2023-05-31T14:25:14.000Z</time>
      </trkpt>
      <trkpt lat="46.20162" lon="-1.4861">
        <ele>7.92218</ele>
        <time>2023-05-31T14:25:15.000Z</time>
      </trkpt>
      <trkpt lat="46.20164" lon="-1.48605">
        <ele>7.98912</ele>
        <time>2023-05-31T14:25:16.000Z</time>
      </trkpt>
      <trkpt lat="46.20167" lon="-1.48599">
        <ele>8.06686</ele>
        <time>2023-05-31T14:25:17.000Z</time>
      </trkpt>
      <trkpt lat="46.20169" lon="-1.48593">
        <ele>8.10784</ele>
        <time>2023-05-31T14:25:18.000Z</time>
      </trkpt>
      <trkpt lat="46.20171" lon="-1.48587">
        <ele>8.13247</ele>
        <time>2023-05-31T14:25:19.000Z</time>
      </trkpt>
      <trkpt lat="46.20173" lon="-1.48581">
        <ele>8.17837</ele>
        <time>2023-05-31T14:25:20.000Z</time>
      </trkpt>
      <trkpt lat="46.20175" lon="-1.48575">
        <ele>8.21301</ele>
        <time>2023-05-31T14:25:21.000Z</time>
      </trkpt>
      <trkpt lat="46.20178" lon="-1.48569">
        <ele>8.22512</ele>
        <time>2023-05-31T14:25:22.000Z</time>
      </trkpt>
      <trkpt lat="46.2018" lon="-1.48563">
        <ele>8.24201</ele>
        <time>2023-05-31T14:25:23.000Z</time>
      </trkpt>
      <trkpt lat="46.20183" lon="-1.48556">
        <ele>8.24327</ele>
        <time>2023-05-31T14:25:24.000Z</time>
      </trkpt>
      <trkpt lat="46.20186" lon="-1.48549">
        <ele>8.25713</ele>
        <time>2023-05-31T14:25:25.000Z</time>
      </trkpt>
      <trkpt lat="46.20188" lon="-1.48541">
        <ele>8.24736</ele>
        <time>2023-05-31T14:25:26.000Z</time>
      </trkpt>
      <trkpt lat="46.20191" lon="-1.48533">
        <ele>8.22337</ele>
        <time>2023-05-31T14:25:27.000Z</time>
      </trkpt>
      <trkpt lat="46.20192" lon="-1.48525">
        <ele>8.16506</ele>
        <time>2023-05-31T14:25:28.000Z</time>
      </trkpt>
      <trkpt lat="46.20194" lon="-1.48517">
        <ele>8.11653</ele>
        <time>2023-05-31T14:25:29.000Z</time>
      </trkpt>
      <trkpt lat="46.20196" lon="-1.48509">
        <ele>8.07931</ele>
        <time>2023-05-31T14:25:30.000Z</time>
      </trkpt>
      <trkpt lat="46.20198" lon="-1.48502">
        <ele>8.02121</ele>
        <time>2023-05-31T14:25:31.000Z</time>
      </trkpt>
      <trkpt lat="46.20199" lon="-1.48494">
        <ele>7.96924</ele>
        <time>2023-05-31T14:25:32.000Z</time>
      </trkpt>
      <trkpt lat="46.202" lon="-1.48486">
        <ele>7.9307</ele>
        <time>2023-05-31T14:25:33.000Z</time>
      </trkpt>
      <trkpt lat="46.20202" lon="-1.48478">
        <ele>7.88747</ele>
        <time>2023-05-31T14:25:34.000Z</time>
      </trkpt>
      <trkpt lat="46.20203" lon="-1.4847">
        <ele>7.83677</ele>
        <time>2023-05-31T14:25:35.000Z</time>
      </trkpt>
      <trkpt lat="46.20205" lon="-1.48463">
        <ele>7.74554</ele>
        <time>2023-05-31T14:25:36.000Z</time>
      </trkpt>
      <trkpt lat="46.20206" lon="-1.48456">
        <ele>7.64459</ele>
        <time>2023-05-31T14:25:37.000Z</time>
      </trkpt>
      <trkpt lat="46.20207" lon="-1.48448">
        <ele>7.55748</ele>
        <time>2023-05-31T14:25:38.000Z</time>
      </trkpt>
      <trkpt lat="46.20209" lon="-1.48442">
        <ele>7.48683</ele>
        <time>2023-05-31T14:25:39.000Z</time>
      </trkpt>
      <trkpt lat="46.2021" lon="-1.48435">
        <ele>7.42102</ele>
        <time>2023-05-31T14:25:40.000Z</time>
      </trkpt>
      <trkpt lat="46.20211" lon="-1.48428">
        <ele>7.36985</ele>
        <time>2023-05-31T14:25:41.000Z</time>
      </trkpt>
      <trkpt lat="46.20212" lon="-1.48422">
        <ele>7.35722</ele>
        <time>2023-05-31T14:25:42.000Z</time>
      </trkpt>
      <trkpt lat="46.20213" lon="-1.48415">
        <ele>7.33609</ele>
        <time>2023-05-31T14:25:43.000Z</time>
      </trkpt>
      <trkpt lat="46.20214" lon="-1.48409">
        <ele>7.32837</ele>
        <time>2023-05-31T14:25:44.000Z</time>
      </trkpt>
      <trkpt lat="46.20216" lon="-1.48402">
        <ele>7.32005</ele>
        <time>2023-05-31T14:25:45.000Z</time>
      </trkpt>
      <trkpt lat="46.20217" lon="-1.48395">
        <ele>7.30143</ele>
        <time>2023-05-31T14:25:46.000Z</time>
      </trkpt>
      <trkpt lat="46.20218" lon="-1.48389">
        <ele>7.28125</ele>
        <time>2023-05-31T14:25:47.000Z</time>
      </trkpt>
      <trkpt lat="46.20219" lon="-1.48382">
        <ele>7.27785</ele>
        <time>2023-05-31T14:25:48.000Z</time>
      </trkpt>
      <trkpt lat="46.2022" lon="-1.48376">
        <ele>7.21859</ele>
        <time>2023-05-31T14:25:49.000Z</time>
      </trkpt>
      <trkpt lat="46.20221" lon="-1.4837">
        <ele>7.16315</ele>
        <time>2023-05-31T14:25:50.000Z</time>
      </trkpt>
      <trkpt lat="46.20222" lon="-1.48364">
        <ele>7.14581</ele>
        <time>2023-05-31T14:25:51.000Z</time>
      </trkpt>
      <trkpt lat="46.20221" lon="-1.48358">
        <ele>7.13353</ele>
        <time>2023-05-31T14:25:52.000Z</time>
      </trkpt>
      <trkpt lat="46.20221" lon="-1.48354">
        <ele>7.08683</ele>
        <time>2023-05-31T14:25:53.000Z</time>
      </trkpt>
      <trkpt lat="46.20222" lon="-1.48348">
        <ele>7.06666</ele>
        <time>2023-05-31T14:25:54.000Z</time>
      </trkpt>
      <trkpt lat="46.20223" lon="-1.48341">
        <ele>7.0375</ele>
        <time>2023-05-31T14:25:55.000Z</time>
      </trkpt>
      <trkpt lat="46.20224" lon="-1.48335">
        <ele>7.00931</ele>
        <time>2023-05-31T14:25:56.000Z</time>
      </trkpt>
      <trkpt lat="46.20225" lon="-1.48329">
        <ele>6.98871</ele>
        <time>2023-05-31T14:25:57.000Z</time>
      </trkpt>
      <trkpt lat="46.20227" lon="-1.48323">
        <ele>6.96572</ele>
        <time>2023-05-31T14:25:58.000Z</time>
      </trkpt>
      <trkpt lat="46.20228" lon="-1.48317">
        <ele>6.93247</ele>
        <time>2023-05-31T14:25:59.000Z</time>
      </trkpt>
      <trkpt lat="46.2023" lon="-1.4831">
        <ele>6.90874</ele>
        <time>2023-05-31T14:26:00.000Z</time>
      </trkpt>
      <trkpt lat="46.20231" lon="-1.48303">
        <ele>6.89404</ele>
        <time>2023-05-31T14:26:01.000Z</time>
      </trkpt>
      <trkpt lat="46.20232" lon="-1.48297">
        <ele>6.84797</ele>
        <time>2023-05-31T14:26:02.000Z</time>
      </trkpt>
      <trkpt lat="46.20233" lon="-1.48291">
        <ele>6.81292</ele>
        <time>2023-05-31T14:26:03.000Z</time>
      </trkpt>
      <trkpt lat="46.20234" lon="-1.48284">
        <ele>6.75435</ele>
        <time>2023-05-31T14:26:04.000Z</time>
      </trkpt>
      <trkpt lat="46.20235" lon="-1.48278">
        <ele>6.70234</ele>
        <time>2023-05-31T14:26:05.000Z</time>
      </trkpt>
      <trkpt lat="46.20236" lon="-1.48272">
        <ele>6.66046</ele>
        <time>2023-05-31T14:26:06.000Z</time>
      </trkpt>
      <trkpt lat="46.20237" lon="-1.48265">
        <ele>6.61859</ele>
        <time>2023-05-31T14:26:07.000Z</time>
      </trkpt>
      <trkpt lat="46.20238" lon="-1.48259">
        <ele>6.58276</ele>
        <time>2023-05-31T14:26:08.000Z</time>
      </trkpt>
      <trkpt lat="46.20238" lon="-1.48252">
        <ele>6.57337</ele>
        <time>2023-05-31T14:26:09.000Z</time>
      </trkpt>
      <trkpt lat="46.2024" lon="-1.48245">
        <ele>6.57005</ele>
        <time>2023-05-31T14:26:10.000Z</time>
      </trkpt>
      <trkpt lat="46.20241" lon="-1.48238">
        <ele>6.56414</ele>
        <time>2023-05-31T14:26:11.000Z</time>
      </trkpt>
      <trkpt lat="46.20242" lon="-1.48231">
        <ele>6.55927</ele>
        <time>2023-05-31T14:26:12.000Z</time>
      </trkpt>
      <trkpt lat="46.20244" lon="-1.48225">
        <ele>6.60457</ele>
        <time>2023-05-31T14:26:13.000Z</time>
      </trkpt>
      <trkpt lat="46.20245" lon="-1.48218">
        <ele>6.63531</ele>
        <time>2023-05-31T14:26:14.000Z</time>
      </trkpt>
      <trkpt lat="46.20246" lon="-1.48211">
        <ele>6.67245</ele>
        <time>2023-05-31T14:26:15.000Z</time>
      </trkpt>
      <trkpt lat="46.20248" lon="-1.48204">
        <ele>6.71864</ele>
        <time>2023-05-31T14:26:16.000Z</time>
      </trkpt>
      <trkpt lat="46.20249" lon="-1.48197">
        <ele>6.76177</ele>
        <time>2023-05-31T14:26:17.000Z</time>
      </trkpt>
      <trkpt lat="46.20251" lon="-1.48191">
        <ele>6.79283</ele>
        <time>2023-05-31T14:26:18.000Z</time>
      </trkpt>
      <trkpt lat="46.20252" lon="-1.48184">
        <ele>6.8319</ele>
        <time>2023-05-31T14:26:19.000Z</time>
      </trkpt>
      <trkpt lat="46.20254" lon="-1.48177">
        <ele>6.8701</ele>
        <time>2023-05-31T14:26:20.000Z</time>
      </trkpt>
      <trkpt lat="46.20256" lon="-1.4817">
        <ele>6.90288</ele>
        <time>2023-05-31T14:26:21.000Z</time>
      </trkpt>
      <trkpt lat="46.20258" lon="-1.48163">
        <ele>6.93907</ele>
        <time>2023-05-31T14:26:22.000Z</time>
      </trkpt>
      <trkpt lat="46.2026" lon="-1.48156">
        <ele>6.98098</ele>
        <time>2023-05-31T14:26:23.000Z</time>
      </trkpt>
      <trkpt lat="46.20262" lon="-1.48149">
        <ele>7.04233</ele>
        <time>2023-05-31T14:26:24.000Z</time>
      </trkpt>
      <trkpt lat="46.20264" lon="-1.48141">
        <ele>7.06339</ele>
        <time>2023-05-31T14:26:25.000Z</time>
      </trkpt>
      <trkpt lat="46.20266" lon="-1.48134">
        <ele>7.10212</ele>
        <time>2023-05-31T14:26:26.000Z</time>
      </trkpt>
      <trkpt lat="46.20269" lon="-1.48128">
        <ele>7.15163</ele>
        <time>2023-05-31T14:26:27.000Z</time>
      </trkpt>
      <trkpt lat="46.20272" lon="-1.48122">
        <ele>7.22885</ele>
        <time>2023-05-31T14:26:28.000Z</time>
      </trkpt>
      <trkpt lat="46.20274" lon="-1.48115">
        <ele>7.29772</ele>
        <time>2023-05-31T14:26:29.000Z</time>
      </trkpt>
      <trkpt lat="46.20277" lon="-1.48108">
        <ele>7.34284</ele>
        <time>2023-05-31T14:26:30.000Z</time>
      </trkpt>
      <trkpt lat="46.2028" lon="-1.48102">
        <ele>7.38793</ele>
        <time>2023-05-31T14:26:31.000Z</time>
      </trkpt>
      <trkpt lat="46.20283" lon="-1.48096">
        <ele>7.43407</ele>
        <time>2023-05-31T14:26:32.000Z</time>
      </trkpt>
      <trkpt lat="46.20285" lon="-1.4809">
        <ele>7.45788</ele>
        <time>2023-05-31T14:26:33.000Z</time>
      </trkpt>
      <trkpt lat="46.20289" lon="-1.48084">
        <ele>7.46741</ele>
        <time>2023-05-31T14:26:34.000Z</time>
      </trkpt>
      <trkpt lat="46.20292" lon="-1.48079">
        <ele>7.52796</ele>
        <time>2023-05-31T14:26:35.000Z</time>
      </trkpt>
      <trkpt lat="46.20295" lon="-1.48072">
        <ele>7.58509</ele>
        <time>2023-05-31T14:26:36.000Z</time>
      </trkpt>
      <trkpt lat="46.20298" lon="-1.48065">
        <ele>7.63394</ele>
        <time>2023-05-31T14:26:37.000Z</time>
      </trkpt>
      <trkpt lat="46.203" lon="-1.48059">
        <ele>7.67667</ele>
        <time>2023-05-31T14:26:38.000Z</time>
      </trkpt>
      <trkpt lat="46.20303" lon="-1.48053">
        <ele>7.69327</ele>
        <time>2023-05-31T14:26:39.000Z</time>
      </trkpt>
      <trkpt lat="46.20305" lon="-1.48046">
        <ele>7.6988</ele>
        <time>2023-05-31T14:26:40.000Z</time>
      </trkpt>
      <trkpt lat="46.20308" lon="-1.48039">
        <ele>7.70997</ele>
        <time>2023-05-31T14:26:41.000Z</time>
      </trkpt>
      <trkpt lat="46.20311" lon="-1.48033">
        <ele>7.70376</ele>
        <time>2023-05-31T14:26:42.000Z</time>
      </trkpt>
      <trkpt lat="46.20314" lon="-1.48027">
        <ele>7.69368</ele>
        <time>2023-05-31T14:26:43.000Z</time>
      </trkpt>
      <trkpt lat="46.20317" lon="-1.48021">
        <ele>7.66973</ele>
        <time>2023-05-31T14:26:44.000Z</time>
      </trkpt>
      <trkpt lat="46.20319" lon="-1.48015">
        <ele>7.66674</ele>
        <time>2023-05-31T14:26:45.000Z</time>
      </trkpt>
      <trkpt lat="46.20322" lon="-1.48009">
        <ele>7.65052</ele>
        <time>2023-05-31T14:26:46.000Z</time>
      </trkpt>
      <trkpt lat="46.20324" lon="-1.48002">
        <ele>7.60018</ele>
        <time>2023-05-31T14:26:47.000Z</time>
      </trkpt>
      <trkpt lat="46.20328" lon="-1.47996">
        <ele>7.55235</ele>
        <time>2023-05-31T14:26:48.000Z</time>
      </trkpt>
      <trkpt lat="46.2033" lon="-1.4799">
        <ele>7.54374</ele>
        <time>2023-05-31T14:26:49.000Z</time>
      </trkpt>
      <trkpt lat="46.20333" lon="-1.47984">
        <ele>7.55176</ele>
        <time>2023-05-31T14:26:50.000Z</time>
      </trkpt>
      <trkpt lat="46.20336" lon="-1.47978">
        <ele>7.56191</ele>
        <time>2023-05-31T14:26:51.000Z</time>
      </trkpt>
      <trkpt lat="46.20338" lon="-1.47972">
        <ele>7.55562</ele>
        <time>2023-05-31T14:26:52.000Z</time>
      </trkpt>
      <trkpt lat="46.20341" lon="-1.47966">
        <ele>7.53467</ele>
        <time>2023-05-31T14:26:53.000Z</time>
      </trkpt>
      <trkpt lat="46.20344" lon="-1.4796">
        <ele>7.54581</ele>
        <time>2023-05-31T14:26:54.000Z</time>
      </trkpt>
      <trkpt lat="46.20346" lon="-1.47954">
        <ele>7.5129</ele>
        <time>2023-05-31T14:26:55.000Z</time>
      </trkpt>
      <trkpt lat="46.20349" lon="-1.47948">
        <ele>7.4664</ele>
        <time>2023-05-31T14:26:56.000Z</time>
      </trkpt>
      <trkpt lat="46.20352" lon="-1.47942">
        <ele>7.42962</ele>
        <time>2023-05-31T14:26:57.000Z</time>
      </trkpt>
      <trkpt lat="46.20354" lon="-1.47937">
        <ele>7.39341</ele>
        <time>2023-05-31T14:26:58.000Z</time>
      </trkpt>
      <trkpt lat="46.20356" lon="-1.47931">
        <ele>7.3562</ele>
        <time>2023-05-31T14:26:59.000Z</time>
      </trkpt>
      <trkpt lat="46.2036" lon="-1.47925">
        <ele>7.33251</ele>
        <time>2023-05-31T14:27:00.000Z</time>
      </trkpt>
      <trkpt lat="46.20362" lon="-1.47919">
        <ele>7.30601</ele>
        <time>2023-05-31T14:27:01.000Z</time>
      </trkpt>
      <trkpt lat="46.20365" lon="-1.47913">
        <ele>7.27578</ele>
        <time>2023-05-31T14:27:02.000Z</time>
      </trkpt>
      <trkpt lat="46.20368" lon="-1.47908">
        <ele>7.227</ele>
        <time>2023-05-31T14:27:03.000Z</time>
      </trkpt>
      <trkpt lat="46.2037" lon="-1.47902">
        <ele>7.17945</ele>
        <time>2023-05-31T14:27:04.000Z</time>
      </trkpt>
      <trkpt lat="46.20373" lon="-1.47896">
        <ele>7.12053</ele>
        <time>2023-05-31T14:27:05.000Z</time>
      </trkpt>
      <trkpt lat="46.20375" lon="-1.4789">
        <ele>7.04837</ele>
        <time>2023-05-31T14:27:06.000Z</time>
      </trkpt>
      <trkpt lat="46.20377" lon="-1.47883">
        <ele>7.00898</ele>
        <time>2023-05-31T14:27:07.000Z</time>
      </trkpt>
      <trkpt lat="46.2038" lon="-1.47877">
        <ele>6.94793</ele>
        <time>2023-05-31T14:27:08.000Z</time>
      </trkpt>
      <trkpt lat="46.20382" lon="-1.47871">
        <ele>6.88822</ele>
        <time>2023-05-31T14:27:09.000Z</time>
      </trkpt>
      <trkpt lat="46.20385" lon="-1.47865">
        <ele>6.80917</ele>
        <time>2023-05-31T14:27:10.000Z</time>
      </trkpt>
      <trkpt lat="46.20389" lon="-1.4786">
        <ele>6.71428</ele>
        <time>2023-05-31T14:27:11.000Z</time>
      </trkpt>
      <trkpt lat="46.20392" lon="-1.47854">
        <ele>6.6233</ele>
        <time>2023-05-31T14:27:12.000Z</time>
      </trkpt>
      <trkpt lat="46.20395" lon="-1.47848">
        <ele>6.55415</ele>
        <time>2023-05-31T14:27:13.000Z</time>
      </trkpt>
      <trkpt lat="46.20397" lon="-1.47842">
        <ele>6.5021</ele>
        <time>2023-05-31T14:27:14.000Z</time>
      </trkpt>
      <trkpt lat="46.20399" lon="-1.47837">
        <ele>6.47614</ele>
        <time>2023-05-31T14:27:15.000Z</time>
      </trkpt>
      <trkpt lat="46.20401" lon="-1.4783">
        <ele>6.44543</ele>
        <time>2023-05-31T14:27:16.000Z</time>
      </trkpt>
      <trkpt lat="46.20404" lon="-1.47824">
        <ele>6.36902</ele>
        <time>2023-05-31T14:27:17.000Z</time>
      </trkpt>
      <trkpt lat="46.20406" lon="-1.47817">
        <ele>6.31871</ele>
        <time>2023-05-31T14:27:18.000Z</time>
      </trkpt>
      <trkpt lat="46.20408" lon="-1.47811">
        <ele>6.27907</ele>
        <time>2023-05-31T14:27:19.000Z</time>
      </trkpt>
      <trkpt lat="46.20409" lon="-1.47805">
        <ele>6.2252</ele>
        <time>2023-05-31T14:27:20.000Z</time>
      </trkpt>
      <trkpt lat="46.20411" lon="-1.47799">
        <ele>6.19014</ele>
        <time>2023-05-31T14:27:21.000Z</time>
      </trkpt>
      <trkpt lat="46.20412" lon="-1.47792">
        <ele>6.17416</ele>
        <time>2023-05-31T14:27:22.000Z</time>
      </trkpt>
      <trkpt lat="46.20413" lon="-1.47785">
        <ele>6.18049</ele>
        <time>2023-05-31T14:27:23.000Z</time>
      </trkpt>
      <trkpt lat="46.20415" lon="-1.4778">
        <ele>6.19132</ele>
        <time>2023-05-31T14:27:24.000Z</time>
      </trkpt>
      <trkpt lat="46.20415" lon="-1.47773">
        <ele>6.21172</ele>
        <time>2023-05-31T14:27:25.000Z</time>
      </trkpt>
      <trkpt lat="46.20417" lon="-1.47767">
        <ele>6.23665</ele>
        <time>2023-05-31T14:27:26.000Z</time>
      </trkpt>
      <trkpt lat="46.20418" lon="-1.4776">
        <ele>6.25275</ele>
        <time>2023-05-31T14:27:27.000Z</time>
      </trkpt>
      <trkpt lat="46.20419" lon="-1.47754">
        <ele>6.26322</ele>
        <time>2023-05-31T14:27:28.000Z</time>
      </trkpt>
      <trkpt lat="46.20421" lon="-1.47747">
        <ele>6.28371</ele>
        <time>2023-05-31T14:27:29.000Z</time>
      </trkpt>
      <trkpt lat="46.20423" lon="-1.47741">
        <ele>6.30194</ele>
        <time>2023-05-31T14:27:30.000Z</time>
      </trkpt>
      <trkpt lat="46.20425" lon="-1.47735">
        <ele>6.33392</ele>
        <time>2023-05-31T14:27:31.000Z</time>
      </trkpt>
      <trkpt lat="46.20427" lon="-1.47729">
        <ele>6.37148</ele>
        <time>2023-05-31T14:27:32.000Z</time>
      </trkpt>
      <trkpt lat="46.20429" lon="-1.47722">
        <ele>6.43802</ele>
        <time>2023-05-31T14:27:33.000Z</time>
      </trkpt>
      <trkpt lat="46.20431" lon="-1.47716">
        <ele>6.46632</ele>
        <time>2023-05-31T14:27:34.000Z</time>
      </trkpt>
      <trkpt lat="46.20432" lon="-1.47709">
        <ele>6.48257</ele>
        <time>2023-05-31T14:27:35.000Z</time>
      </trkpt>
      <trkpt lat="46.20434" lon="-1.47703">
        <ele>6.51204</ele>
        <time>2023-05-31T14:27:36.000Z</time>
      </trkpt>
      <trkpt lat="46.20436" lon="-1.47697">
        <ele>6.59692</ele>
        <time>2023-05-31T14:27:37.000Z</time>
      </trkpt>
      <trkpt lat="46.20437" lon="-1.47691">
        <ele>6.6798</ele>
        <time>2023-05-31T14:27:38.000Z</time>
      </trkpt>
      <trkpt lat="46.20438" lon="-1.47685">
        <ele>6.75554</ele>
        <time>2023-05-31T14:27:39.000Z</time>
      </trkpt>
      <trkpt lat="46.2044" lon="-1.47679">
        <ele>6.86623</ele>
        <time>2023-05-31T14:27:40.000Z</time>
      </trkpt>
      <trkpt lat="46.20441" lon="-1.47673">
        <ele>6.96152</ele>
        <time>2023-05-31T14:27:41.000Z</time>
      </trkpt>
      <trkpt lat="46.20442" lon="-1.47667">
        <ele>7.06381</ele>
        <time>2023-05-31T14:27:42.000Z</time>
      </trkpt>
      <trkpt lat="46.20444" lon="-1.4766">
        <ele>7.17708</ele>
        <time>2023-05-31T14:27:43.000Z</time>
      </trkpt>
      <trkpt lat="46.20446" lon="-1.47654">
        <ele>7.22861</ele>
        <time>2023-05-31T14:27:44.000Z</time>
      </trkpt>
      <trkpt lat="46.20447" lon="-1.47648">
        <ele>7.26302</ele>
        <time>2023-05-31T14:27:45.000Z</time>
      </trkpt>
      <trkpt lat="46.20448" lon="-1.47643">
        <ele>7.31806</ele>
        <time>2023-05-31T14:27:46.000Z</time>
      </trkpt>
      <trkpt lat="46.2045" lon="-1.47637">
        <ele>7.38094</ele>
        <time>2023-05-31T14:27:47.000Z</time>
      </trkpt>
      <trkpt lat="46.20452" lon="-1.47632">
        <ele>7.44707</ele>
        <time>2023-05-31T14:27:48.000Z</time>
      </trkpt>
      <trkpt lat="46.20456" lon="-1.47628">
        <ele>7.5198</ele>
        <time>2023-05-31T14:27:49.000Z</time>
      </trkpt>
      <trkpt lat="46.20459" lon="-1.47624">
        <ele>7.56915</ele>
        <time>2023-05-31T14:27:50.000Z</time>
      </trkpt>
      <trkpt lat="46.20463" lon="-1.47622">
        <ele>7.58607</ele>
        <time>2023-05-31T14:27:51.000Z</time>
      </trkpt>
      <trkpt lat="46.20466" lon="-1.47618">
        <ele>7.56667</ele>
        <time>2023-05-31T14:27:52.000Z</time>
      </trkpt>
      <trkpt lat="46.2047" lon="-1.47614">
        <ele>7.50395</ele>
        <time>2023-05-31T14:27:53.000Z</time>
      </trkpt>
      <trkpt lat="46.20473" lon="-1.47609">
        <ele>7.43964</ele>
        <time>2023-05-31T14:27:54.000Z</time>
      </trkpt>
      <trkpt lat="46.20476" lon="-1.47605">
        <ele>7.36549</ele>
        <time>2023-05-31T14:27:55.000Z</time>
      </trkpt>
      <trkpt lat="46.20479" lon="-1.476">
        <ele>7.29871</ele>
        <time>2023-05-31T14:27:56.000Z</time>
      </trkpt>
      <trkpt lat="46.20483" lon="-1.47595">
        <ele>7.17381</ele>
        <time>2023-05-31T14:27:57.000Z</time>
      </trkpt>
      <trkpt lat="46.20486" lon="-1.4759">
        <ele>7.05585</ele>
        <time>2023-05-31T14:27:58.000Z</time>
      </trkpt>
      <trkpt lat="46.20489" lon="-1.47586">
        <ele>6.95936</ele>
        <time>2023-05-31T14:27:59.000Z</time>
      </trkpt>
      <trkpt lat="46.20492" lon="-1.4758">
        <ele>6.85522</ele>
        <time>2023-05-31T14:28:00.000Z</time>
      </trkpt>
      <trkpt lat="46.20495" lon="-1.47576">
        <ele>6.74176</ele>
        <time>2023-05-31T14:28:01.000Z</time>
      </trkpt>
      <trkpt lat="46.20497" lon="-1.4757">
        <ele>6.61866</ele>
        <time>2023-05-31T14:28:02.000Z</time>
      </trkpt>
      <trkpt lat="46.205" lon="-1.47566">
        <ele>6.48277</ele>
        <time>2023-05-31T14:28:03.000Z</time>
      </trkpt>
      <trkpt lat="46.20502" lon="-1.47561">
        <ele>6.40003</ele>
        <time>2023-05-31T14:28:04.000Z</time>
      </trkpt>
      <trkpt lat="46.20504" lon="-1.47556">
        <ele>6.33787</ele>
        <time>2023-05-31T14:28:05.000Z</time>
      </trkpt>
      <trkpt lat="46.20506" lon="-1.4755">
        <ele>6.2766</ele>
        <time>2023-05-31T14:28:06.000Z</time>
      </trkpt>
      <trkpt lat="46.20508" lon="-1.47545">
        <ele>6.23056</ele>
        <time>2023-05-31T14:28:07.000Z</time>
      </trkpt>
      <trkpt lat="46.20511" lon="-1.4754">
        <ele>6.17389</ele>
        <time>2023-05-31T14:28:08.000Z</time>
      </trkpt>
      <trkpt lat="46.20513" lon="-1.47535">
        <ele>6.1247</ele>
        <time>2023-05-31T14:28:09.000Z</time>
      </trkpt>
      <trkpt lat="46.20516" lon="-1.4753">
        <ele>6.09324</ele>
        <time>2023-05-31T14:28:10.000Z</time>
      </trkpt>
      <trkpt lat="46.20519" lon="-1.47526">
        <ele>6.09627</ele>
        <time>2023-05-31T14:28:11.000Z</time>
      </trkpt>
      <trkpt lat="46.20522" lon="-1.47521">
        <ele>6.12654</ele>
        <time>2023-05-31T14:28:12.000Z</time>
      </trkpt>
      <trkpt lat="46.20524" lon="-1.47516">
        <ele>6.15412</ele>
        <time>2023-05-31T14:28:13.000Z</time>
      </trkpt>
      <trkpt lat="46.20527" lon="-1.47512">
        <ele>6.23531</ele>
        <time>2023-05-31T14:28:14.000Z</time>
      </trkpt>
      <trkpt lat="46.20529" lon="-1.47507">
        <ele>6.32421</ele>
        <time>2023-05-31T14:28:15.000Z</time>
      </trkpt>
      <trkpt lat="46.20532" lon="-1.47502">
        <ele>6.39535</ele>
        <time>2023-05-31T14:28:16.000Z</time>
      </trkpt>
      <trkpt lat="46.20534" lon="-1.47497">
        <ele>6.52318</ele>
        <time>2023-05-31T14:28:17.000Z</time>
      </trkpt>
      <trkpt lat="46.20536" lon="-1.47491">
        <ele>6.63039</ele>
        <time>2023-05-31T14:28:18.000Z</time>
      </trkpt>
      <trkpt lat="46.20538" lon="-1.47486">
        <ele>6.71136</ele>
        <time>2023-05-31T14:28:19.000Z</time>
      </trkpt>
      <trkpt lat="46.20541" lon="-1.47481">
        <ele>6.78146</ele>
        <time>2023-05-31T14:28:20.000Z</time>
      </trkpt>
      <trkpt lat="46.20544" lon="-1.47476">
        <ele>6.84219</ele>
        <time>2023-05-31T14:28:21.000Z</time>
      </trkpt>
      <trkpt lat="46.20547" lon="-1.47472">
        <ele>6.85627</ele>
        <time>2023-05-31T14:28:22.000Z</time>
      </trkpt>
      <trkpt lat="46.2055" lon="-1.47467">
        <ele>6.8577</ele>
        <time>2023-05-31T14:28:23.000Z</time>
      </trkpt>
      <trkpt lat="46.20553" lon="-1.47463">
        <ele>6.86337</ele>
        <time>2023-05-31T14:28:24.000Z</time>
      </trkpt>
      <trkpt lat="46.20556" lon="-1.47459">
        <ele>6.8539</ele>
        <time>2023-05-31T14:28:25.000Z</time>
      </trkpt>
      <trkpt lat="46.20559" lon="-1.47457">
        <ele>6.81767</ele>
        <time>2023-05-31T14:28:26.000Z</time>
      </trkpt>
      <trkpt lat="46.20563" lon="-1.47454">
        <ele>6.75618</ele>
        <time>2023-05-31T14:28:27.000Z</time>
      </trkpt>
      <trkpt lat="46.20567" lon="-1.47451">
        <ele>6.68382</ele>
        <time>2023-05-31T14:28:28.000Z</time>
      </trkpt>
      <trkpt lat="46.2057" lon="-1.47448">
        <ele>6.60914</ele>
        <time>2023-05-31T14:28:29.000Z</time>
      </trkpt>
      <trkpt lat="46.20574" lon="-1.47445">
        <ele>6.53269</ele>
        <time>2023-05-31T14:28:30.000Z</time>
      </trkpt>
      <trkpt lat="46.20579" lon="-1.47444">
        <ele>6.4344</ele>
        <time>2023-05-31T14:28:31.000Z</time>
      </trkpt>
      <trkpt lat="46.20583" lon="-1.47442">
        <ele>6.33312</ele>
        <time>2023-05-31T14:28:32.000Z</time>
      </trkpt>
      <trkpt lat="46.20588" lon="-1.47441">
        <ele>6.243</ele>
        <time>2023-05-31T14:28:33.000Z</time>
      </trkpt>
      <trkpt lat="46.20592" lon="-1.47438">
        <ele>6.12887</ele>
        <time>2023-05-31T14:28:34.000Z</time>
      </trkpt>
      <trkpt lat="46.20595" lon="-1.47436">
        <ele>6.02565</ele>
        <time>2023-05-31T14:28:35.000Z</time>
      </trkpt>
      <trkpt lat="46.20597" lon="-1.47433">
        <ele>5.92039</ele>
        <time>2023-05-31T14:28:36.000Z</time>
      </trkpt>
      <trkpt lat="46.206" lon="-1.47431">
        <ele>5.8197</ele>
        <time>2023-05-31T14:28:37.000Z</time>
      </trkpt>
      <trkpt lat="46.20603" lon="-1.47428">
        <ele>5.74927</ele>
        <time>2023-05-31T14:28:38.000Z</time>
      </trkpt>
      <trkpt lat="46.20607" lon="-1.47424">
        <ele>5.67742</ele>
        <time>2023-05-31T14:28:39.000Z</time>
      </trkpt>
      <trkpt lat="46.2061" lon="-1.47422">
        <ele>5.59251</ele>
        <time>2023-05-31T14:28:40.000Z</time>
      </trkpt>
      <trkpt lat="46.20614" lon="-1.47419">
        <ele>5.51341</ele>
        <time>2023-05-31T14:28:41.000Z</time>
      </trkpt>
      <trkpt lat="46.20618" lon="-1.47417">
        <ele>5.49222</ele>
        <time>2023-05-31T14:28:42.000Z</time>
      </trkpt>
      <trkpt lat="46.20622" lon="-1.47416">
        <ele>5.48043</ele>
        <time>2023-05-31T14:28:43.000Z</time>
      </trkpt>
      <trkpt lat="46.20626" lon="-1.47414">
        <ele>5.47734</ele>
        <time>2023-05-31T14:28:44.000Z</time>
      </trkpt>
      <trkpt lat="46.2063" lon="-1.47413">
        <ele>5.48045</ele>
        <time>2023-05-31T14:28:45.000Z</time>
      </trkpt>
      <trkpt lat="46.20635" lon="-1.47413">
        <ele>5.50246</ele>
        <time>2023-05-31T14:28:46.000Z</time>
      </trkpt>
      <trkpt lat="46.20639" lon="-1.47412">
        <ele>5.52775</ele>
        <time>2023-05-31T14:28:47.000Z</time>
      </trkpt>
      <trkpt lat="46.20644" lon="-1.47411">
        <ele>5.55795</ele>
        <time>2023-05-31T14:28:48.000Z</time>
      </trkpt>
      <trkpt lat="46.20648" lon="-1.4741">
        <ele>5.58288</ele>
        <time>2023-05-31T14:28:49.000Z</time>
      </trkpt>
      <trkpt lat="46.20653" lon="-1.47409">
        <ele>5.61393</ele>
        <time>2023-05-31T14:28:50.000Z</time>
      </trkpt>
      <trkpt lat="46.20657" lon="-1.47409">
        <ele>5.65378</ele>
        <time>2023-05-31T14:28:51.000Z</time>
      </trkpt>
      <trkpt lat="46.20661" lon="-1.47408">
        <ele>5.70466</ele>
        <time>2023-05-31T14:28:52.000Z</time>
      </trkpt>
      <trkpt lat="46.20666" lon="-1.47408">
        <ele>5.75967</ele>
        <time>2023-05-31T14:28:53.000Z</time>
      </trkpt>
      <trkpt lat="46.2067" lon="-1.47407">
        <ele>5.80457</ele>
        <time>2023-05-31T14:28:54.000Z</time>
      </trkpt>
      <trkpt lat="46.20675" lon="-1.47406">
        <ele>5.85092</ele>
        <time>2023-05-31T14:28:55.000Z</time>
      </trkpt>
      <trkpt lat="46.2068" lon="-1.47405">
        <ele>5.90595</ele>
        <time>2023-05-31T14:28:56.000Z</time>
      </trkpt>
      <trkpt lat="46.20685" lon="-1.47404">
        <ele>5.94593</ele>
        <time>2023-05-31T14:28:57.000Z</time>
      </trkpt>
      <trkpt lat="46.20689" lon="-1.47404">
        <ele>5.95925</ele>
        <time>2023-05-31T14:28:58.000Z</time>
      </trkpt>
      <trkpt lat="46.20693" lon="-1.47403">
        <ele>6.00374</ele>
        <time>2023-05-31T14:28:59.000Z</time>
      </trkpt>
      <trkpt lat="46.20698" lon="-1.47403">
        <ele>6.04521</ele>
        <time>2023-05-31T14:29:00.000Z</time>
      </trkpt>
      <trkpt lat="46.20702" lon="-1.47402">
        <ele>6.10444</ele>
        <time>2023-05-31T14:29:01.000Z</time>
      </trkpt>
      <trkpt lat="46.20706" lon="-1.474">
        <ele>6.13957</ele>
        <time>2023-05-31T14:29:02.000Z</time>
      </trkpt>
      <trkpt lat="46.2071" lon="-1.474">
        <ele>6.16387</ele>
        <time>2023-05-31T14:29:03.000Z</time>
      </trkpt>
      <trkpt lat="46.20715" lon="-1.47399">
        <ele>6.17404</ele>
        <time>2023-05-31T14:29:04.000Z</time>
      </trkpt>
      <trkpt lat="46.20719" lon="-1.47396">
        <ele>6.22661</ele>
        <time>2023-05-31T14:29:05.000Z</time>
      </trkpt>
      <trkpt lat="46.20721" lon="-1.47391">
        <ele>6.28264</ele>
        <time>2023-05-31T14:29:06.000Z</time>
      </trkpt>
      <trkpt lat="46.20722" lon="-1.47385">
        <ele>6.35208</ele>
        <time>2023-05-31T14:29:07.000Z</time>
      </trkpt>
      <trkpt lat="46.2072" lon="-1.4738">
        <ele>6.42952</ele>
        <time>2023-05-31T14:29:08.000Z</time>
      </trkpt>
      <trkpt lat="46.20718" lon="-1.47375">
        <ele>6.50032</ele>
        <time>2023-05-31T14:29:09.000Z</time>
      </trkpt>
      <trkpt lat="46.20716" lon="-1.47371">
        <ele>6.55889</ele>
        <time>2023-05-31T14:29:10.000Z</time>
      </trkpt>
      <trkpt lat="46.20713" lon="-1.47366">
        <ele>6.64058</ele>
        <time>2023-05-31T14:29:11.000Z</time>
      </trkpt>
      <trkpt lat="46.2071" lon="-1.47362">
        <ele>6.71201</ele>
        <time>2023-05-31T14:29:12.000Z</time>
      </trkpt>
      <trkpt lat="46.20707" lon="-1.47357">
        <ele>6.75164</ele>
        <time>2023-05-31T14:29:13.000Z</time>
      </trkpt>
      <trkpt lat="46.20703" lon="-1.47353">
        <ele>6.79795</ele>
        <time>2023-05-31T14:29:14.000Z</time>
      </trkpt>
      <trkpt lat="46.207" lon="-1.47349">
        <ele>6.82733</ele>
        <time>2023-05-31T14:29:15.000Z</time>
      </trkpt>
      <trkpt lat="46.20696" lon="-1.47345">
        <ele>6.84937</ele>
        <time>2023-05-31T14:29:16.000Z</time>
      </trkpt>
      <trkpt lat="46.20692" lon="-1.47341">
        <ele>6.87882</ele>
        <time>2023-05-31T14:29:17.000Z</time>
      </trkpt>
      <trkpt lat="46.20689" lon="-1.47338">
        <ele>6.9159</ele>
        <time>2023-05-31T14:29:18.000Z</time>
      </trkpt>
      <trkpt lat="46.20685" lon="-1.47335">
        <ele>6.9528</ele>
        <time>2023-05-31T14:29:19.000Z</time>
      </trkpt>
      <trkpt lat="46.20681" lon="-1.47333">
        <ele>6.98524</ele>
        <time>2023-05-31T14:29:20.000Z</time>
      </trkpt>
      <trkpt lat="46.20677" lon="-1.47329">
        <ele>7.01675</ele>
        <time>2023-05-31T14:29:21.000Z</time>
      </trkpt>
      <trkpt lat="46.20674" lon="-1.47326">
        <ele>7.06954</ele>
        <time>2023-05-31T14:29:22.000Z</time>
      </trkpt>
      <trkpt lat="46.20671" lon="-1.47322">
        <ele>7.1281</ele>
        <time>2023-05-31T14:29:23.000Z</time>
      </trkpt>
      <trkpt lat="46.20667" lon="-1.47319">
        <ele>7.16521</ele>
        <time>2023-05-31T14:29:24.000Z</time>
      </trkpt>
      <trkpt lat="46.20665" lon="-1.47315">
        <ele>7.17013</ele>
        <time>2023-05-31T14:29:25.000Z</time>
      </trkpt>
      <trkpt lat="46.20663" lon="-1.47311">
        <ele>7.17616</ele>
        <time>2023-05-31T14:29:26.000Z</time>
      </trkpt>
      <trkpt lat="46.2066" lon="-1.47306">
        <ele>7.18356</ele>
        <time>2023-05-31T14:29:27.000Z</time>
      </trkpt>
      <trkpt lat="46.20657" lon="-1.47302">
        <ele>7.1919</ele>
        <time>2023-05-31T14:29:28.000Z</time>
      </trkpt>
      <trkpt lat="46.20655" lon="-1.47299">
        <ele>7.17577</ele>
        <time>2023-05-31T14:29:29.000Z</time>
      </trkpt>
      <trkpt lat="46.20653" lon="-1.47296">
        <ele>7.17514</ele>
        <time>2023-05-31T14:29:30.000Z</time>
      </trkpt>
      <trkpt lat="46.2065" lon="-1.47293">
        <ele>7.15332</ele>
        <time>2023-05-31T14:29:31.000Z</time>
      </trkpt>
      <trkpt lat="46.20648" lon="-1.47289">
        <ele>7.1499</ele>
        <time>2023-05-31T14:29:32.000Z</time>
      </trkpt>
      <trkpt lat="46.20646" lon="-1.47286">
        <ele>7.14975</ele>
        <time>2023-05-31T14:29:33.000Z</time>
      </trkpt>
      <trkpt lat="46.20643" lon="-1.47283">
        <ele>7.14742</ele>
        <time>2023-05-31T14:29:34.000Z</time>
      </trkpt>
      <trkpt lat="46.2064" lon="-1.4728">
        <ele>7.13091</ele>
        <time>2023-05-31T14:29:35.000Z</time>
      </trkpt>
      <trkpt lat="46.20638" lon="-1.47277">
        <ele>7.09543</ele>
        <time>2023-05-31T14:29:36.000Z</time>
      </trkpt>
      <trkpt lat="46.20636" lon="-1.47274">
        <ele>7.07131</ele>
        <time>2023-05-31T14:29:37.000Z</time>
      </trkpt>
      <trkpt lat="46.20633" lon="-1.47271">
        <ele>7.0343</ele>
        <time>2023-05-31T14:29:38.000Z</time>
      </trkpt>
      <trkpt lat="46.20631" lon="-1.47267">
        <ele>6.98073</ele>
        <time>2023-05-31T14:29:39.000Z</time>
      </trkpt>
      <trkpt lat="46.20629" lon="-1.47264">
        <ele>6.94432</ele>
        <time>2023-05-31T14:29:40.000Z</time>
      </trkpt>
      <trkpt lat="46.20627" lon="-1.47261">
        <ele>6.92515</ele>
        <time>2023-05-31T14:29:41.000Z</time>
      </trkpt>
      <trkpt lat="46.20625" lon="-1.47259">
        <ele>6.93345</ele>
        <time>2023-05-31T14:29:42.000Z</time>
      </trkpt>
      <trkpt lat="46.20623" lon="-1.47256">
        <ele>6.94831</ele>
        <time>2023-05-31T14:29:43.000Z</time>
      </trkpt>
      <trkpt lat="46.2062" lon="-1.47254">
        <ele>6.97175</ele>
        <time>2023-05-31T14:29:44.000Z</time>
      </trkpt>
      <trkpt lat="46.20617" lon="-1.47252">
        <ele>7.01244</ele>
        <time>2023-05-31T14:29:45.000Z</time>
      </trkpt>
      <trkpt lat="46.20614" lon="-1.47251">
        <ele>7.02869</ele>
        <time>2023-05-31T14:29:46.000Z</time>
      </trkpt>
      <trkpt lat="46.20611" lon="-1.47251">
        <ele>7.069</ele>
        <time>2023-05-31T14:29:47.000Z</time>
      </trkpt>
      <trkpt lat="46.20608" lon="-1.47251">
        <ele>7.10712</ele>
        <time>2023-05-31T14:29:48.000Z</time>
      </trkpt>
      <trkpt lat="46.20605" lon="-1.47251">
        <ele>7.15364</ele>
        <time>2023-05-31T14:29:49.000Z</time>
      </trkpt>
      <trkpt lat="46.20601" lon="-1.4725">
        <ele>7.19038</ele>
        <time>2023-05-31T14:29:50.000Z</time>
      </trkpt>
      <trkpt lat="46.20598" lon="-1.47249">
        <ele>7.21629</ele>
        <time>2023-05-31T14:29:51.000Z</time>
      </trkpt>
      <trkpt lat="46.20596" lon="-1.47247">
        <ele>7.21939</ele>
        <time>2023-05-31T14:29:52.000Z</time>
      </trkpt>
      <trkpt lat="46.20593" lon="-1.47244">
        <ele>7.29374</ele>
        <time>2023-05-31T14:29:53.000Z</time>
      </trkpt>
      <trkpt lat="46.2059" lon="-1.47242">
        <ele>7.35378</ele>
        <time>2023-05-31T14:29:54.000Z</time>
      </trkpt>
      <trkpt lat="46.20589" lon="-1.47239">
        <ele>7.39212</ele>
        <time>2023-05-31T14:29:55.000Z</time>
      </trkpt>
      <trkpt lat="46.20587" lon="-1.47234">
        <ele>7.47929</ele>
        <time>2023-05-31T14:29:56.000Z</time>
      </trkpt>
      <trkpt lat="46.20586" lon="-1.47229">
        <ele>7.54682</ele>
        <time>2023-05-31T14:29:57.000Z</time>
      </trkpt>
      <trkpt lat="46.20585" lon="-1.47223">
        <ele>7.64285</ele>
        <time>2023-05-31T14:29:58.000Z</time>
      </trkpt>
      <trkpt lat="46.20585" lon="-1.47218">
        <ele>7.76295</ele>
        <time>2023-05-31T14:29:59.000Z</time>
      </trkpt>
      <trkpt lat="46.20585" lon="-1.47213">
        <ele>7.84733</ele>
        <time>2023-05-31T14:30:00.000Z</time>
      </trkpt>
      <trkpt lat="46.20584" lon="-1.47208">
        <ele>7.91113</ele>
        <time>2023-05-31T14:30:01.000Z</time>
      </trkpt>
      <trkpt lat="46.20584" lon="-1.47204">
        <ele>7.94002</ele>
        <time>2023-05-31T14:30:02.000Z</time>
      </trkpt>
      <trkpt lat="46.20584" lon="-1.472">
        <ele>7.91187</ele>
        <time>2023-05-31T14:30:03.000Z</time>
      </trkpt>
      <trkpt lat="46.20583" lon="-1.47196">
        <ele>7.91921</ele>
        <time>2023-05-31T14:30:04.000Z</time>
      </trkpt>
      <trkpt lat="46.20583" lon="-1.47193">
        <ele>7.89981</ele>
        <time>2023-05-31T14:30:05.000Z</time>
      </trkpt>
      <trkpt lat="46.20583" lon="-1.47191">
        <ele>7.91116</ele>
        <time>2023-05-31T14:30:06.000Z</time>
      </trkpt>
      <trkpt lat="46.20582" lon="-1.47188">
        <ele>7.89447</ele>
        <time>2023-05-31T14:30:07.000Z</time>
      </trkpt>
      <trkpt lat="46.20581" lon="-1.47184">
        <ele>7.882</ele>
        <time>2023-05-31T14:30:08.000Z</time>
      </trkpt>
      <trkpt lat="46.2058" lon="-1.4718">
        <ele>7.92511</ele>
        <time>2023-05-31T14:30:09.000Z</time>
      </trkpt>
      <trkpt lat="46.20579" lon="-1.47175">
        <ele>7.97211</ele>
        <time>2023-05-31T14:30:10.000Z</time>
      </trkpt>
      <trkpt lat="46.20578" lon="-1.47171">
        <ele>8.01067</ele>
        <time>2023-05-31T14:30:11.000Z</time>
      </trkpt>
      <trkpt lat="46.20577" lon="-1.47167">
        <ele>8.01717</ele>
        <time>2023-05-31T14:30:12.000Z</time>
      </trkpt>
      <trkpt lat="46.20577" lon="-1.47162">
        <ele>8.01021</ele>
        <time>2023-05-31T14:30:13.000Z</time>
      </trkpt>
      <trkpt lat="46.20576" lon="-1.47157">
        <ele>7.99437</ele>
        <time>2023-05-31T14:30:14.000Z</time>
      </trkpt>
      <trkpt lat="46.20576" lon="-1.47152">
        <ele>8.0218</ele>
        <time>2023-05-31T14:30:15.000Z</time>
      </trkpt>
      <trkpt lat="46.20575" lon="-1.47148">
        <ele>8.0662</ele>
        <time>2023-05-31T14:30:16.000Z</time>
      </trkpt>
      <trkpt lat="46.20574" lon="-1.47143">
        <ele>8.13395</ele>
        <time>2023-05-31T14:30:17.000Z</time>
      </trkpt>
      <trkpt lat="46.20572" lon="-1.47139">
        <ele>8.16887</ele>
        <time>2023-05-31T14:30:18.000Z</time>
      </trkpt>
      <trkpt lat="46.20571" lon="-1.47135">
        <ele>8.19703</ele>
        <time>2023-05-31T14:30:19.000Z</time>
      </trkpt>
      <trkpt lat="46.2057" lon="-1.4713">
        <ele>8.28723</ele>
        <time>2023-05-31T14:30:20.000Z</time>
      </trkpt>
      <trkpt lat="46.2057" lon="-1.47126">
        <ele>8.36118</ele>
        <time>2023-05-31T14:30:21.000Z</time>
      </trkpt>
      <trkpt lat="46.20572" lon="-1.47123">
        <ele>8.38941</ele>
        <time>2023-05-31T14:30:22.000Z</time>
      </trkpt>
      <trkpt lat="46.20575" lon="-1.47122">
        <ele>8.5006</ele>
        <time>2023-05-31T14:30:23.000Z</time>
      </trkpt>
      <trkpt lat="46.20577" lon="-1.47121">
        <ele>8.5816</ele>
        <time>2023-05-31T14:30:24.000Z</time>
      </trkpt>
      <trkpt lat="46.2058" lon="-1.47119">
        <ele>8.66562</ele>
        <time>2023-05-31T14:30:25.000Z</time>
      </trkpt>
      <trkpt lat="46.20584" lon="-1.47118">
        <ele>8.76</ele>
        <time>2023-05-31T14:30:26.000Z</time>
      </trkpt>
      <trkpt lat="46.20588" lon="-1.47116">
        <ele>8.83274</ele>
        <time>2023-05-31T14:30:27.000Z</time>
      </trkpt>
      <trkpt lat="46.20592" lon="-1.47114">
        <ele>8.91443</ele>
        <time>2023-05-31T14:30:28.000Z</time>
      </trkpt>
      <trkpt lat="46.20594" lon="-1.47112">
        <ele>8.91475</ele>
        <time>2023-05-31T14:30:29.000Z</time>
      </trkpt>
      <trkpt lat="46.20597" lon="-1.4711">
        <ele>8.88352</ele>
        <time>2023-05-31T14:30:30.000Z</time>
      </trkpt>
      <trkpt lat="46.20601" lon="-1.47107">
        <ele>8.84637</ele>
        <time>2023-05-31T14:30:31.000Z</time>
      </trkpt>
      <trkpt lat="46.20605" lon="-1.47105">
        <ele>8.84111</ele>
        <time>2023-05-31T14:30:32.000Z</time>
      </trkpt>
      <trkpt lat="46.20609" lon="-1.47103">
        <ele>8.82433</ele>
        <time>2023-05-31T14:30:33.000Z</time>
      </trkpt>
      <trkpt lat="46.20614" lon="-1.471">
        <ele>8.79292</ele>
        <time>2023-05-31T14:30:34.000Z</time>
      </trkpt>
      <trkpt lat="46.20617" lon="-1.47098">
        <ele>8.72711</ele>
        <time>2023-05-31T14:30:35.000Z</time>
      </trkpt>
      <trkpt lat="46.20621" lon="-1.47096">
        <ele>8.60613</ele>
        <time>2023-05-31T14:30:36.000Z</time>
      </trkpt>
      <trkpt lat="46.20624" lon="-1.47093">
        <ele>8.49471</ele>
        <time>2023-05-31T14:30:37.000Z</time>
      </trkpt>
      <trkpt lat="46.20628" lon="-1.47089">
        <ele>8.38476</ele>
        <time>2023-05-31T14:30:38.000Z</time>
      </trkpt>
      <trkpt lat="46.20632" lon="-1.47085">
        <ele>8.22937</ele>
        <time>2023-05-31T14:30:39.000Z</time>
      </trkpt>
      <trkpt lat="46.20637" lon="-1.47082">
        <ele>7.99293</ele>
        <time>2023-05-31T14:30:40.000Z</time>
      </trkpt>
      <trkpt lat="46.20642" lon="-1.47079">
        <ele>7.7618</ele>
        <time>2023-05-31T14:30:41.000Z</time>
      </trkpt>
      <trkpt lat="46.20648" lon="-1.47075">
        <ele>7.58356</ele>
        <time>2023-05-31T14:30:42.000Z</time>
      </trkpt>
      <trkpt lat="46.20653" lon="-1.47072">
        <ele>7.4153</ele>
        <time>2023-05-31T14:30:43.000Z</time>
      </trkpt>
      <trkpt lat="46.2066" lon="-1.47068">
        <ele>7.28429</ele>
        <time>2023-05-31T14:30:44.000Z</time>
      </trkpt>
      <trkpt lat="46.20663" lon="-1.47065">
        <ele>7.12544</ele>
        <time>2023-05-31T14:30:45.000Z</time>
      </trkpt>
      <trkpt lat="46.20669" lon="-1.47062">
        <ele>6.92772</ele>
        <time>2023-05-31T14:30:46.000Z</time>
      </trkpt>
      <trkpt lat="46.20675" lon="-1.4706">
        <ele>6.75406</ele>
        <time>2023-05-31T14:30:47.000Z</time>
      </trkpt>
      <trkpt lat="46.20681" lon="-1.47058">
        <ele>6.58295</ele>
        <time>2023-05-31T14:30:48.000Z</time>
      </trkpt>
      <trkpt lat="46.20687" lon="-1.47056">
        <ele>6.43436</ele>
        <time>2023-05-31T14:30:49.000Z</time>
      </trkpt>
      <trkpt lat="46.20693" lon="-1.47054">
        <ele>6.32628</ele>
        <time>2023-05-31T14:30:50.000Z</time>
      </trkpt>
      <trkpt lat="46.20698" lon="-1.47054">
        <ele>6.25398</ele>
        <time>2023-05-31T14:30:51.000Z</time>
      </trkpt>
      <trkpt lat="46.20705" lon="-1.47054">
        <ele>6.18897</ele>
        <time>2023-05-31T14:30:52.000Z</time>
      </trkpt>
      <trkpt lat="46.20711" lon="-1.47053">
        <ele>6.10704</ele>
        <time>2023-05-31T14:30:53.000Z</time>
      </trkpt>
      <trkpt lat="46.20717" lon="-1.47052">
        <ele>6.05066</ele>
        <time>2023-05-31T14:30:54.000Z</time>
      </trkpt>
      <trkpt lat="46.20723" lon="-1.4705">
        <ele>6.01796</ele>
        <time>2023-05-31T14:30:55.000Z</time>
      </trkpt>
      <trkpt lat="46.20728" lon="-1.47047">
        <ele>5.99785</ele>
        <time>2023-05-31T14:30:56.000Z</time>
      </trkpt>
      <trkpt lat="46.20734" lon="-1.47044">
        <ele>5.94544</ele>
        <time>2023-05-31T14:30:57.000Z</time>
      </trkpt>
      <trkpt lat="46.2074" lon="-1.47041">
        <ele>5.883</ele>
        <time>2023-05-31T14:30:58.000Z</time>
      </trkpt>
      <trkpt lat="46.20744" lon="-1.47038">
        <ele>5.86705</ele>
        <time>2023-05-31T14:30:59.000Z</time>
      </trkpt>
      <trkpt lat="46.20749" lon="-1.47035">
        <ele>5.90582</ele>
        <time>2023-05-31T14:31:00.000Z</time>
      </trkpt>
      <trkpt lat="46.20754" lon="-1.47031">
        <ele>5.94467</ele>
        <time>2023-05-31T14:31:01.000Z</time>
      </trkpt>
      <trkpt lat="46.20759" lon="-1.47027">
        <ele>5.97926</ele>
        <time>2023-05-31T14:31:02.000Z</time>
      </trkpt>
      <trkpt lat="46.20764" lon="-1.47023">
        <ele>5.96518</ele>
        <time>2023-05-31T14:31:03.000Z</time>
      </trkpt>
      <trkpt lat="46.20769" lon="-1.4702">
        <ele>5.96111</ele>
        <time>2023-05-31T14:31:04.000Z</time>
      </trkpt>
      <trkpt lat="46.20773" lon="-1.47015">
        <ele>5.99097</ele>
        <time>2023-05-31T14:31:05.000Z</time>
      </trkpt>
      <trkpt lat="46.20777" lon="-1.47012">
        <ele>6.03849</ele>
        <time>2023-05-31T14:31:06.000Z</time>
      </trkpt>
      <trkpt lat="46.2078" lon="-1.47009">
        <ele>6.07945</ele>
        <time>2023-05-31T14:31:07.000Z</time>
      </trkpt>
      <trkpt lat="46.20784" lon="-1.47006">
        <ele>6.09666</ele>
        <time>2023-05-31T14:31:08.000Z</time>
      </trkpt>
      <trkpt lat="46.20787" lon="-1.47002">
        <ele>6.1475</ele>
        <time>2023-05-31T14:31:09.000Z</time>
      </trkpt>
      <trkpt lat="46.20791" lon="-1.46999">
        <ele>6.18227</ele>
        <time>2023-05-31T14:31:10.000Z</time>
      </trkpt>
      <trkpt lat="46.20794" lon="-1.46996">
        <ele>6.20346</ele>
        <time>2023-05-31T14:31:11.000Z</time>
      </trkpt>
      <trkpt lat="46.20799" lon="-1.46993">
        <ele>6.23227</ele>
        <time>2023-05-31T14:31:12.000Z</time>
      </trkpt>
      <trkpt lat="46.20803" lon="-1.4699">
        <ele>6.24601</ele>
        <time>2023-05-31T14:31:13.000Z</time>
      </trkpt>
      <trkpt lat="46.20807" lon="-1.46987">
        <ele>6.26992</ele>
        <time>2023-05-31T14:31:14.000Z</time>
      </trkpt>
      <trkpt lat="46.20811" lon="-1.46985">
        <ele>6.31175</ele>
        <time>2023-05-31T14:31:15.000Z</time>
      </trkpt>
      <trkpt lat="46.20816" lon="-1.46982">
        <ele>6.35226</ele>
        <time>2023-05-31T14:31:16.000Z</time>
      </trkpt>
      <trkpt lat="46.2082" lon="-1.46978">
        <ele>6.41121</ele>
        <time>2023-05-31T14:31:17.000Z</time>
      </trkpt>
      <trkpt lat="46.20825" lon="-1.46973">
        <ele>6.49743</ele>
        <time>2023-05-31T14:31:18.000Z</time>
      </trkpt>
      <trkpt lat="46.2083" lon="-1.4697">
        <ele>6.5494</ele>
        <time>2023-05-31T14:31:19.000Z</time>
      </trkpt>
      <trkpt lat="46.20834" lon="-1.46966">
        <ele>6.59659</ele>
        <time>2023-05-31T14:31:20.000Z</time>
      </trkpt>
      <trkpt lat="46.20838" lon="-1.46962">
        <ele>6.63121</ele>
        <time>2023-05-31T14:31:21.000Z</time>
      </trkpt>
      <trkpt lat="46.20843" lon="-1.46958">
        <ele>6.66664</ele>
        <time>2023-05-31T14:31:22.000Z</time>
      </trkpt>
      <trkpt lat="46.20848" lon="-1.46955">
        <ele>6.7576</ele>
        <time>2023-05-31T14:31:23.000Z</time>
      </trkpt>
      <trkpt lat="46.20853" lon="-1.46952">
        <ele>6.79691</ele>
        <time>2023-05-31T14:31:24.000Z</time>
      </trkpt>
      <trkpt lat="46.20857" lon="-1.46948">
        <ele>6.82225</ele>
        <time>2023-05-31T14:31:25.000Z</time>
      </trkpt>
      <trkpt lat="46.20862" lon="-1.46945">
        <ele>6.84409</ele>
        <time>2023-05-31T14:31:26.000Z</time>
      </trkpt>
      <trkpt lat="46.20866" lon="-1.46942">
        <ele>6.86909</ele>
        <time>2023-05-31T14:31:27.000Z</time>
      </trkpt>
      <trkpt lat="46.2087" lon="-1.46938">
        <ele>6.91084</ele>
        <time>2023-05-31T14:31:28.000Z</time>
      </trkpt>
      <trkpt lat="46.20874" lon="-1.46935">
        <ele>6.92557</ele>
        <time>2023-05-31T14:31:29.000Z</time>
      </trkpt>
      <trkpt lat="46.20879" lon="-1.46931">
        <ele>6.97004</ele>
        <time>2023-05-31T14:31:30.000Z</time>
      </trkpt>
      <trkpt lat="46.20883" lon="-1.46928">
        <ele>7.01732</ele>
        <time>2023-05-31T14:31:31.000Z</time>
      </trkpt>
      <trkpt lat="46.20888" lon="-1.46924">
        <ele>7.03848</ele>
        <time>2023-05-31T14:31:32.000Z</time>
      </trkpt>
      <trkpt lat="46.20893" lon="-1.46921">
        <ele>7.07289</ele>
        <time>2023-05-31T14:31:33.000Z</time>
      </trkpt>
      <trkpt lat="46.20897" lon="-1.46918">
        <ele>7.09223</ele>
        <time>2023-05-31T14:31:34.000Z</time>
      </trkpt>
      <trkpt lat="46.20901" lon="-1.46914">
        <ele>7.08359</ele>
        <time>2023-05-31T14:31:35.000Z</time>
      </trkpt>
      <trkpt lat="46.20906" lon="-1.4691">
        <ele>7.08628</ele>
        <time>2023-05-31T14:31:36.000Z</time>
      </trkpt>
      <trkpt lat="46.2091" lon="-1.46907">
        <ele>7.06737</ele>
        <time>2023-05-31T14:31:37.000Z</time>
      </trkpt>
      <trkpt lat="46.20915" lon="-1.46903">
        <ele>7.07713</ele>
        <time>2023-05-31T14:31:38.000Z</time>
      </trkpt>
      <trkpt lat="46.20919" lon="-1.469">
        <ele>7.10414</ele>
        <time>2023-05-31T14:31:39.000Z</time>
      </trkpt>
      <trkpt lat="46.20923" lon="-1.46897">
        <ele>7.09687</ele>
        <time>2023-05-31T14:31:40.000Z</time>
      </trkpt>
      <trkpt lat="46.20927" lon="-1.46894">
        <ele>7.11157</ele>
        <time>2023-05-31T14:31:41.000Z</time>
      </trkpt>
      <trkpt lat="46.20931" lon="-1.4689">
        <ele>7.11719</ele>
        <time>2023-05-31T14:31:42.000Z</time>
      </trkpt>
      <trkpt lat="46.20936" lon="-1.46888">
        <ele>7.09185</ele>
        <time>2023-05-31T14:31:43.000Z</time>
      </trkpt>
      <trkpt lat="46.20941" lon="-1.46884">
        <ele>7.05702</ele>
        <time>2023-05-31T14:31:44.000Z</time>
      </trkpt>
      <trkpt lat="46.20945" lon="-1.46881">
        <ele>7.01282</ele>
        <time>2023-05-31T14:31:45.000Z</time>
      </trkpt>
      <trkpt lat="46.20949" lon="-1.46877">
        <ele>6.99543</ele>
        <time>2023-05-31T14:31:46.000Z</time>
      </trkpt>
      <trkpt lat="46.20953" lon="-1.46874">
        <ele>6.97169</ele>
        <time>2023-05-31T14:31:47.000Z</time>
      </trkpt>
      <trkpt lat="46.20957" lon="-1.4687">
        <ele>6.95967</ele>
        <time>2023-05-31T14:31:48.000Z</time>
      </trkpt>
      <trkpt lat="46.20961" lon="-1.46868">
        <ele>6.93125</ele>
        <time>2023-05-31T14:31:49.000Z</time>
      </trkpt>
      <trkpt lat="46.20965" lon="-1.46865">
        <ele>6.86913</ele>
        <time>2023-05-31T14:31:50.000Z</time>
      </trkpt>
      <trkpt lat="46.20969" lon="-1.46861">
        <ele>6.80166</ele>
        <time>2023-05-31T14:31:51.000Z</time>
      </trkpt>
      <trkpt lat="46.20973" lon="-1.46858">
        <ele>6.75198</ele>
        <time>2023-05-31T14:31:52.000Z</time>
      </trkpt>
      <trkpt lat="46.20977" lon="-1.46854">
        <ele>6.69359</ele>
        <time>2023-05-31T14:31:53.000Z</time>
      </trkpt>
      <trkpt lat="46.20981" lon="-1.46851">
        <ele>6.65141</ele>
        <time>2023-05-31T14:31:54.000Z</time>
      </trkpt>
      <trkpt lat="46.20984" lon="-1.46848">
        <ele>6.62227</ele>
        <time>2023-05-31T14:31:55.000Z</time>
      </trkpt>
      <trkpt lat="46.20987" lon="-1.46844">
        <ele>6.59491</ele>
        <time>2023-05-31T14:31:56.000Z</time>
      </trkpt>
      <trkpt lat="46.2099" lon="-1.46841">
        <ele>6.61455</ele>
        <time>2023-05-31T14:31:57.000Z</time>
      </trkpt>
      <trkpt lat="46.20993" lon="-1.46838">
        <ele>6.61069</ele>
        <time>2023-05-31T14:31:58.000Z</time>
      </trkpt>
      <trkpt lat="46.20997" lon="-1.46834">
        <ele>6.6186</ele>
        <time>2023-05-31T14:31:59.000Z</time>
      </trkpt>
      <trkpt lat="46.20999" lon="-1.46829">
        <ele>6.66214</ele>
        <time>2023-05-31T14:32:00.000Z</time>
      </trkpt>
      <trkpt lat="46.21002" lon="-1.46824">
        <ele>6.69088</ele>
        <time>2023-05-31T14:32:01.000Z</time>
      </trkpt>
      <trkpt lat="46.21004" lon="-1.46817">
        <ele>6.74115</ele>
        <time>2023-05-31T14:32:02.000Z</time>
      </trkpt>
      <trkpt lat="46.21005" lon="-1.4681">
        <ele>6.77492</ele>
        <time>2023-05-31T14:32:03.000Z</time>
      </trkpt>
      <trkpt lat="46.21006" lon="-1.46802">
        <ele>6.83809</ele>
        <time>2023-05-31T14:32:04.000Z</time>
      </trkpt>
      <trkpt lat="46.21008" lon="-1.46794">
        <ele>6.92324</ele>
        <time>2023-05-31T14:32:05.000Z</time>
      </trkpt>
      <trkpt lat="46.21011" lon="-1.46787">
        <ele>6.96951</ele>
        <time>2023-05-31T14:32:06.000Z</time>
      </trkpt>
      <trkpt lat="46.21013" lon="-1.4678">
        <ele>7.0051</ele>
        <time>2023-05-31T14:32:07.000Z</time>
      </trkpt>
      <trkpt lat="46.21016" lon="-1.46774">
        <ele>7.0173</ele>
        <time>2023-05-31T14:32:08.000Z</time>
      </trkpt>
      <trkpt lat="46.21018" lon="-1.46768">
        <ele>7.07398</ele>
        <time>2023-05-31T14:32:09.000Z</time>
      </trkpt>
      <trkpt lat="46.21022" lon="-1.46764">
        <ele>7.16122</ele>
        <time>2023-05-31T14:32:10.000Z</time>
      </trkpt>
      <trkpt lat="46.21026" lon="-1.46758">
        <ele>7.27548</ele>
        <time>2023-05-31T14:32:11.000Z</time>
      </trkpt>
      <trkpt lat="46.21029" lon="-1.46753">
        <ele>7.39536</ele>
        <time>2023-05-31T14:32:12.000Z</time>
      </trkpt>
      <trkpt lat="46.21032" lon="-1.46747">
        <ele>7.50708</ele>
        <time>2023-05-31T14:32:13.000Z</time>
      </trkpt>
      <trkpt lat="46.21034" lon="-1.46741">
        <ele>7.58146</ele>
        <time>2023-05-31T14:32:14.000Z</time>
      </trkpt>
      <trkpt lat="46.21037" lon="-1.46735">
        <ele>7.66981</ele>
        <time>2023-05-31T14:32:15.000Z</time>
      </trkpt>
      <trkpt lat="46.21039" lon="-1.46729">
        <ele>7.75918</ele>
        <time>2023-05-31T14:32:16.000Z</time>
      </trkpt>
      <trkpt lat="46.21042" lon="-1.46723">
        <ele>7.80906</ele>
        <time>2023-05-31T14:32:17.000Z</time>
      </trkpt>
      <trkpt lat="46.21044" lon="-1.46717">
        <ele>7.88605</ele>
        <time>2023-05-31T14:32:18.000Z</time>
      </trkpt>
      <trkpt lat="46.21045" lon="-1.46711">
        <ele>7.93218</ele>
        <time>2023-05-31T14:32:19.000Z</time>
      </trkpt>
      <trkpt lat="46.21047" lon="-1.46704">
        <ele>7.97304</ele>
        <time>2023-05-31T14:32:20.000Z</time>
      </trkpt>
      <trkpt lat="46.21048" lon="-1.46697">
        <ele>8.03528</ele>
        <time>2023-05-31T14:32:21.000Z</time>
      </trkpt>
      <trkpt lat="46.21049" lon="-1.46692">
        <ele>8.00683</ele>
        <time>2023-05-31T14:32:22.000Z</time>
      </trkpt>
      <trkpt lat="46.21051" lon="-1.46685">
        <ele>7.97727</ele>
        <time>2023-05-31T14:32:23.000Z</time>
      </trkpt>
      <trkpt lat="46.21052" lon="-1.46678">
        <ele>7.93875</ele>
        <time>2023-05-31T14:32:24.000Z</time>
      </trkpt>
      <trkpt lat="46.21053" lon="-1.4667">
        <ele>7.91489</ele>
        <time>2023-05-31T14:32:25.000Z</time>
      </trkpt>
      <trkpt lat="46.21055" lon="-1.46663">
        <ele>7.93344</ele>
        <time>2023-05-31T14:32:26.000Z</time>
      </trkpt>
      <trkpt lat="46.21055" lon="-1.46656">
        <ele>8.00385</ele>
        <time>2023-05-31T14:32:27.000Z</time>
      </trkpt>
      <trkpt lat="46.21056" lon="-1.46649">
        <ele>8.11021</ele>
        <time>2023-05-31T14:32:28.000Z</time>
      </trkpt>
      <trkpt lat="46.21056" lon="-1.46642">
        <ele>8.19566</ele>
        <time>2023-05-31T14:32:29.000Z</time>
      </trkpt>
      <trkpt lat="46.21057" lon="-1.46635">
        <ele>8.24659</ele>
        <time>2023-05-31T14:32:30.000Z</time>
      </trkpt>
      <trkpt lat="46.21057" lon="-1.46628">
        <ele>8.26649</ele>
        <time>2023-05-31T14:32:31.000Z</time>
      </trkpt>
      <trkpt lat="46.21058" lon="-1.46621">
        <ele>8.2792</ele>
        <time>2023-05-31T14:32:32.000Z</time>
      </trkpt>
      <trkpt lat="46.21059" lon="-1.46614">
        <ele>8.28924</ele>
        <time>2023-05-31T14:32:33.000Z</time>
      </trkpt>
      <trkpt lat="46.2106" lon="-1.46607">
        <ele>8.31756</ele>
        <time>2023-05-31T14:32:34.000Z</time>
      </trkpt>
      <trkpt lat="46.21061" lon="-1.466">
        <ele>8.34855</ele>
        <time>2023-05-31T14:32:35.000Z</time>
      </trkpt>
      <trkpt lat="46.21061" lon="-1.46591">
        <ele>8.39945</ele>
        <time>2023-05-31T14:32:36.000Z</time>
      </trkpt>
      <trkpt lat="46.21062" lon="-1.46585">
        <ele>8.4487</ele>
        <time>2023-05-31T14:32:37.000Z</time>
      </trkpt>
      <trkpt lat="46.21062" lon="-1.46578">
        <ele>8.44124</ele>
        <time>2023-05-31T14:32:38.000Z</time>
      </trkpt>
      <trkpt lat="46.21063" lon="-1.4657">
        <ele>8.46622</ele>
        <time>2023-05-31T14:32:39.000Z</time>
      </trkpt>
      <trkpt lat="46.21063" lon="-1.46563">
        <ele>8.49973</ele>
        <time>2023-05-31T14:32:40.000Z</time>
      </trkpt>
      <trkpt lat="46.21064" lon="-1.46555">
        <ele>8.52348</ele>
        <time>2023-05-31T14:32:41.000Z</time>
      </trkpt>
      <trkpt lat="46.21065" lon="-1.46549">
        <ele>8.62558</ele>
        <time>2023-05-31T14:32:42.000Z</time>
      </trkpt>
      <trkpt lat="46.21066" lon="-1.46542">
        <ele>8.74508</ele>
        <time>2023-05-31T14:32:43.000Z</time>
      </trkpt>
      <trkpt lat="46.21066" lon="-1.46535">
        <ele>8.86541</ele>
        <time>2023-05-31T14:32:44.000Z</time>
      </trkpt>
      <trkpt lat="46.21066" lon="-1.46527">
        <ele>8.95142</ele>
        <time>2023-05-31T14:32:45.000Z</time>
      </trkpt>
      <trkpt lat="46.21067" lon="-1.4652">
        <ele>9.0219</ele>
        <time>2023-05-31T14:32:46.000Z</time>
      </trkpt>
      <trkpt lat="46.21067" lon="-1.46512">
        <ele>9.05609</ele>
        <time>2023-05-31T14:32:47.000Z</time>
      </trkpt>
      <trkpt lat="46.21067" lon="-1.46504">
        <ele>9.07861</ele>
        <time>2023-05-31T14:32:48.000Z</time>
      </trkpt>
      <trkpt lat="46.21068" lon="-1.46496">
        <ele>9.10446</ele>
        <time>2023-05-31T14:32:49.000Z</time>
      </trkpt>
      <trkpt lat="46.21068" lon="-1.46489">
        <ele>9.15644</ele>
        <time>2023-05-31T14:32:50.000Z</time>
      </trkpt>
      <trkpt lat="46.21068" lon="-1.46482">
        <ele>9.20943</ele>
        <time>2023-05-31T14:32:51.000Z</time>
      </trkpt>
      <trkpt lat="46.21069" lon="-1.46476">
        <ele>9.28638</ele>
        <time>2023-05-31T14:32:52.000Z</time>
      </trkpt>
      <trkpt lat="46.21069" lon="-1.46468">
        <ele>9.38558</ele>
        <time>2023-05-31T14:32:53.000Z</time>
      </trkpt>
      <trkpt lat="46.2107" lon="-1.46462">
        <ele>9.52226</ele>
        <time>2023-05-31T14:32:54.000Z</time>
      </trkpt>
      <trkpt lat="46.21071" lon="-1.46455">
        <ele>9.64942</ele>
        <time>2023-05-31T14:32:55.000Z</time>
      </trkpt>
      <trkpt lat="46.21072" lon="-1.46448">
        <ele>9.74669</ele>
        <time>2023-05-31T14:32:56.000Z</time>
      </trkpt>
      <trkpt lat="46.21072" lon="-1.4644">
        <ele>9.825</ele>
        <time>2023-05-31T14:32:57.000Z</time>
      </trkpt>
      <trkpt lat="46.21074" lon="-1.46434">
        <ele>9.92102</ele>
        <time>2023-05-31T14:32:58.000Z</time>
      </trkpt>
      <trkpt lat="46.21075" lon="-1.46427">
        <ele>10.01374</ele>
        <time>2023-05-31T14:32:59.000Z</time>
      </trkpt>
      <trkpt lat="46.21076" lon="-1.46421">
        <ele>10.08042</ele>
        <time>2023-05-31T14:33:00.000Z</time>
      </trkpt>
      <trkpt lat="46.21076" lon="-1.46413">
        <ele>10.17465</ele>
        <time>2023-05-31T14:33:01.000Z</time>
      </trkpt>
      <trkpt lat="46.21077" lon="-1.46405">
        <ele>10.25866</ele>
        <time>2023-05-31T14:33:02.000Z</time>
      </trkpt>
      <trkpt lat="46.21078" lon="-1.46398">
        <ele>10.32955</ele>
        <time>2023-05-31T14:33:03.000Z</time>
      </trkpt>
      <trkpt lat="46.21079" lon="-1.4639">
        <ele>10.3699</ele>
        <time>2023-05-31T14:33:04.000Z</time>
      </trkpt>
      <trkpt lat="46.21079" lon="-1.46382">
        <ele>10.38371</ele>
        <time>2023-05-31T14:33:05.000Z</time>
      </trkpt>
      <trkpt lat="46.2108" lon="-1.46375">
        <ele>10.37669</ele>
        <time>2023-05-31T14:33:06.000Z</time>
      </trkpt>
      <trkpt lat="46.21081" lon="-1.46368">
        <ele>10.35029</ele>
        <time>2023-05-31T14:33:07.000Z</time>
      </trkpt>
      <trkpt lat="46.21082" lon="-1.46361">
        <ele>10.39599</ele>
        <time>2023-05-31T14:33:08.000Z</time>
      </trkpt>
      <trkpt lat="46.21083" lon="-1.46354">
        <ele>10.40821</ele>
        <time>2023-05-31T14:33:09.000Z</time>
      </trkpt>
      <trkpt lat="46.21084" lon="-1.46346">
        <ele>10.40984</ele>
        <time>2023-05-31T14:33:10.000Z</time>
      </trkpt>
      <trkpt lat="46.21085" lon="-1.46339">
        <ele>10.45042</ele>
        <time>2023-05-31T14:33:11.000Z</time>
      </trkpt>
      <trkpt lat="46.21087" lon="-1.46331">
        <ele>10.4785</ele>
        <time>2023-05-31T14:33:12.000Z</time>
      </trkpt>
      <trkpt lat="46.21088" lon="-1.46324">
        <ele>10.51928</ele>
        <time>2023-05-31T14:33:13.000Z</time>
      </trkpt>
      <trkpt lat="46.2109" lon="-1.46316">
        <ele>10.52782</ele>
        <time>2023-05-31T14:33:14.000Z</time>
      </trkpt>
      <trkpt lat="46.21091" lon="-1.46308">
        <ele>10.53341</ele>
        <time>2023-05-31T14:33:15.000Z</time>
      </trkpt>
      <trkpt lat="46.21092" lon="-1.46301">
        <ele>10.54276</ele>
        <time>2023-05-31T14:33:16.000Z</time>
      </trkpt>
      <trkpt lat="46.21094" lon="-1.46293">
        <ele>10.55293</ele>
        <time>2023-05-31T14:33:17.000Z</time>
      </trkpt>
      <trkpt lat="46.21095" lon="-1.46285">
        <ele>10.55289</ele>
        <time>2023-05-31T14:33:18.000Z</time>
      </trkpt>
      <trkpt lat="46.21098" lon="-1.46278">
        <ele>10.53956</ele>
        <time>2023-05-31T14:33:19.000Z</time>
      </trkpt>
      <trkpt lat="46.21098" lon="-1.4627">
        <ele>10.54663</ele>
        <time>2023-05-31T14:33:20.000Z</time>
      </trkpt>
      <trkpt lat="46.21101" lon="-1.46263">
        <ele>10.51804</ele>
        <time>2023-05-31T14:33:21.000Z</time>
      </trkpt>
      <trkpt lat="46.21102" lon="-1.46256">
        <ele>10.47998</ele>
        <time>2023-05-31T14:33:22.000Z</time>
      </trkpt>
      <trkpt lat="46.21104" lon="-1.46249">
        <ele>10.43159</ele>
        <time>2023-05-31T14:33:23.000Z</time>
      </trkpt>
      <trkpt lat="46.21104" lon="-1.46241">
        <ele>10.40403</ele>
        <time>2023-05-31T14:33:24.000Z</time>
      </trkpt>
      <trkpt lat="46.21105" lon="-1.46234">
        <ele>10.41538</ele>
        <time>2023-05-31T14:33:25.000Z</time>
      </trkpt>
      <trkpt lat="46.21106" lon="-1.46227">
        <ele>10.44723</ele>
        <time>2023-05-31T14:33:26.000Z</time>
      </trkpt>
      <trkpt lat="46.21107" lon="-1.4622">
        <ele>10.48955</ele>
        <time>2023-05-31T14:33:27.000Z</time>
      </trkpt>
      <trkpt lat="46.21109" lon="-1.46212">
        <ele>10.43456</ele>
        <time>2023-05-31T14:33:28.000Z</time>
      </trkpt>
      <trkpt lat="46.2111" lon="-1.46205">
        <ele>10.38511</ele>
        <time>2023-05-31T14:33:29.000Z</time>
      </trkpt>
      <trkpt lat="46.21113" lon="-1.46198">
        <ele>10.31582</ele>
        <time>2023-05-31T14:33:30.000Z</time>
      </trkpt>
      <trkpt lat="46.21114" lon="-1.46191">
        <ele>10.19577</ele>
        <time>2023-05-31T14:33:31.000Z</time>
      </trkpt>
      <trkpt lat="46.21116" lon="-1.46183">
        <ele>10.05685</ele>
        <time>2023-05-31T14:33:32.000Z</time>
      </trkpt>
      <trkpt lat="46.21118" lon="-1.46175">
        <ele>9.93229</ele>
        <time>2023-05-31T14:33:33.000Z</time>
      </trkpt>
      <trkpt lat="46.2112" lon="-1.46167">
        <ele>9.80386</ele>
        <time>2023-05-31T14:33:34.000Z</time>
      </trkpt>
      <trkpt lat="46.21121" lon="-1.4616">
        <ele>9.67982</ele>
        <time>2023-05-31T14:33:35.000Z</time>
      </trkpt>
      <trkpt lat="46.21122" lon="-1.46153">
        <ele>9.55534</ele>
        <time>2023-05-31T14:33:36.000Z</time>
      </trkpt>
      <trkpt lat="46.21123" lon="-1.46145">
        <ele>9.44076</ele>
        <time>2023-05-31T14:33:37.000Z</time>
      </trkpt>
      <trkpt lat="46.21124" lon="-1.46138">
        <ele>9.36826</ele>
        <time>2023-05-31T14:33:38.000Z</time>
      </trkpt>
      <trkpt lat="46.21123" lon="-1.46131">
        <ele>9.29448</ele>
        <time>2023-05-31T14:33:39.000Z</time>
      </trkpt>
      <trkpt lat="46.21124" lon="-1.46125">
        <ele>9.24228</ele>
        <time>2023-05-31T14:33:40.000Z</time>
      </trkpt>
      <trkpt lat="46.21124" lon="-1.4612">
        <ele>9.20355</ele>
        <time>2023-05-31T14:33:41.000Z</time>
      </trkpt>
      <trkpt lat="46.21123" lon="-1.46114">
        <ele>9.17546</ele>
        <time>2023-05-31T14:33:42.000Z</time>
      </trkpt>
      <trkpt lat="46.21123" lon="-1.46108">
        <ele>9.13235</ele>
        <time>2023-05-31T14:33:43.000Z</time>
      </trkpt>
      <trkpt lat="46.21123" lon="-1.46103">
        <ele>9.10209</ele>
        <time>2023-05-31T14:33:44.000Z</time>
      </trkpt>
      <trkpt lat="46.21122" lon="-1.46097">
        <ele>9.06058</ele>
        <time>2023-05-31T14:33:45.000Z</time>
      </trkpt>
      <trkpt lat="46.21122" lon="-1.46092">
        <ele>8.99765</ele>
        <time>2023-05-31T14:33:46.000Z</time>
      </trkpt>
      <trkpt lat="46.21122" lon="-1.46087">
        <ele>8.9421</ele>
        <time>2023-05-31T14:33:47.000Z</time>
      </trkpt>
      <trkpt lat="46.21122" lon="-1.46081">
        <ele>8.89911</ele>
        <time>2023-05-31T14:33:48.000Z</time>
      </trkpt>
      <trkpt lat="46.21123" lon="-1.46076">
        <ele>8.91146</ele>
        <time>2023-05-31T14:33:49.000Z</time>
      </trkpt>
      <trkpt lat="46.21123" lon="-1.46071">
        <ele>8.95922</ele>
        <time>2023-05-31T14:33:50.000Z</time>
      </trkpt>
      <trkpt lat="46.21123" lon="-1.46066">
        <ele>9.02072</ele>
        <time>2023-05-31T14:33:51.000Z</time>
      </trkpt>
      <trkpt lat="46.21124" lon="-1.46061">
        <ele>9.09687</ele>
        <time>2023-05-31T14:33:52.000Z</time>
      </trkpt>
      <trkpt lat="46.21124" lon="-1.46056">
        <ele>9.14202</ele>
        <time>2023-05-31T14:33:53.000Z</time>
      </trkpt>
      <trkpt lat="46.21124" lon="-1.46052">
        <ele>9.20549</ele>
        <time>2023-05-31T14:33:54.000Z</time>
      </trkpt>
      <trkpt lat="46.21124" lon="-1.46048">
        <ele>9.23904</ele>
        <time>2023-05-31T14:33:55.000Z</time>
      </trkpt>
      <trkpt lat="46.21124" lon="-1.46044">
        <ele>9.26423</ele>
        <time>2023-05-31T14:33:56.000Z</time>
      </trkpt>
      <trkpt lat="46.21124" lon="-1.4604">
        <ele>9.2971</ele>
        <time>2023-05-31T14:33:57.000Z</time>
      </trkpt>
      <trkpt lat="46.21124" lon="-1.46036">
        <ele>9.28752</ele>
        <time>2023-05-31T14:33:58.000Z</time>
      </trkpt>
      <trkpt lat="46.21123" lon="-1.46033">
        <ele>9.29014</ele>
        <time>2023-05-31T14:33:59.000Z</time>
      </trkpt>
      <trkpt lat="46.21123" lon="-1.4603">
        <ele>9.27815</ele>
        <time>2023-05-31T14:34:00.000Z</time>
      </trkpt>
      <trkpt lat="46.21122" lon="-1.46026">
        <ele>9.27882</ele>
        <time>2023-05-31T14:34:02.000Z</time>
      </trkpt>
      <trkpt lat="46.2112" lon="-1.46023">
        <ele>9.28428</ele>
        <time>2023-05-31T14:34:04.000Z</time>
      </trkpt>
      <trkpt lat="46.21118" lon="-1.46021">
        <ele>9.3193</ele>
        <time>2023-05-31T14:34:06.000Z</time>
      </trkpt>
      <trkpt lat="46.21115" lon="-1.4602">
        <ele>9.34488</ele>
        <time>2023-05-31T14:34:07.000Z</time>
      </trkpt>
      <trkpt lat="46.21113" lon="-1.4602">
        <ele>9.37981</ele>
        <time>2023-05-31T14:34:08.000Z</time>
      </trkpt>
      <trkpt lat="46.21111" lon="-1.46019">
        <ele>9.44154</ele>
        <time>2023-05-31T14:34:09.000Z</time>
      </trkpt>
      <trkpt lat="46.21109" lon="-1.46018">
        <ele>9.45118</ele>
        <time>2023-05-31T14:34:10.000Z</time>
      </trkpt>
      <trkpt lat="46.21107" lon="-1.46017">
        <ele>9.45846</ele>
        <time>2023-05-31T14:34:11.000Z</time>
      </trkpt>
      <trkpt lat="46.21105" lon="-1.46012">
        <ele>9.45446</ele>
        <time>2023-05-31T14:34:13.000Z</time>
      </trkpt>
      <trkpt lat="46.21105" lon="-1.46009">
        <ele>9.42268</ele>
        <time>2023-05-31T14:34:14.000Z</time>
      </trkpt>
      <trkpt lat="46.21105" lon="-1.46005">
        <ele>9.41703</ele>
        <time>2023-05-31T14:34:15.000Z</time>
      </trkpt>
      <trkpt lat="46.21105" lon="-1.46001">
        <ele>9.39414</ele>
        <time>2023-05-31T14:34:16.000Z</time>
      </trkpt>
      <trkpt lat="46.21106" lon="-1.45998">
        <ele>9.37079</ele>
        <time>2023-05-31T14:34:17.000Z</time>
      </trkpt>
      <trkpt lat="46.21107" lon="-1.45995">
        <ele>9.35073</ele>
        <time>2023-05-31T14:34:18.000Z</time>
      </trkpt>
      <trkpt lat="46.21107" lon="-1.45993">
        <ele>9.31241</ele>
        <time>2023-05-31T14:34:19.000Z</time>
      </trkpt>
      <trkpt lat="46.21108" lon="-1.45988">
        <ele>9.25635</ele>
        <time>2023-05-31T14:34:21.000Z</time>
      </trkpt>
      <trkpt lat="46.21107" lon="-1.45983">
        <ele>9.24658</ele>
        <time>2023-05-31T14:34:23.000Z</time>
      </trkpt>
      <trkpt lat="46.21105" lon="-1.4598">
        <ele>9.24489</ele>
        <time>2023-05-31T14:34:25.000Z</time>
      </trkpt>
      <trkpt lat="46.21103" lon="-1.45977">
        <ele>9.21488</ele>
        <time>2023-05-31T14:34:27.000Z</time>
      </trkpt>
      <trkpt lat="46.21102" lon="-1.45973">
        <ele>9.18348</ele>
        <time>2023-05-31T14:34:29.000Z</time>
      </trkpt>
      <trkpt lat="46.211" lon="-1.45969">
        <ele>9.14934</ele>
        <time>2023-05-31T14:34:31.000Z</time>
      </trkpt>
      <trkpt lat="46.21098" lon="-1.45964">
        <ele>9.12776</ele>
        <time>2023-05-31T14:34:33.000Z</time>
      </trkpt>
      <trkpt lat="46.21098" lon="-1.45962">
        <ele>9.08011</ele>
        <time>2023-05-31T14:34:34.000Z</time>
      </trkpt>
      <trkpt lat="46.21097" lon="-1.45959">
        <ele>9.04149</ele>
        <time>2023-05-31T14:34:35.000Z</time>
      </trkpt>
      <trkpt lat="46.21097" lon="-1.45956">
        <ele>9.03096</ele>
        <time>2023-05-31T14:34:36.000Z</time>
      </trkpt>
      <trkpt lat="46.21096" lon="-1.45953">
        <ele>9.0267</ele>
        <time>2023-05-31T14:34:37.000Z</time>
      </trkpt>
      <trkpt lat="46.21096" lon="-1.45951">
        <ele>9.05147</ele>
        <time>2023-05-31T14:34:38.000Z</time>
      </trkpt>
      <trkpt lat="46.21096" lon="-1.45948">
        <ele>9.08654</ele>
        <time>2023-05-31T14:34:39.000Z</time>
      </trkpt>
      <trkpt lat="46.21096" lon="-1.45943">
        <ele>9.09758</ele>
        <time>2023-05-31T14:34:41.000Z</time>
      </trkpt>
      <trkpt lat="46.21096" lon="-1.45938">
        <ele>9.1152</ele>
        <time>2023-05-31T14:34:43.000Z</time>
      </trkpt>
      <trkpt lat="46.21095" lon="-1.45936">
        <ele>9.12136</ele>
        <time>2023-05-31T14:34:44.000Z</time>
      </trkpt>
      <trkpt lat="46.21094" lon="-1.45934">
        <ele>9.14451</ele>
        <time>2023-05-31T14:34:45.000Z</time>
      </trkpt>
      <trkpt lat="46.21092" lon="-1.45932">
        <ele>9.15273</ele>
        <time>2023-05-31T14:34:46.000Z</time>
      </trkpt>
      <trkpt lat="46.21092" lon="-1.45929">
        <ele>9.15279</ele>
        <time>2023-05-31T14:34:47.000Z</time>
      </trkpt>
      <trkpt lat="46.21092" lon="-1.45926">
        <ele>9.19406</ele>
        <time>2023-05-31T14:34:48.000Z</time>
      </trkpt>
      <trkpt lat="46.21091" lon="-1.45923">
        <ele>9.25312</ele>
        <time>2023-05-31T14:34:49.000Z</time>
      </trkpt>
      <trkpt lat="46.21091" lon="-1.4592">
        <ele>9.2192</ele>
        <time>2023-05-31T14:34:50.000Z</time>
      </trkpt>
      <trkpt lat="46.2109" lon="-1.45917">
        <ele>9.20977</ele>
        <time>2023-05-31T14:34:51.000Z</time>
      </trkpt>
      <trkpt lat="46.2109" lon="-1.45914">
        <ele>9.22361</ele>
        <time>2023-05-31T14:34:52.000Z</time>
      </trkpt>
      <trkpt lat="46.2109" lon="-1.45911">
        <ele>9.29389</ele>
        <time>2023-05-31T14:34:53.000Z</time>
      </trkpt>
      <trkpt lat="46.21089" lon="-1.45909">
        <ele>9.33675</ele>
        <time>2023-05-31T14:34:54.000Z</time>
      </trkpt>
      <trkpt lat="46.21089" lon="-1.45906">
        <ele>9.3638</ele>
        <time>2023-05-31T14:34:55.000Z</time>
      </trkpt>
      <trkpt lat="46.21089" lon="-1.45903">
        <ele>9.38928</ele>
        <time>2023-05-31T14:34:56.000Z</time>
      </trkpt>
      <trkpt lat="46.21088" lon="-1.459">
        <ele>9.417</ele>
        <time>2023-05-31T14:34:57.000Z</time>
      </trkpt>
      <trkpt lat="46.21088" lon="-1.45897">
        <ele>9.42814</ele>
        <time>2023-05-31T14:34:58.000Z</time>
      </trkpt>
      <trkpt lat="46.21087" lon="-1.45894">
        <ele>9.42933</ele>
        <time>2023-05-31T14:34:59.000Z</time>
      </trkpt>
      <trkpt lat="46.21086" lon="-1.4589">
        <ele>9.44847</ele>
        <time>2023-05-31T14:35:00.000Z</time>
      </trkpt>
      <trkpt lat="46.21085" lon="-1.45886">
        <ele>9.49129</ele>
        <time>2023-05-31T14:35:01.000Z</time>
      </trkpt>
      <trkpt lat="46.21084" lon="-1.45882">
        <ele>9.52845</ele>
        <time>2023-05-31T14:35:02.000Z</time>
      </trkpt>
      <trkpt lat="46.21083" lon="-1.45877">
        <ele>9.56358</ele>
        <time>2023-05-31T14:35:03.000Z</time>
      </trkpt>
      <trkpt lat="46.21083" lon="-1.45871">
        <ele>9.58668</ele>
        <time>2023-05-31T14:35:04.000Z</time>
      </trkpt>
      <trkpt lat="46.21082" lon="-1.45866">
        <ele>9.59693</ele>
        <time>2023-05-31T14:35:05.000Z</time>
      </trkpt>
      <trkpt lat="46.21081" lon="-1.4586">
        <ele>9.62923</ele>
        <time>2023-05-31T14:35:06.000Z</time>
      </trkpt>
      <trkpt lat="46.21081" lon="-1.45854">
        <ele>9.66012</ele>
        <time>2023-05-31T14:35:07.000Z</time>
      </trkpt>
      <trkpt lat="46.2108" lon="-1.45849">
        <ele>9.67766</ele>
        <time>2023-05-31T14:35:08.000Z</time>
      </trkpt>
      <trkpt lat="46.21079" lon="-1.45843">
        <ele>9.67587</ele>
        <time>2023-05-31T14:35:09.000Z</time>
      </trkpt>
      <trkpt lat="46.21078" lon="-1.45837">
        <ele>9.70954</ele>
        <time>2023-05-31T14:35:10.000Z</time>
      </trkpt>
      <trkpt lat="46.21077" lon="-1.45831">
        <ele>9.79487</ele>
        <time>2023-05-31T14:35:11.000Z</time>
      </trkpt>
      <trkpt lat="46.21076" lon="-1.45825">
        <ele>9.88391</ele>
        <time>2023-05-31T14:35:12.000Z</time>
      </trkpt>
      <trkpt lat="46.21075" lon="-1.45819">
        <ele>9.92111</ele>
        <time>2023-05-31T14:35:13.000Z</time>
      </trkpt>
      <trkpt lat="46.21073" lon="-1.45813">
        <ele>9.96132</ele>
        <time>2023-05-31T14:35:14.000Z</time>
      </trkpt>
      <trkpt lat="46.21072" lon="-1.45807">
        <ele>9.97541</ele>
        <time>2023-05-31T14:35:15.000Z</time>
      </trkpt>
      <trkpt lat="46.21071" lon="-1.45801">
        <ele>9.99814</ele>
        <time>2023-05-31T14:35:16.000Z</time>
      </trkpt>
      <trkpt lat="46.21069" lon="-1.45795">
        <ele>9.99558</ele>
        <time>2023-05-31T14:35:17.000Z</time>
      </trkpt>
      <trkpt lat="46.21068" lon="-1.45788">
        <ele>9.99612</ele>
        <time>2023-05-31T14:35:18.000Z</time>
      </trkpt>
      <trkpt lat="46.21067" lon="-1.45782">
        <ele>9.95561</ele>
        <time>2023-05-31T14:35:19.000Z</time>
      </trkpt>
      <trkpt lat="46.21065" lon="-1.45776">
        <ele>9.91822</ele>
        <time>2023-05-31T14:35:20.000Z</time>
      </trkpt>
      <trkpt lat="46.21064" lon="-1.4577">
        <ele>9.84944</ele>
        <time>2023-05-31T14:35:21.000Z</time>
      </trkpt>
      <trkpt lat="46.21062" lon="-1.45763">
        <ele>9.83298</ele>
        <time>2023-05-31T14:35:22.000Z</time>
      </trkpt>
      <trkpt lat="46.21061" lon="-1.45757">
        <ele>9.81938</ele>
        <time>2023-05-31T14:35:23.000Z</time>
      </trkpt>
      <trkpt lat="46.2106" lon="-1.45751">
        <ele>9.80968</ele>
        <time>2023-05-31T14:35:24.000Z</time>
      </trkpt>
      <trkpt lat="46.21059" lon="-1.45744">
        <ele>9.82776</ele>
        <time>2023-05-31T14:35:25.000Z</time>
      </trkpt>
      <trkpt lat="46.21057" lon="-1.45738">
        <ele>9.82094</ele>
        <time>2023-05-31T14:35:26.000Z</time>
      </trkpt>
      <trkpt lat="46.21056" lon="-1.45733">
        <ele>9.80114</ele>
        <time>2023-05-31T14:35:27.000Z</time>
      </trkpt>
      <trkpt lat="46.21055" lon="-1.45727">
        <ele>9.79749</ele>
        <time>2023-05-31T14:35:28.000Z</time>
      </trkpt>
      <trkpt lat="46.21055" lon="-1.4572">
        <ele>9.80619</ele>
        <time>2023-05-31T14:35:29.000Z</time>
      </trkpt>
      <trkpt lat="46.21053" lon="-1.45714">
        <ele>9.81886</ele>
        <time>2023-05-31T14:35:30.000Z</time>
      </trkpt>
      <trkpt lat="46.21052" lon="-1.45707">
        <ele>9.76075</ele>
        <time>2023-05-31T14:35:31.000Z</time>
      </trkpt>
      <trkpt lat="46.21051" lon="-1.45701">
        <ele>9.69431</ele>
        <time>2023-05-31T14:35:32.000Z</time>
      </trkpt>
      <trkpt lat="46.21049" lon="-1.45695">
        <ele>9.65574</ele>
        <time>2023-05-31T14:35:33.000Z</time>
      </trkpt>
      <trkpt lat="46.21048" lon="-1.4569">
        <ele>9.60719</ele>
        <time>2023-05-31T14:35:34.000Z</time>
      </trkpt>
      <trkpt lat="46.21047" lon="-1.45684">
        <ele>9.58323</ele>
        <time>2023-05-31T14:35:35.000Z</time>
      </trkpt>
      <trkpt lat="46.21045" lon="-1.45678">
        <ele>9.56821</ele>
        <time>2023-05-31T14:35:36.000Z</time>
      </trkpt>
      <trkpt lat="46.21044" lon="-1.45672">
        <ele>9.56358</ele>
        <time>2023-05-31T14:35:37.000Z</time>
      </trkpt>
      <trkpt lat="46.21044" lon="-1.45667">
        <ele>9.5473</ele>
        <time>2023-05-31T14:35:38.000Z</time>
      </trkpt>
      <trkpt lat="46.21044" lon="-1.45661">
        <ele>9.53111</ele>
        <time>2023-05-31T14:35:39.000Z</time>
      </trkpt>
      <trkpt lat="46.21044" lon="-1.45656">
        <ele>9.51843</ele>
        <time>2023-05-31T14:35:40.000Z</time>
      </trkpt>
      <trkpt lat="46.21042" lon="-1.45651">
        <ele>9.48989</ele>
        <time>2023-05-31T14:35:41.000Z</time>
      </trkpt>
      <trkpt lat="46.21041" lon="-1.45646">
        <ele>9.41793</ele>
        <time>2023-05-31T14:35:42.000Z</time>
      </trkpt>
      <trkpt lat="46.2104" lon="-1.45641">
        <ele>9.33005</ele>
        <time>2023-05-31T14:35:43.000Z</time>
      </trkpt>
      <trkpt lat="46.21038" lon="-1.45636">
        <ele>9.2503</ele>
        <time>2023-05-31T14:35:44.000Z</time>
      </trkpt>
      <trkpt lat="46.21037" lon="-1.4563">
        <ele>9.1378</ele>
        <time>2023-05-31T14:35:45.000Z</time>
      </trkpt>
      <trkpt lat="46.21036" lon="-1.45625">
        <ele>9.03038</ele>
        <time>2023-05-31T14:35:46.000Z</time>
      </trkpt>
      <trkpt lat="46.21034" lon="-1.45619">
        <ele>8.93425</ele>
        <time>2023-05-31T14:35:47.000Z</time>
      </trkpt>
      <trkpt lat="46.21033" lon="-1.45613">
        <ele>8.83323</ele>
        <time>2023-05-31T14:35:48.000Z</time>
      </trkpt>
      <trkpt lat="46.21031" lon="-1.45607">
        <ele>8.74825</ele>
        <time>2023-05-31T14:35:49.000Z</time>
      </trkpt>
      <trkpt lat="46.21029" lon="-1.45601">
        <ele>8.65788</ele>
        <time>2023-05-31T14:35:50.000Z</time>
      </trkpt>
      <trkpt lat="46.21026" lon="-1.45596">
        <ele>8.56092</ele>
        <time>2023-05-31T14:35:51.000Z</time>
      </trkpt>
      <trkpt lat="46.21024" lon="-1.45591">
        <ele>8.43673</ele>
        <time>2023-05-31T14:35:52.000Z</time>
      </trkpt>
      <trkpt lat="46.21022" lon="-1.45585">
        <ele>8.28298</ele>
        <time>2023-05-31T14:35:53.000Z</time>
      </trkpt>
      <trkpt lat="46.21021" lon="-1.45579">
        <ele>8.16176</ele>
        <time>2023-05-31T14:35:54.000Z</time>
      </trkpt>
      <trkpt lat="46.21019" lon="-1.45573">
        <ele>8.03043</ele>
        <time>2023-05-31T14:35:55.000Z</time>
      </trkpt>
      <trkpt lat="46.21018" lon="-1.45567">
        <ele>7.90354</ele>
        <time>2023-05-31T14:35:56.000Z</time>
      </trkpt>
      <trkpt lat="46.21016" lon="-1.45561">
        <ele>7.78904</ele>
        <time>2023-05-31T14:35:57.000Z</time>
      </trkpt>
      <trkpt lat="46.21015" lon="-1.45555">
        <ele>7.65518</ele>
        <time>2023-05-31T14:35:58.000Z</time>
      </trkpt>
      <trkpt lat="46.21013" lon="-1.45549">
        <ele>7.55785</ele>
        <time>2023-05-31T14:35:59.000Z</time>
      </trkpt>
      <trkpt lat="46.21011" lon="-1.45542">
        <ele>7.44966</ele>
        <time>2023-05-31T14:36:00.000Z</time>
      </trkpt>
      <trkpt lat="46.21009" lon="-1.45536">
        <ele>7.35518</ele>
        <time>2023-05-31T14:36:01.000Z</time>
      </trkpt>
      <trkpt lat="46.21007" lon="-1.4553">
        <ele>7.26237</ele>
        <time>2023-05-31T14:36:02.000Z</time>
      </trkpt>
      <trkpt lat="46.21005" lon="-1.45524">
        <ele>7.19662</ele>
        <time>2023-05-31T14:36:03.000Z</time>
      </trkpt>
      <trkpt lat="46.21004" lon="-1.45517">
        <ele>7.13426</ele>
        <time>2023-05-31T14:36:04.000Z</time>
      </trkpt>
      <trkpt lat="46.21002" lon="-1.45511">
        <ele>7.08412</ele>
        <time>2023-05-31T14:36:05.000Z</time>
      </trkpt>
      <trkpt lat="46.21" lon="-1.45505">
        <ele>7.03414</ele>
        <time>2023-05-31T14:36:06.000Z</time>
      </trkpt>
      <trkpt lat="46.20998" lon="-1.45499">
        <ele>6.9943</ele>
        <time>2023-05-31T14:36:07.000Z</time>
      </trkpt>
      <trkpt lat="46.20996" lon="-1.45492">
        <ele>6.96127</ele>
        <time>2023-05-31T14:36:08.000Z</time>
      </trkpt>
      <trkpt lat="46.20994" lon="-1.45486">
        <ele>6.92106</ele>
        <time>2023-05-31T14:36:09.000Z</time>
      </trkpt>
      <trkpt lat="46.20992" lon="-1.4548">
        <ele>6.88549</ele>
        <time>2023-05-31T14:36:10.000Z</time>
      </trkpt>
      <trkpt lat="46.2099" lon="-1.45474">
        <ele>6.85866</ele>
        <time>2023-05-31T14:36:11.000Z</time>
      </trkpt>
      <trkpt lat="46.20988" lon="-1.45468">
        <ele>6.86008</ele>
        <time>2023-05-31T14:36:12.000Z</time>
      </trkpt>
      <trkpt lat="46.20986" lon="-1.45462">
        <ele>6.85636</ele>
        <time>2023-05-31T14:36:13.000Z</time>
      </trkpt>
      <trkpt lat="46.20984" lon="-1.45456">
        <ele>6.84573</ele>
        <time>2023-05-31T14:36:14.000Z</time>
      </trkpt>
      <trkpt lat="46.20982" lon="-1.4545">
        <ele>6.843</ele>
        <time>2023-05-31T14:36:15.000Z</time>
      </trkpt>
      <trkpt lat="46.2098" lon="-1.45444">
        <ele>6.83863</ele>
        <time>2023-05-31T14:36:16.000Z</time>
      </trkpt>
      <trkpt lat="46.20978" lon="-1.45439">
        <ele>6.83759</ele>
        <time>2023-05-31T14:36:17.000Z</time>
      </trkpt>
      <trkpt lat="46.20975" lon="-1.45433">
        <ele>6.85367</ele>
        <time>2023-05-31T14:36:18.000Z</time>
      </trkpt>
      <trkpt lat="46.20974" lon="-1.45427">
        <ele>6.85925</ele>
        <time>2023-05-31T14:36:19.000Z</time>
      </trkpt>
      <trkpt lat="46.20972" lon="-1.45421">
        <ele>6.89891</ele>
        <time>2023-05-31T14:36:20.000Z</time>
      </trkpt>
      <trkpt lat="46.20971" lon="-1.45415">
        <ele>6.92747</ele>
        <time>2023-05-31T14:36:21.000Z</time>
      </trkpt>
      <trkpt lat="46.20969" lon="-1.45409">
        <ele>6.94876</ele>
        <time>2023-05-31T14:36:22.000Z</time>
      </trkpt>
      <trkpt lat="46.20967" lon="-1.45403">
        <ele>6.93879</ele>
        <time>2023-05-31T14:36:23.000Z</time>
      </trkpt>
      <trkpt lat="46.20966" lon="-1.45397">
        <ele>6.93319</ele>
        <time>2023-05-31T14:36:24.000Z</time>
      </trkpt>
      <trkpt lat="46.20964" lon="-1.45391">
        <ele>6.9508</ele>
        <time>2023-05-31T14:36:25.000Z</time>
      </trkpt>
      <trkpt lat="46.20963" lon="-1.45384">
        <ele>6.98813</ele>
        <time>2023-05-31T14:36:26.000Z</time>
      </trkpt>
      <trkpt lat="46.20961" lon="-1.45377">
        <ele>7.02363</ele>
        <time>2023-05-31T14:36:27.000Z</time>
      </trkpt>
      <trkpt lat="46.20959" lon="-1.45372">
        <ele>7.03663</ele>
        <time>2023-05-31T14:36:28.000Z</time>
      </trkpt>
      <trkpt lat="46.20958" lon="-1.45367">
        <ele>7.05467</ele>
        <time>2023-05-31T14:36:29.000Z</time>
      </trkpt>
      <trkpt lat="46.20956" lon="-1.45361">
        <ele>7.07586</ele>
        <time>2023-05-31T14:36:30.000Z</time>
      </trkpt>
      <trkpt lat="46.20955" lon="-1.45356">
        <ele>7.09025</ele>
        <time>2023-05-31T14:36:31.000Z</time>
      </trkpt>
      <trkpt lat="46.20953" lon="-1.4535">
        <ele>7.10423</ele>
        <time>2023-05-31T14:36:32.000Z</time>
      </trkpt>
      <trkpt lat="46.20952" lon="-1.45345">
        <ele>7.11624</ele>
        <time>2023-05-31T14:36:33.000Z</time>
      </trkpt>
      <trkpt lat="46.2095" lon="-1.45339">
        <ele>7.1246</ele>
        <time>2023-05-31T14:36:34.000Z</time>
      </trkpt>
      <trkpt lat="46.20948" lon="-1.45333">
        <ele>7.13795</ele>
        <time>2023-05-31T14:36:35.000Z</time>
      </trkpt>
      <trkpt lat="46.20946" lon="-1.45328">
        <ele>7.13762</ele>
        <time>2023-05-31T14:36:36.000Z</time>
      </trkpt>
      <trkpt lat="46.20943" lon="-1.45322">
        <ele>7.14955</ele>
        <time>2023-05-31T14:36:37.000Z</time>
      </trkpt>
      <trkpt lat="46.20941" lon="-1.45316">
        <ele>7.17778</ele>
        <time>2023-05-31T14:36:38.000Z</time>
      </trkpt>
      <trkpt lat="46.20939" lon="-1.4531">
        <ele>7.21442</ele>
        <time>2023-05-31T14:36:39.000Z</time>
      </trkpt>
      <trkpt lat="46.20937" lon="-1.45305">
        <ele>7.21433</ele>
        <time>2023-05-31T14:36:40.000Z</time>
      </trkpt>
      <trkpt lat="46.20935" lon="-1.45299">
        <ele>7.21275</ele>
        <time>2023-05-31T14:36:41.000Z</time>
      </trkpt>
      <trkpt lat="46.20933" lon="-1.45294">
        <ele>7.20255</ele>
        <time>2023-05-31T14:36:42.000Z</time>
      </trkpt>
      <trkpt lat="46.20931" lon="-1.45288">
        <ele>7.2225</ele>
        <time>2023-05-31T14:36:43.000Z</time>
      </trkpt>
      <trkpt lat="46.20929" lon="-1.45282">
        <ele>7.23518</ele>
        <time>2023-05-31T14:36:44.000Z</time>
      </trkpt>
      <trkpt lat="46.20927" lon="-1.45276">
        <ele>7.22324</ele>
        <time>2023-05-31T14:36:45.000Z</time>
      </trkpt>
      <trkpt lat="46.20926" lon="-1.4527">
        <ele>7.20494</ele>
        <time>2023-05-31T14:36:46.000Z</time>
      </trkpt>
      <trkpt lat="46.20924" lon="-1.45264">
        <ele>7.18175</ele>
        <time>2023-05-31T14:36:47.000Z</time>
      </trkpt>
      <trkpt lat="46.20922" lon="-1.45259">
        <ele>7.17618</ele>
        <time>2023-05-31T14:36:48.000Z</time>
      </trkpt>
      <trkpt lat="46.2092" lon="-1.45253">
        <ele>7.1709</ele>
        <time>2023-05-31T14:36:49.000Z</time>
      </trkpt>
      <trkpt lat="46.20918" lon="-1.45247">
        <ele>7.17791</ele>
        <time>2023-05-31T14:36:50.000Z</time>
      </trkpt>
      <trkpt lat="46.20916" lon="-1.45241">
        <ele>7.17998</ele>
        <time>2023-05-31T14:36:51.000Z</time>
      </trkpt>
      <trkpt lat="46.20914" lon="-1.45235">
        <ele>7.18193</ele>
        <time>2023-05-31T14:36:52.000Z</time>
      </trkpt>
      <trkpt lat="46.20912" lon="-1.45229">
        <ele>7.19224</ele>
        <time>2023-05-31T14:36:53.000Z</time>
      </trkpt>
      <trkpt lat="46.2091" lon="-1.45223">
        <ele>7.18546</ele>
        <time>2023-05-31T14:36:54.000Z</time>
      </trkpt>
      <trkpt lat="46.20908" lon="-1.45216">
        <ele>7.19982</ele>
        <time>2023-05-31T14:36:55.000Z</time>
      </trkpt>
      <trkpt lat="46.20906" lon="-1.45211">
        <ele>7.20989</ele>
        <time>2023-05-31T14:36:56.000Z</time>
      </trkpt>
      <trkpt lat="46.20904" lon="-1.45205">
        <ele>7.23616</ele>
        <time>2023-05-31T14:36:57.000Z</time>
      </trkpt>
      <trkpt lat="46.20902" lon="-1.45199">
        <ele>7.26988</ele>
        <time>2023-05-31T14:36:58.000Z</time>
      </trkpt>
      <trkpt lat="46.209" lon="-1.45194">
        <ele>7.32406</ele>
        <time>2023-05-31T14:36:59.000Z</time>
      </trkpt>
      <trkpt lat="46.20898" lon="-1.45187">
        <ele>7.39581</ele>
        <time>2023-05-31T14:37:00.000Z</time>
      </trkpt>
      <trkpt lat="46.20896" lon="-1.45182">
        <ele>7.50623</ele>
        <time>2023-05-31T14:37:01.000Z</time>
      </trkpt>
      <trkpt lat="46.20895" lon="-1.45176">
        <ele>7.64344</ele>
        <time>2023-05-31T14:37:02.000Z</time>
      </trkpt>
      <trkpt lat="46.20893" lon="-1.4517">
        <ele>7.76631</ele>
        <time>2023-05-31T14:37:03.000Z</time>
      </trkpt>
      <trkpt lat="46.2089" lon="-1.45164">
        <ele>7.86734</ele>
        <time>2023-05-31T14:37:04.000Z</time>
      </trkpt>
      <trkpt lat="46.20888" lon="-1.45157">
        <ele>7.96928</ele>
        <time>2023-05-31T14:37:05.000Z</time>
      </trkpt>
      <trkpt lat="46.20887" lon="-1.4515">
        <ele>8.06886</ele>
        <time>2023-05-31T14:37:06.000Z</time>
      </trkpt>
      <trkpt lat="46.20885" lon="-1.45144">
        <ele>8.17227</ele>
        <time>2023-05-31T14:37:07.000Z</time>
      </trkpt>
      <trkpt lat="46.20882" lon="-1.45137">
        <ele>8.28514</ele>
        <time>2023-05-31T14:37:08.000Z</time>
      </trkpt>
      <trkpt lat="46.2088" lon="-1.4513">
        <ele>8.39428</ele>
        <time>2023-05-31T14:37:09.000Z</time>
      </trkpt>
      <trkpt lat="46.20877" lon="-1.45123">
        <ele>8.45958</ele>
        <time>2023-05-31T14:37:10.000Z</time>
      </trkpt>
      <trkpt lat="46.20874" lon="-1.45117">
        <ele>8.53203</ele>
        <time>2023-05-31T14:37:11.000Z</time>
      </trkpt>
      <trkpt lat="46.20872" lon="-1.45111">
        <ele>8.57847</ele>
        <time>2023-05-31T14:37:12.000Z</time>
      </trkpt>
      <trkpt lat="46.20869" lon="-1.45104">
        <ele>8.61641</ele>
        <time>2023-05-31T14:37:13.000Z</time>
      </trkpt>
      <trkpt lat="46.20867" lon="-1.45098">
        <ele>8.65036</ele>
        <time>2023-05-31T14:37:14.000Z</time>
      </trkpt>
      <trkpt lat="46.20865" lon="-1.45091">
        <ele>8.68957</ele>
        <time>2023-05-31T14:37:15.000Z</time>
      </trkpt>
      <trkpt lat="46.20863" lon="-1.45085">
        <ele>8.73788</ele>
        <time>2023-05-31T14:37:16.000Z</time>
      </trkpt>
      <trkpt lat="46.20861" lon="-1.45078">
        <ele>8.75801</ele>
        <time>2023-05-31T14:37:17.000Z</time>
      </trkpt>
      <trkpt lat="46.20859" lon="-1.45071">
        <ele>8.77973</ele>
        <time>2023-05-31T14:37:18.000Z</time>
      </trkpt>
      <trkpt lat="46.20857" lon="-1.45064">
        <ele>8.78034</ele>
        <time>2023-05-31T14:37:19.000Z</time>
      </trkpt>
      <trkpt lat="46.20855" lon="-1.45057">
        <ele>8.80289</ele>
        <time>2023-05-31T14:37:20.000Z</time>
      </trkpt>
      <trkpt lat="46.20853" lon="-1.45051">
        <ele>8.82028</ele>
        <time>2023-05-31T14:37:21.000Z</time>
      </trkpt>
      <trkpt lat="46.20852" lon="-1.45046">
        <ele>8.8437</ele>
        <time>2023-05-31T14:37:22.000Z</time>
      </trkpt>
      <trkpt lat="46.2085" lon="-1.4504">
        <ele>8.8711</ele>
        <time>2023-05-31T14:37:23.000Z</time>
      </trkpt>
      <trkpt lat="46.20848" lon="-1.45033">
        <ele>8.92588</ele>
        <time>2023-05-31T14:37:24.000Z</time>
      </trkpt>
      <trkpt lat="46.20847" lon="-1.45027">
        <ele>8.99558</ele>
        <time>2023-05-31T14:37:25.000Z</time>
      </trkpt>
      <trkpt lat="46.20845" lon="-1.45021">
        <ele>9.04353</ele>
        <time>2023-05-31T14:37:26.000Z</time>
      </trkpt>
      <trkpt lat="46.20843" lon="-1.45016">
        <ele>9.0856</ele>
        <time>2023-05-31T14:37:27.000Z</time>
      </trkpt>
      <trkpt lat="46.2084" lon="-1.45011">
        <ele>9.10816</ele>
        <time>2023-05-31T14:37:28.000Z</time>
      </trkpt>
      <trkpt lat="46.20838" lon="-1.45006">
        <ele>9.11594</ele>
        <time>2023-05-31T14:37:29.000Z</time>
      </trkpt>
      <trkpt lat="46.20836" lon="-1.45">
        <ele>9.13459</ele>
        <time>2023-05-31T14:37:30.000Z</time>
      </trkpt>
      <trkpt lat="46.20834" lon="-1.44994">
        <ele>9.15921</ele>
        <time>2023-05-31T14:37:31.000Z</time>
      </trkpt>
      <trkpt lat="46.20832" lon="-1.44987">
        <ele>9.18159</ele>
        <time>2023-05-31T14:37:32.000Z</time>
      </trkpt>
      <trkpt lat="46.2083" lon="-1.44982">
        <ele>9.2014</ele>
        <time>2023-05-31T14:37:33.000Z</time>
      </trkpt>
      <trkpt lat="46.20828" lon="-1.44977">
        <ele>9.22739</ele>
        <time>2023-05-31T14:37:34.000Z</time>
      </trkpt>
      <trkpt lat="46.20826" lon="-1.4497">
        <ele>9.21858</ele>
        <time>2023-05-31T14:37:35.000Z</time>
      </trkpt>
      <trkpt lat="46.20823" lon="-1.44964">
        <ele>9.23901</ele>
        <time>2023-05-31T14:37:36.000Z</time>
      </trkpt>
      <trkpt lat="46.20821" lon="-1.44957">
        <ele>9.25051</ele>
        <time>2023-05-31T14:37:37.000Z</time>
      </trkpt>
      <trkpt lat="46.20819" lon="-1.44952">
        <ele>9.23096</ele>
        <time>2023-05-31T14:37:38.000Z</time>
      </trkpt>
      <trkpt lat="46.20817" lon="-1.44946">
        <ele>9.21365</ele>
        <time>2023-05-31T14:37:39.000Z</time>
      </trkpt>
      <trkpt lat="46.20814" lon="-1.44939">
        <ele>9.17045</ele>
        <time>2023-05-31T14:37:40.000Z</time>
      </trkpt>
      <trkpt lat="46.20812" lon="-1.44933">
        <ele>9.10326</ele>
        <time>2023-05-31T14:37:41.000Z</time>
      </trkpt>
      <trkpt lat="46.2081" lon="-1.44926">
        <ele>9.0015</ele>
        <time>2023-05-31T14:37:42.000Z</time>
      </trkpt>
      <trkpt lat="46.20808" lon="-1.4492">
        <ele>8.8953</ele>
        <time>2023-05-31T14:37:43.000Z</time>
      </trkpt>
      <trkpt lat="46.20807" lon="-1.44914">
        <ele>8.76708</ele>
        <time>2023-05-31T14:37:44.000Z</time>
      </trkpt>
      <trkpt lat="46.20804" lon="-1.44909">
        <ele>8.613</ele>
        <time>2023-05-31T14:37:45.000Z</time>
      </trkpt>
      <trkpt lat="46.20803" lon="-1.44902">
        <ele>8.47015</ele>
        <time>2023-05-31T14:37:46.000Z</time>
      </trkpt>
      <trkpt lat="46.20801" lon="-1.44896">
        <ele>8.32514</ele>
        <time>2023-05-31T14:37:47.000Z</time>
      </trkpt>
      <trkpt lat="46.20799" lon="-1.44891">
        <ele>8.22491</ele>
        <time>2023-05-31T14:37:48.000Z</time>
      </trkpt>
      <trkpt lat="46.20797" lon="-1.44884">
        <ele>8.13376</ele>
        <time>2023-05-31T14:37:49.000Z</time>
      </trkpt>
      <trkpt lat="46.20795" lon="-1.44877">
        <ele>8.07105</ele>
        <time>2023-05-31T14:37:50.000Z</time>
      </trkpt>
      <trkpt lat="46.20793" lon="-1.44871">
        <ele>7.97773</ele>
        <time>2023-05-31T14:37:51.000Z</time>
      </trkpt>
      <trkpt lat="46.20791" lon="-1.44866">
        <ele>7.93176</ele>
        <time>2023-05-31T14:37:52.000Z</time>
      </trkpt>
      <trkpt lat="46.20789" lon="-1.44858">
        <ele>7.90711</ele>
        <time>2023-05-31T14:37:53.000Z</time>
      </trkpt>
      <trkpt lat="46.20787" lon="-1.44851">
        <ele>7.8826</ele>
        <time>2023-05-31T14:37:54.000Z</time>
      </trkpt>
      <trkpt lat="46.20784" lon="-1.44844">
        <ele>7.85819</ele>
        <time>2023-05-31T14:37:55.000Z</time>
      </trkpt>
      <trkpt lat="46.20783" lon="-1.44839">
        <ele>7.80302</ele>
        <time>2023-05-31T14:37:56.000Z</time>
      </trkpt>
      <trkpt lat="46.20781" lon="-1.44832">
        <ele>7.77904</ele>
        <time>2023-05-31T14:37:57.000Z</time>
      </trkpt>
      <trkpt lat="46.20779" lon="-1.44826">
        <ele>7.76585</ele>
        <time>2023-05-31T14:37:58.000Z</time>
      </trkpt>
      <trkpt lat="46.20777" lon="-1.4482">
        <ele>7.75033</ele>
        <time>2023-05-31T14:37:59.000Z</time>
      </trkpt>
      <trkpt lat="46.20775" lon="-1.44813">
        <ele>7.74088</ele>
        <time>2023-05-31T14:38:00.000Z</time>
      </trkpt>
      <trkpt lat="46.20772" lon="-1.44807">
        <ele>7.74898</ele>
        <time>2023-05-31T14:38:01.000Z</time>
      </trkpt>
      <trkpt lat="46.2077" lon="-1.44801">
        <ele>7.75201</ele>
        <time>2023-05-31T14:38:02.000Z</time>
      </trkpt>
      <trkpt lat="46.20768" lon="-1.44794">
        <ele>7.75607</ele>
        <time>2023-05-31T14:38:03.000Z</time>
      </trkpt>
      <trkpt lat="46.20766" lon="-1.44788">
        <ele>7.80292</ele>
        <time>2023-05-31T14:38:04.000Z</time>
      </trkpt>
      <trkpt lat="46.20764" lon="-1.44781">
        <ele>7.86982</ele>
        <time>2023-05-31T14:38:05.000Z</time>
      </trkpt>
      <trkpt lat="46.20762" lon="-1.44775">
        <ele>7.90127</ele>
        <time>2023-05-31T14:38:06.000Z</time>
      </trkpt>
      <trkpt lat="46.2076" lon="-1.44768">
        <ele>7.93824</ele>
        <time>2023-05-31T14:38:07.000Z</time>
      </trkpt>
      <trkpt lat="46.20757" lon="-1.44761">
        <ele>7.96887</ele>
        <time>2023-05-31T14:38:08.000Z</time>
      </trkpt>
      <trkpt lat="46.20755" lon="-1.44755">
        <ele>8.0327</ele>
        <time>2023-05-31T14:38:09.000Z</time>
      </trkpt>
      <trkpt lat="46.20752" lon="-1.44749">
        <ele>8.10077</ele>
        <time>2023-05-31T14:38:10.000Z</time>
      </trkpt>
      <trkpt lat="46.2075" lon="-1.44743">
        <ele>8.18157</ele>
        <time>2023-05-31T14:38:11.000Z</time>
      </trkpt>
      <trkpt lat="46.20748" lon="-1.44736">
        <ele>8.2412</ele>
        <time>2023-05-31T14:38:12.000Z</time>
      </trkpt>
      <trkpt lat="46.20746" lon="-1.44729">
        <ele>8.32358</ele>
        <time>2023-05-31T14:38:13.000Z</time>
      </trkpt>
      <trkpt lat="46.20743" lon="-1.44722">
        <ele>8.39966</ele>
        <time>2023-05-31T14:38:14.000Z</time>
      </trkpt>
      <trkpt lat="46.20742" lon="-1.44716">
        <ele>8.50745</ele>
        <time>2023-05-31T14:38:15.000Z</time>
      </trkpt>
      <trkpt lat="46.2074" lon="-1.4471">
        <ele>8.61613</ele>
        <time>2023-05-31T14:38:16.000Z</time>
      </trkpt>
      <trkpt lat="46.20737" lon="-1.44704">
        <ele>8.67992</ele>
        <time>2023-05-31T14:38:17.000Z</time>
      </trkpt>
      <trkpt lat="46.20735" lon="-1.44697">
        <ele>8.72442</ele>
        <time>2023-05-31T14:38:18.000Z</time>
      </trkpt>
      <trkpt lat="46.20733" lon="-1.44691">
        <ele>8.75519</ele>
        <time>2023-05-31T14:38:19.000Z</time>
      </trkpt>
      <trkpt lat="46.20731" lon="-1.44685">
        <ele>8.76066</ele>
        <time>2023-05-31T14:38:20.000Z</time>
      </trkpt>
      <trkpt lat="46.20729" lon="-1.44678">
        <ele>8.7501</ele>
        <time>2023-05-31T14:38:21.000Z</time>
      </trkpt>
      <trkpt lat="46.20726" lon="-1.44671">
        <ele>8.72029</ele>
        <time>2023-05-31T14:38:22.000Z</time>
      </trkpt>
      <trkpt lat="46.20724" lon="-1.44663">
        <ele>8.66807</ele>
        <time>2023-05-31T14:38:23.000Z</time>
      </trkpt>
      <trkpt lat="46.20721" lon="-1.44655">
        <ele>8.57239</ele>
        <time>2023-05-31T14:38:24.000Z</time>
      </trkpt>
      <trkpt lat="46.20719" lon="-1.44646">
        <ele>8.50387</ele>
        <time>2023-05-31T14:38:25.000Z</time>
      </trkpt>
      <trkpt lat="46.20716" lon="-1.44638">
        <ele>8.49016</ele>
        <time>2023-05-31T14:38:26.000Z</time>
      </trkpt>
      <trkpt lat="46.20714" lon="-1.4463">
        <ele>8.46581</ele>
        <time>2023-05-31T14:38:27.000Z</time>
      </trkpt>
      <trkpt lat="46.20711" lon="-1.44622">
        <ele>8.40429</ele>
        <time>2023-05-31T14:38:28.000Z</time>
      </trkpt>
      <trkpt lat="46.20708" lon="-1.44614">
        <ele>8.32688</ele>
        <time>2023-05-31T14:38:29.000Z</time>
      </trkpt>
      <trkpt lat="46.20706" lon="-1.44606">
        <ele>8.20605</ele>
        <time>2023-05-31T14:38:30.000Z</time>
      </trkpt>
      <trkpt lat="46.20703" lon="-1.44598">
        <ele>8.09699</ele>
        <time>2023-05-31T14:38:31.000Z</time>
      </trkpt>
      <trkpt lat="46.207" lon="-1.4459">
        <ele>7.98443</ele>
        <time>2023-05-31T14:38:32.000Z</time>
      </trkpt>
      <trkpt lat="46.20697" lon="-1.44582">
        <ele>7.84086</ele>
        <time>2023-05-31T14:38:33.000Z</time>
      </trkpt>
      <trkpt lat="46.20695" lon="-1.44574">
        <ele>7.72284</ele>
        <time>2023-05-31T14:38:34.000Z</time>
      </trkpt>
      <trkpt lat="46.20692" lon="-1.44565">
        <ele>7.58912</ele>
        <time>2023-05-31T14:38:35.000Z</time>
      </trkpt>
      <trkpt lat="46.2069" lon="-1.44558">
        <ele>7.44646</ele>
        <time>2023-05-31T14:38:36.000Z</time>
      </trkpt>
      <trkpt lat="46.20687" lon="-1.4455">
        <ele>7.32824</ele>
        <time>2023-05-31T14:38:37.000Z</time>
      </trkpt>
      <trkpt lat="46.20684" lon="-1.44542">
        <ele>7.25527</ele>
        <time>2023-05-31T14:38:38.000Z</time>
      </trkpt>
      <trkpt lat="46.20681" lon="-1.44533">
        <ele>7.20085</ele>
        <time>2023-05-31T14:38:39.000Z</time>
      </trkpt>
      <trkpt lat="46.20678" lon="-1.44526">
        <ele>7.16262</ele>
        <time>2023-05-31T14:38:40.000Z</time>
      </trkpt>
      <trkpt lat="46.20675" lon="-1.44518">
        <ele>7.12965</ele>
        <time>2023-05-31T14:38:41.000Z</time>
      </trkpt>
      <trkpt lat="46.20673" lon="-1.44509">
        <ele>7.1256</ele>
        <time>2023-05-31T14:38:42.000Z</time>
      </trkpt>
      <trkpt lat="46.2067" lon="-1.44501">
        <ele>7.1557</ele>
        <time>2023-05-31T14:38:43.000Z</time>
      </trkpt>
      <trkpt lat="46.20667" lon="-1.44493">
        <ele>7.20448</ele>
        <time>2023-05-31T14:38:44.000Z</time>
      </trkpt>
      <trkpt lat="46.20664" lon="-1.44486">
        <ele>7.23233</ele>
        <time>2023-05-31T14:38:45.000Z</time>
      </trkpt>
      <trkpt lat="46.20661" lon="-1.44478">
        <ele>7.2537</ele>
        <time>2023-05-31T14:38:46.000Z</time>
      </trkpt>
      <trkpt lat="46.20659" lon="-1.4447">
        <ele>7.28625</ele>
        <time>2023-05-31T14:38:47.000Z</time>
      </trkpt>
      <trkpt lat="46.20657" lon="-1.44462">
        <ele>7.28749</ele>
        <time>2023-05-31T14:38:48.000Z</time>
      </trkpt>
      <trkpt lat="46.20654" lon="-1.44455">
        <ele>7.29088</ele>
        <time>2023-05-31T14:38:49.000Z</time>
      </trkpt>
      <trkpt lat="46.20652" lon="-1.44448">
        <ele>7.32618</ele>
        <time>2023-05-31T14:38:50.000Z</time>
      </trkpt>
      <trkpt lat="46.2065" lon="-1.44439">
        <ele>7.36095</ele>
        <time>2023-05-31T14:38:51.000Z</time>
      </trkpt>
      <trkpt lat="46.20648" lon="-1.44433">
        <ele>7.4314</ele>
        <time>2023-05-31T14:38:52.000Z</time>
      </trkpt>
      <trkpt lat="46.20646" lon="-1.44426">
        <ele>7.4976</ele>
        <time>2023-05-31T14:38:53.000Z</time>
      </trkpt>
      <trkpt lat="46.20643" lon="-1.44419">
        <ele>7.55662</ele>
        <time>2023-05-31T14:38:54.000Z</time>
      </trkpt>
      <trkpt lat="46.20641" lon="-1.44412">
        <ele>7.62105</ele>
        <time>2023-05-31T14:38:55.000Z</time>
      </trkpt>
      <trkpt lat="46.20639" lon="-1.44405">
        <ele>7.7164</ele>
        <time>2023-05-31T14:38:56.000Z</time>
      </trkpt>
      <trkpt lat="46.20637" lon="-1.44399">
        <ele>7.82173</ele>
        <time>2023-05-31T14:38:57.000Z</time>
      </trkpt>
      <trkpt lat="46.20636" lon="-1.44392">
        <ele>7.89649</ele>
        <time>2023-05-31T14:38:58.000Z</time>
      </trkpt>
      <trkpt lat="46.20634" lon="-1.44386">
        <ele>7.95219</ele>
        <time>2023-05-31T14:38:59.000Z</time>
      </trkpt>
      <trkpt lat="46.20633" lon="-1.4438">
        <ele>8.0075</ele>
        <time>2023-05-31T14:39:00.000Z</time>
      </trkpt>
      <trkpt lat="46.2063" lon="-1.44374">
        <ele>8.07183</ele>
        <time>2023-05-31T14:39:01.000Z</time>
      </trkpt>
      <trkpt lat="46.20628" lon="-1.44368">
        <ele>8.13988</ele>
        <time>2023-05-31T14:39:02.000Z</time>
      </trkpt>
      <trkpt lat="46.20626" lon="-1.44362">
        <ele>8.17741</ele>
        <time>2023-05-31T14:39:03.000Z</time>
      </trkpt>
      <trkpt lat="46.20623" lon="-1.44356">
        <ele>8.21707</ele>
        <time>2023-05-31T14:39:04.000Z</time>
      </trkpt>
      <trkpt lat="46.20621" lon="-1.44349">
        <ele>8.24585</ele>
        <time>2023-05-31T14:39:05.000Z</time>
      </trkpt>
      <trkpt lat="46.20619" lon="-1.44343">
        <ele>8.25935</ele>
        <time>2023-05-31T14:39:06.000Z</time>
      </trkpt>
      <trkpt lat="46.20618" lon="-1.44337">
        <ele>8.25479</ele>
        <time>2023-05-31T14:39:07.000Z</time>
      </trkpt>
      <trkpt lat="46.20616" lon="-1.4433">
        <ele>8.28597</ele>
        <time>2023-05-31T14:39:08.000Z</time>
      </trkpt>
      <trkpt lat="46.20613" lon="-1.44323">
        <ele>8.29205</ele>
        <time>2023-05-31T14:39:09.000Z</time>
      </trkpt>
      <trkpt lat="46.20611" lon="-1.44317">
        <ele>8.31016</ele>
        <time>2023-05-31T14:39:10.000Z</time>
      </trkpt>
      <trkpt lat="46.20609" lon="-1.4431">
        <ele>8.31871</ele>
        <time>2023-05-31T14:39:11.000Z</time>
      </trkpt>
      <trkpt lat="46.20606" lon="-1.44305">
        <ele>8.28348</ele>
        <time>2023-05-31T14:39:12.000Z</time>
      </trkpt>
      <trkpt lat="46.20604" lon="-1.44298">
        <ele>8.24759</ele>
        <time>2023-05-31T14:39:13.000Z</time>
      </trkpt>
      <trkpt lat="46.20601" lon="-1.44293">
        <ele>8.19041</ele>
        <time>2023-05-31T14:39:14.000Z</time>
      </trkpt>
      <trkpt lat="46.20599" lon="-1.44286">
        <ele>8.12451</ele>
        <time>2023-05-31T14:39:15.000Z</time>
      </trkpt>
      <trkpt lat="46.20597" lon="-1.44279">
        <ele>8.04284</ele>
        <time>2023-05-31T14:39:16.000Z</time>
      </trkpt>
      <trkpt lat="46.20595" lon="-1.44272">
        <ele>7.97092</ele>
        <time>2023-05-31T14:39:17.000Z</time>
      </trkpt>
      <trkpt lat="46.20592" lon="-1.44265">
        <ele>7.90915</ele>
        <time>2023-05-31T14:39:18.000Z</time>
      </trkpt>
      <trkpt lat="46.2059" lon="-1.44259">
        <ele>7.82522</ele>
        <time>2023-05-31T14:39:19.000Z</time>
      </trkpt>
      <trkpt lat="46.20588" lon="-1.44253">
        <ele>7.73616</ele>
        <time>2023-05-31T14:39:20.000Z</time>
      </trkpt>
      <trkpt lat="46.20586" lon="-1.44246">
        <ele>7.6265</ele>
        <time>2023-05-31T14:39:21.000Z</time>
      </trkpt>
      <trkpt lat="46.20583" lon="-1.44239">
        <ele>7.51398</ele>
        <time>2023-05-31T14:39:22.000Z</time>
      </trkpt>
      <trkpt lat="46.20581" lon="-1.44233">
        <ele>7.42278</ele>
        <time>2023-05-31T14:39:23.000Z</time>
      </trkpt>
      <trkpt lat="46.20578" lon="-1.44226">
        <ele>7.31475</ele>
        <time>2023-05-31T14:39:24.000Z</time>
      </trkpt>
      <trkpt lat="46.20575" lon="-1.44218">
        <ele>7.20958</ele>
        <time>2023-05-31T14:39:25.000Z</time>
      </trkpt>
      <trkpt lat="46.20573" lon="-1.44212">
        <ele>7.0966</ele>
        <time>2023-05-31T14:39:26.000Z</time>
      </trkpt>
      <trkpt lat="46.2057" lon="-1.44205">
        <ele>7.00698</ele>
        <time>2023-05-31T14:39:27.000Z</time>
      </trkpt>
      <trkpt lat="46.20568" lon="-1.44198">
        <ele>6.93109</ele>
        <time>2023-05-31T14:39:28.000Z</time>
      </trkpt>
      <trkpt lat="46.20565" lon="-1.44192">
        <ele>6.87213</ele>
        <time>2023-05-31T14:39:29.000Z</time>
      </trkpt>
      <trkpt lat="46.20562" lon="-1.44185">
        <ele>6.82183</ele>
        <time>2023-05-31T14:39:30.000Z</time>
      </trkpt>
      <trkpt lat="46.2056" lon="-1.44178">
        <ele>6.79754</ele>
        <time>2023-05-31T14:39:31.000Z</time>
      </trkpt>
      <trkpt lat="46.20557" lon="-1.4417">
        <ele>6.78607</ele>
        <time>2023-05-31T14:39:32.000Z</time>
      </trkpt>
      <trkpt lat="46.20554" lon="-1.44164">
        <ele>6.77469</ele>
        <time>2023-05-31T14:39:33.000Z</time>
      </trkpt>
      <trkpt lat="46.20551" lon="-1.44157">
        <ele>6.78491</ele>
        <time>2023-05-31T14:39:34.000Z</time>
      </trkpt>
      <trkpt lat="46.20549" lon="-1.44151">
        <ele>6.74263</ele>
        <time>2023-05-31T14:39:35.000Z</time>
      </trkpt>
      <trkpt lat="46.20546" lon="-1.44144">
        <ele>6.70842</ele>
        <time>2023-05-31T14:39:36.000Z</time>
      </trkpt>
      <trkpt lat="46.20544" lon="-1.44138">
        <ele>6.6584</ele>
        <time>2023-05-31T14:39:37.000Z</time>
      </trkpt>
      <trkpt lat="46.20541" lon="-1.44131">
        <ele>6.61739</ele>
        <time>2023-05-31T14:39:38.000Z</time>
      </trkpt>
      <trkpt lat="46.20539" lon="-1.44124">
        <ele>6.60183</ele>
        <time>2023-05-31T14:39:39.000Z</time>
      </trkpt>
      <trkpt lat="46.20536" lon="-1.44117">
        <ele>6.58718</ele>
        <time>2023-05-31T14:39:40.000Z</time>
      </trkpt>
      <trkpt lat="46.20534" lon="-1.44112">
        <ele>6.5763</ele>
        <time>2023-05-31T14:39:41.000Z</time>
      </trkpt>
      <trkpt lat="46.20531" lon="-1.44105">
        <ele>6.57788</ele>
        <time>2023-05-31T14:39:42.000Z</time>
      </trkpt>
      <trkpt lat="46.20529" lon="-1.44099">
        <ele>6.6015</ele>
        <time>2023-05-31T14:39:43.000Z</time>
      </trkpt>
      <trkpt lat="46.20526" lon="-1.44092">
        <ele>6.63124</ele>
        <time>2023-05-31T14:39:44.000Z</time>
      </trkpt>
      <trkpt lat="46.20524" lon="-1.44085">
        <ele>6.68031</ele>
        <time>2023-05-31T14:39:45.000Z</time>
      </trkpt>
      <trkpt lat="46.20522" lon="-1.44079">
        <ele>6.76246</ele>
        <time>2023-05-31T14:39:46.000Z</time>
      </trkpt>
      <trkpt lat="46.20519" lon="-1.44072">
        <ele>6.841</ele>
        <time>2023-05-31T14:39:47.000Z</time>
      </trkpt>
      <trkpt lat="46.20517" lon="-1.44066">
        <ele>6.82109</ele>
        <time>2023-05-31T14:39:48.000Z</time>
      </trkpt>
      <trkpt lat="46.20514" lon="-1.44059">
        <ele>6.78576</ele>
        <time>2023-05-31T14:39:49.000Z</time>
      </trkpt>
      <trkpt lat="46.20511" lon="-1.44054">
        <ele>6.75248</ele>
        <time>2023-05-31T14:39:50.000Z</time>
      </trkpt>
      <trkpt lat="46.20509" lon="-1.44047">
        <ele>6.70421</ele>
        <time>2023-05-31T14:39:51.000Z</time>
      </trkpt>
      <trkpt lat="46.20506" lon="-1.44041">
        <ele>6.66152</ele>
        <time>2023-05-31T14:39:52.000Z</time>
      </trkpt>
      <trkpt lat="46.20504" lon="-1.44034">
        <ele>6.59938</ele>
        <time>2023-05-31T14:39:53.000Z</time>
      </trkpt>
      <trkpt lat="46.20501" lon="-1.44028">
        <ele>6.52937</ele>
        <time>2023-05-31T14:39:54.000Z</time>
      </trkpt>
      <trkpt lat="46.20499" lon="-1.44022">
        <ele>6.46543</ele>
        <time>2023-05-31T14:39:55.000Z</time>
      </trkpt>
      <trkpt lat="46.20496" lon="-1.44016">
        <ele>6.38872</ele>
        <time>2023-05-31T14:39:56.000Z</time>
      </trkpt>
      <trkpt lat="46.20494" lon="-1.4401">
        <ele>6.32255</ele>
        <time>2023-05-31T14:39:57.000Z</time>
      </trkpt>
      <trkpt lat="46.20491" lon="-1.44003">
        <ele>6.24717</ele>
        <time>2023-05-31T14:39:58.000Z</time>
      </trkpt>
      <trkpt lat="46.20488" lon="-1.43996">
        <ele>6.17756</ele>
        <time>2023-05-31T14:39:59.000Z</time>
      </trkpt>
      <trkpt lat="46.20486" lon="-1.43989">
        <ele>6.11057</ele>
        <time>2023-05-31T14:40:00.000Z</time>
      </trkpt>
      <trkpt lat="46.20483" lon="-1.43982">
        <ele>6.04504</ele>
        <time>2023-05-31T14:40:01.000Z</time>
      </trkpt>
      <trkpt lat="46.20481" lon="-1.43976">
        <ele>5.96231</ele>
        <time>2023-05-31T14:40:02.000Z</time>
      </trkpt>
      <trkpt lat="46.20478" lon="-1.43969">
        <ele>5.86787</ele>
        <time>2023-05-31T14:40:03.000Z</time>
      </trkpt>
      <trkpt lat="46.20475" lon="-1.43962">
        <ele>5.77163</ele>
        <time>2023-05-31T14:40:04.000Z</time>
      </trkpt>
      <trkpt lat="46.20472" lon="-1.43956">
        <ele>5.62576</ele>
        <time>2023-05-31T14:40:05.000Z</time>
      </trkpt>
      <trkpt lat="46.20469" lon="-1.43949">
        <ele>5.48455</ele>
        <time>2023-05-31T14:40:06.000Z</time>
      </trkpt>
      <trkpt lat="46.20466" lon="-1.43943">
        <ele>5.33439</ele>
        <time>2023-05-31T14:40:07.000Z</time>
      </trkpt>
      <trkpt lat="46.20464" lon="-1.43937">
        <ele>5.25744</ele>
        <time>2023-05-31T14:40:08.000Z</time>
      </trkpt>
      <trkpt lat="46.20462" lon="-1.4393">
        <ele>5.18854</ele>
        <time>2023-05-31T14:40:09.000Z</time>
      </trkpt>
      <trkpt lat="46.20459" lon="-1.43923">
        <ele>5.1069</ele>
        <time>2023-05-31T14:40:10.000Z</time>
      </trkpt>
      <trkpt lat="46.20457" lon="-1.43917">
        <ele>5.01902</ele>
        <time>2023-05-31T14:40:11.000Z</time>
      </trkpt>
      <trkpt lat="46.20454" lon="-1.4391">
        <ele>4.92424</ele>
        <time>2023-05-31T14:40:12.000Z</time>
      </trkpt>
      <trkpt lat="46.20451" lon="-1.43904">
        <ele>4.84521</ele>
        <time>2023-05-31T14:40:13.000Z</time>
      </trkpt>
      <trkpt lat="46.20448" lon="-1.43898">
        <ele>4.78195</ele>
        <time>2023-05-31T14:40:14.000Z</time>
      </trkpt>
      <trkpt lat="46.20445" lon="-1.43892">
        <ele>4.75002</ele>
        <time>2023-05-31T14:40:15.000Z</time>
      </trkpt>
      <trkpt lat="46.20443" lon="-1.43885">
        <ele>4.71439</ele>
        <time>2023-05-31T14:40:16.000Z</time>
      </trkpt>
      <trkpt lat="46.2044" lon="-1.43878">
        <ele>4.64557</ele>
        <time>2023-05-31T14:40:17.000Z</time>
      </trkpt>
      <trkpt lat="46.20437" lon="-1.43871">
        <ele>4.563</ele>
        <time>2023-05-31T14:40:18.000Z</time>
      </trkpt>
      <trkpt lat="46.20434" lon="-1.43865">
        <ele>4.48023</ele>
        <time>2023-05-31T14:40:19.000Z</time>
      </trkpt>
      <trkpt lat="46.20432" lon="-1.43858">
        <ele>4.41154</ele>
        <time>2023-05-31T14:40:20.000Z</time>
      </trkpt>
      <trkpt lat="46.20429" lon="-1.43851">
        <ele>4.36575</ele>
        <time>2023-05-31T14:40:21.000Z</time>
      </trkpt>
      <trkpt lat="46.20426" lon="-1.43845">
        <ele>4.33495</ele>
        <time>2023-05-31T14:40:22.000Z</time>
      </trkpt>
      <trkpt lat="46.20424" lon="-1.43838">
        <ele>4.2972</ele>
        <time>2023-05-31T14:40:23.000Z</time>
      </trkpt>
      <trkpt lat="46.20421" lon="-1.43832">
        <ele>4.25171</ele>
        <time>2023-05-31T14:40:24.000Z</time>
      </trkpt>
      <trkpt lat="46.20418" lon="-1.43825">
        <ele>4.24319</ele>
        <time>2023-05-31T14:40:25.000Z</time>
      </trkpt>
      <trkpt lat="46.20416" lon="-1.43818">
        <ele>4.22891</ele>
        <time>2023-05-31T14:40:26.000Z</time>
      </trkpt>
      <trkpt lat="46.20413" lon="-1.43812">
        <ele>4.22301</ele>
        <time>2023-05-31T14:40:27.000Z</time>
      </trkpt>
      <trkpt lat="46.20411" lon="-1.43805">
        <ele>4.23441</ele>
        <time>2023-05-31T14:40:28.000Z</time>
      </trkpt>
      <trkpt lat="46.20408" lon="-1.43798">
        <ele>4.24339</ele>
        <time>2023-05-31T14:40:29.000Z</time>
      </trkpt>
      <trkpt lat="46.20406" lon="-1.43791">
        <ele>4.2638</ele>
        <time>2023-05-31T14:40:30.000Z</time>
      </trkpt>
      <trkpt lat="46.20403" lon="-1.43785">
        <ele>4.28132</ele>
        <time>2023-05-31T14:40:31.000Z</time>
      </trkpt>
      <trkpt lat="46.20401" lon="-1.43778">
        <ele>4.29973</ele>
        <time>2023-05-31T14:40:32.000Z</time>
      </trkpt>
      <trkpt lat="46.20398" lon="-1.43771">
        <ele>4.32426</ele>
        <time>2023-05-31T14:40:33.000Z</time>
      </trkpt>
      <trkpt lat="46.20395" lon="-1.43765">
        <ele>4.34595</ele>
        <time>2023-05-31T14:40:34.000Z</time>
      </trkpt>
      <trkpt lat="46.20392" lon="-1.43758">
        <ele>4.38279</ele>
        <time>2023-05-31T14:40:35.000Z</time>
      </trkpt>
      <trkpt lat="46.2039" lon="-1.43752">
        <ele>4.42861</ele>
        <time>2023-05-31T14:40:36.000Z</time>
      </trkpt>
      <trkpt lat="46.20387" lon="-1.43746">
        <ele>4.51212</ele>
        <time>2023-05-31T14:40:37.000Z</time>
      </trkpt>
      <trkpt lat="46.20385" lon="-1.4374">
        <ele>4.60361</ele>
        <time>2023-05-31T14:40:38.000Z</time>
      </trkpt>
      <trkpt lat="46.20382" lon="-1.43733">
        <ele>4.70848</ele>
        <time>2023-05-31T14:40:39.000Z</time>
      </trkpt>
      <trkpt lat="46.20379" lon="-1.43726">
        <ele>4.80618</ele>
        <time>2023-05-31T14:40:40.000Z</time>
      </trkpt>
      <trkpt lat="46.20376" lon="-1.43719">
        <ele>4.8805</ele>
        <time>2023-05-31T14:40:41.000Z</time>
      </trkpt>
      <trkpt lat="46.20374" lon="-1.43712">
        <ele>4.95817</ele>
        <time>2023-05-31T14:40:42.000Z</time>
      </trkpt>
      <trkpt lat="46.20371" lon="-1.43706">
        <ele>5.04125</ele>
        <time>2023-05-31T14:40:43.000Z</time>
      </trkpt>
      <trkpt lat="46.20369" lon="-1.437">
        <ele>5.12506</ele>
        <time>2023-05-31T14:40:44.000Z</time>
      </trkpt>
      <trkpt lat="46.20366" lon="-1.43694">
        <ele>5.19599</ele>
        <time>2023-05-31T14:40:45.000Z</time>
      </trkpt>
      <trkpt lat="46.20364" lon="-1.43687">
        <ele>5.24706</ele>
        <time>2023-05-31T14:40:46.000Z</time>
      </trkpt>
      <trkpt lat="46.20362" lon="-1.43681">
        <ele>5.3051</ele>
        <time>2023-05-31T14:40:47.000Z</time>
      </trkpt>
      <trkpt lat="46.20359" lon="-1.43676">
        <ele>5.35552</ele>
        <time>2023-05-31T14:40:48.000Z</time>
      </trkpt>
      <trkpt lat="46.20357" lon="-1.4367">
        <ele>5.4289</ele>
        <time>2023-05-31T14:40:49.000Z</time>
      </trkpt>
      <trkpt lat="46.20355" lon="-1.43663">
        <ele>5.45941</ele>
        <time>2023-05-31T14:40:50.000Z</time>
      </trkpt>
      <trkpt lat="46.20353" lon="-1.43657">
        <ele>5.52954</ele>
        <time>2023-05-31T14:40:51.000Z</time>
      </trkpt>
      <trkpt lat="46.2035" lon="-1.43651">
        <ele>5.59966</ele>
        <time>2023-05-31T14:40:52.000Z</time>
      </trkpt>
      <trkpt lat="46.20348" lon="-1.43645">
        <ele>5.65627</ele>
        <time>2023-05-31T14:40:53.000Z</time>
      </trkpt>
      <trkpt lat="46.20345" lon="-1.43638">
        <ele>5.70734</ele>
        <time>2023-05-31T14:40:54.000Z</time>
      </trkpt>
      <trkpt lat="46.20343" lon="-1.43632">
        <ele>5.73643</ele>
        <time>2023-05-31T14:40:55.000Z</time>
      </trkpt>
      <trkpt lat="46.20341" lon="-1.43625">
        <ele>5.76561</ele>
        <time>2023-05-31T14:40:56.000Z</time>
      </trkpt>
      <trkpt lat="46.20338" lon="-1.43619">
        <ele>5.76692</ele>
        <time>2023-05-31T14:40:57.000Z</time>
      </trkpt>
      <trkpt lat="46.20335" lon="-1.43613">
        <ele>5.77128</ele>
        <time>2023-05-31T14:40:58.000Z</time>
      </trkpt>
      <trkpt lat="46.20333" lon="-1.43606">
        <ele>5.75568</ele>
        <time>2023-05-31T14:40:59.000Z</time>
      </trkpt>
      <trkpt lat="46.2033" lon="-1.43601">
        <ele>5.73095</ele>
        <time>2023-05-31T14:41:00.000Z</time>
      </trkpt>
      <trkpt lat="46.20328" lon="-1.43594">
        <ele>5.66922</ele>
        <time>2023-05-31T14:41:01.000Z</time>
      </trkpt>
      <trkpt lat="46.20325" lon="-1.43588">
        <ele>5.59722</ele>
        <time>2023-05-31T14:41:02.000Z</time>
      </trkpt>
      <trkpt lat="46.20323" lon="-1.43582">
        <ele>5.53309</ele>
        <time>2023-05-31T14:41:03.000Z</time>
      </trkpt>
      <trkpt lat="46.2032" lon="-1.43576">
        <ele>5.47281</ele>
        <time>2023-05-31T14:41:04.000Z</time>
      </trkpt>
      <trkpt lat="46.20317" lon="-1.4357">
        <ele>5.41276</ele>
        <time>2023-05-31T14:41:05.000Z</time>
      </trkpt>
      <trkpt lat="46.20314" lon="-1.43563">
        <ele>5.35638</ele>
        <time>2023-05-31T14:41:06.000Z</time>
      </trkpt>
      <trkpt lat="46.20312" lon="-1.43557">
        <ele>5.27617</ele>
        <time>2023-05-31T14:41:07.000Z</time>
      </trkpt>
      <trkpt lat="46.2031" lon="-1.43551">
        <ele>5.21544</ele>
        <time>2023-05-31T14:41:08.000Z</time>
      </trkpt>
      <trkpt lat="46.20307" lon="-1.43544">
        <ele>5.1333</ele>
        <time>2023-05-31T14:41:09.000Z</time>
      </trkpt>
      <trkpt lat="46.20304" lon="-1.43538">
        <ele>5.09062</ele>
        <time>2023-05-31T14:41:10.000Z</time>
      </trkpt>
      <trkpt lat="46.20302" lon="-1.43532">
        <ele>4.99636</ele>
        <time>2023-05-31T14:41:11.000Z</time>
      </trkpt>
      <trkpt lat="46.20299" lon="-1.43526">
        <ele>4.88709</ele>
        <time>2023-05-31T14:41:12.000Z</time>
      </trkpt>
      <trkpt lat="46.20296" lon="-1.43519">
        <ele>4.78159</ele>
        <time>2023-05-31T14:41:13.000Z</time>
      </trkpt>
      <trkpt lat="46.20294" lon="-1.43512">
        <ele>4.69158</ele>
        <time>2023-05-31T14:41:14.000Z</time>
      </trkpt>
      <trkpt lat="46.20291" lon="-1.43505">
        <ele>4.637</ele>
        <time>2023-05-31T14:41:15.000Z</time>
      </trkpt>
      <trkpt lat="46.20289" lon="-1.43499">
        <ele>4.59242</ele>
        <time>2023-05-31T14:41:16.000Z</time>
      </trkpt>
      <trkpt lat="46.20287" lon="-1.43493">
        <ele>4.54979</ele>
        <time>2023-05-31T14:41:17.000Z</time>
      </trkpt>
      <trkpt lat="46.20284" lon="-1.43487">
        <ele>4.51046</ele>
        <time>2023-05-31T14:41:18.000Z</time>
      </trkpt>
      <trkpt lat="46.20282" lon="-1.4348">
        <ele>4.45164</ele>
        <time>2023-05-31T14:41:19.000Z</time>
      </trkpt>
      <trkpt lat="46.2028" lon="-1.43474">
        <ele>4.37637</ele>
        <time>2023-05-31T14:41:20.000Z</time>
      </trkpt>
      <trkpt lat="46.20276" lon="-1.43467">
        <ele>4.30543</ele>
        <time>2023-05-31T14:41:21.000Z</time>
      </trkpt>
      <trkpt lat="46.20274" lon="-1.43461">
        <ele>4.23612</ele>
        <time>2023-05-31T14:41:22.000Z</time>
      </trkpt>
      <trkpt lat="46.20272" lon="-1.43454">
        <ele>4.17265</ele>
        <time>2023-05-31T14:41:23.000Z</time>
      </trkpt>
      <trkpt lat="46.20269" lon="-1.43448">
        <ele>4.1108</ele>
        <time>2023-05-31T14:41:24.000Z</time>
      </trkpt>
      <trkpt lat="46.20267" lon="-1.43441">
        <ele>4.03653</ele>
        <time>2023-05-31T14:41:25.000Z</time>
      </trkpt>
      <trkpt lat="46.20265" lon="-1.43435">
        <ele>3.97034</ele>
        <time>2023-05-31T14:41:26.000Z</time>
      </trkpt>
      <trkpt lat="46.20262" lon="-1.43428">
        <ele>3.93715</ele>
        <time>2023-05-31T14:41:27.000Z</time>
      </trkpt>
      <trkpt lat="46.20259" lon="-1.43422">
        <ele>3.90808</ele>
        <time>2023-05-31T14:41:28.000Z</time>
      </trkpt>
      <trkpt lat="46.20257" lon="-1.43415">
        <ele>3.87848</ele>
        <time>2023-05-31T14:41:29.000Z</time>
      </trkpt>
      <trkpt lat="46.20254" lon="-1.43409">
        <ele>3.84235</ele>
        <time>2023-05-31T14:41:30.000Z</time>
      </trkpt>
      <trkpt lat="46.20252" lon="-1.43404">
        <ele>3.82294</ele>
        <time>2023-05-31T14:41:31.000Z</time>
      </trkpt>
      <trkpt lat="46.20249" lon="-1.43397">
        <ele>3.82771</ele>
        <time>2023-05-31T14:41:32.000Z</time>
      </trkpt>
      <trkpt lat="46.20247" lon="-1.43391">
        <ele>3.83248</ele>
        <time>2023-05-31T14:41:33.000Z</time>
      </trkpt>
      <trkpt lat="46.20244" lon="-1.43385">
        <ele>3.84431</ele>
        <time>2023-05-31T14:41:34.000Z</time>
      </trkpt>
      <trkpt lat="46.20242" lon="-1.43378">
        <ele>3.84272</ele>
        <time>2023-05-31T14:41:35.000Z</time>
      </trkpt>
      <trkpt lat="46.20239" lon="-1.43372">
        <ele>3.83912</ele>
        <time>2023-05-31T14:41:36.000Z</time>
      </trkpt>
      <trkpt lat="46.20237" lon="-1.43365">
        <ele>3.84748</ele>
        <time>2023-05-31T14:41:37.000Z</time>
      </trkpt>
      <trkpt lat="46.20234" lon="-1.43359">
        <ele>3.85758</ele>
        <time>2023-05-31T14:41:38.000Z</time>
      </trkpt>
      <trkpt lat="46.20231" lon="-1.43352">
        <ele>3.88292</ele>
        <time>2023-05-31T14:41:39.000Z</time>
      </trkpt>
      <trkpt lat="46.20229" lon="-1.43346">
        <ele>3.93293</ele>
        <time>2023-05-31T14:41:40.000Z</time>
      </trkpt>
      <trkpt lat="46.20226" lon="-1.4334">
        <ele>4.0155</ele>
        <time>2023-05-31T14:41:41.000Z</time>
      </trkpt>
      <trkpt lat="46.20223" lon="-1.43333">
        <ele>4.11553</ele>
        <time>2023-05-31T14:41:42.000Z</time>
      </trkpt>
      <trkpt lat="46.20221" lon="-1.43327">
        <ele>4.18844</ele>
        <time>2023-05-31T14:41:43.000Z</time>
      </trkpt>
      <trkpt lat="46.20218" lon="-1.43321">
        <ele>4.24919</ele>
        <time>2023-05-31T14:41:44.000Z</time>
      </trkpt>
      <trkpt lat="46.20216" lon="-1.43315">
        <ele>4.32556</ele>
        <time>2023-05-31T14:41:45.000Z</time>
      </trkpt>
      <trkpt lat="46.20213" lon="-1.43309">
        <ele>4.38986</ele>
        <time>2023-05-31T14:41:46.000Z</time>
      </trkpt>
      <trkpt lat="46.20211" lon="-1.43303">
        <ele>4.45089</ele>
        <time>2023-05-31T14:41:47.000Z</time>
      </trkpt>
      <trkpt lat="46.20208" lon="-1.43296">
        <ele>4.50489</ele>
        <time>2023-05-31T14:41:48.000Z</time>
      </trkpt>
      <trkpt lat="46.20206" lon="-1.43289">
        <ele>4.56195</ele>
        <time>2023-05-31T14:41:49.000Z</time>
      </trkpt>
      <trkpt lat="46.20203" lon="-1.43282">
        <ele>4.62079</ele>
        <time>2023-05-31T14:41:50.000Z</time>
      </trkpt>
      <trkpt lat="46.202" lon="-1.43276">
        <ele>4.68363</ele>
        <time>2023-05-31T14:41:51.000Z</time>
      </trkpt>
      <trkpt lat="46.20197" lon="-1.43269">
        <ele>4.73052</ele>
        <time>2023-05-31T14:41:52.000Z</time>
      </trkpt>
      <trkpt lat="46.20195" lon="-1.43263">
        <ele>4.77447</ele>
        <time>2023-05-31T14:41:53.000Z</time>
      </trkpt>
      <trkpt lat="46.20193" lon="-1.43257">
        <ele>4.79516</ele>
        <time>2023-05-31T14:41:54.000Z</time>
      </trkpt>
      <trkpt lat="46.2019" lon="-1.43251">
        <ele>4.81397</ele>
        <time>2023-05-31T14:41:55.000Z</time>
      </trkpt>
      <trkpt lat="46.20187" lon="-1.43245">
        <ele>4.79521</ele>
        <time>2023-05-31T14:41:56.000Z</time>
      </trkpt>
      <trkpt lat="46.20185" lon="-1.43239">
        <ele>4.77166</ele>
        <time>2023-05-31T14:41:57.000Z</time>
      </trkpt>
      <trkpt lat="46.20182" lon="-1.43232">
        <ele>4.74505</ele>
        <time>2023-05-31T14:41:58.000Z</time>
      </trkpt>
      <trkpt lat="46.2018" lon="-1.43225">
        <ele>4.72909</ele>
        <time>2023-05-31T14:41:59.000Z</time>
      </trkpt>
      <trkpt lat="46.20178" lon="-1.43219">
        <ele>4.69614</ele>
        <time>2023-05-31T14:42:00.000Z</time>
      </trkpt>
      <trkpt lat="46.20175" lon="-1.43213">
        <ele>4.65646</ele>
        <time>2023-05-31T14:42:01.000Z</time>
      </trkpt>
      <trkpt lat="46.20172" lon="-1.43207">
        <ele>4.61219</ele>
        <time>2023-05-31T14:42:02.000Z</time>
      </trkpt>
      <trkpt lat="46.2017" lon="-1.43199">
        <ele>4.59388</ele>
        <time>2023-05-31T14:42:03.000Z</time>
      </trkpt>
      <trkpt lat="46.20167" lon="-1.43191">
        <ele>4.61309</ele>
        <time>2023-05-31T14:42:04.000Z</time>
      </trkpt>
      <trkpt lat="46.20164" lon="-1.43184">
        <ele>4.6344</ele>
        <time>2023-05-31T14:42:05.000Z</time>
      </trkpt>
      <trkpt lat="46.20161" lon="-1.43178">
        <ele>4.65452</ele>
        <time>2023-05-31T14:42:06.000Z</time>
      </trkpt>
      <trkpt lat="46.20157" lon="-1.43172">
        <ele>4.64616</ele>
        <time>2023-05-31T14:42:07.000Z</time>
      </trkpt>
      <trkpt lat="46.20154" lon="-1.43164">
        <ele>4.63123</ele>
        <time>2023-05-31T14:42:08.000Z</time>
      </trkpt>
      <trkpt lat="46.20151" lon="-1.43157">
        <ele>4.61997</ele>
        <time>2023-05-31T14:42:09.000Z</time>
      </trkpt>
      <trkpt lat="46.20149" lon="-1.4315">
        <ele>4.58655</ele>
        <time>2023-05-31T14:42:10.000Z</time>
      </trkpt>
      <trkpt lat="46.20146" lon="-1.43143">
        <ele>4.55898</ele>
        <time>2023-05-31T14:42:11.000Z</time>
      </trkpt>
      <trkpt lat="46.20144" lon="-1.43135">
        <ele>4.5341</ele>
        <time>2023-05-31T14:42:12.000Z</time>
      </trkpt>
      <trkpt lat="46.20142" lon="-1.43128">
        <ele>4.52157</ele>
        <time>2023-05-31T14:42:13.000Z</time>
      </trkpt>
      <trkpt lat="46.20139" lon="-1.43122">
        <ele>4.50531</ele>
        <time>2023-05-31T14:42:14.000Z</time>
      </trkpt>
      <trkpt lat="46.20136" lon="-1.43115">
        <ele>4.50375</ele>
        <time>2023-05-31T14:42:15.000Z</time>
      </trkpt>
      <trkpt lat="46.20133" lon="-1.43108">
        <ele>4.51281</ele>
        <time>2023-05-31T14:42:16.000Z</time>
      </trkpt>
      <trkpt lat="46.2013" lon="-1.43102">
        <ele>4.53421</ele>
        <time>2023-05-31T14:42:17.000Z</time>
      </trkpt>
      <trkpt lat="46.20128" lon="-1.43095">
        <ele>4.55502</ele>
        <time>2023-05-31T14:42:18.000Z</time>
      </trkpt>
      <trkpt lat="46.20125" lon="-1.43089">
        <ele>4.53277</ele>
        <time>2023-05-31T14:42:19.000Z</time>
      </trkpt>
      <trkpt lat="46.20124" lon="-1.43082">
        <ele>4.50243</ele>
        <time>2023-05-31T14:42:20.000Z</time>
      </trkpt>
      <trkpt lat="46.20121" lon="-1.43075">
        <ele>4.52146</ele>
        <time>2023-05-31T14:42:21.000Z</time>
      </trkpt>
      <trkpt lat="46.20119" lon="-1.43069">
        <ele>4.52819</ele>
        <time>2023-05-31T14:42:22.000Z</time>
      </trkpt>
      <trkpt lat="46.20116" lon="-1.43063">
        <ele>4.50977</ele>
        <time>2023-05-31T14:42:23.000Z</time>
      </trkpt>
      <trkpt lat="46.20114" lon="-1.43057">
        <ele>4.47294</ele>
        <time>2023-05-31T14:42:24.000Z</time>
      </trkpt>
      <trkpt lat="46.20111" lon="-1.4305">
        <ele>4.42373</ele>
        <time>2023-05-31T14:42:25.000Z</time>
      </trkpt>
      <trkpt lat="46.20109" lon="-1.43045">
        <ele>4.39173</ele>
        <time>2023-05-31T14:42:26.000Z</time>
      </trkpt>
      <trkpt lat="46.20107" lon="-1.43039">
        <ele>4.36886</ele>
        <time>2023-05-31T14:42:27.000Z</time>
      </trkpt>
      <trkpt lat="46.20105" lon="-1.43033">
        <ele>4.33459</ele>
        <time>2023-05-31T14:42:28.000Z</time>
      </trkpt>
      <trkpt lat="46.20102" lon="-1.43027">
        <ele>4.31267</ele>
        <time>2023-05-31T14:42:29.000Z</time>
      </trkpt>
      <trkpt lat="46.201" lon="-1.43022">
        <ele>4.31102</ele>
        <time>2023-05-31T14:42:30.000Z</time>
      </trkpt>
      <trkpt lat="46.20098" lon="-1.43015">
        <ele>4.31034</ele>
        <time>2023-05-31T14:42:31.000Z</time>
      </trkpt>
      <trkpt lat="46.20095" lon="-1.43009">
        <ele>4.30439</ele>
        <time>2023-05-31T14:42:32.000Z</time>
      </trkpt>
      <trkpt lat="46.20093" lon="-1.43004">
        <ele>4.2768</ele>
        <time>2023-05-31T14:42:33.000Z</time>
      </trkpt>
      <trkpt lat="46.2009" lon="-1.42997">
        <ele>4.26301</ele>
        <time>2023-05-31T14:42:34.000Z</time>
      </trkpt>
      <trkpt lat="46.20087" lon="-1.42991">
        <ele>4.24538</ele>
        <time>2023-05-31T14:42:35.000Z</time>
      </trkpt>
      <trkpt lat="46.20084" lon="-1.42984">
        <ele>4.25222</ele>
        <time>2023-05-31T14:42:36.000Z</time>
      </trkpt>
      <trkpt lat="46.20082" lon="-1.42977">
        <ele>4.24783</ele>
        <time>2023-05-31T14:42:37.000Z</time>
      </trkpt>
      <trkpt lat="46.20079" lon="-1.4297">
        <ele>4.24503</ele>
        <time>2023-05-31T14:42:38.000Z</time>
      </trkpt>
      <trkpt lat="46.20076" lon="-1.42964">
        <ele>4.30038</ele>
        <time>2023-05-31T14:42:39.000Z</time>
      </trkpt>
      <trkpt lat="46.20073" lon="-1.42958">
        <ele>4.36573</ele>
        <time>2023-05-31T14:42:40.000Z</time>
      </trkpt>
      <trkpt lat="46.20071" lon="-1.42951">
        <ele>4.36367</ele>
        <time>2023-05-31T14:42:41.000Z</time>
      </trkpt>
      <trkpt lat="46.20069" lon="-1.42944">
        <ele>4.38038</ele>
        <time>2023-05-31T14:42:42.000Z</time>
      </trkpt>
      <trkpt lat="46.20067" lon="-1.42937">
        <ele>4.40519</ele>
        <time>2023-05-31T14:42:43.000Z</time>
      </trkpt>
      <trkpt lat="46.20064" lon="-1.4293">
        <ele>4.40793</ele>
        <time>2023-05-31T14:42:44.000Z</time>
      </trkpt>
      <trkpt lat="46.20061" lon="-1.42924">
        <ele>4.40867</ele>
        <time>2023-05-31T14:42:45.000Z</time>
      </trkpt>
      <trkpt lat="46.20059" lon="-1.42918">
        <ele>4.4316</ele>
        <time>2023-05-31T14:42:46.000Z</time>
      </trkpt>
      <trkpt lat="46.20057" lon="-1.42911">
        <ele>4.44937</ele>
        <time>2023-05-31T14:42:47.000Z</time>
      </trkpt>
      <trkpt lat="46.20054" lon="-1.42904">
        <ele>4.47821</ele>
        <time>2023-05-31T14:42:48.000Z</time>
      </trkpt>
      <trkpt lat="46.20051" lon="-1.42898">
        <ele>4.49832</ele>
        <time>2023-05-31T14:42:49.000Z</time>
      </trkpt>
      <trkpt lat="46.20048" lon="-1.42891">
        <ele>4.50123</ele>
        <time>2023-05-31T14:42:50.000Z</time>
      </trkpt>
      <trkpt lat="46.20045" lon="-1.42885">
        <ele>4.46716</ele>
        <time>2023-05-31T14:42:51.000Z</time>
      </trkpt>
      <trkpt lat="46.20043" lon="-1.42879">
        <ele>4.44631</ele>
        <time>2023-05-31T14:42:52.000Z</time>
      </trkpt>
      <trkpt lat="46.20041" lon="-1.42872">
        <ele>4.47019</ele>
        <time>2023-05-31T14:42:53.000Z</time>
      </trkpt>
      <trkpt lat="46.20038" lon="-1.42865">
        <ele>4.4851</ele>
        <time>2023-05-31T14:42:54.000Z</time>
      </trkpt>
      <trkpt lat="46.20036" lon="-1.42859">
        <ele>4.48352</ele>
        <time>2023-05-31T14:42:55.000Z</time>
      </trkpt>
      <trkpt lat="46.20033" lon="-1.42853">
        <ele>4.45979</ele>
        <time>2023-05-31T14:42:56.000Z</time>
      </trkpt>
      <trkpt lat="46.2003" lon="-1.42846">
        <ele>4.45353</ele>
        <time>2023-05-31T14:42:57.000Z</time>
      </trkpt>
      <trkpt lat="46.20028" lon="-1.4284">
        <ele>4.43982</ele>
        <time>2023-05-31T14:42:58.000Z</time>
      </trkpt>
      <trkpt lat="46.20026" lon="-1.42834">
        <ele>4.41002</ele>
        <time>2023-05-31T14:42:59.000Z</time>
      </trkpt>
      <trkpt lat="46.20023" lon="-1.42828">
        <ele>4.40098</ele>
        <time>2023-05-31T14:43:00.000Z</time>
      </trkpt>
      <trkpt lat="46.2002" lon="-1.42822">
        <ele>4.41253</ele>
        <time>2023-05-31T14:43:01.000Z</time>
      </trkpt>
      <trkpt lat="46.20017" lon="-1.42816">
        <ele>4.38748</ele>
        <time>2023-05-31T14:43:02.000Z</time>
      </trkpt>
      <trkpt lat="46.20015" lon="-1.4281">
        <ele>4.3708</ele>
        <time>2023-05-31T14:43:03.000Z</time>
      </trkpt>
      <trkpt lat="46.20012" lon="-1.42803">
        <ele>4.37385</ele>
        <time>2023-05-31T14:43:04.000Z</time>
      </trkpt>
      <trkpt lat="46.2001" lon="-1.42796">
        <ele>4.39428</ele>
        <time>2023-05-31T14:43:05.000Z</time>
      </trkpt>
      <trkpt lat="46.20008" lon="-1.4279">
        <ele>4.38227</ele>
        <time>2023-05-31T14:43:06.000Z</time>
      </trkpt>
      <trkpt lat="46.20005" lon="-1.42784">
        <ele>4.35342</ele>
        <time>2023-05-31T14:43:07.000Z</time>
      </trkpt>
      <trkpt lat="46.20003" lon="-1.42779">
        <ele>4.31686</ele>
        <time>2023-05-31T14:43:08.000Z</time>
      </trkpt>
      <trkpt lat="46.2" lon="-1.42774">
        <ele>4.26266</ele>
        <time>2023-05-31T14:43:09.000Z</time>
      </trkpt>
      <trkpt lat="46.19998" lon="-1.4277">
        <ele>4.17814</ele>
        <time>2023-05-31T14:43:10.000Z</time>
      </trkpt>
      <trkpt lat="46.19997" lon="-1.42764">
        <ele>4.14527</ele>
        <time>2023-05-31T14:43:11.000Z</time>
      </trkpt>
      <trkpt lat="46.19995" lon="-1.42759">
        <ele>4.11618</ele>
        <time>2023-05-31T14:43:12.000Z</time>
      </trkpt>
      <trkpt lat="46.19994" lon="-1.42754">
        <ele>4.07212</ele>
        <time>2023-05-31T14:43:13.000Z</time>
      </trkpt>
      <trkpt lat="46.19992" lon="-1.4275">
        <ele>4.02432</ele>
        <time>2023-05-31T14:43:14.000Z</time>
      </trkpt>
      <trkpt lat="46.1999" lon="-1.42745">
        <ele>3.98864</ele>
        <time>2023-05-31T14:43:15.000Z</time>
      </trkpt>
      <trkpt lat="46.19986" lon="-1.42743">
        <ele>3.95547</ele>
        <time>2023-05-31T14:43:16.000Z</time>
      </trkpt>
      <trkpt lat="46.19983" lon="-1.42741">
        <ele>3.93916</ele>
        <time>2023-05-31T14:43:17.000Z</time>
      </trkpt>
      <trkpt lat="46.1998" lon="-1.4274">
        <ele>3.89748</ele>
        <time>2023-05-31T14:43:18.000Z</time>
      </trkpt>
      <trkpt lat="46.19976" lon="-1.42739">
        <ele>3.86988</ele>
        <time>2023-05-31T14:43:19.000Z</time>
      </trkpt>
      <trkpt lat="46.19972" lon="-1.42738">
        <ele>3.85729</ele>
        <time>2023-05-31T14:43:20.000Z</time>
      </trkpt>
      <trkpt lat="46.19969" lon="-1.42737">
        <ele>3.85338</ele>
        <time>2023-05-31T14:43:21.000Z</time>
      </trkpt>
      <trkpt lat="46.19965" lon="-1.42738">
        <ele>3.85461</ele>
        <time>2023-05-31T14:43:22.000Z</time>
      </trkpt>
      <trkpt lat="46.19961" lon="-1.42738">
        <ele>3.85154</ele>
        <time>2023-05-31T14:43:23.000Z</time>
      </trkpt>
      <trkpt lat="46.19957" lon="-1.4274">
        <ele>3.85428</ele>
        <time>2023-05-31T14:43:24.000Z</time>
      </trkpt>
      <trkpt lat="46.19952" lon="-1.42742">
        <ele>3.83203</ele>
        <time>2023-05-31T14:43:25.000Z</time>
      </trkpt>
      <trkpt lat="46.19948" lon="-1.42743">
        <ele>3.78644</ele>
        <time>2023-05-31T14:43:26.000Z</time>
      </trkpt>
      <trkpt lat="46.19944" lon="-1.42745">
        <ele>3.75771</ele>
        <time>2023-05-31T14:43:27.000Z</time>
      </trkpt>
      <trkpt lat="46.19939" lon="-1.42746">
        <ele>3.74313</ele>
        <time>2023-05-31T14:43:28.000Z</time>
      </trkpt>
      <trkpt lat="46.19935" lon="-1.42748">
        <ele>3.72866</ele>
        <time>2023-05-31T14:43:29.000Z</time>
      </trkpt>
      <trkpt lat="46.19931" lon="-1.42749">
        <ele>3.7736</ele>
        <time>2023-05-31T14:43:30.000Z</time>
      </trkpt>
      <trkpt lat="46.19926" lon="-1.4275">
        <ele>3.78026</ele>
        <time>2023-05-31T14:43:31.000Z</time>
      </trkpt>
      <trkpt lat="46.19922" lon="-1.42751">
        <ele>3.78765</ele>
        <time>2023-05-31T14:43:32.000Z</time>
      </trkpt>
      <trkpt lat="46.19918" lon="-1.42751">
        <ele>3.75558</ele>
        <time>2023-05-31T14:43:33.000Z</time>
      </trkpt>
      <trkpt lat="46.19914" lon="-1.4275">
        <ele>3.73615</ele>
        <time>2023-05-31T14:43:34.000Z</time>
      </trkpt>
      <trkpt lat="46.19909" lon="-1.4275">
        <ele>3.65663</ele>
        <time>2023-05-31T14:43:35.000Z</time>
      </trkpt>
      <trkpt lat="46.19905" lon="-1.42749">
        <ele>3.59874</ele>
        <time>2023-05-31T14:43:36.000Z</time>
      </trkpt>
      <trkpt lat="46.19902" lon="-1.42748">
        <ele>3.51196</ele>
        <time>2023-05-31T14:43:37.000Z</time>
      </trkpt>
      <trkpt lat="46.19898" lon="-1.42745">
        <ele>3.46161</ele>
        <time>2023-05-31T14:43:38.000Z</time>
      </trkpt>
      <trkpt lat="46.19895" lon="-1.42742">
        <ele>3.45238</ele>
        <time>2023-05-31T14:43:39.000Z</time>
      </trkpt>
      <trkpt lat="46.19892" lon="-1.42738">
        <ele>3.40708</ele>
        <time>2023-05-31T14:43:40.000Z</time>
      </trkpt>
      <trkpt lat="46.1989" lon="-1.42735">
        <ele>3.37185</ele>
        <time>2023-05-31T14:43:41.000Z</time>
      </trkpt>
      <trkpt lat="46.19887" lon="-1.42731">
        <ele>3.35391</ele>
        <time>2023-05-31T14:43:42.000Z</time>
      </trkpt>
      <trkpt lat="46.19884" lon="-1.42727">
        <ele>3.33458</ele>
        <time>2023-05-31T14:43:43.000Z</time>
      </trkpt>
      <trkpt lat="46.19881" lon="-1.42722">
        <ele>3.30109</ele>
        <time>2023-05-31T14:43:44.000Z</time>
      </trkpt>
      <trkpt lat="46.1988" lon="-1.42717">
        <ele>3.28693</ele>
        <time>2023-05-31T14:43:45.000Z</time>
      </trkpt>
      <trkpt lat="46.19878" lon="-1.42712">
        <ele>3.29675</ele>
        <time>2023-05-31T14:43:46.000Z</time>
      </trkpt>
      <trkpt lat="46.19876" lon="-1.42706">
        <ele>3.33058</ele>
        <time>2023-05-31T14:43:47.000Z</time>
      </trkpt>
      <trkpt lat="46.19875" lon="-1.42701">
        <ele>3.36797</ele>
        <time>2023-05-31T14:43:48.000Z</time>
      </trkpt>
      <trkpt lat="46.19874" lon="-1.42695">
        <ele>3.43842</ele>
        <time>2023-05-31T14:43:49.000Z</time>
      </trkpt>
      <trkpt lat="46.19874" lon="-1.42689">
        <ele>3.50452</ele>
        <time>2023-05-31T14:43:50.000Z</time>
      </trkpt>
      <trkpt lat="46.19874" lon="-1.42683">
        <ele>3.59063</ele>
        <time>2023-05-31T14:43:51.000Z</time>
      </trkpt>
      <trkpt lat="46.19873" lon="-1.42677">
        <ele>3.66994</ele>
        <time>2023-05-31T14:43:52.000Z</time>
      </trkpt>
      <trkpt lat="46.19873" lon="-1.42671">
        <ele>3.78006</ele>
        <time>2023-05-31T14:43:53.000Z</time>
      </trkpt>
      <trkpt lat="46.19872" lon="-1.42665">
        <ele>3.89097</ele>
        <time>2023-05-31T14:43:54.000Z</time>
      </trkpt>
      <trkpt lat="46.19871" lon="-1.4266">
        <ele>4.06312</ele>
        <time>2023-05-31T14:43:55.000Z</time>
      </trkpt>
      <trkpt lat="46.19869" lon="-1.42654">
        <ele>4.22915</ele>
        <time>2023-05-31T14:43:56.000Z</time>
      </trkpt>
      <trkpt lat="46.19868" lon="-1.42648">
        <ele>4.38207</ele>
        <time>2023-05-31T14:43:57.000Z</time>
      </trkpt>
      <trkpt lat="46.19866" lon="-1.42643">
        <ele>4.50732</ele>
        <time>2023-05-31T14:43:58.000Z</time>
      </trkpt>
      <trkpt lat="46.19864" lon="-1.42639">
        <ele>4.5863</ele>
        <time>2023-05-31T14:43:59.000Z</time>
      </trkpt>
      <trkpt lat="46.19862" lon="-1.42635">
        <ele>4.68408</ele>
        <time>2023-05-31T14:44:00.000Z</time>
      </trkpt>
      <trkpt lat="46.19859" lon="-1.42631">
        <ele>4.78007</ele>
        <time>2023-05-31T14:44:01.000Z</time>
      </trkpt>
      <trkpt lat="46.19856" lon="-1.42628">
        <ele>4.88686</ele>
        <time>2023-05-31T14:44:02.000Z</time>
      </trkpt>
      <trkpt lat="46.19854" lon="-1.42626">
        <ele>4.99427</ele>
        <time>2023-05-31T14:44:03.000Z</time>
      </trkpt>
      <trkpt lat="46.19851" lon="-1.42623">
        <ele>5.10622</ele>
        <time>2023-05-31T14:44:04.000Z</time>
      </trkpt>
      <trkpt lat="46.19849" lon="-1.42621">
        <ele>5.21425</ele>
        <time>2023-05-31T14:44:05.000Z</time>
      </trkpt>
      <trkpt lat="46.19846" lon="-1.4262">
        <ele>5.34133</ele>
        <time>2023-05-31T14:44:06.000Z</time>
      </trkpt>
      <trkpt lat="46.19844" lon="-1.42619">
        <ele>5.46789</ele>
        <time>2023-05-31T14:44:07.000Z</time>
      </trkpt>
      <trkpt lat="46.19841" lon="-1.4262">
        <ele>5.57356</ele>
        <time>2023-05-31T14:44:09.000Z</time>
      </trkpt>
      <trkpt lat="46.1984" lon="-1.42622">
        <ele>5.7038</ele>
        <time>2023-05-31T14:44:13.000Z</time>
      </trkpt>
      <trkpt lat="46.19839" lon="-1.42624">
        <ele>5.79916</ele>
        <time>2023-05-31T14:44:15.000Z</time>
      </trkpt>
      <trkpt lat="46.19838" lon="-1.42627">
        <ele>5.90185</ele>
        <time>2023-05-31T14:44:18.000Z</time>
      </trkpt>
      <trkpt lat="46.19835" lon="-1.42629">
        <ele>5.98137</ele>
        <time>2023-05-31T14:44:20.000Z</time>
      </trkpt>
      <trkpt lat="46.19833" lon="-1.42628">
        <ele>6.01518</ele>
        <time>2023-05-31T14:44:21.000Z</time>
      </trkpt>
      <trkpt lat="46.19831" lon="-1.42627">
        <ele>6.05339</ele>
        <time>2023-05-31T14:44:22.000Z</time>
      </trkpt>
      <trkpt lat="46.19829" lon="-1.42624">
        <ele>6.0794</ele>
        <time>2023-05-31T14:44:23.000Z</time>
      </trkpt>
      <trkpt lat="46.19829" lon="-1.4262">
        <ele>6.09117</ele>
        <time>2023-05-31T14:44:24.000Z</time>
      </trkpt>
      <trkpt lat="46.19829" lon="-1.42616">
        <ele>6.10749</ele>
        <time>2023-05-31T14:44:25.000Z</time>
      </trkpt>
      <trkpt lat="46.19831" lon="-1.42615">
        <ele>6.1281</ele>
        <time>2023-05-31T14:44:26.000Z</time>
      </trkpt>
      <trkpt lat="46.19833" lon="-1.42611">
        <ele>6.16993</ele>
        <time>2023-05-31T14:44:28.000Z</time>
      </trkpt>
      <trkpt lat="46.19834" lon="-1.42609">
        <ele>6.20516</ele>
        <time>2023-05-31T14:44:29.000Z</time>
      </trkpt>
      <trkpt lat="46.19835" lon="-1.42605">
        <ele>6.2417</ele>
        <time>2023-05-31T14:44:30.000Z</time>
      </trkpt>
      <trkpt lat="46.19835" lon="-1.42602">
        <ele>6.25381</ele>
        <time>2023-05-31T14:44:31.000Z</time>
      </trkpt>
      <trkpt lat="46.19834" lon="-1.42599">
        <ele>6.2465</ele>
        <time>2023-05-31T14:44:32.000Z</time>
      </trkpt>
      <trkpt lat="46.19833" lon="-1.42597">
        <ele>6.23202</ele>
        <time>2023-05-31T14:44:33.000Z</time>
      </trkpt>
      <trkpt lat="46.1983" lon="-1.42595">
        <ele>6.20054</ele>
        <time>2023-05-31T14:44:34.000Z</time>
      </trkpt>
      <trkpt lat="46.19828" lon="-1.42593">
        <ele>6.1219</ele>
        <time>2023-05-31T14:44:35.000Z</time>
      </trkpt>
      <trkpt lat="46.19825" lon="-1.42592">
        <ele>6.03252</ele>
        <time>2023-05-31T14:44:36.000Z</time>
      </trkpt>
      <trkpt lat="46.19822" lon="-1.42589">
        <ele>5.94812</ele>
        <time>2023-05-31T14:44:37.000Z</time>
      </trkpt>
      <trkpt lat="46.1982" lon="-1.42586">
        <ele>5.79382</ele>
        <time>2023-05-31T14:44:38.000Z</time>
      </trkpt>
      <trkpt lat="46.19818" lon="-1.42583">
        <ele>5.72235</ele>
        <time>2023-05-31T14:44:39.000Z</time>
      </trkpt>
      <trkpt lat="46.19815" lon="-1.4258">
        <ele>5.63468</ele>
        <time>2023-05-31T14:44:40.000Z</time>
      </trkpt>
      <trkpt lat="46.19813" lon="-1.42576">
        <ele>5.56059</ele>
        <time>2023-05-31T14:44:41.000Z</time>
      </trkpt>
      <trkpt lat="46.1981" lon="-1.42572">
        <ele>5.51505</ele>
        <time>2023-05-31T14:44:42.000Z</time>
      </trkpt>
      <trkpt lat="46.19808" lon="-1.42569">
        <ele>5.43071</ele>
        <time>2023-05-31T14:44:43.000Z</time>
      </trkpt>
      <trkpt lat="46.19806" lon="-1.42565">
        <ele>5.33607</ele>
        <time>2023-05-31T14:44:44.000Z</time>
      </trkpt>
      <trkpt lat="46.19803" lon="-1.42562">
        <ele>5.25627</ele>
        <time>2023-05-31T14:44:45.000Z</time>
      </trkpt>
      <trkpt lat="46.198" lon="-1.42558">
        <ele>5.2187</ele>
        <time>2023-05-31T14:44:46.000Z</time>
      </trkpt>
      <trkpt lat="46.19797" lon="-1.42555">
        <ele>5.17898</ele>
        <time>2023-05-31T14:44:47.000Z</time>
      </trkpt>
      <trkpt lat="46.19795" lon="-1.42552">
        <ele>5.12926</ele>
        <time>2023-05-31T14:44:48.000Z</time>
      </trkpt>
      <trkpt lat="46.19792" lon="-1.42549">
        <ele>5.05332</ele>
        <time>2023-05-31T14:44:49.000Z</time>
      </trkpt>
      <trkpt lat="46.19789" lon="-1.42545">
        <ele>4.96153</ele>
        <time>2023-05-31T14:44:50.000Z</time>
      </trkpt>
      <trkpt lat="46.19787" lon="-1.42542">
        <ele>4.87216</ele>
        <time>2023-05-31T14:44:51.000Z</time>
      </trkpt>
      <trkpt lat="46.19784" lon="-1.42538">
        <ele>4.86303</ele>
        <time>2023-05-31T14:44:52.000Z</time>
      </trkpt>
      <trkpt lat="46.19782" lon="-1.42535">
        <ele>4.86811</ele>
        <time>2023-05-31T14:44:53.000Z</time>
      </trkpt>
      <trkpt lat="46.1978" lon="-1.42532">
        <ele>4.90082</ele>
        <time>2023-05-31T14:44:54.000Z</time>
      </trkpt>
      <trkpt lat="46.19777" lon="-1.4253">
        <ele>4.95262</ele>
        <time>2023-05-31T14:44:55.000Z</time>
      </trkpt>
      <trkpt lat="46.19775" lon="-1.42527">
        <ele>4.99956</ele>
        <time>2023-05-31T14:44:56.000Z</time>
      </trkpt>
      <trkpt lat="46.19773" lon="-1.42524">
        <ele>5.03956</ele>
        <time>2023-05-31T14:44:57.000Z</time>
      </trkpt>
      <trkpt lat="46.19771" lon="-1.42521">
        <ele>5.09482</ele>
        <time>2023-05-31T14:44:58.000Z</time>
      </trkpt>
      <trkpt lat="46.19769" lon="-1.42518">
        <ele>5.09004</ele>
        <time>2023-05-31T14:44:59.000Z</time>
      </trkpt>
      <trkpt lat="46.19767" lon="-1.42515">
        <ele>5.09228</ele>
        <time>2023-05-31T14:45:00.000Z</time>
      </trkpt>
      <trkpt lat="46.19765" lon="-1.42512">
        <ele>5.09653</ele>
        <time>2023-05-31T14:45:01.000Z</time>
      </trkpt>
      <trkpt lat="46.19764" lon="-1.4251">
        <ele>5.10656</ele>
        <time>2023-05-31T14:45:02.000Z</time>
      </trkpt>
      <trkpt lat="46.19762" lon="-1.42506">
        <ele>5.13775</ele>
        <time>2023-05-31T14:45:04.000Z</time>
      </trkpt>
      <trkpt lat="46.19761" lon="-1.42503">
        <ele>5.16167</ele>
        <time>2023-05-31T14:45:06.000Z</time>
      </trkpt>
      <trkpt lat="46.19758" lon="-1.42499">
        <ele>5.15935</ele>
        <time>2023-05-31T14:45:08.000Z</time>
      </trkpt>
      <trkpt lat="46.19757" lon="-1.42497">
        <ele>5.17041</ele>
        <time>2023-05-31T14:45:09.000Z</time>
      </trkpt>
      <trkpt lat="46.19755" lon="-1.42494">
        <ele>5.16882</ele>
        <time>2023-05-31T14:45:10.000Z</time>
      </trkpt>
      <trkpt lat="46.19753" lon="-1.42492">
        <ele>5.14087</ele>
        <time>2023-05-31T14:45:11.000Z</time>
      </trkpt>
      <trkpt lat="46.19751" lon="-1.42489">
        <ele>5.14208</ele>
        <time>2023-05-31T14:45:12.000Z</time>
      </trkpt>
      <trkpt lat="46.19749" lon="-1.42487">
        <ele>5.14111</ele>
        <time>2023-05-31T14:45:13.000Z</time>
      </trkpt>
      <trkpt lat="46.19746" lon="-1.42485">
        <ele>5.16607</ele>
        <time>2023-05-31T14:45:14.000Z</time>
      </trkpt>
      <trkpt lat="46.19743" lon="-1.42484">
        <ele>5.12817</ele>
        <time>2023-05-31T14:45:15.000Z</time>
      </trkpt>
      <trkpt lat="46.1974" lon="-1.42486">
        <ele>5.09307</ele>
        <time>2023-05-31T14:45:16.000Z</time>
      </trkpt>
      <trkpt lat="46.19737" lon="-1.4249">
        <ele>5.05044</ele>
        <time>2023-05-31T14:45:17.000Z</time>
      </trkpt>
      <trkpt lat="46.19734" lon="-1.42494">
        <ele>5.03161</ele>
        <time>2023-05-31T14:45:18.000Z</time>
      </trkpt>
      <trkpt lat="46.19732" lon="-1.42499">
        <ele>4.99267</ele>
        <time>2023-05-31T14:45:19.000Z</time>
      </trkpt>
      <trkpt lat="46.19729" lon="-1.42504">
        <ele>4.97495</ele>
        <time>2023-05-31T14:45:20.000Z</time>
      </trkpt>
      <trkpt lat="46.19726" lon="-1.42508">
        <ele>4.96397</ele>
        <time>2023-05-31T14:45:21.000Z</time>
      </trkpt>
      <trkpt lat="46.19723" lon="-1.42513">
        <ele>4.96108</ele>
        <time>2023-05-31T14:45:22.000Z</time>
      </trkpt>
      <trkpt lat="46.1972" lon="-1.42517">
        <ele>4.96771</ele>
        <time>2023-05-31T14:45:23.000Z</time>
      </trkpt>
      <trkpt lat="46.19717" lon="-1.42521">
        <ele>4.99046</ele>
        <time>2023-05-31T14:45:24.000Z</time>
      </trkpt>
      <trkpt lat="46.19714" lon="-1.42525">
        <ele>5.03052</ele>
        <time>2023-05-31T14:45:25.000Z</time>
      </trkpt>
      <trkpt lat="46.19712" lon="-1.4253">
        <ele>5.09632</ele>
        <time>2023-05-31T14:45:26.000Z</time>
      </trkpt>
      <trkpt lat="46.19709" lon="-1.42534">
        <ele>5.15114</ele>
        <time>2023-05-31T14:45:27.000Z</time>
      </trkpt>
      <trkpt lat="46.19706" lon="-1.42538">
        <ele>5.22167</ele>
        <time>2023-05-31T14:45:28.000Z</time>
      </trkpt>
      <trkpt lat="46.19703" lon="-1.42542">
        <ele>5.2382</ele>
        <time>2023-05-31T14:45:29.000Z</time>
      </trkpt>
      <trkpt lat="46.197" lon="-1.42546">
        <ele>5.3001</ele>
        <time>2023-05-31T14:45:30.000Z</time>
      </trkpt>
      <trkpt lat="46.19697" lon="-1.4255">
        <ele>5.35488</ele>
        <time>2023-05-31T14:45:31.000Z</time>
      </trkpt>
      <trkpt lat="46.19695" lon="-1.42554">
        <ele>5.38349</ele>
        <time>2023-05-31T14:45:32.000Z</time>
      </trkpt>
      <trkpt lat="46.19692" lon="-1.42559">
        <ele>5.41522</ele>
        <time>2023-05-31T14:45:33.000Z</time>
      </trkpt>
      <trkpt lat="46.19689" lon="-1.42563">
        <ele>5.50857</ele>
        <time>2023-05-31T14:45:34.000Z</time>
      </trkpt>
      <trkpt lat="46.19686" lon="-1.42567">
        <ele>5.56867</ele>
        <time>2023-05-31T14:45:35.000Z</time>
      </trkpt>
      <trkpt lat="46.19684" lon="-1.42571">
        <ele>5.64245</ele>
        <time>2023-05-31T14:45:36.000Z</time>
      </trkpt>
      <trkpt lat="46.19681" lon="-1.42575">
        <ele>5.71823</ele>
        <time>2023-05-31T14:45:37.000Z</time>
      </trkpt>
      <trkpt lat="46.19678" lon="-1.42579">
        <ele>5.77926</ele>
        <time>2023-05-31T14:45:38.000Z</time>
      </trkpt>
      <trkpt lat="46.19674" lon="-1.42583">
        <ele>5.85782</ele>
        <time>2023-05-31T14:45:39.000Z</time>
      </trkpt>
      <trkpt lat="46.19671" lon="-1.42588">
        <ele>5.92289</ele>
        <time>2023-05-31T14:45:40.000Z</time>
      </trkpt>
      <trkpt lat="46.19668" lon="-1.42592">
        <ele>6.00008</ele>
        <time>2023-05-31T14:45:41.000Z</time>
      </trkpt>
      <trkpt lat="46.19665" lon="-1.42596">
        <ele>6.0476</ele>
        <time>2023-05-31T14:45:42.000Z</time>
      </trkpt>
      <trkpt lat="46.19661" lon="-1.42599">
        <ele>6.09117</ele>
        <time>2023-05-31T14:45:43.000Z</time>
      </trkpt>
      <trkpt lat="46.19659" lon="-1.42603">
        <ele>6.11956</ele>
        <time>2023-05-31T14:45:44.000Z</time>
      </trkpt>
      <trkpt lat="46.19656" lon="-1.42607">
        <ele>6.12232</ele>
        <time>2023-05-31T14:45:45.000Z</time>
      </trkpt>
      <trkpt lat="46.19654" lon="-1.42611">
        <ele>6.11241</ele>
        <time>2023-05-31T14:45:46.000Z</time>
      </trkpt>
      <trkpt lat="46.19652" lon="-1.42615">
        <ele>6.13288</ele>
        <time>2023-05-31T14:45:47.000Z</time>
      </trkpt>
      <trkpt lat="46.1965" lon="-1.42617">
        <ele>6.1422</ele>
        <time>2023-05-31T14:45:48.000Z</time>
      </trkpt>
      <trkpt lat="46.19648" lon="-1.4262">
        <ele>6.17921</ele>
        <time>2023-05-31T14:45:50.000Z</time>
      </trkpt>
      <trkpt lat="46.19645" lon="-1.42623">
        <ele>6.1443</ele>
        <time>2023-05-31T14:45:53.000Z</time>
      </trkpt>
      <trkpt lat="46.19643" lon="-1.42624">
        <ele>6.0976</ele>
        <time>2023-05-31T14:45:54.000Z</time>
      </trkpt>
      <trkpt lat="46.19641" lon="-1.42626">
        <ele>6.08296</ele>
        <time>2023-05-31T14:45:55.000Z</time>
      </trkpt>
      <trkpt lat="46.19639" lon="-1.42627">
        <ele>6.06527</ele>
        <time>2023-05-31T14:45:56.000Z</time>
      </trkpt>
      <trkpt lat="46.19637" lon="-1.42629">
        <ele>5.97665</ele>
        <time>2023-05-31T14:45:57.000Z</time>
      </trkpt>
      <trkpt lat="46.19635" lon="-1.4263">
        <ele>5.91866</ele>
        <time>2023-05-31T14:45:58.000Z</time>
      </trkpt>
      <trkpt lat="46.19632" lon="-1.4263">
        <ele>5.85373</ele>
        <time>2023-05-31T14:45:59.000Z</time>
      </trkpt>
      <trkpt lat="46.19629" lon="-1.42631">
        <ele>5.77488</ele>
        <time>2023-05-31T14:46:00.000Z</time>
      </trkpt>
      <trkpt lat="46.19626" lon="-1.42631">
        <ele>5.70691</ele>
        <time>2023-05-31T14:46:01.000Z</time>
      </trkpt>
      <trkpt lat="46.19623" lon="-1.4263">
        <ele>5.63679</ele>
        <time>2023-05-31T14:46:02.000Z</time>
      </trkpt>
      <trkpt lat="46.1962" lon="-1.4263">
        <ele>5.56543</ele>
        <time>2023-05-31T14:46:03.000Z</time>
      </trkpt>
      <trkpt lat="46.19617" lon="-1.4263">
        <ele>5.47599</ele>
        <time>2023-05-31T14:46:04.000Z</time>
      </trkpt>
      <trkpt lat="46.19614" lon="-1.42629">
        <ele>5.40895</ele>
        <time>2023-05-31T14:46:05.000Z</time>
      </trkpt>
      <trkpt lat="46.19611" lon="-1.42629">
        <ele>5.32663</ele>
        <time>2023-05-31T14:46:06.000Z</time>
      </trkpt>
      <trkpt lat="46.19608" lon="-1.42629">
        <ele>5.22636</ele>
        <time>2023-05-31T14:46:07.000Z</time>
      </trkpt>
      <trkpt lat="46.19605" lon="-1.42628">
        <ele>5.10976</ele>
        <time>2023-05-31T14:46:08.000Z</time>
      </trkpt>
      <trkpt lat="46.19602" lon="-1.42627">
        <ele>4.95504</ele>
        <time>2023-05-31T14:46:09.000Z</time>
      </trkpt>
      <trkpt lat="46.19599" lon="-1.42627">
        <ele>4.7854</ele>
        <time>2023-05-31T14:46:10.000Z</time>
      </trkpt>
      <trkpt lat="46.19596" lon="-1.42626">
        <ele>4.62935</ele>
        <time>2023-05-31T14:46:11.000Z</time>
      </trkpt>
      <trkpt lat="46.19593" lon="-1.42625">
        <ele>4.47337</ele>
        <time>2023-05-31T14:46:12.000Z</time>
      </trkpt>
      <trkpt lat="46.19591" lon="-1.42623">
        <ele>4.3875</ele>
        <time>2023-05-31T14:46:13.000Z</time>
      </trkpt>
      <trkpt lat="46.19588" lon="-1.42619">
        <ele>4.32952</ele>
        <time>2023-05-31T14:46:14.000Z</time>
      </trkpt>
      <trkpt lat="46.19586" lon="-1.42615">
        <ele>4.29932</ele>
        <time>2023-05-31T14:46:15.000Z</time>
      </trkpt>
      <trkpt lat="46.19583" lon="-1.42611">
        <ele>4.28825</ele>
        <time>2023-05-31T14:46:16.000Z</time>
      </trkpt>
      <trkpt lat="46.19581" lon="-1.42607">
        <ele>4.28122</ele>
        <time>2023-05-31T14:46:17.000Z</time>
      </trkpt>
      <trkpt lat="46.19579" lon="-1.42602">
        <ele>4.29241</ele>
        <time>2023-05-31T14:46:18.000Z</time>
      </trkpt>
      <trkpt lat="46.19577" lon="-1.42598">
        <ele>4.29285</ele>
        <time>2023-05-31T14:46:19.000Z</time>
      </trkpt>
      <trkpt lat="46.19575" lon="-1.42594">
        <ele>4.30696</ele>
        <time>2023-05-31T14:46:20.000Z</time>
      </trkpt>
      <trkpt lat="46.19572" lon="-1.4259">
        <ele>4.3254</ele>
        <time>2023-05-31T14:46:21.000Z</time>
      </trkpt>
      <trkpt lat="46.1957" lon="-1.42585">
        <ele>4.33468</ele>
        <time>2023-05-31T14:46:22.000Z</time>
      </trkpt>
      <trkpt lat="46.19568" lon="-1.42581">
        <ele>4.33796</ele>
        <time>2023-05-31T14:46:23.000Z</time>
      </trkpt>
      <trkpt lat="46.19565" lon="-1.42577">
        <ele>4.31347</ele>
        <time>2023-05-31T14:46:24.000Z</time>
      </trkpt>
      <trkpt lat="46.19563" lon="-1.42573">
        <ele>4.27503</ele>
        <time>2023-05-31T14:46:25.000Z</time>
      </trkpt>
      <trkpt lat="46.1956" lon="-1.42569">
        <ele>4.29356</ele>
        <time>2023-05-31T14:46:26.000Z</time>
      </trkpt>
      <trkpt lat="46.19558" lon="-1.42565">
        <ele>4.35308</ele>
        <time>2023-05-31T14:46:27.000Z</time>
      </trkpt>
      <trkpt lat="46.19556" lon="-1.42561">
        <ele>4.44682</ele>
        <time>2023-05-31T14:46:28.000Z</time>
      </trkpt>
      <trkpt lat="46.19553" lon="-1.42557">
        <ele>4.57665</ele>
        <time>2023-05-31T14:46:29.000Z</time>
      </trkpt>
      <trkpt lat="46.19551" lon="-1.42553">
        <ele>4.71044</ele>
        <time>2023-05-31T14:46:30.000Z</time>
      </trkpt>
      <trkpt lat="46.19548" lon="-1.42549">
        <ele>4.8391</ele>
        <time>2023-05-31T14:46:31.000Z</time>
      </trkpt>
      <trkpt lat="46.19546" lon="-1.42545">
        <ele>4.93689</ele>
        <time>2023-05-31T14:46:32.000Z</time>
      </trkpt>
      <trkpt lat="46.19543" lon="-1.42542">
        <ele>5.02062</ele>
        <time>2023-05-31T14:46:33.000Z</time>
      </trkpt>
      <trkpt lat="46.1954" lon="-1.42538">
        <ele>5.1064</ele>
        <time>2023-05-31T14:46:34.000Z</time>
      </trkpt>
      <trkpt lat="46.19537" lon="-1.42536">
        <ele>5.16048</ele>
        <time>2023-05-31T14:46:35.000Z</time>
      </trkpt>
      <trkpt lat="46.19533" lon="-1.42534">
        <ele>5.21056</ele>
        <time>2023-05-31T14:46:36.000Z</time>
      </trkpt>
      <trkpt lat="46.19529" lon="-1.42532">
        <ele>5.24199</ele>
        <time>2023-05-31T14:46:37.000Z</time>
      </trkpt>
      <trkpt lat="46.19526" lon="-1.4253">
        <ele>5.24213</ele>
        <time>2023-05-31T14:46:38.000Z</time>
      </trkpt>
      <trkpt lat="46.19522" lon="-1.42528">
        <ele>5.21356</ele>
        <time>2023-05-31T14:46:39.000Z</time>
      </trkpt>
      <trkpt lat="46.19519" lon="-1.42527">
        <ele>5.17238</ele>
        <time>2023-05-31T14:46:40.000Z</time>
      </trkpt>
      <trkpt lat="46.19514" lon="-1.42527">
        <ele>5.08076</ele>
        <time>2023-05-31T14:46:41.000Z</time>
      </trkpt>
      <trkpt lat="46.1951" lon="-1.42527">
        <ele>4.99323</ele>
        <time>2023-05-31T14:46:42.000Z</time>
      </trkpt>
      <trkpt lat="46.19505" lon="-1.42527">
        <ele>4.92042</ele>
        <time>2023-05-31T14:46:43.000Z</time>
      </trkpt>
      <trkpt lat="46.195" lon="-1.42527">
        <ele>4.89983</ele>
        <time>2023-05-31T14:46:44.000Z</time>
      </trkpt>
      <trkpt lat="46.19497" lon="-1.42527">
        <ele>4.83235</ele>
        <time>2023-05-31T14:46:45.000Z</time>
      </trkpt>
      <trkpt lat="46.19491" lon="-1.42525">
        <ele>4.73685</ele>
        <time>2023-05-31T14:46:46.000Z</time>
      </trkpt>
      <trkpt lat="46.19487" lon="-1.42524">
        <ele>4.62231</ele>
        <time>2023-05-31T14:46:47.000Z</time>
      </trkpt>
      <trkpt lat="46.19483" lon="-1.42523">
        <ele>4.49025</ele>
        <time>2023-05-31T14:46:48.000Z</time>
      </trkpt>
      <trkpt lat="46.19479" lon="-1.42522">
        <ele>4.32551</ele>
        <time>2023-05-31T14:46:49.000Z</time>
      </trkpt>
      <trkpt lat="46.19475" lon="-1.4252">
        <ele>4.17101</ele>
        <time>2023-05-31T14:46:50.000Z</time>
      </trkpt>
      <trkpt lat="46.19471" lon="-1.42518">
        <ele>4.01656</ele>
        <time>2023-05-31T14:46:51.000Z</time>
      </trkpt>
      <trkpt lat="46.19467" lon="-1.42516">
        <ele>3.87863</ele>
        <time>2023-05-31T14:46:52.000Z</time>
      </trkpt>
      <trkpt lat="46.19464" lon="-1.42513">
        <ele>3.71816</ele>
        <time>2023-05-31T14:46:53.000Z</time>
      </trkpt>
      <trkpt lat="46.1946" lon="-1.42511">
        <ele>3.55845</ele>
        <time>2023-05-31T14:46:54.000Z</time>
      </trkpt>
      <trkpt lat="46.19457" lon="-1.42509">
        <ele>3.39977</ele>
        <time>2023-05-31T14:46:55.000Z</time>
      </trkpt>
      <trkpt lat="46.19454" lon="-1.42507">
        <ele>3.22755</ele>
        <time>2023-05-31T14:46:56.000Z</time>
      </trkpt>
      <trkpt lat="46.19451" lon="-1.42505">
        <ele>3.05437</ele>
        <time>2023-05-31T14:46:57.000Z</time>
      </trkpt>
      <trkpt lat="46.19448" lon="-1.42504">
        <ele>2.87654</ele>
        <time>2023-05-31T14:46:58.000Z</time>
      </trkpt>
      <trkpt lat="46.19446" lon="-1.42503">
        <ele>2.7383</ele>
        <time>2023-05-31T14:46:59.000Z</time>
      </trkpt>
      <trkpt lat="46.19443" lon="-1.42501">
        <ele>2.60658</ele>
        <time>2023-05-31T14:47:00.000Z</time>
      </trkpt>
      <trkpt lat="46.19441" lon="-1.42499">
        <ele>2.51843</ele>
        <time>2023-05-31T14:47:01.000Z</time>
      </trkpt>
      <trkpt lat="46.19438" lon="-1.42497">
        <ele>2.40092</ele>
        <time>2023-05-31T14:47:02.000Z</time>
      </trkpt>
      <trkpt lat="46.19436" lon="-1.42495">
        <ele>2.21184</ele>
        <time>2023-05-31T14:47:03.000Z</time>
      </trkpt>
      <trkpt lat="46.19434" lon="-1.42493">
        <ele>2.02733</ele>
        <time>2023-05-31T14:47:04.000Z</time>
      </trkpt>
      <trkpt lat="46.19431" lon="-1.42491">
        <ele>1.91595</ele>
        <time>2023-05-31T14:47:05.000Z</time>
      </trkpt>
      <trkpt lat="46.19428" lon="-1.4249">
        <ele>1.79298</ele>
        <time>2023-05-31T14:47:06.000Z</time>
      </trkpt>
      <trkpt lat="46.19425" lon="-1.42488">
        <ele>1.69244</ele>
        <time>2023-05-31T14:47:07.000Z</time>
      </trkpt>
      <trkpt lat="46.19423" lon="-1.42486">
        <ele>1.57883</ele>
        <time>2023-05-31T14:47:08.000Z</time>
      </trkpt>
      <trkpt lat="46.1942" lon="-1.42483">
        <ele>1.49314</ele>
        <time>2023-05-31T14:47:10.000Z</time>
      </trkpt>
      <trkpt lat="46.19418" lon="-1.42481">
        <ele>1.39524</ele>
        <time>2023-05-31T14:47:11.000Z</time>
      </trkpt>
      <trkpt lat="46.19416" lon="-1.42479">
        <ele>1.36403</ele>
        <time>2023-05-31T14:47:13.000Z</time>
      </trkpt>
      <trkpt lat="46.19415" lon="-1.42476">
        <ele>1.35089</ele>
        <time>2023-05-31T14:47:15.000Z</time>
      </trkpt>
      <trkpt lat="46.19414" lon="-1.42471">
        <ele>1.39801</ele>
        <time>2023-05-31T14:47:17.000Z</time>
      </trkpt>
      <trkpt lat="46.19413" lon="-1.42468">
        <ele>1.44793</ele>
        <time>2023-05-31T14:47:18.000Z</time>
      </trkpt>
      <trkpt lat="46.19413" lon="-1.42465">
        <ele>1.55827</ele>
        <time>2023-05-31T14:47:19.000Z</time>
      </trkpt>
      <trkpt lat="46.19412" lon="-1.42462">
        <ele>1.7169</ele>
        <time>2023-05-31T14:47:20.000Z</time>
      </trkpt>
      <trkpt lat="46.19413" lon="-1.42457">
        <ele>1.96802</ele>
        <time>2023-05-31T14:47:22.000Z</time>
      </trkpt>
      <trkpt lat="46.19416" lon="-1.42454">
        <ele>2.26687</ele>
        <time>2023-05-31T14:47:24.000Z</time>
      </trkpt>
      <trkpt lat="46.19417" lon="-1.42452">
        <ele>2.49632</ele>
        <time>2023-05-31T14:47:26.000Z</time>
      </trkpt>
      <trkpt lat="46.19418" lon="-1.4245">
        <ele>2.74822</ele>
        <time>2023-05-31T14:47:30.000Z</time>
      </trkpt>
      <trkpt lat="46.1942" lon="-1.42447">
        <ele>2.95111</ele>
        <time>2023-05-31T14:48:01.000Z</time>
      </trkpt>
      <trkpt lat="46.19421" lon="-1.42444">
        <ele>3.14422</ele>
        <time>2023-05-31T14:48:03.000Z</time>
      </trkpt>
      <trkpt lat="46.19424" lon="-1.42442">
        <ele>3.40423</ele>
        <time>2023-05-31T14:48:05.000Z</time>
      </trkpt>
      <trkpt lat="46.19425" lon="-1.42439">
        <ele>3.62391</ele>
        <time>2023-05-31T14:48:07.000Z</time>
      </trkpt>
      <trkpt lat="46.19426" lon="-1.42435">
        <ele>3.84457</ele>
        <time>2023-05-31T14:48:09.000Z</time>
      </trkpt>
      <trkpt lat="46.19428" lon="-1.42432">
        <ele>4.0404</ele>
        <time>2023-05-31T14:48:11.000Z</time>
      </trkpt>
      <trkpt lat="46.19429" lon="-1.42429">
        <ele>4.15454</ele>
        <time>2023-05-31T14:48:13.000Z</time>
      </trkpt>
      <trkpt lat="46.1943" lon="-1.42425">
        <ele>4.39766</ele>
        <time>2023-05-31T14:48:15.000Z</time>
      </trkpt>
      <trkpt lat="46.19431" lon="-1.42423">
        <ele>4.73185</ele>
        <time>2023-05-31T14:48:17.000Z</time>
      </trkpt>
      <trkpt lat="46.19433" lon="-1.42419">
        <ele>5.06228</ele>
        <time>2023-05-31T14:48:20.000Z</time>
      </trkpt>
      <trkpt lat="46.19434" lon="-1.42415">
        <ele>5.3431</ele>
        <time>2023-05-31T14:48:22.000Z</time>
      </trkpt>
      <trkpt lat="46.19435" lon="-1.42411">
        <ele>5.57815</ele>
        <time>2023-05-31T14:48:24.000Z</time>
      </trkpt>
      <trkpt lat="46.19436" lon="-1.42408">
        <ele>5.75043</ele>
        <time>2023-05-31T14:48:26.000Z</time>
      </trkpt>
      <trkpt lat="46.19437" lon="-1.42405">
        <ele>5.89228</ele>
        <time>2023-05-31T14:48:28.000Z</time>
      </trkpt>
      <trkpt lat="46.19437" lon="-1.42402">
        <ele>5.9176</ele>
        <time>2023-05-31T14:48:30.000Z</time>
      </trkpt>
      <trkpt lat="46.19437" lon="-1.42398">
        <ele>5.85962</ele>
        <time>2023-05-31T14:48:32.000Z</time>
      </trkpt>
      <trkpt lat="46.19438" lon="-1.42394">
        <ele>5.76326</ele>
        <time>2023-05-31T14:48:34.000Z</time>
      </trkpt>
      <trkpt lat="46.1944" lon="-1.42392">
        <ele>5.62804</ele>
        <time>2023-05-31T14:48:36.000Z</time>
      </trkpt>
      <trkpt lat="46.19441" lon="-1.4239">
        <ele>5.49643</ele>
        <time>2023-05-31T14:48:43.000Z</time>
      </trkpt>
      <trkpt lat="46.19442" lon="-1.42387">
        <ele>5.33327</ele>
        <time>2023-05-31T14:48:45.000Z</time>
      </trkpt>
      <trkpt lat="46.19443" lon="-1.42383">
        <ele>5.20464</ele>
        <time>2023-05-31T14:48:47.000Z</time>
      </trkpt>
      <trkpt lat="46.19445" lon="-1.42379">
        <ele>5.09297</ele>
        <time>2023-05-31T14:48:49.000Z</time>
      </trkpt>
      <trkpt lat="46.19447" lon="-1.42376">
        <ele>4.9601</ele>
        <time>2023-05-31T14:48:51.000Z</time>
      </trkpt>
      <trkpt lat="46.19448" lon="-1.42371">
        <ele>4.84364</ele>
        <time>2023-05-31T14:48:53.000Z</time>
      </trkpt>
      <trkpt lat="46.19447" lon="-1.42367">
        <ele>4.74652</ele>
        <time>2023-05-31T14:48:55.000Z</time>
      </trkpt>
      <trkpt lat="46.19444" lon="-1.42365">
        <ele>4.72411</ele>
        <time>2023-05-31T14:48:57.000Z</time>
      </trkpt>
      <trkpt lat="46.19442" lon="-1.42367">
        <ele>4.81731</ele>
        <time>2023-05-31T14:48:59.000Z</time>
      </trkpt>
      <trkpt lat="46.19441" lon="-1.4237">
        <ele>4.82504</ele>
        <time>2023-05-31T14:49:08.000Z</time>
      </trkpt>
      <trkpt lat="46.19441" lon="-1.4237">
        <ele>4.82504</ele>
        <time>2023-05-31T14:49:08.000Z</time>
      </trkpt>
      <trkpt lat="46.19447" lon="-1.42374">
        <ele>4.65709</ele>
        <time>2023-05-31T15:34:53.000Z</time>
      </trkpt>
      <trkpt lat="46.19447" lon="-1.42374">
        <ele>4.65709</ele>
        <time>2023-05-31T15:34:53.000Z</time>
      </trkpt>
      <trkpt lat="46.19446" lon="-1.42372">
        <ele>4.67712</ele>
        <time>2023-05-31T15:34:57.000Z</time>
      </trkpt>
      <trkpt lat="46.19444" lon="-1.4237">
        <ele>4.8492</ele>
        <time>2023-05-31T15:35:35.000Z</time>
      </trkpt>
      <trkpt lat="46.19446" lon="-1.42368">
        <ele>4.97697</ele>
        <time>2023-05-31T15:35:55.000Z</time>
      </trkpt>
      <trkpt lat="46.19447" lon="-1.42366">
        <ele>5.05162</ele>
        <time>2023-05-31T15:36:06.000Z</time>
      </trkpt>
      <trkpt lat="46.19449" lon="-1.42364">
        <ele>5.12515</ele>
        <time>2023-05-31T15:36:09.000Z</time>
      </trkpt>
      <trkpt lat="46.19451" lon="-1.42362">
        <ele>5.23196</ele>
        <time>2023-05-31T15:36:11.000Z</time>
      </trkpt>
      <trkpt lat="46.19452" lon="-1.42357">
        <ele>5.35837</ele>
        <time>2023-05-31T15:36:13.000Z</time>
      </trkpt>
      <trkpt lat="46.19453" lon="-1.42353">
        <ele>5.45044</ele>
        <time>2023-05-31T15:36:15.000Z</time>
      </trkpt>
      <trkpt lat="46.19454" lon="-1.42349">
        <ele>5.51992</ele>
        <time>2023-05-31T15:36:17.000Z</time>
      </trkpt>
      <trkpt lat="46.19455" lon="-1.42347">
        <ele>5.6441</ele>
        <time>2023-05-31T15:36:18.000Z</time>
      </trkpt>
      <trkpt lat="46.19456" lon="-1.42342">
        <ele>5.7397</ele>
        <time>2023-05-31T15:36:20.000Z</time>
      </trkpt>
      <trkpt lat="46.19456" lon="-1.42339">
        <ele>5.83665</ele>
        <time>2023-05-31T15:36:22.000Z</time>
      </trkpt>
      <trkpt lat="46.19456" lon="-1.42336">
        <ele>5.96003</ele>
        <time>2023-05-31T15:36:34.000Z</time>
      </trkpt>
      <trkpt lat="46.19458" lon="-1.42333">
        <ele>6.10284</ele>
        <time>2023-05-31T15:36:35.000Z</time>
      </trkpt>
      <trkpt lat="46.19461" lon="-1.42331">
        <ele>6.2746</ele>
        <time>2023-05-31T15:36:36.000Z</time>
      </trkpt>
      <trkpt lat="46.19463" lon="-1.42328">
        <ele>6.44351</ele>
        <time>2023-05-31T15:36:37.000Z</time>
      </trkpt>
      <trkpt lat="46.19464" lon="-1.42323">
        <ele>6.55588</ele>
        <time>2023-05-31T15:36:38.000Z</time>
      </trkpt>
      <trkpt lat="46.19466" lon="-1.42318">
        <ele>6.62559</ele>
        <time>2023-05-31T15:36:39.000Z</time>
      </trkpt>
      <trkpt lat="46.19467" lon="-1.42313">
        <ele>6.67171</ele>
        <time>2023-05-31T15:36:40.000Z</time>
      </trkpt>
      <trkpt lat="46.19469" lon="-1.42307">
        <ele>6.78808</ele>
        <time>2023-05-31T15:36:41.000Z</time>
      </trkpt>
      <trkpt lat="46.19471" lon="-1.42302">
        <ele>6.75369</ele>
        <time>2023-05-31T15:36:42.000Z</time>
      </trkpt>
      <trkpt lat="46.19472" lon="-1.42296">
        <ele>6.57909</ele>
        <time>2023-05-31T15:36:43.000Z</time>
      </trkpt>
      <trkpt lat="46.19474" lon="-1.42289">
        <ele>6.45424</ele>
        <time>2023-05-31T15:36:44.000Z</time>
      </trkpt>
      <trkpt lat="46.19476" lon="-1.42284">
        <ele>6.39975</ele>
        <time>2023-05-31T15:36:45.000Z</time>
      </trkpt>
      <trkpt lat="46.19478" lon="-1.42278">
        <ele>6.35316</ele>
        <time>2023-05-31T15:36:46.000Z</time>
      </trkpt>
      <trkpt lat="46.19479" lon="-1.42271">
        <ele>6.2896</ele>
        <time>2023-05-31T15:36:47.000Z</time>
      </trkpt>
      <trkpt lat="46.19481" lon="-1.42265">
        <ele>6.22651</ele>
        <time>2023-05-31T15:36:48.000Z</time>
      </trkpt>
      <trkpt lat="46.19484" lon="-1.42259">
        <ele>6.17061</ele>
        <time>2023-05-31T15:36:49.000Z</time>
      </trkpt>
      <trkpt lat="46.19486" lon="-1.42253">
        <ele>6.14476</ele>
        <time>2023-05-31T15:36:50.000Z</time>
      </trkpt>
      <trkpt lat="46.19489" lon="-1.42246">
        <ele>6.07593</ele>
        <time>2023-05-31T15:36:51.000Z</time>
      </trkpt>
      <trkpt lat="46.1949" lon="-1.4224">
        <ele>6.03064</ele>
        <time>2023-05-31T15:36:52.000Z</time>
      </trkpt>
      <trkpt lat="46.19491" lon="-1.42233">
        <ele>6.019</ele>
        <time>2023-05-31T15:36:53.000Z</time>
      </trkpt>
      <trkpt lat="46.19493" lon="-1.42228">
        <ele>5.97316</ele>
        <time>2023-05-31T15:36:54.000Z</time>
      </trkpt>
      <trkpt lat="46.19493" lon="-1.42221">
        <ele>5.92328</ele>
        <time>2023-05-31T15:36:55.000Z</time>
      </trkpt>
      <trkpt lat="46.19493" lon="-1.42215">
        <ele>5.85562</ele>
        <time>2023-05-31T15:36:56.000Z</time>
      </trkpt>
      <trkpt lat="46.19495" lon="-1.4221">
        <ele>5.76932</ele>
        <time>2023-05-31T15:36:57.000Z</time>
      </trkpt>
      <trkpt lat="46.19496" lon="-1.42205">
        <ele>5.69113</ele>
        <time>2023-05-31T15:36:58.000Z</time>
      </trkpt>
      <trkpt lat="46.19497" lon="-1.422">
        <ele>5.61295</ele>
        <time>2023-05-31T15:36:59.000Z</time>
      </trkpt>
      <trkpt lat="46.19497" lon="-1.42195">
        <ele>5.55888</ele>
        <time>2023-05-31T15:37:00.000Z</time>
      </trkpt>
      <trkpt lat="46.19498" lon="-1.42191">
        <ele>5.53069</ele>
        <time>2023-05-31T15:37:01.000Z</time>
      </trkpt>
      <trkpt lat="46.19499" lon="-1.42188">
        <ele>5.5177</ele>
        <time>2023-05-31T15:37:02.000Z</time>
      </trkpt>
      <trkpt lat="46.19502" lon="-1.42184">
        <ele>5.48618</ele>
        <time>2023-05-31T15:37:03.000Z</time>
      </trkpt>
      <trkpt lat="46.19503" lon="-1.42181">
        <ele>5.46868</ele>
        <time>2023-05-31T15:37:04.000Z</time>
      </trkpt>
      <trkpt lat="46.19502" lon="-1.42177">
        <ele>5.39613</ele>
        <time>2023-05-31T15:37:05.000Z</time>
      </trkpt>
      <trkpt lat="46.19501" lon="-1.42173">
        <ele>5.35537</ele>
        <time>2023-05-31T15:37:06.000Z</time>
      </trkpt>
      <trkpt lat="46.19502" lon="-1.42169">
        <ele>5.34364</ele>
        <time>2023-05-31T15:37:07.000Z</time>
      </trkpt>
      <trkpt lat="46.19502" lon="-1.42165">
        <ele>5.34456</ele>
        <time>2023-05-31T15:37:08.000Z</time>
      </trkpt>
      <trkpt lat="46.19504" lon="-1.42162">
        <ele>5.3416</ele>
        <time>2023-05-31T15:37:09.000Z</time>
      </trkpt>
      <trkpt lat="46.19506" lon="-1.4216">
        <ele>5.30773</ele>
        <time>2023-05-31T15:37:10.000Z</time>
      </trkpt>
      <trkpt lat="46.19508" lon="-1.42158">
        <ele>5.31174</ele>
        <time>2023-05-31T15:37:11.000Z</time>
      </trkpt>
      <trkpt lat="46.1951" lon="-1.42155">
        <ele>5.39759</ele>
        <time>2023-05-31T15:37:12.000Z</time>
      </trkpt>
      <trkpt lat="46.19511" lon="-1.42152">
        <ele>5.47926</ele>
        <time>2023-05-31T15:37:13.000Z</time>
      </trkpt>
      <trkpt lat="46.19513" lon="-1.42148">
        <ele>5.59481</ele>
        <time>2023-05-31T15:37:14.000Z</time>
      </trkpt>
      <trkpt lat="46.19514" lon="-1.42145">
        <ele>5.73616</ele>
        <time>2023-05-31T15:37:15.000Z</time>
      </trkpt>
      <trkpt lat="46.19515" lon="-1.42141">
        <ele>5.82623</ele>
        <time>2023-05-31T15:37:16.000Z</time>
      </trkpt>
      <trkpt lat="46.19517" lon="-1.42137">
        <ele>5.90127</ele>
        <time>2023-05-31T15:37:17.000Z</time>
      </trkpt>
      <trkpt lat="46.19518" lon="-1.42133">
        <ele>5.96916</ele>
        <time>2023-05-31T15:37:18.000Z</time>
      </trkpt>
      <trkpt lat="46.19519" lon="-1.42129">
        <ele>6.03229</ele>
        <time>2023-05-31T15:37:19.000Z</time>
      </trkpt>
      <trkpt lat="46.19521" lon="-1.42125">
        <ele>6.07524</ele>
        <time>2023-05-31T15:37:20.000Z</time>
      </trkpt>
      <trkpt lat="46.19522" lon="-1.42121">
        <ele>6.11768</ele>
        <time>2023-05-31T15:37:21.000Z</time>
      </trkpt>
      <trkpt lat="46.19524" lon="-1.42117">
        <ele>6.09237</ele>
        <time>2023-05-31T15:37:22.000Z</time>
      </trkpt>
      <trkpt lat="46.19525" lon="-1.42113">
        <ele>6.05378</ele>
        <time>2023-05-31T15:37:23.000Z</time>
      </trkpt>
      <trkpt lat="46.19527" lon="-1.42108">
        <ele>5.97307</ele>
        <time>2023-05-31T15:37:24.000Z</time>
      </trkpt>
      <trkpt lat="46.19529" lon="-1.42104">
        <ele>5.95695</ele>
        <time>2023-05-31T15:37:25.000Z</time>
      </trkpt>
      <trkpt lat="46.19531" lon="-1.421">
        <ele>5.92448</ele>
        <time>2023-05-31T15:37:26.000Z</time>
      </trkpt>
      <trkpt lat="46.19532" lon="-1.42095">
        <ele>5.89234</ele>
        <time>2023-05-31T15:37:27.000Z</time>
      </trkpt>
      <trkpt lat="46.19533" lon="-1.4209">
        <ele>5.89178</ele>
        <time>2023-05-31T15:37:28.000Z</time>
      </trkpt>
      <trkpt lat="46.19535" lon="-1.42086">
        <ele>5.87446</ele>
        <time>2023-05-31T15:37:29.000Z</time>
      </trkpt>
      <trkpt lat="46.19537" lon="-1.42081">
        <ele>5.88418</ele>
        <time>2023-05-31T15:37:30.000Z</time>
      </trkpt>
      <trkpt lat="46.19539" lon="-1.42077">
        <ele>5.93621</ele>
        <time>2023-05-31T15:37:31.000Z</time>
      </trkpt>
      <trkpt lat="46.19542" lon="-1.42073">
        <ele>5.92979</ele>
        <time>2023-05-31T15:37:32.000Z</time>
      </trkpt>
      <trkpt lat="46.19544" lon="-1.42069">
        <ele>5.87683</ele>
        <time>2023-05-31T15:37:33.000Z</time>
      </trkpt>
      <trkpt lat="46.19546" lon="-1.42066">
        <ele>5.79965</ele>
        <time>2023-05-31T15:37:34.000Z</time>
      </trkpt>
      <trkpt lat="46.19548" lon="-1.42062">
        <ele>5.70238</ele>
        <time>2023-05-31T15:37:35.000Z</time>
      </trkpt>
      <trkpt lat="46.19549" lon="-1.42057">
        <ele>5.6484</ele>
        <time>2023-05-31T15:37:36.000Z</time>
      </trkpt>
      <trkpt lat="46.19548" lon="-1.42052">
        <ele>5.57316</ele>
        <time>2023-05-31T15:37:37.000Z</time>
      </trkpt>
      <trkpt lat="46.19547" lon="-1.42047">
        <ele>5.52756</ele>
        <time>2023-05-31T15:37:38.000Z</time>
      </trkpt>
      <trkpt lat="46.19545" lon="-1.42042">
        <ele>5.47371</ele>
        <time>2023-05-31T15:37:39.000Z</time>
      </trkpt>
      <trkpt lat="46.19543" lon="-1.42038">
        <ele>5.43213</ele>
        <time>2023-05-31T15:37:40.000Z</time>
      </trkpt>
      <trkpt lat="46.19541" lon="-1.42033">
        <ele>5.36133</ele>
        <time>2023-05-31T15:37:41.000Z</time>
      </trkpt>
      <trkpt lat="46.19539" lon="-1.42028">
        <ele>5.32937</ele>
        <time>2023-05-31T15:37:42.000Z</time>
      </trkpt>
      <trkpt lat="46.19538" lon="-1.42023">
        <ele>5.30502</ele>
        <time>2023-05-31T15:37:43.000Z</time>
      </trkpt>
      <trkpt lat="46.19537" lon="-1.42019">
        <ele>5.33252</ele>
        <time>2023-05-31T15:37:44.000Z</time>
      </trkpt>
      <trkpt lat="46.19537" lon="-1.42014">
        <ele>5.33876</ele>
        <time>2023-05-31T15:37:45.000Z</time>
      </trkpt>
      <trkpt lat="46.19536" lon="-1.42009">
        <ele>5.33913</ele>
        <time>2023-05-31T15:37:46.000Z</time>
      </trkpt>
      <trkpt lat="46.19536" lon="-1.42004">
        <ele>5.34251</ele>
        <time>2023-05-31T15:37:47.000Z</time>
      </trkpt>
      <trkpt lat="46.19536" lon="-1.42">
        <ele>5.31302</ele>
        <time>2023-05-31T15:37:48.000Z</time>
      </trkpt>
      <trkpt lat="46.19535" lon="-1.41996">
        <ele>5.28318</ele>
        <time>2023-05-31T15:37:49.000Z</time>
      </trkpt>
      <trkpt lat="46.19535" lon="-1.41993">
        <ele>5.26411</ele>
        <time>2023-05-31T15:37:50.000Z</time>
      </trkpt>
      <trkpt lat="46.19535" lon="-1.41989">
        <ele>5.25073</ele>
        <time>2023-05-31T15:37:51.000Z</time>
      </trkpt>
      <trkpt lat="46.19535" lon="-1.41985">
        <ele>5.22772</ele>
        <time>2023-05-31T15:37:52.000Z</time>
      </trkpt>
      <trkpt lat="46.19534" lon="-1.41981">
        <ele>5.23666</ele>
        <time>2023-05-31T15:37:53.000Z</time>
      </trkpt>
      <trkpt lat="46.19534" lon="-1.41976">
        <ele>5.26959</ele>
        <time>2023-05-31T15:37:54.000Z</time>
      </trkpt>
      <trkpt lat="46.19535" lon="-1.41971">
        <ele>5.31428</ele>
        <time>2023-05-31T15:37:55.000Z</time>
      </trkpt>
      <trkpt lat="46.19535" lon="-1.41967">
        <ele>5.36803</ele>
        <time>2023-05-31T15:37:56.000Z</time>
      </trkpt>
      <trkpt lat="46.19535" lon="-1.41963">
        <ele>5.45216</ele>
        <time>2023-05-31T15:37:57.000Z</time>
      </trkpt>
      <trkpt lat="46.19536" lon="-1.41958">
        <ele>5.50463</ele>
        <time>2023-05-31T15:37:58.000Z</time>
      </trkpt>
      <trkpt lat="46.19536" lon="-1.41954">
        <ele>5.55451</ele>
        <time>2023-05-31T15:37:59.000Z</time>
      </trkpt>
      <trkpt lat="46.19537" lon="-1.41951">
        <ele>5.60983</ele>
        <time>2023-05-31T15:38:00.000Z</time>
      </trkpt>
      <trkpt lat="46.19537" lon="-1.41947">
        <ele>5.6887</ele>
        <time>2023-05-31T15:38:01.000Z</time>
      </trkpt>
      <trkpt lat="46.19538" lon="-1.41943">
        <ele>5.77154</ele>
        <time>2023-05-31T15:38:02.000Z</time>
      </trkpt>
      <trkpt lat="46.19538" lon="-1.41939">
        <ele>5.86368</ele>
        <time>2023-05-31T15:38:03.000Z</time>
      </trkpt>
      <trkpt lat="46.19537" lon="-1.41935">
        <ele>5.90966</ele>
        <time>2023-05-31T15:38:04.000Z</time>
      </trkpt>
      <trkpt lat="46.19535" lon="-1.41932">
        <ele>5.9621</ele>
        <time>2023-05-31T15:38:05.000Z</time>
      </trkpt>
      <trkpt lat="46.19531" lon="-1.41929">
        <ele>6.06958</ele>
        <time>2023-05-31T15:38:06.000Z</time>
      </trkpt>
      <trkpt lat="46.19528" lon="-1.41928">
        <ele>6.16001</ele>
        <time>2023-05-31T15:38:07.000Z</time>
      </trkpt>
      <trkpt lat="46.19524" lon="-1.41927">
        <ele>6.25899</ele>
        <time>2023-05-31T15:38:08.000Z</time>
      </trkpt>
      <trkpt lat="46.1952" lon="-1.41927">
        <ele>6.3646</ele>
        <time>2023-05-31T15:38:09.000Z</time>
      </trkpt>
      <trkpt lat="46.19516" lon="-1.41927">
        <ele>6.4785</ele>
        <time>2023-05-31T15:38:10.000Z</time>
      </trkpt>
      <trkpt lat="46.19512" lon="-1.41926">
        <ele>6.52241</ele>
        <time>2023-05-31T15:38:11.000Z</time>
      </trkpt>
      <trkpt lat="46.19508" lon="-1.41926">
        <ele>6.5362</ele>
        <time>2023-05-31T15:38:12.000Z</time>
      </trkpt>
      <trkpt lat="46.19504" lon="-1.41926">
        <ele>6.55752</ele>
        <time>2023-05-31T15:38:13.000Z</time>
      </trkpt>
      <trkpt lat="46.19501" lon="-1.41926">
        <ele>6.56384</ele>
        <time>2023-05-31T15:38:14.000Z</time>
      </trkpt>
      <trkpt lat="46.19497" lon="-1.41926">
        <ele>6.6144</ele>
        <time>2023-05-31T15:38:15.000Z</time>
      </trkpt>
      <trkpt lat="46.19493" lon="-1.41926">
        <ele>6.6259</ele>
        <time>2023-05-31T15:38:16.000Z</time>
      </trkpt>
      <trkpt lat="46.19489" lon="-1.41925">
        <ele>6.64658</ele>
        <time>2023-05-31T15:38:17.000Z</time>
      </trkpt>
      <trkpt lat="46.19485" lon="-1.41924">
        <ele>6.65234</ele>
        <time>2023-05-31T15:38:18.000Z</time>
      </trkpt>
      <trkpt lat="46.19481" lon="-1.41924">
        <ele>6.64063</ele>
        <time>2023-05-31T15:38:19.000Z</time>
      </trkpt>
      <trkpt lat="46.19477" lon="-1.41923">
        <ele>6.6189</ele>
        <time>2023-05-31T15:38:20.000Z</time>
      </trkpt>
      <trkpt lat="46.19474" lon="-1.41922">
        <ele>6.58254</ele>
        <time>2023-05-31T15:38:21.000Z</time>
      </trkpt>
      <trkpt lat="46.1947" lon="-1.41922">
        <ele>6.54227</ele>
        <time>2023-05-31T15:38:22.000Z</time>
      </trkpt>
      <trkpt lat="46.19466" lon="-1.41922">
        <ele>6.49906</ele>
        <time>2023-05-31T15:38:23.000Z</time>
      </trkpt>
      <trkpt lat="46.19462" lon="-1.41922">
        <ele>6.48306</ele>
        <time>2023-05-31T15:38:24.000Z</time>
      </trkpt>
      <trkpt lat="46.19459" lon="-1.41922">
        <ele>6.49342</ele>
        <time>2023-05-31T15:38:25.000Z</time>
      </trkpt>
      <trkpt lat="46.19455" lon="-1.41921">
        <ele>6.45392</ele>
        <time>2023-05-31T15:38:26.000Z</time>
      </trkpt>
      <trkpt lat="46.19452" lon="-1.4192">
        <ele>6.4285</ele>
        <time>2023-05-31T15:38:27.000Z</time>
      </trkpt>
      <trkpt lat="46.19448" lon="-1.41919">
        <ele>6.41095</ele>
        <time>2023-05-31T15:38:28.000Z</time>
      </trkpt>
      <trkpt lat="46.19444" lon="-1.41919">
        <ele>6.4681</ele>
        <time>2023-05-31T15:38:29.000Z</time>
      </trkpt>
      <trkpt lat="46.19441" lon="-1.41918">
        <ele>6.50165</ele>
        <time>2023-05-31T15:38:30.000Z</time>
      </trkpt>
      <trkpt lat="46.19437" lon="-1.41917">
        <ele>6.57451</ele>
        <time>2023-05-31T15:38:31.000Z</time>
      </trkpt>
      <trkpt lat="46.19433" lon="-1.41916">
        <ele>6.67544</ele>
        <time>2023-05-31T15:38:32.000Z</time>
      </trkpt>
      <trkpt lat="46.1943" lon="-1.41915">
        <ele>6.76048</ele>
        <time>2023-05-31T15:38:33.000Z</time>
      </trkpt>
      <trkpt lat="46.19426" lon="-1.41914">
        <ele>6.8856</ele>
        <time>2023-05-31T15:38:34.000Z</time>
      </trkpt>
      <trkpt lat="46.19423" lon="-1.41912">
        <ele>6.94776</ele>
        <time>2023-05-31T15:38:35.000Z</time>
      </trkpt>
      <trkpt lat="46.19421" lon="-1.41912">
        <ele>7.03561</ele>
        <time>2023-05-31T15:38:36.000Z</time>
      </trkpt>
      <trkpt lat="46.19419" lon="-1.41911">
        <ele>7.08985</ele>
        <time>2023-05-31T15:38:37.000Z</time>
      </trkpt>
      <trkpt lat="46.19417" lon="-1.41911">
        <ele>7.1448</ele>
        <time>2023-05-31T15:38:38.000Z</time>
      </trkpt>
      <trkpt lat="46.19414" lon="-1.4191">
        <ele>7.2176</ele>
        <time>2023-05-31T15:38:39.000Z</time>
      </trkpt>
      <trkpt lat="46.19411" lon="-1.41909">
        <ele>7.26595</ele>
        <time>2023-05-31T15:38:40.000Z</time>
      </trkpt>
      <trkpt lat="46.19408" lon="-1.41907">
        <ele>7.32649</ele>
        <time>2023-05-31T15:38:41.000Z</time>
      </trkpt>
      <trkpt lat="46.19406" lon="-1.41905">
        <ele>7.38177</ele>
        <time>2023-05-31T15:38:42.000Z</time>
      </trkpt>
      <trkpt lat="46.19404" lon="-1.41904">
        <ele>7.43561</ele>
        <time>2023-05-31T15:38:43.000Z</time>
      </trkpt>
      <trkpt lat="46.19402" lon="-1.41902">
        <ele>7.49317</ele>
        <time>2023-05-31T15:38:44.000Z</time>
      </trkpt>
      <trkpt lat="46.194" lon="-1.41899">
        <ele>7.53808</ele>
        <time>2023-05-31T15:38:46.000Z</time>
      </trkpt>
      <trkpt lat="46.19399" lon="-1.41894">
        <ele>7.5823</ele>
        <time>2023-05-31T15:38:48.000Z</time>
      </trkpt>
      <trkpt lat="46.194" lon="-1.4189">
        <ele>7.51587</ele>
        <time>2023-05-31T15:38:50.000Z</time>
      </trkpt>
      <trkpt lat="46.19401" lon="-1.41887">
        <ele>7.43156</ele>
        <time>2023-05-31T15:38:51.000Z</time>
      </trkpt>
      <trkpt lat="46.19402" lon="-1.41884">
        <ele>7.28161</ele>
        <time>2023-05-31T15:38:52.000Z</time>
      </trkpt>
      <trkpt lat="46.19404" lon="-1.41881">
        <ele>7.11692</ele>
        <time>2023-05-31T15:38:53.000Z</time>
      </trkpt>
      <trkpt lat="46.19406" lon="-1.41877">
        <ele>6.93744</ele>
        <time>2023-05-31T15:38:54.000Z</time>
      </trkpt>
      <trkpt lat="46.19407" lon="-1.41874">
        <ele>6.80206</ele>
        <time>2023-05-31T15:38:55.000Z</time>
      </trkpt>
      <trkpt lat="46.19409" lon="-1.4187">
        <ele>6.65898</ele>
        <time>2023-05-31T15:38:56.000Z</time>
      </trkpt>
      <trkpt lat="46.1941" lon="-1.41866">
        <ele>6.4912</ele>
        <time>2023-05-31T15:38:57.000Z</time>
      </trkpt>
      <trkpt lat="46.19412" lon="-1.41862">
        <ele>6.31679</ele>
        <time>2023-05-31T15:38:58.000Z</time>
      </trkpt>
      <trkpt lat="46.19413" lon="-1.41858">
        <ele>6.12067</ele>
        <time>2023-05-31T15:38:59.000Z</time>
      </trkpt>
      <trkpt lat="46.19414" lon="-1.41853">
        <ele>5.94161</ele>
        <time>2023-05-31T15:39:00.000Z</time>
      </trkpt>
      <trkpt lat="46.19415" lon="-1.41849">
        <ele>5.79317</ele>
        <time>2023-05-31T15:39:01.000Z</time>
      </trkpt>
      <trkpt lat="46.19417" lon="-1.41844">
        <ele>5.63677</ele>
        <time>2023-05-31T15:39:02.000Z</time>
      </trkpt>
      <trkpt lat="46.19418" lon="-1.41839">
        <ele>5.53179</ele>
        <time>2023-05-31T15:39:03.000Z</time>
      </trkpt>
      <trkpt lat="46.19419" lon="-1.41835">
        <ele>5.43144</ele>
        <time>2023-05-31T15:39:04.000Z</time>
      </trkpt>
      <trkpt lat="46.1942" lon="-1.4183">
        <ele>5.32697</ele>
        <time>2023-05-31T15:39:05.000Z</time>
      </trkpt>
      <trkpt lat="46.1942" lon="-1.41825">
        <ele>5.21481</ele>
        <time>2023-05-31T15:39:06.000Z</time>
      </trkpt>
      <trkpt lat="46.19421" lon="-1.4182">
        <ele>5.10657</ele>
        <time>2023-05-31T15:39:07.000Z</time>
      </trkpt>
      <trkpt lat="46.19421" lon="-1.41815">
        <ele>4.9767</ele>
        <time>2023-05-31T15:39:08.000Z</time>
      </trkpt>
      <trkpt lat="46.19422" lon="-1.4181">
        <ele>4.8425</ele>
        <time>2023-05-31T15:39:09.000Z</time>
      </trkpt>
      <trkpt lat="46.19422" lon="-1.41805">
        <ele>4.83121</ele>
        <time>2023-05-31T15:39:10.000Z</time>
      </trkpt>
      <trkpt lat="46.19422" lon="-1.418">
        <ele>4.82912</ele>
        <time>2023-05-31T15:39:11.000Z</time>
      </trkpt>
      <trkpt lat="46.19422" lon="-1.41795">
        <ele>4.81495</ele>
        <time>2023-05-31T15:39:12.000Z</time>
      </trkpt>
      <trkpt lat="46.19422" lon="-1.41789">
        <ele>4.87697</ele>
        <time>2023-05-31T15:39:13.000Z</time>
      </trkpt>
      <trkpt lat="46.19421" lon="-1.41784">
        <ele>4.93433</ele>
        <time>2023-05-31T15:39:14.000Z</time>
      </trkpt>
      <trkpt lat="46.19421" lon="-1.41779">
        <ele>4.95793</ele>
        <time>2023-05-31T15:39:15.000Z</time>
      </trkpt>
      <trkpt lat="46.1942" lon="-1.41774">
        <ele>4.97721</ele>
        <time>2023-05-31T15:39:16.000Z</time>
      </trkpt>
      <trkpt lat="46.1942" lon="-1.41769">
        <ele>5.02573</ele>
        <time>2023-05-31T15:39:17.000Z</time>
      </trkpt>
      <trkpt lat="46.19419" lon="-1.41764">
        <ele>5.07437</ele>
        <time>2023-05-31T15:39:18.000Z</time>
      </trkpt>
      <trkpt lat="46.19419" lon="-1.41759">
        <ele>5.15008</ele>
        <time>2023-05-31T15:39:19.000Z</time>
      </trkpt>
      <trkpt lat="46.19418" lon="-1.41755">
        <ele>5.21831</ele>
        <time>2023-05-31T15:39:20.000Z</time>
      </trkpt>
      <trkpt lat="46.19417" lon="-1.4175">
        <ele>5.29401</ele>
        <time>2023-05-31T15:39:21.000Z</time>
      </trkpt>
      <trkpt lat="46.19416" lon="-1.41745">
        <ele>5.40536</ele>
        <time>2023-05-31T15:39:22.000Z</time>
      </trkpt>
      <trkpt lat="46.19416" lon="-1.4174">
        <ele>5.49774</ele>
        <time>2023-05-31T15:39:23.000Z</time>
      </trkpt>
      <trkpt lat="46.19415" lon="-1.41735">
        <ele>5.57368</ele>
        <time>2023-05-31T15:39:24.000Z</time>
      </trkpt>
      <trkpt lat="46.19414" lon="-1.4173">
        <ele>5.65232</ele>
        <time>2023-05-31T15:39:25.000Z</time>
      </trkpt>
      <trkpt lat="46.19413" lon="-1.41725">
        <ele>5.72602</ele>
        <time>2023-05-31T15:39:26.000Z</time>
      </trkpt>
      <trkpt lat="46.19411" lon="-1.41719">
        <ele>5.84059</ele>
        <time>2023-05-31T15:39:27.000Z</time>
      </trkpt>
      <trkpt lat="46.19409" lon="-1.41714">
        <ele>5.95355</ele>
        <time>2023-05-31T15:39:28.000Z</time>
      </trkpt>
      <trkpt lat="46.19407" lon="-1.41709">
        <ele>6.08916</ele>
        <time>2023-05-31T15:39:29.000Z</time>
      </trkpt>
      <trkpt lat="46.19405" lon="-1.41704">
        <ele>6.21196</ele>
        <time>2023-05-31T15:39:30.000Z</time>
      </trkpt>
      <trkpt lat="46.19404" lon="-1.41699">
        <ele>6.33996</ele>
        <time>2023-05-31T15:39:31.000Z</time>
      </trkpt>
      <trkpt lat="46.19402" lon="-1.41694">
        <ele>6.45461</ele>
        <time>2023-05-31T15:39:32.000Z</time>
      </trkpt>
      <trkpt lat="46.194" lon="-1.41689">
        <ele>6.52628</ele>
        <time>2023-05-31T15:39:33.000Z</time>
      </trkpt>
      <trkpt lat="46.19398" lon="-1.41684">
        <ele>6.60589</ele>
        <time>2023-05-31T15:39:34.000Z</time>
      </trkpt>
      <trkpt lat="46.19396" lon="-1.4168">
        <ele>6.69134</ele>
        <time>2023-05-31T15:39:35.000Z</time>
      </trkpt>
      <trkpt lat="46.19394" lon="-1.41675">
        <ele>6.78979</ele>
        <time>2023-05-31T15:39:36.000Z</time>
      </trkpt>
      <trkpt lat="46.19391" lon="-1.4167">
        <ele>6.83373</ele>
        <time>2023-05-31T15:39:37.000Z</time>
      </trkpt>
      <trkpt lat="46.19389" lon="-1.41665">
        <ele>6.87985</ele>
        <time>2023-05-31T15:39:38.000Z</time>
      </trkpt>
      <trkpt lat="46.19387" lon="-1.4166">
        <ele>6.92393</ele>
        <time>2023-05-31T15:39:39.000Z</time>
      </trkpt>
      <trkpt lat="46.19385" lon="-1.41655">
        <ele>6.97751</ele>
        <time>2023-05-31T15:39:40.000Z</time>
      </trkpt>
      <trkpt lat="46.19383" lon="-1.4165">
        <ele>6.97811</ele>
        <time>2023-05-31T15:39:41.000Z</time>
      </trkpt>
      <trkpt lat="46.19381" lon="-1.41645">
        <ele>6.95203</ele>
        <time>2023-05-31T15:39:42.000Z</time>
      </trkpt>
      <trkpt lat="46.1938" lon="-1.4164">
        <ele>6.90952</ele>
        <time>2023-05-31T15:39:43.000Z</time>
      </trkpt>
      <trkpt lat="46.19378" lon="-1.41634">
        <ele>6.86554</ele>
        <time>2023-05-31T15:39:44.000Z</time>
      </trkpt>
      <trkpt lat="46.19377" lon="-1.41629">
        <ele>6.8827</ele>
        <time>2023-05-31T15:39:45.000Z</time>
      </trkpt>
      <trkpt lat="46.19376" lon="-1.41624">
        <ele>6.898</ele>
        <time>2023-05-31T15:39:46.000Z</time>
      </trkpt>
      <trkpt lat="46.19375" lon="-1.41618">
        <ele>6.88433</ele>
        <time>2023-05-31T15:39:47.000Z</time>
      </trkpt>
      <trkpt lat="46.19375" lon="-1.41613">
        <ele>6.90181</ele>
        <time>2023-05-31T15:39:48.000Z</time>
      </trkpt>
      <trkpt lat="46.19374" lon="-1.41607">
        <ele>6.89303</ele>
        <time>2023-05-31T15:39:49.000Z</time>
      </trkpt>
      <trkpt lat="46.19374" lon="-1.41601">
        <ele>6.90853</ele>
        <time>2023-05-31T15:39:50.000Z</time>
      </trkpt>
      <trkpt lat="46.19373" lon="-1.41595">
        <ele>6.92727</ele>
        <time>2023-05-31T15:39:51.000Z</time>
      </trkpt>
      <trkpt lat="46.19373" lon="-1.41589">
        <ele>6.95413</ele>
        <time>2023-05-31T15:39:52.000Z</time>
      </trkpt>
      <trkpt lat="46.19373" lon="-1.41582">
        <ele>6.99259</ele>
        <time>2023-05-31T15:39:53.000Z</time>
      </trkpt>
      <trkpt lat="46.19372" lon="-1.41577">
        <ele>6.96704</ele>
        <time>2023-05-31T15:39:54.000Z</time>
      </trkpt>
      <trkpt lat="46.19372" lon="-1.41571">
        <ele>6.93046</ele>
        <time>2023-05-31T15:39:55.000Z</time>
      </trkpt>
      <trkpt lat="46.19372" lon="-1.41565">
        <ele>6.92607</ele>
        <time>2023-05-31T15:39:56.000Z</time>
      </trkpt>
      <trkpt lat="46.19371" lon="-1.41558">
        <ele>6.95619</ele>
        <time>2023-05-31T15:39:57.000Z</time>
      </trkpt>
      <trkpt lat="46.19371" lon="-1.41552">
        <ele>6.98231</ele>
        <time>2023-05-31T15:39:58.000Z</time>
      </trkpt>
      <trkpt lat="46.19371" lon="-1.41546">
        <ele>7.00256</ele>
        <time>2023-05-31T15:39:59.000Z</time>
      </trkpt>
      <trkpt lat="46.19371" lon="-1.4154">
        <ele>7.06319</ele>
        <time>2023-05-31T15:40:00.000Z</time>
      </trkpt>
      <trkpt lat="46.19371" lon="-1.41534">
        <ele>7.13771</ele>
        <time>2023-05-31T15:40:01.000Z</time>
      </trkpt>
      <trkpt lat="46.1937" lon="-1.41527">
        <ele>7.20701</ele>
        <time>2023-05-31T15:40:02.000Z</time>
      </trkpt>
      <trkpt lat="46.19369" lon="-1.41522">
        <ele>7.25277</ele>
        <time>2023-05-31T15:40:03.000Z</time>
      </trkpt>
      <trkpt lat="46.19368" lon="-1.41516">
        <ele>7.2994</ele>
        <time>2023-05-31T15:40:04.000Z</time>
      </trkpt>
      <trkpt lat="46.19366" lon="-1.4151">
        <ele>7.27763</ele>
        <time>2023-05-31T15:40:05.000Z</time>
      </trkpt>
      <trkpt lat="46.19365" lon="-1.41503">
        <ele>7.2687</ele>
        <time>2023-05-31T15:40:06.000Z</time>
      </trkpt>
      <trkpt lat="46.19363" lon="-1.41497">
        <ele>7.24048</ele>
        <time>2023-05-31T15:40:07.000Z</time>
      </trkpt>
      <trkpt lat="46.19362" lon="-1.4149">
        <ele>7.23129</ele>
        <time>2023-05-31T15:40:08.000Z</time>
      </trkpt>
      <trkpt lat="46.19361" lon="-1.41485">
        <ele>7.2096</ele>
        <time>2023-05-31T15:40:09.000Z</time>
      </trkpt>
      <trkpt lat="46.19359" lon="-1.41479">
        <ele>7.19322</ele>
        <time>2023-05-31T15:40:10.000Z</time>
      </trkpt>
      <trkpt lat="46.19357" lon="-1.41472">
        <ele>7.16095</ele>
        <time>2023-05-31T15:40:11.000Z</time>
      </trkpt>
      <trkpt lat="46.19356" lon="-1.41466">
        <ele>7.16553</ele>
        <time>2023-05-31T15:40:12.000Z</time>
      </trkpt>
      <trkpt lat="46.19355" lon="-1.4146">
        <ele>7.13432</ele>
        <time>2023-05-31T15:40:13.000Z</time>
      </trkpt>
      <trkpt lat="46.19354" lon="-1.41455">
        <ele>7.17591</ele>
        <time>2023-05-31T15:40:14.000Z</time>
      </trkpt>
      <trkpt lat="46.19352" lon="-1.41448">
        <ele>7.2051</ele>
        <time>2023-05-31T15:40:15.000Z</time>
      </trkpt>
      <trkpt lat="46.1935" lon="-1.41442">
        <ele>7.18423</ele>
        <time>2023-05-31T15:40:16.000Z</time>
      </trkpt>
      <trkpt lat="46.19349" lon="-1.41436">
        <ele>7.15793</ele>
        <time>2023-05-31T15:40:17.000Z</time>
      </trkpt>
      <trkpt lat="46.19348" lon="-1.4143">
        <ele>7.13431</ele>
        <time>2023-05-31T15:40:18.000Z</time>
      </trkpt>
      <trkpt lat="46.19347" lon="-1.41423">
        <ele>7.12212</ele>
        <time>2023-05-31T15:40:19.000Z</time>
      </trkpt>
      <trkpt lat="46.19345" lon="-1.41417">
        <ele>7.0525</ele>
        <time>2023-05-31T15:40:20.000Z</time>
      </trkpt>
      <trkpt lat="46.19343" lon="-1.41411">
        <ele>6.94781</ele>
        <time>2023-05-31T15:40:21.000Z</time>
      </trkpt>
      <trkpt lat="46.19343" lon="-1.41404">
        <ele>6.8253</ele>
        <time>2023-05-31T15:40:22.000Z</time>
      </trkpt>
      <trkpt lat="46.19343" lon="-1.41398">
        <ele>6.74869</ele>
        <time>2023-05-31T15:40:23.000Z</time>
      </trkpt>
      <trkpt lat="46.19343" lon="-1.4139">
        <ele>6.69478</ele>
        <time>2023-05-31T15:40:24.000Z</time>
      </trkpt>
      <trkpt lat="46.19343" lon="-1.41383">
        <ele>6.66375</ele>
        <time>2023-05-31T15:40:25.000Z</time>
      </trkpt>
      <trkpt lat="46.19343" lon="-1.41377">
        <ele>6.63544</ele>
        <time>2023-05-31T15:40:26.000Z</time>
      </trkpt>
      <trkpt lat="46.19342" lon="-1.4137">
        <ele>6.64958</ele>
        <time>2023-05-31T15:40:27.000Z</time>
      </trkpt>
      <trkpt lat="46.19343" lon="-1.41363">
        <ele>6.6308</ele>
        <time>2023-05-31T15:40:28.000Z</time>
      </trkpt>
      <trkpt lat="46.19345" lon="-1.41357">
        <ele>6.64732</ele>
        <time>2023-05-31T15:40:29.000Z</time>
      </trkpt>
      <trkpt lat="46.19346" lon="-1.41349">
        <ele>6.61346</ele>
        <time>2023-05-31T15:40:30.000Z</time>
      </trkpt>
      <trkpt lat="46.19348" lon="-1.41342">
        <ele>6.6216</ele>
        <time>2023-05-31T15:40:31.000Z</time>
      </trkpt>
      <trkpt lat="46.1935" lon="-1.41335">
        <ele>6.58746</ele>
        <time>2023-05-31T15:40:32.000Z</time>
      </trkpt>
      <trkpt lat="46.19353" lon="-1.41329">
        <ele>6.656</ele>
        <time>2023-05-31T15:40:33.000Z</time>
      </trkpt>
      <trkpt lat="46.19356" lon="-1.41324">
        <ele>6.70054</ele>
        <time>2023-05-31T15:40:34.000Z</time>
      </trkpt>
      <trkpt lat="46.19359" lon="-1.41318">
        <ele>6.77088</ele>
        <time>2023-05-31T15:40:35.000Z</time>
      </trkpt>
      <trkpt lat="46.19362" lon="-1.41312">
        <ele>6.82383</ele>
        <time>2023-05-31T15:40:36.000Z</time>
      </trkpt>
      <trkpt lat="46.19365" lon="-1.41305">
        <ele>6.85061</ele>
        <time>2023-05-31T15:40:37.000Z</time>
      </trkpt>
      <trkpt lat="46.19368" lon="-1.413">
        <ele>6.87055</ele>
        <time>2023-05-31T15:40:38.000Z</time>
      </trkpt>
      <trkpt lat="46.1937" lon="-1.41294">
        <ele>6.87922</ele>
        <time>2023-05-31T15:40:39.000Z</time>
      </trkpt>
      <trkpt lat="46.19372" lon="-1.41287">
        <ele>6.88514</ele>
        <time>2023-05-31T15:40:40.000Z</time>
      </trkpt>
      <trkpt lat="46.19374" lon="-1.41279">
        <ele>6.91298</ele>
        <time>2023-05-31T15:40:41.000Z</time>
      </trkpt>
      <trkpt lat="46.19375" lon="-1.41272">
        <ele>6.96014</ele>
        <time>2023-05-31T15:40:42.000Z</time>
      </trkpt>
      <trkpt lat="46.19377" lon="-1.41264">
        <ele>6.98238</ele>
        <time>2023-05-31T15:40:43.000Z</time>
      </trkpt>
      <trkpt lat="46.19379" lon="-1.41257">
        <ele>6.99866</ele>
        <time>2023-05-31T15:40:44.000Z</time>
      </trkpt>
      <trkpt lat="46.1938" lon="-1.41251">
        <ele>7.01579</ele>
        <time>2023-05-31T15:40:45.000Z</time>
      </trkpt>
      <trkpt lat="46.19381" lon="-1.41243">
        <ele>7.05915</ele>
        <time>2023-05-31T15:40:46.000Z</time>
      </trkpt>
      <trkpt lat="46.19382" lon="-1.41236">
        <ele>7.03284</ele>
        <time>2023-05-31T15:40:47.000Z</time>
      </trkpt>
      <trkpt lat="46.19383" lon="-1.41228">
        <ele>6.9808</ele>
        <time>2023-05-31T15:40:48.000Z</time>
      </trkpt>
      <trkpt lat="46.19383" lon="-1.41222">
        <ele>6.90377</ele>
        <time>2023-05-31T15:40:49.000Z</time>
      </trkpt>
      <trkpt lat="46.19385" lon="-1.41216">
        <ele>6.8306</ele>
        <time>2023-05-31T15:40:50.000Z</time>
      </trkpt>
      <trkpt lat="46.19385" lon="-1.41209">
        <ele>6.67635</ele>
        <time>2023-05-31T15:40:51.000Z</time>
      </trkpt>
      <trkpt lat="46.19386" lon="-1.41201">
        <ele>6.54601</ele>
        <time>2023-05-31T15:40:52.000Z</time>
      </trkpt>
      <trkpt lat="46.19387" lon="-1.41194">
        <ele>6.31552</ele>
        <time>2023-05-31T15:40:53.000Z</time>
      </trkpt>
      <trkpt lat="46.19387" lon="-1.41186">
        <ele>6.09034</ele>
        <time>2023-05-31T15:40:54.000Z</time>
      </trkpt>
      <trkpt lat="46.19388" lon="-1.41179">
        <ele>5.86984</ele>
        <time>2023-05-31T15:40:55.000Z</time>
      </trkpt>
      <trkpt lat="46.1939" lon="-1.41172">
        <ele>5.6858</ele>
        <time>2023-05-31T15:40:56.000Z</time>
      </trkpt>
      <trkpt lat="46.19391" lon="-1.41165">
        <ele>5.5578</ele>
        <time>2023-05-31T15:40:57.000Z</time>
      </trkpt>
      <trkpt lat="46.19393" lon="-1.41157">
        <ele>5.41351</ele>
        <time>2023-05-31T15:40:58.000Z</time>
      </trkpt>
      <trkpt lat="46.19396" lon="-1.41151">
        <ele>5.27963</ele>
        <time>2023-05-31T15:40:59.000Z</time>
      </trkpt>
      <trkpt lat="46.19398" lon="-1.41144">
        <ele>5.18144</ele>
        <time>2023-05-31T15:41:00.000Z</time>
      </trkpt>
      <trkpt lat="46.19399" lon="-1.41137">
        <ele>5.11337</ele>
        <time>2023-05-31T15:41:01.000Z</time>
      </trkpt>
      <trkpt lat="46.19401" lon="-1.4113">
        <ele>5.05857</ele>
        <time>2023-05-31T15:41:02.000Z</time>
      </trkpt>
      <trkpt lat="46.19403" lon="-1.41123">
        <ele>5.00066</ele>
        <time>2023-05-31T15:41:03.000Z</time>
      </trkpt>
      <trkpt lat="46.19406" lon="-1.41116">
        <ele>4.92949</ele>
        <time>2023-05-31T15:41:04.000Z</time>
      </trkpt>
      <trkpt lat="46.19408" lon="-1.41109">
        <ele>4.86574</ele>
        <time>2023-05-31T15:41:05.000Z</time>
      </trkpt>
      <trkpt lat="46.1941" lon="-1.41102">
        <ele>4.77487</ele>
        <time>2023-05-31T15:41:06.000Z</time>
      </trkpt>
      <trkpt lat="46.19411" lon="-1.41095">
        <ele>4.71207</ele>
        <time>2023-05-31T15:41:07.000Z</time>
      </trkpt>
      <trkpt lat="46.19412" lon="-1.41087">
        <ele>4.67503</ele>
        <time>2023-05-31T15:41:08.000Z</time>
      </trkpt>
      <trkpt lat="46.19413" lon="-1.41079">
        <ele>4.61544</ele>
        <time>2023-05-31T15:41:09.000Z</time>
      </trkpt>
      <trkpt lat="46.19415" lon="-1.41072">
        <ele>4.56951</ele>
        <time>2023-05-31T15:41:10.000Z</time>
      </trkpt>
      <trkpt lat="46.19417" lon="-1.41064">
        <ele>4.59543</ele>
        <time>2023-05-31T15:41:11.000Z</time>
      </trkpt>
      <trkpt lat="46.19418" lon="-1.41058">
        <ele>4.61508</ele>
        <time>2023-05-31T15:41:12.000Z</time>
      </trkpt>
      <trkpt lat="46.19417" lon="-1.41051">
        <ele>4.64452</ele>
        <time>2023-05-31T15:41:13.000Z</time>
      </trkpt>
      <trkpt lat="46.19416" lon="-1.41043">
        <ele>4.69568</ele>
        <time>2023-05-31T15:41:14.000Z</time>
      </trkpt>
      <trkpt lat="46.19415" lon="-1.41036">
        <ele>4.7534</ele>
        <time>2023-05-31T15:41:15.000Z</time>
      </trkpt>
      <trkpt lat="46.19413" lon="-1.41029">
        <ele>4.80921</ele>
        <time>2023-05-31T15:41:16.000Z</time>
      </trkpt>
      <trkpt lat="46.19411" lon="-1.41022">
        <ele>4.82838</ele>
        <time>2023-05-31T15:41:17.000Z</time>
      </trkpt>
      <trkpt lat="46.19408" lon="-1.41015">
        <ele>4.87536</ele>
        <time>2023-05-31T15:41:18.000Z</time>
      </trkpt>
      <trkpt lat="46.19405" lon="-1.41008">
        <ele>4.89533</ele>
        <time>2023-05-31T15:41:19.000Z</time>
      </trkpt>
      <trkpt lat="46.19404" lon="-1.41002">
        <ele>4.90597</ele>
        <time>2023-05-31T15:41:20.000Z</time>
      </trkpt>
      <trkpt lat="46.19402" lon="-1.40995">
        <ele>4.93071</ele>
        <time>2023-05-31T15:41:21.000Z</time>
      </trkpt>
      <trkpt lat="46.19401" lon="-1.40988">
        <ele>4.9498</ele>
        <time>2023-05-31T15:41:22.000Z</time>
      </trkpt>
      <trkpt lat="46.194" lon="-1.40981">
        <ele>4.97623</ele>
        <time>2023-05-31T15:41:23.000Z</time>
      </trkpt>
      <trkpt lat="46.19398" lon="-1.40974">
        <ele>4.99801</ele>
        <time>2023-05-31T15:41:24.000Z</time>
      </trkpt>
      <trkpt lat="46.19396" lon="-1.40967">
        <ele>4.98992</ele>
        <time>2023-05-31T15:41:25.000Z</time>
      </trkpt>
      <trkpt lat="46.19395" lon="-1.40959">
        <ele>4.98752</ele>
        <time>2023-05-31T15:41:26.000Z</time>
      </trkpt>
      <trkpt lat="46.19393" lon="-1.40951">
        <ele>4.98373</ele>
        <time>2023-05-31T15:41:27.000Z</time>
      </trkpt>
      <trkpt lat="46.19391" lon="-1.40944">
        <ele>4.99098</ele>
        <time>2023-05-31T15:41:28.000Z</time>
      </trkpt>
      <trkpt lat="46.19389" lon="-1.40937">
        <ele>5.03756</ele>
        <time>2023-05-31T15:41:29.000Z</time>
      </trkpt>
      <trkpt lat="46.19388" lon="-1.40929">
        <ele>5.11408</ele>
        <time>2023-05-31T15:41:30.000Z</time>
      </trkpt>
      <trkpt lat="46.19386" lon="-1.40922">
        <ele>5.17687</ele>
        <time>2023-05-31T15:41:31.000Z</time>
      </trkpt>
      <trkpt lat="46.19385" lon="-1.40914">
        <ele>5.24237</ele>
        <time>2023-05-31T15:41:32.000Z</time>
      </trkpt>
      <trkpt lat="46.19383" lon="-1.40907">
        <ele>5.3185</ele>
        <time>2023-05-31T15:41:33.000Z</time>
      </trkpt>
      <trkpt lat="46.19381" lon="-1.40899">
        <ele>5.37378</ele>
        <time>2023-05-31T15:41:34.000Z</time>
      </trkpt>
      <trkpt lat="46.19379" lon="-1.40892">
        <ele>5.39794</ele>
        <time>2023-05-31T15:41:35.000Z</time>
      </trkpt>
      <trkpt lat="46.19378" lon="-1.40885">
        <ele>5.42865</ele>
        <time>2023-05-31T15:41:36.000Z</time>
      </trkpt>
      <trkpt lat="46.19377" lon="-1.40878">
        <ele>5.49022</ele>
        <time>2023-05-31T15:41:37.000Z</time>
      </trkpt>
      <trkpt lat="46.19375" lon="-1.40871">
        <ele>5.55023</ele>
        <time>2023-05-31T15:41:38.000Z</time>
      </trkpt>
      <trkpt lat="46.19373" lon="-1.40864">
        <ele>5.61334</ele>
        <time>2023-05-31T15:41:39.000Z</time>
      </trkpt>
      <trkpt lat="46.19372" lon="-1.40857">
        <ele>5.66131</ele>
        <time>2023-05-31T15:41:40.000Z</time>
      </trkpt>
      <trkpt lat="46.19371" lon="-1.4085">
        <ele>5.63667</ele>
        <time>2023-05-31T15:41:41.000Z</time>
      </trkpt>
      <trkpt lat="46.19369" lon="-1.40843">
        <ele>5.62207</ele>
        <time>2023-05-31T15:41:42.000Z</time>
      </trkpt>
      <trkpt lat="46.19368" lon="-1.40835">
        <ele>5.59333</ele>
        <time>2023-05-31T15:41:43.000Z</time>
      </trkpt>
      <trkpt lat="46.19366" lon="-1.40827">
        <ele>5.55533</ele>
        <time>2023-05-31T15:41:44.000Z</time>
      </trkpt>
      <trkpt lat="46.19364" lon="-1.4082">
        <ele>5.58428</ele>
        <time>2023-05-31T15:41:45.000Z</time>
      </trkpt>
      <trkpt lat="46.19363" lon="-1.40812">
        <ele>5.61242</ele>
        <time>2023-05-31T15:41:46.000Z</time>
      </trkpt>
      <trkpt lat="46.19361" lon="-1.40804">
        <ele>5.62832</ele>
        <time>2023-05-31T15:41:47.000Z</time>
      </trkpt>
      <trkpt lat="46.19359" lon="-1.40797">
        <ele>5.63927</ele>
        <time>2023-05-31T15:41:48.000Z</time>
      </trkpt>
      <trkpt lat="46.19357" lon="-1.4079">
        <ele>5.63892</ele>
        <time>2023-05-31T15:41:49.000Z</time>
      </trkpt>
      <trkpt lat="46.19354" lon="-1.40783">
        <ele>5.6027</ele>
        <time>2023-05-31T15:41:50.000Z</time>
      </trkpt>
      <trkpt lat="46.19352" lon="-1.40776">
        <ele>5.56737</ele>
        <time>2023-05-31T15:41:51.000Z</time>
      </trkpt>
      <trkpt lat="46.1935" lon="-1.40768">
        <ele>5.51236</ele>
        <time>2023-05-31T15:41:52.000Z</time>
      </trkpt>
      <trkpt lat="46.19348" lon="-1.4076">
        <ele>5.47264</ele>
        <time>2023-05-31T15:41:53.000Z</time>
      </trkpt>
      <trkpt lat="46.19345" lon="-1.40752">
        <ele>5.42747</ele>
        <time>2023-05-31T15:41:54.000Z</time>
      </trkpt>
      <trkpt lat="46.19344" lon="-1.40745">
        <ele>5.41405</ele>
        <time>2023-05-31T15:41:55.000Z</time>
      </trkpt>
      <trkpt lat="46.19342" lon="-1.40738">
        <ele>5.43357</ele>
        <time>2023-05-31T15:41:56.000Z</time>
      </trkpt>
      <trkpt lat="46.19339" lon="-1.40731">
        <ele>5.42405</ele>
        <time>2023-05-31T15:41:57.000Z</time>
      </trkpt>
      <trkpt lat="46.19337" lon="-1.40723">
        <ele>5.40229</ele>
        <time>2023-05-31T15:41:58.000Z</time>
      </trkpt>
      <trkpt lat="46.19335" lon="-1.40715">
        <ele>5.3745</ele>
        <time>2023-05-31T15:41:59.000Z</time>
      </trkpt>
      <trkpt lat="46.19332" lon="-1.40707">
        <ele>5.31904</ele>
        <time>2023-05-31T15:42:00.000Z</time>
      </trkpt>
      <trkpt lat="46.19331" lon="-1.407">
        <ele>5.31994</ele>
        <time>2023-05-31T15:42:01.000Z</time>
      </trkpt>
      <trkpt lat="46.19329" lon="-1.40691">
        <ele>5.31749</ele>
        <time>2023-05-31T15:42:02.000Z</time>
      </trkpt>
      <trkpt lat="46.19327" lon="-1.40684">
        <ele>5.27242</ele>
        <time>2023-05-31T15:42:03.000Z</time>
      </trkpt>
      <trkpt lat="46.19325" lon="-1.40677">
        <ele>5.24694</ele>
        <time>2023-05-31T15:42:04.000Z</time>
      </trkpt>
      <trkpt lat="46.19323" lon="-1.4067">
        <ele>5.22685</ele>
        <time>2023-05-31T15:42:05.000Z</time>
      </trkpt>
      <trkpt lat="46.19321" lon="-1.40663">
        <ele>5.1722</ele>
        <time>2023-05-31T15:42:06.000Z</time>
      </trkpt>
      <trkpt lat="46.1932" lon="-1.40656">
        <ele>5.15993</ele>
        <time>2023-05-31T15:42:07.000Z</time>
      </trkpt>
      <trkpt lat="46.19318" lon="-1.40649">
        <ele>5.16912</ele>
        <time>2023-05-31T15:42:08.000Z</time>
      </trkpt>
      <trkpt lat="46.19317" lon="-1.40641">
        <ele>5.19923</ele>
        <time>2023-05-31T15:42:09.000Z</time>
      </trkpt>
      <trkpt lat="46.19317" lon="-1.40633">
        <ele>5.24072</ele>
        <time>2023-05-31T15:42:10.000Z</time>
      </trkpt>
      <trkpt lat="46.19315" lon="-1.40625">
        <ele>5.27923</ele>
        <time>2023-05-31T15:42:11.000Z</time>
      </trkpt>
      <trkpt lat="46.19314" lon="-1.40618">
        <ele>5.31794</ele>
        <time>2023-05-31T15:42:12.000Z</time>
      </trkpt>
      <trkpt lat="46.19312" lon="-1.4061">
        <ele>5.32728</ele>
        <time>2023-05-31T15:42:13.000Z</time>
      </trkpt>
      <trkpt lat="46.19311" lon="-1.40602">
        <ele>5.34712</ele>
        <time>2023-05-31T15:42:14.000Z</time>
      </trkpt>
      <trkpt lat="46.19309" lon="-1.40595">
        <ele>5.34793</ele>
        <time>2023-05-31T15:42:15.000Z</time>
      </trkpt>
      <trkpt lat="46.19308" lon="-1.40588">
        <ele>5.31737</ele>
        <time>2023-05-31T15:42:16.000Z</time>
      </trkpt>
      <trkpt lat="46.19306" lon="-1.40581">
        <ele>5.29224</ele>
        <time>2023-05-31T15:42:17.000Z</time>
      </trkpt>
      <trkpt lat="46.19304" lon="-1.40573">
        <ele>5.29142</ele>
        <time>2023-05-31T15:42:18.000Z</time>
      </trkpt>
      <trkpt lat="46.19302" lon="-1.40566">
        <ele>5.30085</ele>
        <time>2023-05-31T15:42:19.000Z</time>
      </trkpt>
      <trkpt lat="46.193" lon="-1.40558">
        <ele>5.32245</ele>
        <time>2023-05-31T15:42:20.000Z</time>
      </trkpt>
      <trkpt lat="46.19298" lon="-1.40551">
        <ele>5.34268</ele>
        <time>2023-05-31T15:42:21.000Z</time>
      </trkpt>
      <trkpt lat="46.19297" lon="-1.40543">
        <ele>5.36061</ele>
        <time>2023-05-31T15:42:22.000Z</time>
      </trkpt>
      <trkpt lat="46.19295" lon="-1.40537">
        <ele>5.40563</ele>
        <time>2023-05-31T15:42:23.000Z</time>
      </trkpt>
      <trkpt lat="46.19293" lon="-1.4053">
        <ele>5.44808</ele>
        <time>2023-05-31T15:42:24.000Z</time>
      </trkpt>
      <trkpt lat="46.19291" lon="-1.40522">
        <ele>5.41144</ele>
        <time>2023-05-31T15:42:25.000Z</time>
      </trkpt>
      <trkpt lat="46.19289" lon="-1.40516">
        <ele>5.40532</ele>
        <time>2023-05-31T15:42:26.000Z</time>
      </trkpt>
      <trkpt lat="46.19287" lon="-1.40509">
        <ele>5.35514</ele>
        <time>2023-05-31T15:42:27.000Z</time>
      </trkpt>
      <trkpt lat="46.19286" lon="-1.40504">
        <ele>5.32442</ele>
        <time>2023-05-31T15:42:28.000Z</time>
      </trkpt>
      <trkpt lat="46.19284" lon="-1.40497">
        <ele>5.2672</ele>
        <time>2023-05-31T15:42:29.000Z</time>
      </trkpt>
      <trkpt lat="46.19283" lon="-1.40491">
        <ele>5.23017</ele>
        <time>2023-05-31T15:42:30.000Z</time>
      </trkpt>
      <trkpt lat="46.19281" lon="-1.40486">
        <ele>5.18256</ele>
        <time>2023-05-31T15:42:31.000Z</time>
      </trkpt>
      <trkpt lat="46.19279" lon="-1.40479">
        <ele>5.15231</ele>
        <time>2023-05-31T15:42:32.000Z</time>
      </trkpt>
      <trkpt lat="46.19278" lon="-1.40474">
        <ele>5.13118</ele>
        <time>2023-05-31T15:42:33.000Z</time>
      </trkpt>
      <trkpt lat="46.19276" lon="-1.40468">
        <ele>5.12869</ele>
        <time>2023-05-31T15:42:34.000Z</time>
      </trkpt>
      <trkpt lat="46.19276" lon="-1.40463">
        <ele>5.14855</ele>
        <time>2023-05-31T15:42:35.000Z</time>
      </trkpt>
      <trkpt lat="46.19276" lon="-1.40458">
        <ele>5.14088</ele>
        <time>2023-05-31T15:42:36.000Z</time>
      </trkpt>
      <trkpt lat="46.19276" lon="-1.40454">
        <ele>5.14326</ele>
        <time>2023-05-31T15:42:37.000Z</time>
      </trkpt>
      <trkpt lat="46.19274" lon="-1.40451">
        <ele>5.15762</ele>
        <time>2023-05-31T15:42:38.000Z</time>
      </trkpt>
      <trkpt lat="46.19272" lon="-1.40448">
        <ele>5.17693</ele>
        <time>2023-05-31T15:42:39.000Z</time>
      </trkpt>
      <trkpt lat="46.19271" lon="-1.40444">
        <ele>5.23108</ele>
        <time>2023-05-31T15:42:40.000Z</time>
      </trkpt>
      <trkpt lat="46.19269" lon="-1.4044">
        <ele>5.29606</ele>
        <time>2023-05-31T15:42:41.000Z</time>
      </trkpt>
      <trkpt lat="46.19268" lon="-1.40435">
        <ele>5.36078</ele>
        <time>2023-05-31T15:42:42.000Z</time>
      </trkpt>
      <trkpt lat="46.19267" lon="-1.40429">
        <ele>5.46049</ele>
        <time>2023-05-31T15:42:43.000Z</time>
      </trkpt>
      <trkpt lat="46.19266" lon="-1.40423">
        <ele>5.55456</ele>
        <time>2023-05-31T15:42:44.000Z</time>
      </trkpt>
      <trkpt lat="46.19265" lon="-1.40417">
        <ele>5.66741</ele>
        <time>2023-05-31T15:42:45.000Z</time>
      </trkpt>
      <trkpt lat="46.19264" lon="-1.4041">
        <ele>5.76323</ele>
        <time>2023-05-31T15:42:46.000Z</time>
      </trkpt>
      <trkpt lat="46.19262" lon="-1.40404">
        <ele>5.88699</ele>
        <time>2023-05-31T15:42:47.000Z</time>
      </trkpt>
      <trkpt lat="46.1926" lon="-1.40397">
        <ele>5.99628</ele>
        <time>2023-05-31T15:42:48.000Z</time>
      </trkpt>
      <trkpt lat="46.19258" lon="-1.4039">
        <ele>6.08696</ele>
        <time>2023-05-31T15:42:49.000Z</time>
      </trkpt>
      <trkpt lat="46.19256" lon="-1.40384">
        <ele>6.11227</ele>
        <time>2023-05-31T15:42:50.000Z</time>
      </trkpt>
      <trkpt lat="46.19254" lon="-1.40377">
        <ele>6.10929</ele>
        <time>2023-05-31T15:42:51.000Z</time>
      </trkpt>
      <trkpt lat="46.19252" lon="-1.4037">
        <ele>6.11579</ele>
        <time>2023-05-31T15:42:52.000Z</time>
      </trkpt>
      <trkpt lat="46.1925" lon="-1.40363">
        <ele>6.09235</ele>
        <time>2023-05-31T15:42:53.000Z</time>
      </trkpt>
      <trkpt lat="46.19248" lon="-1.40356">
        <ele>6.15842</ele>
        <time>2023-05-31T15:42:54.000Z</time>
      </trkpt>
      <trkpt lat="46.19246" lon="-1.40349">
        <ele>6.11746</ele>
        <time>2023-05-31T15:42:55.000Z</time>
      </trkpt>
      <trkpt lat="46.19244" lon="-1.40342">
        <ele>6.1472</ele>
        <time>2023-05-31T15:42:56.000Z</time>
      </trkpt>
      <trkpt lat="46.19242" lon="-1.40335">
        <ele>6.16664</ele>
        <time>2023-05-31T15:42:57.000Z</time>
      </trkpt>
      <trkpt lat="46.19241" lon="-1.40328">
        <ele>6.17474</ele>
        <time>2023-05-31T15:42:58.000Z</time>
      </trkpt>
      <trkpt lat="46.19239" lon="-1.40321">
        <ele>6.1808</ele>
        <time>2023-05-31T15:42:59.000Z</time>
      </trkpt>
      <trkpt lat="46.19238" lon="-1.40314">
        <ele>6.18772</ele>
        <time>2023-05-31T15:43:00.000Z</time>
      </trkpt>
      <trkpt lat="46.19236" lon="-1.40307">
        <ele>6.18317</ele>
        <time>2023-05-31T15:43:01.000Z</time>
      </trkpt>
      <trkpt lat="46.19234" lon="-1.403">
        <ele>6.1833</ele>
        <time>2023-05-31T15:43:02.000Z</time>
      </trkpt>
      <trkpt lat="46.19232" lon="-1.40292">
        <ele>6.16269</ele>
        <time>2023-05-31T15:43:03.000Z</time>
      </trkpt>
      <trkpt lat="46.1923" lon="-1.40285">
        <ele>6.29445</ele>
        <time>2023-05-31T15:43:04.000Z</time>
      </trkpt>
      <trkpt lat="46.19229" lon="-1.40278">
        <ele>6.43835</ele>
        <time>2023-05-31T15:43:05.000Z</time>
      </trkpt>
      <trkpt lat="46.19227" lon="-1.4027">
        <ele>6.60911</ele>
        <time>2023-05-31T15:43:06.000Z</time>
      </trkpt>
      <trkpt lat="46.19226" lon="-1.40263">
        <ele>6.75792</ele>
        <time>2023-05-31T15:43:07.000Z</time>
      </trkpt>
      <trkpt lat="46.19223" lon="-1.40256">
        <ele>6.86672</ele>
        <time>2023-05-31T15:43:08.000Z</time>
      </trkpt>
      <trkpt lat="46.19222" lon="-1.40249">
        <ele>6.80013</ele>
        <time>2023-05-31T15:43:09.000Z</time>
      </trkpt>
      <trkpt lat="46.1922" lon="-1.40241">
        <ele>6.87602</ele>
        <time>2023-05-31T15:43:10.000Z</time>
      </trkpt>
      <trkpt lat="46.19218" lon="-1.40233">
        <ele>6.81807</ele>
        <time>2023-05-31T15:43:11.000Z</time>
      </trkpt>
      <trkpt lat="46.19216" lon="-1.40226">
        <ele>6.83745</ele>
        <time>2023-05-31T15:43:12.000Z</time>
      </trkpt>
      <trkpt lat="46.19213" lon="-1.40218">
        <ele>6.88605</ele>
        <time>2023-05-31T15:43:13.000Z</time>
      </trkpt>
      <trkpt lat="46.19211" lon="-1.40211">
        <ele>6.8553</ele>
        <time>2023-05-31T15:43:14.000Z</time>
      </trkpt>
      <trkpt lat="46.19209" lon="-1.40203">
        <ele>6.90847</ele>
        <time>2023-05-31T15:43:15.000Z</time>
      </trkpt>
      <trkpt lat="46.19207" lon="-1.40195">
        <ele>6.91445</ele>
        <time>2023-05-31T15:43:16.000Z</time>
      </trkpt>
      <trkpt lat="46.19205" lon="-1.40188">
        <ele>6.91163</ele>
        <time>2023-05-31T15:43:17.000Z</time>
      </trkpt>
      <trkpt lat="46.19203" lon="-1.40181">
        <ele>6.90608</ele>
        <time>2023-05-31T15:43:18.000Z</time>
      </trkpt>
      <trkpt lat="46.19201" lon="-1.40173">
        <ele>6.91442</ele>
        <time>2023-05-31T15:43:19.000Z</time>
      </trkpt>
      <trkpt lat="46.19199" lon="-1.40166">
        <ele>6.89953</ele>
        <time>2023-05-31T15:43:20.000Z</time>
      </trkpt>
      <trkpt lat="46.19197" lon="-1.40157">
        <ele>6.88486</ele>
        <time>2023-05-31T15:43:21.000Z</time>
      </trkpt>
      <trkpt lat="46.19195" lon="-1.40149">
        <ele>6.8529</ele>
        <time>2023-05-31T15:43:22.000Z</time>
      </trkpt>
      <trkpt lat="46.19193" lon="-1.40142">
        <ele>6.84476</ele>
        <time>2023-05-31T15:43:23.000Z</time>
      </trkpt>
      <trkpt lat="46.19191" lon="-1.40134">
        <ele>6.69396</ele>
        <time>2023-05-31T15:43:24.000Z</time>
      </trkpt>
      <trkpt lat="46.19189" lon="-1.40126">
        <ele>6.51535</ele>
        <time>2023-05-31T15:43:25.000Z</time>
      </trkpt>
      <trkpt lat="46.19187" lon="-1.40118">
        <ele>6.31421</ele>
        <time>2023-05-31T15:43:26.000Z</time>
      </trkpt>
      <trkpt lat="46.19185" lon="-1.40111">
        <ele>6.11176</ele>
        <time>2023-05-31T15:43:27.000Z</time>
      </trkpt>
      <trkpt lat="46.19183" lon="-1.40103">
        <ele>5.9234</ele>
        <time>2023-05-31T15:43:28.000Z</time>
      </trkpt>
      <trkpt lat="46.19181" lon="-1.40094">
        <ele>5.94615</ele>
        <time>2023-05-31T15:43:29.000Z</time>
      </trkpt>
      <trkpt lat="46.19178" lon="-1.40086">
        <ele>5.87541</ele>
        <time>2023-05-31T15:43:30.000Z</time>
      </trkpt>
      <trkpt lat="46.19176" lon="-1.40078">
        <ele>5.97637</ele>
        <time>2023-05-31T15:43:31.000Z</time>
      </trkpt>
      <trkpt lat="46.19174" lon="-1.4007">
        <ele>5.99603</ele>
        <time>2023-05-31T15:43:32.000Z</time>
      </trkpt>
      <trkpt lat="46.19173" lon="-1.40062">
        <ele>6.03714</ele>
        <time>2023-05-31T15:43:33.000Z</time>
      </trkpt>
      <trkpt lat="46.1917" lon="-1.40054">
        <ele>6.03559</ele>
        <time>2023-05-31T15:43:34.000Z</time>
      </trkpt>
      <trkpt lat="46.19168" lon="-1.40045">
        <ele>6.02411</ele>
        <time>2023-05-31T15:43:35.000Z</time>
      </trkpt>
      <trkpt lat="46.19166" lon="-1.40037">
        <ele>6.0004</ele>
        <time>2023-05-31T15:43:36.000Z</time>
      </trkpt>
      <trkpt lat="46.19164" lon="-1.40029">
        <ele>6.00679</ele>
        <time>2023-05-31T15:43:37.000Z</time>
      </trkpt>
      <trkpt lat="46.19162" lon="-1.40022">
        <ele>6.01374</ele>
        <time>2023-05-31T15:43:38.000Z</time>
      </trkpt>
      <trkpt lat="46.19159" lon="-1.40014">
        <ele>6.04812</ele>
        <time>2023-05-31T15:43:39.000Z</time>
      </trkpt>
      <trkpt lat="46.19158" lon="-1.40006">
        <ele>6.10063</ele>
        <time>2023-05-31T15:43:40.000Z</time>
      </trkpt>
      <trkpt lat="46.19156" lon="-1.39999">
        <ele>6.14253</ele>
        <time>2023-05-31T15:43:41.000Z</time>
      </trkpt>
      <trkpt lat="46.19154" lon="-1.39991">
        <ele>6.20537</ele>
        <time>2023-05-31T15:43:42.000Z</time>
      </trkpt>
      <trkpt lat="46.19152" lon="-1.39983">
        <ele>6.26819</ele>
        <time>2023-05-31T15:43:43.000Z</time>
      </trkpt>
      <trkpt lat="46.19149" lon="-1.39975">
        <ele>6.31404</ele>
        <time>2023-05-31T15:43:44.000Z</time>
      </trkpt>
      <trkpt lat="46.19146" lon="-1.39968">
        <ele>6.34195</ele>
        <time>2023-05-31T15:43:45.000Z</time>
      </trkpt>
      <trkpt lat="46.19143" lon="-1.3996">
        <ele>6.3905</ele>
        <time>2023-05-31T15:43:46.000Z</time>
      </trkpt>
      <trkpt lat="46.19141" lon="-1.39952">
        <ele>6.46596</ele>
        <time>2023-05-31T15:43:47.000Z</time>
      </trkpt>
      <trkpt lat="46.1914" lon="-1.39945">
        <ele>6.52916</ele>
        <time>2023-05-31T15:43:48.000Z</time>
      </trkpt>
      <trkpt lat="46.19137" lon="-1.39937">
        <ele>6.57824</ele>
        <time>2023-05-31T15:43:49.000Z</time>
      </trkpt>
      <trkpt lat="46.19135" lon="-1.39929">
        <ele>6.61918</ele>
        <time>2023-05-31T15:43:50.000Z</time>
      </trkpt>
      <trkpt lat="46.19132" lon="-1.39921">
        <ele>6.64739</ele>
        <time>2023-05-31T15:43:51.000Z</time>
      </trkpt>
      <trkpt lat="46.19129" lon="-1.39914">
        <ele>6.65515</ele>
        <time>2023-05-31T15:43:52.000Z</time>
      </trkpt>
      <trkpt lat="46.19126" lon="-1.39907">
        <ele>6.64636</ele>
        <time>2023-05-31T15:43:53.000Z</time>
      </trkpt>
      <trkpt lat="46.19124" lon="-1.39899">
        <ele>6.65428</ele>
        <time>2023-05-31T15:43:54.000Z</time>
      </trkpt>
      <trkpt lat="46.19121" lon="-1.39891">
        <ele>6.70077</ele>
        <time>2023-05-31T15:43:55.000Z</time>
      </trkpt>
      <trkpt lat="46.19118" lon="-1.39883">
        <ele>6.75075</ele>
        <time>2023-05-31T15:43:56.000Z</time>
      </trkpt>
      <trkpt lat="46.19115" lon="-1.39876">
        <ele>6.80195</ele>
        <time>2023-05-31T15:43:57.000Z</time>
      </trkpt>
      <trkpt lat="46.19112" lon="-1.39868">
        <ele>6.85707</ele>
        <time>2023-05-31T15:43:58.000Z</time>
      </trkpt>
      <trkpt lat="46.1911" lon="-1.39861">
        <ele>6.89615</ele>
        <time>2023-05-31T15:43:59.000Z</time>
      </trkpt>
      <trkpt lat="46.19108" lon="-1.39853">
        <ele>6.92113</ele>
        <time>2023-05-31T15:44:00.000Z</time>
      </trkpt>
      <trkpt lat="46.19105" lon="-1.39846">
        <ele>6.94944</ele>
        <time>2023-05-31T15:44:01.000Z</time>
      </trkpt>
      <trkpt lat="46.19103" lon="-1.39839">
        <ele>6.95561</ele>
        <time>2023-05-31T15:44:02.000Z</time>
      </trkpt>
      <trkpt lat="46.19101" lon="-1.39832">
        <ele>6.94355</ele>
        <time>2023-05-31T15:44:03.000Z</time>
      </trkpt>
      <trkpt lat="46.19098" lon="-1.39824">
        <ele>6.9368</ele>
        <time>2023-05-31T15:44:04.000Z</time>
      </trkpt>
      <trkpt lat="46.19096" lon="-1.39817">
        <ele>6.96953</ele>
        <time>2023-05-31T15:44:05.000Z</time>
      </trkpt>
      <trkpt lat="46.19093" lon="-1.3981">
        <ele>6.99811</ele>
        <time>2023-05-31T15:44:06.000Z</time>
      </trkpt>
      <trkpt lat="46.1909" lon="-1.39803">
        <ele>7.00004</ele>
        <time>2023-05-31T15:44:07.000Z</time>
      </trkpt>
      <trkpt lat="46.19088" lon="-1.39796">
        <ele>6.99526</ele>
        <time>2023-05-31T15:44:08.000Z</time>
      </trkpt>
      <trkpt lat="46.19086" lon="-1.39789">
        <ele>7.00182</ele>
        <time>2023-05-31T15:44:09.000Z</time>
      </trkpt>
      <trkpt lat="46.19083" lon="-1.39781">
        <ele>7.00852</ele>
        <time>2023-05-31T15:44:10.000Z</time>
      </trkpt>
      <trkpt lat="46.1908" lon="-1.39774">
        <ele>7.01827</ele>
        <time>2023-05-31T15:44:11.000Z</time>
      </trkpt>
      <trkpt lat="46.19077" lon="-1.39767">
        <ele>7.03375</ele>
        <time>2023-05-31T15:44:12.000Z</time>
      </trkpt>
      <trkpt lat="46.19074" lon="-1.39759">
        <ele>7.0636</ele>
        <time>2023-05-31T15:44:13.000Z</time>
      </trkpt>
      <trkpt lat="46.19072" lon="-1.39752">
        <ele>7.08118</ele>
        <time>2023-05-31T15:44:14.000Z</time>
      </trkpt>
      <trkpt lat="46.19069" lon="-1.39745">
        <ele>7.06281</ele>
        <time>2023-05-31T15:44:15.000Z</time>
      </trkpt>
      <trkpt lat="46.19067" lon="-1.39738">
        <ele>7.04753</ele>
        <time>2023-05-31T15:44:16.000Z</time>
      </trkpt>
      <trkpt lat="46.19065" lon="-1.39732">
        <ele>7.01062</ele>
        <time>2023-05-31T15:44:17.000Z</time>
      </trkpt>
      <trkpt lat="46.19063" lon="-1.39725">
        <ele>6.96344</ele>
        <time>2023-05-31T15:44:18.000Z</time>
      </trkpt>
      <trkpt lat="46.1906" lon="-1.39719">
        <ele>6.84064</ele>
        <time>2023-05-31T15:44:19.000Z</time>
      </trkpt>
      <trkpt lat="46.19057" lon="-1.39712">
        <ele>6.70591</ele>
        <time>2023-05-31T15:44:20.000Z</time>
      </trkpt>
      <trkpt lat="46.19055" lon="-1.39706">
        <ele>6.58038</ele>
        <time>2023-05-31T15:44:21.000Z</time>
      </trkpt>
      <trkpt lat="46.19053" lon="-1.39699">
        <ele>6.55715</ele>
        <time>2023-05-31T15:44:22.000Z</time>
      </trkpt>
      <trkpt lat="46.19051" lon="-1.39693">
        <ele>6.52985</ele>
        <time>2023-05-31T15:44:23.000Z</time>
      </trkpt>
      <trkpt lat="46.19048" lon="-1.39686">
        <ele>6.49405</ele>
        <time>2023-05-31T15:44:24.000Z</time>
      </trkpt>
      <trkpt lat="46.19046" lon="-1.3968">
        <ele>6.45233</ele>
        <time>2023-05-31T15:44:25.000Z</time>
      </trkpt>
      <trkpt lat="46.19044" lon="-1.39673">
        <ele>6.42473</ele>
        <time>2023-05-31T15:44:26.000Z</time>
      </trkpt>
      <trkpt lat="46.19042" lon="-1.39666">
        <ele>6.45253</ele>
        <time>2023-05-31T15:44:27.000Z</time>
      </trkpt>
      <trkpt lat="46.19039" lon="-1.39659">
        <ele>6.49661</ele>
        <time>2023-05-31T15:44:28.000Z</time>
      </trkpt>
      <trkpt lat="46.19037" lon="-1.39652">
        <ele>6.53889</ele>
        <time>2023-05-31T15:44:29.000Z</time>
      </trkpt>
      <trkpt lat="46.19035" lon="-1.39645">
        <ele>6.59708</ele>
        <time>2023-05-31T15:44:30.000Z</time>
      </trkpt>
      <trkpt lat="46.19033" lon="-1.39639">
        <ele>6.65846</ele>
        <time>2023-05-31T15:44:31.000Z</time>
      </trkpt>
      <trkpt lat="46.19031" lon="-1.39633">
        <ele>6.70994</ele>
        <time>2023-05-31T15:44:32.000Z</time>
      </trkpt>
      <trkpt lat="46.19029" lon="-1.39625">
        <ele>6.73604</ele>
        <time>2023-05-31T15:44:33.000Z</time>
      </trkpt>
      <trkpt lat="46.19027" lon="-1.39619">
        <ele>6.72049</ele>
        <time>2023-05-31T15:44:34.000Z</time>
      </trkpt>
      <trkpt lat="46.19025" lon="-1.39613">
        <ele>6.71563</ele>
        <time>2023-05-31T15:44:35.000Z</time>
      </trkpt>
      <trkpt lat="46.19023" lon="-1.39607">
        <ele>6.71925</ele>
        <time>2023-05-31T15:44:36.000Z</time>
      </trkpt>
      <trkpt lat="46.19022" lon="-1.39602">
        <ele>6.699</ele>
        <time>2023-05-31T15:44:37.000Z</time>
      </trkpt>
      <trkpt lat="46.19021" lon="-1.39596">
        <ele>6.68855</ele>
        <time>2023-05-31T15:44:38.000Z</time>
      </trkpt>
      <trkpt lat="46.19019" lon="-1.39591">
        <ele>6.73206</ele>
        <time>2023-05-31T15:44:39.000Z</time>
      </trkpt>
      <trkpt lat="46.19016" lon="-1.39585">
        <ele>6.90083</ele>
        <time>2023-05-31T15:44:40.000Z</time>
      </trkpt>
      <trkpt lat="46.19014" lon="-1.3958">
        <ele>7.03583</ele>
        <time>2023-05-31T15:44:41.000Z</time>
      </trkpt>
      <trkpt lat="46.19011" lon="-1.39575">
        <ele>7.0703</ele>
        <time>2023-05-31T15:44:42.000Z</time>
      </trkpt>
      <trkpt lat="46.19009" lon="-1.39569">
        <ele>7.10264</ele>
        <time>2023-05-31T15:44:43.000Z</time>
      </trkpt>
      <trkpt lat="46.19007" lon="-1.39564">
        <ele>7.15959</ele>
        <time>2023-05-31T15:44:44.000Z</time>
      </trkpt>
      <trkpt lat="46.19005" lon="-1.39559">
        <ele>7.23666</ele>
        <time>2023-05-31T15:44:45.000Z</time>
      </trkpt>
      <trkpt lat="46.19002" lon="-1.39553">
        <ele>7.28818</ele>
        <time>2023-05-31T15:44:46.000Z</time>
      </trkpt>
      <trkpt lat="46.19" lon="-1.39548">
        <ele>7.28883</ele>
        <time>2023-05-31T15:44:47.000Z</time>
      </trkpt>
      <trkpt lat="46.18998" lon="-1.39542">
        <ele>7.2788</ele>
        <time>2023-05-31T15:44:48.000Z</time>
      </trkpt>
      <trkpt lat="46.18996" lon="-1.39537">
        <ele>7.28459</ele>
        <time>2023-05-31T15:44:49.000Z</time>
      </trkpt>
      <trkpt lat="46.18993" lon="-1.39531">
        <ele>7.27685</ele>
        <time>2023-05-31T15:44:50.000Z</time>
      </trkpt>
      <trkpt lat="46.18991" lon="-1.39526">
        <ele>7.25896</ele>
        <time>2023-05-31T15:44:51.000Z</time>
      </trkpt>
      <trkpt lat="46.18989" lon="-1.39521">
        <ele>7.23375</ele>
        <time>2023-05-31T15:44:52.000Z</time>
      </trkpt>
      <trkpt lat="46.18987" lon="-1.39516">
        <ele>7.22295</ele>
        <time>2023-05-31T15:44:53.000Z</time>
      </trkpt>
      <trkpt lat="46.18985" lon="-1.39511">
        <ele>7.26723</ele>
        <time>2023-05-31T15:44:54.000Z</time>
      </trkpt>
      <trkpt lat="46.18983" lon="-1.39506">
        <ele>7.31908</ele>
        <time>2023-05-31T15:44:55.000Z</time>
      </trkpt>
      <trkpt lat="46.18981" lon="-1.39502">
        <ele>7.38858</ele>
        <time>2023-05-31T15:44:56.000Z</time>
      </trkpt>
      <trkpt lat="46.18979" lon="-1.39498">
        <ele>7.48106</ele>
        <time>2023-05-31T15:44:57.000Z</time>
      </trkpt>
      <trkpt lat="46.18977" lon="-1.39493">
        <ele>7.57501</ele>
        <time>2023-05-31T15:44:58.000Z</time>
      </trkpt>
      <trkpt lat="46.18976" lon="-1.39488">
        <ele>7.68065</ele>
        <time>2023-05-31T15:44:59.000Z</time>
      </trkpt>
      <trkpt lat="46.18974" lon="-1.39483">
        <ele>7.67118</ele>
        <time>2023-05-31T15:45:00.000Z</time>
      </trkpt>
      <trkpt lat="46.18973" lon="-1.39478">
        <ele>7.70111</ele>
        <time>2023-05-31T15:45:01.000Z</time>
      </trkpt>
      <trkpt lat="46.18971" lon="-1.39473">
        <ele>7.72327</ele>
        <time>2023-05-31T15:45:02.000Z</time>
      </trkpt>
      <trkpt lat="46.18969" lon="-1.39468">
        <ele>7.76658</ele>
        <time>2023-05-31T15:45:03.000Z</time>
      </trkpt>
      <trkpt lat="46.18967" lon="-1.39464">
        <ele>7.73374</ele>
        <time>2023-05-31T15:45:04.000Z</time>
      </trkpt>
      <trkpt lat="46.18965" lon="-1.39459">
        <ele>7.66284</ele>
        <time>2023-05-31T15:45:05.000Z</time>
      </trkpt>
      <trkpt lat="46.18963" lon="-1.39453">
        <ele>7.58686</ele>
        <time>2023-05-31T15:45:06.000Z</time>
      </trkpt>
      <trkpt lat="46.18962" lon="-1.39448">
        <ele>7.51299</ele>
        <time>2023-05-31T15:45:07.000Z</time>
      </trkpt>
      <trkpt lat="46.1896" lon="-1.39443">
        <ele>7.45114</ele>
        <time>2023-05-31T15:45:08.000Z</time>
      </trkpt>
      <trkpt lat="46.18958" lon="-1.39438">
        <ele>7.46672</ele>
        <time>2023-05-31T15:45:09.000Z</time>
      </trkpt>
      <trkpt lat="46.18956" lon="-1.39433">
        <ele>7.46579</ele>
        <time>2023-05-31T15:45:10.000Z</time>
      </trkpt>
      <trkpt lat="46.18954" lon="-1.39427">
        <ele>7.47274</ele>
        <time>2023-05-31T15:45:11.000Z</time>
      </trkpt>
      <trkpt lat="46.18952" lon="-1.39422">
        <ele>7.5027</ele>
        <time>2023-05-31T15:45:12.000Z</time>
      </trkpt>
      <trkpt lat="46.1895" lon="-1.39417">
        <ele>7.52133</ele>
        <time>2023-05-31T15:45:13.000Z</time>
      </trkpt>
      <trkpt lat="46.18948" lon="-1.39412">
        <ele>7.5359</ele>
        <time>2023-05-31T15:45:14.000Z</time>
      </trkpt>
      <trkpt lat="46.18946" lon="-1.39406">
        <ele>7.54386</ele>
        <time>2023-05-31T15:45:15.000Z</time>
      </trkpt>
      <trkpt lat="46.18944" lon="-1.39401">
        <ele>7.51005</ele>
        <time>2023-05-31T15:45:16.000Z</time>
      </trkpt>
      <trkpt lat="46.18941" lon="-1.39396">
        <ele>7.5078</ele>
        <time>2023-05-31T15:45:17.000Z</time>
      </trkpt>
      <trkpt lat="46.18939" lon="-1.39391">
        <ele>7.50086</ele>
        <time>2023-05-31T15:45:18.000Z</time>
      </trkpt>
      <trkpt lat="46.18937" lon="-1.39386">
        <ele>7.50473</ele>
        <time>2023-05-31T15:45:19.000Z</time>
      </trkpt>
      <trkpt lat="46.18935" lon="-1.3938">
        <ele>7.51074</ele>
        <time>2023-05-31T15:45:20.000Z</time>
      </trkpt>
      <trkpt lat="46.18933" lon="-1.39375">
        <ele>7.50209</ele>
        <time>2023-05-31T15:45:21.000Z</time>
      </trkpt>
      <trkpt lat="46.18931" lon="-1.3937">
        <ele>7.5052</ele>
        <time>2023-05-31T15:45:22.000Z</time>
      </trkpt>
      <trkpt lat="46.18929" lon="-1.39364">
        <ele>7.50635</ele>
        <time>2023-05-31T15:45:23.000Z</time>
      </trkpt>
      <trkpt lat="46.18927" lon="-1.39358">
        <ele>7.58851</ele>
        <time>2023-05-31T15:45:24.000Z</time>
      </trkpt>
      <trkpt lat="46.18925" lon="-1.39353">
        <ele>7.66063</ele>
        <time>2023-05-31T15:45:25.000Z</time>
      </trkpt>
      <trkpt lat="46.18923" lon="-1.39347">
        <ele>7.76274</ele>
        <time>2023-05-31T15:45:26.000Z</time>
      </trkpt>
      <trkpt lat="46.18921" lon="-1.39341">
        <ele>7.82212</ele>
        <time>2023-05-31T15:45:27.000Z</time>
      </trkpt>
      <trkpt lat="46.18919" lon="-1.39335">
        <ele>7.88801</ele>
        <time>2023-05-31T15:45:28.000Z</time>
      </trkpt>
      <trkpt lat="46.18918" lon="-1.3933">
        <ele>7.84455</ele>
        <time>2023-05-31T15:45:29.000Z</time>
      </trkpt>
      <trkpt lat="46.18916" lon="-1.39324">
        <ele>7.81626</ele>
        <time>2023-05-31T15:45:30.000Z</time>
      </trkpt>
      <trkpt lat="46.18915" lon="-1.39317">
        <ele>7.77549</ele>
        <time>2023-05-31T15:45:31.000Z</time>
      </trkpt>
      <trkpt lat="46.18913" lon="-1.39312">
        <ele>7.72682</ele>
        <time>2023-05-31T15:45:32.000Z</time>
      </trkpt>
      <trkpt lat="46.18911" lon="-1.39306">
        <ele>7.65163</ele>
        <time>2023-05-31T15:45:33.000Z</time>
      </trkpt>
      <trkpt lat="46.1891" lon="-1.393">
        <ele>7.67369</ele>
        <time>2023-05-31T15:45:34.000Z</time>
      </trkpt>
      <trkpt lat="46.18908" lon="-1.39295">
        <ele>7.68372</ele>
        <time>2023-05-31T15:45:35.000Z</time>
      </trkpt>
      <trkpt lat="46.18906" lon="-1.39289">
        <ele>7.70624</ele>
        <time>2023-05-31T15:45:36.000Z</time>
      </trkpt>
      <trkpt lat="46.18905" lon="-1.39283">
        <ele>7.70289</ele>
        <time>2023-05-31T15:45:37.000Z</time>
      </trkpt>
      <trkpt lat="46.18904" lon="-1.39277">
        <ele>7.65879</ele>
        <time>2023-05-31T15:45:38.000Z</time>
      </trkpt>
      <trkpt lat="46.18902" lon="-1.39271">
        <ele>7.60064</ele>
        <time>2023-05-31T15:45:39.000Z</time>
      </trkpt>
      <trkpt lat="46.18902" lon="-1.39266">
        <ele>7.55245</ele>
        <time>2023-05-31T15:45:40.000Z</time>
      </trkpt>
      <trkpt lat="46.189" lon="-1.3926">
        <ele>7.46406</ele>
        <time>2023-05-31T15:45:41.000Z</time>
      </trkpt>
      <trkpt lat="46.18899" lon="-1.39254">
        <ele>7.48064</ele>
        <time>2023-05-31T15:45:42.000Z</time>
      </trkpt>
      <trkpt lat="46.18899" lon="-1.39248">
        <ele>7.48177</ele>
        <time>2023-05-31T15:45:43.000Z</time>
      </trkpt>
      <trkpt lat="46.18898" lon="-1.39242">
        <ele>7.46422</ele>
        <time>2023-05-31T15:45:44.000Z</time>
      </trkpt>
      <trkpt lat="46.18897" lon="-1.39236">
        <ele>7.47862</ele>
        <time>2023-05-31T15:45:45.000Z</time>
      </trkpt>
      <trkpt lat="46.18896" lon="-1.3923">
        <ele>7.43593</ele>
        <time>2023-05-31T15:45:46.000Z</time>
      </trkpt>
      <trkpt lat="46.18896" lon="-1.39224">
        <ele>7.43781</ele>
        <time>2023-05-31T15:45:47.000Z</time>
      </trkpt>
      <trkpt lat="46.18895" lon="-1.39218">
        <ele>7.42011</ele>
        <time>2023-05-31T15:45:48.000Z</time>
      </trkpt>
      <trkpt lat="46.18894" lon="-1.39212">
        <ele>7.38314</ele>
        <time>2023-05-31T15:45:49.000Z</time>
      </trkpt>
      <trkpt lat="46.18894" lon="-1.39206">
        <ele>7.44214</ele>
        <time>2023-05-31T15:45:50.000Z</time>
      </trkpt>
      <trkpt lat="46.18893" lon="-1.39199">
        <ele>7.48764</ele>
        <time>2023-05-31T15:45:51.000Z</time>
      </trkpt>
      <trkpt lat="46.18893" lon="-1.39193">
        <ele>7.54619</ele>
        <time>2023-05-31T15:45:52.000Z</time>
      </trkpt>
      <trkpt lat="46.18893" lon="-1.39187">
        <ele>7.62247</ele>
        <time>2023-05-31T15:45:53.000Z</time>
      </trkpt>
      <trkpt lat="46.18892" lon="-1.39181">
        <ele>7.59876</ele>
        <time>2023-05-31T15:45:54.000Z</time>
      </trkpt>
      <trkpt lat="46.18892" lon="-1.39175">
        <ele>7.58954</ele>
        <time>2023-05-31T15:45:55.000Z</time>
      </trkpt>
      <trkpt lat="46.18892" lon="-1.39169">
        <ele>7.5798</ele>
        <time>2023-05-31T15:45:56.000Z</time>
      </trkpt>
      <trkpt lat="46.18891" lon="-1.39163">
        <ele>7.57889</ele>
        <time>2023-05-31T15:45:57.000Z</time>
      </trkpt>
      <trkpt lat="46.18891" lon="-1.39157">
        <ele>7.63376</ele>
        <time>2023-05-31T15:45:58.000Z</time>
      </trkpt>
      <trkpt lat="46.18891" lon="-1.39151">
        <ele>7.69192</ele>
        <time>2023-05-31T15:45:59.000Z</time>
      </trkpt>
      <trkpt lat="46.18891" lon="-1.39145">
        <ele>7.66994</ele>
        <time>2023-05-31T15:46:00.000Z</time>
      </trkpt>
      <trkpt lat="46.1889" lon="-1.39139">
        <ele>7.70046</ele>
        <time>2023-05-31T15:46:01.000Z</time>
      </trkpt>
      <trkpt lat="46.1889" lon="-1.39133">
        <ele>7.61928</ele>
        <time>2023-05-31T15:46:02.000Z</time>
      </trkpt>
      <trkpt lat="46.1889" lon="-1.39127">
        <ele>7.54864</ele>
        <time>2023-05-31T15:46:03.000Z</time>
      </trkpt>
      <trkpt lat="46.18889" lon="-1.39121">
        <ele>7.6082</ele>
        <time>2023-05-31T15:46:04.000Z</time>
      </trkpt>
      <trkpt lat="46.18889" lon="-1.39115">
        <ele>7.65613</ele>
        <time>2023-05-31T15:46:05.000Z</time>
      </trkpt>
      <trkpt lat="46.18889" lon="-1.39109">
        <ele>7.74676</ele>
        <time>2023-05-31T15:46:06.000Z</time>
      </trkpt>
      <trkpt lat="46.18888" lon="-1.39103">
        <ele>7.83421</ele>
        <time>2023-05-31T15:46:07.000Z</time>
      </trkpt>
      <trkpt lat="46.18888" lon="-1.39097">
        <ele>7.92873</ele>
        <time>2023-05-31T15:46:08.000Z</time>
      </trkpt>
      <trkpt lat="46.18888" lon="-1.39091">
        <ele>8.05113</ele>
        <time>2023-05-31T15:46:09.000Z</time>
      </trkpt>
      <trkpt lat="46.18887" lon="-1.39085">
        <ele>8.1002</ele>
        <time>2023-05-31T15:46:10.000Z</time>
      </trkpt>
      <trkpt lat="46.18887" lon="-1.39079">
        <ele>8.18181</ele>
        <time>2023-05-31T15:46:11.000Z</time>
      </trkpt>
      <trkpt lat="46.18886" lon="-1.39073">
        <ele>8.2186</ele>
        <time>2023-05-31T15:46:12.000Z</time>
      </trkpt>
      <trkpt lat="46.18886" lon="-1.39068">
        <ele>8.25954</ele>
        <time>2023-05-31T15:46:13.000Z</time>
      </trkpt>
      <trkpt lat="46.18885" lon="-1.39062">
        <ele>8.30208</ele>
        <time>2023-05-31T15:46:14.000Z</time>
      </trkpt>
      <trkpt lat="46.18885" lon="-1.39056">
        <ele>8.339</ele>
        <time>2023-05-31T15:46:15.000Z</time>
      </trkpt>
      <trkpt lat="46.18884" lon="-1.39051">
        <ele>8.37878</ele>
        <time>2023-05-31T15:46:16.000Z</time>
      </trkpt>
      <trkpt lat="46.18884" lon="-1.39045">
        <ele>8.4185</ele>
        <time>2023-05-31T15:46:17.000Z</time>
      </trkpt>
      <trkpt lat="46.18883" lon="-1.3904">
        <ele>8.43854</ele>
        <time>2023-05-31T15:46:18.000Z</time>
      </trkpt>
      <trkpt lat="46.18882" lon="-1.39035">
        <ele>8.4455</ele>
        <time>2023-05-31T15:46:19.000Z</time>
      </trkpt>
      <trkpt lat="46.18882" lon="-1.3903">
        <ele>8.52372</ele>
        <time>2023-05-31T15:46:20.000Z</time>
      </trkpt>
      <trkpt lat="46.18882" lon="-1.39025">
        <ele>8.62717</ele>
        <time>2023-05-31T15:46:21.000Z</time>
      </trkpt>
      <trkpt lat="46.18882" lon="-1.3902">
        <ele>8.73565</ele>
        <time>2023-05-31T15:46:22.000Z</time>
      </trkpt>
      <trkpt lat="46.18882" lon="-1.39015">
        <ele>8.83187</ele>
        <time>2023-05-31T15:46:23.000Z</time>
      </trkpt>
      <trkpt lat="46.18882" lon="-1.3901">
        <ele>8.79148</ele>
        <time>2023-05-31T15:46:24.000Z</time>
      </trkpt>
      <trkpt lat="46.18881" lon="-1.39006">
        <ele>8.74849</ele>
        <time>2023-05-31T15:46:25.000Z</time>
      </trkpt>
      <trkpt lat="46.18881" lon="-1.39001">
        <ele>8.6941</ele>
        <time>2023-05-31T15:46:26.000Z</time>
      </trkpt>
      <trkpt lat="46.1888" lon="-1.38996">
        <ele>8.65354</ele>
        <time>2023-05-31T15:46:27.000Z</time>
      </trkpt>
      <trkpt lat="46.1888" lon="-1.38992">
        <ele>8.62831</ele>
        <time>2023-05-31T15:46:28.000Z</time>
      </trkpt>
      <trkpt lat="46.1888" lon="-1.38988">
        <ele>8.62176</ele>
        <time>2023-05-31T15:46:29.000Z</time>
      </trkpt>
      <trkpt lat="46.1888" lon="-1.38983">
        <ele>8.61468</ele>
        <time>2023-05-31T15:46:30.000Z</time>
      </trkpt>
      <trkpt lat="46.1888" lon="-1.3898">
        <ele>8.62092</ele>
        <time>2023-05-31T15:46:31.000Z</time>
      </trkpt>
      <trkpt lat="46.1888" lon="-1.38976">
        <ele>8.65072</ele>
        <time>2023-05-31T15:46:32.000Z</time>
      </trkpt>
      <trkpt lat="46.18879" lon="-1.38971">
        <ele>8.67745</ele>
        <time>2023-05-31T15:46:33.000Z</time>
      </trkpt>
      <trkpt lat="46.18879" lon="-1.38967">
        <ele>8.68992</ele>
        <time>2023-05-31T15:46:34.000Z</time>
      </trkpt>
      <trkpt lat="46.18879" lon="-1.38963">
        <ele>8.63978</ele>
        <time>2023-05-31T15:46:35.000Z</time>
      </trkpt>
      <trkpt lat="46.18878" lon="-1.38959">
        <ele>8.57612</ele>
        <time>2023-05-31T15:46:36.000Z</time>
      </trkpt>
      <trkpt lat="46.18879" lon="-1.38955">
        <ele>8.47843</ele>
        <time>2023-05-31T15:46:37.000Z</time>
      </trkpt>
      <trkpt lat="46.18879" lon="-1.38952">
        <ele>8.38376</ele>
        <time>2023-05-31T15:46:38.000Z</time>
      </trkpt>
      <trkpt lat="46.18879" lon="-1.38949">
        <ele>8.29154</ele>
        <time>2023-05-31T15:46:39.000Z</time>
      </trkpt>
      <trkpt lat="46.18879" lon="-1.38946">
        <ele>8.30923</ele>
        <time>2023-05-31T15:46:40.000Z</time>
      </trkpt>
      <trkpt lat="46.18877" lon="-1.38942">
        <ele>8.28381</ele>
        <time>2023-05-31T15:46:42.000Z</time>
      </trkpt>
      <trkpt lat="46.18875" lon="-1.3894">
        <ele>8.27163</ele>
        <time>2023-05-31T15:46:44.000Z</time>
      </trkpt>
      <trkpt lat="46.18874" lon="-1.38938">
        <ele>8.26231</ele>
        <time>2023-05-31T15:46:46.000Z</time>
      </trkpt>
      <trkpt lat="46.18874" lon="-1.38938">
        <ele>8.26231</ele>
        <time>2023-05-31T15:46:46.000Z</time>
      </trkpt>
      <trkpt lat="46.18853" lon="-1.38955">
        <ele>8.28458</ele>
        <time>2023-05-31T15:48:40.000Z</time>
      </trkpt>
      <trkpt lat="46.18853" lon="-1.38955">
        <ele>8.28458</ele>
        <time>2023-05-31T16:18:19.000Z</time>
      </trkpt>
      <trkpt lat="46.18509" lon="-1.3931">
        <ele>9.35769</ele>
        <time>2023-05-31T16:21:50.000Z</time>
      </trkpt>
      <trkpt lat="46.18509" lon="-1.39314">
        <ele>9.23918</ele>
        <time>2023-05-31T16:21:52.000Z</time>
      </trkpt>
      <trkpt lat="46.18508" lon="-1.39317">
        <ele>9.10953</ele>
        <time>2023-05-31T16:21:54.000Z</time>
      </trkpt>
      <trkpt lat="46.18504" lon="-1.39318">
        <ele>9.01789</ele>
        <time>2023-05-31T16:21:56.000Z</time>
      </trkpt>
      <trkpt lat="46.185" lon="-1.39318">
        <ele>8.90208</ele>
        <time>2023-05-31T16:21:58.000Z</time>
      </trkpt>
      <trkpt lat="46.18497" lon="-1.39316">
        <ele>8.66304</ele>
        <time>2023-05-31T16:21:59.000Z</time>
      </trkpt>
      <trkpt lat="46.18496" lon="-1.39314">
        <ele>8.47819</ele>
        <time>2023-05-31T16:22:01.000Z</time>
      </trkpt>
      <trkpt lat="46.18493" lon="-1.39312">
        <ele>8.31456</ele>
        <time>2023-05-31T16:22:01.000Z</time>
      </trkpt>
      <trkpt lat="46.1849" lon="-1.39309">
        <ele>8.14769</ele>
        <time>2023-05-31T16:25:21.365Z</time>
      </trkpt>
      <trkpt lat="46.1849" lon="-1.39309">
        <ele>8.14769</ele>
        <time>2023-05-31T16:25:21.365Z</time>
      </trkpt>
      <trkpt lat="46.18491" lon="-1.39306">
        <ele>8.03597</ele>
        <time>2023-05-31T16:25:28.000Z</time>
      </trkpt>
      <trkpt lat="46.18493" lon="-1.39303">
        <ele>7.84266</ele>
        <time>2023-05-31T16:25:30.000Z</time>
      </trkpt>
      <trkpt lat="46.18494" lon="-1.393">
        <ele>7.563</ele>
        <time>2023-05-31T16:25:31.000Z</time>
      </trkpt>
      <trkpt lat="46.18495" lon="-1.39296">
        <ele>7.36971</ele>
        <time>2023-05-31T16:25:32.000Z</time>
      </trkpt>
      <trkpt lat="46.18495" lon="-1.39293">
        <ele>7.41707</ele>
        <time>2023-05-31T16:25:33.000Z</time>
      </trkpt>
      <trkpt lat="46.18495" lon="-1.39289">
        <ele>7.41726</ele>
        <time>2023-05-31T16:25:34.000Z</time>
      </trkpt>
      <trkpt lat="46.18495" lon="-1.39286">
        <ele>7.53696</ele>
        <time>2023-05-31T16:25:35.000Z</time>
      </trkpt>
      <trkpt lat="46.18494" lon="-1.39282">
        <ele>7.65391</ele>
        <time>2023-05-31T16:25:36.000Z</time>
      </trkpt>
      <trkpt lat="46.18493" lon="-1.39279">
        <ele>7.75523</ele>
        <time>2023-05-31T16:25:37.000Z</time>
      </trkpt>
      <trkpt lat="46.18492" lon="-1.39275">
        <ele>7.77993</ele>
        <time>2023-05-31T16:25:38.000Z</time>
      </trkpt>
      <trkpt lat="46.18492" lon="-1.39271">
        <ele>7.84166</ele>
        <time>2023-05-31T16:25:39.000Z</time>
      </trkpt>
      <trkpt lat="46.18492" lon="-1.39267">
        <ele>7.90181</ele>
        <time>2023-05-31T16:25:40.000Z</time>
      </trkpt>
      <trkpt lat="46.18492" lon="-1.39263">
        <ele>7.86546</ele>
        <time>2023-05-31T16:25:41.000Z</time>
      </trkpt>
      <trkpt lat="46.18492" lon="-1.3926">
        <ele>7.87256</ele>
        <time>2023-05-31T16:25:42.000Z</time>
      </trkpt>
      <trkpt lat="46.18493" lon="-1.39257">
        <ele>7.86419</ele>
        <time>2023-05-31T16:25:43.000Z</time>
      </trkpt>
      <trkpt lat="46.18495" lon="-1.39253">
        <ele>7.88376</ele>
        <time>2023-05-31T16:25:44.000Z</time>
      </trkpt>
      <trkpt lat="46.18499" lon="-1.3925">
        <ele>7.96934</ele>
        <time>2023-05-31T16:25:45.000Z</time>
      </trkpt>
      <trkpt lat="46.18502" lon="-1.39248">
        <ele>8.07508</ele>
        <time>2023-05-31T16:25:46.000Z</time>
      </trkpt>
      <trkpt lat="46.18505" lon="-1.39245">
        <ele>8.15906</ele>
        <time>2023-05-31T16:25:47.000Z</time>
      </trkpt>
      <trkpt lat="46.18508" lon="-1.39242">
        <ele>8.20859</ele>
        <time>2023-05-31T16:25:48.000Z</time>
      </trkpt>
      <trkpt lat="46.18511" lon="-1.3924">
        <ele>8.27789</ele>
        <time>2023-05-31T16:25:49.000Z</time>
      </trkpt>
      <trkpt lat="46.18514" lon="-1.39239">
        <ele>8.34866</ele>
        <time>2023-05-31T16:25:50.000Z</time>
      </trkpt>
      <trkpt lat="46.18517" lon="-1.39238">
        <ele>8.41536</ele>
        <time>2023-05-31T16:25:51.000Z</time>
      </trkpt>
      <trkpt lat="46.18521" lon="-1.39236">
        <ele>8.39097</ele>
        <time>2023-05-31T16:25:52.000Z</time>
      </trkpt>
      <trkpt lat="46.18524" lon="-1.39235">
        <ele>8.38798</ele>
        <time>2023-05-31T16:25:53.000Z</time>
      </trkpt>
      <trkpt lat="46.18527" lon="-1.39234">
        <ele>8.36062</ele>
        <time>2023-05-31T16:25:54.000Z</time>
      </trkpt>
      <trkpt lat="46.1853" lon="-1.39234">
        <ele>8.32066</ele>
        <time>2023-05-31T16:25:55.000Z</time>
      </trkpt>
      <trkpt lat="46.18533" lon="-1.39233">
        <ele>8.27176</ele>
        <time>2023-05-31T16:25:56.000Z</time>
      </trkpt>
      <trkpt lat="46.18536" lon="-1.39233">
        <ele>8.22467</ele>
        <time>2023-05-31T16:25:57.000Z</time>
      </trkpt>
      <trkpt lat="46.18539" lon="-1.39232">
        <ele>8.18255</ele>
        <time>2023-05-31T16:25:58.000Z</time>
      </trkpt>
      <trkpt lat="46.18542" lon="-1.39231">
        <ele>8.15657</ele>
        <time>2023-05-31T16:25:59.000Z</time>
      </trkpt>
      <trkpt lat="46.18545" lon="-1.39232">
        <ele>8.11283</ele>
        <time>2023-05-31T16:26:00.000Z</time>
      </trkpt>
      <trkpt lat="46.18548" lon="-1.39232">
        <ele>8.07294</ele>
        <time>2023-05-31T16:26:01.000Z</time>
      </trkpt>
      <trkpt lat="46.18551" lon="-1.39232">
        <ele>8.01996</ele>
        <time>2023-05-31T16:26:02.000Z</time>
      </trkpt>
      <trkpt lat="46.18553" lon="-1.39233">
        <ele>7.95512</ele>
        <time>2023-05-31T16:26:03.000Z</time>
      </trkpt>
      <trkpt lat="46.18555" lon="-1.39233">
        <ele>7.83903</ele>
        <time>2023-05-31T16:26:04.000Z</time>
      </trkpt>
      <trkpt lat="46.18558" lon="-1.39233">
        <ele>7.794</ele>
        <time>2023-05-31T16:26:05.000Z</time>
      </trkpt>
      <trkpt lat="46.1856" lon="-1.39232">
        <ele>7.73318</ele>
        <time>2023-05-31T16:26:06.000Z</time>
      </trkpt>
      <trkpt lat="46.18562" lon="-1.39232">
        <ele>7.68171</ele>
        <time>2023-05-31T16:26:07.000Z</time>
      </trkpt>
      <trkpt lat="46.18564" lon="-1.39231">
        <ele>7.69169</ele>
        <time>2023-05-31T16:26:08.000Z</time>
      </trkpt>
      <trkpt lat="46.18567" lon="-1.3923">
        <ele>7.69645</ele>
        <time>2023-05-31T16:26:09.000Z</time>
      </trkpt>
      <trkpt lat="46.1857" lon="-1.3923">
        <ele>7.71416</ele>
        <time>2023-05-31T16:26:10.000Z</time>
      </trkpt>
      <trkpt lat="46.18572" lon="-1.3923">
        <ele>7.73465</ele>
        <time>2023-05-31T16:26:11.000Z</time>
      </trkpt>
      <trkpt lat="46.18575" lon="-1.3923">
        <ele>7.74871</ele>
        <time>2023-05-31T16:26:12.000Z</time>
      </trkpt>
      <trkpt lat="46.18577" lon="-1.3923">
        <ele>7.77698</ele>
        <time>2023-05-31T16:26:13.000Z</time>
      </trkpt>
      <trkpt lat="46.18579" lon="-1.39229">
        <ele>7.79934</ele>
        <time>2023-05-31T16:26:14.000Z</time>
      </trkpt>
      <trkpt lat="46.18582" lon="-1.39229">
        <ele>7.83482</ele>
        <time>2023-05-31T16:26:15.000Z</time>
      </trkpt>
      <trkpt lat="46.18584" lon="-1.39229">
        <ele>7.88156</ele>
        <time>2023-05-31T16:26:16.000Z</time>
      </trkpt>
      <trkpt lat="46.18586" lon="-1.3923">
        <ele>7.85389</ele>
        <time>2023-05-31T16:26:17.000Z</time>
      </trkpt>
      <trkpt lat="46.18589" lon="-1.3923">
        <ele>7.8246</ele>
        <time>2023-05-31T16:26:18.000Z</time>
      </trkpt>
      <trkpt lat="46.18592" lon="-1.39231">
        <ele>7.77866</ele>
        <time>2023-05-31T16:26:19.000Z</time>
      </trkpt>
      <trkpt lat="46.18595" lon="-1.3923">
        <ele>7.75065</ele>
        <time>2023-05-31T16:26:20.000Z</time>
      </trkpt>
      <trkpt lat="46.18598" lon="-1.3923">
        <ele>7.74262</ele>
        <time>2023-05-31T16:26:21.000Z</time>
      </trkpt>
      <trkpt lat="46.18601" lon="-1.3923">
        <ele>7.74046</ele>
        <time>2023-05-31T16:26:22.000Z</time>
      </trkpt>
      <trkpt lat="46.18604" lon="-1.3923">
        <ele>7.75393</ele>
        <time>2023-05-31T16:26:23.000Z</time>
      </trkpt>
      <trkpt lat="46.18607" lon="-1.3923">
        <ele>7.81046</ele>
        <time>2023-05-31T16:26:24.000Z</time>
      </trkpt>
      <trkpt lat="46.18611" lon="-1.39231">
        <ele>7.76472</ele>
        <time>2023-05-31T16:26:25.000Z</time>
      </trkpt>
      <trkpt lat="46.18614" lon="-1.39232">
        <ele>7.73326</ele>
        <time>2023-05-31T16:26:26.000Z</time>
      </trkpt>
      <trkpt lat="46.18617" lon="-1.39233">
        <ele>7.70855</ele>
        <time>2023-05-31T16:26:27.000Z</time>
      </trkpt>
      <trkpt lat="46.18621" lon="-1.39233">
        <ele>7.63345</ele>
        <time>2023-05-31T16:26:28.000Z</time>
      </trkpt>
      <trkpt lat="46.18624" lon="-1.39232">
        <ele>7.55294</ele>
        <time>2023-05-31T16:26:29.000Z</time>
      </trkpt>
      <trkpt lat="46.18626" lon="-1.39231">
        <ele>7.48559</ele>
        <time>2023-05-31T16:26:30.000Z</time>
      </trkpt>
      <trkpt lat="46.18628" lon="-1.39229">
        <ele>7.40355</ele>
        <time>2023-05-31T16:26:31.000Z</time>
      </trkpt>
      <trkpt lat="46.18631" lon="-1.39228">
        <ele>7.30266</ele>
        <time>2023-05-31T16:26:32.000Z</time>
      </trkpt>
      <trkpt lat="46.18633" lon="-1.39226">
        <ele>7.1817</ele>
        <time>2023-05-31T16:26:33.000Z</time>
      </trkpt>
      <trkpt lat="46.18634" lon="-1.39225">
        <ele>7.09996</ele>
        <time>2023-05-31T16:26:34.000Z</time>
      </trkpt>
      <trkpt lat="46.18635" lon="-1.39222">
        <ele>7.01013</ele>
        <time>2023-05-31T16:26:35.000Z</time>
      </trkpt>
      <trkpt lat="46.18637" lon="-1.3922">
        <ele>6.92275</ele>
        <time>2023-05-31T16:26:36.000Z</time>
      </trkpt>
      <trkpt lat="46.18638" lon="-1.39217">
        <ele>6.90824</ele>
        <time>2023-05-31T16:26:37.000Z</time>
      </trkpt>
      <trkpt lat="46.18639" lon="-1.39215">
        <ele>6.88566</ele>
        <time>2023-05-31T16:26:38.000Z</time>
      </trkpt>
      <trkpt lat="46.18639" lon="-1.39212">
        <ele>6.87171</ele>
        <time>2023-05-31T16:26:39.000Z</time>
      </trkpt>
      <trkpt lat="46.18639" lon="-1.39208">
        <ele>6.83516</ele>
        <time>2023-05-31T16:26:40.000Z</time>
      </trkpt>
      <trkpt lat="46.18639" lon="-1.39204">
        <ele>6.82473</ele>
        <time>2023-05-31T16:26:41.000Z</time>
      </trkpt>
      <trkpt lat="46.18638" lon="-1.39201">
        <ele>6.75987</ele>
        <time>2023-05-31T16:26:42.000Z</time>
      </trkpt>
      <trkpt lat="46.18637" lon="-1.39197">
        <ele>6.71668</ele>
        <time>2023-05-31T16:26:43.000Z</time>
      </trkpt>
      <trkpt lat="46.18636" lon="-1.39194">
        <ele>6.67285</ele>
        <time>2023-05-31T16:26:44.000Z</time>
      </trkpt>
      <trkpt lat="46.18635" lon="-1.39191">
        <ele>6.64919</ele>
        <time>2023-05-31T16:26:45.000Z</time>
      </trkpt>
      <trkpt lat="46.18635" lon="-1.39187">
        <ele>6.80068</ele>
        <time>2023-05-31T16:26:46.000Z</time>
      </trkpt>
      <trkpt lat="46.18636" lon="-1.39184">
        <ele>6.94394</ele>
        <time>2023-05-31T16:26:47.000Z</time>
      </trkpt>
      <trkpt lat="46.18637" lon="-1.3918">
        <ele>6.92088</ele>
        <time>2023-05-31T16:26:48.000Z</time>
      </trkpt>
      <trkpt lat="46.18639" lon="-1.39176">
        <ele>6.88477</ele>
        <time>2023-05-31T16:26:50.000Z</time>
      </trkpt>
      <trkpt lat="46.18641" lon="-1.39174">
        <ele>6.94152</ele>
        <time>2023-05-31T16:26:51.000Z</time>
      </trkpt>
      <trkpt lat="46.18643" lon="-1.39174">
        <ele>7.01097</ele>
        <time>2023-05-31T16:26:52.000Z</time>
      </trkpt>
      <trkpt lat="46.18646" lon="-1.39175">
        <ele>7.10394</ele>
        <time>2023-05-31T16:26:53.000Z</time>
      </trkpt>
      <trkpt lat="46.18649" lon="-1.39176">
        <ele>7.21328</ele>
        <time>2023-05-31T16:26:54.000Z</time>
      </trkpt>
      <trkpt lat="46.18651" lon="-1.39176">
        <ele>7.29832</ele>
        <time>2023-05-31T16:26:55.000Z</time>
      </trkpt>
      <trkpt lat="46.18654" lon="-1.39176">
        <ele>7.42635</ele>
        <time>2023-05-31T16:26:56.000Z</time>
      </trkpt>
      <trkpt lat="46.18656" lon="-1.39177">
        <ele>7.53853</ele>
        <time>2023-05-31T16:26:57.000Z</time>
      </trkpt>
      <trkpt lat="46.18659" lon="-1.39177">
        <ele>7.77953</ele>
        <time>2023-05-31T16:26:58.000Z</time>
      </trkpt>
      <trkpt lat="46.18662" lon="-1.39178">
        <ele>8.0184</ele>
        <time>2023-05-31T16:26:59.000Z</time>
      </trkpt>
      <trkpt lat="46.18664" lon="-1.3918">
        <ele>8.09913</ele>
        <time>2023-05-31T16:27:00.000Z</time>
      </trkpt>
      <trkpt lat="46.18666" lon="-1.39182">
        <ele>8.21814</ele>
        <time>2023-05-31T16:27:01.000Z</time>
      </trkpt>
      <trkpt lat="46.18668" lon="-1.39186">
        <ele>8.2919</ele>
        <time>2023-05-31T16:27:02.000Z</time>
      </trkpt>
      <trkpt lat="46.18669" lon="-1.39189">
        <ele>8.36577</ele>
        <time>2023-05-31T16:27:03.000Z</time>
      </trkpt>
      <trkpt lat="46.18671" lon="-1.39192">
        <ele>8.4232</ele>
        <time>2023-05-31T16:27:04.000Z</time>
      </trkpt>
      <trkpt lat="46.18673" lon="-1.39195">
        <ele>8.60336</ele>
        <time>2023-05-31T16:27:05.000Z</time>
      </trkpt>
      <trkpt lat="46.18676" lon="-1.39198">
        <ele>8.78023</ele>
        <time>2023-05-31T16:27:06.000Z</time>
      </trkpt>
      <trkpt lat="46.1868" lon="-1.39199">
        <ele>8.77727</ele>
        <time>2023-05-31T16:27:07.000Z</time>
      </trkpt>
      <trkpt lat="46.18683" lon="-1.39199">
        <ele>8.78129</ele>
        <time>2023-05-31T16:27:08.000Z</time>
      </trkpt>
      <trkpt lat="46.18686" lon="-1.39199">
        <ele>8.98582</ele>
        <time>2023-05-31T16:27:09.000Z</time>
      </trkpt>
      <trkpt lat="46.1869" lon="-1.39199">
        <ele>9.20074</ele>
        <time>2023-05-31T16:27:10.000Z</time>
      </trkpt>
      <trkpt lat="46.18693" lon="-1.39199">
        <ele>9.29492</ele>
        <time>2023-05-31T16:27:11.000Z</time>
      </trkpt>
      <trkpt lat="46.18696" lon="-1.39199">
        <ele>9.41963</ele>
        <time>2023-05-31T16:27:12.000Z</time>
      </trkpt>
      <trkpt lat="46.18699" lon="-1.39198">
        <ele>9.52017</ele>
        <time>2023-05-31T16:27:13.000Z</time>
      </trkpt>
      <trkpt lat="46.18702" lon="-1.39198">
        <ele>9.63935</ele>
        <time>2023-05-31T16:27:14.000Z</time>
      </trkpt>
      <trkpt lat="46.18706" lon="-1.39197">
        <ele>9.75832</ele>
        <time>2023-05-31T16:27:15.000Z</time>
      </trkpt>
      <trkpt lat="46.18709" lon="-1.39196">
        <ele>9.83442</ele>
        <time>2023-05-31T16:27:16.000Z</time>
      </trkpt>
      <trkpt lat="46.18713" lon="-1.39195">
        <ele>9.92959</ele>
        <time>2023-05-31T16:27:17.000Z</time>
      </trkpt>
      <trkpt lat="46.18716" lon="-1.39194">
        <ele>9.67797</ele>
        <time>2023-05-31T16:27:18.000Z</time>
      </trkpt>
      <trkpt lat="46.18719" lon="-1.39193">
        <ele>9.40814</ele>
        <time>2023-05-31T16:27:19.000Z</time>
      </trkpt>
      <trkpt lat="46.18723" lon="-1.39192">
        <ele>9.29326</ele>
        <time>2023-05-31T16:27:20.000Z</time>
      </trkpt>
      <trkpt lat="46.18727" lon="-1.39191">
        <ele>9.29786</ele>
        <time>2023-05-31T16:27:21.000Z</time>
      </trkpt>
      <trkpt lat="46.1873" lon="-1.3919">
        <ele>9.4243</ele>
        <time>2023-05-31T16:27:22.000Z</time>
      </trkpt>
      <trkpt lat="46.18734" lon="-1.39189">
        <ele>9.59113</ele>
        <time>2023-05-31T16:27:23.000Z</time>
      </trkpt>
      <trkpt lat="46.18737" lon="-1.39187">
        <ele>9.73919</ele>
        <time>2023-05-31T16:27:24.000Z</time>
      </trkpt>
      <trkpt lat="46.18739" lon="-1.39184">
        <ele>9.74848</ele>
        <time>2023-05-31T16:27:25.000Z</time>
      </trkpt>
      <trkpt lat="46.1874" lon="-1.39179">
        <ele>9.71951</ele>
        <time>2023-05-31T16:27:26.000Z</time>
      </trkpt>
      <trkpt lat="46.1874" lon="-1.39174">
        <ele>9.74476</ele>
        <time>2023-05-31T16:27:27.000Z</time>
      </trkpt>
      <trkpt lat="46.18741" lon="-1.39169">
        <ele>9.79414</ele>
        <time>2023-05-31T16:27:28.000Z</time>
      </trkpt>
      <trkpt lat="46.18741" lon="-1.39164">
        <ele>9.8505</ele>
        <time>2023-05-31T16:27:29.000Z</time>
      </trkpt>
      <trkpt lat="46.18741" lon="-1.39159">
        <ele>9.9031</ele>
        <time>2023-05-31T16:27:30.000Z</time>
      </trkpt>
      <trkpt lat="46.18741" lon="-1.39153">
        <ele>9.93597</ele>
        <time>2023-05-31T16:27:31.000Z</time>
      </trkpt>
      <trkpt lat="46.18741" lon="-1.39147">
        <ele>9.93796</ele>
        <time>2023-05-31T16:27:32.000Z</time>
      </trkpt>
      <trkpt lat="46.18741" lon="-1.39141">
        <ele>9.991</ele>
        <time>2023-05-31T16:27:33.000Z</time>
      </trkpt>
      <trkpt lat="46.18741" lon="-1.39136">
        <ele>10.01064</ele>
        <time>2023-05-31T16:27:34.000Z</time>
      </trkpt>
      <trkpt lat="46.18741" lon="-1.3913">
        <ele>10.04758</ele>
        <time>2023-05-31T16:27:35.000Z</time>
      </trkpt>
      <trkpt lat="46.18741" lon="-1.39124">
        <ele>10.06698</ele>
        <time>2023-05-31T16:27:36.000Z</time>
      </trkpt>
      <trkpt lat="46.18741" lon="-1.39119">
        <ele>9.93948</ele>
        <time>2023-05-31T16:27:37.000Z</time>
      </trkpt>
      <trkpt lat="46.18741" lon="-1.39113">
        <ele>10.1484</ele>
        <time>2023-05-31T16:27:38.000Z</time>
      </trkpt>
      <trkpt lat="46.18741" lon="-1.39108">
        <ele>10.37739</ele>
        <time>2023-05-31T16:27:39.000Z</time>
      </trkpt>
      <trkpt lat="46.18742" lon="-1.39102">
        <ele>10.59623</ele>
        <time>2023-05-31T16:27:40.000Z</time>
      </trkpt>
      <trkpt lat="46.18742" lon="-1.39097">
        <ele>10.65044</ele>
        <time>2023-05-31T16:27:41.000Z</time>
      </trkpt>
      <trkpt lat="46.18743" lon="-1.39091">
        <ele>10.57549</ele>
        <time>2023-05-31T16:27:42.000Z</time>
      </trkpt>
      <trkpt lat="46.18743" lon="-1.39086">
        <ele>10.43971</ele>
        <time>2023-05-31T16:27:43.000Z</time>
      </trkpt>
      <trkpt lat="46.18744" lon="-1.39081">
        <ele>10.3228</ele>
        <time>2023-05-31T16:27:44.000Z</time>
      </trkpt>
      <trkpt lat="46.18745" lon="-1.39076">
        <ele>10.21564</ele>
        <time>2023-05-31T16:27:45.000Z</time>
      </trkpt>
      <trkpt lat="46.18746" lon="-1.3907">
        <ele>10.12289</ele>
        <time>2023-05-31T16:27:46.000Z</time>
      </trkpt>
      <trkpt lat="46.18746" lon="-1.39065">
        <ele>9.96861</ele>
        <time>2023-05-31T16:27:47.000Z</time>
      </trkpt>
      <trkpt lat="46.18746" lon="-1.3906">
        <ele>9.78564</ele>
        <time>2023-05-31T16:27:48.000Z</time>
      </trkpt>
      <trkpt lat="46.18747" lon="-1.39055">
        <ele>9.56457</ele>
        <time>2023-05-31T16:27:49.000Z</time>
      </trkpt>
      <trkpt lat="46.18747" lon="-1.39049">
        <ele>9.33105</ele>
        <time>2023-05-31T16:27:50.000Z</time>
      </trkpt>
      <trkpt lat="46.18747" lon="-1.39044">
        <ele>9.11318</ele>
        <time>2023-05-31T16:27:51.000Z</time>
      </trkpt>
      <trkpt lat="46.18747" lon="-1.39038">
        <ele>8.88459</ele>
        <time>2023-05-31T16:27:52.000Z</time>
      </trkpt>
      <trkpt lat="46.18748" lon="-1.39033">
        <ele>8.75463</ele>
        <time>2023-05-31T16:27:53.000Z</time>
      </trkpt>
      <trkpt lat="46.18748" lon="-1.39028">
        <ele>8.621</ele>
        <time>2023-05-31T16:27:54.000Z</time>
      </trkpt>
      <trkpt lat="46.18749" lon="-1.39023">
        <ele>8.47294</ele>
        <time>2023-05-31T16:27:55.000Z</time>
      </trkpt>
      <trkpt lat="46.18749" lon="-1.39017">
        <ele>8.34972</ele>
        <time>2023-05-31T16:27:56.000Z</time>
      </trkpt>
      <trkpt lat="46.18749" lon="-1.39012">
        <ele>8.36307</ele>
        <time>2023-05-31T16:27:57.000Z</time>
      </trkpt>
      <trkpt lat="46.1875" lon="-1.39008">
        <ele>8.25782</ele>
        <time>2023-05-31T16:27:58.000Z</time>
      </trkpt>
      <trkpt lat="46.18752" lon="-1.39004">
        <ele>8.19319</ele>
        <time>2023-05-31T16:27:59.000Z</time>
      </trkpt>
      <trkpt lat="46.18754" lon="-1.39001">
        <ele>8.13501</ele>
        <time>2023-05-31T16:28:00.000Z</time>
      </trkpt>
      <trkpt lat="46.18757" lon="-1.39">
        <ele>8.10312</ele>
        <time>2023-05-31T16:28:01.000Z</time>
      </trkpt>
      <trkpt lat="46.1876" lon="-1.38999">
        <ele>8.07313</ele>
        <time>2023-05-31T16:28:02.000Z</time>
      </trkpt>
      <trkpt lat="46.18764" lon="-1.38997">
        <ele>8.11213</ele>
        <time>2023-05-31T16:28:03.000Z</time>
      </trkpt>
      <trkpt lat="46.18767" lon="-1.38996">
        <ele>8.16217</ele>
        <time>2023-05-31T16:28:04.000Z</time>
      </trkpt>
      <trkpt lat="46.1877" lon="-1.38994">
        <ele>8.20517</ele>
        <time>2023-05-31T16:28:05.000Z</time>
      </trkpt>
      <trkpt lat="46.18774" lon="-1.38993">
        <ele>8.27354</ele>
        <time>2023-05-31T16:28:06.000Z</time>
      </trkpt>
      <trkpt lat="46.18777" lon="-1.38991">
        <ele>8.36088</ele>
        <time>2023-05-31T16:28:07.000Z</time>
      </trkpt>
      <trkpt lat="46.18781" lon="-1.3899">
        <ele>8.46098</ele>
        <time>2023-05-31T16:28:08.000Z</time>
      </trkpt>
      <trkpt lat="46.18784" lon="-1.38988">
        <ele>8.55072</ele>
        <time>2023-05-31T16:28:09.000Z</time>
      </trkpt>
      <trkpt lat="46.18787" lon="-1.38987">
        <ele>8.64691</ele>
        <time>2023-05-31T16:28:10.000Z</time>
      </trkpt>
      <trkpt lat="46.18791" lon="-1.38985">
        <ele>8.76079</ele>
        <time>2023-05-31T16:28:11.000Z</time>
      </trkpt>
      <trkpt lat="46.18794" lon="-1.38983">
        <ele>8.91123</ele>
        <time>2023-05-31T16:28:12.000Z</time>
      </trkpt>
      <trkpt lat="46.18797" lon="-1.38981">
        <ele>8.93145</ele>
        <time>2023-05-31T16:28:13.000Z</time>
      </trkpt>
      <trkpt lat="46.18801" lon="-1.38979">
        <ele>8.9577</ele>
        <time>2023-05-31T16:28:14.000Z</time>
      </trkpt>
      <trkpt lat="46.18804" lon="-1.38978">
        <ele>8.98495</ele>
        <time>2023-05-31T16:28:15.000Z</time>
      </trkpt>
      <trkpt lat="46.18807" lon="-1.38976">
        <ele>9.01527</ele>
        <time>2023-05-31T16:28:16.000Z</time>
      </trkpt>
      <trkpt lat="46.18811" lon="-1.38974">
        <ele>9.04801</ele>
        <time>2023-05-31T16:28:17.000Z</time>
      </trkpt>
      <trkpt lat="46.18814" lon="-1.38972">
        <ele>9.07359</ele>
        <time>2023-05-31T16:28:18.000Z</time>
      </trkpt>
      <trkpt lat="46.18818" lon="-1.3897">
        <ele>9.08708</ele>
        <time>2023-05-31T16:28:19.000Z</time>
      </trkpt>
      <trkpt lat="46.18821" lon="-1.38968">
        <ele>9.11301</ele>
        <time>2023-05-31T16:28:20.000Z</time>
      </trkpt>
      <trkpt lat="46.18825" lon="-1.38967">
        <ele>9.14424</ele>
        <time>2023-05-31T16:28:21.000Z</time>
      </trkpt>
      <trkpt lat="46.18828" lon="-1.38965">
        <ele>9.17589</ele>
        <time>2023-05-31T16:28:22.000Z</time>
      </trkpt>
      <trkpt lat="46.18832" lon="-1.38964">
        <ele>9.21043</ele>
        <time>2023-05-31T16:28:23.000Z</time>
      </trkpt>
      <trkpt lat="46.18835" lon="-1.38962">
        <ele>9.24676</ele>
        <time>2023-05-31T16:28:24.000Z</time>
      </trkpt>
      <trkpt lat="46.18838" lon="-1.3896">
        <ele>9.30527</ele>
        <time>2023-05-31T16:28:25.000Z</time>
      </trkpt>
    </trkseg>
  </trk>
</gpx>